<?xml version='1.0' encoding='UTF-8'?><gpx version="1.1" creator="JPX - https://github.com/jenetics/jpx" xmlns="http://www.topografix.com/GPX/1/1"><trk><trkseg><trkpt lat="38.200302048450844" lon="15.304449971695812"><ele>15.999999999999998</ele><time>2026-05-04T05:32:32.821Z</time></trkpt><trkpt lat="38.20031479317287" lon="15.304533717370493"><ele>16.0</ele><time>2026-05-04T05:33:41.001Z</time></trkpt><trkpt lat="38.20037004501811" lon="15.304481722322597"><ele>16.0</ele><time>2026-05-04T05:35:01.001Z</time></trkpt><trkpt lat="38.20041489749238" lon="15.30441362416724"><ele>16.0</ele><time>2026-05-04T05:35:15.001Z</time></trkpt><trkpt lat="38.200401610313605" lon="15.304317757196273"><ele>15.999999999999998</ele><time>2026-05-04T05:35:18.001Z</time></trkpt><trkpt lat="38.2004055096595" lon="15.304232535957633"><ele>16.0</ele><time>2026-05-04T05:35:20.001Z</time></trkpt><trkpt lat="38.200435282369554" lon="15.303898983984778"><ele>16.0</ele><time>2026-05-04T05:35:28.001Z</time></trkpt><trkpt lat="38.200359288056916" lon="15.304039672855044"><ele>16.0</ele><time>2026-05-04T05:35:33.071Z</time></trkpt><trkpt lat="38.20031534161837" lon="15.304315386683099"><ele>16.0</ele><time>2026-05-04T05:35:39.062Z</time></trkpt><trkpt lat="38.2004521045929" lon="15.304420180620086"><ele>15.999999999999998</ele><time>2026-05-04T05:35:57.026Z</time></trkpt><trkpt lat="38.20033210914324" lon="15.304384457831562"><ele>16.0</ele><time>2026-05-04T05:36:00.021Z</time></trkpt><trkpt lat="38.20032304211643" lon="15.304473782455432"><ele>16.0</ele><time>2026-05-04T05:40:39Z</time></trkpt><trkpt lat="38.20034545270131" lon="15.304566289766967"><ele>16.0</ele><time>2026-05-04T05:40:55Z</time></trkpt><trkpt lat="38.20029085065534" lon="15.304641566251556"><ele>15.999999999999998</ele><time>2026-05-04T05:40:57Z</time></trkpt><trkpt lat="38.2002609296622" lon="15.304735581171512"><ele>16.0</ele><time>2026-05-04T05:40:59Z</time></trkpt><trkpt lat="38.20026639001802" lon="15.304918068298814"><ele>16.5</ele><time>2026-05-04T05:41:01Z</time></trkpt><trkpt lat="38.20028019993155" lon="15.305040504288815"><ele>17.0</ele><time>2026-05-04T05:41:02Z</time></trkpt><trkpt lat="38.2002960782055" lon="15.305170318420075"><ele>17.5</ele><time>2026-05-04T05:41:03Z</time></trkpt><trkpt lat="38.200320850365586" lon="15.3053122973558"><ele>18.0</ele><time>2026-05-04T05:41:04Z</time></trkpt><trkpt lat="38.20035676795913" lon="15.305494551557151"><ele>19.0</ele><time>2026-05-04T05:41:05Z</time></trkpt><trkpt lat="38.20040073103357" lon="15.305707645322991"><ele>20.0</ele><time>2026-05-04T05:41:06Z</time></trkpt><trkpt lat="38.20044174250395" lon="15.305908611388093"><ele>21.0</ele><time>2026-05-04T05:41:07Z</time></trkpt><trkpt lat="38.20047162560115" lon="15.306084248268336"><ele>21.0</ele><time>2026-05-04T05:41:08Z</time></trkpt><trkpt lat="38.20049800186832" lon="15.306251285439128"><ele>21.0</ele><time>2026-05-04T05:41:09Z</time></trkpt><trkpt lat="38.20053201271594" lon="15.3064255996992"><ele>21.0</ele><time>2026-05-04T05:41:10Z</time></trkpt><trkpt lat="38.20055593999069" lon="15.306596044923728"><ele>21.0</ele><time>2026-05-04T05:41:11Z</time></trkpt><trkpt lat="38.20058356485582" lon="15.306779152533819"><ele>21.333333333333332</ele><time>2026-05-04T05:41:12Z</time></trkpt><trkpt lat="38.20061778840351" lon="15.306963126260648"><ele>21.666666666666664</ele><time>2026-05-04T05:41:13Z</time></trkpt><trkpt lat="38.20065015813336" lon="15.3071566535473"><ele>22.0</ele><time>2026-05-04T05:41:14Z</time></trkpt><trkpt lat="38.20068768199343" lon="15.30736554595465"><ele>20.333333333333332</ele><time>2026-05-04T05:41:15Z</time></trkpt><trkpt lat="38.200729355332676" lon="15.30757408472225"><ele>18.666666666666668</ele><time>2026-05-04T05:41:16Z</time></trkpt><trkpt lat="38.20076827708536" lon="15.307780593376707"><ele>17.0</ele><time>2026-05-04T05:41:17Z</time></trkpt><trkpt lat="38.20080410638203" lon="15.307988032543927"><ele>17.333333333333336</ele><time>2026-05-04T05:41:18Z</time></trkpt><trkpt lat="38.200842906179986" lon="15.308197405215786"><ele>17.666666666666668</ele><time>2026-05-04T05:41:19Z</time></trkpt><trkpt lat="38.20088373180732" lon="15.308406867681242"><ele>18.0</ele><time>2026-05-04T05:41:20Z</time></trkpt><trkpt lat="38.2009217962739" lon="15.30861969370216"><ele>18.0</ele><time>2026-05-04T05:41:21Z</time></trkpt><trkpt lat="38.20095849269671" lon="15.308828062968605"><ele>18.0</ele><time>2026-05-04T05:41:22Z</time></trkpt><trkpt lat="38.20099015777107" lon="15.309041033204222"><ele>18.0</ele><time>2026-05-04T05:41:23Z</time></trkpt><trkpt lat="38.201025411298275" lon="15.309261153742488"><ele>18.666666666666668</ele><time>2026-05-04T05:41:24Z</time></trkpt><trkpt lat="38.20106499122721" lon="15.30949235115593"><ele>19.333333333333336</ele><time>2026-05-04T05:41:25Z</time></trkpt><trkpt lat="38.201106963459715" lon="15.309721890969746"><ele>20.0</ele><time>2026-05-04T05:41:25.999Z</time></trkpt><trkpt lat="38.20114953453539" lon="15.30995352969404"><ele>20.333333333333336</ele><time>2026-05-04T05:41:26.999Z</time></trkpt><trkpt lat="38.20119422111321" lon="15.310197139147933"><ele>20.666666666666668</ele><time>2026-05-04T05:41:27.999Z</time></trkpt><trkpt lat="38.2012356297872" lon="15.310436451166233"><ele>21.0</ele><time>2026-05-04T05:41:28.999Z</time></trkpt><trkpt lat="38.20127609492052" lon="15.310676391518276"><ele>21.0</ele><time>2026-05-04T05:41:29.999Z</time></trkpt><trkpt lat="38.20131726094525" lon="15.31092448482223"><ele>21.0</ele><time>2026-05-04T05:41:30.999Z</time></trkpt><trkpt lat="38.20136055205079" lon="15.311171505014427"><ele>21.0</ele><time>2026-05-04T05:41:31.999Z</time></trkpt><trkpt lat="38.201403543623066" lon="15.311412855558077"><ele>20.0</ele><time>2026-05-04T05:41:32.999Z</time></trkpt><trkpt lat="38.20144632166221" lon="15.31165140033154"><ele>19.0</ele><time>2026-05-04T05:41:33.999Z</time></trkpt><trkpt lat="38.201489691914894" lon="15.311887479528936"><ele>18.0</ele><time>2026-05-04T05:41:34.999Z</time></trkpt><trkpt lat="38.20153053845903" lon="15.312121526399007"><ele>17.666666666666668</ele><time>2026-05-04T05:41:35.999Z</time></trkpt><trkpt lat="38.201571229816395" lon="15.312350299910573"><ele>17.333333333333336</ele><time>2026-05-04T05:41:36.999Z</time></trkpt><trkpt lat="38.20161094622681" lon="15.312575786052973"><ele>17.0</ele><time>2026-05-04T05:41:37.999Z</time></trkpt><trkpt lat="38.201655644202006" lon="15.312799042962855"><ele>17.0</ele><time>2026-05-04T05:41:38.999Z</time></trkpt><trkpt lat="38.201697209704726" lon="15.313026330840657"><ele>17.0</ele><time>2026-05-04T05:41:39.999Z</time></trkpt><trkpt lat="38.20173925300779" lon="15.313249202033616"><ele>17.0</ele><time>2026-05-04T05:41:40.999Z</time></trkpt><trkpt lat="38.20177836233539" lon="15.31345994444008"><ele>17.0</ele><time>2026-05-04T05:41:41.999Z</time></trkpt><trkpt lat="38.201810491027835" lon="15.313677370565896"><ele>17.0</ele><time>2026-05-04T05:41:42.999Z</time></trkpt><trkpt lat="38.20185786340568" lon="15.31388927116722"><ele>17.0</ele><time>2026-05-04T05:41:43.999Z</time></trkpt><trkpt lat="38.20188975766809" lon="15.31409153494927"><ele>17.0</ele><time>2026-05-04T05:41:44.999Z</time></trkpt><trkpt lat="38.20192661887727" lon="15.314283500972024"><ele>17.0</ele><time>2026-05-04T05:41:45.999Z</time></trkpt><trkpt lat="38.20195874608657" lon="15.3144756584015"><ele>17.0</ele><time>2026-05-04T05:41:46.999Z</time></trkpt><trkpt lat="38.201995005269836" lon="15.31467912878676"><ele>16.75</ele><time>2026-05-04T05:41:47.999Z</time></trkpt><trkpt lat="38.202030810318576" lon="15.314873106670207"><ele>16.5</ele><time>2026-05-04T05:41:48.999Z</time></trkpt><trkpt lat="38.20205840434127" lon="15.315051337039607"><ele>16.25</ele><time>2026-05-04T05:41:49.999Z</time></trkpt><trkpt lat="38.20208401149083" lon="15.315222422053177"><ele>16.0</ele><time>2026-05-04T05:41:50.999Z</time></trkpt><trkpt lat="38.202112939783575" lon="15.315385547229226"><ele>16.0</ele><time>2026-05-04T05:41:51.999Z</time></trkpt><trkpt lat="38.202150066510086" lon="15.315562795709152"><ele>16.0</ele><time>2026-05-04T05:41:52.999Z</time></trkpt><trkpt lat="38.20219469317621" lon="15.315750708324991"><ele>16.0</ele><time>2026-05-04T05:41:53.999Z</time></trkpt><trkpt lat="38.20224673572362" lon="15.31597008514885"><ele>15.666666666666666</ele><time>2026-05-04T05:41:54.999Z</time></trkpt><trkpt lat="38.20228829910455" lon="15.316217107988704"><ele>15.333333333333332</ele><time>2026-05-04T05:41:55.999Z</time></trkpt><trkpt lat="38.202325739604284" lon="15.316486930113955"><ele>15.0</ele><time>2026-05-04T05:41:56.999Z</time></trkpt><trkpt lat="38.202371432553704" lon="15.316783580236804"><ele>14.666666666666668</ele><time>2026-05-04T05:41:57.999Z</time></trkpt><trkpt lat="38.2024195513033" lon="15.317062054178049"><ele>14.333333333333334</ele><time>2026-05-04T05:41:58.999Z</time></trkpt><trkpt lat="38.202465552852054" lon="15.317316159211897"><ele>14.0</ele><time>2026-05-04T05:41:59.999Z</time></trkpt><trkpt lat="38.20250205969845" lon="15.317539062283968"><ele>14.0</ele><time>2026-05-04T05:42:00.999Z</time></trkpt><trkpt lat="38.202541041796245" lon="15.31775596236266"><ele>14.0</ele><time>2026-05-04T05:42:01.999Z</time></trkpt><trkpt lat="38.20258009553566" lon="15.317959603095701"><ele>14.0</ele><time>2026-05-04T05:42:02.999Z</time></trkpt><trkpt lat="38.20260823628628" lon="15.318141440897387"><ele>14.399999999999999</ele><time>2026-05-04T05:42:03.999Z</time></trkpt><trkpt lat="38.202628703136725" lon="15.318303250965162"><ele>14.799999999999999</ele><time>2026-05-04T05:42:04.999Z</time></trkpt><trkpt lat="38.202644911858016" lon="15.318419970655302"><ele>15.200000000000001</ele><time>2026-05-04T05:42:05.999Z</time></trkpt><trkpt lat="38.20266348892655" lon="15.318534444002802"><ele>15.600000000000001</ele><time>2026-05-04T05:42:06.999Z</time></trkpt><trkpt lat="38.20268571490564" lon="15.318668646663513"><ele>16.0</ele><time>2026-05-04T05:42:07.999Z</time></trkpt><trkpt lat="38.20271635418206" lon="15.318830354193684"><ele>16.0</ele><time>2026-05-04T05:42:08.999Z</time></trkpt><trkpt lat="38.20274737974156" lon="15.319013449931024"><ele>16.0</ele><time>2026-05-04T05:42:09.999Z</time></trkpt><trkpt lat="38.20278843219922" lon="15.319220045297802"><ele>16.0</ele><time>2026-05-04T05:42:10.999Z</time></trkpt><trkpt lat="38.20283730265883" lon="15.319453571576506"><ele>16.0</ele><time>2026-05-04T05:42:11.999Z</time></trkpt><trkpt lat="38.20288083882829" lon="15.319690349799071"><ele>16.0</ele><time>2026-05-04T05:42:12.999Z</time></trkpt><trkpt lat="38.202911515245226" lon="15.31991041760678"><ele>16.0</ele><time>2026-05-04T05:42:13.999Z</time></trkpt><trkpt lat="38.20294195128744" lon="15.320116441444977"><ele>16.25</ele><time>2026-05-04T05:42:15.001Z</time></trkpt><trkpt lat="38.20296275994625" lon="15.320300378048252"><ele>16.5</ele><time>2026-05-04T05:42:16.001Z</time></trkpt><trkpt lat="38.202972801861975" lon="15.320468836706317"><ele>16.75</ele><time>2026-05-04T05:42:17.001Z</time></trkpt><trkpt lat="38.20297028830309" lon="15.320616019928096"><ele>17.0</ele><time>2026-05-04T05:42:18.001Z</time></trkpt><trkpt lat="38.20296505325136" lon="15.320746847801528"><ele>17.0</ele><time>2026-05-04T05:42:19.001Z</time></trkpt><trkpt lat="38.20294738251415" lon="15.320870821969969"><ele>17.0</ele><time>2026-05-04T05:42:20.001Z</time></trkpt><trkpt lat="38.2029434799099" lon="15.320998652107496"><ele>17.0</ele><time>2026-05-04T05:42:21.001Z</time></trkpt><trkpt lat="38.20294715010238" lon="15.321137316967002"><ele>17.0</ele><time>2026-05-04T05:42:22.001Z</time></trkpt><trkpt lat="38.20293718147825" lon="15.32128448157824"><ele>17.0</ele><time>2026-05-04T05:42:23.001Z</time></trkpt><trkpt lat="38.202930858387845" lon="15.321445013949498"><ele>17.0</ele><time>2026-05-04T05:42:24.001Z</time></trkpt><trkpt lat="38.202921167835775" lon="15.321613222140002"><ele>17.0</ele><time>2026-05-04T05:42:25.001Z</time></trkpt><trkpt lat="38.202912123984056" lon="15.32177547272287"><ele>17.0</ele><time>2026-05-04T05:42:26.001Z</time></trkpt><trkpt lat="38.20290502306473" lon="15.321924781748708"><ele>17.0</ele><time>2026-05-04T05:42:27.001Z</time></trkpt><trkpt lat="38.2029019498102" lon="15.322068298399214"><ele>17.0</ele><time>2026-05-04T05:42:28.001Z</time></trkpt><trkpt lat="38.2028978827845" lon="15.322211115605405"><ele>17.0</ele><time>2026-05-04T05:42:29.001Z</time></trkpt><trkpt lat="38.20289311920439" lon="15.322343734524821"><ele>17.0</ele><time>2026-05-04T05:42:30.001Z</time></trkpt><trkpt lat="38.20288904872372" lon="15.322462106614058"><ele>17.0</ele><time>2026-05-04T05:42:31.001Z</time></trkpt><trkpt lat="38.20288806189242" lon="15.322584393257712"><ele>17.0</ele><time>2026-05-04T05:42:32Z</time></trkpt><trkpt lat="38.20288853786123" lon="15.322703657985713"><ele>17.0</ele><time>2026-05-04T05:42:33Z</time></trkpt><trkpt lat="38.20288958075775" lon="15.322818773378689"><ele>17.0</ele><time>2026-05-04T05:42:34Z</time></trkpt><trkpt lat="38.20289319323157" lon="15.322933049957054"><ele>17.0</ele><time>2026-05-04T05:42:35Z</time></trkpt><trkpt lat="38.202898068967365" lon="15.323053371582482"><ele>17.0</ele><time>2026-05-04T05:42:36Z</time></trkpt><trkpt lat="38.20290464744474" lon="15.323192005602696"><ele>17.0</ele><time>2026-05-04T05:42:37Z</time></trkpt><trkpt lat="38.20291333170509" lon="15.323341307457111"><ele>17.0</ele><time>2026-05-04T05:42:38Z</time></trkpt><trkpt lat="38.202923221621646" lon="15.323482635111285"><ele>17.0</ele><time>2026-05-04T05:42:39Z</time></trkpt><trkpt lat="38.20293087911749" lon="15.323611803570158"><ele>17.0</ele><time>2026-05-04T05:42:40Z</time></trkpt><trkpt lat="38.20293787475425" lon="15.323730708029853"><ele>17.0</ele><time>2026-05-04T05:42:41Z</time></trkpt><trkpt lat="38.20294385862733" lon="15.323839749818148"><ele>17.0</ele><time>2026-05-04T05:42:42Z</time></trkpt><trkpt lat="38.202951608759456" lon="15.323946841141815"><ele>17.0</ele><time>2026-05-04T05:42:43Z</time></trkpt><trkpt lat="38.20296916209545" lon="15.3240539991751"><ele>17.0</ele><time>2026-05-04T05:42:44Z</time></trkpt><trkpt lat="38.202997031333915" lon="15.324155221169306"><ele>17.0</ele><time>2026-05-04T05:42:45Z</time></trkpt><trkpt lat="38.20303539849302" lon="15.3242426206995"><ele>17.0</ele><time>2026-05-04T05:42:46Z</time></trkpt><trkpt lat="38.20308174771167" lon="15.324333659873856"><ele>17.0</ele><time>2026-05-04T05:42:47Z</time></trkpt><trkpt lat="38.20312239437364" lon="15.324417619927093"><ele>17.0</ele><time>2026-05-04T05:42:48Z</time></trkpt><trkpt lat="38.20315953780435" lon="15.324497129696066"><ele>16.666666666666668</ele><time>2026-05-04T05:42:49Z</time></trkpt><trkpt lat="38.203200677936714" lon="15.32458104535175"><ele>16.333333333333336</ele><time>2026-05-04T05:42:50Z</time></trkpt><trkpt lat="38.20324180270587" lon="15.324663421630227"><ele>16.0</ele><time>2026-05-04T05:42:51Z</time></trkpt><trkpt lat="38.20328553137152" lon="15.324748645305904"><ele>15.666666666666668</ele><time>2026-05-04T05:42:52Z</time></trkpt><trkpt lat="38.20331678790896" lon="15.324820443310665"><ele>15.333333333333334</ele><time>2026-05-04T05:42:53Z</time></trkpt><trkpt lat="38.203325525602736" lon="15.32491417890918"><ele>15.0</ele><time>2026-05-04T05:42:55Z</time></trkpt><trkpt lat="38.2032393511093" lon="15.324943261664945"><ele>16.2</ele><time>2026-05-04T05:42:56Z</time></trkpt><trkpt lat="38.20315159499229" lon="15.32497404524897"><ele>17.4</ele><time>2026-05-04T05:42:57Z</time></trkpt><trkpt lat="38.20305514495674" lon="15.324973915010682"><ele>18.6</ele><time>2026-05-04T05:42:58Z</time></trkpt><trkpt lat="38.20299036990466" lon="15.324995916401711"><ele>19.8</ele><time>2026-05-04T05:42:59Z</time></trkpt><trkpt lat="38.2029129080835" lon="15.32504291699828"><ele>21.0</ele><time>2026-05-04T05:43:01Z</time></trkpt><trkpt lat="38.20294918175011" lon="15.325337054622345"><ele>21.0</ele><time>2026-05-04T05:43:02Z</time></trkpt><trkpt lat="38.2029326836161" lon="15.325488179642054"><ele>21.0</ele><time>2026-05-04T05:43:03Z</time></trkpt><trkpt lat="38.2029220225825" lon="15.32564956806299"><ele>21.0</ele><time>2026-05-04T05:43:04Z</time></trkpt><trkpt lat="38.20294381325659" lon="15.325812486344283"><ele>21.0</ele><time>2026-05-04T05:43:05Z</time></trkpt><trkpt lat="38.20298890087683" lon="15.325989853860134"><ele>23.75</ele><time>2026-05-04T05:43:06Z</time></trkpt><trkpt lat="38.203022320183535" lon="15.326182393731782"><ele>26.5</ele><time>2026-05-04T05:43:07Z</time></trkpt><trkpt lat="38.203045999764576" lon="15.326337206437646"><ele>29.25</ele><time>2026-05-04T05:43:08Z</time></trkpt><trkpt lat="38.20307270936157" lon="15.326460382952028"><ele>32.0</ele><time>2026-05-04T05:43:09Z</time></trkpt><trkpt lat="38.20308750299895" lon="15.326550134648876"><ele>32.25</ele><time>2026-05-04T05:43:10Z</time></trkpt><trkpt lat="38.20323386840913" lon="15.326557444591097"><ele>32.5</ele><time>2026-05-04T05:43:12Z</time></trkpt><trkpt lat="38.20329497277107" lon="15.326580834287064"><ele>32.75</ele><time>2026-05-04T05:43:13Z</time></trkpt><trkpt lat="38.203302548126565" lon="15.32680681683606"><ele>33.0</ele><time>2026-05-04T05:43:16Z</time></trkpt><trkpt lat="38.20330097744639" lon="15.326950252149004"><ele>33.0</ele><time>2026-05-04T05:43:17Z</time></trkpt><trkpt lat="38.203302286378005" lon="15.327122252533409"><ele>33.0</ele><time>2026-05-04T05:43:18Z</time></trkpt><trkpt lat="38.20330515262594" lon="15.32729251513639"><ele>33.0</ele><time>2026-05-04T05:43:19Z</time></trkpt><trkpt lat="38.20330822836668" lon="15.327440035074803"><ele>33.0</ele><time>2026-05-04T05:43:20Z</time></trkpt><trkpt lat="38.203285287779224" lon="15.32754158128089"><ele>36.333333333333336</ele><time>2026-05-04T05:43:21Z</time></trkpt><trkpt lat="38.203123758577526" lon="15.327621692728018"><ele>39.66666666666667</ele><time>2026-05-04T05:43:22.999Z</time></trkpt><trkpt lat="38.202999058910166" lon="15.327696733750189"><ele>43.0</ele><time>2026-05-04T05:43:23.999Z</time></trkpt><trkpt lat="38.20283530713388" lon="15.327770089911688"><ele>43.0</ele><time>2026-05-04T05:43:24.999Z</time></trkpt><trkpt lat="38.20267824165317" lon="15.3278570664332"><ele>43.0</ele><time>2026-05-04T05:43:25.999Z</time></trkpt><trkpt lat="38.202530095456666" lon="15.327906230207482"><ele>43.0</ele><time>2026-05-04T05:43:26.999Z</time></trkpt><trkpt lat="38.202390630879414" lon="15.327962192407862"><ele>41.75</ele><time>2026-05-04T05:43:27.999Z</time></trkpt><trkpt lat="38.20226877521327" lon="15.328030776100347"><ele>40.5</ele><time>2026-05-04T05:43:28.999Z</time></trkpt><trkpt lat="38.20217068852458" lon="15.328128116383231"><ele>39.25</ele><time>2026-05-04T05:43:29.999Z</time></trkpt><trkpt lat="38.20210092320339" lon="15.328252668391935"><ele>38.0</ele><time>2026-05-04T05:43:30.999Z</time></trkpt><trkpt lat="38.202061150089826" lon="15.328420412923345"><ele>38.0</ele><time>2026-05-04T05:43:31.999Z</time></trkpt><trkpt lat="38.20205441470638" lon="15.328593770519797"><ele>38.0</ele><time>2026-05-04T05:43:32.999Z</time></trkpt><trkpt lat="38.202089525770475" lon="15.32876164246655"><ele>38.0</ele><time>2026-05-04T05:43:33.999Z</time></trkpt><trkpt lat="38.20216044753106" lon="15.328919533004877"><ele>38.0</ele><time>2026-05-04T05:43:34.999Z</time></trkpt><trkpt lat="38.20226376330798" lon="15.329059229524242"><ele>32.666666666666664</ele><time>2026-05-04T05:43:35.999Z</time></trkpt><trkpt lat="38.20238849758675" lon="15.32920389105853"><ele>27.333333333333332</ele><time>2026-05-04T05:43:36.999Z</time></trkpt><trkpt lat="38.20251674384673" lon="15.329361407911865"><ele>22.0</ele><time>2026-05-04T05:43:37.999Z</time></trkpt><trkpt lat="38.20262635232024" lon="15.32954967080845"><ele>20.666666666666664</ele><time>2026-05-04T05:43:38.999Z</time></trkpt><trkpt lat="38.20276864805877" lon="15.329744140931227"><ele>19.333333333333332</ele><time>2026-05-04T05:43:39.999Z</time></trkpt><trkpt lat="38.20289905024035" lon="15.32996363903198"><ele>18.0</ele><time>2026-05-04T05:43:40.999Z</time></trkpt><trkpt lat="38.20301864603768" lon="15.330176917979617"><ele>18.0</ele><time>2026-05-04T05:43:41.999Z</time></trkpt><trkpt lat="38.203122882100544" lon="15.330369917397876"><ele>18.0</ele><time>2026-05-04T05:43:42.999Z</time></trkpt><trkpt lat="38.20322140423524" lon="15.3305463976365"><ele>18.0</ele><time>2026-05-04T05:43:43.999Z</time></trkpt><trkpt lat="38.20331373175309" lon="15.330712768631194"><ele>17.8</ele><time>2026-05-04T05:43:44.999Z</time></trkpt><trkpt lat="38.2033904905315" lon="15.330855362952818"><ele>17.6</ele><time>2026-05-04T05:43:45.999Z</time></trkpt><trkpt lat="38.203453886573875" lon="15.330963083927921"><ele>17.4</ele><time>2026-05-04T05:43:46.999Z</time></trkpt><trkpt lat="38.2034998334641" lon="15.33104297053153"><ele>17.2</ele><time>2026-05-04T05:43:47.999Z</time></trkpt><trkpt lat="38.203514166912775" lon="15.33115503255853"><ele>17.0</ele><time>2026-05-04T05:43:49.999Z</time></trkpt><trkpt lat="38.203413506977824" lon="15.331235480350022"><ele>17.0</ele><time>2026-05-04T05:43:51.999Z</time></trkpt><trkpt lat="38.20333316995749" lon="15.331301777005198"><ele>17.0</ele><time>2026-05-04T05:43:52.999Z</time></trkpt><trkpt lat="38.20322718808946" lon="15.33140834608728"><ele>17.0</ele><time>2026-05-04T05:43:53.999Z</time></trkpt><trkpt lat="38.20311047286959" lon="15.331519216657233"><ele>17.0</ele><time>2026-05-04T05:43:54.999Z</time></trkpt><trkpt lat="38.20297075845732" lon="15.331651886103627"><ele>17.333333333333336</ele><time>2026-05-04T05:43:55.999Z</time></trkpt><trkpt lat="38.202826803164825" lon="15.33178507258427"><ele>17.666666666666668</ele><time>2026-05-04T05:43:56.999Z</time></trkpt><trkpt lat="38.20268202510423" lon="15.331915533309337"><ele>18.0</ele><time>2026-05-04T05:43:57.999Z</time></trkpt><trkpt lat="38.2025408740668" lon="15.332047904054516"><ele>18.0</ele><time>2026-05-04T05:43:58.999Z</time></trkpt><trkpt lat="38.20239761795339" lon="15.332186500573961"><ele>18.0</ele><time>2026-05-04T05:43:59.999Z</time></trkpt><trkpt lat="38.202257507066925" lon="15.332323548590733"><ele>18.0</ele><time>2026-05-04T05:44:00.999Z</time></trkpt><trkpt lat="38.20211210131003" lon="15.332471010800289"><ele>18.0</ele><time>2026-05-04T05:44:01.999Z</time></trkpt><trkpt lat="38.201937475235745" lon="15.33261333194146"><ele>18.0</ele><time>2026-05-04T05:44:02.999Z</time></trkpt><trkpt lat="38.201759215661674" lon="15.332780940623634"><ele>18.0</ele><time>2026-05-04T05:44:03.999Z</time></trkpt><trkpt lat="38.201598900009756" lon="15.332954896194922"><ele>18.666666666666668</ele><time>2026-05-04T05:44:04.999Z</time></trkpt><trkpt lat="38.20144500266214" lon="15.3330920466056"><ele>19.333333333333336</ele><time>2026-05-04T05:44:05.999Z</time></trkpt><trkpt lat="38.20129985013071" lon="15.333224759311234"><ele>20.0</ele><time>2026-05-04T05:44:06.999Z</time></trkpt><trkpt lat="38.20115343623916" lon="15.33335613018866"><ele>20.0</ele><time>2026-05-04T05:44:07.999Z</time></trkpt><trkpt lat="38.20101108551488" lon="15.333493710456843"><ele>20.0</ele><time>2026-05-04T05:44:08.999Z</time></trkpt><trkpt lat="38.20086996122778" lon="15.333624016490809"><ele>20.0</ele><time>2026-05-04T05:44:09.999Z</time></trkpt><trkpt lat="38.200724247115396" lon="15.333757151306301"><ele>21.0</ele><time>2026-05-04T05:44:10.999Z</time></trkpt><trkpt lat="38.20057624421547" lon="15.333900226581305"><ele>22.0</ele><time>2026-05-04T05:44:11.999Z</time></trkpt><trkpt lat="38.200420595330606" lon="15.334045764846682"><ele>23.0</ele><time>2026-05-04T05:44:12.999Z</time></trkpt><trkpt lat="38.20027368779441" lon="15.334191107346355"><ele>23.0</ele><time>2026-05-04T05:44:13.999Z</time></trkpt><trkpt lat="38.20011920887569" lon="15.334328611929"><ele>23.0</ele><time>2026-05-04T05:44:14.999Z</time></trkpt><trkpt lat="38.19996052046059" lon="15.334470274855525"><ele>23.0</ele><time>2026-05-04T05:44:15.999Z</time></trkpt><trkpt lat="38.19982005654271" lon="15.334622307823727"><ele>22.333333333333336</ele><time>2026-05-04T05:44:16.999Z</time></trkpt><trkpt lat="38.19966846455749" lon="15.33474221810814"><ele>21.666666666666668</ele><time>2026-05-04T05:44:17.998Z</time></trkpt><trkpt lat="38.19953025110794" lon="15.334894245525403"><ele>21.0</ele><time>2026-05-04T05:44:18.998Z</time></trkpt><trkpt lat="38.19938622482599" lon="15.335027327815409"><ele>21.0</ele><time>2026-05-04T05:44:19.998Z</time></trkpt><trkpt lat="38.1992366287308" lon="15.335165475326033"><ele>21.0</ele><time>2026-05-04T05:44:21Z</time></trkpt><trkpt lat="38.19908987253094" lon="15.335304980177616"><ele>21.0</ele><time>2026-05-04T05:44:22Z</time></trkpt><trkpt lat="38.19895026362362" lon="15.33544148160232"><ele>22.0</ele><time>2026-05-04T05:44:23Z</time></trkpt><trkpt lat="38.19880925259077" lon="15.335574212289064"><ele>23.0</ele><time>2026-05-04T05:44:24Z</time></trkpt><trkpt lat="38.198666107376205" lon="15.335706549526288"><ele>24.0</ele><time>2026-05-04T05:44:25Z</time></trkpt><trkpt lat="38.19853009279915" lon="15.335841325884456"><ele>24.0</ele><time>2026-05-04T05:44:26Z</time></trkpt><trkpt lat="38.19838576522422" lon="15.335974273650056"><ele>24.0</ele><time>2026-05-04T05:44:27Z</time></trkpt><trkpt lat="38.19824728720122" lon="15.336095629310762"><ele>24.0</ele><time>2026-05-04T05:44:28Z</time></trkpt><trkpt lat="38.19810497552308" lon="15.336221237152127"><ele>24.0</ele><time>2026-05-04T05:44:29Z</time></trkpt><trkpt lat="38.19795713089851" lon="15.336347600976916"><ele>24.0</ele><time>2026-05-04T05:44:30Z</time></trkpt><trkpt lat="38.197802260132185" lon="15.336467902536565"><ele>24.0</ele><time>2026-05-04T05:44:31Z</time></trkpt><trkpt lat="38.19763719730951" lon="15.336576436580485"><ele>24.0</ele><time>2026-05-04T05:44:32Z</time></trkpt><trkpt lat="38.197453521696815" lon="15.33665844438833"><ele>24.0</ele><time>2026-05-04T05:44:33Z</time></trkpt><trkpt lat="38.19726606877312" lon="15.336753414090259"><ele>24.0</ele><time>2026-05-04T05:44:34Z</time></trkpt><trkpt lat="38.19708071767333" lon="15.336847318941542"><ele>24.333333333333336</ele><time>2026-05-04T05:44:35Z</time></trkpt><trkpt lat="38.196903682869895" lon="15.336936569940669"><ele>24.666666666666668</ele><time>2026-05-04T05:44:36Z</time></trkpt><trkpt lat="38.19672464755652" lon="15.337026811350999"><ele>25.0</ele><time>2026-05-04T05:44:37Z</time></trkpt><trkpt lat="38.196541432520426" lon="15.337119407628029"><ele>25.666666666666668</ele><time>2026-05-04T05:44:38Z</time></trkpt><trkpt lat="38.19636131243583" lon="15.337232374363603"><ele>26.333333333333336</ele><time>2026-05-04T05:44:39Z</time></trkpt><trkpt lat="38.19617304994047" lon="15.337324489444553"><ele>27.0</ele><time>2026-05-04T05:44:40Z</time></trkpt><trkpt lat="38.19598378621994" lon="15.337420375403692"><ele>27.0</ele><time>2026-05-04T05:44:41Z</time></trkpt><trkpt lat="38.19579796367487" lon="15.337516170617306"><ele>27.0</ele><time>2026-05-04T05:44:42Z</time></trkpt><trkpt lat="38.19561419964805" lon="15.337609465837252"><ele>27.0</ele><time>2026-05-04T05:44:43Z</time></trkpt><trkpt lat="38.19543068356341" lon="15.33770345716554"><ele>27.666666666666664</ele><time>2026-05-04T05:44:44Z</time></trkpt><trkpt lat="38.195248979801725" lon="15.337792946900027"><ele>28.333333333333332</ele><time>2026-05-04T05:44:45Z</time></trkpt><trkpt lat="38.19506996192681" lon="15.337886550537505"><ele>29.0</ele><time>2026-05-04T05:44:46Z</time></trkpt><trkpt lat="38.194894674284264" lon="15.337986802075891"><ele>28.666666666666664</ele><time>2026-05-04T05:44:47Z</time></trkpt><trkpt lat="38.19472691090272" lon="15.338102201497701"><ele>28.333333333333336</ele><time>2026-05-04T05:44:48Z</time></trkpt><trkpt lat="38.19456206296068" lon="15.338229906400985"><ele>28.0</ele><time>2026-05-04T05:44:49Z</time></trkpt><trkpt lat="38.19439396471078" lon="15.338367244176023"><ele>28.0</ele><time>2026-05-04T05:44:50Z</time></trkpt><trkpt lat="38.194231709882416" lon="15.338511612191663"><ele>28.0</ele><time>2026-05-04T05:44:51Z</time></trkpt><trkpt lat="38.194071241781316" lon="15.338659627606024"><ele>28.0</ele><time>2026-05-04T05:44:52Z</time></trkpt><trkpt lat="38.19390828294096" lon="15.338806969869047"><ele>28.666666666666668</ele><time>2026-05-04T05:44:53Z</time></trkpt><trkpt lat="38.193743720008264" lon="15.338952938519542"><ele>29.333333333333336</ele><time>2026-05-04T05:44:54Z</time></trkpt><trkpt lat="38.19357648238429" lon="15.339098460012341"><ele>30.0</ele><time>2026-05-04T05:44:55Z</time></trkpt><trkpt lat="38.19341554957606" lon="15.339241387338465"><ele>30.0</ele><time>2026-05-04T05:44:56Z</time></trkpt><trkpt lat="38.193268634839214" lon="15.339373990244813"><ele>30.0</ele><time>2026-05-04T05:44:57Z</time></trkpt><trkpt lat="38.19311697529008" lon="15.339502635023221"><ele>30.0</ele><time>2026-05-04T05:44:58Z</time></trkpt><trkpt lat="38.19296375180996" lon="15.339639790025197"><ele>30.333333333333336</ele><time>2026-05-04T05:44:59Z</time></trkpt><trkpt lat="38.19281115461083" lon="15.339780065895678"><ele>30.666666666666668</ele><time>2026-05-04T05:45:00Z</time></trkpt><trkpt lat="38.19266019935128" lon="15.3399215649536"><ele>31.0</ele><time>2026-05-04T05:45:01Z</time></trkpt><trkpt lat="38.19251467568626" lon="15.340069594511622"><ele>31.0</ele><time>2026-05-04T05:45:02Z</time></trkpt><trkpt lat="38.19237144871736" lon="15.340225864104351"><ele>31.0</ele><time>2026-05-04T05:45:03Z</time></trkpt><trkpt lat="38.192230896387606" lon="15.340392223787337"><ele>31.0</ele><time>2026-05-04T05:45:04Z</time></trkpt><trkpt lat="38.19209154579494" lon="15.340567400919909"><ele>31.666666666666668</ele><time>2026-05-04T05:45:05Z</time></trkpt><trkpt lat="38.191954862101866" lon="15.340740871272727"><ele>32.333333333333336</ele><time>2026-05-04T05:45:06Z</time></trkpt><trkpt lat="38.191819054933816" lon="15.340915130682266"><ele>33.0</ele><time>2026-05-04T05:45:07Z</time></trkpt><trkpt lat="38.191682441812645" lon="15.34108981757166"><ele>33.0</ele><time>2026-05-04T05:45:08Z</time></trkpt><trkpt lat="38.191544781043284" lon="15.341264595762036"><ele>33.0</ele><time>2026-05-04T05:45:09Z</time></trkpt><trkpt lat="38.19140632293169" lon="15.341439326621924"><ele>33.0</ele><time>2026-05-04T05:45:10Z</time></trkpt><trkpt lat="38.19126719120117" lon="15.341616233746782"><ele>33.666666666666664</ele><time>2026-05-04T05:45:11Z</time></trkpt><trkpt lat="38.19112849503974" lon="15.341791514972542"><ele>34.33333333333333</ele><time>2026-05-04T05:45:12Z</time></trkpt><trkpt lat="38.19098596946327" lon="15.341966647934356"><ele>35.0</ele><time>2026-05-04T05:45:13Z</time></trkpt><trkpt lat="38.19084519628555" lon="15.342143186472352"><ele>35.33333333333333</ele><time>2026-05-04T05:45:14Z</time></trkpt><trkpt lat="38.190703556434855" lon="15.342322050811267"><ele>35.666666666666664</ele><time>2026-05-04T05:45:15Z</time></trkpt><trkpt lat="38.190561460299726" lon="15.342499688354408"><ele>36.0</ele><time>2026-05-04T05:45:16Z</time></trkpt><trkpt lat="38.19041702836948" lon="15.342675793510066"><ele>36.0</ele><time>2026-05-04T05:45:17Z</time></trkpt><trkpt lat="38.19027175489626" lon="15.342851463194469"><ele>36.0</ele><time>2026-05-04T05:45:18Z</time></trkpt><trkpt lat="38.190124690685344" lon="15.343024813801652"><ele>36.0</ele><time>2026-05-04T05:45:19Z</time></trkpt><trkpt lat="38.189972268885" lon="15.343193611061649"><ele>36.666666666666664</ele><time>2026-05-04T05:45:20Z</time></trkpt><trkpt lat="38.18981676929866" lon="15.34335526968238"><ele>37.33333333333333</ele><time>2026-05-04T05:45:21Z</time></trkpt><trkpt lat="38.18965689324713" lon="15.343513099993112"><ele>38.0</ele><time>2026-05-04T05:45:22Z</time></trkpt><trkpt lat="38.18948356276296" lon="15.343673588963348"><ele>38.0</ele><time>2026-05-04T05:45:22.999Z</time></trkpt><trkpt lat="38.18931468277064" lon="15.34382607551609"><ele>38.0</ele><time>2026-05-04T05:45:23.999Z</time></trkpt><trkpt lat="38.18914940942173" lon="15.343976170991454"><ele>38.0</ele><time>2026-05-04T05:45:24.999Z</time></trkpt><trkpt lat="38.18898651207013" lon="15.344128444914597"><ele>38.666666666666664</ele><time>2026-05-04T05:45:25.999Z</time></trkpt><trkpt lat="38.188827673165434" lon="15.344274817830982"><ele>39.333333333333336</ele><time>2026-05-04T05:45:26.999Z</time></trkpt><trkpt lat="38.18867212751762" lon="15.344410564083521"><ele>40.0</ele><time>2026-05-04T05:45:27.999Z</time></trkpt><trkpt lat="38.1885176817944" lon="15.344547704025125"><ele>40.0</ele><time>2026-05-04T05:45:28.999Z</time></trkpt><trkpt lat="38.188356457207306" lon="15.344679861109205"><ele>40.0</ele><time>2026-05-04T05:45:29.999Z</time></trkpt><trkpt lat="38.18817236488523" lon="15.344759255825812"><ele>40.0</ele><time>2026-05-04T05:45:30.999Z</time></trkpt><trkpt lat="38.18798426643939" lon="15.344810168495014"><ele>39.66666666666667</ele><time>2026-05-04T05:45:31.999Z</time></trkpt><trkpt lat="38.18779056925053" lon="15.34486292860531"><ele>39.333333333333336</ele><time>2026-05-04T05:45:32.999Z</time></trkpt><trkpt lat="38.18759191220391" lon="15.344917039729097"><ele>39.0</ele><time>2026-05-04T05:45:33.999Z</time></trkpt><trkpt lat="38.187393414499844" lon="15.34499176672299"><ele>40.0</ele><time>2026-05-04T05:45:34.999Z</time></trkpt><trkpt lat="38.187193619504036" lon="15.345043676517726"><ele>41.0</ele><time>2026-05-04T05:45:35.999Z</time></trkpt><trkpt lat="38.18698906914478" lon="15.345094442080008"><ele>42.0</ele><time>2026-05-04T05:45:36.999Z</time></trkpt><trkpt lat="38.18677545797396" lon="15.345150890436452"><ele>42.0</ele><time>2026-05-04T05:45:37.999Z</time></trkpt><trkpt lat="38.186562122869155" lon="15.345212425797536"><ele>42.0</ele><time>2026-05-04T05:45:38.999Z</time></trkpt><trkpt lat="38.18636530577212" lon="15.345271251869718"><ele>42.0</ele><time>2026-05-04T05:45:39.999Z</time></trkpt><trkpt lat="38.1861788570326" lon="15.34531822137456"><ele>42.333333333333336</ele><time>2026-05-04T05:45:40.999Z</time></trkpt><trkpt lat="38.18599438111049" lon="15.345360015603644"><ele>42.66666666666667</ele><time>2026-05-04T05:45:41.999Z</time></trkpt><trkpt lat="38.18581386766339" lon="15.34538741357606"><ele>43.0</ele><time>2026-05-04T05:45:42.999Z</time></trkpt><trkpt lat="38.185633523231935" lon="15.345391556832618"><ele>43.66666666666667</ele><time>2026-05-04T05:45:43.999Z</time></trkpt><trkpt lat="38.185454057846165" lon="15.345341072537956"><ele>44.333333333333336</ele><time>2026-05-04T05:45:44.999Z</time></trkpt><trkpt lat="38.18527293956613" lon="15.34527159036093"><ele>45.0</ele><time>2026-05-04T05:45:45.999Z</time></trkpt><trkpt lat="38.18508543634926" lon="15.345198135489193"><ele>45.0</ele><time>2026-05-04T05:45:46.999Z</time></trkpt><trkpt lat="38.184898332363915" lon="15.345124837021993"><ele>45.0</ele><time>2026-05-04T05:45:47.999Z</time></trkpt><trkpt lat="38.184709689770024" lon="15.345050445187104"><ele>45.0</ele><time>2026-05-04T05:45:48.999Z</time></trkpt><trkpt lat="38.18452357133746" lon="15.344976734340406"><ele>45.0</ele><time>2026-05-04T05:45:49.999Z</time></trkpt><trkpt lat="38.184341913254215" lon="15.344911728368206"><ele>45.0</ele><time>2026-05-04T05:45:50.999Z</time></trkpt><trkpt lat="38.18415604073802" lon="15.344888386626282"><ele>45.0</ele><time>2026-05-04T05:45:51.999Z</time></trkpt><trkpt lat="38.18397147509392" lon="15.34487069492321"><ele>44.666666666666664</ele><time>2026-05-04T05:45:52.999Z</time></trkpt><trkpt lat="38.183784601822985" lon="15.344886954064767"><ele>44.33333333333333</ele><time>2026-05-04T05:45:53.999Z</time></trkpt><trkpt lat="38.183596327554575" lon="15.344928015446314"><ele>44.0</ele><time>2026-05-04T05:45:54.999Z</time></trkpt><trkpt lat="38.18340826592526" lon="15.344983607002781"><ele>44.0</ele><time>2026-05-04T05:45:55.999Z</time></trkpt><trkpt lat="38.183215671741294" lon="15.34501855901953"><ele>44.0</ele><time>2026-05-04T05:45:56.999Z</time></trkpt><trkpt lat="38.18303099915094" lon="15.345061310329049"><ele>44.0</ele><time>2026-05-04T05:45:57.999Z</time></trkpt><trkpt lat="38.182854285263886" lon="15.345092813964836"><ele>45.0</ele><time>2026-05-04T05:45:58.999Z</time></trkpt><trkpt lat="38.182683322818946" lon="15.345077828510544"><ele>46.0</ele><time>2026-05-04T05:45:59.999Z</time></trkpt><trkpt lat="38.18249811406333" lon="15.345048960221046"><ele>47.0</ele><time>2026-05-04T05:46:00.999Z</time></trkpt><trkpt lat="38.182307648247125" lon="15.345016023127306"><ele>47.33333333333333</ele><time>2026-05-04T05:46:01.999Z</time></trkpt><trkpt lat="38.18212254405723" lon="15.344972535900036"><ele>47.666666666666664</ele><time>2026-05-04T05:46:02.999Z</time></trkpt><trkpt lat="38.18194905209326" lon="15.344906124075989"><ele>48.0</ele><time>2026-05-04T05:46:03.999Z</time></trkpt><trkpt lat="38.18177916775341" lon="15.344832005628337"><ele>48.0</ele><time>2026-05-04T05:46:04.999Z</time></trkpt><trkpt lat="38.18160931396056" lon="15.344779675140297"><ele>48.0</ele><time>2026-05-04T05:46:05.999Z</time></trkpt><trkpt lat="38.1814525193145" lon="15.344725007348462"><ele>48.0</ele><time>2026-05-04T05:46:06.999Z</time></trkpt><trkpt lat="38.18129990471025" lon="15.344712170767918"><ele>49.0</ele><time>2026-05-04T05:46:07.999Z</time></trkpt><trkpt lat="38.181138135763696" lon="15.344736935913117"><ele>50.0</ele><time>2026-05-04T05:46:08.999Z</time></trkpt><trkpt lat="38.18096278929865" lon="15.344782662268232"><ele>51.0</ele><time>2026-05-04T05:46:09.999Z</time></trkpt><trkpt lat="38.180779278625394" lon="15.34483054313614"><ele>51.33333333333333</ele><time>2026-05-04T05:46:10.999Z</time></trkpt><trkpt lat="38.180601790652545" lon="15.344864287426494"><ele>51.666666666666664</ele><time>2026-05-04T05:46:11.999Z</time></trkpt><trkpt lat="38.180427400897536" lon="15.344879064781136"><ele>52.0</ele><time>2026-05-04T05:46:12.999Z</time></trkpt><trkpt lat="38.180257930779426" lon="15.3448240231206"><ele>52.0</ele><time>2026-05-04T05:46:13.999Z</time></trkpt><trkpt lat="38.18008544723483" lon="15.34477446059221"><ele>52.0</ele><time>2026-05-04T05:46:14.999Z</time></trkpt><trkpt lat="38.17991558182745" lon="15.344796081897897"><ele>52.0</ele><time>2026-05-04T05:46:15.999Z</time></trkpt><trkpt lat="38.17974913645053" lon="15.34482501563722"><ele>52.0</ele><time>2026-05-04T05:46:16.999Z</time></trkpt><trkpt lat="38.17957711841831" lon="15.34490512672706"><ele>52.0</ele><time>2026-05-04T05:46:17.999Z</time></trkpt><trkpt lat="38.179401070455576" lon="15.345016694382155"><ele>52.0</ele><time>2026-05-04T05:46:18.998Z</time></trkpt><trkpt lat="38.179216487245434" lon="15.345146161722651"><ele>52.0</ele><time>2026-05-04T05:46:19.998Z</time></trkpt><trkpt lat="38.17902192431069" lon="15.345279843242244"><ele>52.0</ele><time>2026-05-04T05:46:20.998Z</time></trkpt><trkpt lat="38.17882992515347" lon="15.345404860190708"><ele>52.0</ele><time>2026-05-04T05:46:21.998Z</time></trkpt><trkpt lat="38.178649825234" lon="15.345528494636799"><ele>52.666666666666664</ele><time>2026-05-04T05:46:22.998Z</time></trkpt><trkpt lat="38.178464057793605" lon="15.34566828294172"><ele>53.33333333333333</ele><time>2026-05-04T05:46:23.998Z</time></trkpt><trkpt lat="38.17826672489291" lon="15.34582470442526"><ele>54.0</ele><time>2026-05-04T05:46:24.998Z</time></trkpt><trkpt lat="38.17806670705181" lon="15.345983546869883"><ele>55.0</ele><time>2026-05-04T05:46:25.998Z</time></trkpt><trkpt lat="38.177851557824816" lon="15.346156469032229"><ele>56.0</ele><time>2026-05-04T05:46:27Z</time></trkpt><trkpt lat="38.1776294526493" lon="15.34634523527576"><ele>56.0</ele><time>2026-05-04T05:46:28Z</time></trkpt><trkpt lat="38.17742744421794" lon="15.346520962552203"><ele>56.0</ele><time>2026-05-04T05:46:29Z</time></trkpt><trkpt lat="38.17725262215917" lon="15.346671313918957"><ele>57.0</ele><time>2026-05-04T05:46:30Z</time></trkpt><trkpt lat="38.17709646262029" lon="15.346801622960598"><ele>58.0</ele><time>2026-05-04T05:46:31Z</time></trkpt><trkpt lat="38.17695058929319" lon="15.346915372293832"><ele>59.0</ele><time>2026-05-04T05:46:32Z</time></trkpt><trkpt lat="38.17681690256845" lon="15.347020731600294"><ele>59.0</ele><time>2026-05-04T05:46:33Z</time></trkpt><trkpt lat="38.176703523593105" lon="15.347116497483965"><ele>59.00000000000001</ele><time>2026-05-04T05:46:34Z</time></trkpt><trkpt lat="38.17661108727758" lon="15.347195235837626"><ele>59.00000000000001</ele><time>2026-05-04T05:46:35Z</time></trkpt><trkpt lat="38.17653633673375" lon="15.347262206181515"><ele>59.0</ele><time>2026-05-04T05:46:36Z</time></trkpt><trkpt lat="38.176484899068456" lon="15.347311434291848"><ele>59.0</ele><time>2026-05-04T05:46:37Z</time></trkpt><trkpt lat="38.17650656220104" lon="15.34721538672571"><ele>59.00000000000001</ele><time>2026-05-04T05:46:42Z</time></trkpt><trkpt lat="38.17656163874427" lon="15.347158954451514"><ele>59.0</ele><time>2026-05-04T05:46:43Z</time></trkpt><trkpt lat="38.17662122425014" lon="15.347093305438928"><ele>59.0</ele><time>2026-05-04T05:46:44Z</time></trkpt><trkpt lat="38.1766886616848" lon="15.346991707815539"><ele>59.0</ele><time>2026-05-04T05:46:46Z</time></trkpt><trkpt lat="38.17677150266502" lon="15.347004548064252"><ele>59.00000000000001</ele><time>2026-05-04T05:46:50Z</time></trkpt><trkpt lat="38.17683711110106" lon="15.347011240976459"><ele>59.0</ele><time>2026-05-04T05:46:52Z</time></trkpt><trkpt lat="38.17690366991867" lon="15.347107771294635"><ele>59.00000000000001</ele><time>2026-05-04T05:46:54Z</time></trkpt><trkpt lat="38.17693434974409" lon="15.347200095574761"><ele>59.0</ele><time>2026-05-04T05:46:56Z</time></trkpt><trkpt lat="38.176966720333255" lon="15.34729140730651"><ele>59.0</ele><time>2026-05-04T05:49:59.999Z</time></trkpt><trkpt lat="38.17701191118205" lon="15.347407992404337"><ele>59.0</ele><time>2026-05-04T05:50:01.999Z</time></trkpt><trkpt lat="38.17704705796441" lon="15.347494032142734"><ele>59.00000000000001</ele><time>2026-05-04T05:50:03.999Z</time></trkpt><trkpt lat="38.17709087260294" lon="15.347583080625721"><ele>59.0</ele><time>2026-05-04T05:50:06.999Z</time></trkpt><trkpt lat="38.17716892901219" lon="15.34761973485671"><ele>58.833333333333336</ele><time>2026-05-04T05:50:08.999Z</time></trkpt><trkpt lat="38.1772332349855" lon="15.347601426382411"><ele>58.66666666666667</ele><time>2026-05-04T05:50:09.999Z</time></trkpt><trkpt lat="38.17730042121416" lon="15.347557876251553"><ele>58.5</ele><time>2026-05-04T05:50:10.999Z</time></trkpt><trkpt lat="38.177405232753436" lon="15.347593101978468"><ele>58.33333333333333</ele><time>2026-05-04T05:50:11.999Z</time></trkpt><trkpt lat="38.177462876807084" lon="15.347541067106203"><ele>58.166666666666664</ele><time>2026-05-04T05:50:12.999Z</time></trkpt><trkpt lat="38.17752921046703" lon="15.347480708082726"><ele>58.0</ele><time>2026-05-04T05:50:13.999Z</time></trkpt><trkpt lat="38.17761322339402" lon="15.347410985993278"><ele>57.5</ele><time>2026-05-04T05:50:14.999Z</time></trkpt><trkpt lat="38.177707465567835" lon="15.347332774691157"><ele>57.0</ele><time>2026-05-04T05:50:15.999Z</time></trkpt><trkpt lat="38.177815829913854" lon="15.347249330956771"><ele>56.5</ele><time>2026-05-04T05:50:16.999Z</time></trkpt><trkpt lat="38.17793117949841" lon="15.347164077729404"><ele>56.0</ele><time>2026-05-04T05:50:17.999Z</time></trkpt><trkpt lat="38.17806985560879" lon="15.34711129843625"><ele>55.5</ele><time>2026-05-04T05:50:18.999Z</time></trkpt><trkpt lat="38.17820604634364" lon="15.347047118782369"><ele>55.0</ele><time>2026-05-04T05:50:19.999Z</time></trkpt><trkpt lat="38.17834231222142" lon="15.346977386264117"><ele>54.5</ele><time>2026-05-04T05:50:20.999Z</time></trkpt><trkpt lat="38.17846309596248" lon="15.346898456804292"><ele>54.0</ele><time>2026-05-04T05:50:21.999Z</time></trkpt><trkpt lat="38.178580292648505" lon="15.346825870787253"><ele>54.0</ele><time>2026-05-04T05:50:22.998Z</time></trkpt><trkpt lat="38.178661669979896" lon="15.346767841457517"><ele>54.00000000000001</ele><time>2026-05-04T05:50:23.998Z</time></trkpt><trkpt lat="38.17875593990822" lon="15.346751357625967"><ele>54.00000000000001</ele><time>2026-05-04T05:50:24.998Z</time></trkpt><trkpt lat="38.17884597609618" lon="15.346721021978293"><ele>54.0</ele><time>2026-05-04T05:50:25.998Z</time></trkpt><trkpt lat="38.178926938866695" lon="15.346666757186195"><ele>54.0</ele><time>2026-05-04T05:50:26.998Z</time></trkpt><trkpt lat="38.17903784687395" lon="15.346640031184801"><ele>54.0</ele><time>2026-05-04T05:50:27.998Z</time></trkpt><trkpt lat="38.17912354780123" lon="15.34661636172639"><ele>54.00000000000001</ele><time>2026-05-04T05:50:28.998Z</time></trkpt><trkpt lat="38.17921084690872" lon="15.346623534317311"><ele>54.00000000000001</ele><time>2026-05-04T05:50:29.998Z</time></trkpt><trkpt lat="38.17930803611781" lon="15.346644991613184"><ele>54.0</ele><time>2026-05-04T05:50:30.998Z</time></trkpt><trkpt lat="38.179414575093055" lon="15.346612242767053"><ele>54.0</ele><time>2026-05-04T05:50:31.998Z</time></trkpt><trkpt lat="38.1795177160619" lon="15.34660622778898"><ele>54.0</ele><time>2026-05-04T05:50:32.998Z</time></trkpt><trkpt lat="38.17960064480847" lon="15.346516885909285"><ele>54.00000000000001</ele><time>2026-05-04T05:50:33.998Z</time></trkpt><trkpt lat="38.17966930044432" lon="15.346457463736726"><ele>54.00000000000001</ele><time>2026-05-04T05:50:34.998Z</time></trkpt><trkpt lat="38.17974764379587" lon="15.346424403790628"><ele>54.0</ele><time>2026-05-04T05:50:35.998Z</time></trkpt><trkpt lat="38.17983469489806" lon="15.346414119312795"><ele>54.0</ele><time>2026-05-04T05:50:36.998Z</time></trkpt><trkpt lat="38.179924768788936" lon="15.34648167848309"><ele>54.0</ele><time>2026-05-04T05:50:37.998Z</time></trkpt><trkpt lat="38.180010329946256" lon="15.346486274761833"><ele>54.00000000000001</ele><time>2026-05-04T05:50:39Z</time></trkpt><trkpt lat="38.180097518576694" lon="15.34645609401616"><ele>54.00000000000001</ele><time>2026-05-04T05:50:40Z</time></trkpt><trkpt lat="38.18018425546212" lon="15.346427857580169"><ele>54.0</ele><time>2026-05-04T05:50:41Z</time></trkpt><trkpt lat="38.18028024119972" lon="15.346414197517282"><ele>54.0</ele><time>2026-05-04T05:50:42Z</time></trkpt><trkpt lat="38.180382844296204" lon="15.346380115865633"><ele>53.400000000000006</ele><time>2026-05-04T05:50:43Z</time></trkpt><trkpt lat="38.18047933218432" lon="15.346347312811371"><ele>52.800000000000004</ele><time>2026-05-04T05:50:44Z</time></trkpt><trkpt lat="38.18059157295337" lon="15.346309471536884"><ele>52.2</ele><time>2026-05-04T05:50:45Z</time></trkpt><trkpt lat="38.18069689957639" lon="15.346280519567898"><ele>51.599999999999994</ele><time>2026-05-04T05:50:46Z</time></trkpt><trkpt lat="38.18080256028582" lon="15.346259499138393"><ele>51.0</ele><time>2026-05-04T05:50:47Z</time></trkpt><trkpt lat="38.18087903394194" lon="15.346172421968747"><ele>50.599999999999994</ele><time>2026-05-04T05:50:48Z</time></trkpt><trkpt lat="38.18096813164847" lon="15.346101931372186"><ele>50.2</ele><time>2026-05-04T05:50:49Z</time></trkpt><trkpt lat="38.18106301184286" lon="15.346046329064182"><ele>49.8</ele><time>2026-05-04T05:50:50Z</time></trkpt><trkpt lat="38.181136779325726" lon="15.345996906792779"><ele>49.400000000000006</ele><time>2026-05-04T05:50:51Z</time></trkpt><trkpt lat="38.18120760873826" lon="15.345949687168153"><ele>49.0</ele><time>2026-05-04T05:50:54Z</time></trkpt><trkpt lat="38.181276858720324" lon="15.345906941084458"><ele>49.0</ele><time>2026-05-04T05:50:56Z</time></trkpt><trkpt lat="38.181365329677" lon="15.345860647100498"><ele>49.0</ele><time>2026-05-04T05:50:58Z</time></trkpt><trkpt lat="38.18145262082125" lon="15.345820514146814"><ele>49.0</ele><time>2026-05-04T05:51:00Z</time></trkpt><trkpt lat="38.18155806198802" lon="15.345782383392864"><ele>49.0</ele><time>2026-05-04T05:51:04Z</time></trkpt><trkpt lat="38.18165400918307" lon="15.345744736388573"><ele>49.0</ele><time>2026-05-04T05:51:06Z</time></trkpt><trkpt lat="38.181726298177495" lon="15.345718456325871"><ele>48.83333333333333</ele><time>2026-05-04T05:51:07Z</time></trkpt><trkpt lat="38.18180521755118" lon="15.345694253423035"><ele>48.666666666666664</ele><time>2026-05-04T05:51:08Z</time></trkpt><trkpt lat="38.181905303564236" lon="15.345683403164779"><ele>48.5</ele><time>2026-05-04T05:51:09Z</time></trkpt><trkpt lat="38.18198699665025" lon="15.345688614076042"><ele>48.33333333333333</ele><time>2026-05-04T05:51:10Z</time></trkpt><trkpt lat="38.18207573908225" lon="15.345699103858019"><ele>48.166666666666664</ele><time>2026-05-04T05:51:11Z</time></trkpt><trkpt lat="38.1821564399986" lon="15.345717670581049"><ele>48.0</ele><time>2026-05-04T05:51:12Z</time></trkpt><trkpt lat="38.18226771390094" lon="15.345721229405838"><ele>47.599999999999994</ele><time>2026-05-04T05:51:13Z</time></trkpt><trkpt lat="38.182358555152774" lon="15.345714773175658"><ele>47.199999999999996</ele><time>2026-05-04T05:51:14Z</time></trkpt><trkpt lat="38.18244550255686" lon="15.345736359049756"><ele>46.8</ele><time>2026-05-04T05:51:15Z</time></trkpt><trkpt lat="38.182548093772155" lon="15.345741969323964"><ele>46.4</ele><time>2026-05-04T05:51:16Z</time></trkpt><trkpt lat="38.18265494478644" lon="15.345748080757533"><ele>46.0</ele><time>2026-05-04T05:51:17Z</time></trkpt><trkpt lat="38.182766286348055" lon="15.345757265497038"><ele>46.0</ele><time>2026-05-04T05:51:18Z</time></trkpt><trkpt lat="38.18288274982149" lon="15.345763401555237"><ele>46.0</ele><time>2026-05-04T05:51:19Z</time></trkpt><trkpt lat="38.18299801667708" lon="15.34575197538487"><ele>46.0</ele><time>2026-05-04T05:51:20Z</time></trkpt><trkpt lat="38.18309846781164" lon="15.345824521215611"><ele>46.0</ele><time>2026-05-04T05:51:21Z</time></trkpt><trkpt lat="38.18323580519973" lon="15.345831950007824"><ele>45.66666666666667</ele><time>2026-05-04T05:51:22Z</time></trkpt><trkpt lat="38.183382520403185" lon="15.345813819604702"><ele>45.333333333333336</ele><time>2026-05-04T05:51:23Z</time></trkpt><trkpt lat="38.18353695756788" lon="15.345817089967754"><ele>45.0</ele><time>2026-05-04T05:51:24Z</time></trkpt><trkpt lat="38.18368609437049" lon="15.34581724209816"><ele>45.0</ele><time>2026-05-04T05:51:25Z</time></trkpt><trkpt lat="38.18382839923392" lon="15.345810143215374"><ele>45.0</ele><time>2026-05-04T05:51:26Z</time></trkpt><trkpt lat="38.18398409337367" lon="15.345837125729345"><ele>45.0</ele><time>2026-05-04T05:51:27Z</time></trkpt><trkpt lat="38.184151390953716" lon="15.34588281102726"><ele>44.666666666666664</ele><time>2026-05-04T05:51:28Z</time></trkpt><trkpt lat="38.18432339689906" lon="15.345949799625494"><ele>44.33333333333333</ele><time>2026-05-04T05:51:29Z</time></trkpt><trkpt lat="38.18449463946229" lon="15.346023652488226"><ele>44.0</ele><time>2026-05-04T05:51:30Z</time></trkpt><trkpt lat="38.184647510343986" lon="15.34609334861899"><ele>44.0</ele><time>2026-05-04T05:51:31Z</time></trkpt><trkpt lat="38.184807143295664" lon="15.346117434217739"><ele>44.0</ele><time>2026-05-04T05:51:32Z</time></trkpt><trkpt lat="38.18495703148756" lon="15.346161922710614"><ele>44.0</ele><time>2026-05-04T05:51:33Z</time></trkpt><trkpt lat="38.18512433874335" lon="15.346201883284149"><ele>44.0</ele><time>2026-05-04T05:51:33.999Z</time></trkpt><trkpt lat="38.185292362357046" lon="15.346238484703054"><ele>44.0</ele><time>2026-05-04T05:51:34.999Z</time></trkpt><trkpt lat="38.1854538802251" lon="15.346267347080568"><ele>44.0</ele><time>2026-05-04T05:51:35.999Z</time></trkpt><trkpt lat="38.18561554159486" lon="15.346288483413906"><ele>43.0</ele><time>2026-05-04T05:51:36.999Z</time></trkpt><trkpt lat="38.18577723165637" lon="15.346308707431481"><ele>42.0</ele><time>2026-05-04T05:51:37.999Z</time></trkpt><trkpt lat="38.1859322460538" lon="15.346325636941414"><ele>41.0</ele><time>2026-05-04T05:51:38.999Z</time></trkpt><trkpt lat="38.18608278885873" lon="15.34633904262853"><ele>41.0</ele><time>2026-05-04T05:51:39.999Z</time></trkpt><trkpt lat="38.18623855129325" lon="15.34635163763171"><ele>41.0</ele><time>2026-05-04T05:51:40.999Z</time></trkpt><trkpt lat="38.186397599793224" lon="15.346385521510488"><ele>41.0</ele><time>2026-05-04T05:51:41.999Z</time></trkpt><trkpt lat="38.18656520239673" lon="15.346401724104306"><ele>41.0</ele><time>2026-05-04T05:51:42.999Z</time></trkpt><trkpt lat="38.18672744800768" lon="15.346425584626735"><ele>41.0</ele><time>2026-05-04T05:51:43.999Z</time></trkpt><trkpt lat="38.18687092505714" lon="15.346460423140167"><ele>41.0</ele><time>2026-05-04T05:51:44.999Z</time></trkpt><trkpt lat="38.18701401168325" lon="15.34648370433544"><ele>41.0</ele><time>2026-05-04T05:51:45.999Z</time></trkpt><trkpt lat="38.18715305498569" lon="15.346471645255479"><ele>41.0</ele><time>2026-05-04T05:51:46.999Z</time></trkpt><trkpt lat="38.187291974393254" lon="15.346442820548239"><ele>41.0</ele><time>2026-05-04T05:51:47.999Z</time></trkpt><trkpt lat="38.187426304214696" lon="15.346472090322555"><ele>41.0</ele><time>2026-05-04T05:51:48.999Z</time></trkpt><trkpt lat="38.187554673636704" lon="15.346456540992301"><ele>40.599999999999994</ele><time>2026-05-04T05:51:49.999Z</time></trkpt><trkpt lat="38.1876739587999" lon="15.346456596781225"><ele>40.199999999999996</ele><time>2026-05-04T05:51:50.999Z</time></trkpt><trkpt lat="38.1877868545423" lon="15.346424498312276"><ele>39.8</ele><time>2026-05-04T05:51:51.999Z</time></trkpt><trkpt lat="38.187881650559184" lon="15.346383590790634"><ele>39.4</ele><time>2026-05-04T05:51:52.999Z</time></trkpt><trkpt lat="38.187976587813765" lon="15.346377779948613"><ele>39.0</ele><time>2026-05-04T05:51:53.999Z</time></trkpt><trkpt lat="38.18805534964034" lon="15.346401557971415"><ele>39.0</ele><time>2026-05-04T05:51:54.999Z</time></trkpt><trkpt lat="38.18809323748369" lon="15.346468038862684"><ele>39.0</ele><time>2026-05-04T05:51:55.999Z</time></trkpt><trkpt lat="38.1881288018877" lon="15.346586346602804"><ele>39.0</ele><time>2026-05-04T05:51:57.999Z</time></trkpt><trkpt lat="38.18807763829416" lon="15.346721845794242"><ele>39.0</ele><time>2026-05-04T05:51:59.999Z</time></trkpt><trkpt lat="38.18805136309659" lon="15.346831161793045"><ele>39.0</ele><time>2026-05-04T05:52:00.999Z</time></trkpt><trkpt lat="38.18803157851622" lon="15.346957005539572"><ele>39.0</ele><time>2026-05-04T05:52:01.999Z</time></trkpt><trkpt lat="38.18799893356512" lon="15.34709880430957"><ele>39.0</ele><time>2026-05-04T05:52:02.999Z</time></trkpt><trkpt lat="38.18796580767433" lon="15.347240432592526"><ele>39.0</ele><time>2026-05-04T05:52:03.999Z</time></trkpt><trkpt lat="38.18792724189652" lon="15.347392538500404"><ele>39.0</ele><time>2026-05-04T05:52:04.999Z</time></trkpt><trkpt lat="38.18787785099032" lon="15.347550978825735"><ele>39.333333333333336</ele><time>2026-05-04T05:52:05.999Z</time></trkpt><trkpt lat="38.187816842901604" lon="15.347723601763342"><ele>39.66666666666667</ele><time>2026-05-04T05:52:06.999Z</time></trkpt><trkpt lat="38.18775292747275" lon="15.347897927804057"><ele>40.0</ele><time>2026-05-04T05:52:07.999Z</time></trkpt><trkpt lat="38.18768289479309" lon="15.348074962507678"><ele>40.5</ele><time>2026-05-04T05:52:08.999Z</time></trkpt><trkpt lat="38.187609265476624" lon="15.348233559183385"><ele>41.0</ele><time>2026-05-04T05:52:09.999Z</time></trkpt><trkpt lat="38.18753863877418" lon="15.34839690030192"><ele>41.5</ele><time>2026-05-04T05:52:10.999Z</time></trkpt><trkpt lat="38.18749508679399" lon="15.34855228642577"><ele>42.0</ele><time>2026-05-04T05:52:11.999Z</time></trkpt><trkpt lat="38.187464411765106" lon="15.348708495110191"><ele>42.0</ele><time>2026-05-04T05:52:12.999Z</time></trkpt><trkpt lat="38.18742585037097" lon="15.348823505977144"><ele>42.0</ele><time>2026-05-04T05:52:13.999Z</time></trkpt><trkpt lat="38.187343969859185" lon="15.348909202818477"><ele>42.0</ele><time>2026-05-04T05:52:14.999Z</time></trkpt><trkpt lat="38.18730100572172" lon="15.349022731919163"><ele>42.0</ele><time>2026-05-04T05:52:15.999Z</time></trkpt><trkpt lat="38.18723393693949" lon="15.349141883340295"><ele>42.0</ele><time>2026-05-04T05:52:16.999Z</time></trkpt><trkpt lat="38.18718557754462" lon="15.349284718779508"><ele>42.5</ele><time>2026-05-04T05:52:17.999Z</time></trkpt><trkpt lat="38.187139046190495" lon="15.349433017865016"><ele>43.0</ele><time>2026-05-04T05:52:18.999Z</time></trkpt><trkpt lat="38.18710028028926" lon="15.349588152283134"><ele>43.5</ele><time>2026-05-04T05:52:19.999Z</time></trkpt><trkpt lat="38.1870606425725" lon="15.349750360179303"><ele>44.0</ele><time>2026-05-04T05:52:20.999Z</time></trkpt><trkpt lat="38.18701007263157" lon="15.349906811827518"><ele>44.0</ele><time>2026-05-04T05:52:21.999Z</time></trkpt><trkpt lat="38.186955873145635" lon="15.350066269996749"><ele>44.0</ele><time>2026-05-04T05:52:22.999Z</time></trkpt><trkpt lat="38.186898156207505" lon="15.350227314468608"><ele>44.0</ele><time>2026-05-04T05:52:23.999Z</time></trkpt><trkpt lat="38.186836806045854" lon="15.350386810481318"><ele>44.0</ele><time>2026-05-04T05:52:24.999Z</time></trkpt><trkpt lat="38.18676332350969" lon="15.350524389015424"><ele>44.5</ele><time>2026-05-04T05:52:25.999Z</time></trkpt><trkpt lat="38.1867126606072" lon="15.350672917066525"><ele>45.0</ele><time>2026-05-04T05:52:26.999Z</time></trkpt><trkpt lat="38.18664340805657" lon="15.350790957732475"><ele>45.5</ele><time>2026-05-04T05:52:27.999Z</time></trkpt><trkpt lat="38.1865881640699" lon="15.350935555711333"><ele>46.0</ele><time>2026-05-04T05:52:28.998Z</time></trkpt><trkpt lat="38.186543000580365" lon="15.351087022643569"><ele>46.66666666666667</ele><time>2026-05-04T05:52:29.998Z</time></trkpt><trkpt lat="38.18650505652848" lon="15.351264884586145"><ele>47.333333333333336</ele><time>2026-05-04T05:52:30.998Z</time></trkpt><trkpt lat="38.1864549148536" lon="15.351451369839449"><ele>48.0</ele><time>2026-05-04T05:52:31.998Z</time></trkpt><trkpt lat="38.18638745435436" lon="15.351633626371155"><ele>48.0</ele><time>2026-05-04T05:52:32.998Z</time></trkpt><trkpt lat="38.18631299917044" lon="15.351811825244196"><ele>48.0</ele><time>2026-05-04T05:52:33.998Z</time></trkpt><trkpt lat="38.18623970547695" lon="15.35197421850058"><ele>48.0</ele><time>2026-05-04T05:52:34.998Z</time></trkpt><trkpt lat="38.186157933746344" lon="15.352119670709417"><ele>48.0</ele><time>2026-05-04T05:52:35.998Z</time></trkpt><trkpt lat="38.186060908705436" lon="15.352271573769263"><ele>48.0</ele><time>2026-05-04T05:52:36.998Z</time></trkpt><trkpt lat="38.185964845098546" lon="15.352413059445635"><ele>48.0</ele><time>2026-05-04T05:52:37.998Z</time></trkpt><trkpt lat="38.185865254820776" lon="15.352566957717077"><ele>48.0</ele><time>2026-05-04T05:52:38.998Z</time></trkpt><trkpt lat="38.18576546227022" lon="15.352728821769636"><ele>49.0</ele><time>2026-05-04T05:52:39.998Z</time></trkpt><trkpt lat="38.18567136123525" lon="15.352881112935117"><ele>50.0</ele><time>2026-05-04T05:52:40.998Z</time></trkpt><trkpt lat="38.18555087483559" lon="15.353055594481157"><ele>51.0</ele><time>2026-05-04T05:52:41.998Z</time></trkpt><trkpt lat="38.18544116552944" lon="15.353219114500702"><ele>51.0</ele><time>2026-05-04T05:52:42.998Z</time></trkpt><trkpt lat="38.185347342665416" lon="15.353360976491942"><ele>51.0</ele><time>2026-05-04T05:52:44Z</time></trkpt><trkpt lat="38.18526688690215" lon="15.353490555594068"><ele>51.0</ele><time>2026-05-04T05:52:45Z</time></trkpt><trkpt lat="38.185153036460356" lon="15.353585087625742"><ele>51.0</ele><time>2026-05-04T05:52:46Z</time></trkpt><trkpt lat="38.185051228649044" lon="15.353677629655039"><ele>51.0</ele><time>2026-05-04T05:52:47Z</time></trkpt><trkpt lat="38.18494993934878" lon="15.3537726597036"><ele>51.0</ele><time>2026-05-04T05:52:48Z</time></trkpt><trkpt lat="38.18486702687956" lon="15.353881387664059"><ele>51.0</ele><time>2026-05-04T05:52:49Z</time></trkpt><trkpt lat="38.184791171044886" lon="15.353961822163338"><ele>51.0</ele><time>2026-05-04T05:52:50Z</time></trkpt><trkpt lat="38.184742265671666" lon="15.354029712603975"><ele>51.0</ele><time>2026-05-04T05:52:51Z</time></trkpt><trkpt lat="38.184681918693705" lon="15.354104789563408"><ele>52.4</ele><time>2026-05-04T05:52:53Z</time></trkpt><trkpt lat="38.184748674052386" lon="15.354229888788625"><ele>53.8</ele><time>2026-05-04T05:52:54Z</time></trkpt><trkpt lat="38.184784271100085" lon="15.354323347425394"><ele>55.199999999999996</ele><time>2026-05-04T05:52:56Z</time></trkpt><trkpt lat="38.18478833458665" lon="15.35443100228432"><ele>56.599999999999994</ele><time>2026-05-04T05:52:58Z</time></trkpt><trkpt lat="38.18481402504355" lon="15.354566868046634"><ele>58.0</ele><time>2026-05-04T05:53:00Z</time></trkpt><trkpt lat="38.18480992113402" lon="15.354651381208189"><ele>57.599999999999994</ele><time>2026-05-04T05:53:01Z</time></trkpt><trkpt lat="38.184738824561755" lon="15.35477348254934"><ele>57.199999999999996</ele><time>2026-05-04T05:53:03Z</time></trkpt><trkpt lat="38.184673797209896" lon="15.354801535591937"><ele>56.8</ele><time>2026-05-04T05:53:04Z</time></trkpt><trkpt lat="38.18456566339422" lon="15.354839062353816"><ele>56.4</ele><time>2026-05-04T05:53:05Z</time></trkpt><trkpt lat="38.184449164306464" lon="15.354892127876855"><ele>56.0</ele><time>2026-05-04T05:53:06Z</time></trkpt><trkpt lat="38.18434237836822" lon="15.354957761274559"><ele>56.00000000000001</ele><time>2026-05-04T05:53:07Z</time></trkpt><trkpt lat="38.18426090621015" lon="15.354979138615203"><ele>56.0</ele><time>2026-05-04T05:53:08Z</time></trkpt><trkpt lat="38.18418359885356" lon="15.355010889275704"><ele>56.0</ele><time>2026-05-04T05:53:09Z</time></trkpt><trkpt lat="38.18410633609141" lon="15.35503932191321"><ele>56.0</ele><time>2026-05-04T05:53:10Z</time></trkpt><trkpt lat="38.18402559724829" lon="15.35507669022499"><ele>56.00000000000001</ele><time>2026-05-04T05:53:11Z</time></trkpt><trkpt lat="38.183936470811624" lon="15.355085994206904"><ele>56.0</ele><time>2026-05-04T05:53:12Z</time></trkpt><trkpt lat="38.18382326801997" lon="15.35509434605852"><ele>56.0</ele><time>2026-05-04T05:53:13Z</time></trkpt><trkpt lat="38.18371256118872" lon="15.35510169846255"><ele>56.0</ele><time>2026-05-04T05:53:14Z</time></trkpt><trkpt lat="38.183599491278414" lon="15.355112687452893"><ele>56.0</ele><time>2026-05-04T05:53:15Z</time></trkpt><trkpt lat="38.183464528145144" lon="15.355132962218716"><ele>56.0</ele><time>2026-05-04T05:53:16Z</time></trkpt><trkpt lat="38.183322103658746" lon="15.35516055459811"><ele>56.0</ele><time>2026-05-04T05:53:17Z</time></trkpt><trkpt lat="38.18320760014438" lon="15.355199847099593"><ele>55.99999999999999</ele><time>2026-05-04T05:53:18Z</time></trkpt><trkpt lat="38.1831228910467" lon="15.355256671224737"><ele>55.99999999999999</ele><time>2026-05-04T05:53:19Z</time></trkpt><trkpt lat="38.18303864780954" lon="15.35532365782481"><ele>56.0</ele><time>2026-05-04T05:53:20Z</time></trkpt><trkpt lat="38.1829524292459" lon="15.355390123362847"><ele>56.0</ele><time>2026-05-04T05:53:21Z</time></trkpt><trkpt lat="38.182844281973594" lon="15.355469010719286"><ele>56.0</ele><time>2026-05-04T05:53:22Z</time></trkpt><trkpt lat="38.18271004042005" lon="15.355572355403575"><ele>56.0</ele><time>2026-05-04T05:53:23Z</time></trkpt><trkpt lat="38.18255435481761" lon="15.355697626462044"><ele>56.0</ele><time>2026-05-04T05:53:24Z</time></trkpt><trkpt lat="38.182406590378186" lon="15.355807514019798"><ele>56.0</ele><time>2026-05-04T05:53:25Z</time></trkpt><trkpt lat="38.182287447228106" lon="15.355875510343914"><ele>56.0</ele><time>2026-05-04T05:53:26Z</time></trkpt><trkpt lat="38.18217576994121" lon="15.355936078376043"><ele>56.0</ele><time>2026-05-04T05:53:27Z</time></trkpt><trkpt lat="38.18206455616345" lon="15.35601185237651"><ele>56.0</ele><time>2026-05-04T05:53:28Z</time></trkpt><trkpt lat="38.18195076942604" lon="15.356109222760402"><ele>56.0</ele><time>2026-05-04T05:53:29Z</time></trkpt><trkpt lat="38.181835298475164" lon="15.356209936926941"><ele>56.0</ele><time>2026-05-04T05:53:30Z</time></trkpt><trkpt lat="38.18171634041915" lon="15.356316276155463"><ele>56.0</ele><time>2026-05-04T05:53:31Z</time></trkpt><trkpt lat="38.18159774681283" lon="15.356424282933077"><ele>56.0</ele><time>2026-05-04T05:53:32Z</time></trkpt><trkpt lat="38.18147331429327" lon="15.356528153896068"><ele>57.0</ele><time>2026-05-04T05:53:33Z</time></trkpt><trkpt lat="38.18134578500826" lon="15.356625399084121"><ele>58.0</ele><time>2026-05-04T05:53:34Z</time></trkpt><trkpt lat="38.18122041330599" lon="15.356727039971194"><ele>59.0</ele><time>2026-05-04T05:53:35Z</time></trkpt><trkpt lat="38.181097405343884" lon="15.3568298296354"><ele>60.0</ele><time>2026-05-04T05:53:36Z</time></trkpt><trkpt lat="38.180971892634915" lon="15.356930116987776"><ele>60.0</ele><time>2026-05-04T05:53:36.999Z</time></trkpt><trkpt lat="38.18084882997058" lon="15.357028677401019"><ele>60.0</ele><time>2026-05-04T05:53:37.999Z</time></trkpt><trkpt lat="38.180728178804415" lon="15.35713039078187"><ele>60.0</ele><time>2026-05-04T05:53:38.999Z</time></trkpt><trkpt lat="38.18061011067477" lon="15.35723311042504"><ele>60.0</ele><time>2026-05-04T05:53:39.999Z</time></trkpt><trkpt lat="38.18049274804811" lon="15.357339961099052"><ele>60.25</ele><time>2026-05-04T05:53:40.999Z</time></trkpt><trkpt lat="38.180378308048006" lon="15.35745131037625"><ele>60.5</ele><time>2026-05-04T05:53:41.999Z</time></trkpt><trkpt lat="38.180265650372014" lon="15.357568122920602"><ele>60.75</ele><time>2026-05-04T05:53:42.999Z</time></trkpt><trkpt lat="38.1801610445994" lon="15.357689084756425"><ele>61.0</ele><time>2026-05-04T05:53:43.999Z</time></trkpt><trkpt lat="38.180056388348774" lon="15.357815734841445"><ele>61.0</ele><time>2026-05-04T05:53:44.999Z</time></trkpt><trkpt lat="38.17995613031722" lon="15.35794451060251"><ele>61.0</ele><time>2026-05-04T05:53:45.999Z</time></trkpt><trkpt lat="38.17985560355857" lon="15.358068384997308"><ele>61.0</ele><time>2026-05-04T05:53:46.999Z</time></trkpt><trkpt lat="38.1797570140867" lon="15.358200692089746"><ele>61.0</ele><time>2026-05-04T05:53:47.999Z</time></trkpt><trkpt lat="38.17966060349716" lon="15.358341547700194"><ele>61.5</ele><time>2026-05-04T05:53:48.999Z</time></trkpt><trkpt lat="38.179561549179994" lon="15.358480847103587"><ele>62.0</ele><time>2026-05-04T05:53:49.999Z</time></trkpt><trkpt lat="38.17946121103031" lon="15.358623081355642"><ele>62.5</ele><time>2026-05-04T05:53:50.999Z</time></trkpt><trkpt lat="38.179356932275354" lon="15.358761945753647"><ele>63.0</ele><time>2026-05-04T05:53:51.999Z</time></trkpt><trkpt lat="38.17924568557048" lon="15.358897026298783"><ele>63.66666666666667</ele><time>2026-05-04T05:53:52.999Z</time></trkpt><trkpt lat="38.1791310800651" lon="15.359030701918364"><ele>64.33333333333334</ele><time>2026-05-04T05:53:53.999Z</time></trkpt><trkpt lat="38.17901747479691" lon="15.35916304606367"><ele>65.0</ele><time>2026-05-04T05:53:54.999Z</time></trkpt><trkpt lat="38.17889837133774" lon="15.35929608809637"><ele>65.0</ele><time>2026-05-04T05:53:55.999Z</time></trkpt><trkpt lat="38.17878108689088" lon="15.359427001863695"><ele>65.0</ele><time>2026-05-04T05:53:56.999Z</time></trkpt><trkpt lat="38.178659376926404" lon="15.35955434051525"><ele>65.0</ele><time>2026-05-04T05:53:57.999Z</time></trkpt><trkpt lat="38.17853215950129" lon="15.359686676143749"><ele>65.66666666666667</ele><time>2026-05-04T05:53:58.999Z</time></trkpt><trkpt lat="38.178405152365826" lon="15.359827365178807"><ele>66.33333333333333</ele><time>2026-05-04T05:53:59.999Z</time></trkpt><trkpt lat="38.178275880834136" lon="15.359967013870683"><ele>67.0</ele><time>2026-05-04T05:54:00.999Z</time></trkpt><trkpt lat="38.17814307893372" lon="15.360099963505123"><ele>67.33333333333333</ele><time>2026-05-04T05:54:01.999Z</time></trkpt><trkpt lat="38.17801902331348" lon="15.360222825568403"><ele>67.66666666666667</ele><time>2026-05-04T05:54:02.999Z</time></trkpt><trkpt lat="38.177896558984145" lon="15.360340190364726"><ele>68.0</ele><time>2026-05-04T05:54:03.999Z</time></trkpt><trkpt lat="38.17776932962997" lon="15.360438487253965"><ele>68.25</ele><time>2026-05-04T05:54:04.999Z</time></trkpt><trkpt lat="38.177652229981284" lon="15.360554019685807"><ele>68.5</ele><time>2026-05-04T05:54:05.999Z</time></trkpt><trkpt lat="38.17755079125039" lon="15.36068130770215"><ele>68.75</ele><time>2026-05-04T05:54:06.999Z</time></trkpt><trkpt lat="38.17743314266961" lon="15.360777895185818"><ele>69.0</ele><time>2026-05-04T05:54:07.999Z</time></trkpt><trkpt lat="38.17733525890137" lon="15.360906059224465"><ele>69.5</ele><time>2026-05-04T05:54:08.999Z</time></trkpt><trkpt lat="38.17723318574212" lon="15.361008183391332"><ele>70.0</ele><time>2026-05-04T05:54:09.999Z</time></trkpt><trkpt lat="38.17713585042162" lon="15.361110284958338"><ele>70.5</ele><time>2026-05-04T05:54:10.999Z</time></trkpt><trkpt lat="38.17702975945675" lon="15.3612030153444"><ele>71.0</ele><time>2026-05-04T05:54:11.999Z</time></trkpt><trkpt lat="38.176928244139134" lon="15.361290890499497"><ele>70.66666666666667</ele><time>2026-05-04T05:54:12.999Z</time></trkpt><trkpt lat="38.17681158085391" lon="15.36138040755795"><ele>70.33333333333333</ele><time>2026-05-04T05:54:13.999Z</time></trkpt><trkpt lat="38.176686152853286" lon="15.361487905529044"><ele>70.0</ele><time>2026-05-04T05:54:14.999Z</time></trkpt><trkpt lat="38.17654297434658" lon="15.361615518239848"><ele>73.0</ele><time>2026-05-04T05:54:15.999Z</time></trkpt><trkpt lat="38.176399433075595" lon="15.361703026712807"><ele>76.0</ele><time>2026-05-04T05:54:16.999Z</time></trkpt><trkpt lat="38.17626209726926" lon="15.361791681672564"><ele>79.0</ele><time>2026-05-04T05:54:17.999Z</time></trkpt><trkpt lat="38.17613123049855" lon="15.361888033358538"><ele>79.0</ele><time>2026-05-04T05:54:18.999Z</time></trkpt><trkpt lat="38.176014928613725" lon="15.361994295531469"><ele>79.0</ele><time>2026-05-04T05:54:19.999Z</time></trkpt><trkpt lat="38.175902931272454" lon="15.362093458301313"><ele>79.0</ele><time>2026-05-04T05:54:20.999Z</time></trkpt><trkpt lat="38.175806018243" lon="15.362208793528685"><ele>79.0</ele><time>2026-05-04T05:54:21.999Z</time></trkpt><trkpt lat="38.17572281063551" lon="15.362354020493331"><ele>80.33333333333333</ele><time>2026-05-04T05:54:22.999Z</time></trkpt><trkpt lat="38.1756344164469" lon="15.36250160786144"><ele>81.66666666666667</ele><time>2026-05-04T05:54:23.999Z</time></trkpt><trkpt lat="38.17553935829558" lon="15.362650233998131"><ele>83.0</ele><time>2026-05-04T05:54:24.999Z</time></trkpt><trkpt lat="38.17542506514991" lon="15.362801228718002"><ele>83.0</ele><time>2026-05-04T05:54:25.999Z</time></trkpt><trkpt lat="38.17531408623416" lon="15.362941712819381"><ele>83.0</ele><time>2026-05-04T05:54:26.999Z</time></trkpt><trkpt lat="38.17521681804539" lon="15.363068908421523"><ele>83.0</ele><time>2026-05-04T05:54:27.999Z</time></trkpt><trkpt lat="38.17512203629664" lon="15.36318409068679"><ele>83.0</ele><time>2026-05-04T05:54:28.999Z</time></trkpt><trkpt lat="38.17502623428195" lon="15.363294524206529"><ele>82.25</ele><time>2026-05-04T05:54:29.999Z</time></trkpt><trkpt lat="38.174940523393126" lon="15.363420981978464"><ele>81.5</ele><time>2026-05-04T05:54:30.999Z</time></trkpt><trkpt lat="38.174864215321264" lon="15.363561096420645"><ele>80.75</ele><time>2026-05-04T05:54:31.999Z</time></trkpt><trkpt lat="38.174781382157576" lon="15.36369015494411"><ele>80.0</ele><time>2026-05-04T05:54:32.998Z</time></trkpt><trkpt lat="38.17470135519264" lon="15.363814135787809"><ele>79.25</ele><time>2026-05-04T05:54:33.998Z</time></trkpt><trkpt lat="38.17462321256157" lon="15.363953093128243"><ele>78.5</ele><time>2026-05-04T05:54:34.998Z</time></trkpt><trkpt lat="38.174546365030736" lon="15.36408640319275"><ele>77.75</ele><time>2026-05-04T05:54:35.998Z</time></trkpt><trkpt lat="38.17445610360806" lon="15.364228886176756"><ele>77.0</ele><time>2026-05-04T05:54:36.998Z</time></trkpt><trkpt lat="38.17436375188112" lon="15.364366908385342"><ele>77.0</ele><time>2026-05-04T05:54:37.998Z</time></trkpt><trkpt lat="38.174267289606576" lon="15.364491376105816"><ele>77.0</ele><time>2026-05-04T05:54:38.998Z</time></trkpt><trkpt lat="38.1741794007973" lon="15.364623678626456"><ele>77.0</ele><time>2026-05-04T05:54:39.998Z</time></trkpt><trkpt lat="38.174089804872196" lon="15.364756683816795"><ele>77.0</ele><time>2026-05-04T05:54:40.998Z</time></trkpt><trkpt lat="38.17400573617033" lon="15.364884556548239"><ele>77.0</ele><time>2026-05-04T05:54:41.998Z</time></trkpt><trkpt lat="38.17393560973427" lon="15.365021537976686"><ele>77.0</ele><time>2026-05-04T05:54:42.998Z</time></trkpt><trkpt lat="38.173880250177255" lon="15.365175468888916"><ele>77.0</ele><time>2026-05-04T05:54:43.998Z</time></trkpt><trkpt lat="38.173832235447385" lon="15.365328167305883"><ele>77.0</ele><time>2026-05-04T05:54:44.998Z</time></trkpt><trkpt lat="38.17375966092137" lon="15.365484122050857"><ele>77.25</ele><time>2026-05-04T05:54:45.998Z</time></trkpt><trkpt lat="38.173679326299414" lon="15.365635770689895"><ele>77.5</ele><time>2026-05-04T05:54:46.998Z</time></trkpt><trkpt lat="38.17359293359264" lon="15.36577794500361"><ele>77.75</ele><time>2026-05-04T05:54:47.998Z</time></trkpt><trkpt lat="38.17350936552349" lon="15.3659224213292"><ele>78.0</ele><time>2026-05-04T05:54:49Z</time></trkpt><trkpt lat="38.17343436376032" lon="15.366078829018514"><ele>78.0</ele><time>2026-05-04T05:54:50Z</time></trkpt><trkpt lat="38.173362985658166" lon="15.366233557829357"><ele>78.0</ele><time>2026-05-04T05:54:51Z</time></trkpt><trkpt lat="38.17328905997606" lon="15.36638027996851"><ele>78.0</ele><time>2026-05-04T05:54:52Z</time></trkpt><trkpt lat="38.17322006544596" lon="15.366516978835257"><ele>78.0</ele><time>2026-05-04T05:54:53Z</time></trkpt><trkpt lat="38.173149138879694" lon="15.366640224629041"><ele>78.75</ele><time>2026-05-04T05:54:54Z</time></trkpt><trkpt lat="38.17307997402768" lon="15.366758127525358"><ele>79.5</ele><time>2026-05-04T05:54:55Z</time></trkpt><trkpt lat="38.173028557807214" lon="15.366879610377454"><ele>80.25</ele><time>2026-05-04T05:54:56Z</time></trkpt><trkpt lat="38.173000019566224" lon="15.367024264905533"><ele>81.0</ele><time>2026-05-04T05:54:57Z</time></trkpt><trkpt lat="38.17298995430284" lon="15.367184433167552"><ele>81.25</ele><time>2026-05-04T05:54:58Z</time></trkpt><trkpt lat="38.172981959618525" lon="15.367350986310099"><ele>81.5</ele><time>2026-05-04T05:54:59Z</time></trkpt><trkpt lat="38.17297543742027" lon="15.367521561748902"><ele>81.75</ele><time>2026-05-04T05:55:00Z</time></trkpt><trkpt lat="38.17297275989963" lon="15.367688164465186"><ele>82.0</ele><time>2026-05-04T05:55:01Z</time></trkpt><trkpt lat="38.17296130338334" lon="15.367857844965753"><ele>82.0</ele><time>2026-05-04T05:55:02Z</time></trkpt><trkpt lat="38.17295202097854" lon="15.368020468340553"><ele>82.0</ele><time>2026-05-04T05:55:03Z</time></trkpt><trkpt lat="38.17293319751291" lon="15.368186091904944"><ele>82.0</ele><time>2026-05-04T05:55:04Z</time></trkpt><trkpt lat="38.172900873758664" lon="15.368323572295354"><ele>82.0</ele><time>2026-05-04T05:55:05Z</time></trkpt><trkpt lat="38.172816222832125" lon="15.36842410382841"><ele>82.25</ele><time>2026-05-04T05:55:06Z</time></trkpt><trkpt lat="38.17277136649807" lon="15.368563778866056"><ele>82.5</ele><time>2026-05-04T05:55:07Z</time></trkpt><trkpt lat="38.172711250044976" lon="15.368686794699967"><ele>82.75</ele><time>2026-05-04T05:55:08Z</time></trkpt><trkpt lat="38.172676261975035" lon="15.368837681394824"><ele>83.0</ele><time>2026-05-04T05:55:09Z</time></trkpt><trkpt lat="38.172651171935506" lon="15.369010245053682"><ele>83.5</ele><time>2026-05-04T05:55:10Z</time></trkpt><trkpt lat="38.17261418342989" lon="15.369174906857166"><ele>84.0</ele><time>2026-05-04T05:55:11Z</time></trkpt><trkpt lat="38.172565575112735" lon="15.36933381587404"><ele>84.5</ele><time>2026-05-04T05:55:12Z</time></trkpt><trkpt lat="38.17251470124554" lon="15.369496883200885"><ele>85.0</ele><time>2026-05-04T05:55:13Z</time></trkpt><trkpt lat="38.17245939007776" lon="15.369680472159622"><ele>85.0</ele><time>2026-05-04T05:55:14Z</time></trkpt><trkpt lat="38.172395719658276" lon="15.369862630708445"><ele>85.0</ele><time>2026-05-04T05:55:15Z</time></trkpt><trkpt lat="38.172308183149774" lon="15.370026235738466"><ele>85.0</ele><time>2026-05-04T05:55:16Z</time></trkpt><trkpt lat="38.17223713754617" lon="15.37020609870674"><ele>85.0</ele><time>2026-05-04T05:55:17Z</time></trkpt><trkpt lat="38.1721961309501" lon="15.370396345332995"><ele>85.0</ele><time>2026-05-04T05:55:18Z</time></trkpt><trkpt lat="38.17213710157776" lon="15.370581356925458"><ele>85.0</ele><time>2026-05-04T05:55:19Z</time></trkpt><trkpt lat="38.172083448184665" lon="15.37075730611042"><ele>84.33333333333333</ele><time>2026-05-04T05:55:20Z</time></trkpt><trkpt lat="38.172021165914245" lon="15.370935076799997"><ele>83.66666666666667</ele><time>2026-05-04T05:55:21Z</time></trkpt><trkpt lat="38.17193757837884" lon="15.37109625929719"><ele>83.0</ele><time>2026-05-04T05:55:22Z</time></trkpt><trkpt lat="38.17185472507538" lon="15.37125681857148"><ele>83.5</ele><time>2026-05-04T05:55:23Z</time></trkpt><trkpt lat="38.17179635411776" lon="15.371437306005797"><ele>84.0</ele><time>2026-05-04T05:55:24Z</time></trkpt><trkpt lat="38.17172940054768" lon="15.371588964399743"><ele>84.5</ele><time>2026-05-04T05:55:25Z</time></trkpt><trkpt lat="38.17167918812244" lon="15.371749990632795"><ele>85.0</ele><time>2026-05-04T05:55:26Z</time></trkpt><trkpt lat="38.1716455443077" lon="15.371916182879847"><ele>85.0</ele><time>2026-05-04T05:55:27Z</time></trkpt><trkpt lat="38.17161622252913" lon="15.372095833256418"><ele>85.0</ele><time>2026-05-04T05:55:28Z</time></trkpt><trkpt lat="38.17156905688565" lon="15.372275254458428"><ele>85.0</ele><time>2026-05-04T05:55:29Z</time></trkpt><trkpt lat="38.171495348813025" lon="15.372437536066304"><ele>85.0</ele><time>2026-05-04T05:55:30Z</time></trkpt><trkpt lat="38.171427758673374" lon="15.372583828288535"><ele>86.25</ele><time>2026-05-04T05:55:31Z</time></trkpt><trkpt lat="38.17138615097294" lon="15.372741492616326"><ele>87.5</ele><time>2026-05-04T05:55:32Z</time></trkpt><trkpt lat="38.171327416567486" lon="15.372912628375374"><ele>88.75</ele><time>2026-05-04T05:55:33Z</time></trkpt><trkpt lat="38.17127418646504" lon="15.373084395055404"><ele>90.0</ele><time>2026-05-04T05:55:34Z</time></trkpt><trkpt lat="38.17119412233236" lon="15.373229915526297"><ele>90.5</ele><time>2026-05-04T05:55:35Z</time></trkpt><trkpt lat="38.171146899668514" lon="15.373397348250498"><ele>91.0</ele><time>2026-05-04T05:55:36Z</time></trkpt><trkpt lat="38.171087983413535" lon="15.373551572560267"><ele>91.5</ele><time>2026-05-04T05:55:37Z</time></trkpt><trkpt lat="38.17104362902684" lon="15.373718481659093"><ele>92.0</ele><time>2026-05-04T05:55:38Z</time></trkpt><trkpt lat="38.171007420583564" lon="15.373900167478359"><ele>92.25</ele><time>2026-05-04T05:55:39Z</time></trkpt><trkpt lat="38.170965405272995" lon="15.374079485746321"><ele>92.5</ele><time>2026-05-04T05:55:40Z</time></trkpt><trkpt lat="38.17089161803298" lon="15.374240635812413"><ele>92.75</ele><time>2026-05-04T05:55:40.999Z</time></trkpt><trkpt lat="38.170830606611645" lon="15.374410030012145"><ele>93.0</ele><time>2026-05-04T05:55:41.999Z</time></trkpt><trkpt lat="38.170767127384" lon="15.374588182524217"><ele>93.75</ele><time>2026-05-04T05:55:42.999Z</time></trkpt><trkpt lat="38.17070722206251" lon="15.37475786487658"><ele>94.5</ele><time>2026-05-04T05:55:43.999Z</time></trkpt><trkpt lat="38.17064257719871" lon="15.374937303280078"><ele>95.25</ele><time>2026-05-04T05:55:44.999Z</time></trkpt><trkpt lat="38.170595320825775" lon="15.375112503684202"><ele>96.0</ele><time>2026-05-04T05:55:45.999Z</time></trkpt><trkpt lat="38.1705351067635" lon="15.375276064609595"><ele>96.0</ele><time>2026-05-04T05:55:46.999Z</time></trkpt><trkpt lat="38.17048557822029" lon="15.375450252269028"><ele>96.0</ele><time>2026-05-04T05:55:47.999Z</time></trkpt><trkpt lat="38.17044899147822" lon="15.375628371928247"><ele>96.0</ele><time>2026-05-04T05:55:48.999Z</time></trkpt><trkpt lat="38.1704319936169" lon="15.375799497775276"><ele>96.0</ele><time>2026-05-04T05:55:49.999Z</time></trkpt><trkpt lat="38.17042508770959" lon="15.375963003802426"><ele>96.0</ele><time>2026-05-04T05:55:50.999Z</time></trkpt><trkpt lat="38.17042436909565" lon="15.376146426184444"><ele>96.0</ele><time>2026-05-04T05:55:51.999Z</time></trkpt><trkpt lat="38.17041673828786" lon="15.376321443629218"><ele>96.0</ele><time>2026-05-04T05:55:52.999Z</time></trkpt><trkpt lat="38.170371597249655" lon="15.376470508506141"><ele>96.0</ele><time>2026-05-04T05:55:53.999Z</time></trkpt><trkpt lat="38.17032412118389" lon="15.376610202505098"><ele>96.0</ele><time>2026-05-04T05:55:54.999Z</time></trkpt><trkpt lat="38.17026693966592" lon="15.37676516696477"><ele>96.0</ele><time>2026-05-04T05:55:55.999Z</time></trkpt><trkpt lat="38.17019516718976" lon="15.376920029626154"><ele>96.0</ele><time>2026-05-04T05:55:56.999Z</time></trkpt><trkpt lat="38.170126511934335" lon="15.377084992696368"><ele>96.0</ele><time>2026-05-04T05:55:57.999Z</time></trkpt><trkpt lat="38.17007721320967" lon="15.377248170816536"><ele>96.75</ele><time>2026-05-04T05:55:58.999Z</time></trkpt><trkpt lat="38.17001083027706" lon="15.37738197014909"><ele>97.5</ele><time>2026-05-04T05:55:59.999Z</time></trkpt><trkpt lat="38.16995171603722" lon="15.377525065923956"><ele>98.25</ele><time>2026-05-04T05:56:00.999Z</time></trkpt><trkpt lat="38.16991499738314" lon="15.377683294571995"><ele>99.0</ele><time>2026-05-04T05:56:01.999Z</time></trkpt><trkpt lat="38.169863612682605" lon="15.377840210455034"><ele>99.0</ele><time>2026-05-04T05:56:02.999Z</time></trkpt><trkpt lat="38.169800138844096" lon="15.377978115605867"><ele>99.0</ele><time>2026-05-04T05:56:03.999Z</time></trkpt><trkpt lat="38.16973037415468" lon="15.378106707026514"><ele>99.0</ele><time>2026-05-04T05:56:04.999Z</time></trkpt><trkpt lat="38.16964850945905" lon="15.378229136616953"><ele>99.0</ele><time>2026-05-04T05:56:05.999Z</time></trkpt><trkpt lat="38.16955584669784" lon="15.37836446643123"><ele>99.0</ele><time>2026-05-04T05:56:06.999Z</time></trkpt><trkpt lat="38.16946321292472" lon="15.378502119663708"><ele>99.0</ele><time>2026-05-04T05:56:07.999Z</time></trkpt><trkpt lat="38.16936587944524" lon="15.378642786927719"><ele>99.0</ele><time>2026-05-04T05:56:08.999Z</time></trkpt><trkpt lat="38.16927389417215" lon="15.378792251267454"><ele>99.0</ele><time>2026-05-04T05:56:09.999Z</time></trkpt><trkpt lat="38.1691976587297" lon="15.378938375662978"><ele>99.5</ele><time>2026-05-04T05:56:10.999Z</time></trkpt><trkpt lat="38.16912398136413" lon="15.379093577660445"><ele>100.0</ele><time>2026-05-04T05:56:11.999Z</time></trkpt><trkpt lat="38.169068366223215" lon="15.379246392150389"><ele>100.5</ele><time>2026-05-04T05:56:12.999Z</time></trkpt><trkpt lat="38.16901833747441" lon="15.379414561484026"><ele>101.0</ele><time>2026-05-04T05:56:13.999Z</time></trkpt><trkpt lat="38.1689460113593" lon="15.379580933972251"><ele>102.33333333333333</ele><time>2026-05-04T05:56:14.999Z</time></trkpt><trkpt lat="38.16886273424424" lon="15.379735529833562"><ele>103.66666666666666</ele><time>2026-05-04T05:56:15.999Z</time></trkpt><trkpt lat="38.168750578105886" lon="15.379887903234962"><ele>105.0</ele><time>2026-05-04T05:56:16.999Z</time></trkpt><trkpt lat="38.16867772555696" lon="15.380090294731268"><ele>105.0</ele><time>2026-05-04T05:56:17.999Z</time></trkpt><trkpt lat="38.16857164714567" lon="15.380295412045067"><ele>105.0</ele><time>2026-05-04T05:56:18.999Z</time></trkpt><trkpt lat="38.16848272401041" lon="15.380482760634214"><ele>105.0</ele><time>2026-05-04T05:56:19.999Z</time></trkpt><trkpt lat="38.16841469356451" lon="15.380659170084378"><ele>106.0</ele><time>2026-05-04T05:56:20.999Z</time></trkpt><trkpt lat="38.16834699140277" lon="15.380821202787637"><ele>107.0</ele><time>2026-05-04T05:56:21.999Z</time></trkpt><trkpt lat="38.16790398035074" lon="15.380728487487813"><ele>109.0</ele><time>2026-05-04T05:56:22.999Z</time></trkpt><trkpt lat="38.16786355029648" lon="15.380893897029445"><ele>111.0</ele><time>2026-05-04T05:56:23.999Z</time></trkpt><trkpt lat="38.167816474661215" lon="15.381062660958543"><ele>113.0</ele><time>2026-05-04T05:56:24.999Z</time></trkpt><trkpt lat="38.167741829041454" lon="15.381205849706411"><ele>115.0</ele><time>2026-05-04T05:56:25.999Z</time></trkpt><trkpt lat="38.16768390696413" lon="15.38135315815878"><ele>115.0</ele><time>2026-05-04T05:56:26.999Z</time></trkpt><trkpt lat="38.16764660736832" lon="15.381495751380864"><ele>115.0</ele><time>2026-05-04T05:56:27.999Z</time></trkpt><trkpt lat="38.16789649373098" lon="15.381791841311975"><ele>115.00000000000001</ele><time>2026-05-04T05:56:28.999Z</time></trkpt><trkpt lat="38.16787429131835" lon="15.381902122153598"><ele>115.0</ele><time>2026-05-04T05:56:29.999Z</time></trkpt><trkpt lat="38.16787439432223" lon="15.38200346249981"><ele>115.0</ele><time>2026-05-04T05:56:30.999Z</time></trkpt><trkpt lat="38.16788926727593" lon="15.382092588829758"><ele>115.0</ele><time>2026-05-04T05:56:31.999Z</time></trkpt><trkpt lat="38.16787580482895" lon="15.382173968147312"><ele>115.00000000000001</ele><time>2026-05-04T05:56:32.999Z</time></trkpt><trkpt lat="38.16782927475702" lon="15.382267963724495"><ele>115.0</ele><time>2026-05-04T05:56:33.999Z</time></trkpt><trkpt lat="38.16777768847426" lon="15.382408248290044"><ele>115.0</ele><time>2026-05-04T05:56:34.999Z</time></trkpt><trkpt lat="38.16774101483406" lon="15.382563139857162"><ele>115.0</ele><time>2026-05-04T05:56:35.999Z</time></trkpt><trkpt lat="38.167718797375976" lon="15.382700792062952"><ele>115.0</ele><time>2026-05-04T05:56:36.999Z</time></trkpt><trkpt lat="38.1677047034759" lon="15.382808329960971"><ele>115.0</ele><time>2026-05-04T05:56:37.998Z</time></trkpt><trkpt lat="38.16767627492157" lon="15.382936644317576"><ele>115.0</ele><time>2026-05-04T05:56:38.998Z</time></trkpt><trkpt lat="38.16766282220404" lon="15.383051908374213"><ele>115.0</ele><time>2026-05-04T05:56:39.998Z</time></trkpt><trkpt lat="38.16765432598313" lon="15.38317750879026"><ele>115.0</ele><time>2026-05-04T05:56:40.998Z</time></trkpt><trkpt lat="38.167645421344154" lon="15.383324461740346"><ele>115.0</ele><time>2026-05-04T05:56:41.998Z</time></trkpt><trkpt lat="38.167643847369064" lon="15.383459262562678"><ele>115.0</ele><time>2026-05-04T05:56:42.998Z</time></trkpt><trkpt lat="38.16763606641719" lon="15.383581611894822"><ele>115.0</ele><time>2026-05-04T05:56:43.998Z</time></trkpt><trkpt lat="38.167622116392714" lon="15.383691598352417"><ele>115.0</ele><time>2026-05-04T05:56:44.998Z</time></trkpt><trkpt lat="38.16758964724497" lon="15.383816230105262"><ele>115.0</ele><time>2026-05-04T05:56:45.998Z</time></trkpt><trkpt lat="38.167557764959035" lon="15.38394537675807"><ele>115.0</ele><time>2026-05-04T05:56:46.998Z</time></trkpt><trkpt lat="38.167539498056335" lon="15.384080648436951"><ele>115.0</ele><time>2026-05-04T05:56:47.998Z</time></trkpt><trkpt lat="38.167517277117575" lon="15.384209740191983"><ele>115.0</ele><time>2026-05-04T05:56:48.998Z</time></trkpt><trkpt lat="38.16748627264268" lon="15.384325313859309"><ele>115.66666666666667</ele><time>2026-05-04T05:56:49.998Z</time></trkpt><trkpt lat="38.16745335415941" lon="15.384432361353573"><ele>116.33333333333334</ele><time>2026-05-04T05:56:50.998Z</time></trkpt><trkpt lat="38.16740483900926" lon="15.384519758774127"><ele>117.0</ele><time>2026-05-04T05:56:51.998Z</time></trkpt><trkpt lat="38.167374948544655" lon="15.384613294189556"><ele>117.66666666666666</ele><time>2026-05-04T05:56:52.998Z</time></trkpt><trkpt lat="38.167349401913945" lon="15.384715688602702"><ele>118.33333333333333</ele><time>2026-05-04T05:56:54Z</time></trkpt><trkpt lat="38.16733732514775" lon="15.384835758037267"><ele>119.0</ele><time>2026-05-04T05:56:55Z</time></trkpt><trkpt lat="38.16731669902862" lon="15.384954577659014"><ele>119.0</ele><time>2026-05-04T05:56:56Z</time></trkpt><trkpt lat="38.16727880790501" lon="15.38506834838024"><ele>119.0</ele><time>2026-05-04T05:56:57Z</time></trkpt><trkpt lat="38.167211752668216" lon="15.385184328425542"><ele>119.0</ele><time>2026-05-04T05:56:58Z</time></trkpt><trkpt lat="38.16713782448966" lon="15.385292150392882"><ele>119.0</ele><time>2026-05-04T05:56:59Z</time></trkpt><trkpt lat="38.16705560757167" lon="15.385382561506342"><ele>119.0</ele><time>2026-05-04T05:57:00Z</time></trkpt><trkpt lat="38.16697022623061" lon="15.385456288205807"><ele>119.2</ele><time>2026-05-04T05:57:01Z</time></trkpt><trkpt lat="38.166882789703415" lon="15.385518967732892"><ele>119.4</ele><time>2026-05-04T05:57:02Z</time></trkpt><trkpt lat="38.16678982924445" lon="15.385597543579586"><ele>119.6</ele><time>2026-05-04T05:57:03Z</time></trkpt><trkpt lat="38.16669517592534" lon="15.38565090160917"><ele>119.8</ele><time>2026-05-04T05:57:04Z</time></trkpt><trkpt lat="38.16657808915848" lon="15.385699094933615"><ele>120.0</ele><time>2026-05-04T05:57:05Z</time></trkpt><trkpt lat="38.16645783811559" lon="15.38574548548515"><ele>120.25</ele><time>2026-05-04T05:57:06Z</time></trkpt><trkpt lat="38.166351975865936" lon="15.385819629587843"><ele>120.5</ele><time>2026-05-04T05:57:07Z</time></trkpt><trkpt lat="38.166239847985764" lon="15.385899130917291"><ele>120.75</ele><time>2026-05-04T05:57:08Z</time></trkpt><trkpt lat="38.16610707749101" lon="15.38599810841521"><ele>121.0</ele><time>2026-05-04T05:57:09Z</time></trkpt><trkpt lat="38.165967704677406" lon="15.386105788915488"><ele>121.0</ele><time>2026-05-04T05:57:10Z</time></trkpt><trkpt lat="38.165822132054075" lon="15.386168880822675"><ele>121.0</ele><time>2026-05-04T05:57:11Z</time></trkpt><trkpt lat="38.16568888033908" lon="15.38624516730568"><ele>121.0</ele><time>2026-05-04T05:57:12Z</time></trkpt><trkpt lat="38.16555198867193" lon="15.38632414884456"><ele>121.25</ele><time>2026-05-04T05:57:13Z</time></trkpt><trkpt lat="38.16542555874312" lon="15.386411175508027"><ele>121.5</ele><time>2026-05-04T05:57:14Z</time></trkpt><trkpt lat="38.16532274796932" lon="15.386535769070871"><ele>121.75</ele><time>2026-05-04T05:57:15Z</time></trkpt><trkpt lat="38.16522588729763" lon="15.386616666536346"><ele>122.0</ele><time>2026-05-04T05:57:16Z</time></trkpt><trkpt lat="38.165142174293216" lon="15.38667016000087"><ele>121.99999999999999</ele><time>2026-05-04T05:57:17Z</time></trkpt><trkpt lat="38.16508004582734" lon="15.386709434705137"><ele>122.0</ele><time>2026-05-04T05:57:18Z</time></trkpt><trkpt lat="38.16518001893006" lon="15.386636183414609"><ele>122.0</ele><time>2026-05-04T05:57:28Z</time></trkpt><trkpt lat="38.16525987095869" lon="15.38657530157316"><ele>122.0</ele><time>2026-05-04T05:57:29Z</time></trkpt><trkpt lat="38.16531534290007" lon="15.386520951007137"><ele>121.99999999999999</ele><time>2026-05-04T05:57:30Z</time></trkpt><trkpt lat="38.16532991685139" lon="15.386427989248967"><ele>122.0</ele><time>2026-05-04T05:57:32Z</time></trkpt><trkpt lat="38.165312716484706" lon="15.38633841601464"><ele>121.99999999999999</ele><time>2026-05-04T05:57:34Z</time></trkpt><trkpt lat="38.16525371285229" lon="15.386225301827476"><ele>122.0</ele><time>2026-05-04T05:57:36Z</time></trkpt><trkpt lat="38.16519941843229" lon="15.386172333888423"><ele>122.0</ele><time>2026-05-04T05:57:37Z</time></trkpt><trkpt lat="38.165104586174294" lon="15.386179006397109"><ele>122.0</ele><time>2026-05-04T05:57:39Z</time></trkpt><trkpt lat="38.165052038141134" lon="15.386225876214638"><ele>121.99999999999999</ele><time>2026-05-04T05:57:40Z</time></trkpt><trkpt lat="38.16497848834243" lon="15.38631438476888"><ele>122.0</ele><time>2026-05-04T05:57:41Z</time></trkpt><trkpt lat="38.16490072516246" lon="15.386392816841948"><ele>122.99999999999999</ele><time>2026-05-04T05:57:42Z</time></trkpt><trkpt lat="38.16482038272848" lon="15.386456981441283"><ele>124.0</ele><time>2026-05-04T05:57:43Z</time></trkpt><trkpt lat="38.16475398916522" lon="15.38653494723963"><ele>125.0</ele><time>2026-05-04T05:57:44Z</time></trkpt><trkpt lat="38.16466292214227" lon="15.386592217648115"><ele>126.0</ele><time>2026-05-04T05:57:46Z</time></trkpt><trkpt lat="38.16458687982143" lon="15.386624565933563"><ele>126.99999999999999</ele><time>2026-05-04T05:57:54.999Z</time></trkpt><trkpt lat="38.164564720711404" lon="15.38670096002002"><ele>128.0</ele><time>2026-05-04T05:58:07.999Z</time></trkpt><trkpt lat="38.164500402642034" lon="15.3868144836071"><ele>127.99999999999999</ele><time>2026-05-04T05:58:09.999Z</time></trkpt><trkpt lat="38.16444353575095" lon="15.38688966239907"><ele>128.0</ele><time>2026-05-04T05:58:10.999Z</time></trkpt><trkpt lat="38.16437864809297" lon="15.386974453733176"><ele>128.0</ele><time>2026-05-04T05:58:11.999Z</time></trkpt><trkpt lat="38.164327213447486" lon="15.387060341881474"><ele>128.0</ele><time>2026-05-04T05:58:12.999Z</time></trkpt><trkpt lat="38.1642863761877" lon="15.38712302418479"><ele>127.99999999999999</ele><time>2026-05-04T05:58:13.999Z</time></trkpt><trkpt lat="38.164204969403755" lon="15.387194849028493"><ele>128.0</ele><time>2026-05-04T05:58:15.999Z</time></trkpt><trkpt lat="38.16414055785149" lon="15.387265237348409"><ele>127.0</ele><time>2026-05-04T05:58:17.999Z</time></trkpt><trkpt lat="38.16405507643552" lon="15.387369274258289"><ele>126.00000000000001</ele><time>2026-05-04T05:58:19.999Z</time></trkpt><trkpt lat="38.16397948489014" lon="15.38749548287147"><ele>125.00000000000001</ele><time>2026-05-04T05:58:21.999Z</time></trkpt><trkpt lat="38.163936263306226" lon="15.387579350177214"><ele>124.0</ele><time>2026-05-04T05:58:22.999Z</time></trkpt><trkpt lat="38.163885734605074" lon="15.387669191452758"><ele>123.0</ele><time>2026-05-04T05:58:23.999Z</time></trkpt><trkpt lat="38.16383647073325" lon="15.38775468143564"><ele>124.25</ele><time>2026-05-04T05:58:24.999Z</time></trkpt><trkpt lat="38.16375990274978" lon="15.387864634279257"><ele>125.5</ele><time>2026-05-04T05:58:25.999Z</time></trkpt><trkpt lat="38.163675212465996" lon="15.387981450815904"><ele>126.75</ele><time>2026-05-04T05:58:26.999Z</time></trkpt><trkpt lat="38.16359133335564" lon="15.388104488790624"><ele>128.0</ele><time>2026-05-04T05:58:27.999Z</time></trkpt><trkpt lat="38.163518975604255" lon="15.388206307434569"><ele>128.0</ele><time>2026-05-04T05:58:28.999Z</time></trkpt><trkpt lat="38.16343685559399" lon="15.38829414773875"><ele>128.0</ele><time>2026-05-04T05:58:29.999Z</time></trkpt><trkpt lat="38.16336104348218" lon="15.388374545254205"><ele>128.0</ele><time>2026-05-04T05:58:30.999Z</time></trkpt><trkpt lat="38.16328204190106" lon="15.388448433136531"><ele>128.0</ele><time>2026-05-04T05:58:31.999Z</time></trkpt><trkpt lat="38.16319530694945" lon="15.388517051984861"><ele>128.0</ele><time>2026-05-04T05:58:32.999Z</time></trkpt><trkpt lat="38.163129322305835" lon="15.388603391718025"><ele>128.20000000000002</ele><time>2026-05-04T05:58:33.999Z</time></trkpt><trkpt lat="38.16306210149759" lon="15.388671284117274"><ele>128.4</ele><time>2026-05-04T05:58:34.999Z</time></trkpt><trkpt lat="38.16298812756433" lon="15.388726055450636"><ele>128.60000000000002</ele><time>2026-05-04T05:58:35.999Z</time></trkpt><trkpt lat="38.162922024349896" lon="15.388805552529991"><ele>128.8</ele><time>2026-05-04T05:58:36.999Z</time></trkpt><trkpt lat="38.162861877238385" lon="15.388889994242142"><ele>129.0</ele><time>2026-05-04T05:58:37.999Z</time></trkpt><trkpt lat="38.16278589698707" lon="15.388986554172797"><ele>129.0</ele><time>2026-05-04T05:58:38.999Z</time></trkpt><trkpt lat="38.16268063797304" lon="15.389068584808152"><ele>129.0</ele><time>2026-05-04T05:58:39.999Z</time></trkpt><trkpt lat="38.16257130352892" lon="15.389146745690025"><ele>129.0</ele><time>2026-05-04T05:58:40.999Z</time></trkpt><trkpt lat="38.162459436220615" lon="15.389203353836951"><ele>129.0</ele><time>2026-05-04T05:58:41.999Z</time></trkpt><trkpt lat="38.16236376927368" lon="15.389270169598259"><ele>130.0</ele><time>2026-05-04T05:58:42.999Z</time></trkpt><trkpt lat="38.16226683577689" lon="15.389347954515655"><ele>131.0</ele><time>2026-05-04T05:58:43.998Z</time></trkpt><trkpt lat="38.162158219660476" lon="15.389419611958516"><ele>132.0</ele><time>2026-05-04T05:58:44.998Z</time></trkpt><trkpt lat="38.16204094925585" lon="15.389484777592884"><ele>133.0</ele><time>2026-05-04T05:58:45.998Z</time></trkpt><trkpt lat="38.16191691504547" lon="15.389560388426329"><ele>133.0</ele><time>2026-05-04T05:58:46.998Z</time></trkpt><trkpt lat="38.161788562332674" lon="15.389617690564465"><ele>133.0</ele><time>2026-05-04T05:58:47.998Z</time></trkpt><trkpt lat="38.16167953630946" lon="15.38968294835327"><ele>133.0</ele><time>2026-05-04T05:58:48.998Z</time></trkpt><trkpt lat="38.16156238173946" lon="15.389735154391772"><ele>133.0</ele><time>2026-05-04T05:58:49.998Z</time></trkpt><trkpt lat="38.16143403062605" lon="15.389799205230696"><ele>132.75</ele><time>2026-05-04T05:58:50.998Z</time></trkpt><trkpt lat="38.16132945810804" lon="15.389874298801606"><ele>132.5</ele><time>2026-05-04T05:58:51.998Z</time></trkpt><trkpt lat="38.16120520093692" lon="15.389946552402442"><ele>132.25</ele><time>2026-05-04T05:58:52.998Z</time></trkpt><trkpt lat="38.161089352826096" lon="15.39002929265619"><ele>132.0</ele><time>2026-05-04T05:58:53.998Z</time></trkpt><trkpt lat="38.16098195507341" lon="15.390093799693911"><ele>132.0</ele><time>2026-05-04T05:58:54.998Z</time></trkpt><trkpt lat="38.16087077200708" lon="15.390152222569037"><ele>132.0</ele><time>2026-05-04T05:58:55.998Z</time></trkpt><trkpt lat="38.16075495027705" lon="15.39019709572297"><ele>132.0</ele><time>2026-05-04T05:58:56.998Z</time></trkpt><trkpt lat="38.160639275004" lon="15.390245050023728"><ele>132.0</ele><time>2026-05-04T05:58:57.998Z</time></trkpt><trkpt lat="38.16052359984343" lon="15.390292483282026"><ele>131.75</ele><time>2026-05-04T05:58:58.998Z</time></trkpt><trkpt lat="38.16040506438646" lon="15.390337779083026"><ele>131.5</ele><time>2026-05-04T05:59:00Z</time></trkpt><trkpt lat="38.1602918496159" lon="15.390392399396259"><ele>131.25</ele><time>2026-05-04T05:59:01Z</time></trkpt><trkpt lat="38.16018234884301" lon="15.390463737955722"><ele>131.0</ele><time>2026-05-04T05:59:02Z</time></trkpt><trkpt lat="38.1600655490444" lon="15.390516034169226"><ele>131.0</ele><time>2026-05-04T05:59:03Z</time></trkpt><trkpt lat="38.15994943494288" lon="15.390567363770861"><ele>131.0</ele><time>2026-05-04T05:59:04Z</time></trkpt><trkpt lat="38.15983715107438" lon="15.390630503559457"><ele>131.0</ele><time>2026-05-04T05:59:05Z</time></trkpt><trkpt lat="38.15972189714767" lon="15.390714156770729"><ele>131.0</ele><time>2026-05-04T05:59:06Z</time></trkpt><trkpt lat="38.15960640270246" lon="15.390802654895964"><ele>132.75</ele><time>2026-05-04T05:59:07Z</time></trkpt><trkpt lat="38.159496339264564" lon="15.390871917310887"><ele>134.5</ele><time>2026-05-04T05:59:08Z</time></trkpt><trkpt lat="38.15937926043973" lon="15.39092552348733"><ele>136.25</ele><time>2026-05-04T05:59:09Z</time></trkpt><trkpt lat="38.15926936295538" lon="15.39098939914201"><ele>138.0</ele><time>2026-05-04T05:59:10Z</time></trkpt><trkpt lat="38.15916035288448" lon="15.391048490618259"><ele>138.0</ele><time>2026-05-04T05:59:11Z</time></trkpt><trkpt lat="38.15905283612257" lon="15.391106398482464"><ele>138.0</ele><time>2026-05-04T05:59:12Z</time></trkpt><trkpt lat="38.158947910972074" lon="15.391173201869915"><ele>138.0</ele><time>2026-05-04T05:59:13Z</time></trkpt><trkpt lat="38.15885283365358" lon="15.39125271841043"><ele>138.0</ele><time>2026-05-04T05:59:14Z</time></trkpt><trkpt lat="38.15873313959423" lon="15.391293161848045"><ele>137.25</ele><time>2026-05-04T05:59:15Z</time></trkpt><trkpt lat="38.158606907013905" lon="15.39134695001613"><ele>136.5</ele><time>2026-05-04T05:59:16Z</time></trkpt><trkpt lat="38.15848281360316" lon="15.391396427230685"><ele>135.75</ele><time>2026-05-04T05:59:17Z</time></trkpt><trkpt lat="38.15835662615232" lon="15.391463519474728"><ele>135.0</ele><time>2026-05-04T05:59:18Z</time></trkpt><trkpt lat="38.15822343391555" lon="15.391488211537625"><ele>136.0</ele><time>2026-05-04T05:59:19Z</time></trkpt><trkpt lat="38.15810533311155" lon="15.391549719307815"><ele>137.0</ele><time>2026-05-04T05:59:20Z</time></trkpt><trkpt lat="38.157983205974595" lon="15.391571463253172"><ele>138.0</ele><time>2026-05-04T05:59:21Z</time></trkpt><trkpt lat="38.15787743827061" lon="15.391600124566713"><ele>139.0</ele><time>2026-05-04T05:59:22Z</time></trkpt><trkpt lat="38.15776445382173" lon="15.391641525068586"><ele>139.0</ele><time>2026-05-04T05:59:23Z</time></trkpt><trkpt lat="38.15766207710885" lon="15.391707805308698"><ele>139.0</ele><time>2026-05-04T05:59:24Z</time></trkpt><trkpt lat="38.15756355881658" lon="15.391758838601982"><ele>139.0</ele><time>2026-05-04T05:59:25Z</time></trkpt><trkpt lat="38.15747403637219" lon="15.391813876019079"><ele>139.0</ele><time>2026-05-04T05:59:26Z</time></trkpt><trkpt lat="38.15738760448782" lon="15.391884812749602"><ele>139.0</ele><time>2026-05-04T05:59:27Z</time></trkpt><trkpt lat="38.157300053562295" lon="15.391975708287754"><ele>139.4</ele><time>2026-05-04T05:59:28Z</time></trkpt><trkpt lat="38.15723044498688" lon="15.39207052520345"><ele>139.8</ele><time>2026-05-04T05:59:29Z</time></trkpt><trkpt lat="38.15714952599023" lon="15.392148923027538"><ele>140.2</ele><time>2026-05-04T05:59:30Z</time></trkpt><trkpt lat="38.1570474771157" lon="15.392178606192772"><ele>140.6</ele><time>2026-05-04T05:59:31Z</time></trkpt><trkpt lat="38.15696819860062" lon="15.39224224826738"><ele>141.0</ele><time>2026-05-04T05:59:32Z</time></trkpt><trkpt lat="38.15689213111667" lon="15.392273702974459"><ele>141.2</ele><time>2026-05-04T05:59:33Z</time></trkpt><trkpt lat="38.156818737604375" lon="15.392318049960625"><ele>141.39999999999998</ele><time>2026-05-04T05:59:35Z</time></trkpt><trkpt lat="38.1567536586344" lon="15.392384165531338"><ele>141.6</ele><time>2026-05-04T05:59:37Z</time></trkpt><trkpt lat="38.15667826115317" lon="15.392411787347298"><ele>141.79999999999998</ele><time>2026-05-04T05:59:38Z</time></trkpt><trkpt lat="38.1565643199271" lon="15.392455173906436"><ele>142.0</ele><time>2026-05-04T05:59:39Z</time></trkpt><trkpt lat="38.156456717797134" lon="15.392517787156907"><ele>142.79999999999998</ele><time>2026-05-04T05:59:40Z</time></trkpt><trkpt lat="38.156348598591656" lon="15.392596656502198"><ele>143.6</ele><time>2026-05-04T05:59:41Z</time></trkpt><trkpt lat="38.15625973145829" lon="15.392680261462198"><ele>144.39999999999998</ele><time>2026-05-04T05:59:42Z</time></trkpt><trkpt lat="38.156167366182544" lon="15.39274132671223"><ele>145.2</ele><time>2026-05-04T05:59:43Z</time></trkpt><trkpt lat="38.15607501386727" lon="15.392799390595195"><ele>146.0</ele><time>2026-05-04T05:59:44Z</time></trkpt><trkpt lat="38.15600297004092" lon="15.392880021001591"><ele>146.0</ele><time>2026-05-04T05:59:45Z</time></trkpt><trkpt lat="38.155902696695854" lon="15.392943903116155"><ele>146.0</ele><time>2026-05-04T05:59:46Z</time></trkpt><trkpt lat="38.155801804901806" lon="15.393045198114807"><ele>146.0</ele><time>2026-05-04T05:59:47Z</time></trkpt><trkpt lat="38.15570685089798" lon="15.393124030352237"><ele>146.0</ele><time>2026-05-04T05:59:48Z</time></trkpt><trkpt lat="38.155626179353646" lon="15.39319516979399"><ele>147.66666666666666</ele><time>2026-05-04T05:59:49Z</time></trkpt><trkpt lat="38.15556180107147" lon="15.393279338786803"><ele>149.33333333333331</ele><time>2026-05-04T05:59:50Z</time></trkpt><trkpt lat="38.1554896265168" lon="15.393352846991265"><ele>151.0</ele><time>2026-05-04T05:59:50.999Z</time></trkpt><trkpt lat="38.155416612615326" lon="15.393407187184268"><ele>152.66666666666666</ele><time>2026-05-04T05:59:51.999Z</time></trkpt><trkpt lat="38.15534746304682" lon="15.393457592775246"><ele>154.33333333333334</ele><time>2026-05-04T05:59:52.999Z</time></trkpt><trkpt lat="38.15528390158725" lon="15.393514331339517"><ele>156.0</ele><time>2026-05-04T05:59:53.999Z</time></trkpt><trkpt lat="38.155203108577595" lon="15.39356641746114"><ele>156.0</ele><time>2026-05-04T05:59:54.999Z</time></trkpt><trkpt lat="38.15508778863356" lon="15.393620419608206"><ele>156.0</ele><time>2026-05-04T05:59:55.999Z</time></trkpt><trkpt lat="38.15496472145415" lon="15.39368023713811"><ele>156.0</ele><time>2026-05-04T05:59:56.999Z</time></trkpt><trkpt lat="38.15486092419266" lon="15.393731497594498"><ele>156.0</ele><time>2026-05-04T05:59:57.999Z</time></trkpt><trkpt lat="38.154788957861946" lon="15.393795197574772"><ele>155.66666666666666</ele><time>2026-05-04T05:59:58.999Z</time></trkpt><trkpt lat="38.154717068423224" lon="15.393839925882817"><ele>155.33333333333334</ele><time>2026-05-04T05:59:59.999Z</time></trkpt><trkpt lat="38.15464107613153" lon="15.393912834884816"><ele>155.0</ele><time>2026-05-04T06:00:00.999Z</time></trkpt><trkpt lat="38.15455184549776" lon="15.393961807239881"><ele>154.66666666666669</ele><time>2026-05-04T06:00:01.999Z</time></trkpt><trkpt lat="38.15447246006932" lon="15.394020812724154"><ele>154.33333333333334</ele><time>2026-05-04T06:00:02.999Z</time></trkpt><trkpt lat="38.1544072507213" lon="15.394069281435778"><ele>154.0</ele><time>2026-05-04T06:00:03.999Z</time></trkpt><trkpt lat="38.154340644272295" lon="15.394118788580437"><ele>154.0</ele><time>2026-05-04T06:00:04.999Z</time></trkpt><trkpt lat="38.15428589250335" lon="15.394159484394198"><ele>154.0</ele><time>2026-05-04T06:00:05.999Z</time></trkpt><trkpt lat="38.15425136002218" lon="15.394245125676678"><ele>154.0</ele><time>2026-05-04T06:00:06.999Z</time></trkpt><trkpt lat="38.15416817885724" lon="15.394325640416268"><ele>154.0</ele><time>2026-05-04T06:00:08.999Z</time></trkpt><trkpt lat="38.15412198907862" lon="15.39439025785141"><ele>154.0</ele><time>2026-05-04T06:00:09.999Z</time></trkpt><trkpt lat="38.1540802782894" lon="15.394493320906962"><ele>154.0</ele><time>2026-05-04T06:00:10.999Z</time></trkpt><trkpt lat="38.15402887161456" lon="15.394569570753724"><ele>154.4</ele><time>2026-05-04T06:00:11.999Z</time></trkpt><trkpt lat="38.15394676349401" lon="15.394643723239637"><ele>154.8</ele><time>2026-05-04T06:00:12.999Z</time></trkpt><trkpt lat="38.15385705665378" lon="15.394696019661273"><ele>155.2</ele><time>2026-05-04T06:00:13.999Z</time></trkpt><trkpt lat="38.1537587111149" lon="15.394773086952181"><ele>155.6</ele><time>2026-05-04T06:00:14.999Z</time></trkpt><trkpt lat="38.15368501508055" lon="15.394844173690883"><ele>156.0</ele><time>2026-05-04T06:00:15.999Z</time></trkpt><trkpt lat="38.153610609636125" lon="15.394921758181985"><ele>156.0</ele><time>2026-05-04T06:00:16.999Z</time></trkpt><trkpt lat="38.15353264791097" lon="15.395001471002809"><ele>156.0</ele><time>2026-05-04T06:00:17.999Z</time></trkpt><trkpt lat="38.153456570325055" lon="15.395075099825554"><ele>156.0</ele><time>2026-05-04T06:00:18.999Z</time></trkpt><trkpt lat="38.15337573885781" lon="15.3951477998645"><ele>156.0</ele><time>2026-05-04T06:00:19.999Z</time></trkpt><trkpt lat="38.153289782573765" lon="15.395202109011935"><ele>156.0</ele><time>2026-05-04T06:00:20.999Z</time></trkpt><trkpt lat="38.15322683821142" lon="15.395260308474267"><ele>162.0</ele><time>2026-05-04T06:00:21.999Z</time></trkpt><trkpt lat="38.153169756691426" lon="15.395335244338812"><ele>168.0</ele><time>2026-05-04T06:00:22.999Z</time></trkpt><trkpt lat="38.15312373005555" lon="15.395431422610967"><ele>174.0</ele><time>2026-05-04T06:00:23.999Z</time></trkpt><trkpt lat="38.1531090104911" lon="15.395562792199977"><ele>180.0</ele><time>2026-05-04T06:00:24.999Z</time></trkpt><trkpt lat="38.1530797717772" lon="15.395691638235327"><ele>186.0</ele><time>2026-05-04T06:00:25.999Z</time></trkpt><trkpt lat="38.15302964164509" lon="15.395827361537576"><ele>186.0</ele><time>2026-05-04T06:00:26.999Z</time></trkpt><trkpt lat="38.15297169653269" lon="15.395953247306926"><ele>186.0</ele><time>2026-05-04T06:00:27.999Z</time></trkpt><trkpt lat="38.15292660492482" lon="15.3960731937953"><ele>186.0</ele><time>2026-05-04T06:00:28.999Z</time></trkpt><trkpt lat="38.1528689725348" lon="15.396173487738784"><ele>186.0</ele><time>2026-05-04T06:00:29.999Z</time></trkpt><trkpt lat="38.15282900715477" lon="15.396286340181202"><ele>186.0</ele><time>2026-05-04T06:00:30.999Z</time></trkpt><trkpt lat="38.15281321860142" lon="15.39639330904611"><ele>183.33333333333334</ele><time>2026-05-04T06:00:31.999Z</time></trkpt><trkpt lat="38.152799811253" lon="15.396501501790434"><ele>180.66666666666666</ele><time>2026-05-04T06:00:32.999Z</time></trkpt><trkpt lat="38.15275622749597" lon="15.396609905870505"><ele>178.0</ele><time>2026-05-04T06:00:33.999Z</time></trkpt><trkpt lat="38.15272277135499" lon="15.396708337266588"><ele>175.33333333333331</ele><time>2026-05-04T06:00:34.999Z</time></trkpt><trkpt lat="38.15270496851474" lon="15.396801021447914"><ele>172.66666666666666</ele><time>2026-05-04T06:00:35.999Z</time></trkpt><trkpt lat="38.15275583283272" lon="15.396851808265613"><ele>170.0</ele><time>2026-05-04T06:00:50.998Z</time></trkpt><trkpt lat="38.152778444224765" lon="15.396936164367572"><ele>170.0</ele><time>2026-05-04T06:00:52.998Z</time></trkpt><trkpt lat="38.152780711798734" lon="15.397034034495327"><ele>170.0</ele><time>2026-05-04T06:00:54.998Z</time></trkpt><trkpt lat="38.15271775662225" lon="15.397112448532006"><ele>170.0</ele><time>2026-05-04T06:00:56.998Z</time></trkpt><trkpt lat="38.15265666527317" lon="15.39720383139672"><ele>170.0</ele><time>2026-05-04T06:00:58.998Z</time></trkpt><trkpt lat="38.15260325682091" lon="15.397263714119445"><ele>170.0</ele><time>2026-05-04T06:01:00.998Z</time></trkpt><trkpt lat="38.152510375038474" lon="15.39723111212648"><ele>170.0</ele><time>2026-05-04T06:01:05Z</time></trkpt><trkpt lat="38.152452266347105" lon="15.397175302366524"><ele>172.8</ele><time>2026-05-04T06:01:07Z</time></trkpt><trkpt lat="38.15232922591082" lon="15.397151959060073"><ele>175.6</ele><time>2026-05-04T06:01:09Z</time></trkpt><trkpt lat="38.15224415906181" lon="15.397153253278299"><ele>178.39999999999998</ele><time>2026-05-04T06:01:10Z</time></trkpt><trkpt lat="38.15217665678243" lon="15.3971631806099"><ele>181.2</ele><time>2026-05-04T06:01:11Z</time></trkpt><trkpt lat="38.1521126276255" lon="15.397168730543724"><ele>184.0</ele><time>2026-05-04T06:01:12Z</time></trkpt><trkpt lat="38.15200059772595" lon="15.397161508613998"><ele>184.0</ele><time>2026-05-04T06:01:14Z</time></trkpt><trkpt lat="38.15193748826574" lon="15.397131950792295"><ele>184.0</ele><time>2026-05-04T06:01:16Z</time></trkpt><trkpt lat="38.15194054814782" lon="15.397262438048436"><ele>184.0</ele><time>2026-05-04T06:01:19Z</time></trkpt><trkpt lat="38.15193343410322" lon="15.397372381197439"><ele>184.0</ele><time>2026-05-04T06:01:21Z</time></trkpt><trkpt lat="38.151841481725306" lon="15.3974464391322"><ele>184.0</ele><time>2026-05-04T06:01:23Z</time></trkpt><trkpt lat="38.15176185537851" lon="15.397463059132122"><ele>184.0</ele><time>2026-05-04T06:01:24Z</time></trkpt><trkpt lat="38.15166620815925" lon="15.39748423202758"><ele>180.39999999999998</ele><time>2026-05-04T06:01:25Z</time></trkpt><trkpt lat="38.15155771997542" lon="15.397505275059475"><ele>176.8</ele><time>2026-05-04T06:01:26Z</time></trkpt><trkpt lat="38.1514424534035" lon="15.397542825776101"><ele>173.2</ele><time>2026-05-04T06:01:27Z</time></trkpt><trkpt lat="38.15137915526497" lon="15.397590830353618"><ele>169.60000000000002</ele><time>2026-05-04T06:01:28Z</time></trkpt><trkpt lat="38.15125936770699" lon="15.397685941714446"><ele>166.0</ele><time>2026-05-04T06:01:30Z</time></trkpt><trkpt lat="38.15117966935438" lon="15.397754896915993"><ele>166.0</ele><time>2026-05-04T06:01:31Z</time></trkpt><trkpt lat="38.1511266083944" lon="15.397825289360936"><ele>166.0</ele><time>2026-05-04T06:01:32Z</time></trkpt><trkpt lat="38.151060074378066" lon="15.39795926961137"><ele>166.0</ele><time>2026-05-04T06:01:34Z</time></trkpt><trkpt lat="38.15102611510682" lon="15.398038274390096"><ele>166.0</ele><time>2026-05-04T06:01:35Z</time></trkpt><trkpt lat="38.15097557204611" lon="15.398128531192476"><ele>166.0</ele><time>2026-05-04T06:01:36Z</time></trkpt><trkpt lat="38.150912060805524" lon="15.398240206996338"><ele>166.25</ele><time>2026-05-04T06:01:37Z</time></trkpt><trkpt lat="38.150839666589434" lon="15.398367057204753"><ele>166.5</ele><time>2026-05-04T06:01:38Z</time></trkpt><trkpt lat="38.150757836251564" lon="15.398487259082644"><ele>166.75</ele><time>2026-05-04T06:01:39Z</time></trkpt><trkpt lat="38.15067979735403" lon="15.398588348880713"><ele>167.0</ele><time>2026-05-04T06:01:40Z</time></trkpt><trkpt lat="38.15061087762763" lon="15.39869622724447"><ele>166.66666666666666</ele><time>2026-05-04T06:01:41Z</time></trkpt><trkpt lat="38.15056398646116" lon="15.398785462842852"><ele>166.33333333333331</ele><time>2026-05-04T06:01:42Z</time></trkpt><trkpt lat="38.15052274049712" lon="15.398854724656825"><ele>166.0</ele><time>2026-05-04T06:01:43Z</time></trkpt><trkpt lat="38.150445246185896" lon="15.398897659945257"><ele>165.66666666666666</ele><time>2026-05-04T06:01:45Z</time></trkpt><trkpt lat="38.15035463054202" lon="15.39885397273528"><ele>165.33333333333334</ele><time>2026-05-04T06:01:47Z</time></trkpt><trkpt lat="38.15026915422935" lon="15.398820286123694"><ele>165.0</ele><time>2026-05-04T06:01:49Z</time></trkpt><trkpt lat="38.150163274140674" lon="15.398871088350145"><ele>165.83333333333334</ele><time>2026-05-04T06:01:51Z</time></trkpt><trkpt lat="38.15012931067633" lon="15.39894376778477"><ele>166.66666666666666</ele><time>2026-05-04T06:01:52Z</time></trkpt><trkpt lat="38.15009671109911" lon="15.399018656106044"><ele>167.5</ele><time>2026-05-04T06:01:53Z</time></trkpt><trkpt lat="38.150068961630126" lon="15.39909818274291"><ele>168.33333333333331</ele><time>2026-05-04T06:01:54Z</time></trkpt><trkpt lat="38.15004947088651" lon="15.399175950400778"><ele>169.16666666666666</ele><time>2026-05-04T06:01:54.999Z</time></trkpt><trkpt lat="38.15000065231975" lon="15.399299244217374"><ele>170.0</ele><time>2026-05-04T06:01:56.999Z</time></trkpt><trkpt lat="38.149930847236675" lon="15.399369726912651"><ele>170.0</ele><time>2026-05-04T06:01:58.999Z</time></trkpt><trkpt lat="38.14996673589451" lon="15.399450782947397"><ele>170.0</ele><time>2026-05-04T06:02:01.999Z</time></trkpt><trkpt lat="38.15004830091494" lon="15.399478965636884"><ele>170.0</ele><time>2026-05-04T06:02:03.999Z</time></trkpt><trkpt lat="38.15006462237024" lon="15.399568290427254"><ele>170.0</ele><time>2026-05-04T06:02:07.999Z</time></trkpt><trkpt lat="38.15002090336937" lon="15.399637089518128"><ele>170.0</ele><time>2026-05-04T06:02:11.999Z</time></trkpt><trkpt lat="38.14995076759749" lon="15.399694968489863"><ele>170.0</ele><time>2026-05-04T06:02:14.999Z</time></trkpt><trkpt lat="38.1498946505143" lon="15.399766370633113"><ele>170.5</ele><time>2026-05-04T06:02:16.999Z</time></trkpt><trkpt lat="38.14981614913704" lon="15.399811105854646"><ele>171.0</ele><time>2026-05-04T06:02:18.999Z</time></trkpt><trkpt lat="38.149718127091575" lon="15.399843769886735"><ele>171.5</ele><time>2026-05-04T06:02:21.999Z</time></trkpt><trkpt lat="38.14965045844099" lon="15.39991370784121"><ele>172.0</ele><time>2026-05-04T06:02:24.999Z</time></trkpt><trkpt lat="38.14957698364702" lon="15.399977153857279"><ele>172.5</ele><time>2026-05-04T06:02:26.999Z</time></trkpt><trkpt lat="38.149492020802484" lon="15.399984707036323"><ele>173.0</ele><time>2026-05-04T06:02:28.999Z</time></trkpt><trkpt lat="38.14938745567573" lon="15.400006361280763"><ele>173.0</ele><time>2026-05-04T06:02:31.999Z</time></trkpt><trkpt lat="38.14930988484315" lon="15.40005194704148"><ele>173.0</ele><time>2026-05-04T06:02:33.999Z</time></trkpt><trkpt lat="38.149275638111504" lon="15.400164020275122"><ele>173.0</ele><time>2026-05-04T06:02:35.999Z</time></trkpt><trkpt lat="38.14920665737073" lon="15.400296086907069"><ele>173.0</ele><time>2026-05-04T06:02:37.999Z</time></trkpt><trkpt lat="38.14917058999535" lon="15.40039644592115"><ele>173.0</ele><time>2026-05-04T06:02:38.999Z</time></trkpt><trkpt lat="38.14910610829496" lon="15.400495894083456"><ele>174.0</ele><time>2026-05-04T06:02:39.999Z</time></trkpt><trkpt lat="38.14907015706931" lon="15.400596267991768"><ele>175.0</ele><time>2026-05-04T06:02:40.999Z</time></trkpt><trkpt lat="38.14902656019335" lon="15.400703689682738"><ele>176.0</ele><time>2026-05-04T06:02:41.999Z</time></trkpt><trkpt lat="38.148977168016614" lon="15.400817328320603"><ele>177.0</ele><time>2026-05-04T06:02:42.999Z</time></trkpt><trkpt lat="38.14893093897772" lon="15.400916794262582"><ele>178.0</ele><time>2026-05-04T06:02:43.999Z</time></trkpt><trkpt lat="38.14888517966428" lon="15.400994110665271"><ele>178.8</ele><time>2026-05-04T06:02:44.999Z</time></trkpt><trkpt lat="38.14883803680469" lon="15.401051605073498"><ele>179.60000000000002</ele><time>2026-05-04T06:02:45.999Z</time></trkpt><trkpt lat="38.148750915762186" lon="15.401123448085482"><ele>180.39999999999998</ele><time>2026-05-04T06:02:47.999Z</time></trkpt><trkpt lat="38.148802560738446" lon="15.401329760439417"><ele>181.2</ele><time>2026-05-04T06:02:50.999Z</time></trkpt><trkpt lat="38.148817460598636" lon="15.401413012402008"><ele>182.0</ele><time>2026-05-04T06:02:51.999Z</time></trkpt><trkpt lat="38.14883060578705" lon="15.401494568536442"><ele>182.0</ele><time>2026-05-04T06:02:52.999Z</time></trkpt><trkpt lat="38.14884724221168" lon="15.401583102056723"><ele>182.0</ele><time>2026-05-04T06:02:53.999Z</time></trkpt><trkpt lat="38.14882618716506" lon="15.401690173363702"><ele>182.0</ele><time>2026-05-04T06:02:55.998Z</time></trkpt><trkpt lat="38.1488764327111" lon="15.401806563352707"><ele>182.0</ele><time>2026-05-04T06:02:58.998Z</time></trkpt><trkpt lat="38.148950427468975" lon="15.401880154457709"><ele>182.0</ele><time>2026-05-04T06:03:00.998Z</time></trkpt><trkpt lat="38.14896699504664" lon="15.402089274967272"><ele>182.0</ele><time>2026-05-04T06:03:02.998Z</time></trkpt><trkpt lat="38.14898809731983" lon="15.402238517260475"><ele>182.0</ele><time>2026-05-04T06:03:03.998Z</time></trkpt><trkpt lat="38.149012718840844" lon="15.402394886931779"><ele>182.0</ele><time>2026-05-04T06:03:04.998Z</time></trkpt><trkpt lat="38.14903510382307" lon="15.40252282197873"><ele>182.0</ele><time>2026-05-04T06:03:05.998Z</time></trkpt><trkpt lat="38.14906349685221" lon="15.40270376715154"><ele>182.2</ele><time>2026-05-04T06:03:06.998Z</time></trkpt><trkpt lat="38.14907162455124" lon="15.402822497094705"><ele>182.39999999999998</ele><time>2026-05-04T06:03:07.998Z</time></trkpt><trkpt lat="38.14908680130943" lon="15.40297451491578"><ele>182.60000000000002</ele><time>2026-05-04T06:03:08.998Z</time></trkpt><trkpt lat="38.14913191839474" lon="15.403111712702794"><ele>182.8</ele><time>2026-05-04T06:03:10Z</time></trkpt><trkpt lat="38.1491551726131" lon="15.403232639264118"><ele>183.0</ele><time>2026-05-04T06:03:11Z</time></trkpt><trkpt lat="38.149163437152694" lon="15.403345170797213"><ele>183.16666666666666</ele><time>2026-05-04T06:03:12Z</time></trkpt><trkpt lat="38.1491682636234" lon="15.403425070438661"><ele>183.33333333333334</ele><time>2026-05-04T06:03:13Z</time></trkpt><trkpt lat="38.14914830585693" lon="15.403510248989457"><ele>183.5</ele><time>2026-05-04T06:03:14Z</time></trkpt><trkpt lat="38.1491192288644" lon="15.40360680388235"><ele>183.66666666666669</ele><time>2026-05-04T06:03:16Z</time></trkpt><trkpt lat="38.149167821800916" lon="15.403672260024914"><ele>183.83333333333334</ele><time>2026-05-04T06:03:18Z</time></trkpt><trkpt lat="38.14920953069155" lon="15.403795931295452"><ele>184.0</ele><time>2026-05-04T06:03:20Z</time></trkpt><trkpt lat="38.14925504992975" lon="15.40387585811223"><ele>183.5</ele><time>2026-05-04T06:03:22Z</time></trkpt><trkpt lat="38.14919345678907" lon="15.403986507901168"><ele>183.0</ele><time>2026-05-04T06:03:25Z</time></trkpt><trkpt lat="38.149145304127046" lon="15.404043974129268"><ele>182.5</ele><time>2026-05-04T06:03:26Z</time></trkpt><trkpt lat="38.149092491584845" lon="15.404110627360147"><ele>182.0</ele><time>2026-05-04T06:03:28Z</time></trkpt><trkpt lat="38.14903408646873" lon="15.40415804913038"><ele>181.5</ele><time>2026-05-04T06:03:30Z</time></trkpt><trkpt lat="38.14896408471636" lon="15.40424394199952"><ele>181.0</ele><time>2026-05-04T06:03:36Z</time></trkpt><trkpt lat="38.148909490353645" lon="15.404314454371013"><ele>184.33333333333334</ele><time>2026-05-04T06:03:39Z</time></trkpt><trkpt lat="38.14886961507157" lon="15.404456720047715"><ele>187.66666666666669</ele><time>2026-05-04T06:03:41Z</time></trkpt><trkpt lat="38.14882801993112" lon="15.404543795759997"><ele>191.0</ele><time>2026-05-04T06:03:43Z</time></trkpt><trkpt lat="38.14879372156727" lon="15.404641000698804"><ele>194.33333333333334</ele><time>2026-05-04T06:03:46Z</time></trkpt><trkpt lat="38.14876380689359" lon="15.404743479695332"><ele>197.66666666666666</ele><time>2026-05-04T06:03:49Z</time></trkpt><trkpt lat="38.148754307389076" lon="15.40482993174021"><ele>201.0</ele><time>2026-05-04T06:03:50Z</time></trkpt><trkpt lat="38.148744264837056" lon="15.404931177876493"><ele>201.33333333333334</ele><time>2026-05-04T06:03:51Z</time></trkpt><trkpt lat="38.148722329433156" lon="15.40505158776027"><ele>201.66666666666669</ele><time>2026-05-04T06:03:52Z</time></trkpt><trkpt lat="38.148710005021" lon="15.405157474132283"><ele>202.0</ele><time>2026-05-04T06:03:53Z</time></trkpt><trkpt lat="38.148685282895336" lon="15.405241913667837"><ele>202.33333333333334</ele><time>2026-05-04T06:03:54Z</time></trkpt><trkpt lat="38.14865282659417" lon="15.405362324458872"><ele>202.66666666666669</ele><time>2026-05-04T06:03:56Z</time></trkpt><trkpt lat="38.148627406665376" lon="15.405441612593012"><ele>203.0</ele><time>2026-05-04T06:03:57Z</time></trkpt><trkpt lat="38.14862692170433" lon="15.405530781416497"><ele>203.00000000000003</ele><time>2026-05-04T06:03:58Z</time></trkpt><trkpt lat="38.14863745904324" lon="15.405620265421039"><ele>203.0</ele><time>2026-05-04T06:03:59Z</time></trkpt><trkpt lat="38.14863082262181" lon="15.405724030899155"><ele>203.0</ele><time>2026-05-04T06:04:01Z</time></trkpt><trkpt lat="38.14863785774042" lon="15.405805825251836"><ele>203.0</ele><time>2026-05-04T06:04:02.999Z</time></trkpt><trkpt lat="38.14868786456784" lon="15.405966502525969"><ele>203.00000000000003</ele><time>2026-05-04T06:04:04.999Z</time></trkpt><trkpt lat="38.148708356526825" lon="15.406046628661224"><ele>203.0</ele><time>2026-05-04T06:04:05.999Z</time></trkpt><trkpt lat="38.148718778968636" lon="15.406133295448278"><ele>203.00000000000003</ele><time>2026-05-04T06:04:07.999Z</time></trkpt><trkpt lat="38.1487397304393" lon="15.406239144799954"><ele>203.0</ele><time>2026-05-04T06:04:09.999Z</time></trkpt><trkpt lat="38.148791313244935" lon="15.406338626208607"><ele>203.0</ele><time>2026-05-04T06:04:11.999Z</time></trkpt><trkpt lat="38.148843718595444" lon="15.406449421916786"><ele>203.0</ele><time>2026-05-04T06:04:13.999Z</time></trkpt><trkpt lat="38.14885283907781" lon="15.406539394268501"><ele>203.00000000000003</ele><time>2026-05-04T06:04:16.999Z</time></trkpt><trkpt lat="38.14889597423947" lon="15.406608895527725"><ele>203.0</ele><time>2026-05-04T06:04:28.999Z</time></trkpt><trkpt lat="38.148950215262026" lon="15.406659709734718"><ele>202.14285714285714</ele><time>2026-05-04T06:04:31.999Z</time></trkpt><trkpt lat="38.14894942570144" lon="15.406749342854084"><ele>201.28571428571428</ele><time>2026-05-04T06:04:33.999Z</time></trkpt><trkpt lat="38.14899157975667" lon="15.406837885234696"><ele>200.42857142857144</ele><time>2026-05-04T06:04:35.999Z</time></trkpt><trkpt lat="38.14903843481537" lon="15.406906318035682"><ele>199.57142857142856</ele><time>2026-05-04T06:04:37.999Z</time></trkpt><trkpt lat="38.14906134046318" lon="15.407003995390752"><ele>198.71428571428572</ele><time>2026-05-04T06:04:40.999Z</time></trkpt><trkpt lat="38.14908343593048" lon="15.40708646770401"><ele>197.85714285714286</ele><time>2026-05-04T06:04:42.999Z</time></trkpt><trkpt lat="38.14908947547563" lon="15.407170068890812"><ele>197.0</ele><time>2026-05-04T06:04:43.999Z</time></trkpt><trkpt lat="38.14914030990802" lon="15.407274063264712"><ele>196.66666666666669</ele><time>2026-05-04T06:04:45.999Z</time></trkpt><trkpt lat="38.149142810598924" lon="15.407406563032408"><ele>196.33333333333334</ele><time>2026-05-04T06:04:47.999Z</time></trkpt><trkpt lat="38.14916483982983" lon="15.407517499376835"><ele>196.0</ele><time>2026-05-04T06:04:49.999Z</time></trkpt><trkpt lat="38.14917604303646" lon="15.407607579398363"><ele>195.66666666666669</ele><time>2026-05-04T06:04:52.999Z</time></trkpt><trkpt lat="38.14914662290564" lon="15.40770861482234"><ele>195.33333333333334</ele><time>2026-05-04T06:04:55.999Z</time></trkpt><trkpt lat="38.14914853690171" lon="15.407815073132547"><ele>195.0</ele><time>2026-05-04T06:04:58.999Z</time></trkpt><trkpt lat="38.14914150191458" lon="15.407942234902185"><ele>195.6</ele><time>2026-05-04T06:05:00.999Z</time></trkpt><trkpt lat="38.14911372553547" lon="15.408053295875046"><ele>196.2</ele><time>2026-05-04T06:05:02.998Z</time></trkpt><trkpt lat="38.14907676067674" lon="15.408178459800242"><ele>196.8</ele><time>2026-05-04T06:05:04.998Z</time></trkpt><trkpt lat="38.149038995459826" lon="15.40828838939882"><ele>197.4</ele><time>2026-05-04T06:05:06.998Z</time></trkpt><trkpt lat="38.149003767995445" lon="15.408413770727076"><ele>198.0</ele><time>2026-05-04T06:05:08.998Z</time></trkpt><trkpt lat="38.14898663825656" lon="15.408493752915565"><ele>199.0</ele><time>2026-05-04T06:05:09.998Z</time></trkpt><trkpt lat="38.148940006516554" lon="15.408612162476324"><ele>200.0</ele><time>2026-05-04T06:05:11.998Z</time></trkpt><trkpt lat="38.14888103950427" lon="15.408665177424755"><ele>201.0</ele><time>2026-05-04T06:05:13.998Z</time></trkpt><trkpt lat="38.14880259071177" lon="15.408744632428197"><ele>202.0</ele><time>2026-05-04T06:05:16Z</time></trkpt><trkpt lat="38.14874645028093" lon="15.40879703532375"><ele>203.0</ele><time>2026-05-04T06:05:17Z</time></trkpt><trkpt lat="38.14863808946492" lon="15.40885491509905"><ele>203.00000000000003</ele><time>2026-05-04T06:05:19Z</time></trkpt><trkpt lat="38.148565724408535" lon="15.40894282709149"><ele>203.0</ele><time>2026-05-04T06:05:21Z</time></trkpt><trkpt lat="38.1484822999897" lon="15.409002400663793"><ele>203.0</ele><time>2026-05-04T06:05:23Z</time></trkpt><trkpt lat="38.14840993099077" lon="15.409004992984958"><ele>203.0</ele><time>2026-05-04T06:05:25Z</time></trkpt><trkpt lat="38.14834098733996" lon="15.409006632520866"><ele>203.00000000000003</ele><time>2026-05-04T06:05:27Z</time></trkpt><trkpt lat="38.148261151248576" lon="15.409055008615963"><ele>203.0</ele><time>2026-05-04T06:05:29Z</time></trkpt><trkpt lat="38.14817204020222" lon="15.409060950685841"><ele>204.16666666666669</ele><time>2026-05-04T06:05:31Z</time></trkpt><trkpt lat="38.14810062961165" lon="15.409145357011791"><ele>205.33333333333334</ele><time>2026-05-04T06:05:34Z</time></trkpt><trkpt lat="38.1480446542593" lon="15.409202713613874"><ele>206.5</ele><time>2026-05-04T06:05:36Z</time></trkpt><trkpt lat="38.147974642616234" lon="15.409252134674942"><ele>207.66666666666669</ele><time>2026-05-04T06:05:38Z</time></trkpt><trkpt lat="38.147915153206526" lon="15.40928828432021"><ele>208.83333333333334</ele><time>2026-05-04T06:05:39Z</time></trkpt><trkpt lat="38.14783951538706" lon="15.409340651776795"><ele>210.0</ele><time>2026-05-04T06:05:40Z</time></trkpt><trkpt lat="38.14777176807135" lon="15.409374653547676"><ele>210.0</ele><time>2026-05-04T06:05:41Z</time></trkpt><trkpt lat="38.147690610331644" lon="15.409391851261786"><ele>210.0</ele><time>2026-05-04T06:05:42Z</time></trkpt><trkpt lat="38.147582622673596" lon="15.409431044673319"><ele>210.0</ele><time>2026-05-04T06:05:44Z</time></trkpt><trkpt lat="38.14747967436537" lon="15.409513354158108"><ele>210.0</ele><time>2026-05-04T06:05:46Z</time></trkpt><trkpt lat="38.147434383266756" lon="15.40958286485043"><ele>210.0</ele><time>2026-05-04T06:05:47Z</time></trkpt><trkpt lat="38.14737790039714" lon="15.409640397497093"><ele>213.5</ele><time>2026-05-04T06:05:48Z</time></trkpt><trkpt lat="38.14734934532248" lon="15.40971183464735"><ele>217.0</ele><time>2026-05-04T06:05:49Z</time></trkpt><trkpt lat="38.14734328390473" lon="15.409870568012744"><ele>220.5</ele><time>2026-05-04T06:05:51Z</time></trkpt><trkpt lat="38.14733155818781" lon="15.40995575275565"><ele>224.0</ele><time>2026-05-04T06:05:52Z</time></trkpt><trkpt lat="38.14728741145686" lon="15.410041254470924"><ele>227.5</ele><time>2026-05-04T06:05:53Z</time></trkpt><trkpt lat="38.14725463978782" lon="15.41011880403315"><ele>231.0</ele><time>2026-05-04T06:05:54Z</time></trkpt><trkpt lat="38.147200049531655" lon="15.41022574233476"><ele>231.0</ele><time>2026-05-04T06:05:56Z</time></trkpt><trkpt lat="38.14716294441834" lon="15.410368736759676"><ele>231.0</ele><time>2026-05-04T06:05:58Z</time></trkpt><trkpt lat="38.14716235552867" lon="15.410490996237913"><ele>231.0</ele><time>2026-05-04T06:06:00Z</time></trkpt><trkpt lat="38.14727181513087" lon="15.410611963120484"><ele>231.0</ele><time>2026-05-04T06:06:02Z</time></trkpt><trkpt lat="38.1473578685992" lon="15.410680548336533"><ele>227.5</ele><time>2026-05-04T06:06:04Z</time></trkpt><trkpt lat="38.1474014485828" lon="15.410747795363749"><ele>224.0</ele><time>2026-05-04T06:06:07Z</time></trkpt><trkpt lat="38.14742609760362" lon="15.410863329737895"><ele>220.5</ele><time>2026-05-04T06:06:09.999Z</time></trkpt><trkpt lat="38.14745048848972" lon="15.410967689695722"><ele>217.0</ele><time>2026-05-04T06:06:11.999Z</time></trkpt><trkpt lat="38.147479842780434" lon="15.411044065981187"><ele>213.5</ele><time>2026-05-04T06:06:13.999Z</time></trkpt><trkpt lat="38.14754144886629" lon="15.41111176470856"><ele>210.0</ele><time>2026-05-04T06:06:15.999Z</time></trkpt><trkpt lat="38.14754027876854" lon="15.41120689992938"><ele>210.0</ele><time>2026-05-04T06:06:17.999Z</time></trkpt><trkpt lat="38.14752190837948" lon="15.41129427320481"><ele>210.0</ele><time>2026-05-04T06:06:18.999Z</time></trkpt><trkpt lat="38.147501572639094" lon="15.411439954137915"><ele>210.0</ele><time>2026-05-04T06:06:20.999Z</time></trkpt><trkpt lat="38.14742649123246" lon="15.411585691589456"><ele>210.0</ele><time>2026-05-04T06:06:22.999Z</time></trkpt><trkpt lat="38.147390624305224" lon="15.411658522091352"><ele>210.0</ele><time>2026-05-04T06:06:23.999Z</time></trkpt><trkpt lat="38.147353686043594" lon="15.411723672677228"><ele>211.0</ele><time>2026-05-04T06:06:24.999Z</time></trkpt><trkpt lat="38.147311298804" lon="15.411816250097502"><ele>212.0</ele><time>2026-05-04T06:06:26.999Z</time></trkpt><trkpt lat="38.14731431711345" lon="15.411915161375903"><ele>213.0</ele><time>2026-05-04T06:06:29.999Z</time></trkpt><trkpt lat="38.14725225744647" lon="15.412030093918665"><ele>214.0</ele><time>2026-05-04T06:06:31.999Z</time></trkpt><trkpt lat="38.14718460594689" lon="15.412108068652088"><ele>215.0</ele><time>2026-05-04T06:06:33.999Z</time></trkpt><trkpt lat="38.14711470497157" lon="15.412153185684556"><ele>216.0</ele><time>2026-05-04T06:06:35.999Z</time></trkpt><trkpt lat="38.14708424538707" lon="15.412229489389835"><ele>216.0</ele><time>2026-05-04T06:06:37.999Z</time></trkpt><trkpt lat="38.1470236354303" lon="15.41228156066664"><ele>216.0</ele><time>2026-05-04T06:06:41.999Z</time></trkpt><trkpt lat="38.146955197375355" lon="15.412269462523343"><ele>216.0</ele><time>2026-05-04T06:06:43.999Z</time></trkpt><trkpt lat="38.14688599224712" lon="15.412263852881933"><ele>216.0</ele><time>2026-05-04T06:06:46.999Z</time></trkpt><trkpt lat="38.14679599565201" lon="15.412270867089887"><ele>216.0</ele><time>2026-05-04T06:06:49.999Z</time></trkpt><trkpt lat="38.14672102321699" lon="15.412296932587912"><ele>216.0</ele><time>2026-05-04T06:06:51.999Z</time></trkpt><trkpt lat="38.146653195981074" lon="15.412331101517486"><ele>216.0</ele><time>2026-05-04T06:06:53.999Z</time></trkpt><trkpt lat="38.14657165394209" lon="15.41235157229634"><ele>216.0</ele><time>2026-05-04T06:06:55.999Z</time></trkpt><trkpt lat="38.146497387302794" lon="15.41237741922196"><ele>216.0</ele><time>2026-05-04T06:06:58.999Z</time></trkpt><trkpt lat="38.14644621703052" lon="15.412429662210169"><ele>216.0</ele><time>2026-05-04T06:07:00.999Z</time></trkpt><trkpt lat="38.14636072902357" lon="15.412501144011546"><ele>216.0</ele><time>2026-05-04T06:07:03.999Z</time></trkpt><trkpt lat="38.14631458221604" lon="15.4125960484787"><ele>216.0</ele><time>2026-05-04T06:07:06.999Z</time></trkpt><trkpt lat="38.146240258171616" lon="15.412650059146701"><ele>216.83333333333334</ele><time>2026-05-04T06:07:08.999Z</time></trkpt><trkpt lat="38.14619770805119" lon="15.412738925103607"><ele>217.66666666666669</ele><time>2026-05-04T06:07:10.999Z</time></trkpt><trkpt lat="38.14612599247165" lon="15.412797482380864"><ele>218.5</ele><time>2026-05-04T06:07:12.998Z</time></trkpt><trkpt lat="38.14606200105766" lon="15.41286046419451"><ele>219.33333333333334</ele><time>2026-05-04T06:07:14.998Z</time></trkpt><trkpt lat="38.14602304111861" lon="15.412973256440376"><ele>220.16666666666669</ele><time>2026-05-04T06:07:16.998Z</time></trkpt><trkpt lat="38.14595584237342" lon="15.41301736806562"><ele>221.0</ele><time>2026-05-04T06:07:22Z</time></trkpt><trkpt lat="38.14588263456596" lon="15.413079464645085"><ele>221.00000000000003</ele><time>2026-05-04T06:07:28Z</time></trkpt><trkpt lat="38.14582878884291" lon="15.413121947513472"><ele>221.0</ele><time>2026-05-04T06:07:30Z</time></trkpt><trkpt lat="38.145751313323245" lon="15.41318767506933"><ele>221.0</ele><time>2026-05-04T06:07:32Z</time></trkpt><trkpt lat="38.145688430492875" lon="15.4132555887057"><ele>221.0</ele><time>2026-05-04T06:07:34Z</time></trkpt><trkpt lat="38.14564979209753" lon="15.413333212123815"><ele>221.00000000000003</ele><time>2026-05-04T06:07:36Z</time></trkpt><trkpt lat="38.14556538693092" lon="15.413432260731918"><ele>221.0</ele><time>2026-05-04T06:07:38Z</time></trkpt><trkpt lat="38.14550884125734" lon="15.413524477555873"><ele>221.33333333333334</ele><time>2026-05-04T06:07:40Z</time></trkpt><trkpt lat="38.14548064446269" lon="15.413605896897062"><ele>221.66666666666669</ele><time>2026-05-04T06:07:42Z</time></trkpt><trkpt lat="38.14538702212951" lon="15.413620856289446"><ele>222.0</ele><time>2026-05-04T06:07:44Z</time></trkpt><trkpt lat="38.145322818280896" lon="15.413677512836959"><ele>222.33333333333331</ele><time>2026-05-04T06:07:46Z</time></trkpt><trkpt lat="38.14527733428719" lon="15.413762552505137"><ele>222.66666666666666</ele><time>2026-05-04T06:07:48Z</time></trkpt><trkpt lat="38.14523701874197" lon="15.413841357367197"><ele>223.0</ele><time>2026-05-04T06:07:50Z</time></trkpt><trkpt lat="38.14515369856409" lon="15.413882345615772"><ele>222.99999999999997</ele><time>2026-05-04T06:07:53Z</time></trkpt><trkpt lat="38.14509345326132" lon="15.413925952706279"><ele>223.0</ele><time>2026-05-04T06:07:57Z</time></trkpt><trkpt lat="38.145082710188774" lon="15.414011588781554"><ele>223.0</ele><time>2026-05-04T06:08:01Z</time></trkpt><trkpt lat="38.145012264156925" lon="15.414115537986754"><ele>223.0</ele><time>2026-05-04T06:08:04Z</time></trkpt><trkpt lat="38.144960154795804" lon="15.414215392660362"><ele>222.99999999999997</ele><time>2026-05-04T06:08:06Z</time></trkpt><trkpt lat="38.14488600093326" lon="15.414257091296857"><ele>223.0</ele><time>2026-05-04T06:08:09Z</time></trkpt><trkpt lat="38.144819692145326" lon="15.41428258674176"><ele>223.66666666666666</ele><time>2026-05-04T06:08:11Z</time></trkpt><trkpt lat="38.14474469093383" lon="15.414354793108162"><ele>224.33333333333331</ele><time>2026-05-04T06:08:13Z</time></trkpt><trkpt lat="38.14471318100636" lon="15.414424392400782"><ele>225.0</ele><time>2026-05-04T06:08:14.999Z</time></trkpt><trkpt lat="38.144699232214606" lon="15.414502771006573"><ele>225.66666666666669</ele><time>2026-05-04T06:08:16.999Z</time></trkpt><trkpt lat="38.14464691338285" lon="15.41456832649012"><ele>226.33333333333334</ele><time>2026-05-04T06:08:18.999Z</time></trkpt><trkpt lat="38.144621168474714" lon="15.41466640489609"><ele>227.0</ele><time>2026-05-04T06:08:20.999Z</time></trkpt><trkpt lat="38.14455164489157" lon="15.4147886055455"><ele>227.0</ele><time>2026-05-04T06:08:22.999Z</time></trkpt><trkpt lat="38.144455244567226" lon="15.414852891716196"><ele>227.0</ele><time>2026-05-04T06:08:24.999Z</time></trkpt><trkpt lat="38.1443556915834" lon="15.414899902944024"><ele>227.0</ele><time>2026-05-04T06:08:26.999Z</time></trkpt><trkpt lat="38.14431092891287" lon="15.414970114236663"><ele>227.0</ele><time>2026-05-04T06:08:29.999Z</time></trkpt><trkpt lat="38.14435710389269" lon="15.415047421867682"><ele>227.0</ele><time>2026-05-04T06:09:20.998Z</time></trkpt><trkpt lat="38.14445780903348" lon="15.415031223968612"><ele>227.00000000000003</ele><time>2026-05-04T06:09:23.998Z</time></trkpt><trkpt lat="38.144548100398524" lon="15.414986505259158"><ele>227.0</ele><time>2026-05-04T06:09:25.998Z</time></trkpt><trkpt lat="38.14461819383494" lon="15.414964849960711"><ele>227.0</ele><time>2026-05-04T06:09:27Z</time></trkpt><trkpt lat="38.14468712872935" lon="15.414955934786196"><ele>227.0</ele><time>2026-05-04T06:09:28Z</time></trkpt><trkpt lat="38.144764342101254" lon="15.414976120134025"><ele>227.00000000000003</ele><time>2026-05-04T06:09:30Z</time></trkpt><trkpt lat="38.14482317853445" lon="15.415053215702166"><ele>227.0</ele><time>2026-05-04T06:09:33Z</time></trkpt><trkpt lat="38.144887647522985" lon="15.415082565495675"><ele>228.83333333333334</ele><time>2026-05-04T06:09:36Z</time></trkpt><trkpt lat="38.144959288188495" lon="15.415042313823182"><ele>230.66666666666669</ele><time>2026-05-04T06:09:38Z</time></trkpt><trkpt lat="38.145005873154126" lon="15.41494707613715"><ele>232.5</ele><time>2026-05-04T06:09:40Z</time></trkpt><trkpt lat="38.145024677080265" lon="15.414835386058174"><ele>234.33333333333331</ele><time>2026-05-04T06:09:42Z</time></trkpt><trkpt lat="38.14507949330649" lon="15.414749909228785"><ele>236.16666666666666</ele><time>2026-05-04T06:09:44Z</time></trkpt><trkpt lat="38.14518003002062" lon="15.414711512473595"><ele>238.0</ele><time>2026-05-04T06:09:46Z</time></trkpt><trkpt lat="38.14529677239146" lon="15.414665046811509"><ele>235.0</ele><time>2026-05-04T06:09:48Z</time></trkpt><trkpt lat="38.14537797585724" lon="15.414574897754775"><ele>232.0</ele><time>2026-05-04T06:09:50Z</time></trkpt><trkpt lat="38.14544511853905" lon="15.414532997191605"><ele>229.0</ele><time>2026-05-04T06:09:52Z</time></trkpt><trkpt lat="38.14553808242035" lon="15.414573703508776"><ele>226.0</ele><time>2026-05-04T06:09:54Z</time></trkpt><trkpt lat="38.14561976025886" lon="15.414524232352607"><ele>223.0</ele><time>2026-05-04T06:09:56Z</time></trkpt><trkpt lat="38.14569900706072" lon="15.414435877347946"><ele>227.8</ele><time>2026-05-04T06:09:58Z</time></trkpt><trkpt lat="38.1457524996417" lon="15.414335923759491"><ele>232.60000000000002</ele><time>2026-05-04T06:10:00Z</time></trkpt><trkpt lat="38.145802366339296" lon="15.414267386853645"><ele>237.39999999999998</ele><time>2026-05-04T06:10:02Z</time></trkpt><trkpt lat="38.145898541210556" lon="15.41418019893445"><ele>242.2</ele><time>2026-05-04T06:10:04Z</time></trkpt><trkpt lat="38.14594490692624" lon="15.414125160566275"><ele>247.0</ele><time>2026-05-04T06:10:05Z</time></trkpt><trkpt lat="38.14604021783579" lon="15.41408156312844"><ele>247.0</ele><time>2026-05-04T06:10:07Z</time></trkpt><trkpt lat="38.1461262934691" lon="15.41405861448349"><ele>247.0</ele><time>2026-05-04T06:10:09Z</time></trkpt><trkpt lat="38.14622495082837" lon="15.414001377403554"><ele>247.0</ele><time>2026-05-04T06:10:11Z</time></trkpt><trkpt lat="38.14627429033161" lon="15.41394712844908"><ele>247.0</ele><time>2026-05-04T06:10:12Z</time></trkpt><trkpt lat="38.146381352600244" lon="15.413916639652847"><ele>247.0</ele><time>2026-05-04T06:10:14Z</time></trkpt><trkpt lat="38.14646347345059" lon="15.41388255673064"><ele>246.99999999999997</ele><time>2026-05-04T06:10:16Z</time></trkpt><trkpt lat="38.146535709530134" lon="15.413863966971986"><ele>247.0</ele><time>2026-05-04T06:10:46.999Z</time></trkpt><trkpt lat="38.146610933611804" lon="15.413805314286178"><ele>247.0</ele><time>2026-05-04T06:10:49.999Z</time></trkpt><trkpt lat="38.14669493324726" lon="15.413746100541417"><ele>247.0</ele><time>2026-05-04T06:10:51.999Z</time></trkpt><trkpt lat="38.14677059710792" lon="15.413721128186653"><ele>246.99999999999997</ele><time>2026-05-04T06:10:53.999Z</time></trkpt><trkpt lat="38.14685147524649" lon="15.41373143661307"><ele>247.0</ele><time>2026-05-04T06:11:07.999Z</time></trkpt><trkpt lat="38.1469419792336" lon="15.41375705882874"><ele>246.33333333333331</ele><time>2026-05-04T06:11:09.999Z</time></trkpt><trkpt lat="38.147016588404334" lon="15.413815878213427"><ele>245.66666666666666</ele><time>2026-05-04T06:11:11.999Z</time></trkpt><trkpt lat="38.14708111463494" lon="15.413849129069739"><ele>245.0</ele><time>2026-05-04T06:11:13.999Z</time></trkpt><trkpt lat="38.147019081583366" lon="15.41394332205045"><ele>244.33333333333331</ele><time>2026-05-04T06:11:16.999Z</time></trkpt><trkpt lat="38.14691015896596" lon="15.413915721788122"><ele>243.66666666666666</ele><time>2026-05-04T06:11:18.999Z</time></trkpt><trkpt lat="38.14683971543811" lon="15.413913809454122"><ele>243.0</ele><time>2026-05-04T06:11:20.999Z</time></trkpt><trkpt lat="38.14676379957238" lon="15.413987258885173"><ele>250.8</ele><time>2026-05-04T06:11:22.999Z</time></trkpt><trkpt lat="38.14684987276348" lon="15.414065605807668"><ele>258.6</ele><time>2026-05-04T06:11:25.999Z</time></trkpt><trkpt lat="38.14694877224589" lon="15.414023748035062"><ele>266.4</ele><time>2026-05-04T06:11:27.998Z</time></trkpt><trkpt lat="38.14703434972002" lon="15.41406964432769"><ele>274.2</ele><time>2026-05-04T06:11:29.998Z</time></trkpt><trkpt lat="38.14711055104377" lon="15.414136677443343"><ele>282.0</ele><time>2026-05-04T06:11:31.998Z</time></trkpt><trkpt lat="38.147202765776015" lon="15.414161333930613"><ele>282.0</ele><time>2026-05-04T06:11:34Z</time></trkpt><trkpt lat="38.1472618528852" lon="15.414235643722858"><ele>282.0</ele><time>2026-05-04T06:11:36Z</time></trkpt><trkpt lat="38.14720888346133" lon="15.414304102265676"><ele>282.0</ele><time>2026-05-04T06:11:40Z</time></trkpt><trkpt lat="38.147102019095705" lon="15.41425743019424"><ele>282.0</ele><time>2026-05-04T06:11:42Z</time></trkpt><trkpt lat="38.1470219080481" lon="15.414231750210385"><ele>282.0</ele><time>2026-05-04T06:11:44Z</time></trkpt><trkpt lat="38.14692669473445" lon="15.414232375593858"><ele>282.0</ele><time>2026-05-04T06:11:45Z</time></trkpt><trkpt lat="38.14683541955444" lon="15.41427012377379"><ele>282.0</ele><time>2026-05-04T06:11:46Z</time></trkpt><trkpt lat="38.1467637679949" lon="15.414318576976447"><ele>282.0</ele><time>2026-05-04T06:11:47Z</time></trkpt><trkpt lat="38.146702676062255" lon="15.414413497767463"><ele>282.0</ele><time>2026-05-04T06:11:49Z</time></trkpt><trkpt lat="38.14663052885915" lon="15.414588445259445"><ele>282.0</ele><time>2026-05-04T06:11:52Z</time></trkpt><trkpt lat="38.14660604347808" lon="15.41467815406071"><ele>282.0</ele><time>2026-05-04T06:11:53Z</time></trkpt><trkpt lat="38.146563949252865" lon="15.414761545780157"><ele>281.0</ele><time>2026-05-04T06:11:54Z</time></trkpt><trkpt lat="38.14652101218004" lon="15.414835187861094"><ele>280.0</ele><time>2026-05-04T06:11:55Z</time></trkpt><trkpt lat="38.146471810570915" lon="15.41491616648897"><ele>279.0</ele><time>2026-05-04T06:11:56Z</time></trkpt><trkpt lat="38.14641641645365" lon="15.415006740775645"><ele>278.0</ele><time>2026-05-04T06:11:57Z</time></trkpt><trkpt lat="38.14636640540668" lon="15.415085633987456"><ele>277.0</ele><time>2026-05-04T06:11:58Z</time></trkpt><trkpt lat="38.146320753506345" lon="15.41515640374025"><ele>276.0</ele><time>2026-05-04T06:11:59Z</time></trkpt><trkpt lat="38.14626967806495" lon="15.415231113602802"><ele>276.0</ele><time>2026-05-04T06:12:00Z</time></trkpt><trkpt lat="38.14623883164741" lon="15.415303398470295"><ele>276.0</ele><time>2026-05-04T06:12:01Z</time></trkpt><trkpt lat="38.14622607081449" lon="15.415450283065242"><ele>276.0</ele><time>2026-05-04T06:12:03Z</time></trkpt><trkpt lat="38.14624181659463" lon="15.41553154330677"><ele>276.0</ele><time>2026-05-04T06:12:04Z</time></trkpt><trkpt lat="38.146242166878004" lon="15.415612193839543"><ele>276.0</ele><time>2026-05-04T06:12:05Z</time></trkpt><trkpt lat="38.146191115489486" lon="15.415731878228655"><ele>276.0</ele><time>2026-05-04T06:12:07Z</time></trkpt><trkpt lat="38.14625211813212" lon="15.415784705856275"><ele>276.0</ele><time>2026-05-04T06:12:11Z</time></trkpt><trkpt lat="38.14630473754358" lon="15.415688677881846"><ele>276.0</ele><time>2026-05-04T06:12:13Z</time></trkpt><trkpt lat="38.14642656745453" lon="15.41557170518541"><ele>276.0</ele><time>2026-05-04T06:12:15Z</time></trkpt><trkpt lat="38.14649801339771" lon="15.41548202783552"><ele>276.0</ele><time>2026-05-04T06:12:16Z</time></trkpt><trkpt lat="38.14656384346948" lon="15.415376340584263"><ele>283.3333333333333</ele><time>2026-05-04T06:12:17Z</time></trkpt><trkpt lat="38.14662753885634" lon="15.415284299734655"><ele>290.6666666666667</ele><time>2026-05-04T06:12:18Z</time></trkpt><trkpt lat="38.146698752572014" lon="15.415221876918647"><ele>298.0</ele><time>2026-05-04T06:12:19Z</time></trkpt><trkpt lat="38.146762595050426" lon="15.415174934225305"><ele>305.33333333333337</ele><time>2026-05-04T06:12:20Z</time></trkpt><trkpt lat="38.14686466216201" lon="15.41514756999173"><ele>312.6666666666667</ele><time>2026-05-04T06:12:22Z</time></trkpt><trkpt lat="38.14691662237858" lon="15.415100282998507"><ele>320.0</ele><time>2026-05-04T06:12:23Z</time></trkpt><trkpt lat="38.146992294637734" lon="15.415101607164424"><ele>320.0</ele><time>2026-05-04T06:12:25Z</time></trkpt><trkpt lat="38.147043147064004" lon="15.415289665778895"><ele>320.0</ele><time>2026-05-04T06:12:28Z</time></trkpt><trkpt lat="38.14709541449968" lon="15.415402923913033"><ele>320.0</ele><time>2026-05-04T06:12:29Z</time></trkpt><trkpt lat="38.14714922097316" lon="15.41549240051903"><ele>320.0</ele><time>2026-05-04T06:12:30Z</time></trkpt><trkpt lat="38.14717634214099" lon="15.415592684566128"><ele>320.0</ele><time>2026-05-04T06:12:31Z</time></trkpt><trkpt lat="38.147221417215434" lon="15.4156952594829"><ele>323.57142857142856</ele><time>2026-05-04T06:12:32Z</time></trkpt><trkpt lat="38.147276873095045" lon="15.415770703429699"><ele>327.14285714285717</ele><time>2026-05-04T06:12:32.999Z</time></trkpt><trkpt lat="38.14734165858244" lon="15.415811237923675"><ele>330.7142857142857</ele><time>2026-05-04T06:12:33.999Z</time></trkpt><trkpt lat="38.14740480657368" lon="15.415805343606383"><ele>334.2857142857143</ele><time>2026-05-04T06:12:34.999Z</time></trkpt><trkpt lat="38.14747283442549" lon="15.41578964727602"><ele>337.85714285714283</ele><time>2026-05-04T06:12:35.999Z</time></trkpt><trkpt lat="38.147524691570595" lon="15.415721906101759"><ele>341.42857142857144</ele><time>2026-05-04T06:12:36.999Z</time></trkpt><trkpt lat="38.14752791053454" lon="15.415612909887255"><ele>345.0</ele><time>2026-05-04T06:12:37.999Z</time></trkpt><trkpt lat="38.147616635625305" lon="15.415510274235217"><ele>343.3333333333333</ele><time>2026-05-04T06:12:39.999Z</time></trkpt><trkpt lat="38.14767488257842" lon="15.415419813463961"><ele>341.6666666666667</ele><time>2026-05-04T06:12:40.999Z</time></trkpt><trkpt lat="38.147724873469805" lon="15.415344916841336"><ele>340.0</ele><time>2026-05-04T06:12:41.999Z</time></trkpt><trkpt lat="38.14777792361993" lon="15.415272484139464"><ele>338.33333333333337</ele><time>2026-05-04T06:12:42.999Z</time></trkpt><trkpt lat="38.14783381589225" lon="15.415196248093626"><ele>336.6666666666667</ele><time>2026-05-04T06:12:44.999Z</time></trkpt><trkpt lat="38.147906831263576" lon="15.415275351966782"><ele>335.0</ele><time>2026-05-04T06:12:46.999Z</time></trkpt><trkpt lat="38.14795041708392" lon="15.415412240880107"><ele>335.0</ele><time>2026-05-04T06:12:48.999Z</time></trkpt><trkpt lat="38.14799210401272" lon="15.415476049190982"><ele>335.0</ele><time>2026-05-04T06:12:49.999Z</time></trkpt><trkpt lat="38.148046969911164" lon="15.415578430374296"><ele>335.0</ele><time>2026-05-04T06:12:51.999Z</time></trkpt><trkpt lat="38.148132573381766" lon="15.415559982860648"><ele>335.0</ele><time>2026-05-04T06:12:52.999Z</time></trkpt><trkpt lat="38.14819436074937" lon="15.415583481574673"><ele>335.0</ele><time>2026-05-04T06:12:53.999Z</time></trkpt><trkpt lat="38.14825944432375" lon="15.41563831518025"><ele>335.0</ele><time>2026-05-04T06:12:55.999Z</time></trkpt><trkpt lat="38.14828757633701" lon="15.41581117079145"><ele>341.4</ele><time>2026-05-04T06:12:57.999Z</time></trkpt><trkpt lat="38.148289363214204" lon="15.415945547250985"><ele>347.8</ele><time>2026-05-04T06:12:59.999Z</time></trkpt><trkpt lat="38.148292278897756" lon="15.416091131101238"><ele>354.20000000000005</ele><time>2026-05-04T06:13:01.999Z</time></trkpt><trkpt lat="38.14829648899975" lon="15.416220334466393"><ele>360.6</ele><time>2026-05-04T06:13:03.999Z</time></trkpt><trkpt lat="38.148306410909605" lon="15.416311582563832"><ele>367.0</ele><time>2026-05-04T06:13:05.999Z</time></trkpt><trkpt lat="38.1483487985144" lon="15.416372137919755"><ele>367.0</ele><time>2026-05-04T06:13:06.999Z</time></trkpt><trkpt lat="38.14841549599259" lon="15.416421482557668"><ele>367.0</ele><time>2026-05-04T06:13:07.999Z</time></trkpt><trkpt lat="38.14853411932755" lon="15.4164393301692"><ele>367.0</ele><time>2026-05-04T06:13:09.999Z</time></trkpt><trkpt lat="38.14863903461479" lon="15.416404943456715"><ele>367.0</ele><time>2026-05-04T06:13:11.999Z</time></trkpt><trkpt lat="38.148701324388554" lon="15.416364432359986"><ele>367.0</ele><time>2026-05-04T06:13:12.999Z</time></trkpt><trkpt lat="38.14875432052585" lon="15.416312595438065"><ele>367.0</ele><time>2026-05-04T06:13:13.999Z</time></trkpt><trkpt lat="38.148798503040155" lon="15.416250787456175"><ele>367.0</ele><time>2026-05-04T06:13:14.999Z</time></trkpt><trkpt lat="38.14882752604957" lon="15.416172303299437"><ele>367.0</ele><time>2026-05-04T06:13:15.999Z</time></trkpt><trkpt lat="38.14887542809677" lon="15.416094054781581"><ele>367.0</ele><time>2026-05-04T06:13:16.999Z</time></trkpt><trkpt lat="38.14894215874686" lon="15.415912702468757"><ele>367.0</ele><time>2026-05-04T06:13:18.999Z</time></trkpt><trkpt lat="38.14901333988355" lon="15.41582610937994"><ele>367.0</ele><time>2026-05-04T06:13:19.999Z</time></trkpt><trkpt lat="38.14907588166233" lon="15.415760460801577"><ele>368.0</ele><time>2026-05-04T06:13:20.999Z</time></trkpt><trkpt lat="38.14913117699449" lon="15.415709725054612"><ele>369.0</ele><time>2026-05-04T06:13:21.999Z</time></trkpt><trkpt lat="38.14920002177245" lon="15.415642556646587"><ele>370.0</ele><time>2026-05-04T06:13:22.999Z</time></trkpt><trkpt lat="38.14926980222593" lon="15.415575992333515"><ele>371.0</ele><time>2026-05-04T06:13:23.999Z</time></trkpt><trkpt lat="38.14932936825733" lon="15.415478325487758"><ele>372.0</ele><time>2026-05-04T06:13:24.999Z</time></trkpt><trkpt lat="38.149381034491086" lon="15.415390407910463"><ele>373.0</ele><time>2026-05-04T06:13:25.999Z</time></trkpt><trkpt lat="38.14942604030081" lon="15.415334387357886"><ele>373.0</ele><time>2026-05-04T06:13:26.999Z</time></trkpt><trkpt lat="38.14950827971777" lon="15.415369256048571"><ele>373.0</ele><time>2026-05-04T06:13:29.999Z</time></trkpt><trkpt lat="38.1495679460254" lon="15.415410978275823"><ele>373.0</ele><time>2026-05-04T06:13:30.999Z</time></trkpt><trkpt lat="38.149660858791165" lon="15.415455796106803"><ele>373.0</ele><time>2026-05-04T06:13:31.999Z</time></trkpt><trkpt lat="38.14974837246444" lon="15.415523661554442"><ele>373.0</ele><time>2026-05-04T06:13:32.999Z</time></trkpt><trkpt lat="38.149813131579954" lon="15.415578108695517"><ele>373.0</ele><time>2026-05-04T06:13:33.999Z</time></trkpt><trkpt lat="38.149865455233666" lon="15.41571358479434"><ele>374.16666666666663</ele><time>2026-05-04T06:13:35.999Z</time></trkpt><trkpt lat="38.1498502794751" lon="15.415825468130851"><ele>375.3333333333333</ele><time>2026-05-04T06:13:37.998Z</time></trkpt><trkpt lat="38.14981515871884" lon="15.415892175628768"><ele>376.5</ele><time>2026-05-04T06:13:39Z</time></trkpt><trkpt lat="38.149775555876545" lon="15.415983241645007"><ele>377.6666666666667</ele><time>2026-05-04T06:13:40Z</time></trkpt><trkpt lat="38.14974319924477" lon="15.416089912198407"><ele>378.83333333333337</ele><time>2026-05-04T06:13:41Z</time></trkpt><trkpt lat="38.1497303225552" lon="15.416189618218912"><ele>380.0</ele><time>2026-05-04T06:13:42Z</time></trkpt><trkpt lat="38.14974965791252" lon="15.41628168520123"><ele>383.25</ele><time>2026-05-04T06:13:43Z</time></trkpt><trkpt lat="38.14978974435335" lon="15.416365746166443"><ele>386.5</ele><time>2026-05-04T06:13:44Z</time></trkpt><trkpt lat="38.14985649371494" lon="15.416451700390615"><ele>389.75</ele><time>2026-05-04T06:13:45Z</time></trkpt><trkpt lat="38.14994440986999" lon="15.416568182832812"><ele>393.0</ele><time>2026-05-04T06:13:46Z</time></trkpt><trkpt lat="38.15003737836834" lon="15.416730232399589"><ele>393.0</ele><time>2026-05-04T06:13:47Z</time></trkpt><trkpt lat="38.15013123268925" lon="15.41687329403411"><ele>393.0</ele><time>2026-05-04T06:13:48Z</time></trkpt><trkpt lat="38.150235671558214" lon="15.4169978525247"><ele>393.0</ele><time>2026-05-04T06:13:49Z</time></trkpt><trkpt lat="38.15033290385631" lon="15.417103802246595"><ele>393.0</ele><time>2026-05-04T06:13:50Z</time></trkpt><trkpt lat="38.150434047305616" lon="15.417193638203639"><ele>394.8333333333333</ele><time>2026-05-04T06:13:51Z</time></trkpt><trkpt lat="38.15052728483781" lon="15.417264320687561"><ele>396.66666666666663</ele><time>2026-05-04T06:13:52Z</time></trkpt><trkpt lat="38.15058987865209" lon="15.417346426536731"><ele>398.5</ele><time>2026-05-04T06:13:53Z</time></trkpt><trkpt lat="38.15064457239854" lon="15.417401231303185"><ele>400.3333333333333</ele><time>2026-05-04T06:13:54Z</time></trkpt><trkpt lat="38.15067254372591" lon="15.417530139195236"><ele>402.16666666666663</ele><time>2026-05-04T06:13:56Z</time></trkpt><trkpt lat="38.15065040938949" lon="15.417606944915068"><ele>404.0</ele><time>2026-05-04T06:13:59Z</time></trkpt><trkpt lat="38.15064641949273" lon="15.41741757941129"><ele>404.0</ele><time>2026-05-04T06:14:12Z</time></trkpt><trkpt lat="38.15061846859783" lon="15.417344693139391"><ele>404.0</ele><time>2026-05-04T06:14:13Z</time></trkpt><trkpt lat="38.15055592026244" lon="15.417274852209795"><ele>404.0</ele><time>2026-05-04T06:14:14Z</time></trkpt><trkpt lat="38.15046379382378" lon="15.417202299155054"><ele>404.0</ele><time>2026-05-04T06:14:15Z</time></trkpt><trkpt lat="38.150352391557625" lon="15.417121479111657"><ele>404.0</ele><time>2026-05-04T06:14:16Z</time></trkpt><trkpt lat="38.15024604990255" lon="15.417026678898354"><ele>401.25</ele><time>2026-05-04T06:14:17Z</time></trkpt><trkpt lat="38.15014765582214" lon="15.41690745653786"><ele>398.5</ele><time>2026-05-04T06:14:18Z</time></trkpt><trkpt lat="38.15006234412501" lon="15.416766778885886"><ele>395.75</ele><time>2026-05-04T06:14:19Z</time></trkpt><trkpt lat="38.149983815537695" lon="15.416630729770002"><ele>393.0</ele><time>2026-05-04T06:14:20Z</time></trkpt><trkpt lat="38.149903394488" lon="15.416508434406081"><ele>393.6666666666667</ele><time>2026-05-04T06:14:21Z</time></trkpt><trkpt lat="38.14982972487679" lon="15.416398338152295"><ele>394.33333333333337</ele><time>2026-05-04T06:14:22Z</time></trkpt><trkpt lat="38.149769014749175" lon="15.416291110376148"><ele>395.0</ele><time>2026-05-04T06:14:23Z</time></trkpt><trkpt lat="38.14973786985572" lon="15.416206211591568"><ele>395.6666666666667</ele><time>2026-05-04T06:14:24Z</time></trkpt><trkpt lat="38.14973367626846" lon="15.416121748640988"><ele>396.33333333333337</ele><time>2026-05-04T06:14:25Z</time></trkpt><trkpt lat="38.14976162466351" lon="15.41602229828955"><ele>397.0</ele><time>2026-05-04T06:14:26Z</time></trkpt><trkpt lat="38.14979895412386" lon="15.415918389591816"><ele>395.33333333333337</ele><time>2026-05-04T06:14:27Z</time></trkpt><trkpt lat="38.149850353758616" lon="15.415809176795968"><ele>393.6666666666667</ele><time>2026-05-04T06:14:28Z</time></trkpt><trkpt lat="38.14989312528897" lon="15.415699953236151"><ele>392.0</ele><time>2026-05-04T06:14:29Z</time></trkpt><trkpt lat="38.149924218433924" lon="15.415612410834731"><ele>390.33333333333337</ele><time>2026-05-04T06:14:31Z</time></trkpt><trkpt lat="38.149914299916176" lon="15.415703579603072"><ele>388.6666666666667</ele><time>2026-05-04T06:14:40.999Z</time></trkpt><trkpt lat="38.149923560857495" lon="15.415621109337916"><ele>387.0</ele><time>2026-05-04T06:14:46.999Z</time></trkpt><trkpt lat="38.14991679299308" lon="15.41552759090181"><ele>382.3333333333333</ele><time>2026-05-04T06:14:48.999Z</time></trkpt><trkpt lat="38.149584841800355" lon="15.415389120120075"><ele>377.66666666666663</ele><time>2026-05-04T06:14:50.999Z</time></trkpt><trkpt lat="38.14950436499979" lon="15.415337583622476"><ele>373.0</ele><time>2026-05-04T06:14:51.999Z</time></trkpt><trkpt lat="38.1494074247903" lon="15.415317757680663"><ele>373.0</ele><time>2026-05-04T06:14:53.999Z</time></trkpt><trkpt lat="38.149334101377335" lon="15.415410936029492"><ele>373.0</ele><time>2026-05-04T06:14:55.999Z</time></trkpt><trkpt lat="38.14929221456707" lon="15.415480223236054"><ele>373.0</ele><time>2026-05-04T06:14:56.999Z</time></trkpt><trkpt lat="38.14923876183874" lon="15.415540003487472"><ele>373.0</ele><time>2026-05-04T06:14:57.999Z</time></trkpt><trkpt lat="38.14916917862313" lon="15.415627388047092"><ele>373.0</ele><time>2026-05-04T06:14:58.999Z</time></trkpt><trkpt lat="38.14909516363599" lon="15.415688317488383"><ele>373.0</ele><time>2026-05-04T06:14:59.999Z</time></trkpt><trkpt lat="38.149029240050744" lon="15.415750750112343"><ele>372.0</ele><time>2026-05-04T06:15:00.999Z</time></trkpt><trkpt lat="38.148980195986965" lon="15.415824810974751"><ele>371.0</ele><time>2026-05-04T06:15:01.999Z</time></trkpt><trkpt lat="38.148933030432595" lon="15.415915815230699"><ele>370.0</ele><time>2026-05-04T06:15:02.999Z</time></trkpt><trkpt lat="38.1488729204086" lon="15.41600464025087"><ele>369.0</ele><time>2026-05-04T06:15:03.999Z</time></trkpt><trkpt lat="38.14882295289763" lon="15.416088221639361"><ele>368.0</ele><time>2026-05-04T06:15:04.999Z</time></trkpt><trkpt lat="38.148787308002234" lon="15.416183127908576"><ele>367.0</ele><time>2026-05-04T06:15:05.999Z</time></trkpt><trkpt lat="38.14874433438284" lon="15.416244781141597"><ele>370.0</ele><time>2026-05-04T06:15:06.999Z</time></trkpt><trkpt lat="38.14870894614279" lon="15.416340229717745"><ele>373.0</ele><time>2026-05-04T06:15:08.999Z</time></trkpt><trkpt lat="38.148657441320324" lon="15.416394573849903"><ele>376.0</ele><time>2026-05-04T06:15:09.999Z</time></trkpt><trkpt lat="38.14858797087184" lon="15.416468433698418"><ele>379.0</ele><time>2026-05-04T06:15:11.999Z</time></trkpt><trkpt lat="38.14848562779199" lon="15.416439924038446"><ele>382.0</ele><time>2026-05-04T06:15:13.999Z</time></trkpt><trkpt lat="38.14838800365703" lon="15.41635764585173"><ele>382.0</ele><time>2026-05-04T06:15:15.999Z</time></trkpt><trkpt lat="38.14832541945253" lon="15.416323316199101"><ele>382.0</ele><time>2026-05-04T06:15:17.999Z</time></trkpt><trkpt lat="38.14829887373445" lon="15.416245726787666"><ele>382.0</ele><time>2026-05-04T06:15:25.999Z</time></trkpt><trkpt lat="38.14830120269039" lon="15.416138584553106"><ele>382.0</ele><time>2026-05-04T06:15:29.999Z</time></trkpt><trkpt lat="38.14831544330292" lon="15.416027873108028"><ele>382.0</ele><time>2026-05-04T06:15:31.999Z</time></trkpt><trkpt lat="38.14830687484212" lon="15.415929305140644"><ele>382.0</ele><time>2026-05-04T06:15:33.999Z</time></trkpt><trkpt lat="38.14827593312601" lon="15.415842287322393"><ele>379.0</ele><time>2026-05-04T06:15:35.999Z</time></trkpt><trkpt lat="38.148253990806694" lon="15.41575022100371"><ele>376.0</ele><time>2026-05-04T06:15:37.999Z</time></trkpt><trkpt lat="38.148220078947226" lon="15.415629918155771"><ele>373.0</ele><time>2026-05-04T06:15:39.999Z</time></trkpt><trkpt lat="38.14814631939257" lon="15.415589090932038"><ele>370.0</ele><time>2026-05-04T06:15:41.999Z</time></trkpt><trkpt lat="38.14805586429974" lon="15.415552358957907"><ele>367.0</ele><time>2026-05-04T06:15:44Z</time></trkpt><trkpt lat="38.14797105096733" lon="15.41547714383919"><ele>360.6</ele><time>2026-05-04T06:15:46Z</time></trkpt><trkpt lat="38.147932124460276" lon="15.415388733503747"><ele>354.20000000000005</ele><time>2026-05-04T06:15:48Z</time></trkpt><trkpt lat="38.14788677216185" lon="15.415280362382244"><ele>347.8</ele><time>2026-05-04T06:15:50Z</time></trkpt><trkpt lat="38.147829066461206" lon="15.415237148679434"><ele>341.4</ele><time>2026-05-04T06:15:52Z</time></trkpt><trkpt lat="38.14774400398564" lon="15.415298037337063"><ele>335.0</ele><time>2026-05-04T06:15:55Z</time></trkpt><trkpt lat="38.14767236990389" lon="15.415409271973285"><ele>337.0</ele><time>2026-05-04T06:15:57Z</time></trkpt><trkpt lat="38.14757025777324" lon="15.415498548859803"><ele>339.0</ele><time>2026-05-04T06:15:59Z</time></trkpt><trkpt lat="38.147505554488816" lon="15.415613503518145"><ele>341.0</ele><time>2026-05-04T06:16:01Z</time></trkpt><trkpt lat="38.14746962202655" lon="15.415725396916027"><ele>343.0</ele><time>2026-05-04T06:16:03Z</time></trkpt><trkpt lat="38.147380137899816" lon="15.41576586703275"><ele>345.0</ele><time>2026-05-04T06:16:05Z</time></trkpt><trkpt lat="38.147291779139806" lon="15.415702134065599"><ele>345.0</ele><time>2026-05-04T06:16:07Z</time></trkpt><trkpt lat="38.147249775532664" lon="15.415638927941881"><ele>345.0</ele><time>2026-05-04T06:16:08Z</time></trkpt><trkpt lat="38.14718202000819" lon="15.415515622939594"><ele>345.0</ele><time>2026-05-04T06:16:10Z</time></trkpt><trkpt lat="38.14713531047842" lon="15.415432581313095"><ele>345.0</ele><time>2026-05-04T06:16:12Z</time></trkpt><trkpt lat="38.14709514548756" lon="15.415329433202166"><ele>345.0</ele><time>2026-05-04T06:16:14Z</time></trkpt><trkpt lat="38.14704693339957" lon="15.41520442006697"><ele>340.8333333333333</ele><time>2026-05-04T06:16:16Z</time></trkpt><trkpt lat="38.14700886792787" lon="15.41510568827294"><ele>336.6666666666667</ele><time>2026-05-04T06:16:18Z</time></trkpt><trkpt lat="38.146927770682225" lon="15.41508073045128"><ele>332.5</ele><time>2026-05-04T06:16:21Z</time></trkpt><trkpt lat="38.14684964874366" lon="15.415127111593712"><ele>328.33333333333337</ele><time>2026-05-04T06:16:23Z</time></trkpt><trkpt lat="38.14675255999852" lon="15.415135704882708"><ele>324.1666666666667</ele><time>2026-05-04T06:16:25Z</time></trkpt><trkpt lat="38.146694227624444" lon="15.415174837142104"><ele>320.0</ele><time>2026-05-04T06:16:27Z</time></trkpt><trkpt lat="38.14664221287952" lon="15.415251863803263"><ele>320.0</ele><time>2026-05-04T06:16:29Z</time></trkpt><trkpt lat="38.14657773729844" lon="15.415336871262925"><ele>320.0</ele><time>2026-05-04T06:16:31Z</time></trkpt><trkpt lat="38.14652245719953" lon="15.415449158881122"><ele>320.0</ele><time>2026-05-04T06:16:33Z</time></trkpt><trkpt lat="38.14641840837704" lon="15.41552014975295"><ele>320.0</ele><time>2026-05-04T06:16:35Z</time></trkpt><trkpt lat="38.14635704327371" lon="15.415632296444999"><ele>320.0</ele><time>2026-05-04T06:16:37Z</time></trkpt><trkpt lat="38.14628267629815" lon="15.415713876415245"><ele>316.6666666666667</ele><time>2026-05-04T06:16:39Z</time></trkpt><trkpt lat="38.14620877023656" lon="15.415769630730018"><ele>313.33333333333337</ele><time>2026-05-04T06:16:41Z</time></trkpt><trkpt lat="38.146219897315525" lon="15.415675642410777"><ele>310.0</ele><time>2026-05-04T06:16:47Z</time></trkpt><trkpt lat="38.146260986436474" lon="15.415583367452268"><ele>306.6666666666667</ele><time>2026-05-04T06:16:49Z</time></trkpt><trkpt lat="38.14625165535582" lon="15.415465855034697"><ele>303.3333333333333</ele><time>2026-05-04T06:16:50.999Z</time></trkpt><trkpt lat="38.14623736594292" lon="15.415348675602955"><ele>300.0</ele><time>2026-05-04T06:16:52.999Z</time></trkpt><trkpt lat="38.14626981056145" lon="15.415251665668766"><ele>304.0</ele><time>2026-05-04T06:16:54.999Z</time></trkpt><trkpt lat="38.14633257655405" lon="15.415162419703314"><ele>308.0</ele><time>2026-05-04T06:16:56.999Z</time></trkpt><trkpt lat="38.14639558915604" lon="15.41506473714948"><ele>312.0</ele><time>2026-05-04T06:16:58.999Z</time></trkpt><trkpt lat="38.14645654814328" lon="15.414966273821413"><ele>316.0</ele><time>2026-05-04T06:17:00.999Z</time></trkpt><trkpt lat="38.146521158498324" lon="15.414860865142417"><ele>320.0</ele><time>2026-05-04T06:17:02.999Z</time></trkpt><trkpt lat="38.14658495284114" lon="15.414749757076294"><ele>313.6666666666667</ele><time>2026-05-04T06:17:04.999Z</time></trkpt><trkpt lat="38.14663799012309" lon="15.414635536947372"><ele>307.33333333333337</ele><time>2026-05-04T06:17:06.999Z</time></trkpt><trkpt lat="38.14663192528067" lon="15.41455584423961"><ele>301.0</ele><time>2026-05-04T06:17:07.999Z</time></trkpt><trkpt lat="38.14668938429788" lon="15.414449004915332"><ele>294.6666666666667</ele><time>2026-05-04T06:17:09.999Z</time></trkpt><trkpt lat="38.146740951247104" lon="15.414370510748274"><ele>288.3333333333333</ele><time>2026-05-04T06:17:11.999Z</time></trkpt><trkpt lat="38.146821756566425" lon="15.414313647361439"><ele>282.0</ele><time>2026-05-04T06:17:14.999Z</time></trkpt><trkpt lat="38.14692717903531" lon="15.414269046775996"><ele>282.0</ele><time>2026-05-04T06:17:16.999Z</time></trkpt><trkpt lat="38.147020251516714" lon="15.414271442098373"><ele>282.0</ele><time>2026-05-04T06:17:18.999Z</time></trkpt><trkpt lat="38.14709687859038" lon="15.414278618774187"><ele>282.0</ele><time>2026-05-04T06:17:20.999Z</time></trkpt><trkpt lat="38.14716038170349" lon="15.414284319804704"><ele>282.0</ele><time>2026-05-04T06:17:22.999Z</time></trkpt><trkpt lat="38.1472241174321" lon="15.414294272013787"><ele>282.0</ele><time>2026-05-04T06:17:24.999Z</time></trkpt><trkpt lat="38.147276133487054" lon="15.414248007129599"><ele>282.0</ele><time>2026-05-04T06:17:26.999Z</time></trkpt><trkpt lat="38.14723014837138" lon="15.414146358086873"><ele>282.0</ele><time>2026-05-04T06:17:28.999Z</time></trkpt><trkpt lat="38.14717754989951" lon="15.414099351994949"><ele>282.0</ele><time>2026-05-04T06:17:30.999Z</time></trkpt><trkpt lat="38.14710910999582" lon="15.414059960543902"><ele>282.0</ele><time>2026-05-04T06:17:32.999Z</time></trkpt><trkpt lat="38.147047212062105" lon="15.414127653850198"><ele>282.0</ele><time>2026-05-04T06:17:34.999Z</time></trkpt><trkpt lat="38.14698961581922" lon="15.414095315618463"><ele>282.0</ele><time>2026-05-04T06:17:36.999Z</time></trkpt><trkpt lat="38.14690904420816" lon="15.41407325208122"><ele>282.0</ele><time>2026-05-04T06:17:41.999Z</time></trkpt><trkpt lat="38.14682890020113" lon="15.414069484123939"><ele>282.0</ele><time>2026-05-04T06:17:44.999Z</time></trkpt><trkpt lat="38.146774618754954" lon="15.414010366889816"><ele>282.0</ele><time>2026-05-04T06:17:47.999Z</time></trkpt><trkpt lat="38.146843176575885" lon="15.41394990654737"><ele>282.0</ele><time>2026-05-04T06:17:53Z</time></trkpt><trkpt lat="38.14690704798782" lon="15.413950177873863"><ele>282.0</ele><time>2026-05-04T06:17:55Z</time></trkpt><trkpt lat="38.1469745709891" lon="15.413934295831021"><ele>282.0</ele><time>2026-05-04T06:17:58Z</time></trkpt><trkpt lat="38.14705945409843" lon="15.413910430059037"><ele>282.0</ele><time>2026-05-04T06:18:00Z</time></trkpt><trkpt lat="38.147036921708576" lon="15.413818797618909"><ele>282.0</ele><time>2026-05-04T06:18:03Z</time></trkpt><trkpt lat="38.14696332675961" lon="15.41379988448769"><ele>282.0</ele><time>2026-05-04T06:18:17Z</time></trkpt><trkpt lat="38.14689920390952" lon="15.41378277983369"><ele>282.0</ele><time>2026-05-04T06:18:20Z</time></trkpt><trkpt lat="38.14682064264054" lon="15.413775470963827"><ele>282.0</ele><time>2026-05-04T06:18:22Z</time></trkpt><trkpt lat="38.14673177978219" lon="15.413760519256986"><ele>282.0</ele><time>2026-05-04T06:18:25Z</time></trkpt><trkpt lat="38.14666035261789" lon="15.413787982446522"><ele>282.0</ele><time>2026-05-04T06:18:28Z</time></trkpt><trkpt lat="38.1466037666606" lon="15.413824573166146"><ele>282.0</ele><time>2026-05-04T06:18:30Z</time></trkpt><trkpt lat="38.146541038254064" lon="15.413876980916342"><ele>282.0</ele><time>2026-05-04T06:18:32Z</time></trkpt><trkpt lat="38.14647763632284" lon="15.41389669377944"><ele>276.1666666666667</ele><time>2026-05-04T06:18:35Z</time></trkpt><trkpt lat="38.14641628674881" lon="15.41394282711789"><ele>270.3333333333333</ele><time>2026-05-04T06:18:44Z</time></trkpt><trkpt lat="38.14633901940835" lon="15.413964648358442"><ele>264.5</ele><time>2026-05-04T06:18:52.999Z</time></trkpt><trkpt lat="38.14625191929609" lon="15.414003501033523"><ele>258.66666666666663</ele><time>2026-05-04T06:18:56.999Z</time></trkpt><trkpt lat="38.14617351096944" lon="15.414032987870543"><ele>252.83333333333331</ele><time>2026-05-04T06:18:59.999Z</time></trkpt><trkpt lat="38.14610238596488" lon="15.414062090041158"><ele>247.0</ele><time>2026-05-04T06:19:06.999Z</time></trkpt><trkpt lat="38.14604721915704" lon="15.414101734520665"><ele>246.99999999999997</ele><time>2026-05-04T06:19:09.999Z</time></trkpt><trkpt lat="38.14596636977103" lon="15.414110358296861"><ele>247.0</ele><time>2026-05-04T06:19:12.999Z</time></trkpt><trkpt lat="38.14591201598982" lon="15.414157078226925"><ele>247.0</ele><time>2026-05-04T06:19:14.999Z</time></trkpt><trkpt lat="38.14585511765804" lon="15.41421755709913"><ele>247.0</ele><time>2026-05-04T06:19:17.999Z</time></trkpt><trkpt lat="38.14577902022126" lon="15.414274787904134"><ele>246.99999999999997</ele><time>2026-05-04T06:19:20.999Z</time></trkpt><trkpt lat="38.14572595234548" lon="15.414345666109885"><ele>247.0</ele><time>2026-05-04T06:19:23.999Z</time></trkpt><trkpt lat="38.14570549811676" lon="15.414431867715528"><ele>245.49999999999997</ele><time>2026-05-04T06:19:27.999Z</time></trkpt><trkpt lat="38.14564302859965" lon="15.414504912680435"><ele>244.0</ele><time>2026-05-04T06:19:31.999Z</time></trkpt><trkpt lat="38.14557349562174" lon="15.41454975711255"><ele>242.5</ele><time>2026-05-04T06:19:34.999Z</time></trkpt><trkpt lat="38.14548234673466" lon="15.414543078965032"><ele>241.0</ele><time>2026-05-04T06:19:37.999Z</time></trkpt><trkpt lat="38.14541085115853" lon="15.41455894430068"><ele>239.49999999999997</ele><time>2026-05-04T06:19:40.999Z</time></trkpt><trkpt lat="38.145357551882434" lon="15.414611178012118"><ele>238.0</ele><time>2026-05-04T06:19:43.999Z</time></trkpt><trkpt lat="38.14528875160132" lon="15.41466900075917"><ele>238.0</ele><time>2026-05-04T06:19:45.999Z</time></trkpt><trkpt lat="38.14520237689948" lon="15.41470936247747"><ele>238.0</ele><time>2026-05-04T06:19:48.999Z</time></trkpt><trkpt lat="38.14513711963783" lon="15.4147445513986"><ele>238.0</ele><time>2026-05-04T06:19:51.999Z</time></trkpt><trkpt lat="38.14507524180542" lon="15.414777072665581"><ele>238.0</ele><time>2026-05-04T06:19:53.999Z</time></trkpt><trkpt lat="38.145033258113806" lon="15.414844285098546"><ele>238.0</ele><time>2026-05-04T06:19:56Z</time></trkpt><trkpt lat="38.14501058531041" lon="15.414930883251579"><ele>238.0</ele><time>2026-05-04T06:19:59Z</time></trkpt><trkpt lat="38.144962273807344" lon="15.414984928774082"><ele>238.0</ele><time>2026-05-04T06:20:45Z</time></trkpt><trkpt lat="38.144985638640684" lon="15.414881749741514"><ele>237.99999999999997</ele><time>2026-05-04T06:21:02.999Z</time></trkpt><trkpt lat="38.14502906295703" lon="15.414807393917643"><ele>238.0</ele><time>2026-05-04T06:21:04.999Z</time></trkpt><trkpt lat="38.14511444284715" lon="15.414754111472245"><ele>238.0</ele><time>2026-05-04T06:21:06.999Z</time></trkpt><trkpt lat="38.145179291378994" lon="15.41473207153632"><ele>238.0</ele><time>2026-05-04T06:21:08.999Z</time></trkpt><trkpt lat="38.1452717010232" lon="15.414696820691109"><ele>237.99999999999997</ele><time>2026-05-04T06:21:10.999Z</time></trkpt><trkpt lat="38.14531764728931" lon="15.414639478072129"><ele>238.0</ele><time>2026-05-04T06:21:15.999Z</time></trkpt><trkpt lat="38.145358120217416" lon="15.414571475384541"><ele>239.49999999999997</ele><time>2026-05-04T06:21:22.999Z</time></trkpt><trkpt lat="38.145434150207784" lon="15.414536734306417"><ele>241.0</ele><time>2026-05-04T06:21:29.999Z</time></trkpt><trkpt lat="38.14551210125064" lon="15.414564853976762"><ele>242.5</ele><time>2026-05-04T06:21:33.999Z</time></trkpt><trkpt lat="38.145581449744164" lon="15.414538825906718"><ele>244.0</ele><time>2026-05-04T06:21:47.999Z</time></trkpt><trkpt lat="38.14563807645699" lon="15.41448159863529"><ele>245.49999999999997</ele><time>2026-05-04T06:21:51.999Z</time></trkpt><trkpt lat="38.1456813561482" lon="15.414416182409399"><ele>247.0</ele><time>2026-05-04T06:21:55.999Z</time></trkpt><trkpt lat="38.145715908984165" lon="15.414323636983916"><ele>246.99999999999997</ele><time>2026-05-04T06:21:59.998Z</time></trkpt><trkpt lat="38.14575962863449" lon="15.414249311501155"><ele>247.0</ele><time>2026-05-04T06:22:10Z</time></trkpt><trkpt lat="38.145820192490206" lon="15.414202710225727"><ele>247.0</ele><time>2026-05-04T06:22:15Z</time></trkpt><trkpt lat="38.145875537791184" lon="15.414146547280343"><ele>247.0</ele><time>2026-05-04T06:22:24Z</time></trkpt><trkpt lat="38.1459356793558" lon="15.414088831834635"><ele>246.99999999999997</ele><time>2026-05-04T06:22:31Z</time></trkpt><trkpt lat="38.146014175152295" lon="15.414066839664644"><ele>247.0</ele><time>2026-05-04T06:22:35Z</time></trkpt><trkpt lat="38.14609808859771" lon="15.414036402016043"><ele>247.0</ele><time>2026-05-04T06:22:41Z</time></trkpt><trkpt lat="38.146160394274524" lon="15.414004833486466"><ele>247.0</ele><time>2026-05-04T06:22:46Z</time></trkpt><trkpt lat="38.14621840314668" lon="15.41395640203093"><ele>247.0</ele><time>2026-05-04T06:22:54Z</time></trkpt><trkpt lat="38.14628881042506" lon="15.413936441633128"><ele>247.0</ele><time>2026-05-04T06:23:01Z</time></trkpt><trkpt lat="38.14636074404063" lon="15.41394871860531"><ele>247.0</ele><time>2026-05-04T06:23:10.999Z</time></trkpt><trkpt lat="38.146413921974144" lon="15.413897633434704"><ele>247.0</ele><time>2026-05-04T06:23:22.999Z</time></trkpt><trkpt lat="38.14647051036682" lon="15.41386177978958"><ele>247.0</ele><time>2026-05-04T06:25:03Z</time></trkpt><trkpt lat="38.14641057314536" lon="15.413890112278166"><ele>246.99999999999997</ele><time>2026-05-04T06:26:01.999Z</time></trkpt><trkpt lat="38.146349622570774" lon="15.413864708599451"><ele>247.0</ele><time>2026-05-04T06:26:10.998Z</time></trkpt><trkpt lat="38.146288559339396" lon="15.4138953668571"><ele>247.0</ele><time>2026-05-04T06:26:42Z</time></trkpt><trkpt lat="38.14644402031857" lon="15.413855621762277"><ele>247.0</ele><time>2026-05-04T06:28:07.998Z</time></trkpt><trkpt lat="38.146509976620656" lon="15.413857721007268"><ele>246.99999999999997</ele><time>2026-05-04T06:28:15.998Z</time></trkpt><trkpt lat="38.14657617325392" lon="15.413823061588674"><ele>247.0</ele><time>2026-05-04T06:28:22Z</time></trkpt><trkpt lat="38.146627746686804" lon="15.413774780081846"><ele>246.42857142857144</ele><time>2026-05-04T06:28:27Z</time></trkpt><trkpt lat="38.1466800567624" lon="15.413729167450372"><ele>245.85714285714283</ele><time>2026-05-04T06:28:35Z</time></trkpt><trkpt lat="38.146747208570645" lon="15.413698183034128"><ele>245.28571428571428</ele><time>2026-05-04T06:28:40Z</time></trkpt><trkpt lat="38.1468055761899" lon="15.413734793747988"><ele>244.71428571428572</ele><time>2026-05-04T06:28:46Z</time></trkpt><trkpt lat="38.14686920484287" lon="15.413746750391255"><ele>244.14285714285717</ele><time>2026-05-04T06:28:48Z</time></trkpt><trkpt lat="38.14693304833688" lon="15.413771568239532"><ele>243.57142857142856</ele><time>2026-05-04T06:28:52Z</time></trkpt><trkpt lat="38.147008290278364" lon="15.41379953629831"><ele>243.0</ele><time>2026-05-04T06:28:57Z</time></trkpt><trkpt lat="38.14707949566196" lon="15.413845251340785"><ele>248.57142857142856</ele><time>2026-05-04T06:29:02Z</time></trkpt><trkpt lat="38.147069238494005" lon="15.413926430668624"><ele>254.14285714285717</ele><time>2026-05-04T06:29:12Z</time></trkpt><trkpt lat="38.14699541197009" lon="15.413933164832574"><ele>259.7142857142857</ele><time>2026-05-04T06:29:15.999Z</time></trkpt><trkpt lat="38.146928190678736" lon="15.41391326616235"><ele>265.2857142857143</ele><time>2026-05-04T06:29:18.999Z</time></trkpt><trkpt lat="38.14686202187718" lon="15.413923090756745"><ele>270.85714285714283</ele><time>2026-05-04T06:29:21.999Z</time></trkpt><trkpt lat="38.1467999401603" lon="15.413949195806765"><ele>276.42857142857144</ele><time>2026-05-04T06:29:24.999Z</time></trkpt><trkpt lat="38.14680812209238" lon="15.41404418030051"><ele>282.0</ele><time>2026-05-04T06:29:32.999Z</time></trkpt><trkpt lat="38.14688687040928" lon="15.414043055920159"><ele>282.0</ele><time>2026-05-04T06:29:36.999Z</time></trkpt><trkpt lat="38.14695513048475" lon="15.4140505959275"><ele>282.0</ele><time>2026-05-04T06:29:40.999Z</time></trkpt><trkpt lat="38.1470282600705" lon="15.414074835996225"><ele>282.0</ele><time>2026-05-04T06:29:44.999Z</time></trkpt><trkpt lat="38.147102271970255" lon="15.414085510760504"><ele>282.0</ele><time>2026-05-04T06:29:47.999Z</time></trkpt><trkpt lat="38.1471794938627" lon="15.414133235566883"><ele>282.0</ele><time>2026-05-04T06:29:50.999Z</time></trkpt><trkpt lat="38.14723820720339" lon="15.414190187294578"><ele>282.0</ele><time>2026-05-04T06:29:52.999Z</time></trkpt><trkpt lat="38.14718514485844" lon="15.41426413143926"><ele>282.0</ele><time>2026-05-04T06:30:27Z</time></trkpt><trkpt lat="38.14710617200851" lon="15.414252577036573"><ele>282.0</ele><time>2026-05-04T06:30:29Z</time></trkpt><trkpt lat="38.147025623813256" lon="15.414245345777452"><ele>282.0</ele><time>2026-05-04T06:30:31Z</time></trkpt><trkpt lat="38.14694756165338" lon="15.414243196113267"><ele>282.0</ele><time>2026-05-04T06:30:33Z</time></trkpt><trkpt lat="38.14685667512641" lon="15.414269223871285"><ele>282.0</ele><time>2026-05-04T06:30:35Z</time></trkpt><trkpt lat="38.14677802367045" lon="15.414326640733414"><ele>282.0</ele><time>2026-05-04T06:30:37Z</time></trkpt><trkpt lat="38.14670345235209" lon="15.414390387172345"><ele>282.0</ele><time>2026-05-04T06:30:39Z</time></trkpt><trkpt lat="38.14666251318182" lon="15.414471413017585"><ele>282.0</ele><time>2026-05-04T06:30:41Z</time></trkpt><trkpt lat="38.14663484805117" lon="15.414566101092428"><ele>282.0</ele><time>2026-05-04T06:30:43Z</time></trkpt><trkpt lat="38.146609425771835" lon="15.414654394389869"><ele>282.0</ele><time>2026-05-04T06:30:45Z</time></trkpt><trkpt lat="38.14656955939503" lon="15.414744606945897"><ele>282.0</ele><time>2026-05-04T06:30:47Z</time></trkpt><trkpt lat="38.146517507690746" lon="15.414839075314525"><ele>282.0</ele><time>2026-05-04T06:30:50Z</time></trkpt><trkpt lat="38.14646592997231" lon="15.414918918570045"><ele>281.0</ele><time>2026-05-04T06:30:52Z</time></trkpt><trkpt lat="38.14640835570331" lon="15.415007312055515"><ele>280.0</ele><time>2026-05-04T06:30:54Z</time></trkpt><trkpt lat="38.14634811849663" lon="15.415101029386935"><ele>279.0</ele><time>2026-05-04T06:30:56Z</time></trkpt><trkpt lat="38.146289149118076" lon="15.415184094355164"><ele>278.0</ele><time>2026-05-04T06:30:58Z</time></trkpt><trkpt lat="38.14623810229701" lon="15.415265842377615"><ele>277.0</ele><time>2026-05-04T06:31:00Z</time></trkpt><trkpt lat="38.146207622100235" lon="15.415371981133111"><ele>276.0</ele><time>2026-05-04T06:31:02Z</time></trkpt><trkpt lat="38.14623604821666" lon="15.415499389625294"><ele>280.0</ele><time>2026-05-04T06:31:04Z</time></trkpt><trkpt lat="38.14624134338387" lon="15.415614195260078"><ele>284.0</ele><time>2026-05-04T06:31:06Z</time></trkpt><trkpt lat="38.14619995417142" lon="15.415698457481165"><ele>288.0</ele><time>2026-05-04T06:31:08Z</time></trkpt><trkpt lat="38.146161415770045" lon="15.415772828756495"><ele>292.0</ele><time>2026-05-04T06:31:10Z</time></trkpt><trkpt lat="38.1462216926544" lon="15.415821273599024"><ele>296.0</ele><time>2026-05-04T06:31:12Z</time></trkpt><trkpt lat="38.14628172103172" lon="15.415747651627722"><ele>300.0</ele><time>2026-05-04T06:31:14Z</time></trkpt><trkpt lat="38.14632786408609" lon="15.415676475966933"><ele>300.0</ele><time>2026-05-04T06:31:16Z</time></trkpt><trkpt lat="38.1463892203384" lon="15.415612065490478"><ele>300.0</ele><time>2026-05-04T06:31:18Z</time></trkpt><trkpt lat="38.14645119513092" lon="15.415522793774796"><ele>300.0</ele><time>2026-05-04T06:31:19.999Z</time></trkpt><trkpt lat="38.14651998555296" lon="15.415432479143078"><ele>300.0</ele><time>2026-05-04T06:31:21.999Z</time></trkpt><trkpt lat="38.14658291834135" lon="15.415337744400864"><ele>300.0</ele><time>2026-05-04T06:31:23.999Z</time></trkpt><trkpt lat="38.14663644480361" lon="15.41525467171692"><ele>303.3333333333333</ele><time>2026-05-04T06:31:25.999Z</time></trkpt><trkpt lat="38.1467121255257" lon="15.41517748875159"><ele>306.6666666666667</ele><time>2026-05-04T06:31:27.999Z</time></trkpt><trkpt lat="38.14678719100183" lon="15.415130142992702"><ele>310.0</ele><time>2026-05-04T06:31:29.999Z</time></trkpt><trkpt lat="38.14689167821934" lon="15.415111086591033"><ele>313.33333333333337</ele><time>2026-05-04T06:31:31.999Z</time></trkpt><trkpt lat="38.14696710702634" lon="15.415079621309893"><ele>316.6666666666667</ele><time>2026-05-04T06:31:33.999Z</time></trkpt><trkpt lat="38.14701043134976" lon="15.415138627985119"><ele>320.0</ele><time>2026-05-04T06:31:35.999Z</time></trkpt><trkpt lat="38.14704362138336" lon="15.415253821103466"><ele>320.0</ele><time>2026-05-04T06:31:37.999Z</time></trkpt><trkpt lat="38.14707446653843" lon="15.415338406943688"><ele>320.0</ele><time>2026-05-04T06:31:38.999Z</time></trkpt><trkpt lat="38.14711193660853" lon="15.415434388886675"><ele>320.0</ele><time>2026-05-04T06:31:39.999Z</time></trkpt><trkpt lat="38.147143879110764" lon="15.415513091629968"><ele>320.0</ele><time>2026-05-04T06:31:40.999Z</time></trkpt><trkpt lat="38.14720971109661" lon="15.415643350208372"><ele>320.0</ele><time>2026-05-04T06:31:42.999Z</time></trkpt><trkpt lat="38.14726470068562" lon="15.415739008290283"><ele>320.0</ele><time>2026-05-04T06:31:44.999Z</time></trkpt><trkpt lat="38.147348115636845" lon="15.415803382568138"><ele>323.0</ele><time>2026-05-04T06:31:46.999Z</time></trkpt><trkpt lat="38.14744422213082" lon="15.415795504910264"><ele>326.0</ele><time>2026-05-04T06:31:48.999Z</time></trkpt><trkpt lat="38.147526292145855" lon="15.415720312105535"><ele>329.0</ele><time>2026-05-04T06:31:50.999Z</time></trkpt><trkpt lat="38.147544306390806" lon="15.415639520646131"><ele>332.0</ele><time>2026-05-04T06:31:51.999Z</time></trkpt><trkpt lat="38.14759655241626" lon="15.415524501792278"><ele>335.0</ele><time>2026-05-04T06:31:53.999Z</time></trkpt><trkpt lat="38.147672536054465" lon="15.415423457718813"><ele>335.0</ele><time>2026-05-04T06:31:55.999Z</time></trkpt><trkpt lat="38.147744219603815" lon="15.415317058374"><ele>335.0</ele><time>2026-05-04T06:31:57.999Z</time></trkpt><trkpt lat="38.147800856815145" lon="15.415249053367292"><ele>335.0</ele><time>2026-05-04T06:31:59.999Z</time></trkpt><trkpt lat="38.147873271003114" lon="15.415242845620885"><ele>335.0</ele><time>2026-05-04T06:32:02.999Z</time></trkpt><trkpt lat="38.147908423223235" lon="15.415342035004373"><ele>335.0</ele><time>2026-05-04T06:32:04.999Z</time></trkpt><trkpt lat="38.14794057542817" lon="15.415410918810972"><ele>335.0</ele><time>2026-05-04T06:32:05.999Z</time></trkpt><trkpt lat="38.14795872218734" lon="15.415490828896317"><ele>339.0</ele><time>2026-05-04T06:32:06.999Z</time></trkpt><trkpt lat="38.14801334050306" lon="15.415550110798057"><ele>343.0</ele><time>2026-05-04T06:32:07.999Z</time></trkpt><trkpt lat="38.148089139165094" lon="15.415530655176449"><ele>347.0</ele><time>2026-05-04T06:32:08.999Z</time></trkpt><trkpt lat="38.1481876493282" lon="15.415580858894204"><ele>351.0</ele><time>2026-05-04T06:32:10.999Z</time></trkpt><trkpt lat="38.14825174317547" lon="15.415618225287107"><ele>355.0</ele><time>2026-05-04T06:32:12.999Z</time></trkpt><trkpt lat="38.14828638689162" lon="15.415726992099506"><ele>359.0</ele><time>2026-05-04T06:32:14.999Z</time></trkpt><trkpt lat="38.14828374376875" lon="15.415811305017298"><ele>360.33333333333337</ele><time>2026-05-04T06:32:18.998Z</time></trkpt><trkpt lat="38.1482871694957" lon="15.415896031781775"><ele>361.6666666666667</ele><time>2026-05-04T06:32:21.998Z</time></trkpt><trkpt lat="38.14830572210455" lon="15.415974254979163"><ele>363.0</ele><time>2026-05-04T06:32:23.998Z</time></trkpt><trkpt lat="38.14828468913591" lon="15.416074077068618"><ele>364.3333333333333</ele><time>2026-05-04T06:32:25.998Z</time></trkpt><trkpt lat="38.14828407116338" lon="15.416192337851019"><ele>365.66666666666663</ele><time>2026-05-04T06:32:27.998Z</time></trkpt><trkpt lat="38.14829858758234" lon="15.41630586436828"><ele>367.0</ele><time>2026-05-04T06:32:30Z</time></trkpt><trkpt lat="38.14838918320633" lon="15.41640667770446"><ele>367.0</ele><time>2026-05-04T06:32:32Z</time></trkpt><trkpt lat="38.14847230991008" lon="15.41644073008674"><ele>367.0</ele><time>2026-05-04T06:32:34Z</time></trkpt><trkpt lat="38.14856248333264" lon="15.41638597173364"><ele>367.0</ele><time>2026-05-04T06:32:36Z</time></trkpt><trkpt lat="38.1486573659693" lon="15.41634063699038"><ele>367.0</ele><time>2026-05-04T06:32:38Z</time></trkpt><trkpt lat="38.14874314285099" lon="15.41628127033643"><ele>367.0</ele><time>2026-05-04T06:32:40Z</time></trkpt><trkpt lat="38.1487921210372" lon="15.416211085331069"><ele>367.0</ele><time>2026-05-04T06:32:42Z</time></trkpt><trkpt lat="38.14883571980307" lon="15.416095540223795"><ele>367.0</ele><time>2026-05-04T06:32:44Z</time></trkpt><trkpt lat="38.14886664302697" lon="15.415970421608574"><ele>367.0</ele><time>2026-05-04T06:32:46Z</time></trkpt><trkpt lat="38.14892890540952" lon="15.41594173918121"><ele>367.0</ele><time>2026-05-04T06:32:47Z</time></trkpt><trkpt lat="38.14896973679269" lon="15.415880580689887"><ele>367.0</ele><time>2026-05-04T06:32:48Z</time></trkpt><trkpt lat="38.14901589573358" lon="15.415821967151398"><ele>367.0</ele><time>2026-05-04T06:32:49Z</time></trkpt><trkpt lat="38.149088189832426" lon="15.415747018517052"><ele>368.20000000000005</ele><time>2026-05-04T06:32:51Z</time></trkpt><trkpt lat="38.14914469261147" lon="15.415696885227941"><ele>369.4</ele><time>2026-05-04T06:32:53Z</time></trkpt><trkpt lat="38.14922779215364" lon="15.415617171840626"><ele>370.6</ele><time>2026-05-04T06:32:55Z</time></trkpt><trkpt lat="38.14930915126744" lon="15.415518539100606"><ele>371.79999999999995</ele><time>2026-05-04T06:32:57Z</time></trkpt><trkpt lat="38.14936286083079" lon="15.415419227733869"><ele>373.0</ele><time>2026-05-04T06:32:59Z</time></trkpt><trkpt lat="38.149419909599395" lon="15.415354348167925"><ele>373.0</ele><time>2026-05-04T06:33:01Z</time></trkpt><trkpt lat="38.149497200234464" lon="15.415348404634893"><ele>373.0</ele><time>2026-05-04T06:33:03Z</time></trkpt><trkpt lat="38.149601707733325" lon="15.415434261121463"><ele>373.0</ele><time>2026-05-04T06:33:05Z</time></trkpt><trkpt lat="38.14967613534583" lon="15.415461858731335"><ele>373.0</ele><time>2026-05-04T06:33:06Z</time></trkpt><trkpt lat="38.14973876232371" lon="15.41550913696454"><ele>373.0</ele><time>2026-05-04T06:33:07Z</time></trkpt><trkpt lat="38.14978843899919" lon="15.415558845344664"><ele>373.0</ele><time>2026-05-04T06:33:08Z</time></trkpt><trkpt lat="38.14984654381699" lon="15.415671456203238"><ele>374.4</ele><time>2026-05-04T06:33:10Z</time></trkpt><trkpt lat="38.14985314350515" lon="15.415785683860202"><ele>375.79999999999995</ele><time>2026-05-04T06:33:12Z</time></trkpt><trkpt lat="38.1497957978342" lon="15.41592931731379"><ele>377.2</ele><time>2026-05-04T06:33:14Z</time></trkpt><trkpt lat="38.14976019960077" lon="15.416021441265926"><ele>378.6</ele><time>2026-05-04T06:33:15Z</time></trkpt><trkpt lat="38.14973589187777" lon="15.416123374516795"><ele>380.0</ele><time>2026-05-04T06:33:16Z</time></trkpt><trkpt lat="38.149735342141" lon="15.416216187379488"><ele>380.0</ele><time>2026-05-04T06:33:17Z</time></trkpt><trkpt lat="38.14976046462646" lon="15.416301810451579"><ele>380.0</ele><time>2026-05-04T06:33:18Z</time></trkpt><trkpt lat="38.14980457405494" lon="15.416381477629686"><ele>380.0</ele><time>2026-05-04T06:33:19Z</time></trkpt><trkpt lat="38.14986587907276" lon="15.416464059213146"><ele>380.0</ele><time>2026-05-04T06:33:20Z</time></trkpt><trkpt lat="38.149938836057906" lon="15.416563940554513"><ele>380.0</ele><time>2026-05-04T06:33:21Z</time></trkpt><trkpt lat="38.15001063890426" lon="15.416665165031567"><ele>382.1666666666667</ele><time>2026-05-04T06:33:22Z</time></trkpt><trkpt lat="38.150060147375015" lon="15.416764939074117"><ele>384.33333333333337</ele><time>2026-05-04T06:33:22.999Z</time></trkpt><trkpt lat="38.150121642807484" lon="15.416830891752571"><ele>386.5</ele><time>2026-05-04T06:33:23.999Z</time></trkpt><trkpt lat="38.150165202687525" lon="15.416893905870953"><ele>388.6666666666667</ele><time>2026-05-04T06:33:24.999Z</time></trkpt><trkpt lat="38.15022999544592" lon="15.416996256116901"><ele>390.8333333333333</ele><time>2026-05-04T06:33:26.999Z</time></trkpt><trkpt lat="38.15030455791208" lon="15.41708265729141"><ele>393.0</ele><time>2026-05-04T06:33:28.999Z</time></trkpt><trkpt lat="38.150410881451485" lon="15.417193963131412"><ele>394.8333333333333</ele><time>2026-05-04T06:33:30.999Z</time></trkpt><trkpt lat="38.150475910758026" lon="15.417245233085772"><ele>396.66666666666663</ele><time>2026-05-04T06:33:31.999Z</time></trkpt><trkpt lat="38.15055090661145" lon="15.417305939999853"><ele>398.5</ele><time>2026-05-04T06:33:32.999Z</time></trkpt><trkpt lat="38.150624995227496" lon="15.417360631051324"><ele>400.3333333333333</ele><time>2026-05-04T06:33:33.999Z</time></trkpt><trkpt lat="38.15065964681089" lon="15.41744562210517"><ele>402.16666666666663</ele><time>2026-05-04T06:33:34.999Z</time></trkpt><trkpt lat="38.15066088944602" lon="15.417527220266367"><ele>404.0</ele><time>2026-05-04T06:33:35.999Z</time></trkpt><trkpt lat="38.15063773215917" lon="15.41763626680323"><ele>404.0</ele><time>2026-05-04T06:33:37.999Z</time></trkpt><trkpt lat="38.15051960482123" lon="15.417660330693135"><ele>404.0</ele><time>2026-05-04T06:33:40.999Z</time></trkpt><trkpt lat="38.15043379170235" lon="15.417684475561702"><ele>404.0</ele><time>2026-05-04T06:33:41.999Z</time></trkpt><trkpt lat="38.15032153487815" lon="15.417701185593788"><ele>404.0</ele><time>2026-05-04T06:33:42.999Z</time></trkpt><trkpt lat="38.15021494637845" lon="15.41772241913882"><ele>404.0</ele><time>2026-05-04T06:33:43.999Z</time></trkpt><trkpt lat="38.150110582684924" lon="15.417726818984102"><ele>403.99999999999994</ele><time>2026-05-04T06:33:44.999Z</time></trkpt><trkpt lat="38.150021906185486" lon="15.417726001818238"><ele>404.0</ele><time>2026-05-04T06:33:45.999Z</time></trkpt><trkpt lat="38.14994073270945" lon="15.41771913875281"><ele>404.0</ele><time>2026-05-04T06:33:46.999Z</time></trkpt><trkpt lat="38.14985188664107" lon="15.4176999735563"><ele>404.0</ele><time>2026-05-04T06:33:47.999Z</time></trkpt><trkpt lat="38.14977134459521" lon="15.417661213756219"><ele>403.99999999999994</ele><time>2026-05-04T06:33:48.999Z</time></trkpt><trkpt lat="38.149683771289155" lon="15.417628607427392"><ele>404.0</ele><time>2026-05-04T06:33:49.999Z</time></trkpt><trkpt lat="38.14959321269285" lon="15.417567835636483"><ele>406.2</ele><time>2026-05-04T06:33:50.999Z</time></trkpt><trkpt lat="38.14949720054152" lon="15.417515245636608"><ele>408.4</ele><time>2026-05-04T06:33:51.999Z</time></trkpt><trkpt lat="38.14942241851468" lon="15.417450185302735"><ele>410.6</ele><time>2026-05-04T06:33:52.999Z</time></trkpt><trkpt lat="38.14934754247801" lon="15.417393516461562"><ele>412.8</ele><time>2026-05-04T06:33:53.999Z</time></trkpt><trkpt lat="38.14925428452213" lon="15.41733543310287"><ele>415.0</ele><time>2026-05-04T06:33:54.999Z</time></trkpt><trkpt lat="38.14917327067634" lon="15.417296731933618"><ele>415.00000000000006</ele><time>2026-05-04T06:33:55.999Z</time></trkpt><trkpt lat="38.14909652412096" lon="15.417282759679518"><ele>415.0</ele><time>2026-05-04T06:33:56.999Z</time></trkpt><trkpt lat="38.14903120261807" lon="15.417260305781499"><ele>415.0</ele><time>2026-05-04T06:33:57.999Z</time></trkpt><trkpt lat="38.148960826876866" lon="15.417246609953036"><ele>415.0</ele><time>2026-05-04T06:33:58.999Z</time></trkpt><trkpt lat="38.14886437600977" lon="15.41726808781015"><ele>415.00000000000006</ele><time>2026-05-04T06:33:59.999Z</time></trkpt><trkpt lat="38.14876080992175" lon="15.417323982140282"><ele>415.0</ele><time>2026-05-04T06:34:00.999Z</time></trkpt><trkpt lat="38.14865690579462" lon="15.417376113223705"><ele>412.83333333333337</ele><time>2026-05-04T06:34:01.999Z</time></trkpt><trkpt lat="38.14856356675615" lon="15.417406280326935"><ele>410.6666666666667</ele><time>2026-05-04T06:34:02.999Z</time></trkpt><trkpt lat="38.1484766379073" lon="15.417443193349445"><ele>408.5</ele><time>2026-05-04T06:34:03.999Z</time></trkpt><trkpt lat="38.14841501619419" lon="15.417508492537086"><ele>406.33333333333337</ele><time>2026-05-04T06:34:04.999Z</time></trkpt><trkpt lat="38.14836615534222" lon="15.417592874173755"><ele>404.1666666666667</ele><time>2026-05-04T06:34:05.999Z</time></trkpt><trkpt lat="38.14829041425684" lon="15.417669634441646"><ele>402.0</ele><time>2026-05-04T06:34:06.999Z</time></trkpt><trkpt lat="38.14818266176989" lon="15.417690051755104"><ele>400.0</ele><time>2026-05-04T06:34:07.999Z</time></trkpt><trkpt lat="38.14808244641003" lon="15.417741516613882"><ele>398.0</ele><time>2026-05-04T06:34:08.999Z</time></trkpt><trkpt lat="38.147995374866575" lon="15.417828281725198"><ele>396.0</ele><time>2026-05-04T06:34:09.999Z</time></trkpt><trkpt lat="38.14790794356518" lon="15.417905971580025"><ele>394.0</ele><time>2026-05-04T06:34:10.999Z</time></trkpt><trkpt lat="38.14782227586327" lon="15.417946859854796"><ele>392.0</ele><time>2026-05-04T06:34:11.999Z</time></trkpt><trkpt lat="38.147758973334945" lon="15.418017221693804"><ele>395.8333333333333</ele><time>2026-05-04T06:34:12.999Z</time></trkpt><trkpt lat="38.14770104200559" lon="15.41808627793002"><ele>399.66666666666663</ele><time>2026-05-04T06:34:13.999Z</time></trkpt><trkpt lat="38.147664580007564" lon="15.41817659360389"><ele>403.5</ele><time>2026-05-04T06:34:14.999Z</time></trkpt><trkpt lat="38.147645925285055" lon="15.418288020507896"><ele>407.33333333333337</ele><time>2026-05-04T06:34:15.999Z</time></trkpt><trkpt lat="38.14762635873644" lon="15.418396575773427"><ele>411.1666666666667</ele><time>2026-05-04T06:34:16.999Z</time></trkpt><trkpt lat="38.14760389289205" lon="15.418486740251724"><ele>415.0</ele><time>2026-05-04T06:34:17.999Z</time></trkpt><trkpt lat="38.14756576834146" lon="15.418550636144332"><ele>415.00000000000006</ele><time>2026-05-04T06:34:18.999Z</time></trkpt><trkpt lat="38.147493944093284" lon="15.418559234502611"><ele>415.0</ele><time>2026-05-04T06:34:19.998Z</time></trkpt><trkpt lat="38.14741920001371" lon="15.41853138513425"><ele>415.0</ele><time>2026-05-04T06:34:20.998Z</time></trkpt><trkpt lat="38.14732988326497" lon="15.418553530075094"><ele>415.0</ele><time>2026-05-04T06:34:21.998Z</time></trkpt><trkpt lat="38.14722804494441" lon="15.418549372690883"><ele>415.00000000000006</ele><time>2026-05-04T06:34:22.998Z</time></trkpt><trkpt lat="38.147133938570576" lon="15.41855793185243"><ele>415.0</ele><time>2026-05-04T06:34:23.998Z</time></trkpt><trkpt lat="38.14704598736519" lon="15.418578103818115"><ele>415.2857142857143</ele><time>2026-05-04T06:34:24.998Z</time></trkpt><trkpt lat="38.14697286217987" lon="15.418612355520525"><ele>415.57142857142856</ele><time>2026-05-04T06:34:25.998Z</time></trkpt><trkpt lat="38.146903471600666" lon="15.418668544599093"><ele>415.8571428571429</ele><time>2026-05-04T06:34:26.998Z</time></trkpt><trkpt lat="38.14683328392805" lon="15.418738638103326"><ele>416.1428571428571</ele><time>2026-05-04T06:34:27.998Z</time></trkpt><trkpt lat="38.14679186248616" lon="15.4188084777487"><ele>416.4285714285714</ele><time>2026-05-04T06:34:28.998Z</time></trkpt><trkpt lat="38.14678831531897" lon="15.418891412752341"><ele>416.7142857142857</ele><time>2026-05-04T06:34:29.998Z</time></trkpt><trkpt lat="38.146793108894705" lon="15.41897485906799"><ele>417.0</ele><time>2026-05-04T06:34:30.998Z</time></trkpt><trkpt lat="38.14678770677655" lon="15.419082119945228"><ele>417.0</ele><time>2026-05-04T06:34:31.998Z</time></trkpt><trkpt lat="38.146771251539576" lon="15.419205558572807"><ele>417.0</ele><time>2026-05-04T06:34:32.998Z</time></trkpt><trkpt lat="38.14674816713839" lon="15.419338093177524"><ele>417.0</ele><time>2026-05-04T06:34:33.998Z</time></trkpt><trkpt lat="38.14673020100677" lon="15.419463001461416"><ele>417.0</ele><time>2026-05-04T06:34:35Z</time></trkpt><trkpt lat="38.146712167903885" lon="15.419581135709214"><ele>417.0</ele><time>2026-05-04T06:34:36Z</time></trkpt><trkpt lat="38.146690392677016" lon="15.419689975626614"><ele>421.0</ele><time>2026-05-04T06:34:37Z</time></trkpt><trkpt lat="38.146646040254005" lon="15.41978351930603"><ele>425.0</ele><time>2026-05-04T06:34:38Z</time></trkpt><trkpt lat="38.14660930551095" lon="15.419876099143218"><ele>429.0</ele><time>2026-05-04T06:34:39Z</time></trkpt><trkpt lat="38.14657143390374" lon="15.419957485787181"><ele>433.0</ele><time>2026-05-04T06:34:40Z</time></trkpt><trkpt lat="38.14649996814232" lon="15.420038350132097"><ele>437.0</ele><time>2026-05-04T06:34:42Z</time></trkpt><trkpt lat="38.14643304685788" lon="15.420078783093139"><ele>441.0</ele><time>2026-05-04T06:34:45Z</time></trkpt><trkpt lat="38.14635562605311" lon="15.420090883927875"><ele>441.0</ele><time>2026-05-04T06:35:30.999Z</time></trkpt><trkpt lat="38.14629158541435" lon="15.420128104047945"><ele>441.0</ele><time>2026-05-04T06:35:31.999Z</time></trkpt><trkpt lat="38.14622306807366" lon="15.420174261182757"><ele>441.0</ele><time>2026-05-04T06:35:32.999Z</time></trkpt><trkpt lat="38.14614804139791" lon="15.420238294226298"><ele>441.0</ele><time>2026-05-04T06:35:33.999Z</time></trkpt><trkpt lat="38.146061574599244" lon="15.420293095612196"><ele>441.0</ele><time>2026-05-04T06:35:34.999Z</time></trkpt><trkpt lat="38.145979155808725" lon="15.420272736190826"><ele>441.0</ele><time>2026-05-04T06:35:35.999Z</time></trkpt><trkpt lat="38.14589861504704" lon="15.42023037505013"><ele>441.0</ele><time>2026-05-04T06:35:36.999Z</time></trkpt><trkpt lat="38.14581063012357" lon="15.420178039679781"><ele>441.0</ele><time>2026-05-04T06:35:37.999Z</time></trkpt><trkpt lat="38.14569883684713" lon="15.420141853977217"><ele>441.0</ele><time>2026-05-04T06:35:38.999Z</time></trkpt><trkpt lat="38.14558527880849" lon="15.420089482475715"><ele>441.0</ele><time>2026-05-04T06:35:39.999Z</time></trkpt><trkpt lat="38.145476542964" lon="15.420044972001426"><ele>441.0</ele><time>2026-05-04T06:35:40.999Z</time></trkpt><trkpt lat="38.1453891842833" lon="15.420015264655877"><ele>442.20000000000005</ele><time>2026-05-04T06:35:41.999Z</time></trkpt><trkpt lat="38.14531518956396" lon="15.420033466698184"><ele>443.40000000000003</ele><time>2026-05-04T06:35:43.999Z</time></trkpt><trkpt lat="38.14521298166894" lon="15.420151076251484"><ele>444.6</ele><time>2026-05-04T06:35:45.999Z</time></trkpt><trkpt lat="38.14517629125275" lon="15.420216750684828"><ele>445.8</ele><time>2026-05-04T06:35:46.999Z</time></trkpt><trkpt lat="38.14516307308819" lon="15.420376300346053"><ele>447.0</ele><time>2026-05-04T06:35:48.999Z</time></trkpt><trkpt lat="38.14517043086153" lon="15.420485722909493"><ele>447.0</ele><time>2026-05-04T06:35:49.999Z</time></trkpt><trkpt lat="38.1451611693958" lon="15.420601568410481"><ele>447.0</ele><time>2026-05-04T06:35:50.999Z</time></trkpt><trkpt lat="38.145126475002066" lon="15.420698580292813"><ele>447.0</ele><time>2026-05-04T06:35:51.999Z</time></trkpt><trkpt lat="38.14506961993649" lon="15.420776384454888"><ele>447.0</ele><time>2026-05-04T06:35:52.999Z</time></trkpt><trkpt lat="38.144998354021844" lon="15.420841748546152"><ele>447.0</ele><time>2026-05-04T06:35:53.999Z</time></trkpt><trkpt lat="38.14494359816308" lon="15.420908426189067"><ele>447.0</ele><time>2026-05-04T06:35:54.999Z</time></trkpt><trkpt lat="38.14490711673165" lon="15.420985783327747"><ele>447.20000000000005</ele><time>2026-05-04T06:35:55.999Z</time></trkpt><trkpt lat="38.144877295773476" lon="15.421088899976924"><ele>447.40000000000003</ele><time>2026-05-04T06:35:56.999Z</time></trkpt><trkpt lat="38.14484048261912" lon="15.421219035804894"><ele>447.59999999999997</ele><time>2026-05-04T06:35:57.999Z</time></trkpt><trkpt lat="38.14478930339009" lon="15.421349801753275"><ele>447.79999999999995</ele><time>2026-05-04T06:35:58.999Z</time></trkpt><trkpt lat="38.144721423191356" lon="15.421458578302834"><ele>448.0</ele><time>2026-05-04T06:35:59.999Z</time></trkpt><trkpt lat="38.14464622155634" lon="15.421550210507421"><ele>448.0</ele><time>2026-05-04T06:36:00.999Z</time></trkpt><trkpt lat="38.14457181102251" lon="15.421637935584343"><ele>447.99999999999994</ele><time>2026-05-04T06:36:01.999Z</time></trkpt><trkpt lat="38.14450119363016" lon="15.421710129974688"><ele>447.99999999999994</ele><time>2026-05-04T06:36:02.999Z</time></trkpt><trkpt lat="38.14442599606577" lon="15.421762438471239"><ele>448.0</ele><time>2026-05-04T06:36:03.999Z</time></trkpt><trkpt lat="38.14433433480692" lon="15.421780588469806"><ele>448.0</ele><time>2026-05-04T06:36:04.999Z</time></trkpt><trkpt lat="38.144237629192105" lon="15.42178447466247"><ele>448.0</ele><time>2026-05-04T06:36:05.999Z</time></trkpt><trkpt lat="38.14412033412818" lon="15.421777905770892"><ele>447.99999999999994</ele><time>2026-05-04T06:36:06.999Z</time></trkpt><trkpt lat="38.143994090501565" lon="15.421762294211701"><ele>447.99999999999994</ele><time>2026-05-04T06:36:07.999Z</time></trkpt><trkpt lat="38.143883633810766" lon="15.421753741465938"><ele>448.0</ele><time>2026-05-04T06:36:08.999Z</time></trkpt><trkpt lat="38.14379665456396" lon="15.421753930471226"><ele>448.0</ele><time>2026-05-04T06:36:09.999Z</time></trkpt><trkpt lat="38.14372506073974" lon="15.421779884214367"><ele>448.4</ele><time>2026-05-04T06:36:10.999Z</time></trkpt><trkpt lat="38.14365438340169" lon="15.421911743600976"><ele>448.79999999999995</ele><time>2026-05-04T06:36:12.999Z</time></trkpt><trkpt lat="38.14365786188859" lon="15.422002614833112"><ele>449.2</ele><time>2026-05-04T06:36:13.999Z</time></trkpt><trkpt lat="38.143697822777185" lon="15.422085904429395"><ele>449.6</ele><time>2026-05-04T06:36:14.999Z</time></trkpt><trkpt lat="38.14376796424737" lon="15.422162502665289"><ele>450.0</ele><time>2026-05-04T06:36:15.999Z</time></trkpt><trkpt lat="38.143847764989886" lon="15.422251018152105"><ele>452.4</ele><time>2026-05-04T06:36:16.999Z</time></trkpt><trkpt lat="38.14391715408696" lon="15.422345620760908"><ele>454.8</ele><time>2026-05-04T06:36:17.999Z</time></trkpt><trkpt lat="38.143950634072354" lon="15.42247071190018"><ele>457.20000000000005</ele><time>2026-05-04T06:36:18.999Z</time></trkpt><trkpt lat="38.1439956052371" lon="15.422591073215967"><ele>459.6</ele><time>2026-05-04T06:36:19.999Z</time></trkpt><trkpt lat="38.14405159815666" lon="15.42270422417909"><ele>462.0</ele><time>2026-05-04T06:36:20.998Z</time></trkpt><trkpt lat="38.14410177718147" lon="15.422820110775636"><ele>462.0</ele><time>2026-05-04T06:36:21.998Z</time></trkpt><trkpt lat="38.1441674153837" lon="15.422920662609819"><ele>462.00000000000006</ele><time>2026-05-04T06:36:22.998Z</time></trkpt><trkpt lat="38.14423911140195" lon="15.423007843264015"><ele>462.00000000000006</ele><time>2026-05-04T06:36:23.998Z</time></trkpt><trkpt lat="38.144316245641456" lon="15.423100955226626"><ele>462.0</ele><time>2026-05-04T06:36:24.998Z</time></trkpt><trkpt lat="38.14438619519092" lon="15.423201652844712"><ele>462.0</ele><time>2026-05-04T06:36:25.998Z</time></trkpt><trkpt lat="38.144438025611024" lon="15.423287999662225"><ele>458.8333333333333</ele><time>2026-05-04T06:36:26.998Z</time></trkpt><trkpt lat="38.144490676280206" lon="15.423372269775864"><ele>455.66666666666663</ele><time>2026-05-04T06:36:27.998Z</time></trkpt><trkpt lat="38.14451611474626" lon="15.423449285145777"><ele>452.5</ele><time>2026-05-04T06:36:28.998Z</time></trkpt><trkpt lat="38.14448654409023" lon="15.423534541972204"><ele>449.3333333333333</ele><time>2026-05-04T06:36:29.998Z</time></trkpt><trkpt lat="38.144484493464866" lon="15.423622867017668"><ele>446.16666666666663</ele><time>2026-05-04T06:36:30.998Z</time></trkpt><trkpt lat="38.14445751218553" lon="15.423714075340584"><ele>443.0</ele><time>2026-05-04T06:36:31.998Z</time></trkpt><trkpt lat="38.144439066129415" lon="15.423816918030601"><ele>441.49999999999994</ele><time>2026-05-04T06:36:32.998Z</time></trkpt><trkpt lat="38.14443055604341" lon="15.423921658360175"><ele>440.0</ele><time>2026-05-04T06:36:33.998Z</time></trkpt><trkpt lat="38.144422162993806" lon="15.424017953835962"><ele>438.5</ele><time>2026-05-04T06:36:34.998Z</time></trkpt><trkpt lat="38.14441382008946" lon="15.42412091007722"><ele>437.0</ele><time>2026-05-04T06:36:35.998Z</time></trkpt><trkpt lat="38.144400726617306" lon="15.424220019079574"><ele>435.49999999999994</ele><time>2026-05-04T06:36:36.998Z</time></trkpt><trkpt lat="38.14437986165815" lon="15.424299416758288"><ele>434.0</ele><time>2026-05-04T06:36:37.998Z</time></trkpt><trkpt lat="38.144465756624136" lon="15.424403624363098"><ele>434.0</ele><time>2026-05-04T06:36:39.998Z</time></trkpt><trkpt lat="38.14455052606151" lon="15.424396291828138"><ele>434.0</ele><time>2026-05-04T06:36:41Z</time></trkpt><trkpt lat="38.144637556502296" lon="15.424384283074298"><ele>434.0</ele><time>2026-05-04T06:36:42Z</time></trkpt><trkpt lat="38.1447316790694" lon="15.424393992562418"><ele>434.0</ele><time>2026-05-04T06:36:43Z</time></trkpt><trkpt lat="38.14481499722862" lon="15.424392063007538"><ele>434.0</ele><time>2026-05-04T06:36:44Z</time></trkpt><trkpt lat="38.14492249561751" lon="15.424399579535994"><ele>438.99999999999994</ele><time>2026-05-04T06:36:45Z</time></trkpt><trkpt lat="38.14503956255385" lon="15.424439061980683"><ele>444.0</ele><time>2026-05-04T06:36:46Z</time></trkpt><trkpt lat="38.14510211261277" lon="15.424494975387272"><ele>449.0</ele><time>2026-05-04T06:36:47Z</time></trkpt><trkpt lat="38.14515981072347" lon="15.424551868549784"><ele>454.0</ele><time>2026-05-04T06:36:48Z</time></trkpt><trkpt lat="38.14523012185692" lon="15.424600901602364"><ele>458.99999999999994</ele><time>2026-05-04T06:36:49Z</time></trkpt><trkpt lat="38.145315977399264" lon="15.424584403024541"><ele>464.0</ele><time>2026-05-04T06:36:50Z</time></trkpt><trkpt lat="38.14538749027231" lon="15.42458440302592"><ele>463.99999999999994</ele><time>2026-05-04T06:36:51Z</time></trkpt><trkpt lat="38.145464557150675" lon="15.424609081894191"><ele>464.0</ele><time>2026-05-04T06:36:52Z</time></trkpt><trkpt lat="38.14551632093244" lon="15.4247110587449"><ele>464.0</ele><time>2026-05-04T06:36:53Z</time></trkpt><trkpt lat="38.14558216335809" lon="15.424775989739507"><ele>464.0</ele><time>2026-05-04T06:36:54Z</time></trkpt><trkpt lat="38.145644679423796" lon="15.424837640387784"><ele>463.99999999999994</ele><time>2026-05-04T06:36:55Z</time></trkpt><trkpt lat="38.145691072385176" lon="15.424895407204545"><ele>464.0</ele><time>2026-05-04T06:36:56Z</time></trkpt><trkpt lat="38.14571034741522" lon="15.424987480926319"><ele>461.4</ele><time>2026-05-04T06:36:58Z</time></trkpt><trkpt lat="38.145703006066356" lon="15.42515564858215"><ele>458.79999999999995</ele><time>2026-05-04T06:37:00Z</time></trkpt><trkpt lat="38.14571140093175" lon="15.425267020722707"><ele>456.20000000000005</ele><time>2026-05-04T06:37:01Z</time></trkpt><trkpt lat="38.145740228432956" lon="15.425372614930101"><ele>453.6</ele><time>2026-05-04T06:37:02Z</time></trkpt><trkpt lat="38.145806949505086" lon="15.425458595856144"><ele>451.0</ele><time>2026-05-04T06:37:03Z</time></trkpt><trkpt lat="38.14585408568195" lon="15.42555179235525"><ele>448.6666666666667</ele><time>2026-05-04T06:37:04Z</time></trkpt><trkpt lat="38.14587435533397" lon="15.425650791890899"><ele>446.33333333333337</ele><time>2026-05-04T06:37:05Z</time></trkpt><trkpt lat="38.145847144562794" lon="15.42574329921495"><ele>444.0</ele><time>2026-05-04T06:37:06Z</time></trkpt><trkpt lat="38.14579873922854" lon="15.42581704404895"><ele>441.66666666666663</ele><time>2026-05-04T06:37:07Z</time></trkpt><trkpt lat="38.14576108162468" lon="15.425916701471245"><ele>439.3333333333333</ele><time>2026-05-04T06:37:08Z</time></trkpt><trkpt lat="38.145730829586164" lon="15.426000080694726"><ele>437.0</ele><time>2026-05-04T06:37:09Z</time></trkpt><trkpt lat="38.1456960770803" lon="15.426109932370068"><ele>436.99999999999994</ele><time>2026-05-04T06:37:10Z</time></trkpt><trkpt lat="38.14568503431618" lon="15.426232348781175"><ele>437.0</ele><time>2026-05-04T06:37:12Z</time></trkpt><trkpt lat="38.14574327252604" lon="15.42627880615956"><ele>437.0</ele><time>2026-05-04T06:37:13Z</time></trkpt><trkpt lat="38.145816067392055" lon="15.426251623698244"><ele>437.0</ele><time>2026-05-04T06:37:14Z</time></trkpt><trkpt lat="38.14587219406707" lon="15.42620704193413"><ele>436.99999999999994</ele><time>2026-05-04T06:37:15Z</time></trkpt><trkpt lat="38.14593042878657" lon="15.426169462633219"><ele>437.0</ele><time>2026-05-04T06:37:16Z</time></trkpt><trkpt lat="38.14600450281156" lon="15.426118258093576"><ele>437.0</ele><time>2026-05-04T06:37:17Z</time></trkpt><trkpt lat="38.146075509081015" lon="15.426063444957007"><ele>437.00000000000006</ele><time>2026-05-04T06:37:18Z</time></trkpt><trkpt lat="38.146156931096876" lon="15.426023077673678"><ele>437.00000000000006</ele><time>2026-05-04T06:37:20Z</time></trkpt><trkpt lat="38.14623415152849" lon="15.426070152556614"><ele>437.0</ele><time>2026-05-04T06:37:22Z</time></trkpt><trkpt lat="38.146182904381426" lon="15.426231249135153"><ele>437.0</ele><time>2026-05-04T06:37:24Z</time></trkpt><trkpt lat="38.14622882198175" lon="15.426390734340178"><ele>434.99999999999994</ele><time>2026-05-04T06:37:26Z</time></trkpt><trkpt lat="38.14625944540041" lon="15.426494476926795"><ele>433.0</ele><time>2026-05-04T06:37:27Z</time></trkpt><trkpt lat="38.14628822327351" lon="15.426609784885915"><ele>431.0</ele><time>2026-05-04T06:37:27.999Z</time></trkpt><trkpt lat="38.14632084472839" lon="15.42670263167697"><ele>429.0</ele><time>2026-05-04T06:37:28.999Z</time></trkpt><trkpt lat="38.146372662970215" lon="15.426765729014233"><ele>426.99999999999994</ele><time>2026-05-04T06:37:29.999Z</time></trkpt><trkpt lat="38.14642518056285" lon="15.42682443271418"><ele>425.0</ele><time>2026-05-04T06:37:30.999Z</time></trkpt><trkpt lat="38.14645993193492" lon="15.426957265071188"><ele>424.99999999999994</ele><time>2026-05-04T06:37:32.999Z</time></trkpt><trkpt lat="38.146408674404114" lon="15.427091348091048"><ele>425.0</ele><time>2026-05-04T06:37:34.999Z</time></trkpt><trkpt lat="38.14637110685096" lon="15.427161063225622"><ele>425.0</ele><time>2026-05-04T06:37:35.999Z</time></trkpt><trkpt lat="38.14633072380833" lon="15.427239128292298"><ele>425.0</ele><time>2026-05-04T06:37:37.999Z</time></trkpt><trkpt lat="38.1462365107624" lon="15.427276876238595"><ele>424.99999999999994</ele><time>2026-05-04T06:37:55.999Z</time></trkpt><trkpt lat="38.14617415047064" lon="15.427293976482394"><ele>425.0</ele><time>2026-05-04T06:37:56.999Z</time></trkpt><trkpt lat="38.146104068722316" lon="15.427294575235708"><ele>426.3333333333333</ele><time>2026-05-04T06:37:57.999Z</time></trkpt><trkpt lat="38.14603128202852" lon="15.42731130786939"><ele>427.66666666666663</ele><time>2026-05-04T06:37:58.999Z</time></trkpt><trkpt lat="38.14594775769095" lon="15.427384976799782"><ele>429.0</ele><time>2026-05-04T06:38:00.999Z</time></trkpt><trkpt lat="38.14590968377373" lon="15.427458031217595"><ele>430.33333333333337</ele><time>2026-05-04T06:38:01.999Z</time></trkpt><trkpt lat="38.145856535444466" lon="15.427521464432024"><ele>431.6666666666667</ele><time>2026-05-04T06:38:02.999Z</time></trkpt><trkpt lat="38.145794411939164" lon="15.427580646260164"><ele>433.0</ele><time>2026-05-04T06:38:03.999Z</time></trkpt><trkpt lat="38.14572769266787" lon="15.427550328706062"><ele>434.50000000000006</ele><time>2026-05-04T06:38:04.999Z</time></trkpt><trkpt lat="38.14565452851664" lon="15.427553930119604"><ele>436.0</ele><time>2026-05-04T06:38:05.999Z</time></trkpt><trkpt lat="38.145539631020206" lon="15.427542596924294"><ele>437.5</ele><time>2026-05-04T06:38:06.999Z</time></trkpt><trkpt lat="38.14543252168532" lon="15.427536161576132"><ele>439.0</ele><time>2026-05-04T06:38:07.999Z</time></trkpt><trkpt lat="38.145361151216804" lon="15.427511826275289"><ele>440.50000000000006</ele><time>2026-05-04T06:38:08.999Z</time></trkpt><trkpt lat="38.1452892222429" lon="15.427472083628915"><ele>442.0</ele><time>2026-05-04T06:38:09.999Z</time></trkpt><trkpt lat="38.145202565591795" lon="15.427435375900869"><ele>442.0</ele><time>2026-05-04T06:38:10.999Z</time></trkpt><trkpt lat="38.14510717232194" lon="15.427410668131284"><ele>442.0</ele><time>2026-05-04T06:38:11.999Z</time></trkpt><trkpt lat="38.14499984273453" lon="15.427363720501939"><ele>442.0</ele><time>2026-05-04T06:38:12.999Z</time></trkpt><trkpt lat="38.144887780642655" lon="15.427298952944154"><ele>442.0</ele><time>2026-05-04T06:38:13.999Z</time></trkpt><trkpt lat="38.144779087008025" lon="15.42724663361124"><ele>441.40000000000003</ele><time>2026-05-04T06:38:14.999Z</time></trkpt><trkpt lat="38.14468086912419" lon="15.427191236848953"><ele>440.80000000000007</ele><time>2026-05-04T06:38:15.999Z</time></trkpt><trkpt lat="38.14458169147674" lon="15.427118537548425"><ele>440.2</ele><time>2026-05-04T06:38:16.999Z</time></trkpt><trkpt lat="38.14451604300894" lon="15.427051037912358"><ele>439.6</ele><time>2026-05-04T06:38:17.999Z</time></trkpt><trkpt lat="38.14449512958935" lon="15.426975131521262"><ele>439.0</ele><time>2026-05-04T06:38:19.999Z</time></trkpt><trkpt lat="38.1445535795193" lon="15.426889462203444"><ele>439.00000000000006</ele><time>2026-05-04T06:38:22.998Z</time></trkpt><trkpt lat="38.14459289438369" lon="15.426779401590098"><ele>439.0</ele><time>2026-05-04T06:38:23.998Z</time></trkpt><trkpt lat="38.14456512676735" lon="15.426646059160777"><ele>439.0</ele><time>2026-05-04T06:38:24.998Z</time></trkpt><trkpt lat="38.14456181328263" lon="15.42653759256956"><ele>439.0</ele><time>2026-05-04T06:38:25.998Z</time></trkpt><trkpt lat="38.14458565071563" lon="15.42643737460084"><ele>439.00000000000006</ele><time>2026-05-04T06:38:26.998Z</time></trkpt><trkpt lat="38.14464004770356" lon="15.426381801770978"><ele>439.0</ele><time>2026-05-04T06:38:27.998Z</time></trkpt><trkpt lat="38.144712955786304" lon="15.426245743964666"><ele>433.1666666666667</ele><time>2026-05-04T06:38:29.998Z</time></trkpt><trkpt lat="38.14468968608853" lon="15.426143822318235"><ele>427.33333333333337</ele><time>2026-05-04T06:38:30.998Z</time></trkpt><trkpt lat="38.14460978281248" lon="15.42606210769807"><ele>421.5</ele><time>2026-05-04T06:38:31.998Z</time></trkpt><trkpt lat="38.14452008926887" lon="15.426043254111319"><ele>415.66666666666663</ele><time>2026-05-04T06:38:32.998Z</time></trkpt><trkpt lat="38.14444730552513" lon="15.426018888540359"><ele>409.8333333333333</ele><time>2026-05-04T06:38:33.998Z</time></trkpt><trkpt lat="38.14436750833387" lon="15.426020955265688"><ele>404.0</ele><time>2026-05-04T06:38:34.998Z</time></trkpt><trkpt lat="38.144312025255225" lon="15.426097525792178"><ele>404.0</ele><time>2026-05-04T06:38:35.998Z</time></trkpt><trkpt lat="38.144249420242396" lon="15.42614420571373"><ele>404.0</ele><time>2026-05-04T06:38:36.998Z</time></trkpt><trkpt lat="38.14417278777632" lon="15.426193675696178"><ele>404.0</ele><time>2026-05-04T06:38:37.998Z</time></trkpt><trkpt lat="38.14408022360942" lon="15.426264656839685"><ele>404.0</ele><time>2026-05-04T06:38:38.998Z</time></trkpt><trkpt lat="38.14398274298125" lon="15.426334649702595"><ele>404.0</ele><time>2026-05-04T06:38:39.998Z</time></trkpt><trkpt lat="38.14388797479032" lon="15.426394936947885"><ele>404.2</ele><time>2026-05-04T06:38:40.998Z</time></trkpt><trkpt lat="38.1437822489887" lon="15.42642996559229"><ele>404.4</ele><time>2026-05-04T06:38:41.998Z</time></trkpt><trkpt lat="38.14367921352345" lon="15.426433192887483"><ele>404.6</ele><time>2026-05-04T06:38:42.998Z</time></trkpt><trkpt lat="38.14358039734745" lon="15.426385816734857"><ele>404.8</ele><time>2026-05-04T06:38:43.998Z</time></trkpt><trkpt lat="38.14348691657886" lon="15.426342166890647"><ele>405.0</ele><time>2026-05-04T06:38:44.998Z</time></trkpt><trkpt lat="38.143375486807535" lon="15.42628525672351"><ele>405.0</ele><time>2026-05-04T06:38:45.998Z</time></trkpt><trkpt lat="38.143247190186905" lon="15.42621177890894"><ele>405.0</ele><time>2026-05-04T06:38:47Z</time></trkpt><trkpt lat="38.14309821949645" lon="15.42610052070541"><ele>405.0</ele><time>2026-05-04T06:38:48Z</time></trkpt><trkpt lat="38.14297716354675" lon="15.42600144672277"><ele>411.5</ele><time>2026-05-04T06:38:49Z</time></trkpt><trkpt lat="38.14289099487582" lon="15.42593224209122"><ele>418.0</ele><time>2026-05-04T06:38:50Z</time></trkpt><trkpt lat="38.142793469555876" lon="15.425860932202882"><ele>424.5</ele><time>2026-05-04T06:38:51Z</time></trkpt><trkpt lat="38.14269915039722" lon="15.425812121367724"><ele>431.0</ele><time>2026-05-04T06:38:52Z</time></trkpt><trkpt lat="38.14258169181653" lon="15.425729776971165"><ele>431.0</ele><time>2026-05-04T06:38:53Z</time></trkpt><trkpt lat="38.142479833269626" lon="15.42561657496564"><ele>431.0</ele><time>2026-05-04T06:38:54Z</time></trkpt><trkpt lat="38.14238134336412" lon="15.425510871628852"><ele>431.0</ele><time>2026-05-04T06:38:55Z</time></trkpt><trkpt lat="38.14228908309079" lon="15.42539247540379"><ele>431.0</ele><time>2026-05-04T06:38:56Z</time></trkpt><trkpt lat="38.14221059920629" lon="15.425273128257194"><ele>428.16666666666663</ele><time>2026-05-04T06:38:57Z</time></trkpt><trkpt lat="38.14215712247446" lon="15.425170833517432"><ele>425.3333333333333</ele><time>2026-05-04T06:38:58Z</time></trkpt><trkpt lat="38.142141205146935" lon="15.425085942051961"><ele>422.5</ele><time>2026-05-04T06:38:59Z</time></trkpt><trkpt lat="38.14211100282008" lon="15.424965364424365"><ele>419.66666666666663</ele><time>2026-05-04T06:39:00Z</time></trkpt><trkpt lat="38.14207175765222" lon="15.42486566003307"><ele>416.8333333333333</ele><time>2026-05-04T06:39:01Z</time></trkpt><trkpt lat="38.142003124946626" lon="15.424810206665526"><ele>414.0</ele><time>2026-05-04T06:39:02Z</time></trkpt><trkpt lat="38.14193294544868" lon="15.424802868056759"><ele>414.0</ele><time>2026-05-04T06:39:03Z</time></trkpt><trkpt lat="38.14185157206435" lon="15.424850942966517"><ele>414.0</ele><time>2026-05-04T06:39:04Z</time></trkpt><trkpt lat="38.14177734760588" lon="15.424874741557131"><ele>414.0</ele><time>2026-05-04T06:39:05Z</time></trkpt><trkpt lat="38.14170584884698" lon="15.424921384905964"><ele>414.0</ele><time>2026-05-04T06:39:06Z</time></trkpt><trkpt lat="38.14162923856672" lon="15.424985038382058"><ele>414.0</ele><time>2026-05-04T06:39:07Z</time></trkpt><trkpt lat="38.141535680717915" lon="15.425036428195344"><ele>414.0</ele><time>2026-05-04T06:39:08Z</time></trkpt><trkpt lat="38.141449783034155" lon="15.425094540195284"><ele>410.4</ele><time>2026-05-04T06:39:09Z</time></trkpt><trkpt lat="38.141362263481916" lon="15.425152806084798"><ele>406.79999999999995</ele><time>2026-05-04T06:39:10Z</time></trkpt><trkpt lat="38.14127439834836" lon="15.425200836941817"><ele>403.20000000000005</ele><time>2026-05-04T06:39:11Z</time></trkpt><trkpt lat="38.14118008750354" lon="15.425198492432648"><ele>399.6</ele><time>2026-05-04T06:39:12Z</time></trkpt><trkpt lat="38.14109154082988" lon="15.42519539683853"><ele>396.0</ele><time>2026-05-04T06:39:13Z</time></trkpt><trkpt lat="38.14100468432302" lon="15.42518138007987"><ele>396.0</ele><time>2026-05-04T06:39:14Z</time></trkpt><trkpt lat="38.14090630512367" lon="15.425158996994462"><ele>396.0</ele><time>2026-05-04T06:39:15Z</time></trkpt><trkpt lat="38.14081380141307" lon="15.425141798597256"><ele>396.0</ele><time>2026-05-04T06:39:16Z</time></trkpt><trkpt lat="38.14072664824421" lon="15.425133296671348"><ele>396.0</ele><time>2026-05-04T06:39:17Z</time></trkpt><trkpt lat="38.14062504055198" lon="15.425137930266848"><ele>396.0</ele><time>2026-05-04T06:39:18Z</time></trkpt><trkpt lat="38.14053692523016" lon="15.425147397115534"><ele>391.8</ele><time>2026-05-04T06:39:19Z</time></trkpt><trkpt lat="38.140470797415354" lon="15.425198692790996"><ele>387.6</ele><time>2026-05-04T06:39:20Z</time></trkpt><trkpt lat="38.14040597713404" lon="15.425327452418827"><ele>383.4</ele><time>2026-05-04T06:39:22Z</time></trkpt><trkpt lat="38.14038442424418" lon="15.425433091647202"><ele>379.2</ele><time>2026-05-04T06:39:23Z</time></trkpt><trkpt lat="38.140364437919324" lon="15.425553373616447"><ele>375.0</ele><time>2026-05-04T06:39:24Z</time></trkpt><trkpt lat="38.14035971626925" lon="15.425665062484226"><ele>375.0</ele><time>2026-05-04T06:39:25Z</time></trkpt><trkpt lat="38.14037149104883" lon="15.425773612330111"><ele>375.0</ele><time>2026-05-04T06:39:26Z</time></trkpt><trkpt lat="38.14039852950745" lon="15.425881556378274"><ele>375.0</ele><time>2026-05-04T06:39:27Z</time></trkpt><trkpt lat="38.14043666313503" lon="15.425970730391573"><ele>375.0</ele><time>2026-05-04T06:39:28Z</time></trkpt><trkpt lat="38.14047670087986" lon="15.426046355199196"><ele>375.0</ele><time>2026-05-04T06:39:29Z</time></trkpt><trkpt lat="38.14052691114437" lon="15.426114170647569"><ele>375.0</ele><time>2026-05-04T06:39:30Z</time></trkpt><trkpt lat="38.14056928895284" lon="15.426204234328589"><ele>375.0</ele><time>2026-05-04T06:39:31Z</time></trkpt><trkpt lat="38.14057699273298" lon="15.426303864209245"><ele>375.0</ele><time>2026-05-04T06:39:32Z</time></trkpt><trkpt lat="38.14061462841089" lon="15.426430600418474"><ele>375.0</ele><time>2026-05-04T06:39:32.999Z</time></trkpt><trkpt lat="38.14066630757671" lon="15.42653882622947"><ele>375.0</ele><time>2026-05-04T06:39:33.999Z</time></trkpt><trkpt lat="38.14070553770751" lon="15.426632256678591"><ele>375.0</ele><time>2026-05-04T06:39:34.999Z</time></trkpt><trkpt lat="38.1407477144853" lon="15.426715051694421"><ele>375.0</ele><time>2026-05-04T06:39:35.999Z</time></trkpt><trkpt lat="38.14075360299022" lon="15.426801387295745"><ele>374.4</ele><time>2026-05-04T06:39:36.999Z</time></trkpt><trkpt lat="38.140678595543946" lon="15.426845505018536"><ele>373.8</ele><time>2026-05-04T06:39:40.999Z</time></trkpt><trkpt lat="38.14059288448811" lon="15.426853252616192"><ele>373.20000000000005</ele><time>2026-05-04T06:39:41.999Z</time></trkpt><trkpt lat="38.14048329543505" lon="15.426812137984754"><ele>372.6</ele><time>2026-05-04T06:39:42.999Z</time></trkpt><trkpt lat="38.14037910123247" lon="15.426785682365558"><ele>372.0</ele><time>2026-05-04T06:39:43.999Z</time></trkpt><trkpt lat="38.140297940327095" lon="15.426781450117877"><ele>372.0</ele><time>2026-05-04T06:39:44.999Z</time></trkpt><trkpt lat="38.14018693552252" lon="15.426831134828799"><ele>372.0</ele><time>2026-05-04T06:39:46.999Z</time></trkpt><trkpt lat="38.14014347541235" lon="15.426901630375154"><ele>372.0</ele><time>2026-05-04T06:39:47.999Z</time></trkpt><trkpt lat="38.14010121476824" lon="15.426985766185036"><ele>372.0</ele><time>2026-05-04T06:39:48.999Z</time></trkpt><trkpt lat="38.14007038629153" lon="15.427071534328368"><ele>372.0</ele><time>2026-05-04T06:39:49.999Z</time></trkpt><trkpt lat="38.14006893415832" lon="15.427175531883025"><ele>372.0</ele><time>2026-05-04T06:39:50.999Z</time></trkpt><trkpt lat="38.14007163392169" lon="15.42726722665803"><ele>373.8333333333333</ele><time>2026-05-04T06:39:51.999Z</time></trkpt><trkpt lat="38.14010368383844" lon="15.42734333339951"><ele>375.6666666666667</ele><time>2026-05-04T06:39:52.999Z</time></trkpt><trkpt lat="38.140053620873445" lon="15.427459140795804"><ele>377.5</ele><time>2026-05-04T06:39:54.999Z</time></trkpt><trkpt lat="38.139994059465536" lon="15.427526558579553"><ele>379.33333333333337</ele><time>2026-05-04T06:39:55.999Z</time></trkpt><trkpt lat="38.139934005419256" lon="15.427610491891132"><ele>381.1666666666667</ele><time>2026-05-04T06:39:56.999Z</time></trkpt><trkpt lat="38.139869580738534" lon="15.427698103731847"><ele>383.0</ele><time>2026-05-04T06:39:57.999Z</time></trkpt><trkpt lat="38.139771706718534" lon="15.427788553320765"><ele>379.6666666666667</ele><time>2026-05-04T06:39:59.999Z</time></trkpt><trkpt lat="38.1396569632547" lon="15.427856934205938"><ele>376.33333333333337</ele><time>2026-05-04T06:40:01.999Z</time></trkpt><trkpt lat="38.13959964362129" lon="15.427941054140714"><ele>373.0</ele><time>2026-05-04T06:40:02.999Z</time></trkpt><trkpt lat="38.1395173971718" lon="15.42792316923903"><ele>369.6666666666667</ele><time>2026-05-04T06:40:03.999Z</time></trkpt><trkpt lat="38.13944439702419" lon="15.427957308765674"><ele>366.3333333333333</ele><time>2026-05-04T06:40:04.999Z</time></trkpt><trkpt lat="38.139398659971626" lon="15.428016452961494"><ele>363.0</ele><time>2026-05-04T06:40:05.999Z</time></trkpt><trkpt lat="38.139342631610745" lon="15.428135390173498"><ele>363.0</ele><time>2026-05-04T06:40:07.999Z</time></trkpt><trkpt lat="38.139275355672126" lon="15.428141660380225"><ele>363.0</ele><time>2026-05-04T06:40:10.999Z</time></trkpt><trkpt lat="38.13929491985793" lon="15.427980902626706"><ele>363.0</ele><time>2026-05-04T06:40:12.999Z</time></trkpt><trkpt lat="38.139317365489525" lon="15.427894953293633"><ele>363.0</ele><time>2026-05-04T06:40:13.999Z</time></trkpt><trkpt lat="38.139366651601925" lon="15.427830892382296"><ele>363.0</ele><time>2026-05-04T06:40:14.999Z</time></trkpt><trkpt lat="38.13939055522049" lon="15.42772220272912"><ele>363.0</ele><time>2026-05-04T06:40:16.999Z</time></trkpt><trkpt lat="38.13933380466044" lon="15.427648831539353"><ele>363.0</ele><time>2026-05-04T06:40:18.999Z</time></trkpt><trkpt lat="38.13927483467879" lon="15.427739344271236"><ele>363.0</ele><time>2026-05-04T06:40:19.999Z</time></trkpt><trkpt lat="38.139241242898756" lon="15.427824815358958"><ele>363.0</ele><time>2026-05-04T06:40:20.999Z</time></trkpt><trkpt lat="38.139179737743646" lon="15.427899706395305"><ele>363.0</ele><time>2026-05-04T06:40:21.999Z</time></trkpt><trkpt lat="38.13913783605833" lon="15.428000905949697"><ele>363.0</ele><time>2026-05-04T06:40:22.999Z</time></trkpt><trkpt lat="38.13910242224097" lon="15.428099914642575"><ele>363.0</ele><time>2026-05-04T06:40:23.999Z</time></trkpt><trkpt lat="38.13907903331382" lon="15.428184300162387"><ele>363.0</ele><time>2026-05-04T06:40:24.999Z</time></trkpt><trkpt lat="38.13906493067222" lon="15.428266455148599"><ele>363.0</ele><time>2026-05-04T06:40:25.999Z</time></trkpt><trkpt lat="38.139062388335056" lon="15.428356098907477"><ele>363.0</ele><time>2026-05-04T06:40:26.999Z</time></trkpt><trkpt lat="38.13910109137925" lon="15.428440339989203"><ele>363.0</ele><time>2026-05-04T06:40:27.999Z</time></trkpt><trkpt lat="38.13909270808508" lon="15.428539966878336"><ele>363.0</ele><time>2026-05-04T06:40:28.998Z</time></trkpt><trkpt lat="38.13907602026317" lon="15.428620658460092"><ele>363.0</ele><time>2026-05-04T06:40:29.998Z</time></trkpt><trkpt lat="38.139048573878824" lon="15.428740400789575"><ele>363.2</ele><time>2026-05-04T06:40:31.998Z</time></trkpt><trkpt lat="38.13902627889863" lon="15.42883347067831"><ele>363.4</ele><time>2026-05-04T06:40:41.998Z</time></trkpt><trkpt lat="38.13915897027233" lon="15.428953618650498"><ele>363.59999999999997</ele><time>2026-05-04T06:40:43.998Z</time></trkpt><trkpt lat="38.1391742186052" lon="15.429059430497642"><ele>363.79999999999995</ele><time>2026-05-04T06:40:45.998Z</time></trkpt><trkpt lat="38.13916597241524" lon="15.42917398218524"><ele>364.0</ele><time>2026-05-04T06:40:47.998Z</time></trkpt><trkpt lat="38.1391498154823" lon="15.429293120866765"><ele>364.0</ele><time>2026-05-04T06:40:49.998Z</time></trkpt><trkpt lat="38.13908831615371" lon="15.429393755635461"><ele>364.0</ele><time>2026-05-04T06:40:51.998Z</time></trkpt><trkpt lat="38.13907382388284" lon="15.429476312025663"><ele>364.0</ele><time>2026-05-04T06:40:54Z</time></trkpt><trkpt lat="38.13913626261514" lon="15.42953212977271"><ele>364.0</ele><time>2026-05-04T06:40:56Z</time></trkpt><trkpt lat="38.1391943425682" lon="15.42956485665908"><ele>364.0</ele><time>2026-05-04T06:40:58Z</time></trkpt><trkpt lat="38.13919757218601" lon="15.429696622470336"><ele>364.0</ele><time>2026-05-04T06:41:01Z</time></trkpt><trkpt lat="38.13916185204157" lon="15.42977352623142"><ele>364.5</ele><time>2026-05-04T06:41:03Z</time></trkpt><trkpt lat="38.13908023845544" lon="15.429776592430597"><ele>365.0</ele><time>2026-05-04T06:41:06Z</time></trkpt><trkpt lat="38.13900490504336" lon="15.42973952611448"><ele>365.5</ele><time>2026-05-04T06:41:08Z</time></trkpt><trkpt lat="38.13891794389796" lon="15.429717364204059"><ele>366.0</ele><time>2026-05-04T06:41:10Z</time></trkpt><trkpt lat="38.13884827050007" lon="15.429695372889306"><ele>366.5</ele><time>2026-05-04T06:41:14Z</time></trkpt><trkpt lat="38.13878014469518" lon="15.429676440952315"><ele>367.0</ele><time>2026-05-04T06:41:19Z</time></trkpt><trkpt lat="38.138779960298976" lon="15.429765266429428"><ele>372.8333333333333</ele><time>2026-05-04T06:42:06.999Z</time></trkpt><trkpt lat="38.13874181526404" lon="15.42983382813761"><ele>378.66666666666663</ele><time>2026-05-04T06:42:14.999Z</time></trkpt><trkpt lat="38.13878906015425" lon="15.42994096943646"><ele>384.5</ele><time>2026-05-04T06:43:19Z</time></trkpt><trkpt lat="38.138725450237686" lon="15.429950426810372"><ele>390.3333333333333</ele><time>2026-05-04T06:43:25Z</time></trkpt><trkpt lat="38.13871056475383" lon="15.430036248154726"><ele>396.1666666666667</ele><time>2026-05-04T06:44:42.998Z</time></trkpt><trkpt lat="38.13878192964832" lon="15.430088959985168"><ele>402.0</ele><time>2026-05-04T06:44:44.998Z</time></trkpt><trkpt lat="38.1386666611739" lon="15.430154863710026"><ele>402.0</ele><time>2026-05-04T06:45:37Z</time></trkpt><trkpt lat="38.13862547623517" lon="15.430274107642035"><ele>402.0</ele><time>2026-05-04T06:46:48.998Z</time></trkpt><trkpt lat="38.138679966934056" lon="15.430332375447966"><ele>402.0</ele><time>2026-05-04T06:47:03.998Z</time></trkpt><trkpt lat="38.13872785751569" lon="15.43040739998651"><ele>402.0</ele><time>2026-05-04T06:47:24Z</time></trkpt><trkpt lat="38.13880801527706" lon="15.430417976941316"><ele>402.0</ele><time>2026-05-04T06:47:30Z</time></trkpt><trkpt lat="38.13887111085796" lon="15.43047044861703"><ele>402.0</ele><time>2026-05-04T06:47:44Z</time></trkpt><trkpt lat="38.13893054850765" lon="15.430419149552346"><ele>403.0</ele><time>2026-05-04T06:48:29.999Z</time></trkpt><trkpt lat="38.13893502894675" lon="15.430518073602187"><ele>404.0</ele><time>2026-05-04T06:48:55.998Z</time></trkpt><trkpt lat="38.138994945153776" lon="15.430551739169601"><ele>405.0</ele><time>2026-05-04T06:49:34Z</time></trkpt><trkpt lat="38.13905238408799" lon="15.430590676429196"><ele>406.0</ele><time>2026-05-04T06:49:56.999Z</time></trkpt><trkpt lat="38.1389981852708" lon="15.43054603142687"><ele>407.0</ele><time>2026-05-04T06:50:45.999Z</time></trkpt><trkpt lat="38.13905483463245" lon="15.430608021965813"><ele>408.0</ele><time>2026-05-04T06:51:11.998Z</time></trkpt><trkpt lat="38.139015548510336" lon="15.430681644321862"><ele>409.0</ele><time>2026-05-04T06:51:28Z</time></trkpt><trkpt lat="38.13894351079318" lon="15.430720106513997"><ele>409.0</ele><time>2026-05-04T06:51:35Z</time></trkpt><trkpt lat="38.138866268710665" lon="15.430727604120523"><ele>409.0</ele><time>2026-05-04T06:51:38Z</time></trkpt><trkpt lat="38.138807222461" lon="15.430756529739627"><ele>409.0</ele><time>2026-05-04T06:51:41Z</time></trkpt><trkpt lat="38.13874832339028" lon="15.430789251958497"><ele>409.0</ele><time>2026-05-04T06:51:43Z</time></trkpt><trkpt lat="38.13869582513185" lon="15.430837909268545"><ele>409.0</ele><time>2026-05-04T06:51:45Z</time></trkpt><trkpt lat="38.138625020163566" lon="15.430831324168581"><ele>409.0</ele><time>2026-05-04T06:51:50Z</time></trkpt><trkpt lat="38.13855479445675" lon="15.430804794937048"><ele>409.0</ele><time>2026-05-04T06:51:55Z</time></trkpt><trkpt lat="38.138490074248644" lon="15.430836475726812"><ele>409.0</ele><time>2026-05-04T06:52:01Z</time></trkpt><trkpt lat="38.138454421680635" lon="15.430913673026051"><ele>409.0</ele><time>2026-05-04T06:52:06.999Z</time></trkpt><trkpt lat="38.13841130460913" lon="15.430988663233865"><ele>409.0</ele><time>2026-05-04T06:52:16.999Z</time></trkpt><trkpt lat="38.13848838413928" lon="15.431021812472437"><ele>409.0</ele><time>2026-05-04T06:52:23.999Z</time></trkpt><trkpt lat="38.13855202899192" lon="15.431019548797156"><ele>409.0</ele><time>2026-05-04T06:52:27.999Z</time></trkpt><trkpt lat="38.138610693645084" lon="15.431089853765629"><ele>409.0</ele><time>2026-05-04T06:52:29.999Z</time></trkpt><trkpt lat="38.13860272983084" lon="15.431176728915553"><ele>409.0</ele><time>2026-05-04T06:52:34.999Z</time></trkpt><trkpt lat="38.13861965887368" lon="15.431263121233423"><ele>409.50000000000006</ele><time>2026-05-04T06:52:36.999Z</time></trkpt><trkpt lat="38.13861665151812" lon="15.431359722747597"><ele>410.0</ele><time>2026-05-04T06:52:38.999Z</time></trkpt><trkpt lat="38.13861339907963" lon="15.431443550728192"><ele>410.5</ele><time>2026-05-04T06:52:40.999Z</time></trkpt><trkpt lat="38.13863294560183" lon="15.431530064824244"><ele>411.0</ele><time>2026-05-04T06:52:46.999Z</time></trkpt><trkpt lat="38.1386417618868" lon="15.431640873603317"><ele>411.50000000000006</ele><time>2026-05-04T06:52:50.999Z</time></trkpt><trkpt lat="38.13865863022779" lon="15.431737970417457"><ele>412.0</ele><time>2026-05-04T06:52:52.999Z</time></trkpt><trkpt lat="38.13867783896878" lon="15.431838069750825"><ele>411.99999999999994</ele><time>2026-05-04T06:52:56.999Z</time></trkpt><trkpt lat="38.138668041076485" lon="15.431921683929204"><ele>412.0</ele><time>2026-05-04T06:52:59.999Z</time></trkpt><trkpt lat="38.13861178508069" lon="15.43197225922263"><ele>412.0</ele><time>2026-05-04T06:53:10.998Z</time></trkpt><trkpt lat="38.138574423746775" lon="15.432062877418057"><ele>412.0</ele><time>2026-05-04T06:53:16.998Z</time></trkpt><trkpt lat="38.138524905190046" lon="15.43212182718586"><ele>412.0</ele><time>2026-05-04T06:53:19.998Z</time></trkpt><trkpt lat="38.13852447559932" lon="15.432218270568981"><ele>411.99999999999994</ele><time>2026-05-04T06:53:23.998Z</time></trkpt><trkpt lat="38.13848915017666" lon="15.432299523867858"><ele>412.0</ele><time>2026-05-04T06:53:32Z</time></trkpt><trkpt lat="38.13845012557123" lon="15.432374568885677"><ele>411.1428571428571</ele><time>2026-05-04T06:53:38Z</time></trkpt><trkpt lat="38.138396368239434" lon="15.432439409682154"><ele>410.2857142857143</ele><time>2026-05-04T06:53:41Z</time></trkpt><trkpt lat="38.13837217278899" lon="15.432521682184564"><ele>409.42857142857144</ele><time>2026-05-04T06:53:58Z</time></trkpt><trkpt lat="38.13831037838323" lon="15.432490693281263"><ele>408.57142857142856</ele><time>2026-05-04T06:54:25.999Z</time></trkpt><trkpt lat="38.138245496668006" lon="15.432493708550444"><ele>407.7142857142857</ele><time>2026-05-04T06:54:37.999Z</time></trkpt><trkpt lat="38.13819052102188" lon="15.432565701512456"><ele>406.85714285714283</ele><time>2026-05-04T06:54:51.999Z</time></trkpt><trkpt lat="38.1381405249093" lon="15.4326231530888"><ele>406.0</ele><time>2026-05-04T06:54:55.999Z</time></trkpt><trkpt lat="38.13812039122955" lon="15.432704507482123"><ele>408.7142857142857</ele><time>2026-05-04T06:54:58.999Z</time></trkpt><trkpt lat="38.138061247417305" lon="15.432734480976023"><ele>411.42857142857144</ele><time>2026-05-04T06:55:05.999Z</time></trkpt><trkpt lat="38.13801274157778" lon="15.432793170684358"><ele>414.1428571428571</ele><time>2026-05-04T06:55:21.998Z</time></trkpt><trkpt lat="38.137950085158565" lon="15.432817790412265"><ele>416.8571428571429</ele><time>2026-05-04T06:55:34Z</time></trkpt><trkpt lat="38.13792461126143" lon="15.432945424464428"><ele>419.57142857142856</ele><time>2026-05-04T06:55:37Z</time></trkpt><trkpt lat="38.13788536392926" lon="15.433031017233915"><ele>422.2857142857143</ele><time>2026-05-04T06:55:40Z</time></trkpt><trkpt lat="38.13789685229497" lon="15.433111564594137"><ele>425.0</ele><time>2026-05-04T06:55:42Z</time></trkpt><trkpt lat="38.137912169182194" lon="15.433199564588147"><ele>424.99999999999994</ele><time>2026-05-04T06:55:45Z</time></trkpt><trkpt lat="38.13787851005335" lon="15.433318320719842"><ele>425.0</ele><time>2026-05-04T06:56:03Z</time></trkpt><trkpt lat="38.13782356457413" lon="15.43338780114811"><ele>425.0</ele><time>2026-05-04T06:56:11Z</time></trkpt><trkpt lat="38.13778008882632" lon="15.433456273305941"><ele>425.0</ele><time>2026-05-04T06:56:13Z</time></trkpt><trkpt lat="38.13773914735304" lon="15.433535579182868"><ele>424.99999999999994</ele><time>2026-05-04T06:56:15.999Z</time></trkpt><trkpt lat="38.13770980938333" lon="15.433620908830774"><ele>425.0</ele><time>2026-05-04T06:56:22.999Z</time></trkpt><trkpt lat="38.13771204889024" lon="15.43371690556594"><ele>424.16666666666663</ele><time>2026-05-04T06:56:45.999Z</time></trkpt><trkpt lat="38.137703225560685" lon="15.433833170899623"><ele>423.3333333333333</ele><time>2026-05-04T06:56:53.999Z</time></trkpt><trkpt lat="38.13765075065428" lon="15.43392086347162"><ele>422.5</ele><time>2026-05-04T06:56:55.999Z</time></trkpt><trkpt lat="38.137606353702715" lon="15.434014235548949"><ele>421.66666666666663</ele><time>2026-05-04T06:56:58.999Z</time></trkpt><trkpt lat="38.13757460078236" lon="15.434105167553861"><ele>420.8333333333333</ele><time>2026-05-04T06:57:02.999Z</time></trkpt><trkpt lat="38.13751525720796" lon="15.43418101913731"><ele>420.0</ele><time>2026-05-04T06:57:05.999Z</time></trkpt><trkpt lat="38.137467643857974" lon="15.434241400801659"><ele>420.0</ele><time>2026-05-04T06:57:12.998Z</time></trkpt><trkpt lat="38.137399528161474" lon="15.434305556063748"><ele>420.0</ele><time>2026-05-04T06:57:15.998Z</time></trkpt><trkpt lat="38.137390756835615" lon="15.434411463368637"><ele>420.0</ele><time>2026-05-04T06:57:18.998Z</time></trkpt><trkpt lat="38.13737295363444" lon="15.434492771043098"><ele>420.0</ele><time>2026-05-04T06:57:21.998Z</time></trkpt><trkpt lat="38.13738612491313" lon="15.434571323677886"><ele>420.0</ele><time>2026-05-04T06:57:24.998Z</time></trkpt><trkpt lat="38.137396327877994" lon="15.434674022608105"><ele>420.0</ele><time>2026-05-04T06:57:27.998Z</time></trkpt><trkpt lat="38.13737100732616" lon="15.434796763782757"><ele>422.1666666666667</ele><time>2026-05-04T06:57:31.998Z</time></trkpt><trkpt lat="38.13740158640903" lon="15.434914848021048"><ele>424.33333333333337</ele><time>2026-05-04T06:57:34.998Z</time></trkpt><trkpt lat="38.13739558546355" lon="15.435002141142883"><ele>426.5</ele><time>2026-05-04T06:57:36Z</time></trkpt><trkpt lat="38.13737600799246" lon="15.435086284108314"><ele>428.6666666666667</ele><time>2026-05-04T06:57:37Z</time></trkpt><trkpt lat="38.137358727696785" lon="15.435164250206364"><ele>430.83333333333337</ele><time>2026-05-04T06:57:38Z</time></trkpt><trkpt lat="38.13735666400076" lon="15.43527725392551"><ele>433.0</ele><time>2026-05-04T06:57:40Z</time></trkpt><trkpt lat="38.13735467995978" lon="15.435367273476619"><ele>435.85714285714283</ele><time>2026-05-04T06:58:38.999Z</time></trkpt><trkpt lat="38.1372889617352" lon="15.435319025938822"><ele>438.71428571428567</ele><time>2026-05-04T06:58:49.999Z</time></trkpt><trkpt lat="38.1372432863372" lon="15.43524795110304"><ele>441.57142857142856</ele><time>2026-05-04T06:58:52.999Z</time></trkpt><trkpt lat="38.13721070861763" lon="15.435331936713949"><ele>444.4285714285714</ele><time>2026-05-04T06:58:59.999Z</time></trkpt><trkpt lat="38.1372022907318" lon="15.435422145933533"><ele>447.2857142857143</ele><time>2026-05-04T06:59:01.999Z</time></trkpt><trkpt lat="38.13721211750575" lon="15.43551559004136"><ele>450.14285714285705</ele><time>2026-05-04T06:59:06.999Z</time></trkpt><trkpt lat="38.13713741203641" lon="15.435492779382844"><ele>452.99999999999994</ele><time>2026-05-04T06:59:10.999Z</time></trkpt><trkpt lat="38.137078447359826" lon="15.435455821405004"><ele>452.99999999999994</ele><time>2026-05-04T06:59:12.999Z</time></trkpt><trkpt lat="38.13702518533168" lon="15.435403130184229"><ele>453.0</ele><time>2026-05-04T06:59:14.998Z</time></trkpt><trkpt lat="38.13696710781399" lon="15.435353729976795"><ele>452.99999999999994</ele><time>2026-05-04T06:59:16.998Z</time></trkpt><trkpt lat="38.13690320224086" lon="15.435309734195334"><ele>452.99999999999994</ele><time>2026-05-04T06:59:26.998Z</time></trkpt><trkpt lat="38.13689969328853" lon="15.435393029134822"><ele>453.0</ele><time>2026-05-04T06:59:39.998Z</time></trkpt><trkpt lat="38.13683449079603" lon="15.435410258444469"><ele>452.99999999999994</ele><time>2026-05-04T06:59:53Z</time></trkpt><trkpt lat="38.13676418674311" lon="15.435400505014831"><ele>452.99999999999994</ele><time>2026-05-04T06:59:58Z</time></trkpt><trkpt lat="38.13670793197988" lon="15.435363929715741"><ele>453.0</ele><time>2026-05-04T07:00:04Z</time></trkpt><trkpt lat="38.136647244896295" lon="15.43538596506842"><ele>453.0</ele><time>2026-05-04T07:00:40.999Z</time></trkpt><trkpt lat="38.13654756952459" lon="15.435464495650749"><ele>453.0</ele><time>2026-05-04T07:01:14.999Z</time></trkpt><trkpt lat="38.1366133436443" lon="15.43549145615049"><ele>453.0</ele><time>2026-05-04T07:01:41.998Z</time></trkpt><trkpt lat="38.1366519248073" lon="15.435565842655558"><ele>453.0</ele><time>2026-05-04T07:01:45.998Z</time></trkpt><trkpt lat="38.13669354606988" lon="15.435638777380145"><ele>453.0</ele><time>2026-05-04T07:01:49Z</time></trkpt><trkpt lat="38.13662731738787" lon="15.435677117947636"><ele>457.8333333333333</ele><time>2026-05-04T07:02:48.999Z</time></trkpt><trkpt lat="38.13670340609901" lon="15.435716738658234"><ele>462.66666666666663</ele><time>2026-05-04T07:03:01.999Z</time></trkpt><trkpt lat="38.13672916113635" lon="15.435805880814764"><ele>467.5</ele><time>2026-05-04T07:03:06.999Z</time></trkpt><trkpt lat="38.136652616681594" lon="15.435821854477318"><ele>472.3333333333333</ele><time>2026-05-04T07:03:34.998Z</time></trkpt><trkpt lat="38.136578563767095" lon="15.435829505958583"><ele>477.16666666666663</ele><time>2026-05-04T07:03:36.998Z</time></trkpt><trkpt lat="38.13650037887521" lon="15.435831492859407"><ele>482.0</ele><time>2026-05-04T07:03:38.998Z</time></trkpt><trkpt lat="38.13643753748109" lon="15.435850825829563"><ele>486.0</ele><time>2026-05-04T07:03:41.998Z</time></trkpt><trkpt lat="38.13635453854967" lon="15.435843045504429"><ele>490.00000000000006</ele><time>2026-05-04T07:03:43.998Z</time></trkpt><trkpt lat="38.13627547876906" lon="15.43583183602606"><ele>494.0</ele><time>2026-05-04T07:03:49.998Z</time></trkpt><trkpt lat="38.136211031294664" lon="15.435836772221817"><ele>498.0</ele><time>2026-05-04T07:04:01Z</time></trkpt><trkpt lat="38.1361488431527" lon="15.435860464831439"><ele>502.00000000000006</ele><time>2026-05-04T07:04:10Z</time></trkpt><trkpt lat="38.13606782637081" lon="15.43587411163646"><ele>506.0</ele><time>2026-05-04T07:04:35.999Z</time></trkpt><trkpt lat="38.136005079442995" lon="15.43592460802662"><ele>510.0</ele><time>2026-05-04T07:04:37.999Z</time></trkpt><trkpt lat="38.13596295811026" lon="15.435995349239452"><ele>510.0</ele><time>2026-05-04T07:04:40.999Z</time></trkpt><trkpt lat="38.13589811780304" lon="15.436076034284877"><ele>510.0</ele><time>2026-05-04T07:04:44.999Z</time></trkpt><trkpt lat="38.135832380661995" lon="15.436123281304551"><ele>510.0</ele><time>2026-05-04T07:04:47.999Z</time></trkpt><trkpt lat="38.13577678843886" lon="15.436177593090207"><ele>510.0</ele><time>2026-05-04T07:04:50.999Z</time></trkpt><trkpt lat="38.135680376943874" lon="15.436182042921828"><ele>510.0</ele><time>2026-05-04T07:05:48.998Z</time></trkpt><trkpt lat="38.13562030202282" lon="15.436120006344764"><ele>510.0</ele><time>2026-05-04T07:06:57.999Z</time></trkpt><trkpt lat="38.13553000672662" lon="15.43606360047699"><ele>513.4285714285714</ele><time>2026-05-04T07:07:00.999Z</time></trkpt><trkpt lat="38.135461279745364" lon="15.43605936125002"><ele>516.8571428571429</ele><time>2026-05-04T07:07:02.999Z</time></trkpt><trkpt lat="38.13540118588235" lon="15.436032127429028"><ele>520.2857142857143</ele><time>2026-05-04T07:07:13.999Z</time></trkpt><trkpt lat="38.13533493646334" lon="15.436082411965579"><ele>523.7142857142858</ele><time>2026-05-04T07:07:18.999Z</time></trkpt><trkpt lat="38.13531983777757" lon="15.436161695260285"><ele>527.1428571428571</ele><time>2026-05-04T07:07:34.998Z</time></trkpt><trkpt lat="38.135377728763466" lon="15.43612994767442"><ele>530.5714285714287</ele><time>2026-05-04T07:08:20Z</time></trkpt><trkpt lat="38.13538469476714" lon="15.436211548209084"><ele>534.0</ele><time>2026-05-04T07:08:24Z</time></trkpt><trkpt lat="38.13538157046673" lon="15.436299772802256"><ele>534.0000000000001</ele><time>2026-05-04T07:08:28Z</time></trkpt><trkpt lat="38.13529998178481" lon="15.436269072517142"><ele>534.0</ele><time>2026-05-04T07:08:36Z</time></trkpt><trkpt lat="38.135262712051045" lon="15.436333665148142"><ele>534.0</ele><time>2026-05-04T07:08:48.999Z</time></trkpt><trkpt lat="38.13522213644672" lon="15.436404316159983"><ele>534.0</ele><time>2026-05-04T07:08:55.999Z</time></trkpt><trkpt lat="38.13516790260143" lon="15.436450472612995"><ele>534.0</ele><time>2026-05-04T07:08:57.999Z</time></trkpt><trkpt lat="38.135232521656604" lon="15.43644349194316"><ele>534.0000000000001</ele><time>2026-05-04T07:09:38.998Z</time></trkpt><trkpt lat="38.135297163964864" lon="15.436434911440546"><ele>534.0</ele><time>2026-05-04T07:09:57.998Z</time></trkpt><trkpt lat="38.13534750598624" lon="15.43648482499886"><ele>538.1428571428572</ele><time>2026-05-04T07:11:29.999Z</time></trkpt><trkpt lat="38.13538024917377" lon="15.436553905039085"><ele>542.2857142857143</ele><time>2026-05-04T07:13:06.999Z</time></trkpt><trkpt lat="38.13531338553019" lon="15.436551523188422"><ele>546.4285714285714</ele><time>2026-05-04T07:13:29.999Z</time></trkpt><trkpt lat="38.13526180134618" lon="15.436599591918242"><ele>550.5714285714287</ele><time>2026-05-04T07:13:34.999Z</time></trkpt><trkpt lat="38.13520624745106" lon="15.436647105036108"><ele>554.7142857142858</ele><time>2026-05-04T07:13:38.999Z</time></trkpt><trkpt lat="38.13514562941864" lon="15.43669880558057"><ele>558.8571428571429</ele><time>2026-05-04T07:13:41.999Z</time></trkpt><trkpt lat="38.135098583414404" lon="15.43676164480707"><ele>563.0</ele><time>2026-05-04T07:13:43.999Z</time></trkpt><trkpt lat="38.135093551115446" lon="15.436852918787077"><ele>563.0</ele><time>2026-05-04T07:13:46.998Z</time></trkpt><trkpt lat="38.135158655852514" lon="15.436837634736113"><ele>563.0</ele><time>2026-05-04T07:13:55.998Z</time></trkpt><trkpt lat="38.135223380534846" lon="15.436839091399"><ele>563.0</ele><time>2026-05-04T07:13:58.998Z</time></trkpt><trkpt lat="38.13528700711933" lon="15.43689000584724"><ele>563.0</ele><time>2026-05-04T07:14:01.998Z</time></trkpt><trkpt lat="38.13534357239926" lon="15.436933325085766"><ele>563.0</ele><time>2026-05-04T07:14:44Z</time></trkpt><trkpt lat="38.13528636238919" lon="15.436990047736122"><ele>563.0</ele><time>2026-05-04T07:14:57.999Z</time></trkpt><trkpt lat="38.13529933228053" lon="15.437073038709292"><ele>563.0</ele><time>2026-05-04T07:15:01.999Z</time></trkpt><trkpt lat="38.13533520873505" lon="15.437168521883478"><ele>567.4285714285714</ele><time>2026-05-04T07:15:06.999Z</time></trkpt><trkpt lat="38.135327597950806" lon="15.437249324424558"><ele>571.8571428571429</ele><time>2026-05-04T07:15:09.999Z</time></trkpt><trkpt lat="38.13526535236509" lon="15.437305142390704"><ele>576.2857142857143</ele><time>2026-05-04T07:15:13.999Z</time></trkpt><trkpt lat="38.13520684495319" lon="15.437352429275004"><ele>580.7142857142858</ele><time>2026-05-04T07:15:16.999Z</time></trkpt><trkpt lat="38.135140262592664" lon="15.437385792186044"><ele>585.1428571428572</ele><time>2026-05-04T07:15:23.999Z</time></trkpt><trkpt lat="38.13505865418373" lon="15.437406091632532"><ele>589.5714285714286</ele><time>2026-05-04T07:15:37.999Z</time></trkpt><trkpt lat="38.13500664901818" lon="15.437453379724206"><ele>594.0</ele><time>2026-05-04T07:15:40.999Z</time></trkpt><trkpt lat="38.13505342976834" lon="15.437517428322163"><ele>594.0</ele><time>2026-05-04T07:15:46.999Z</time></trkpt><trkpt lat="38.13505745740521" lon="15.437598015444408"><ele>594.0</ele><time>2026-05-04T07:15:50.999Z</time></trkpt><trkpt lat="38.1350275426785" lon="15.437669441922647"><ele>594.0</ele><time>2026-05-04T07:16:01.998Z</time></trkpt><trkpt lat="38.135053143108024" lon="15.437762167025864"><ele>594.0</ele><time>2026-05-04T07:16:06.998Z</time></trkpt><trkpt lat="38.13501771054999" lon="15.43784144590315"><ele>594.0</ele><time>2026-05-04T07:16:09.998Z</time></trkpt><trkpt lat="38.134952651579106" lon="15.437866871360225"><ele>594.0</ele><time>2026-05-04T07:16:12.998Z</time></trkpt><trkpt lat="38.134869865323445" lon="15.43789397105275"><ele>594.0</ele><time>2026-05-04T07:16:16.998Z</time></trkpt><trkpt lat="38.134785196195196" lon="15.437938493749638"><ele>603.4285714285714</ele><time>2026-05-04T07:16:20.998Z</time></trkpt><trkpt lat="38.13474463818044" lon="15.438026978009741"><ele>612.8571428571429</ele><time>2026-05-04T07:16:24.998Z</time></trkpt><trkpt lat="38.13475363526967" lon="15.438106786195869"><ele>622.2857142857143</ele><time>2026-05-04T07:16:30Z</time></trkpt><trkpt lat="38.13476234966923" lon="15.438191579728219"><ele>631.7142857142858</ele><time>2026-05-04T07:16:47Z</time></trkpt><trkpt lat="38.134694843025066" lon="15.438245030713533"><ele>641.1428571428571</ele><time>2026-05-04T07:16:58Z</time></trkpt><trkpt lat="38.13463937853676" lon="15.438286840964503"><ele>650.5714285714287</ele><time>2026-05-04T07:17:00Z</time></trkpt><trkpt lat="38.13456005850458" lon="15.438300062352106"><ele>660.0</ele><time>2026-05-04T07:17:03.999Z</time></trkpt><trkpt lat="38.13449397316701" lon="15.438287895744493"><ele>660.0</ele><time>2026-05-04T07:17:08.999Z</time></trkpt><trkpt lat="38.13443426953774" lon="15.438321356989773"><ele>660.0</ele><time>2026-05-04T07:17:16.999Z</time></trkpt><trkpt lat="38.13436437557822" lon="15.438305495458742"><ele>660.0</ele><time>2026-05-04T07:17:24.999Z</time></trkpt><trkpt lat="38.13434679509716" lon="15.438388315679845"><ele>660.0</ele><time>2026-05-04T07:17:33.999Z</time></trkpt><trkpt lat="38.134315653827564" lon="15.438471598464906"><ele>660.0</ele><time>2026-05-04T07:17:37.999Z</time></trkpt><trkpt lat="38.13424599003342" lon="15.43855225620902"><ele>660.0</ele><time>2026-05-04T07:17:40.999Z</time></trkpt><trkpt lat="38.134215003788704" lon="15.438654394948319"><ele>660.0000000000001</ele><time>2026-05-04T07:17:44.999Z</time></trkpt><trkpt lat="38.134183561739015" lon="15.438735240067537"><ele>660.0</ele><time>2026-05-04T07:17:47.999Z</time></trkpt><trkpt lat="38.134135790091925" lon="15.438793934728643"><ele>660.0</ele><time>2026-05-04T07:17:50.999Z</time></trkpt><trkpt lat="38.13411811954588" lon="15.438885550660805"><ele>660.0</ele><time>2026-05-04T07:17:56.998Z</time></trkpt><trkpt lat="38.13409390742341" lon="15.438968882353421"><ele>660.0</ele><time>2026-05-04T07:18:02.998Z</time></trkpt><trkpt lat="38.13403352768789" lon="15.439031846698873"><ele>660.0000000000001</ele><time>2026-05-04T07:18:05.998Z</time></trkpt><trkpt lat="38.13396359445914" lon="15.439041890302004"><ele>660.0</ele><time>2026-05-04T07:18:24.998Z</time></trkpt><trkpt lat="38.13391138637932" lon="15.439097260226564"><ele>668.8333333333334</ele><time>2026-05-04T07:18:42Z</time></trkpt><trkpt lat="38.13384352497999" lon="15.439139807155193"><ele>677.6666666666666</ele><time>2026-05-04T07:18:53Z</time></trkpt><trkpt lat="38.13377306023297" lon="15.43914410240429"><ele>686.5</ele><time>2026-05-04T07:18:56Z</time></trkpt><trkpt lat="38.133750339058366" lon="15.439265105380597"><ele>695.3333333333333</ele><time>2026-05-04T07:23:46.999Z</time></trkpt><trkpt lat="38.1337020697079" lon="15.439202008575837"><ele>704.1666666666666</ele><time>2026-05-04T07:25:04Z</time></trkpt><trkpt lat="38.1337082576487" lon="15.43910088795897"><ele>713.0</ele><time>2026-05-04T07:32:28.999Z</time></trkpt><trkpt lat="38.13375892778622" lon="15.439017182900182"><ele>713.0</ele><time>2026-05-04T07:32:46.998Z</time></trkpt><trkpt lat="38.133783530808955" lon="15.438927948890822"><ele>713.0</ele><time>2026-05-04T07:32:48.998Z</time></trkpt><trkpt lat="38.133783401488614" lon="15.438795027638063"><ele>713.0</ele><time>2026-05-04T07:32:51.998Z</time></trkpt><trkpt lat="38.13379767169125" lon="15.438716231633077"><ele>713.0</ele><time>2026-05-04T07:32:52.998Z</time></trkpt><trkpt lat="38.13379999582094" lon="15.438621518284187"><ele>713.0</ele><time>2026-05-04T07:32:53.998Z</time></trkpt><trkpt lat="38.13378284153621" lon="15.43851514479568"><ele>713.0</ele><time>2026-05-04T07:32:55.998Z</time></trkpt><trkpt lat="38.13370834291166" lon="15.438463510194259"><ele>712.2857142857142</ele><time>2026-05-04T07:32:57.998Z</time></trkpt><trkpt lat="38.13366890414723" lon="15.438394291438124"><ele>711.5714285714287</ele><time>2026-05-04T07:32:58.998Z</time></trkpt><trkpt lat="38.13361160885029" lon="15.438341158527292"><ele>710.8571428571429</ele><time>2026-05-04T07:33:00.998Z</time></trkpt><trkpt lat="38.13354548969698" lon="15.438315609640059"><ele>710.1428571428571</ele><time>2026-05-04T07:33:02.998Z</time></trkpt><trkpt lat="38.133539059706436" lon="15.438224837922121"><ele>709.4285714285713</ele><time>2026-05-04T07:33:07.998Z</time></trkpt><trkpt lat="38.13356057701738" lon="15.438147632452441"><ele>708.7142857142858</ele><time>2026-05-04T07:33:09.998Z</time></trkpt><trkpt lat="38.13354023881364" lon="15.43805372359836"><ele>708.0</ele><time>2026-05-04T07:33:11.998Z</time></trkpt><trkpt lat="38.13349420760102" lon="15.437988210770483"><ele>704.2</ele><time>2026-05-04T07:33:12.998Z</time></trkpt><trkpt lat="38.13339831428084" lon="15.43792020558341"><ele>700.4</ele><time>2026-05-04T07:33:14.998Z</time></trkpt><trkpt lat="38.13328560840775" lon="15.437887735677256"><ele>696.6</ele><time>2026-05-04T07:33:17Z</time></trkpt><trkpt lat="38.133233210524814" lon="15.4378019015762"><ele>692.8000000000001</ele><time>2026-05-04T07:33:19Z</time></trkpt><trkpt lat="38.133167468571635" lon="15.437713968650646"><ele>689.0</ele><time>2026-05-04T07:33:22Z</time></trkpt><trkpt lat="38.13313217840569" lon="15.437634024832338"><ele>688.0</ele><time>2026-05-04T07:33:30Z</time></trkpt><trkpt lat="38.13308973664226" lon="15.437564874558802"><ele>687.0</ele><time>2026-05-04T07:33:37Z</time></trkpt><trkpt lat="38.13302566061917" lon="15.437485591715623"><ele>686.0</ele><time>2026-05-04T07:34:22.999Z</time></trkpt><trkpt lat="38.13299164466624" lon="15.437377309379377"><ele>685.0</ele><time>2026-05-04T07:35:06.998Z</time></trkpt><trkpt lat="38.1329113035288" lon="15.437371754763264"><ele>684.0</ele><time>2026-05-04T07:35:10.998Z</time></trkpt><trkpt lat="38.132894867809846" lon="15.437455493656765"><ele>683.0</ele><time>2026-05-04T07:35:12.998Z</time></trkpt><trkpt lat="38.13291021308019" lon="15.437541945682055"><ele>683.0</ele><time>2026-05-04T07:35:14.998Z</time></trkpt><trkpt lat="38.132918292739305" lon="15.437682752434757"><ele>683.0</ele><time>2026-05-04T07:35:16.998Z</time></trkpt><trkpt lat="38.132908514448175" lon="15.437810481419325"><ele>683.0</ele><time>2026-05-04T07:35:17.998Z</time></trkpt><trkpt lat="38.13294267813424" lon="15.437897976653863"><ele>683.0</ele><time>2026-05-04T07:35:18.998Z</time></trkpt><trkpt lat="38.13298983019334" lon="15.437984853265469"><ele>683.0</ele><time>2026-05-04T07:35:19.998Z</time></trkpt><trkpt lat="38.13305871764233" lon="15.43803659824165"><ele>687.0</ele><time>2026-05-04T07:35:20.998Z</time></trkpt><trkpt lat="38.13312881624158" lon="15.438115960952208"><ele>691.0</ele><time>2026-05-04T07:35:23Z</time></trkpt><trkpt lat="38.133125675391575" lon="15.438213278239763"><ele>695.0</ele><time>2026-05-04T07:35:25Z</time></trkpt><trkpt lat="38.13311646379286" lon="15.438313776631231"><ele>699.0</ele><time>2026-05-04T07:35:27Z</time></trkpt><trkpt lat="38.13307073850947" lon="15.43842045058983"><ele>703.0</ele><time>2026-05-04T07:35:29Z</time></trkpt><trkpt lat="38.133073789278214" lon="15.438561308327484"><ele>703.0</ele><time>2026-05-04T07:35:31Z</time></trkpt><trkpt lat="38.13307948283654" lon="15.438665920695689"><ele>703.0</ele><time>2026-05-04T07:35:33Z</time></trkpt><trkpt lat="38.13308542974318" lon="15.438808285330715"><ele>703.0</ele><time>2026-05-04T07:35:35Z</time></trkpt><trkpt lat="38.13303996210131" lon="15.438979767033288"><ele>703.0</ele><time>2026-05-04T07:35:37Z</time></trkpt><trkpt lat="38.13301135919895" lon="15.439094029168663"><ele>703.0</ele><time>2026-05-04T07:35:38Z</time></trkpt><trkpt lat="38.13298167105693" lon="15.439204075820882"><ele>705.3333333333334</ele><time>2026-05-04T07:35:39Z</time></trkpt><trkpt lat="38.13296037600712" lon="15.439354105369747"><ele>707.6666666666667</ele><time>2026-05-04T07:35:40Z</time></trkpt><trkpt lat="38.132932620441686" lon="15.43943046340776"><ele>710.0</ele><time>2026-05-04T07:35:41Z</time></trkpt><trkpt lat="38.13288157597328" lon="15.439480389613408"><ele>712.3333333333334</ele><time>2026-05-04T07:35:42Z</time></trkpt><trkpt lat="38.13281677057787" lon="15.439512536585692"><ele>714.6666666666666</ele><time>2026-05-04T07:35:43Z</time></trkpt><trkpt lat="38.13275663161625" lon="15.439565026390952"><ele>717.0</ele><time>2026-05-04T07:35:44Z</time></trkpt><trkpt lat="38.13271633935296" lon="15.43963727780786"><ele>717.0</ele><time>2026-05-04T07:35:45Z</time></trkpt><trkpt lat="38.13268236427515" lon="15.439724131151731"><ele>717.0</ele><time>2026-05-04T07:35:46Z</time></trkpt><trkpt lat="38.13264972172632" lon="15.43983309576204"><ele>717.0</ele><time>2026-05-04T07:35:46.999Z</time></trkpt><trkpt lat="38.13264819954568" lon="15.43992032133995"><ele>717.0</ele><time>2026-05-04T07:35:47.999Z</time></trkpt><trkpt lat="38.132667582529706" lon="15.440044812277565"><ele>717.0</ele><time>2026-05-04T07:35:49.999Z</time></trkpt><trkpt lat="38.132674380443916" lon="15.440126269109816"><ele>717.0</ele><time>2026-05-04T07:35:50.999Z</time></trkpt><trkpt lat="38.13269452031042" lon="15.440218726138324"><ele>717.0</ele><time>2026-05-04T07:35:51.999Z</time></trkpt><trkpt lat="38.132720261888764" lon="15.44030340071733"><ele>717.0</ele><time>2026-05-04T07:35:52.999Z</time></trkpt><trkpt lat="38.13274046872963" lon="15.440394465744008"><ele>717.0</ele><time>2026-05-04T07:35:53.999Z</time></trkpt><trkpt lat="38.13279793441581" lon="15.44053839681555"><ele>717.0</ele><time>2026-05-04T07:35:55.999Z</time></trkpt><trkpt lat="38.13282894905091" lon="15.440624437259991"><ele>717.0</ele><time>2026-05-04T07:35:56.999Z</time></trkpt><trkpt lat="38.13287088077109" lon="15.440758144449056"><ele>718.0</ele><time>2026-05-04T07:35:58.999Z</time></trkpt><trkpt lat="38.13293260847448" lon="15.440861374478068"><ele>719.0</ele><time>2026-05-04T07:36:00.999Z</time></trkpt><trkpt lat="38.13295722915761" lon="15.44093631750429"><ele>720.0</ele><time>2026-05-04T07:36:01.999Z</time></trkpt><trkpt lat="38.132986503911496" lon="15.441056959135254"><ele>721.0</ele><time>2026-05-04T07:36:03.999Z</time></trkpt><trkpt lat="38.13298205263791" lon="15.441149257075503"><ele>722.0</ele><time>2026-05-04T07:36:06.999Z</time></trkpt><trkpt lat="38.13299763722354" lon="15.441260598510496"><ele>723.0</ele><time>2026-05-04T07:36:09.999Z</time></trkpt><trkpt lat="38.13299174352001" lon="15.441370199897353"><ele>725.0</ele><time>2026-05-04T07:36:11.999Z</time></trkpt><trkpt lat="38.13298921976565" lon="15.44148948561304"><ele>727.0</ele><time>2026-05-04T07:36:13.999Z</time></trkpt><trkpt lat="38.13296972615239" lon="15.441621873756926"><ele>729.0</ele><time>2026-05-04T07:36:15.999Z</time></trkpt><trkpt lat="38.13293789937063" lon="15.441695166763425"><ele>731.0</ele><time>2026-05-04T07:36:16.999Z</time></trkpt><trkpt lat="38.13291513683413" lon="15.441787151817556"><ele>733.0</ele><time>2026-05-04T07:36:17.999Z</time></trkpt><trkpt lat="38.13287269366986" lon="15.441918888704471"><ele>733.0</ele><time>2026-05-04T07:36:19.999Z</time></trkpt><trkpt lat="38.132874035800526" lon="15.442042168077327"><ele>733.0</ele><time>2026-05-04T07:36:21.999Z</time></trkpt><trkpt lat="38.132889972608055" lon="15.442154595420611"><ele>733.0</ele><time>2026-05-04T07:36:22.999Z</time></trkpt><trkpt lat="38.13288654544548" lon="15.442280577613289"><ele>733.0</ele><time>2026-05-04T07:36:23.999Z</time></trkpt><trkpt lat="38.13287636530591" lon="15.442374636658094"><ele>733.0</ele><time>2026-05-04T07:36:24.999Z</time></trkpt><trkpt lat="38.13285202343897" lon="15.442493784964997"><ele>735.8</ele><time>2026-05-04T07:36:25.999Z</time></trkpt><trkpt lat="38.1328261122518" lon="15.44261153771807"><ele>738.5999999999999</ele><time>2026-05-04T07:36:26.999Z</time></trkpt><trkpt lat="38.13280670458904" lon="15.44273157067876"><ele>741.4000000000001</ele><time>2026-05-04T07:36:27.999Z</time></trkpt><trkpt lat="38.13278607986193" lon="15.4428541068548"><ele>744.2</ele><time>2026-05-04T07:36:28.999Z</time></trkpt><trkpt lat="38.1327404993892" lon="15.442967836799635"><ele>747.0</ele><time>2026-05-04T07:36:29.999Z</time></trkpt><trkpt lat="38.132682340656444" lon="15.443066446361314"><ele>748.6666666666666</ele><time>2026-05-04T07:36:30.999Z</time></trkpt><trkpt lat="38.13262833955237" lon="15.443151195872238"><ele>750.3333333333334</ele><time>2026-05-04T07:36:31.999Z</time></trkpt><trkpt lat="38.13256310203897" lon="15.443207792467456"><ele>752.0</ele><time>2026-05-04T07:36:32.999Z</time></trkpt><trkpt lat="38.132500427277115" lon="15.443255888497596"><ele>753.6666666666667</ele><time>2026-05-04T07:36:33.999Z</time></trkpt><trkpt lat="38.132448611999216" lon="15.44330968990595"><ele>755.3333333333334</ele><time>2026-05-04T07:36:34.999Z</time></trkpt><trkpt lat="38.13234962649566" lon="15.443342435799156"><ele>757.0</ele><time>2026-05-04T07:36:36.999Z</time></trkpt><trkpt lat="38.13232945135519" lon="15.443466028128277"><ele>757.0</ele><time>2026-05-04T07:36:38.999Z</time></trkpt><trkpt lat="38.132324899451405" lon="15.443623411875983"><ele>757.0</ele><time>2026-05-04T07:36:40.999Z</time></trkpt><trkpt lat="38.13231397874668" lon="15.443706257359512"><ele>757.0</ele><time>2026-05-04T07:36:41.998Z</time></trkpt><trkpt lat="38.13226986421163" lon="15.44380279675016"><ele>757.0</ele><time>2026-05-04T07:36:42.998Z</time></trkpt><trkpt lat="38.132249888291916" lon="15.443880260170094"><ele>757.0</ele><time>2026-05-04T07:36:43.998Z</time></trkpt><trkpt lat="38.13218530968863" lon="15.44397878751027"><ele>757.0</ele><time>2026-05-04T07:36:45.998Z</time></trkpt><trkpt lat="38.13209706305787" lon="15.444020861297858"><ele>762.2</ele><time>2026-05-04T07:36:47.998Z</time></trkpt><trkpt lat="38.13197966528293" lon="15.443990415124242"><ele>767.4000000000001</ele><time>2026-05-04T07:36:50.998Z</time></trkpt><trkpt lat="38.131882566673795" lon="15.44400732299907"><ele>772.5999999999999</ele><time>2026-05-04T07:36:51.998Z</time></trkpt><trkpt lat="38.13180787886159" lon="15.444008522305946"><ele>777.8</ele><time>2026-05-04T07:36:52.998Z</time></trkpt><trkpt lat="38.131735956089834" lon="15.444001295919625"><ele>783.0</ele><time>2026-05-04T07:36:53.998Z</time></trkpt><trkpt lat="38.13165917076863" lon="15.443952288798029"><ele>783.0</ele><time>2026-05-04T07:36:55.998Z</time></trkpt><trkpt lat="38.13161865843022" lon="15.443866760718766"><ele>783.0</ele><time>2026-05-04T07:36:56.998Z</time></trkpt><trkpt lat="38.131568537711864" lon="15.443783586746905"><ele>783.0</ele><time>2026-05-04T07:36:57.998Z</time></trkpt><trkpt lat="38.131483124409854" lon="15.443694297771618"><ele>783.0</ele><time>2026-05-04T07:36:59.998Z</time></trkpt><trkpt lat="38.13139655493829" lon="15.443651869045738"><ele>783.0</ele><time>2026-05-04T07:37:00.998Z</time></trkpt><trkpt lat="38.1313173649144" lon="15.44357549370589"><ele>779.0</ele><time>2026-05-04T07:37:01.998Z</time></trkpt><trkpt lat="38.13127067331296" lon="15.443475413705345"><ele>775.0</ele><time>2026-05-04T07:37:02.998Z</time></trkpt><trkpt lat="38.13118853324432" lon="15.443335063465053"><ele>771.0</ele><time>2026-05-04T07:37:03.998Z</time></trkpt><trkpt lat="38.13112354268308" lon="15.443251502044646"><ele>767.0</ele><time>2026-05-04T07:37:04.998Z</time></trkpt><trkpt lat="38.13107579185679" lon="15.443134338218696"><ele>763.0</ele><time>2026-05-04T07:37:05.998Z</time></trkpt><trkpt lat="38.131026600605495" lon="15.443021882351514"><ele>763.0</ele><time>2026-05-04T07:37:06.998Z</time></trkpt><trkpt lat="38.1309582129814" lon="15.44293988528399"><ele>763.0</ele><time>2026-05-04T07:37:07.998Z</time></trkpt><trkpt lat="38.130851028451794" lon="15.442885247253585"><ele>763.0</ele><time>2026-05-04T07:37:09.998Z</time></trkpt><trkpt lat="38.13079237705503" lon="15.44293598285633"><ele>763.0</ele><time>2026-05-04T07:37:11.998Z</time></trkpt><trkpt lat="38.130747738976396" lon="15.443056423192491"><ele>763.0</ele><time>2026-05-04T07:37:13.998Z</time></trkpt><trkpt lat="38.13075805466685" lon="15.443177917851543"><ele>763.0</ele><time>2026-05-04T07:37:14.998Z</time></trkpt><trkpt lat="38.13077092627521" lon="15.443292256026321"><ele>763.0</ele><time>2026-05-04T07:37:15.998Z</time></trkpt><trkpt lat="38.13080400373035" lon="15.443381782789178"><ele>763.0</ele><time>2026-05-04T07:37:16.998Z</time></trkpt><trkpt lat="38.13082241940326" lon="15.443485185607258"><ele>763.0</ele><time>2026-05-04T07:37:17.998Z</time></trkpt><trkpt lat="38.13085396194666" lon="15.443576811739975"><ele>763.0</ele><time>2026-05-04T07:37:18.998Z</time></trkpt><trkpt lat="38.130864038414956" lon="15.443658233071243"><ele>763.0</ele><time>2026-05-04T07:37:19.998Z</time></trkpt><trkpt lat="38.13087530945959" lon="15.443819116376183"><ele>766.2</ele><time>2026-05-04T07:37:21.998Z</time></trkpt><trkpt lat="38.1308737668285" lon="15.44393120849368"><ele>769.4</ele><time>2026-05-04T07:37:23.998Z</time></trkpt><trkpt lat="38.130832928857494" lon="15.443994492420607"><ele>772.6</ele><time>2026-05-04T07:37:24.998Z</time></trkpt><trkpt lat="38.13076065137802" lon="15.444039959873358"><ele>775.8000000000001</ele><time>2026-05-04T07:37:25.998Z</time></trkpt><trkpt lat="38.13068576117836" lon="15.444026178909025"><ele>779.0</ele><time>2026-05-04T07:37:28Z</time></trkpt><trkpt lat="38.130548456167865" lon="15.443966970176618"><ele>779.0000000000001</ele><time>2026-05-04T07:37:30Z</time></trkpt><trkpt lat="38.13047372826886" lon="15.443930910068058"><ele>779.0</ele><time>2026-05-04T07:37:31Z</time></trkpt><trkpt lat="38.13039758664559" lon="15.44393536115926"><ele>779.0</ele><time>2026-05-04T07:37:32Z</time></trkpt><trkpt lat="38.130330311937364" lon="15.443931769507595"><ele>779.0</ele><time>2026-05-04T07:37:33Z</time></trkpt><trkpt lat="38.130257920371314" lon="15.44393422999302"><ele>779.0000000000001</ele><time>2026-05-04T07:37:34Z</time></trkpt><trkpt lat="38.13019172432415" lon="15.443941776737754"><ele>779.0</ele><time>2026-05-04T07:37:35Z</time></trkpt><trkpt lat="38.13009762478422" lon="15.443872429563077"><ele>779.0</ele><time>2026-05-04T07:37:37Z</time></trkpt><trkpt lat="38.12997801895887" lon="15.44382695588097"><ele>779.0</ele><time>2026-05-04T07:37:39Z</time></trkpt><trkpt lat="38.12989149559654" lon="15.44381860944824"><ele>779.0</ele><time>2026-05-04T07:37:41Z</time></trkpt><trkpt lat="38.129816848397404" lon="15.443921288947358"><ele>779.0</ele><time>2026-05-04T07:37:43Z</time></trkpt><trkpt lat="38.12974099701236" lon="15.444012113997983"><ele>779.0</ele><time>2026-05-04T07:37:45Z</time></trkpt><trkpt lat="38.129695525940164" lon="15.444070331573394"><ele>780.8000000000001</ele><time>2026-05-04T07:37:46Z</time></trkpt><trkpt lat="38.129636888247276" lon="15.444178774421756"><ele>782.6</ele><time>2026-05-04T07:37:48Z</time></trkpt><trkpt lat="38.12961995382355" lon="15.444288223395676"><ele>784.4</ele><time>2026-05-04T07:37:49.999Z</time></trkpt><trkpt lat="38.129612940852596" lon="15.444443984178116"><ele>786.2</ele><time>2026-05-04T07:37:51.999Z</time></trkpt><trkpt lat="38.12961303282991" lon="15.444543315845493"><ele>788.0</ele><time>2026-05-04T07:37:52.999Z</time></trkpt><trkpt lat="38.12959801332002" lon="15.444629939674998"><ele>788.0000000000001</ele><time>2026-05-04T07:37:53.999Z</time></trkpt><trkpt lat="38.12955180977854" lon="15.444766305870884"><ele>788.0</ele><time>2026-05-04T07:37:55.999Z</time></trkpt><trkpt lat="38.129539798850615" lon="15.444849623503186"><ele>788.0</ele><time>2026-05-04T07:37:56.999Z</time></trkpt><trkpt lat="38.12954833890139" lon="15.44495138082319"><ele>788.0</ele><time>2026-05-04T07:37:57.999Z</time></trkpt><trkpt lat="38.12956906401192" lon="15.44507274797539"><ele>788.0000000000001</ele><time>2026-05-04T07:37:58.999Z</time></trkpt><trkpt lat="38.12958982402074" lon="15.445162104103156"><ele>788.0</ele><time>2026-05-04T07:37:59.999Z</time></trkpt><trkpt lat="38.12959492423622" lon="15.445242953159331"><ele>788.0</ele><time>2026-05-04T07:38:00.999Z</time></trkpt><trkpt lat="38.12961634880476" lon="15.445388099694243"><ele>788.0</ele><time>2026-05-04T07:38:02.999Z</time></trkpt><trkpt lat="38.12956206050354" lon="15.445493526223544"><ele>788.0</ele><time>2026-05-04T07:38:05.999Z</time></trkpt><trkpt lat="38.12945695643423" lon="15.445455274442518"><ele>788.0</ele><time>2026-05-04T07:38:07.999Z</time></trkpt><trkpt lat="38.12938765267895" lon="15.445413038891537"><ele>788.0</ele><time>2026-05-04T07:38:08.999Z</time></trkpt><trkpt lat="38.12931889840505" lon="15.445376789020976"><ele>788.0000000000001</ele><time>2026-05-04T07:38:09.999Z</time></trkpt><trkpt lat="38.129220599855884" lon="15.44534144561763"><ele>788.0</ele><time>2026-05-04T07:38:11.999Z</time></trkpt><trkpt lat="38.12915961963535" lon="15.445362578439646"><ele>788.0</ele><time>2026-05-04T07:38:12.999Z</time></trkpt><trkpt lat="38.12907641676706" lon="15.445353814675707"><ele>788.0</ele><time>2026-05-04T07:38:14.999Z</time></trkpt><trkpt lat="38.12900929734997" lon="15.44530834338258"><ele>788.0000000000001</ele><time>2026-05-04T07:38:16.999Z</time></trkpt><trkpt lat="38.128928818889186" lon="15.44527030719811"><ele>788.0</ele><time>2026-05-04T07:38:18.999Z</time></trkpt><trkpt lat="38.128824932009294" lon="15.445267586322997"><ele>788.1666666666667</ele><time>2026-05-04T07:38:20.999Z</time></trkpt><trkpt lat="38.12874011795107" lon="15.445268607792746"><ele>788.3333333333334</ele><time>2026-05-04T07:38:22.999Z</time></trkpt><trkpt lat="38.12861153231967" lon="15.445233435233176"><ele>788.5</ele><time>2026-05-04T07:38:24.999Z</time></trkpt><trkpt lat="38.12854933403535" lon="15.445214541265457"><ele>788.6666666666667</ele><time>2026-05-04T07:38:25.999Z</time></trkpt><trkpt lat="38.128488438727025" lon="15.44525204699684"><ele>788.8333333333334</ele><time>2026-05-04T07:38:27.999Z</time></trkpt><trkpt lat="38.12854021936359" lon="15.445348646312459"><ele>789.0</ele><time>2026-05-04T07:38:29.999Z</time></trkpt><trkpt lat="38.12860119624013" lon="15.445385237106626"><ele>789.0</ele><time>2026-05-04T07:38:30.999Z</time></trkpt><trkpt lat="38.128712847116816" lon="15.445411076841017"><ele>789.0</ele><time>2026-05-04T07:38:32.999Z</time></trkpt><trkpt lat="38.12878193711873" lon="15.445459768259143"><ele>789.0</ele><time>2026-05-04T07:38:34.999Z</time></trkpt><trkpt lat="38.12883972374069" lon="15.445510078593347"><ele>789.0</ele><time>2026-05-04T07:38:36.999Z</time></trkpt><trkpt lat="38.12890309060382" lon="15.445609073837542"><ele>789.0</ele><time>2026-05-04T07:38:38.999Z</time></trkpt><trkpt lat="38.12898854457674" lon="15.445709271589614"><ele>794.2</ele><time>2026-05-04T07:38:40.999Z</time></trkpt><trkpt lat="38.129047938817905" lon="15.445746808536024"><ele>799.4000000000001</ele><time>2026-05-04T07:38:41.999Z</time></trkpt><trkpt lat="38.129156069963955" lon="15.445813042840742"><ele>804.6</ele><time>2026-05-04T07:38:43.999Z</time></trkpt><trkpt lat="38.12926933192282" lon="15.4458933525446"><ele>809.8</ele><time>2026-05-04T07:38:45.998Z</time></trkpt><trkpt lat="38.12933664429747" lon="15.445931878317335"><ele>815.0</ele><time>2026-05-04T07:38:46.998Z</time></trkpt><trkpt lat="38.12943110561162" lon="15.446025115039086"><ele>816.3333333333334</ele><time>2026-05-04T07:38:48.998Z</time></trkpt><trkpt lat="38.12950088129216" lon="15.446088679790911"><ele>817.6666666666667</ele><time>2026-05-04T07:38:49.998Z</time></trkpt><trkpt lat="38.129585029770894" lon="15.446137835551292"><ele>819.0</ele><time>2026-05-04T07:38:50.998Z</time></trkpt><trkpt lat="38.12965059564611" lon="15.44619324236655"><ele>820.3333333333333</ele><time>2026-05-04T07:38:51.998Z</time></trkpt><trkpt lat="38.129708396886436" lon="15.446231331045913"><ele>821.6666666666666</ele><time>2026-05-04T07:38:52.998Z</time></trkpt><trkpt lat="38.12982174457273" lon="15.446252554605735"><ele>823.0</ele><time>2026-05-04T07:38:54.998Z</time></trkpt><trkpt lat="38.12983936018089" lon="15.446337350885962"><ele>829.4999999999999</ele><time>2026-05-04T07:38:57.998Z</time></trkpt><trkpt lat="38.12977193770138" lon="15.446352709139317"><ele>836.0</ele><time>2026-05-04T07:39:00.998Z</time></trkpt><trkpt lat="38.129674810412375" lon="15.446370139843443"><ele>842.5</ele><time>2026-05-04T07:39:02.998Z</time></trkpt><trkpt lat="38.1295788029287" lon="15.446374944516332"><ele>849.0</ele><time>2026-05-04T07:39:05.998Z</time></trkpt><trkpt lat="38.12951481874542" lon="15.446376809814229"><ele>855.4999999999999</ele><time>2026-05-04T07:39:07.998Z</time></trkpt><trkpt lat="38.12945777269427" lon="15.446342946581593"><ele>862.0</ele><time>2026-05-04T07:39:17.998Z</time></trkpt><trkpt lat="38.12937293932329" lon="15.446336556775444"><ele>862.0</ele><time>2026-05-04T07:39:21.998Z</time></trkpt><trkpt lat="38.12931244067808" lon="15.446312848417103"><ele>862.0</ele><time>2026-05-04T07:39:27.998Z</time></trkpt><trkpt lat="38.129229746001826" lon="15.446366216574958"><ele>862.0</ele><time>2026-05-04T07:39:30.998Z</time></trkpt><trkpt lat="38.12913277493418" lon="15.446356029289456"><ele>862.0</ele><time>2026-05-04T07:39:32.998Z</time></trkpt><trkpt lat="38.12903208984025" lon="15.446396617437008"><ele>862.0</ele><time>2026-05-04T07:39:35Z</time></trkpt><trkpt lat="38.12893392416954" lon="15.44643790225953"><ele>858.0</ele><time>2026-05-04T07:39:37Z</time></trkpt><trkpt lat="38.12884714098417" lon="15.446444901417296"><ele>854.0</ele><time>2026-05-04T07:39:38Z</time></trkpt><trkpt lat="38.12874984128473" lon="15.446511506336304"><ele>850.0</ele><time>2026-05-04T07:39:40Z</time></trkpt><trkpt lat="38.12866123852568" lon="15.446584563301272"><ele>846.0</ele><time>2026-05-04T07:39:42Z</time></trkpt><trkpt lat="38.128583747298016" lon="15.446715270257823"><ele>842.0</ele><time>2026-05-04T07:39:44Z</time></trkpt><trkpt lat="38.12853980140893" lon="15.44682564953076"><ele>842.0000000000001</ele><time>2026-05-04T07:39:46Z</time></trkpt><trkpt lat="38.128555107851575" lon="15.44691375702019"><ele>842.0</ele><time>2026-05-04T07:39:47Z</time></trkpt><trkpt lat="38.12854728812719" lon="15.447037974268325"><ele>842.0</ele><time>2026-05-04T07:39:48Z</time></trkpt><trkpt lat="38.12853957097495" lon="15.447156940890023"><ele>842.0</ele><time>2026-05-04T07:39:49Z</time></trkpt><trkpt lat="38.1285214575886" lon="15.447243203315907"><ele>842.0000000000001</ele><time>2026-05-04T07:39:50Z</time></trkpt><trkpt lat="38.12852120299708" lon="15.447362952396958"><ele>842.0</ele><time>2026-05-04T07:39:51Z</time></trkpt><trkpt lat="38.12849750047255" lon="15.447456981271603"><ele>844.1666666666667</ele><time>2026-05-04T07:39:52Z</time></trkpt><trkpt lat="38.12847790991004" lon="15.447579536561413"><ele>846.3333333333334</ele><time>2026-05-04T07:39:52.999Z</time></trkpt><trkpt lat="38.12846660860404" lon="15.447691246648127"><ele>848.5</ele><time>2026-05-04T07:39:53.999Z</time></trkpt><trkpt lat="38.1284587634589" lon="15.44778916711771"><ele>850.6666666666667</ele><time>2026-05-04T07:39:54.999Z</time></trkpt><trkpt lat="38.128474562290776" lon="15.447878775052821"><ele>852.8333333333334</ele><time>2026-05-04T07:39:55.999Z</time></trkpt><trkpt lat="38.12848305695778" lon="15.4479695028372"><ele>855.0</ele><time>2026-05-04T07:39:56.999Z</time></trkpt><trkpt lat="38.12847341851397" lon="15.448073220905197"><ele>857.6666666666666</ele><time>2026-05-04T07:39:57.999Z</time></trkpt><trkpt lat="38.12847087958354" lon="15.44820446136514"><ele>860.3333333333333</ele><time>2026-05-04T07:39:58.999Z</time></trkpt><trkpt lat="38.12847126964407" lon="15.448297415507234"><ele>863.0</ele><time>2026-05-04T07:39:59.999Z</time></trkpt><trkpt lat="38.12846943386427" lon="15.448383019504089"><ele>865.6666666666666</ele><time>2026-05-04T07:40:00.999Z</time></trkpt><trkpt lat="38.12844271785475" lon="15.448482391713702"><ele>868.3333333333333</ele><time>2026-05-04T07:40:02.999Z</time></trkpt><trkpt lat="38.12833874622318" lon="15.448484181279936"><ele>871.0</ele><time>2026-05-04T07:40:04.999Z</time></trkpt><trkpt lat="38.128266372451826" lon="15.44848035652001"><ele>868.1666666666666</ele><time>2026-05-04T07:40:06.999Z</time></trkpt><trkpt lat="38.128135705610944" lon="15.448476799902341"><ele>865.3333333333333</ele><time>2026-05-04T07:40:08.999Z</time></trkpt><trkpt lat="38.128069796203874" lon="15.448478081662401"><ele>862.5</ele><time>2026-05-04T07:40:09.999Z</time></trkpt><trkpt lat="38.127985330685995" lon="15.448486264005643"><ele>859.6666666666667</ele><time>2026-05-04T07:40:10.999Z</time></trkpt><trkpt lat="38.12790402843208" lon="15.448529045725795"><ele>856.8333333333334</ele><time>2026-05-04T07:40:11.999Z</time></trkpt><trkpt lat="38.127829801516455" lon="15.448567029383979"><ele>854.0</ele><time>2026-05-04T07:40:12.999Z</time></trkpt><trkpt lat="38.1277316645418" lon="15.448589552481014"><ele>854.0000000000001</ele><time>2026-05-04T07:40:13.999Z</time></trkpt><trkpt lat="38.12765252616798" lon="15.448626297694405"><ele>854.0</ele><time>2026-05-04T07:40:14.999Z</time></trkpt><trkpt lat="38.12754163035118" lon="15.44871399093255"><ele>854.0</ele><time>2026-05-04T07:40:16.999Z</time></trkpt><trkpt lat="38.12747842030719" lon="15.448739311362395"><ele>854.0</ele><time>2026-05-04T07:40:17.999Z</time></trkpt><trkpt lat="38.12741264986498" lon="15.448764517527342"><ele>854.0000000000001</ele><time>2026-05-04T07:40:18.999Z</time></trkpt><trkpt lat="38.127347662206574" lon="15.448779956891551"><ele>854.0</ele><time>2026-05-04T07:40:19.999Z</time></trkpt><trkpt lat="38.12726071718496" lon="15.448802902123546"><ele>854.8000000000001</ele><time>2026-05-04T07:40:21.999Z</time></trkpt><trkpt lat="38.127170599189796" lon="15.448739075200768"><ele>855.6000000000001</ele><time>2026-05-04T07:40:23.999Z</time></trkpt><trkpt lat="38.12706468622846" lon="15.448666201368615"><ele>856.4</ele><time>2026-05-04T07:40:25.999Z</time></trkpt><trkpt lat="38.1269627623286" lon="15.448606387533019"><ele>857.2</ele><time>2026-05-04T07:40:27.999Z</time></trkpt><trkpt lat="38.126893718854745" lon="15.448575780723516"><ele>858.0</ele><time>2026-05-04T07:40:28.999Z</time></trkpt><trkpt lat="38.12680926980212" lon="15.448602699422748"><ele>858.0</ele><time>2026-05-04T07:40:30.999Z</time></trkpt><trkpt lat="38.1267218785369" lon="15.44871436891169"><ele>858.0</ele><time>2026-05-04T07:40:32.999Z</time></trkpt><trkpt lat="38.126667328403485" lon="15.448842957891907"><ele>858.0</ele><time>2026-05-04T07:40:34.999Z</time></trkpt><trkpt lat="38.12663711861462" lon="15.44898217982232"><ele>858.0</ele><time>2026-05-04T07:40:36.999Z</time></trkpt><trkpt lat="38.12657382077911" lon="15.449071451451335"><ele>858.0</ele><time>2026-05-04T07:40:38.999Z</time></trkpt><trkpt lat="38.126516433760536" lon="15.449118468899957"><ele>862.5999999999999</ele><time>2026-05-04T07:40:40.999Z</time></trkpt><trkpt lat="38.126467486724806" lon="15.449227501674889"><ele>867.1999999999999</ele><time>2026-05-04T07:40:42.999Z</time></trkpt><trkpt lat="38.12638170224637" lon="15.449284096025455"><ele>871.8</ele><time>2026-05-04T07:40:44.999Z</time></trkpt><trkpt lat="38.126275284839174" lon="15.449329944193279"><ele>876.4</ele><time>2026-05-04T07:40:46.999Z</time></trkpt><trkpt lat="38.12619309301697" lon="15.449403878794884"><ele>881.0</ele><time>2026-05-04T07:40:48.999Z</time></trkpt><trkpt lat="38.126133470437864" lon="15.449465983394091"><ele>881.0</ele><time>2026-05-04T07:40:50.998Z</time></trkpt><trkpt lat="38.12603470106607" lon="15.44938849145659"><ele>880.9999999999999</ele><time>2026-05-04T07:40:52.998Z</time></trkpt><trkpt lat="38.125947164381735" lon="15.44933729263688"><ele>880.9999999999999</ele><time>2026-05-04T07:40:53.998Z</time></trkpt><trkpt lat="38.125866348646284" lon="15.449308644055868"><ele>881.0</ele><time>2026-05-04T07:40:54.998Z</time></trkpt><trkpt lat="38.12578372133643" lon="15.449284284072498"><ele>881.0</ele><time>2026-05-04T07:40:55.998Z</time></trkpt><trkpt lat="38.12569493238618" lon="15.449237815356897"><ele>878.8333333333334</ele><time>2026-05-04T07:40:56.998Z</time></trkpt><trkpt lat="38.125631340554364" lon="15.449166923308912"><ele>876.6666666666667</ele><time>2026-05-04T07:40:57.998Z</time></trkpt><trkpt lat="38.12558254465751" lon="15.449083484695613"><ele>874.5</ele><time>2026-05-04T07:40:58.998Z</time></trkpt><trkpt lat="38.12553512830018" lon="15.448981181776569"><ele>872.3333333333333</ele><time>2026-05-04T07:40:59.998Z</time></trkpt><trkpt lat="38.12549115597182" lon="15.448865787888824"><ele>870.1666666666666</ele><time>2026-05-04T07:41:00.998Z</time></trkpt><trkpt lat="38.12545258060425" lon="15.448768018423692"><ele>868.0</ele><time>2026-05-04T07:41:01.998Z</time></trkpt><trkpt lat="38.125431452238566" lon="15.4486709995653"><ele>867.9999999999999</ele><time>2026-05-04T07:41:02.998Z</time></trkpt><trkpt lat="38.12542046235214" lon="15.448561003895367"><ele>868.0</ele><time>2026-05-04T07:41:03.998Z</time></trkpt><trkpt lat="38.125432441165714" lon="15.44844794439653"><ele>868.0</ele><time>2026-05-04T07:41:04.998Z</time></trkpt><trkpt lat="38.12544962071477" lon="15.44835234004177"><ele>868.0</ele><time>2026-05-04T07:41:05.998Z</time></trkpt><trkpt lat="38.12546546489768" lon="15.448232616736034"><ele>867.9999999999999</ele><time>2026-05-04T07:41:06.998Z</time></trkpt><trkpt lat="38.12546342466827" lon="15.448108322232624"><ele>868.0</ele><time>2026-05-04T07:41:07.998Z</time></trkpt><trkpt lat="38.12544607456028" lon="15.447997082696155"><ele>871.6666666666666</ele><time>2026-05-04T07:41:08.998Z</time></trkpt><trkpt lat="38.125428814879" lon="15.44789568962564"><ele>875.3333333333333</ele><time>2026-05-04T07:41:09.998Z</time></trkpt><trkpt lat="38.12538862074369" lon="15.447812389310878"><ele>879.0</ele><time>2026-05-04T07:41:10.998Z</time></trkpt><trkpt lat="38.12533613421886" lon="15.447749260377233"><ele>882.6666666666667</ele><time>2026-05-04T07:41:11.998Z</time></trkpt><trkpt lat="38.12526942561912" lon="15.447716727607997"><ele>886.3333333333334</ele><time>2026-05-04T07:41:12.998Z</time></trkpt><trkpt lat="38.125199868492935" lon="15.447697520208276"><ele>890.0</ele><time>2026-05-04T07:41:13.998Z</time></trkpt><trkpt lat="38.125120683369445" lon="15.447661101960323"><ele>890.0000000000001</ele><time>2026-05-04T07:41:14.998Z</time></trkpt><trkpt lat="38.12505435754937" lon="15.447633303491852"><ele>890.0</ele><time>2026-05-04T07:41:15.998Z</time></trkpt><trkpt lat="38.124978975189194" lon="15.447573738949846"><ele>890.0</ele><time>2026-05-04T07:41:16.998Z</time></trkpt><trkpt lat="38.12491816732479" lon="15.447529507408678"><ele>890.0</ele><time>2026-05-04T07:41:17.998Z</time></trkpt><trkpt lat="38.12482214311985" lon="15.447548553155297"><ele>890.0000000000001</ele><time>2026-05-04T07:41:19.998Z</time></trkpt><trkpt lat="38.124759012342835" lon="15.447498009411202"><ele>890.0</ele><time>2026-05-04T07:41:23.998Z</time></trkpt><trkpt lat="38.12470591610455" lon="15.447431954812728"><ele>888.2</ele><time>2026-05-04T07:41:25.998Z</time></trkpt><trkpt lat="38.124628533363804" lon="15.44728022771515"><ele>886.4</ele><time>2026-05-04T07:41:27.998Z</time></trkpt><trkpt lat="38.12456732028905" lon="15.44719519142679"><ele>884.5999999999999</ele><time>2026-05-04T07:41:28.998Z</time></trkpt><trkpt lat="38.12450393601976" lon="15.4470981882497"><ele>882.8</ele><time>2026-05-04T07:41:29.998Z</time></trkpt><trkpt lat="38.12442514566165" lon="15.447004877272494"><ele>881.0</ele><time>2026-05-04T07:41:30.998Z</time></trkpt><trkpt lat="38.12435472122415" lon="15.446936829255547"><ele>883.1666666666667</ele><time>2026-05-04T07:41:31.998Z</time></trkpt><trkpt lat="38.12430019107051" lon="15.446891803171306"><ele>885.3333333333334</ele><time>2026-05-04T07:41:32.998Z</time></trkpt><trkpt lat="38.1242472869694" lon="15.446842716466431"><ele>887.5</ele><time>2026-05-04T07:41:33.998Z</time></trkpt><trkpt lat="38.12417869747495" lon="15.446794379335941"><ele>889.6666666666667</ele><time>2026-05-04T07:41:34.998Z</time></trkpt><trkpt lat="38.12409907759688" lon="15.446726408376627"><ele>891.8333333333334</ele><time>2026-05-04T07:41:35.998Z</time></trkpt><trkpt lat="38.12403282058222" lon="15.446670243308457"><ele>894.0</ele><time>2026-05-04T07:41:36.998Z</time></trkpt><trkpt lat="38.12396715690108" lon="15.446614289932162"><ele>894.0</ele><time>2026-05-04T07:41:37.998Z</time></trkpt><trkpt lat="38.123903142996326" lon="15.44656565227154"><ele>894.0</ele><time>2026-05-04T07:41:38.998Z</time></trkpt><trkpt lat="38.12384746609187" lon="15.446526914110006"><ele>894.0</ele><time>2026-05-04T07:41:40Z</time></trkpt><trkpt lat="38.12378389580331" lon="15.44647611008608"><ele>894.0</ele><time>2026-05-04T07:41:41Z</time></trkpt><trkpt lat="38.12373545452695" lon="15.446418539852386"><ele>894.0</ele><time>2026-05-04T07:41:42Z</time></trkpt><trkpt lat="38.123634939981855" lon="15.446313616017283"><ele>894.0</ele><time>2026-05-04T07:41:44Z</time></trkpt><trkpt lat="38.12357249383378" lon="15.446272118813132"><ele>897.5714285714284</ele><time>2026-05-04T07:41:45Z</time></trkpt><trkpt lat="38.1235117807597" lon="15.446222440944808"><ele>901.1428571428571</ele><time>2026-05-04T07:41:46Z</time></trkpt><trkpt lat="38.123451421052415" lon="15.446178400424262"><ele>904.7142857142857</ele><time>2026-05-04T07:41:47Z</time></trkpt><trkpt lat="38.12339166402404" lon="15.446136271042619"><ele>908.2857142857142</ele><time>2026-05-04T07:41:48Z</time></trkpt><trkpt lat="38.12333548332273" lon="15.446080501801514"><ele>911.8571428571428</ele><time>2026-05-04T07:41:49Z</time></trkpt><trkpt lat="38.12327438504167" lon="15.44601012325448"><ele>915.4285714285713</ele><time>2026-05-04T07:41:50Z</time></trkpt><trkpt lat="38.123204045517475" lon="15.445949927219017"><ele>919.0</ele><time>2026-05-04T07:41:51Z</time></trkpt><trkpt lat="38.1231332388679" lon="15.445913092980472"><ele>918.9999999999999</ele><time>2026-05-04T07:41:52Z</time></trkpt><trkpt lat="38.12305637554471" lon="15.445867576809194"><ele>919.0</ele><time>2026-05-04T07:41:53Z</time></trkpt><trkpt lat="38.12298783982701" lon="15.445826326392261"><ele>919.0</ele><time>2026-05-04T07:41:54Z</time></trkpt><trkpt lat="38.122916937092235" lon="15.44578440077548"><ele>919.0</ele><time>2026-05-04T07:41:55Z</time></trkpt><trkpt lat="38.122835868676496" lon="15.445743324337906"><ele>918.9999999999999</ele><time>2026-05-04T07:41:56Z</time></trkpt><trkpt lat="38.12276252921076" lon="15.445693945877938"><ele>919.0</ele><time>2026-05-04T07:41:57Z</time></trkpt><trkpt lat="38.1226971939633" lon="15.445639672637283"><ele>919.0</ele><time>2026-05-04T07:41:57.999Z</time></trkpt><trkpt lat="38.12259367205898" lon="15.445550533976444"><ele>919.0000000000001</ele><time>2026-05-04T07:41:59.999Z</time></trkpt><trkpt lat="38.12252006657255" lon="15.445524870570535"><ele>919.0000000000001</ele><time>2026-05-04T07:42:00.999Z</time></trkpt><trkpt lat="38.1224503520553" lon="15.44549938689785"><ele>919.0</ele><time>2026-05-04T07:42:01.999Z</time></trkpt><trkpt lat="38.12238346996692" lon="15.445495701444196"><ele>919.0</ele><time>2026-05-04T07:42:02.999Z</time></trkpt><trkpt lat="38.122282178078244" lon="15.445555361711593"><ele>922.6666666666666</ele><time>2026-05-04T07:42:04.999Z</time></trkpt><trkpt lat="38.12223978605315" lon="15.445617042722722"><ele>926.3333333333333</ele><time>2026-05-04T07:42:05.999Z</time></trkpt><trkpt lat="38.12219560523461" lon="15.445680395077218"><ele>930.0</ele><time>2026-05-04T07:42:06.999Z</time></trkpt><trkpt lat="38.12214964896396" lon="15.445752037846185"><ele>933.6666666666667</ele><time>2026-05-04T07:42:07.999Z</time></trkpt><trkpt lat="38.122094883037576" lon="15.445824449439835"><ele>937.3333333333334</ele><time>2026-05-04T07:42:08.999Z</time></trkpt><trkpt lat="38.12202954053278" lon="15.44587912904771"><ele>941.0</ele><time>2026-05-04T07:42:09.999Z</time></trkpt><trkpt lat="38.121954452104454" lon="15.44594148827265"><ele>940.9999999999999</ele><time>2026-05-04T07:42:10.999Z</time></trkpt><trkpt lat="38.12190102416366" lon="15.446015168259073"><ele>941.0</ele><time>2026-05-04T07:42:11.999Z</time></trkpt><trkpt lat="38.121847704210744" lon="15.44608803058498"><ele>940.9999999999999</ele><time>2026-05-04T07:42:12.999Z</time></trkpt><trkpt lat="38.12178906020406" lon="15.446142650705571"><ele>940.9999999999999</ele><time>2026-05-04T07:42:13.999Z</time></trkpt><trkpt lat="38.12173027133522" lon="15.446188982754625"><ele>941.0</ele><time>2026-05-04T07:42:14.999Z</time></trkpt><trkpt lat="38.12166282802201" lon="15.446210767254955"><ele>940.9999999999999</ele><time>2026-05-04T07:42:15.999Z</time></trkpt><trkpt lat="38.12159470241213" lon="15.446232516210149"><ele>940.9999999999999</ele><time>2026-05-04T07:42:16.999Z</time></trkpt><trkpt lat="38.12151383062166" lon="15.446257991976077"><ele>943.3333333333334</ele><time>2026-05-04T07:42:17.999Z</time></trkpt><trkpt lat="38.12142122337919" lon="15.446276529950794"><ele>945.6666666666667</ele><time>2026-05-04T07:42:18.999Z</time></trkpt><trkpt lat="38.121328848813555" lon="15.446299316159157"><ele>948.0</ele><time>2026-05-04T07:42:19.999Z</time></trkpt><trkpt lat="38.12125386255081" lon="15.446346207434924"><ele>950.3333333333333</ele><time>2026-05-04T07:42:20.999Z</time></trkpt><trkpt lat="38.12118158030025" lon="15.446395929411496"><ele>952.6666666666666</ele><time>2026-05-04T07:42:21.999Z</time></trkpt><trkpt lat="38.121122317167305" lon="15.446446779403002"><ele>955.0</ele><time>2026-05-04T07:42:22.999Z</time></trkpt><trkpt lat="38.12107612255461" lon="15.446525519060181"><ele>954.9999999999999</ele><time>2026-05-04T07:42:23.999Z</time></trkpt><trkpt lat="38.121037595784344" lon="15.446619604289358"><ele>955.0</ele><time>2026-05-04T07:42:24.999Z</time></trkpt><trkpt lat="38.12101201468561" lon="15.446725710006994"><ele>955.0</ele><time>2026-05-04T07:42:25.999Z</time></trkpt><trkpt lat="38.120990964837866" lon="15.446848903277546"><ele>955.0</ele><time>2026-05-04T07:42:26.999Z</time></trkpt><trkpt lat="38.12097309474402" lon="15.446952605026535"><ele>954.9999999999999</ele><time>2026-05-04T07:42:27.999Z</time></trkpt><trkpt lat="38.120969128533346" lon="15.447040539202073"><ele>955.0</ele><time>2026-05-04T07:42:28.999Z</time></trkpt><trkpt lat="38.12097247192157" lon="15.447128858931483"><ele>951.6666666666666</ele><time>2026-05-04T07:42:29.999Z</time></trkpt><trkpt lat="38.1209776697964" lon="15.447213542888614"><ele>948.3333333333333</ele><time>2026-05-04T07:42:30.999Z</time></trkpt><trkpt lat="38.120978835590094" lon="15.447302250272998"><ele>945.0</ele><time>2026-05-04T07:42:31.999Z</time></trkpt><trkpt lat="38.12093991044142" lon="15.447396844884738"><ele>941.6666666666667</ele><time>2026-05-04T07:42:33.999Z</time></trkpt><trkpt lat="38.12083538726438" lon="15.447412743466264"><ele>938.3333333333334</ele><time>2026-05-04T07:42:35.999Z</time></trkpt><trkpt lat="38.12076030528322" lon="15.44742563798147"><ele>935.0</ele><time>2026-05-04T07:42:36.999Z</time></trkpt><trkpt lat="38.12067463771299" lon="15.447444093590057"><ele>935.0</ele><time>2026-05-04T07:42:37.999Z</time></trkpt><trkpt lat="38.12058496062462" lon="15.44748385066624"><ele>935.0</ele><time>2026-05-04T07:42:38.999Z</time></trkpt><trkpt lat="38.120498592464976" lon="15.447509498965607"><ele>935.0</ele><time>2026-05-04T07:42:39.999Z</time></trkpt><trkpt lat="38.12041031725968" lon="15.447508850159757"><ele>935.0</ele><time>2026-05-04T07:42:40.999Z</time></trkpt><trkpt lat="38.12028272182514" lon="15.44753065228429"><ele>935.0</ele><time>2026-05-04T07:42:42.999Z</time></trkpt><trkpt lat="38.12016118254672" lon="15.447508980611536"><ele>935.0000000000001</ele><time>2026-05-04T07:42:44.999Z</time></trkpt><trkpt lat="38.12012240465088" lon="15.447438931511435"><ele>935.0</ele><time>2026-05-04T07:42:45.999Z</time></trkpt><trkpt lat="38.120067258765" lon="15.447386908756467"><ele>935.0</ele><time>2026-05-04T07:42:46.999Z</time></trkpt><trkpt lat="38.11999627453268" lon="15.447331127760448"><ele>935.0</ele><time>2026-05-04T07:42:47.999Z</time></trkpt><trkpt lat="38.11994127501503" lon="15.447257814968944"><ele>935.0000000000001</ele><time>2026-05-04T07:42:48.999Z</time></trkpt><trkpt lat="38.119869124639905" lon="15.447179140938648"><ele>935.0</ele><time>2026-05-04T07:42:49.999Z</time></trkpt><trkpt lat="38.11978241771926" lon="15.447096843305934"><ele>942.4</ele><time>2026-05-04T07:42:50.999Z</time></trkpt><trkpt lat="38.119698396953765" lon="15.447013623055637"><ele>949.8</ele><time>2026-05-04T07:42:51.999Z</time></trkpt><trkpt lat="38.11960408101999" lon="15.446929909287395"><ele>957.2</ele><time>2026-05-04T07:42:52.998Z</time></trkpt><trkpt lat="38.119516085980074" lon="15.446864824921658"><ele>964.6</ele><time>2026-05-04T07:42:53.998Z</time></trkpt><trkpt lat="38.119448778454846" lon="15.446799419861787"><ele>972.0</ele><time>2026-05-04T07:42:54.998Z</time></trkpt><trkpt lat="38.11933667929036" lon="15.446798734779618"><ele>972.0</ele><time>2026-05-04T07:42:56.998Z</time></trkpt><trkpt lat="38.119264795445154" lon="15.446802664581998"><ele>972.0</ele><time>2026-05-04T07:42:57.998Z</time></trkpt><trkpt lat="38.11917425699495" lon="15.446812245455677"><ele>972.0</ele><time>2026-05-04T07:42:58.998Z</time></trkpt><trkpt lat="38.11908402245697" lon="15.446832947093716"><ele>972.0</ele><time>2026-05-04T07:42:59.998Z</time></trkpt><trkpt lat="38.119026348150356" lon="15.446875853838202"><ele>972.0</ele><time>2026-05-04T07:43:00.998Z</time></trkpt><trkpt lat="38.118959755041224" lon="15.447000446675453"><ele>972.0</ele><time>2026-05-04T07:43:02.998Z</time></trkpt><trkpt lat="38.118917341628624" lon="15.447122571927812"><ele>970.8333333333334</ele><time>2026-05-04T07:43:03.998Z</time></trkpt><trkpt lat="38.118873246533624" lon="15.447218650077925"><ele>969.6666666666667</ele><time>2026-05-04T07:43:04.998Z</time></trkpt><trkpt lat="38.11881973559216" lon="15.447263596050963"><ele>968.5</ele><time>2026-05-04T07:43:05.998Z</time></trkpt><trkpt lat="38.1187499056487" lon="15.447312565008325"><ele>967.3333333333334</ele><time>2026-05-04T07:43:06.998Z</time></trkpt><trkpt lat="38.11866179487915" lon="15.447351128176907"><ele>966.1666666666667</ele><time>2026-05-04T07:43:07.998Z</time></trkpt><trkpt lat="38.1185748083998" lon="15.447395956939783"><ele>965.0</ele><time>2026-05-04T07:43:08.998Z</time></trkpt><trkpt lat="38.11851080489193" lon="15.447464287315206"><ele>965.0</ele><time>2026-05-04T07:43:09.998Z</time></trkpt><trkpt lat="38.11844044645182" lon="15.447583046491351"><ele>965.0</ele><time>2026-05-04T07:43:11.998Z</time></trkpt><trkpt lat="38.118465942808285" lon="15.447711416740466"><ele>965.0</ele><time>2026-05-04T07:43:12.998Z</time></trkpt><trkpt lat="38.11847149683897" lon="15.447848350298553"><ele>965.0</ele><time>2026-05-04T07:43:13.998Z</time></trkpt><trkpt lat="38.118452337417295" lon="15.447944210022408"><ele>965.0</ele><time>2026-05-04T07:43:14.998Z</time></trkpt><trkpt lat="38.118407878132714" lon="15.448030877001555"><ele>963.0</ele><time>2026-05-04T07:43:15.998Z</time></trkpt><trkpt lat="38.118326569503054" lon="15.448123542589911"><ele>961.0</ele><time>2026-05-04T07:43:16.998Z</time></trkpt><trkpt lat="38.118234726424184" lon="15.448248494367293"><ele>959.0</ele><time>2026-05-04T07:43:17.998Z</time></trkpt><trkpt lat="38.11817197258329" lon="15.448347873521877"><ele>957.0</ele><time>2026-05-04T07:43:18.998Z</time></trkpt><trkpt lat="38.11810453433065" lon="15.448402606101393"><ele>955.0</ele><time>2026-05-04T07:43:19.998Z</time></trkpt><trkpt lat="38.11802377936026" lon="15.448411324498304"><ele>954.9999999999999</ele><time>2026-05-04T07:43:20.998Z</time></trkpt><trkpt lat="38.11793563980019" lon="15.44838184482524"><ele>955.0</ele><time>2026-05-04T07:43:21.998Z</time></trkpt><trkpt lat="38.117867664524134" lon="15.448324861754049"><ele>955.0</ele><time>2026-05-04T07:43:22.998Z</time></trkpt><trkpt lat="38.11782966634743" lon="15.448254508231583"><ele>955.0</ele><time>2026-05-04T07:43:23.998Z</time></trkpt><trkpt lat="38.117803014781465" lon="15.448158190269366"><ele>954.9999999999999</ele><time>2026-05-04T07:43:24.998Z</time></trkpt><trkpt lat="38.117772071947975" lon="15.44805767993926"><ele>955.0</ele><time>2026-05-04T07:43:25.998Z</time></trkpt><trkpt lat="38.11773312705276" lon="15.44797420671408"><ele>960.9999999999999</ele><time>2026-05-04T07:43:26.998Z</time></trkpt><trkpt lat="38.11766124225976" lon="15.447940983096949"><ele>967.0</ele><time>2026-05-04T07:43:27.998Z</time></trkpt><trkpt lat="38.11757449021771" lon="15.447933365272677"><ele>973.0</ele><time>2026-05-04T07:43:28.998Z</time></trkpt><trkpt lat="38.11748998144016" lon="15.447949093061405"><ele>979.0</ele><time>2026-05-04T07:43:29.998Z</time></trkpt><trkpt lat="38.117405494377905" lon="15.447949985919733"><ele>984.9999999999999</ele><time>2026-05-04T07:43:30.998Z</time></trkpt><trkpt lat="38.11732160657592" lon="15.44793079022206"><ele>991.0</ele><time>2026-05-04T07:43:31.998Z</time></trkpt><trkpt lat="38.11726818490339" lon="15.447882657827874"><ele>991.0</ele><time>2026-05-04T07:43:32.998Z</time></trkpt><trkpt lat="38.117160760796956" lon="15.447777333883687"><ele>990.9999999999999</ele><time>2026-05-04T07:43:34.998Z</time></trkpt><trkpt lat="38.117079599166644" lon="15.447706249243408"><ele>990.9999999999999</ele><time>2026-05-04T07:43:35.998Z</time></trkpt><trkpt lat="38.11698633602207" lon="15.447645685555335"><ele>991.0</ele><time>2026-05-04T07:43:36.998Z</time></trkpt><trkpt lat="38.11689915227963" lon="15.447590591484277"><ele>991.0</ele><time>2026-05-04T07:43:37.998Z</time></trkpt><trkpt lat="38.116819439112746" lon="15.447543481469799"><ele>990.9999999999999</ele><time>2026-05-04T07:43:38.998Z</time></trkpt><trkpt lat="38.116743076813336" lon="15.447544356772083"><ele>991.0</ele><time>2026-05-04T07:43:39.998Z</time></trkpt><trkpt lat="38.1166510430468" lon="15.447605136151777"><ele>991.0</ele><time>2026-05-04T07:43:41.998Z</time></trkpt><trkpt lat="38.11660971938072" lon="15.44766675923705"><ele>991.0</ele><time>2026-05-04T07:43:42.998Z</time></trkpt><trkpt lat="38.11658378815164" lon="15.447742442838415"><ele>990.9999999999999</ele><time>2026-05-04T07:43:43.998Z</time></trkpt><trkpt lat="38.11656734471333" lon="15.447825510078594"><ele>991.0</ele><time>2026-05-04T07:43:44.998Z</time></trkpt><trkpt lat="38.11656005971018" lon="15.44792350059932"><ele>988.9999999999999</ele><time>2026-05-04T07:43:46Z</time></trkpt><trkpt lat="38.1165448155585" lon="15.448010097042946"><ele>987.0</ele><time>2026-05-04T07:43:47Z</time></trkpt><trkpt lat="38.11651584175981" lon="15.44814918851264"><ele>985.0</ele><time>2026-05-04T07:43:49Z</time></trkpt><trkpt lat="38.11649858194171" lon="15.448236995349847"><ele>983.0</ele><time>2026-05-04T07:43:50Z</time></trkpt><trkpt lat="38.1164821405359" lon="15.448343778054602"><ele>980.9999999999999</ele><time>2026-05-04T07:43:51Z</time></trkpt><trkpt lat="38.11646526763875" lon="15.448423576323425"><ele>979.0</ele><time>2026-05-04T07:43:52Z</time></trkpt><trkpt lat="38.116409341565245" lon="15.448523529907833"><ele>979.0</ele><time>2026-05-04T07:43:54Z</time></trkpt><trkpt lat="38.11629829073285" lon="15.44855948731966"><ele>979.0000000000001</ele><time>2026-05-04T07:43:56Z</time></trkpt><trkpt lat="38.11623625880955" lon="15.44857920844822"><ele>979.0000000000001</ele><time>2026-05-04T07:43:57Z</time></trkpt><trkpt lat="38.11615817534066" lon="15.448604032684248"><ele>979.0</ele><time>2026-05-04T07:43:58Z</time></trkpt><trkpt lat="38.11604761652005" lon="15.448642889724619"><ele>979.0</ele><time>2026-05-04T07:43:59Z</time></trkpt><trkpt lat="38.11596608637929" lon="15.448675566165063"><ele>978.9999999999999</ele><time>2026-05-04T07:44:00Z</time></trkpt><trkpt lat="38.115897040693746" lon="15.448715331008383"><ele>979.0</ele><time>2026-05-04T07:44:01Z</time></trkpt><trkpt lat="38.11580790476404" lon="15.448772914892018"><ele>979.0</ele><time>2026-05-04T07:44:01.999Z</time></trkpt><trkpt lat="38.11573201913987" lon="15.44880184559107"><ele>979.0</ele><time>2026-05-04T07:44:02.999Z</time></trkpt><trkpt lat="38.1156408935081" lon="15.448806365870858"><ele>978.9999999999999</ele><time>2026-05-04T07:44:04.999Z</time></trkpt><trkpt lat="38.11560151957144" lon="15.448903416332168"><ele>979.0</ele><time>2026-05-04T07:44:07.999Z</time></trkpt><trkpt lat="38.11569955654688" lon="15.448951935746125"><ele>973.0</ele><time>2026-05-04T07:44:09.999Z</time></trkpt><trkpt lat="38.11582034979872" lon="15.448929774520515"><ele>967.0000000000001</ele><time>2026-05-04T07:44:11.999Z</time></trkpt><trkpt lat="38.11589347062822" lon="15.448911266786713"><ele>961.0000000000001</ele><time>2026-05-04T07:44:12.999Z</time></trkpt><trkpt lat="38.11596479518509" lon="15.448898501041826"><ele>955.0</ele><time>2026-05-04T07:44:13.999Z</time></trkpt><trkpt lat="38.11603520763619" lon="15.44888615359959"><ele>949.0</ele><time>2026-05-04T07:44:14.999Z</time></trkpt><trkpt lat="38.116152721644745" lon="15.448889162918547"><ele>948.9999999999999</ele><time>2026-05-04T07:44:16.999Z</time></trkpt><trkpt lat="38.11622773443863" lon="15.448895539820676"><ele>949.0</ele><time>2026-05-04T07:44:17.999Z</time></trkpt><trkpt lat="38.11629409256928" lon="15.44890719259203"><ele>949.0</ele><time>2026-05-04T07:44:18.999Z</time></trkpt><trkpt lat="38.11636236510029" lon="15.448920164248449"><ele>949.0</ele><time>2026-05-04T07:44:19.999Z</time></trkpt><trkpt lat="38.116473010620425" lon="15.44893339366005"><ele>948.9999999999999</ele><time>2026-05-04T07:44:21.999Z</time></trkpt><trkpt lat="38.11653774711017" lon="15.448922684559275"><ele>949.0</ele><time>2026-05-04T07:44:22.999Z</time></trkpt><trkpt lat="38.1166134205606" lon="15.44889346325308"><ele>946.4999999999999</ele><time>2026-05-04T07:44:23.999Z</time></trkpt><trkpt lat="38.116715830129074" lon="15.44884060910147"><ele>944.0</ele><time>2026-05-04T07:44:25.999Z</time></trkpt><trkpt lat="38.1167779778217" lon="15.448778257359674"><ele>941.5</ele><time>2026-05-04T07:44:27.999Z</time></trkpt><trkpt lat="38.116811932892496" lon="15.448864958142563"><ele>939.0</ele><time>2026-05-04T07:44:30.999Z</time></trkpt><trkpt lat="38.116725781386" lon="15.448948584133813"><ele>936.4999999999999</ele><time>2026-05-04T07:44:32.999Z</time></trkpt><trkpt lat="38.11665862100625" lon="15.448988078568114"><ele>934.0</ele><time>2026-05-04T07:44:33.999Z</time></trkpt><trkpt lat="38.11659371735804" lon="15.449036908682425"><ele>937.0</ele><time>2026-05-04T07:44:34.999Z</time></trkpt><trkpt lat="38.11652902535434" lon="15.449085335005167"><ele>940.0000000000001</ele><time>2026-05-04T07:44:35.999Z</time></trkpt><trkpt lat="38.11646419522431" lon="15.449141516585541"><ele>943.0000000000001</ele><time>2026-05-04T07:44:36.999Z</time></trkpt><trkpt lat="38.116356907076074" lon="15.449194927700479"><ele>946.0</ele><time>2026-05-04T07:44:38.999Z</time></trkpt><trkpt lat="38.11625862743666" lon="15.449267685419757"><ele>949.0</ele><time>2026-05-04T07:44:40.999Z</time></trkpt><trkpt lat="38.116189962023796" lon="15.449404825822546"><ele>949.0</ele><time>2026-05-04T07:44:42.999Z</time></trkpt><trkpt lat="38.11609921309251" lon="15.44948202102241"><ele>949.0</ele><time>2026-05-04T07:44:44.999Z</time></trkpt><trkpt lat="38.116001250764455" lon="15.449529871477008"><ele>949.0</ele><time>2026-05-04T07:44:46.999Z</time></trkpt><trkpt lat="38.116000194367295" lon="15.449681811511416"><ele>949.0</ele><time>2026-05-04T07:44:49.999Z</time></trkpt><trkpt lat="38.11611713128773" lon="15.449687494004378"><ele>948.9999999999999</ele><time>2026-05-04T07:44:51.999Z</time></trkpt><trkpt lat="38.116201246509256" lon="15.449675583893345"><ele>949.0</ele><time>2026-05-04T07:44:53.999Z</time></trkpt><trkpt lat="38.116277129907644" lon="15.449641740446094"><ele>949.0</ele><time>2026-05-04T07:44:55.999Z</time></trkpt><trkpt lat="38.116329500386904" lon="15.449565931090698"><ele>949.0</ele><time>2026-05-04T07:44:57.998Z</time></trkpt><trkpt lat="38.116408073935" lon="15.449512104810845"><ele>948.9999999999999</ele><time>2026-05-04T07:44:59.998Z</time></trkpt><trkpt lat="38.11649035973619" lon="15.449486702563586"><ele>949.0</ele><time>2026-05-04T07:45:02.998Z</time></trkpt><trkpt lat="38.11656417146285" lon="15.449452824981348"><ele>946.4999999999999</ele><time>2026-05-04T07:45:05.998Z</time></trkpt><trkpt lat="38.11664118190497" lon="15.449397297627815"><ele>944.0</ele><time>2026-05-04T07:45:07.998Z</time></trkpt><trkpt lat="38.116738053334316" lon="15.44934487644461"><ele>941.5</ele><time>2026-05-04T07:45:09.998Z</time></trkpt><trkpt lat="38.11682647252798" lon="15.449307028266077"><ele>939.0</ele><time>2026-05-04T07:45:11.998Z</time></trkpt><trkpt lat="38.11687508304202" lon="15.44937043825588"><ele>936.4999999999999</ele><time>2026-05-04T07:45:14.998Z</time></trkpt><trkpt lat="38.116833254020214" lon="15.449468772719973"><ele>934.0</ele><time>2026-05-04T07:45:16.998Z</time></trkpt><trkpt lat="38.116776529700886" lon="15.449612373504838"><ele>929.9999999999999</ele><time>2026-05-04T07:45:18.998Z</time></trkpt><trkpt lat="38.1167628674729" lon="15.449700332049364"><ele>926.0</ele><time>2026-05-04T07:45:19.998Z</time></trkpt><trkpt lat="38.11671197090487" lon="15.44980206715467"><ele>922.0</ele><time>2026-05-04T07:45:20.998Z</time></trkpt><trkpt lat="38.11669638815655" lon="15.449914743869671"><ele>918.0</ele><time>2026-05-04T07:45:21.998Z</time></trkpt><trkpt lat="38.11668939461494" lon="15.450009421512448"><ele>913.9999999999999</ele><time>2026-05-04T07:45:22.998Z</time></trkpt><trkpt lat="38.11669516397825" lon="15.450121628319497"><ele>910.0</ele><time>2026-05-04T07:45:23.998Z</time></trkpt><trkpt lat="38.116699243420875" lon="15.450216741754579"><ele>909.9999999999999</ele><time>2026-05-04T07:45:24.998Z</time></trkpt><trkpt lat="38.11669562314296" lon="15.450315878407505"><ele>910.0</ele><time>2026-05-04T07:45:25.998Z</time></trkpt><trkpt lat="38.116692916973605" lon="15.450458487583969"><ele>910.0</ele><time>2026-05-04T07:45:27.998Z</time></trkpt><trkpt lat="38.116752120836146" lon="15.450539044570608"><ele>910.0</ele><time>2026-05-04T07:45:29.998Z</time></trkpt><trkpt lat="38.11680487666811" lon="15.4504647197934"><ele>909.9999999999999</ele><time>2026-05-04T07:45:31.998Z</time></trkpt><trkpt lat="38.11684375326017" lon="15.450397887723565"><ele>910.0</ele><time>2026-05-04T07:45:33.998Z</time></trkpt><trkpt lat="38.116881181135916" lon="15.450230902187712"><ele>909.9999999999999</ele><time>2026-05-04T07:45:35.998Z</time></trkpt><trkpt lat="38.11690184705141" lon="15.450118078688197"><ele>910.0</ele><time>2026-05-04T07:45:36.998Z</time></trkpt><trkpt lat="38.11691805580539" lon="15.449998654001224"><ele>910.0</ele><time>2026-05-04T07:45:37.998Z</time></trkpt><trkpt lat="38.116969166850495" lon="15.449917072894344"><ele>910.0</ele><time>2026-05-04T07:45:38.998Z</time></trkpt><trkpt lat="38.117001848835486" lon="15.449825075771482"><ele>909.9999999999999</ele><time>2026-05-04T07:45:39.998Z</time></trkpt><trkpt lat="38.11702842963624" lon="15.449748236646368"><ele>910.0</ele><time>2026-05-04T07:45:40.998Z</time></trkpt><trkpt lat="38.11706614331416" lon="15.44963677265602"><ele>910.0</ele><time>2026-05-04T07:45:42.998Z</time></trkpt><trkpt lat="38.11702791903914" lon="15.449749935505144"><ele>910.0</ele><time>2026-05-04T07:45:47.998Z</time></trkpt><trkpt lat="38.11705478894092" lon="15.449846649317545"><ele>910.0</ele><time>2026-05-04T07:45:48.998Z</time></trkpt><trkpt lat="38.11702445059494" lon="15.450001369880953"><ele>910.0</ele><time>2026-05-04T07:45:50.998Z</time></trkpt><trkpt lat="38.11703670685737" lon="15.450095289108413"><ele>910.0</ele><time>2026-05-04T07:45:52Z</time></trkpt><trkpt lat="38.117049468502216" lon="15.45019130677561"><ele>909.9999999999999</ele><time>2026-05-04T07:45:53Z</time></trkpt><trkpt lat="38.11705699209747" lon="15.450296827587113"><ele>910.0</ele><time>2026-05-04T07:45:54Z</time></trkpt><trkpt lat="38.11708910228927" lon="15.450453973410259"><ele>910.0</ele><time>2026-05-04T07:45:56Z</time></trkpt><trkpt lat="38.11710788922139" lon="15.450531920912729"><ele>910.0</ele><time>2026-05-04T07:45:57Z</time></trkpt><trkpt lat="38.11709975986581" lon="15.450650444206657"><ele>909.9999999999999</ele><time>2026-05-04T07:45:58Z</time></trkpt><trkpt lat="38.117075204857855" lon="15.450739699444005"><ele>910.0</ele><time>2026-05-04T07:45:59Z</time></trkpt><trkpt lat="38.11708945056026" lon="15.450836751609376"><ele>904.4</ele><time>2026-05-04T07:46:00Z</time></trkpt><trkpt lat="38.11712054566139" lon="15.45092682639697"><ele>898.8</ele><time>2026-05-04T07:46:01Z</time></trkpt><trkpt lat="38.11713594911178" lon="15.451039959569107"><ele>893.2</ele><time>2026-05-04T07:46:03Z</time></trkpt><trkpt lat="38.117074323751226" lon="15.45107850277769"><ele>887.6</ele><time>2026-05-04T07:46:04Z</time></trkpt><trkpt lat="38.1170018216752" lon="15.451196992058561"><ele>882.0</ele><time>2026-05-04T07:46:06Z</time></trkpt><trkpt lat="38.11693512152942" lon="15.451309818755663"><ele>882.0</ele><time>2026-05-04T07:46:07.999Z</time></trkpt><trkpt lat="38.11698986768029" lon="15.45141214993497"><ele>882.0</ele><time>2026-05-04T07:46:10.999Z</time></trkpt><trkpt lat="38.11706486527558" lon="15.451361951075596"><ele>882.0</ele><time>2026-05-04T07:46:12.999Z</time></trkpt><trkpt lat="38.11711693172514" lon="15.451251984905012"><ele>882.0</ele><time>2026-05-04T07:46:14.999Z</time></trkpt><trkpt lat="38.11717914363982" lon="15.451200061631097"><ele>882.0</ele><time>2026-05-04T07:46:16.999Z</time></trkpt><trkpt lat="38.11724838848877" lon="15.45113953464228"><ele>882.0</ele><time>2026-05-04T07:46:18.999Z</time></trkpt><trkpt lat="38.117311787008035" lon="15.451123595535394"><ele>882.0</ele><time>2026-05-04T07:46:20.999Z</time></trkpt><trkpt lat="38.11731465990035" lon="15.451248785811002"><ele>882.0</ele><time>2026-05-04T07:46:22.999Z</time></trkpt><trkpt lat="38.11727198126744" lon="15.451398743095488"><ele>882.0</ele><time>2026-05-04T07:46:24.999Z</time></trkpt><trkpt lat="38.117280502576065" lon="15.451490400171023"><ele>882.0</ele><time>2026-05-04T07:46:25.999Z</time></trkpt><trkpt lat="38.117164562921474" lon="15.451594943861197"><ele>882.0</ele><time>2026-05-04T07:46:27.999Z</time></trkpt><trkpt lat="38.117156172470125" lon="15.451695664854313"><ele>879.7142857142857</ele><time>2026-05-04T07:46:29.999Z</time></trkpt><trkpt lat="38.117232994077305" lon="15.451743337963755"><ele>877.4285714285714</ele><time>2026-05-04T07:46:30.999Z</time></trkpt><trkpt lat="38.11729651911548" lon="15.451684449691252"><ele>875.1428571428571</ele><time>2026-05-04T07:46:31.999Z</time></trkpt><trkpt lat="38.11733021272484" lon="15.451611727392327"><ele>872.8571428571429</ele><time>2026-05-04T07:46:33.999Z</time></trkpt><trkpt lat="38.11738125950379" lon="15.451559544563361"><ele>870.5714285714286</ele><time>2026-05-04T07:46:36.999Z</time></trkpt><trkpt lat="38.117411772212435" lon="15.451486897463248"><ele>868.2857142857142</ele><time>2026-05-04T07:46:39.999Z</time></trkpt><trkpt lat="38.11745176427878" lon="15.451387002268456"><ele>866.0</ele><time>2026-05-04T07:46:42.999Z</time></trkpt><trkpt lat="38.1174802029719" lon="15.45127147795147"><ele>863.4</ele><time>2026-05-04T07:46:45.999Z</time></trkpt><trkpt lat="38.11755604387256" lon="15.451317939990984"><ele>860.8</ele><time>2026-05-04T07:46:48.999Z</time></trkpt><trkpt lat="38.11753669032249" lon="15.451432771288555"><ele>858.1999999999999</ele><time>2026-05-04T07:46:50.999Z</time></trkpt><trkpt lat="38.117506865949665" lon="15.451542791529306"><ele>855.5999999999999</ele><time>2026-05-04T07:46:52.999Z</time></trkpt><trkpt lat="38.11752011651768" lon="15.451659773389434"><ele>853.0</ele><time>2026-05-04T07:46:54.999Z</time></trkpt><trkpt lat="38.11753150002742" lon="15.451826959360947"><ele>853.0</ele><time>2026-05-04T07:46:56.999Z</time></trkpt><trkpt lat="38.11759205696461" lon="15.451935662065406"><ele>853.0</ele><time>2026-05-04T07:46:58.999Z</time></trkpt><trkpt lat="38.11762359313865" lon="15.452009416005682"><ele>853.0</ele><time>2026-05-04T07:46:59.999Z</time></trkpt><trkpt lat="38.117682292172596" lon="15.4521275352168"><ele>853.0</ele><time>2026-05-04T07:47:01.999Z</time></trkpt><trkpt lat="38.11774754390565" lon="15.452254142144207"><ele>853.0</ele><time>2026-05-04T07:47:03.998Z</time></trkpt><trkpt lat="38.11785572631289" lon="15.452305165450337"><ele>852.9999999999999</ele><time>2026-05-04T07:47:05.998Z</time></trkpt><trkpt lat="38.11791502954366" lon="15.452260956882034"><ele>853.0</ele><time>2026-05-04T07:47:06.998Z</time></trkpt><trkpt lat="38.11799872315996" lon="15.452208146679816"><ele>853.0</ele><time>2026-05-04T07:47:08.998Z</time></trkpt><trkpt lat="38.118075143827696" lon="15.452165458516856"><ele>853.0</ele><time>2026-05-04T07:47:10.998Z</time></trkpt><trkpt lat="38.11814192414649" lon="15.452116437646891"><ele>852.9999999999999</ele><time>2026-05-04T07:47:12.998Z</time></trkpt><trkpt lat="38.1182049614596" lon="15.452121409883688"><ele>853.0</ele><time>2026-05-04T07:47:14.998Z</time></trkpt><trkpt lat="38.11825569365602" lon="15.452176685777534"><ele>851.1666666666666</ele><time>2026-05-04T07:47:16.998Z</time></trkpt><trkpt lat="38.11829543603403" lon="15.452245091263652"><ele>849.3333333333333</ele><time>2026-05-04T07:47:18.998Z</time></trkpt><trkpt lat="38.11831211275356" lon="15.452338662274029"><ele>847.5</ele><time>2026-05-04T07:47:20.998Z</time></trkpt><trkpt lat="38.118341860188416" lon="15.452449153895346"><ele>845.6666666666667</ele><time>2026-05-04T07:47:22.998Z</time></trkpt><trkpt lat="38.118384896503294" lon="15.45254503185602"><ele>843.8333333333334</ele><time>2026-05-04T07:47:24.998Z</time></trkpt><trkpt lat="38.118445449033736" lon="15.452621448983654"><ele>842.0</ele><time>2026-05-04T07:47:26.998Z</time></trkpt><trkpt lat="38.11849490166446" lon="15.452693270691153"><ele>842.0</ele><time>2026-05-04T07:47:28.998Z</time></trkpt><trkpt lat="38.11858937330371" lon="15.452743432429948"><ele>842.0</ele><time>2026-05-04T07:47:30.998Z</time></trkpt><trkpt lat="38.11869361469325" lon="15.452812455749616"><ele>842.0</ele><time>2026-05-04T07:47:32.998Z</time></trkpt><trkpt lat="38.11871314642557" lon="15.452890530901527"><ele>842.0</ele><time>2026-05-04T07:47:33.998Z</time></trkpt><trkpt lat="38.11867596768157" lon="15.45297869778773"><ele>842.0</ele><time>2026-05-04T07:47:35.998Z</time></trkpt><trkpt lat="38.11862905484408" lon="15.453087968568555"><ele>841.0000000000001</ele><time>2026-05-04T07:47:37.998Z</time></trkpt><trkpt lat="38.11859776777415" lon="15.453193368451359"><ele>840.0</ele><time>2026-05-04T07:47:39.998Z</time></trkpt><trkpt lat="38.11858922760257" lon="15.453284370569754"><ele>839.0</ele><time>2026-05-04T07:47:41.998Z</time></trkpt><trkpt lat="38.11859968388753" lon="15.453387865160215"><ele>838.0</ele><time>2026-05-04T07:47:43.998Z</time></trkpt><trkpt lat="38.11863984563132" lon="15.453498591741331"><ele>837.0000000000001</ele><time>2026-05-04T07:47:45.998Z</time></trkpt><trkpt lat="38.118701970606615" lon="15.453597557180151"><ele>836.0</ele><time>2026-05-04T07:47:47.998Z</time></trkpt><trkpt lat="38.1187398869987" lon="15.453715928024923"><ele>836.0000000000001</ele><time>2026-05-04T07:47:49.998Z</time></trkpt><trkpt lat="38.118750304428644" lon="15.45381499190265"><ele>836.0</ele><time>2026-05-04T07:47:51.998Z</time></trkpt><trkpt lat="38.11885033017062" lon="15.453788268053046"><ele>836.0</ele><time>2026-05-04T07:47:54.998Z</time></trkpt><trkpt lat="38.11882913706165" lon="15.453712541607787"><ele>836.0</ele><time>2026-05-04T07:47:56.998Z</time></trkpt><trkpt lat="38.118792616650936" lon="15.453593181069076"><ele>836.0000000000001</ele><time>2026-05-04T07:47:59Z</time></trkpt><trkpt lat="38.118766892385416" lon="15.45349825127135"><ele>836.0</ele><time>2026-05-04T07:47:59.999Z</time></trkpt><trkpt lat="38.118738206103345" lon="15.453416882320589"><ele>836.0</ele><time>2026-05-04T07:48:00.999Z</time></trkpt><trkpt lat="38.118710601795975" lon="15.453343340649386"><ele>836.0</ele><time>2026-05-04T07:48:02Z</time></trkpt><trkpt lat="38.118705879021455" lon="15.453246939293509"><ele>836.0</ele><time>2026-05-04T07:48:04Z</time></trkpt><trkpt lat="38.11875896534046" lon="15.453193157205467"><ele>836.0</ele><time>2026-05-04T07:48:05.999Z</time></trkpt><trkpt lat="38.118815534533894" lon="15.453101784757127"><ele>836.0</ele><time>2026-05-04T07:48:08Z</time></trkpt><trkpt lat="38.11886933782057" lon="15.453036817510224"><ele>836.0</ele><time>2026-05-04T07:48:08.999Z</time></trkpt><trkpt lat="38.118908403479864" lon="15.452958309473127"><ele>836.0</ele><time>2026-05-04T07:48:10Z</time></trkpt><trkpt lat="38.11893072725873" lon="15.452879439696112"><ele>837.1999999999999</ele><time>2026-05-04T07:48:11Z</time></trkpt><trkpt lat="38.1189494567012" lon="15.452730992063405"><ele>838.4</ele><time>2026-05-04T07:48:12.999Z</time></trkpt><trkpt lat="38.11890566426362" lon="15.45263137487864"><ele>839.6</ele><time>2026-05-04T07:48:13.999Z</time></trkpt><trkpt lat="38.118824615352935" lon="15.452600621751266"><ele>840.8</ele><time>2026-05-04T07:48:14.999Z</time></trkpt><trkpt lat="38.11875754852719" lon="15.452539897536495"><ele>842.0</ele><time>2026-05-04T07:48:15.999Z</time></trkpt><trkpt lat="38.118678717839884" lon="15.452436619491115"><ele>842.0</ele><time>2026-05-04T07:48:17.999Z</time></trkpt><trkpt lat="38.11866402023594" lon="15.452327333047599"><ele>842.0</ele><time>2026-05-04T07:48:19.999Z</time></trkpt><trkpt lat="38.118649843181174" lon="15.45218613004184"><ele>842.0</ele><time>2026-05-04T07:48:21.999Z</time></trkpt><trkpt lat="38.118625019990404" lon="15.452061626314332"><ele>842.0</ele><time>2026-05-04T07:48:23.999Z</time></trkpt><trkpt lat="38.11861083858901" lon="15.451948445538841"><ele>842.0</ele><time>2026-05-04T07:48:25.999Z</time></trkpt><trkpt lat="38.11861526951391" lon="15.45183664272993"><ele>842.0000000000001</ele><time>2026-05-04T07:48:27.999Z</time></trkpt><trkpt lat="38.11868340295447" lon="15.451867366748962"><ele>842.0</ele><time>2026-05-04T07:48:31.999Z</time></trkpt><trkpt lat="38.11866706237257" lon="15.452004161975616"><ele>842.0</ele><time>2026-05-04T07:48:34.999Z</time></trkpt><trkpt lat="38.11868653625372" lon="15.452095014075823"><ele>842.0</ele><time>2026-05-04T07:48:35.999Z</time></trkpt><trkpt lat="38.11872232040967" lon="15.452189073834813"><ele>842.0000000000001</ele><time>2026-05-04T07:48:36.999Z</time></trkpt><trkpt lat="38.118738008332016" lon="15.452301094398623"><ele>842.0</ele><time>2026-05-04T07:48:37.999Z</time></trkpt><trkpt lat="38.11877452401334" lon="15.452380296051329"><ele>842.0000000000001</ele><time>2026-05-04T07:48:38.999Z</time></trkpt><trkpt lat="38.11881338509913" lon="15.452444196623471"><ele>842.0</ele><time>2026-05-04T07:48:39.999Z</time></trkpt><trkpt lat="38.11887823553064" lon="15.452486114132508"><ele>842.0</ele><time>2026-05-04T07:48:40.999Z</time></trkpt><trkpt lat="38.11899578648449" lon="15.452545028803188"><ele>842.0</ele><time>2026-05-04T07:48:42.999Z</time></trkpt><trkpt lat="38.119052891000614" lon="15.452587809941795"><ele>842.0000000000001</ele><time>2026-05-04T07:48:43.999Z</time></trkpt><trkpt lat="38.11913666251964" lon="15.452664506760401"><ele>842.0</ele><time>2026-05-04T07:48:45.999Z</time></trkpt><trkpt lat="38.119129772327796" lon="15.45275947590951"><ele>841.0000000000001</ele><time>2026-05-04T07:48:47.999Z</time></trkpt><trkpt lat="38.11908359447103" lon="15.452872976187072"><ele>840.0</ele><time>2026-05-04T07:48:50.999Z</time></trkpt><trkpt lat="38.11907001549791" lon="15.452957484393814"><ele>839.0</ele><time>2026-05-04T07:48:51.999Z</time></trkpt><trkpt lat="38.11904084466891" lon="15.453082094836313"><ele>838.0</ele><time>2026-05-04T07:48:53.999Z</time></trkpt><trkpt lat="38.11900633139558" lon="15.453185823409049"><ele>837.0000000000001</ele><time>2026-05-04T07:48:55.999Z</time></trkpt><trkpt lat="38.11901727836921" lon="15.453268435389418"><ele>836.0</ele><time>2026-05-04T07:48:56.999Z</time></trkpt><trkpt lat="38.11909287623662" lon="15.453321558220473"><ele>829.8</ele><time>2026-05-04T07:48:57.999Z</time></trkpt><trkpt lat="38.1191308562453" lon="15.45343870644309"><ele>823.5999999999999</ele><time>2026-05-04T07:48:59.999Z</time></trkpt><trkpt lat="38.119165609864154" lon="15.453577833446245"><ele>817.4</ele><time>2026-05-04T07:49:01.999Z</time></trkpt><trkpt lat="38.11918467716164" lon="15.453657979200214"><ele>811.2</ele><time>2026-05-04T07:49:02.999Z</time></trkpt><trkpt lat="38.119216094531126" lon="15.45379738242012"><ele>805.0</ele><time>2026-05-04T07:49:04.999Z</time></trkpt><trkpt lat="38.119233246851785" lon="15.453874374640128"><ele>804.6</ele><time>2026-05-04T07:49:05.999Z</time></trkpt><trkpt lat="38.11927747670814" lon="15.454038824434091"><ele>804.2</ele><time>2026-05-04T07:49:07.999Z</time></trkpt><trkpt lat="38.1193036511949" lon="15.45413133377558"><ele>803.8</ele><time>2026-05-04T07:49:08.999Z</time></trkpt><trkpt lat="38.119325991133465" lon="15.454219189667139"><ele>803.4</ele><time>2026-05-04T07:49:09.998Z</time></trkpt><trkpt lat="38.11935889683737" lon="15.45438362937409"><ele>803.0</ele><time>2026-05-04T07:49:11.998Z</time></trkpt><trkpt lat="38.11937755467133" lon="15.454492084169125"><ele>803.0</ele><time>2026-05-04T07:49:12.998Z</time></trkpt><trkpt lat="38.11939430895957" lon="15.45458583697483"><ele>803.0</ele><time>2026-05-04T07:49:13.998Z</time></trkpt><trkpt lat="38.11941279865327" lon="15.454682539053303"><ele>803.0</ele><time>2026-05-04T07:49:14.998Z</time></trkpt><trkpt lat="38.119428155508174" lon="15.454783196452127"><ele>803.0</ele><time>2026-05-04T07:49:15.998Z</time></trkpt><trkpt lat="38.11941758692373" lon="15.454936002951502"><ele>803.0</ele><time>2026-05-04T07:49:17.998Z</time></trkpt><trkpt lat="38.11937416551667" lon="15.455043266836254"><ele>801.3333333333334</ele><time>2026-05-04T07:49:19.998Z</time></trkpt><trkpt lat="38.11928411798413" lon="15.455076710360686"><ele>799.6666666666667</ele><time>2026-05-04T07:49:21.998Z</time></trkpt><trkpt lat="38.11919070293666" lon="15.45513608923481"><ele>798.0</ele><time>2026-05-04T07:49:23.998Z</time></trkpt><trkpt lat="38.119110330732866" lon="15.455204440038882"><ele>796.3333333333333</ele><time>2026-05-04T07:49:25.998Z</time></trkpt><trkpt lat="38.11906247571298" lon="15.45525876841409"><ele>794.6666666666666</ele><time>2026-05-04T07:49:26.998Z</time></trkpt><trkpt lat="38.119008229882105" lon="15.455307032211195"><ele>793.0</ele><time>2026-05-04T07:49:28.998Z</time></trkpt><trkpt lat="38.118928554359314" lon="15.455397462098263"><ele>793.0</ele><time>2026-05-04T07:49:31.998Z</time></trkpt><trkpt lat="38.118867990575396" lon="15.455447745425365"><ele>793.0</ele><time>2026-05-04T07:49:32.998Z</time></trkpt><trkpt lat="38.11882772755273" lon="15.455542254607067"><ele>793.0</ele><time>2026-05-04T07:49:33.998Z</time></trkpt><trkpt lat="38.118742441114144" lon="15.45568082734513"><ele>793.0</ele><time>2026-05-04T07:49:35.998Z</time></trkpt><trkpt lat="38.118664206442105" lon="15.455699805460078"><ele>793.0</ele><time>2026-05-04T07:49:36.998Z</time></trkpt><trkpt lat="38.11862768817686" lon="15.455573364151553"><ele>787.4999999999999</ele><time>2026-05-04T07:49:37.998Z</time></trkpt><trkpt lat="38.11855337415936" lon="15.455516241195033"><ele>782.0</ele><time>2026-05-04T07:49:40.998Z</time></trkpt><trkpt lat="38.118467914905075" lon="15.455501912438473"><ele>776.5</ele><time>2026-05-04T07:49:42.998Z</time></trkpt><trkpt lat="38.1183547824518" lon="15.455547609822526"><ele>771.0</ele><time>2026-05-04T07:49:44.998Z</time></trkpt><trkpt lat="38.118291281845956" lon="15.455580951986665"><ele>765.5</ele><time>2026-05-04T07:49:45.998Z</time></trkpt><trkpt lat="38.11823685902919" lon="15.455621590024823"><ele>760.0</ele><time>2026-05-04T07:49:46.998Z</time></trkpt><trkpt lat="38.11816945102271" lon="15.455608683863472"><ele>760.0</ele><time>2026-05-04T07:49:47.998Z</time></trkpt><trkpt lat="38.11805564591259" lon="15.455670561364125"><ele>760.0</ele><time>2026-05-04T07:49:49.998Z</time></trkpt><trkpt lat="38.117989418274824" lon="15.455693854734239"><ele>760.0</ele><time>2026-05-04T07:49:50.998Z</time></trkpt><trkpt lat="38.11791677595182" lon="15.455698301907184"><ele>760.0</ele><time>2026-05-04T07:49:51.998Z</time></trkpt><trkpt lat="38.11784661067541" lon="15.45570807820968"><ele>760.0</ele><time>2026-05-04T07:49:52.998Z</time></trkpt><trkpt lat="38.117779400708116" lon="15.455717442811501"><ele>760.0</ele><time>2026-05-04T07:49:53.998Z</time></trkpt><trkpt lat="38.11769273749377" lon="15.455731583649714"><ele>760.0</ele><time>2026-05-04T07:49:54.998Z</time></trkpt><trkpt lat="38.117610784612324" lon="15.455756716796254"><ele>760.0</ele><time>2026-05-04T07:49:55.998Z</time></trkpt><trkpt lat="38.11752795382383" lon="15.455807348365518"><ele>760.0</ele><time>2026-05-04T07:49:56.998Z</time></trkpt><trkpt lat="38.11745978057004" lon="15.455861492853238"><ele>760.0</ele><time>2026-05-04T07:49:57.998Z</time></trkpt><trkpt lat="38.11739504576936" lon="15.45591454381"><ele>760.0</ele><time>2026-05-04T07:49:58.998Z</time></trkpt><trkpt lat="38.117313856382104" lon="15.455983843484887"><ele>760.0</ele><time>2026-05-04T07:49:59.998Z</time></trkpt><trkpt lat="38.117238991245515" lon="15.45606855124715"><ele>757.4</ele><time>2026-05-04T07:50:00.998Z</time></trkpt><trkpt lat="38.11716038288512" lon="15.45613387612837"><ele>754.8</ele><time>2026-05-04T07:50:01.998Z</time></trkpt><trkpt lat="38.11709594660852" lon="15.456188646636587"><ele>752.2</ele><time>2026-05-04T07:50:02.998Z</time></trkpt><trkpt lat="38.11701488646166" lon="15.456265346062782"><ele>749.6</ele><time>2026-05-04T07:50:04Z</time></trkpt><trkpt lat="38.11693157611985" lon="15.456325588995773"><ele>747.0</ele><time>2026-05-04T07:50:05Z</time></trkpt><trkpt lat="38.116851508305395" lon="15.456394647566556"><ele>744.5</ele><time>2026-05-04T07:50:06Z</time></trkpt><trkpt lat="38.116802424936495" lon="15.456504618656288"><ele>742.0</ele><time>2026-05-04T07:50:07Z</time></trkpt><trkpt lat="38.11674899229661" lon="15.456570667807723"><ele>739.5</ele><time>2026-05-04T07:50:08Z</time></trkpt><trkpt lat="38.116693049798805" lon="15.456681184762733"><ele>737.0</ele><time>2026-05-04T07:50:10Z</time></trkpt><trkpt lat="38.11661062332281" lon="15.456670230604809"><ele>734.5</ele><time>2026-05-04T07:50:12Z</time></trkpt><trkpt lat="38.11654230830213" lon="15.456680108770493"><ele>732.0</ele><time>2026-05-04T07:50:15Z</time></trkpt><trkpt lat="38.116440969087485" lon="15.456670860934747"><ele>728.4000000000001</ele><time>2026-05-04T07:50:18Z</time></trkpt><trkpt lat="38.1163590426726" lon="15.456556301042681"><ele>724.8000000000001</ele><time>2026-05-04T07:50:19.999Z</time></trkpt><trkpt lat="38.116331643216625" lon="15.456469811535419"><ele>721.2</ele><time>2026-05-04T07:50:20.999Z</time></trkpt><trkpt lat="38.11631639334691" lon="15.456362303437288"><ele>717.6</ele><time>2026-05-04T07:50:21.999Z</time></trkpt><trkpt lat="38.11630516071445" lon="15.456248850401616"><ele>714.0</ele><time>2026-05-04T07:50:22.999Z</time></trkpt><trkpt lat="38.116308719868364" lon="15.456148775054043"><ele>713.8333333333334</ele><time>2026-05-04T07:50:23.999Z</time></trkpt><trkpt lat="38.116311031419755" lon="15.456028567594235"><ele>713.6666666666666</ele><time>2026-05-04T07:50:24.999Z</time></trkpt><trkpt lat="38.116309046029436" lon="15.455900679763829"><ele>713.5</ele><time>2026-05-04T07:50:25.999Z</time></trkpt><trkpt lat="38.11632674561167" lon="15.455795125039453"><ele>713.3333333333333</ele><time>2026-05-04T07:50:26.999Z</time></trkpt><trkpt lat="38.11635108979723" lon="15.455699850405301"><ele>713.1666666666666</ele><time>2026-05-04T07:50:27.999Z</time></trkpt><trkpt lat="38.11638076325135" lon="15.455622796436845"><ele>713.0</ele><time>2026-05-04T07:50:28.999Z</time></trkpt><trkpt lat="38.11637958424052" lon="15.455501239751136"><ele>713.0</ele><time>2026-05-04T07:50:30.999Z</time></trkpt><trkpt lat="38.11629147076483" lon="15.455499942257463"><ele>713.0</ele><time>2026-05-04T07:50:32.999Z</time></trkpt><trkpt lat="38.11625129088233" lon="15.455567406463874"><ele>713.0</ele><time>2026-05-04T07:50:33.999Z</time></trkpt><trkpt lat="38.11622261933725" lon="15.455649551027317"><ele>713.0</ele><time>2026-05-04T07:50:34.999Z</time></trkpt><trkpt lat="38.11618749320904" lon="15.45573372056883"><ele>713.0</ele><time>2026-05-04T07:50:35.999Z</time></trkpt><trkpt lat="38.11615446772527" lon="15.455812164609755"><ele>713.0</ele><time>2026-05-04T07:50:36.999Z</time></trkpt><trkpt lat="38.116118197717626" lon="15.455895011448174"><ele>713.0</ele><time>2026-05-04T07:50:37.999Z</time></trkpt><trkpt lat="38.11606612649159" lon="15.456050174673475"><ele>713.0</ele><time>2026-05-04T07:50:39.999Z</time></trkpt><trkpt lat="38.11602254839761" lon="15.456137933672656"><ele>713.0</ele><time>2026-05-04T07:50:40.999Z</time></trkpt><trkpt lat="38.11599585507196" lon="15.456234743227698"><ele>713.0</ele><time>2026-05-04T07:50:41.999Z</time></trkpt><trkpt lat="38.11598344129901" lon="15.45633796015799"><ele>713.0</ele><time>2026-05-04T07:50:42.999Z</time></trkpt><trkpt lat="38.115932475945364" lon="15.45642259188686"><ele>713.0</ele><time>2026-05-04T07:50:43.999Z</time></trkpt><trkpt lat="38.115882030146224" lon="15.456523409007673"><ele>713.0</ele><time>2026-05-04T07:50:44.999Z</time></trkpt><trkpt lat="38.11583331244153" lon="15.456633823050723"><ele>713.1666666666666</ele><time>2026-05-04T07:50:45.999Z</time></trkpt><trkpt lat="38.11579318541924" lon="15.456726590379285"><ele>713.3333333333333</ele><time>2026-05-04T07:50:46.999Z</time></trkpt><trkpt lat="38.11576100574304" lon="15.456807320785183"><ele>713.5</ele><time>2026-05-04T07:50:47.999Z</time></trkpt><trkpt lat="38.115766170208886" lon="15.45692543917813"><ele>713.6666666666666</ele><time>2026-05-04T07:50:49.999Z</time></trkpt><trkpt lat="38.11582447834427" lon="15.45696314290063"><ele>713.8333333333334</ele><time>2026-05-04T07:50:50.999Z</time></trkpt><trkpt lat="38.115895529711764" lon="15.457035456669635"><ele>714.0</ele><time>2026-05-04T07:50:52.999Z</time></trkpt><trkpt lat="38.1159875143003" lon="15.457141821392892"><ele>711.1666666666666</ele><time>2026-05-04T07:50:54.999Z</time></trkpt><trkpt lat="38.116033183655134" lon="15.457202866084378"><ele>708.3333333333334</ele><time>2026-05-04T07:50:55.999Z</time></trkpt><trkpt lat="38.116075806192505" lon="15.457357197373403"><ele>705.5</ele><time>2026-05-04T07:50:57.999Z</time></trkpt><trkpt lat="38.11610219927036" lon="15.457442732502791"><ele>702.6666666666667</ele><time>2026-05-04T07:50:58.999Z</time></trkpt><trkpt lat="38.116142710208415" lon="15.457517657476604"><ele>699.8333333333334</ele><time>2026-05-04T07:50:59.999Z</time></trkpt><trkpt lat="38.11617246443548" lon="15.45760124324111"><ele>697.0</ele><time>2026-05-04T07:51:00.999Z</time></trkpt><trkpt lat="38.11621798825935" lon="15.457666954705381"><ele>697.0</ele><time>2026-05-04T07:51:01.999Z</time></trkpt><trkpt lat="38.11621742763319" lon="15.45777413103829"><ele>697.0</ele><time>2026-05-04T07:51:03.999Z</time></trkpt><trkpt lat="38.11615402723055" lon="15.457721105234837"><ele>697.0</ele><time>2026-05-04T07:51:05.999Z</time></trkpt><trkpt lat="38.11611316535175" lon="15.457633544888461"><ele>697.0</ele><time>2026-05-04T07:51:07.999Z</time></trkpt><trkpt lat="38.116046259066195" lon="15.45750741032754"><ele>697.0</ele><time>2026-05-04T07:51:09.999Z</time></trkpt><trkpt lat="38.11598988264629" lon="15.457459772832998"><ele>697.0</ele><time>2026-05-04T07:51:10.999Z</time></trkpt><trkpt lat="38.115934241936166" lon="15.457402511173502"><ele>697.0</ele><time>2026-05-04T07:51:11.999Z</time></trkpt><trkpt lat="38.1158802184122" lon="15.457346271631177"><ele>697.0</ele><time>2026-05-04T07:51:12.999Z</time></trkpt><trkpt lat="38.11577110949477" lon="15.45724185723717"><ele>697.0</ele><time>2026-05-04T07:51:14.999Z</time></trkpt><trkpt lat="38.115708019673605" lon="15.457191091539938"><ele>697.0</ele><time>2026-05-04T07:51:15.998Z</time></trkpt><trkpt lat="38.115640944204316" lon="15.457177562720144"><ele>697.0</ele><time>2026-05-04T07:51:16.998Z</time></trkpt><trkpt lat="38.115543171085335" lon="15.45717753095672"><ele>697.0</ele><time>2026-05-04T07:51:18.998Z</time></trkpt><trkpt lat="38.11555318046426" lon="15.457270669784842"><ele>697.0</ele><time>2026-05-04T07:51:20.998Z</time></trkpt><trkpt lat="38.11560876602068" lon="15.457357728831854"><ele>697.0</ele><time>2026-05-04T07:51:22.998Z</time></trkpt><trkpt lat="38.11571455806204" lon="15.457464634748685"><ele>697.0</ele><time>2026-05-04T07:51:24.998Z</time></trkpt><trkpt lat="38.11574112266715" lon="15.457565258058198"><ele>697.0</ele><time>2026-05-04T07:51:25.998Z</time></trkpt><trkpt lat="38.11582004305942" lon="15.45769912974694"><ele>697.0</ele><time>2026-05-04T07:51:27.998Z</time></trkpt><trkpt lat="38.115870395006894" lon="15.457750620635522"><ele>697.0</ele><time>2026-05-04T07:51:28.998Z</time></trkpt><trkpt lat="38.11593869419177" lon="15.457840092943865"><ele>697.0</ele><time>2026-05-04T07:51:30.998Z</time></trkpt><trkpt lat="38.11588843027849" lon="15.457893273899705"><ele>697.0</ele><time>2026-05-04T07:51:32.998Z</time></trkpt><trkpt lat="38.1158466846168" lon="15.457829130121345"><ele>697.0</ele><time>2026-05-04T07:51:34.998Z</time></trkpt><trkpt lat="38.115760175611506" lon="15.457732547493752"><ele>697.0</ele><time>2026-05-04T07:51:36.998Z</time></trkpt><trkpt lat="38.11571095972351" lon="15.457670716326788"><ele>697.0</ele><time>2026-05-04T07:51:37.998Z</time></trkpt><trkpt lat="38.115652193680894" lon="15.45760468467613"><ele>690.4000000000001</ele><time>2026-05-04T07:51:38.998Z</time></trkpt><trkpt lat="38.11559266321735" lon="15.45755461585645"><ele>683.8000000000001</ele><time>2026-05-04T07:51:39.998Z</time></trkpt><trkpt lat="38.11551013172433" lon="15.457506350636747"><ele>677.2</ele><time>2026-05-04T07:51:41.998Z</time></trkpt><trkpt lat="38.11540958578957" lon="15.457430578667646"><ele>670.6</ele><time>2026-05-04T07:51:43.998Z</time></trkpt><trkpt lat="38.1153144236092" lon="15.457374146896406"><ele>664.0</ele><time>2026-05-04T07:51:45.998Z</time></trkpt><trkpt lat="38.115250640765375" lon="15.457445946257838"><ele>664.0</ele><time>2026-05-04T07:51:47.998Z</time></trkpt><trkpt lat="38.11532708881826" lon="15.45756173996138"><ele>664.0</ele><time>2026-05-04T07:51:49.998Z</time></trkpt><trkpt lat="38.11536885870065" lon="15.457625897098842"><ele>664.0</ele><time>2026-05-04T07:51:50.998Z</time></trkpt><trkpt lat="38.11542509739926" lon="15.457668996916633"><ele>664.0</ele><time>2026-05-04T07:51:51.998Z</time></trkpt><trkpt lat="38.11548567881883" lon="15.4577255373896"><ele>664.0</ele><time>2026-05-04T07:51:52.998Z</time></trkpt><trkpt lat="38.115576954286894" lon="15.457849736839849"><ele>664.0</ele><time>2026-05-04T07:51:54.998Z</time></trkpt><trkpt lat="38.115637894770984" lon="15.457917925957487"><ele>664.0</ele><time>2026-05-04T07:51:55.998Z</time></trkpt><trkpt lat="38.11568378663959" lon="15.457980400638673"><ele>664.0</ele><time>2026-05-04T07:51:56.998Z</time></trkpt><trkpt lat="38.11573400182781" lon="15.458109287189952"><ele>664.0</ele><time>2026-05-04T07:51:58.998Z</time></trkpt><trkpt lat="38.11566122750787" lon="15.458140311775312"><ele>664.0</ele><time>2026-05-04T07:52:01.998Z</time></trkpt><trkpt lat="38.11560010868753" lon="15.458053061415631"><ele>664.0</ele><time>2026-05-04T07:52:03.998Z</time></trkpt><trkpt lat="38.11551915196909" lon="15.457971863675319"><ele>664.0</ele><time>2026-05-04T07:52:05.998Z</time></trkpt><trkpt lat="38.11541357257192" lon="15.457900836382402"><ele>664.0</ele><time>2026-05-04T07:52:07.998Z</time></trkpt><trkpt lat="38.11532047705244" lon="15.457882304267327"><ele>664.0</ele><time>2026-05-04T07:52:08.998Z</time></trkpt><trkpt lat="38.115248787084965" lon="15.457858127452022"><ele>664.0</ele><time>2026-05-04T07:52:10Z</time></trkpt><trkpt lat="38.115176107143895" lon="15.457821878431297"><ele>664.0</ele><time>2026-05-04T07:52:11Z</time></trkpt><trkpt lat="38.11511994231211" lon="15.457772699889562"><ele>664.0</ele><time>2026-05-04T07:52:12Z</time></trkpt><trkpt lat="38.11504462136603" lon="15.4576794398192"><ele>664.0</ele><time>2026-05-04T07:52:14Z</time></trkpt><trkpt lat="38.114969243072196" lon="15.457641776971492"><ele>664.0</ele><time>2026-05-04T07:52:16Z</time></trkpt><trkpt lat="38.11490270914373" lon="15.45770815082962"><ele>664.0</ele><time>2026-05-04T07:52:18Z</time></trkpt><trkpt lat="38.1149710779727" lon="15.457844987100458"><ele>664.0</ele><time>2026-05-04T07:52:20Z</time></trkpt><trkpt lat="38.115040701745244" lon="15.457882190376413"><ele>664.0</ele><time>2026-05-04T07:52:22Z</time></trkpt><trkpt lat="38.115100257941094" lon="15.45797180442825"><ele>662.2</ele><time>2026-05-04T07:52:23Z</time></trkpt><trkpt lat="38.115169202513975" lon="15.45805683622947"><ele>660.4000000000001</ele><time>2026-05-04T07:52:24Z</time></trkpt><trkpt lat="38.1151988673635" lon="15.458216616708537"><ele>658.6</ele><time>2026-05-04T07:52:25.999Z</time></trkpt><trkpt lat="38.11518715634917" lon="15.458358442741984"><ele>656.8</ele><time>2026-05-04T07:52:27.999Z</time></trkpt><trkpt lat="38.115136499535744" lon="15.458455412046408"><ele>655.0</ele><time>2026-05-04T07:52:29.999Z</time></trkpt><trkpt lat="38.115049906099635" lon="15.458489919032008"><ele>655.0</ele><time>2026-05-04T07:52:31.999Z</time></trkpt><trkpt lat="38.11494583869303" lon="15.458462330935355"><ele>655.0</ele><time>2026-05-04T07:52:33.999Z</time></trkpt><trkpt lat="38.11488421966615" lon="15.458380410015012"><ele>655.0</ele><time>2026-05-04T07:52:35.999Z</time></trkpt><trkpt lat="38.11481095766922" lon="15.458377264341205"><ele>655.0</ele><time>2026-05-04T07:52:41.999Z</time></trkpt><trkpt lat="38.11472037293478" lon="15.458291992238662"><ele>655.0</ele><time>2026-05-04T07:52:45.999Z</time></trkpt><trkpt lat="38.114670337939145" lon="15.458165197794871"><ele>651.3333333333334</ele><time>2026-05-04T07:52:47.999Z</time></trkpt><trkpt lat="38.11462206480693" lon="15.458094810911417"><ele>647.6666666666667</ele><time>2026-05-04T07:52:48.999Z</time></trkpt><trkpt lat="38.11457946056242" lon="15.458032784940647"><ele>644.0</ele><time>2026-05-04T07:52:49.999Z</time></trkpt><trkpt lat="38.11453005919641" lon="15.457964244900438"><ele>640.3333333333334</ele><time>2026-05-04T07:52:52.999Z</time></trkpt><trkpt lat="38.11450578097697" lon="15.457809457802563"><ele>636.6666666666666</ele><time>2026-05-04T07:52:54.999Z</time></trkpt><trkpt lat="38.114549783427464" lon="15.457722822120221"><ele>633.0</ele><time>2026-05-04T07:52:55.999Z</time></trkpt><trkpt lat="38.11445596222451" lon="15.457652907525025"><ele>632.25</ele><time>2026-05-04T07:52:57.999Z</time></trkpt><trkpt lat="38.11453488041179" lon="15.457477357751578"><ele>631.5</ele><time>2026-05-04T07:52:58.999Z</time></trkpt><trkpt lat="38.1144167057717" lon="15.457481341575477"><ele>630.75</ele><time>2026-05-04T07:52:59.999Z</time></trkpt><trkpt lat="38.114466326200336" lon="15.457386949961332"><ele>630.0</ele><time>2026-05-04T07:53:01.999Z</time></trkpt><trkpt lat="38.114566200826395" lon="15.457323112426366"><ele>630.0</ele><time>2026-05-04T07:53:03.999Z</time></trkpt><trkpt lat="38.114553108638184" lon="15.457238002213687"><ele>630.0</ele><time>2026-05-04T07:53:05.999Z</time></trkpt><trkpt lat="38.11454538231889" lon="15.45713571055052"><ele>630.0</ele><time>2026-05-04T07:53:07.999Z</time></trkpt><trkpt lat="38.11452894902546" lon="15.457057877371437"><ele>630.0</ele><time>2026-05-04T07:53:10.999Z</time></trkpt><trkpt lat="38.114296160447644" lon="15.45727824955138"><ele>630.0</ele><time>2026-05-04T07:53:13.999Z</time></trkpt><trkpt lat="38.11421389692432" lon="15.457267377085877"><ele>630.0</ele><time>2026-05-04T07:53:16.999Z</time></trkpt><trkpt lat="38.114139339167444" lon="15.457230470586143"><ele>630.0</ele><time>2026-05-04T07:53:18.999Z</time></trkpt><trkpt lat="38.11414793542359" lon="15.45664901283569"><ele>630.3333333333334</ele><time>2026-05-04T07:53:19.999Z</time></trkpt><trkpt lat="38.114101817398385" lon="15.456590702645533"><ele>630.6666666666666</ele><time>2026-05-04T07:53:20.999Z</time></trkpt><trkpt lat="38.11398331264902" lon="15.456462994476869"><ele>631.0</ele><time>2026-05-04T07:53:22.998Z</time></trkpt><trkpt lat="38.11404926189434" lon="15.456439146548652"><ele>631.3333333333333</ele><time>2026-05-04T07:53:24.998Z</time></trkpt><trkpt lat="38.11407405209341" lon="15.456520749171503"><ele>631.6666666666666</ele><time>2026-05-04T07:53:28.998Z</time></trkpt><trkpt lat="38.11413849283148" lon="15.456521681613433"><ele>632.0</ele><time>2026-05-04T07:53:29.998Z</time></trkpt><trkpt lat="38.11415879517103" lon="15.456598811470604"><ele>632.0</ele><time>2026-05-04T07:53:31.998Z</time></trkpt><trkpt lat="38.114092820446736" lon="15.456772637292206"><ele>632.0</ele><time>2026-05-04T07:53:33.998Z</time></trkpt><trkpt lat="38.114050951081865" lon="15.456855501441773"><ele>632.0</ele><time>2026-05-04T07:53:35.998Z</time></trkpt><trkpt lat="38.114018461881415" lon="15.456934565590018"><ele>632.0</ele><time>2026-05-04T07:53:38.998Z</time></trkpt><trkpt lat="38.11398810090768" lon="15.457013098812848"><ele>632.0</ele><time>2026-05-04T07:54:50.999Z</time></trkpt><trkpt lat="38.113912660491465" lon="15.457029776600407"><ele>632.0</ele><time>2026-05-04T07:54:52.999Z</time></trkpt><trkpt lat="38.11385682143636" lon="15.456969007522973"><ele>626.5</ele><time>2026-05-04T07:54:54.999Z</time></trkpt><trkpt lat="38.11388941289792" lon="15.456861587434412"><ele>621.0</ele><time>2026-05-04T07:56:30Z</time></trkpt><trkpt lat="38.11396125458249" lon="15.45689510928066"><ele>615.5</ele><time>2026-05-04T07:56:34Z</time></trkpt><trkpt lat="38.11394634015088" lon="15.457011836233612"><ele>610.0</ele><time>2026-05-04T07:56:36.999Z</time></trkpt><trkpt lat="38.11388732563838" lon="15.45707906220379"><ele>604.5</ele><time>2026-05-04T07:56:41.999Z</time></trkpt><trkpt lat="38.11386731830363" lon="15.457168452582623"><ele>599.0</ele><time>2026-05-04T07:56:45.999Z</time></trkpt><trkpt lat="38.113882855348535" lon="15.457252736323712"><ele>597.8333333333333</ele><time>2026-05-04T07:56:47.999Z</time></trkpt><trkpt lat="38.113943831970026" lon="15.457349998648986"><ele>596.6666666666666</ele><time>2026-05-04T07:56:49.999Z</time></trkpt><trkpt lat="38.1139837271226" lon="15.457456385784107"><ele>595.5</ele><time>2026-05-04T07:56:50.999Z</time></trkpt><trkpt lat="38.113940574796" lon="15.45758843937354"><ele>594.3333333333334</ele><time>2026-05-04T07:56:52.999Z</time></trkpt><trkpt lat="38.11393723470018" lon="15.45766846762128"><ele>593.1666666666667</ele><time>2026-05-04T07:56:53.999Z</time></trkpt><trkpt lat="38.113929711526154" lon="15.45776420739671"><ele>592.0</ele><time>2026-05-04T07:56:54.999Z</time></trkpt><trkpt lat="38.11391831694047" lon="15.457848129665194"><ele>592.0</ele><time>2026-05-04T07:56:55.999Z</time></trkpt><trkpt lat="38.11390387849995" lon="15.457935655602876"><ele>592.0</ele><time>2026-05-04T07:56:56.999Z</time></trkpt><trkpt lat="38.11388335320598" lon="15.458018515095622"><ele>592.0</ele><time>2026-05-04T07:56:57.999Z</time></trkpt><trkpt lat="38.11385988010257" lon="15.45810523917744"><ele>592.0</ele><time>2026-05-04T07:56:58.999Z</time></trkpt><trkpt lat="38.113801844918804" lon="15.458241274828403"><ele>592.0</ele><time>2026-05-04T07:57:00.999Z</time></trkpt><trkpt lat="38.11374192196271" lon="15.458324497849437"><ele>592.0</ele><time>2026-05-04T07:57:03.999Z</time></trkpt><trkpt lat="38.11367679831962" lon="15.458499733791149"><ele>592.75</ele><time>2026-05-04T07:57:04.999Z</time></trkpt><trkpt lat="38.113580850708956" lon="15.458348421237075"><ele>593.5</ele><time>2026-05-04T07:57:05.999Z</time></trkpt><trkpt lat="38.11363139183695" lon="15.458233967997788"><ele>594.25</ele><time>2026-05-04T07:57:06.999Z</time></trkpt><trkpt lat="38.11370757191712" lon="15.458104147042503"><ele>595.0</ele><time>2026-05-04T07:57:10.999Z</time></trkpt><trkpt lat="38.11374862777715" lon="15.458035555129664"><ele>594.4</ele><time>2026-05-04T07:57:11.999Z</time></trkpt><trkpt lat="38.11378402930036" lon="15.457936657301879"><ele>593.8</ele><time>2026-05-04T07:57:12.999Z</time></trkpt><trkpt lat="38.113795287525576" lon="15.457798310962117"><ele>593.2</ele><time>2026-05-04T07:57:14.999Z</time></trkpt><trkpt lat="38.11376733421408" lon="15.457710850454902"><ele>592.6</ele><time>2026-05-04T07:57:15.999Z</time></trkpt><trkpt lat="38.11367200632129" lon="15.457587352426955"><ele>592.0</ele><time>2026-05-04T07:57:17.999Z</time></trkpt><trkpt lat="38.11359731649582" lon="15.457521190081124"><ele>592.0</ele><time>2026-05-04T07:57:18.999Z</time></trkpt><trkpt lat="38.113522140303516" lon="15.457459311090348"><ele>592.0</ele><time>2026-05-04T07:57:19.999Z</time></trkpt><trkpt lat="38.11347226418767" lon="15.457382838703934"><ele>592.0</ele><time>2026-05-04T07:57:20.999Z</time></trkpt><trkpt lat="38.11341873786596" lon="15.45722251448466"><ele>592.0</ele><time>2026-05-04T07:57:22.999Z</time></trkpt><trkpt lat="38.11339633043037" lon="15.457142245427292"><ele>592.0</ele><time>2026-05-04T07:57:23.999Z</time></trkpt><trkpt lat="38.11338322172077" lon="15.457045662430458"><ele>592.0</ele><time>2026-05-04T07:57:24.999Z</time></trkpt><trkpt lat="38.11338116243843" lon="15.456931413563483"><ele>593.1666666666667</ele><time>2026-05-04T07:57:25.999Z</time></trkpt><trkpt lat="38.11340259073987" lon="15.456840115217483"><ele>594.3333333333334</ele><time>2026-05-04T07:57:26.999Z</time></trkpt><trkpt lat="38.11340568450276" lon="15.456733333928858"><ele>595.5</ele><time>2026-05-04T07:57:27.999Z</time></trkpt><trkpt lat="38.11343607915432" lon="15.4566600208547"><ele>596.6666666666666</ele><time>2026-05-04T07:57:28.999Z</time></trkpt><trkpt lat="38.11344469359743" lon="15.456549332306123"><ele>597.8333333333333</ele><time>2026-05-04T07:57:30.999Z</time></trkpt><trkpt lat="38.11337345444042" lon="15.45644086850143"><ele>599.0</ele><time>2026-05-04T07:57:32.999Z</time></trkpt><trkpt lat="38.113306913935936" lon="15.456473378926804"><ele>589.75</ele><time>2026-05-04T07:57:34.998Z</time></trkpt><trkpt lat="38.11323843466907" lon="15.45646052901448"><ele>580.5</ele><time>2026-05-04T07:57:37.998Z</time></trkpt><trkpt lat="38.11309253150415" lon="15.456445471957863"><ele>571.25</ele><time>2026-05-04T07:57:38.998Z</time></trkpt><trkpt lat="38.11306868149431" lon="15.456257050782979"><ele>562.0</ele><time>2026-05-04T07:57:39.998Z</time></trkpt><trkpt lat="38.11319290715585" lon="15.456158550620913"><ele>566.1666666666667</ele><time>2026-05-04T07:57:40.998Z</time></trkpt><trkpt lat="38.113253601350166" lon="15.456080463191428"><ele>570.3333333333334</ele><time>2026-05-04T07:57:42.998Z</time></trkpt><trkpt lat="38.113310157262156" lon="15.456004989100455"><ele>574.5</ele><time>2026-05-04T07:57:43.998Z</time></trkpt><trkpt lat="38.11335348301724" lon="15.455943594659416"><ele>578.6666666666666</ele><time>2026-05-04T07:57:44.998Z</time></trkpt><trkpt lat="38.11339689660289" lon="15.455877597968222"><ele>582.8333333333333</ele><time>2026-05-04T07:57:45.999Z</time></trkpt><trkpt lat="38.113465066528185" lon="15.455745852247592"><ele>587.0</ele><time>2026-05-04T07:57:47.999Z</time></trkpt><trkpt lat="38.1134916361638" lon="15.455628003770899"><ele>587.0</ele><time>2026-05-04T07:57:49.999Z</time></trkpt><trkpt lat="38.113470966973054" lon="15.455551144638243"><ele>587.0</ele><time>2026-05-04T07:57:50.999Z</time></trkpt><trkpt lat="38.1134287006566" lon="15.455436981957801"><ele>587.0</ele><time>2026-05-04T07:57:51.999Z</time></trkpt><trkpt lat="38.11338164112882" lon="15.45533537241208"><ele>587.0</ele><time>2026-05-04T07:57:52.999Z</time></trkpt><trkpt lat="38.113349263755445" lon="15.455265040081686"><ele>587.0</ele><time>2026-05-04T07:57:53.999Z</time></trkpt><trkpt lat="38.113288895013724" lon="15.455184867532633"><ele>587.0</ele><time>2026-05-04T07:57:55.999Z</time></trkpt><trkpt lat="38.11318316610048" lon="15.455187441376228"><ele>580.5</ele><time>2026-05-04T07:57:57.999Z</time></trkpt><trkpt lat="38.11317486338271" lon="15.455341716750711"><ele>574.0</ele><time>2026-05-04T07:57:58.999Z</time></trkpt><trkpt lat="38.113170280491346" lon="15.455436040477768"><ele>567.5</ele><time>2026-05-04T07:57:59.999Z</time></trkpt><trkpt lat="38.11317113460332" lon="15.4555426623461"><ele>561.0</ele><time>2026-05-04T07:58:00.999Z</time></trkpt><trkpt lat="38.11317070517022" lon="15.455641662604387"><ele>554.5</ele><time>2026-05-04T07:58:01.999Z</time></trkpt><trkpt lat="38.11317006524065" lon="15.455723572646624"><ele>548.0</ele><time>2026-05-04T07:58:02.999Z</time></trkpt><trkpt lat="38.113156501991476" lon="15.455879508195823"><ele>548.0</ele><time>2026-05-04T07:58:04.999Z</time></trkpt><trkpt lat="38.113068471445736" lon="15.455960362110297"><ele>548.0</ele><time>2026-05-04T07:58:06.999Z</time></trkpt><trkpt lat="38.11298175034116" lon="15.456005027852077"><ele>548.0</ele><time>2026-05-04T07:58:08.999Z</time></trkpt><trkpt lat="38.112894941002885" lon="15.45607176038349"><ele>548.0</ele><time>2026-05-04T07:58:10.999Z</time></trkpt><trkpt lat="38.11280287135025" lon="15.456132593654722"><ele>548.0</ele><time>2026-05-04T07:58:11.999Z</time></trkpt><trkpt lat="38.112731312271585" lon="15.45616674773705"><ele>548.0</ele><time>2026-05-04T07:58:12.999Z</time></trkpt><trkpt lat="38.11265112680468" lon="15.45619779779231"><ele>548.0</ele><time>2026-05-04T07:58:13.999Z</time></trkpt><trkpt lat="38.11250282096896" lon="15.456255226025752"><ele>548.0</ele><time>2026-05-04T07:58:15.999Z</time></trkpt><trkpt lat="38.11242603758837" lon="15.45628620479174"><ele>548.0</ele><time>2026-05-04T07:58:16.999Z</time></trkpt><trkpt lat="38.1123459543435" lon="15.456327920091725"><ele>548.0</ele><time>2026-05-04T07:58:17.999Z</time></trkpt><trkpt lat="38.11228659511425" lon="15.456377498545287"><ele>546.0</ele><time>2026-05-04T07:58:19.999Z</time></trkpt><trkpt lat="38.1123428850507" lon="15.456502863939555"><ele>544.0</ele><time>2026-05-04T07:58:22.999Z</time></trkpt><trkpt lat="38.11236017473275" lon="15.456634722311303"><ele>542.0</ele><time>2026-05-04T07:58:24.999Z</time></trkpt><trkpt lat="38.112296060811445" lon="15.45665901401894"><ele>540.0</ele><time>2026-05-04T07:58:26.999Z</time></trkpt><trkpt lat="38.11224718380149" lon="15.456762992379554"><ele>538.0</ele><time>2026-05-04T07:58:29.001Z</time></trkpt><trkpt lat="38.11218106982045" lon="15.45679800769881"><ele>538.0</ele><time>2026-05-04T07:58:30.001Z</time></trkpt><trkpt lat="38.11206480269531" lon="15.456822223325503"><ele>538.0</ele><time>2026-05-04T07:58:32.001Z</time></trkpt><trkpt lat="38.11200473191517" lon="15.456936118049212"><ele>538.0</ele><time>2026-05-04T07:58:34.001Z</time></trkpt><trkpt lat="38.11197265547796" lon="15.457020386374378"><ele>538.0</ele><time>2026-05-04T07:58:35.001Z</time></trkpt><trkpt lat="38.111851649957536" lon="15.457089693562285"><ele>538.0</ele><time>2026-05-04T07:58:37.001Z</time></trkpt><trkpt lat="38.11187182163286" lon="15.456998340493417"><ele>538.0</ele><time>2026-05-04T07:58:41.001Z</time></trkpt><trkpt lat="38.11171910173372" lon="15.456925133646385"><ele>538.0</ele><time>2026-05-04T07:58:42.001Z</time></trkpt><trkpt lat="38.11175798385552" lon="15.45681456056656"><ele>538.0</ele><time>2026-05-04T07:58:44Z</time></trkpt><trkpt lat="38.11183689406096" lon="15.456733208170961"><ele>538.0</ele><time>2026-05-04T07:58:46Z</time></trkpt><trkpt lat="38.111885218792814" lon="15.456680757050265"><ele>538.0</ele><time>2026-05-04T07:58:49Z</time></trkpt><trkpt lat="38.111808357795994" lon="15.45654828224691"><ele>538.0</ele><time>2026-05-04T07:58:50Z</time></trkpt><trkpt lat="38.11174710433884" lon="15.4565108590311"><ele>538.0</ele><time>2026-05-04T07:58:51Z</time></trkpt><trkpt lat="38.11167693381577" lon="15.456467988655318"><ele>538.0</ele><time>2026-05-04T07:58:52Z</time></trkpt><trkpt lat="38.11167112234343" lon="15.456362772971604"><ele>538.0</ele><time>2026-05-04T07:58:57Z</time></trkpt><trkpt lat="38.1118146717541" lon="15.45630121293159"><ele>538.0</ele><time>2026-05-04T07:58:58Z</time></trkpt><trkpt lat="38.11187964084545" lon="15.456265520862091"><ele>534.1666666666667</ele><time>2026-05-04T07:58:59Z</time></trkpt><trkpt lat="38.11199254241024" lon="15.456222099685098"><ele>530.3333333333334</ele><time>2026-05-04T07:59:00Z</time></trkpt><trkpt lat="38.11207030649417" lon="15.456143224748066"><ele>526.5</ele><time>2026-05-04T07:59:01Z</time></trkpt><trkpt lat="38.1121203515454" lon="15.456065849501305"><ele>522.6666666666666</ele><time>2026-05-04T07:59:03Z</time></trkpt><trkpt lat="38.11210351998642" lon="15.455984968493718"><ele>518.8333333333333</ele><time>2026-05-04T07:59:04Z</time></trkpt><trkpt lat="38.11206722707364" lon="15.455918098411638"><ele>515.0</ele><time>2026-05-04T07:59:05Z</time></trkpt><trkpt lat="38.11200766234301" lon="15.455889234399548"><ele>515.0</ele><time>2026-05-04T07:59:06Z</time></trkpt><trkpt lat="38.111919962966624" lon="15.455853745118176"><ele>515.0</ele><time>2026-05-04T07:59:08Z</time></trkpt><trkpt lat="38.111951226374465" lon="15.455747905679786"><ele>515.0</ele><time>2026-05-04T07:59:11Z</time></trkpt><trkpt lat="38.112064409943564" lon="15.455692747444479"><ele>515.0</ele><time>2026-05-04T07:59:13Z</time></trkpt><trkpt lat="38.1121327845123" lon="15.455600248912214"><ele>515.0</ele><time>2026-05-04T07:59:15Z</time></trkpt><trkpt lat="38.112102135811504" lon="15.455477179598828"><ele>515.0</ele><time>2026-05-04T07:59:19Z</time></trkpt><trkpt lat="38.11203467660323" lon="15.455483285512843"><ele>515.0</ele><time>2026-05-04T07:59:20Z</time></trkpt><trkpt lat="38.1119752115201" lon="15.455555868412112"><ele>515.0</ele><time>2026-05-04T07:59:21Z</time></trkpt><trkpt lat="38.11191726337606" lon="15.455600134731672"><ele>515.0</ele><time>2026-05-04T07:59:22Z</time></trkpt><trkpt lat="38.111804945037925" lon="15.455680826486539"><ele>515.0</ele><time>2026-05-04T07:59:24Z</time></trkpt><trkpt lat="38.11174668746438" lon="15.45572020105815"><ele>515.0</ele><time>2026-05-04T07:59:25Z</time></trkpt><trkpt lat="38.11168344814" lon="15.455758078336626"><ele>515.0</ele><time>2026-05-04T07:59:26Z</time></trkpt><trkpt lat="38.111616451833996" lon="15.455797582215002"><ele>515.0</ele><time>2026-05-04T07:59:27Z</time></trkpt><trkpt lat="38.111536539652896" lon="15.455824608984821"><ele>515.0</ele><time>2026-05-04T07:59:28Z</time></trkpt><trkpt lat="38.11145818586796" lon="15.455852377418717"><ele>515.0</ele><time>2026-05-04T07:59:29Z</time></trkpt><trkpt lat="38.11139064988158" lon="15.455876997948454"><ele>515.0</ele><time>2026-05-04T07:59:30Z</time></trkpt><trkpt lat="38.11124501734267" lon="15.455966479069607"><ele>512.4</ele><time>2026-05-04T07:59:32Z</time></trkpt><trkpt lat="38.11118921938798" lon="15.456040749336655"><ele>509.8</ele><time>2026-05-04T07:59:33Z</time></trkpt><trkpt lat="38.11115447682446" lon="15.456131566895845"><ele>507.20000000000005</ele><time>2026-05-04T07:59:35Z</time></trkpt><trkpt lat="38.11109765207568" lon="15.456215567214008"><ele>504.6</ele><time>2026-05-04T07:59:36.999Z</time></trkpt><trkpt lat="38.111029227977276" lon="15.456269081499046"><ele>502.0</ele><time>2026-05-04T07:59:40.999Z</time></trkpt><trkpt lat="38.11075692418031" lon="15.456631919559534"><ele>495.83333333333337</ele><time>2026-05-04T07:59:43.999Z</time></trkpt><trkpt lat="38.11065305504213" lon="15.456679586395854"><ele>489.6666666666667</ele><time>2026-05-04T07:59:45.999Z</time></trkpt><trkpt lat="38.110605267350266" lon="15.456763547304028"><ele>483.5</ele><time>2026-05-04T07:59:47.999Z</time></trkpt><trkpt lat="38.11060241930435" lon="15.4568563564681"><ele>477.33333333333337</ele><time>2026-05-04T07:59:49.999Z</time></trkpt><trkpt lat="38.11054975611087" lon="15.45694676885632"><ele>471.1666666666667</ele><time>2026-05-04T07:59:51.999Z</time></trkpt><trkpt lat="38.110483222509984" lon="15.456951062524213"><ele>465.0</ele><time>2026-05-04T07:59:53.999Z</time></trkpt><trkpt lat="38.11043774360059" lon="15.456874581400331"><ele>465.0</ele><time>2026-05-04T07:59:54.999Z</time></trkpt><trkpt lat="38.110395980933646" lon="15.456779926697504"><ele>465.0</ele><time>2026-05-04T07:59:55.999Z</time></trkpt><trkpt lat="38.11035539299248" lon="15.456713236522335"><ele>465.0</ele><time>2026-05-04T07:59:56.999Z</time></trkpt><trkpt lat="38.1103071278177" lon="15.456660800834566"><ele>465.0</ele><time>2026-05-04T07:59:57.999Z</time></trkpt><trkpt lat="38.110239587572174" lon="15.456658077686894"><ele>465.0</ele><time>2026-05-04T07:59:58.999Z</time></trkpt><trkpt lat="38.11017546982048" lon="15.45672902183571"><ele>465.0</ele><time>2026-05-04T07:59:59.999Z</time></trkpt><trkpt lat="38.110103272235634" lon="15.456784793127841"><ele>465.0</ele><time>2026-05-04T08:00:00.999Z</time></trkpt><trkpt lat="38.110046500016566" lon="15.45684022076665"><ele>465.0</ele><time>2026-05-04T08:00:01.999Z</time></trkpt><trkpt lat="38.109980390549396" lon="15.456880794031527"><ele>465.0</ele><time>2026-05-04T08:00:03.999Z</time></trkpt><trkpt lat="38.1099777254708" lon="15.456756976199127"><ele>465.0</ele><time>2026-05-04T08:00:07.999Z</time></trkpt><trkpt lat="38.11004419471776" lon="15.456659134803196"><ele>465.0</ele><time>2026-05-04T08:00:09.999Z</time></trkpt><trkpt lat="38.11010959365764" lon="15.456631604031768"><ele>465.0</ele><time>2026-05-04T08:00:10.999Z</time></trkpt><trkpt lat="38.11016494692865" lon="15.456547552438767"><ele>465.0</ele><time>2026-05-04T08:00:11.999Z</time></trkpt><trkpt lat="38.11027055855406" lon="15.456431672668604"><ele>465.0</ele><time>2026-05-04T08:00:12.999Z</time></trkpt><trkpt lat="38.110335415388676" lon="15.456338067188828"><ele>465.0</ele><time>2026-05-04T08:00:13.999Z</time></trkpt><trkpt lat="38.11039212899952" lon="15.456242948846278"><ele>465.0</ele><time>2026-05-04T08:00:14.999Z</time></trkpt><trkpt lat="38.11045688455599" lon="15.456173005069445"><ele>465.0</ele><time>2026-05-04T08:00:15.999Z</time></trkpt><trkpt lat="38.11053463565515" lon="15.456097526036524"><ele>462.6666666666667</ele><time>2026-05-04T08:00:16.999Z</time></trkpt><trkpt lat="38.110596373364686" lon="15.45605321822499"><ele>460.33333333333337</ele><time>2026-05-04T08:00:17.999Z</time></trkpt><trkpt lat="38.11063354668767" lon="15.455915980865441"><ele>458.0</ele><time>2026-05-04T08:00:19.999Z</time></trkpt><trkpt lat="38.11063244472028" lon="15.455807872034134"><ele>455.6666666666667</ele><time>2026-05-04T08:00:20.999Z</time></trkpt><trkpt lat="38.11065114422599" lon="15.455695490484027"><ele>453.33333333333337</ele><time>2026-05-04T08:00:21.999Z</time></trkpt><trkpt lat="38.11064337735977" lon="15.455605141485728"><ele>451.0</ele><time>2026-05-04T08:00:22.999Z</time></trkpt><trkpt lat="38.110616788284666" lon="15.45552621717952"><ele>451.0</ele><time>2026-05-04T08:00:23.999Z</time></trkpt><trkpt lat="38.1105367004807" lon="15.455500488223501"><ele>451.0</ele><time>2026-05-04T08:00:24.999Z</time></trkpt><trkpt lat="38.11048215531169" lon="15.455434819712744"><ele>451.0</ele><time>2026-05-04T08:00:25.999Z</time></trkpt><trkpt lat="38.1104133771048" lon="15.455396792641439"><ele>451.0</ele><time>2026-05-04T08:00:26.999Z</time></trkpt><trkpt lat="38.11037020553733" lon="15.455335781309858"><ele>451.0</ele><time>2026-05-04T08:00:27.999Z</time></trkpt><trkpt lat="38.110304495569046" lon="15.455280295574932"><ele>451.0</ele><time>2026-05-04T08:00:28.999Z</time></trkpt><trkpt lat="38.110245188755556" lon="15.455238565058176"><ele>451.0</ele><time>2026-05-04T08:00:29.999Z</time></trkpt><trkpt lat="38.110153603064035" lon="15.455218460958305"><ele>451.00000000000006</ele><time>2026-05-04T08:00:31.999Z</time></trkpt><trkpt lat="38.110092703874" lon="15.455275413155038"><ele>451.0</ele><time>2026-05-04T08:00:32.999Z</time></trkpt><trkpt lat="38.11007096440979" lon="15.455417149997123"><ele>451.0</ele><time>2026-05-04T08:00:35.001Z</time></trkpt><trkpt lat="38.110109194032866" lon="15.455505003068922"><ele>451.0</ele><time>2026-05-04T08:00:36Z</time></trkpt><trkpt lat="38.11013322733851" lon="15.45558779791635"><ele>451.00000000000006</ele><time>2026-05-04T08:00:37.001Z</time></trkpt><trkpt lat="38.11013078846451" lon="15.455728453528268"><ele>451.0</ele><time>2026-05-04T08:00:39Z</time></trkpt><trkpt lat="38.11005890341093" lon="15.455801393990306"><ele>451.0</ele><time>2026-05-04T08:00:41.001Z</time></trkpt><trkpt lat="38.10994134205912" lon="15.45574831187765"><ele>451.0</ele><time>2026-05-04T08:00:43Z</time></trkpt><trkpt lat="38.109895151781885" lon="15.45560349675653"><ele>451.0</ele><time>2026-05-04T08:00:45Z</time></trkpt><trkpt lat="38.1098346765999" lon="15.455527401024076"><ele>451.0</ele><time>2026-05-04T08:00:46Z</time></trkpt><trkpt lat="38.10981791184634" lon="15.455448824918973"><ele>451.0</ele><time>2026-05-04T08:00:47.001Z</time></trkpt><trkpt lat="38.10973617920579" lon="15.455409279096813"><ele>447.00000000000006</ele><time>2026-05-04T08:00:49Z</time></trkpt><trkpt lat="38.109674523531716" lon="15.455560722926247"><ele>443.0</ele><time>2026-05-04T08:00:51Z</time></trkpt><trkpt lat="38.10968125675501" lon="15.455657458771405"><ele>439.0</ele><time>2026-05-04T08:00:52Z</time></trkpt><trkpt lat="38.109665030389536" lon="15.455762877002627"><ele>435.0</ele><time>2026-05-04T08:00:53Z</time></trkpt><trkpt lat="38.109642586247496" lon="15.455846341145635"><ele>431.00000000000006</ele><time>2026-05-04T08:00:54Z</time></trkpt><trkpt lat="38.10963371261867" lon="15.455951137661641"><ele>427.0</ele><time>2026-05-04T08:00:55Z</time></trkpt><trkpt lat="38.109647126384" lon="15.456030163664224"><ele>427.0</ele><time>2026-05-04T08:00:56Z</time></trkpt><trkpt lat="38.10960842736544" lon="15.456130536916334"><ele>427.00000000000006</ele><time>2026-05-04T08:00:58Z</time></trkpt><trkpt lat="38.109512856496565" lon="15.456158465026977"><ele>427.00000000000006</ele><time>2026-05-04T08:01:00Z</time></trkpt><trkpt lat="38.10944161844278" lon="15.45619461060035"><ele>427.0</ele><time>2026-05-04T08:01:02Z</time></trkpt><trkpt lat="38.109336174286" lon="15.456030436954558"><ele>427.0</ele><time>2026-05-04T08:01:03Z</time></trkpt><trkpt lat="38.10934723891592" lon="15.45626365292061"><ele>427.0</ele><time>2026-05-04T08:01:04Z</time></trkpt><trkpt lat="38.10929412568349" lon="15.456354161131248"><ele>427.00000000000006</ele><time>2026-05-04T08:01:06Z</time></trkpt><trkpt lat="38.109225685853744" lon="15.456320719972968"><ele>427.00000000000006</ele><time>2026-05-04T08:01:08Z</time></trkpt><trkpt lat="38.10921134934797" lon="15.456184961164839"><ele>427.0</ele><time>2026-05-04T08:01:10Z</time></trkpt><trkpt lat="38.10907689573161" lon="15.456187616255269"><ele>427.0</ele><time>2026-05-04T08:01:13Z</time></trkpt><trkpt lat="38.10905921172164" lon="15.45628805803553"><ele>423.8</ele><time>2026-05-04T08:01:14Z</time></trkpt><trkpt lat="38.10902459245003" lon="15.456374611940573"><ele>420.6</ele><time>2026-05-04T08:01:15Z</time></trkpt><trkpt lat="38.10897930133304" lon="15.456492930447563"><ele>417.40000000000003</ele><time>2026-05-04T08:01:17Z</time></trkpt><trkpt lat="38.1089097027877" lon="15.456479864868188"><ele>414.20000000000005</ele><time>2026-05-04T08:01:21Z</time></trkpt><trkpt lat="38.10882879030209" lon="15.456461446501956"><ele>411.0</ele><time>2026-05-04T08:01:24Z</time></trkpt><trkpt lat="38.10876411422553" lon="15.456272248149771"><ele>411.0</ele><time>2026-05-04T08:01:25Z</time></trkpt><trkpt lat="38.10869576765667" lon="15.456224209593383"><ele>411.0</ele><time>2026-05-04T08:01:27Z</time></trkpt><trkpt lat="38.10862942660606" lon="15.456191766523421"><ele>411.0</ele><time>2026-05-04T08:01:29Z</time></trkpt><trkpt lat="38.108536520993574" lon="15.456176638925097"><ele>411.0</ele><time>2026-05-04T08:01:32Z</time></trkpt><trkpt lat="38.108470192112485" lon="15.45618036638607"><ele>411.0</ele><time>2026-05-04T08:01:34Z</time></trkpt><trkpt lat="38.10840554217125" lon="15.45620751020658"><ele>411.0</ele><time>2026-05-04T08:01:36Z</time></trkpt><trkpt lat="38.10838593918057" lon="15.45612383444122"><ele>411.0</ele><time>2026-05-04T08:01:39Z</time></trkpt><trkpt lat="38.108386939589955" lon="15.455991372960412"><ele>411.0</ele><time>2026-05-04T08:01:40.999Z</time></trkpt><trkpt lat="38.10839352406294" lon="15.455867584794378"><ele>411.0</ele><time>2026-05-04T08:01:42.999Z</time></trkpt><trkpt lat="38.10841506148854" lon="15.455756969679788"><ele>411.0</ele><time>2026-05-04T08:01:44.999Z</time></trkpt><trkpt lat="38.10837908089479" lon="15.45564384734476"><ele>411.0</ele><time>2026-05-04T08:01:46.999Z</time></trkpt><trkpt lat="38.10834362725151" lon="15.45556877210702"><ele>411.0</ele><time>2026-05-04T08:01:48.999Z</time></trkpt><trkpt lat="38.10831545562818" lon="15.455495304350926"><ele>411.0</ele><time>2026-05-04T08:01:49.999Z</time></trkpt><trkpt lat="38.10829867766451" lon="15.455396723209985"><ele>414.1428571428571</ele><time>2026-05-04T08:02:23.999Z</time></trkpt><trkpt lat="38.108319437172185" lon="15.455314496968352"><ele>417.2857142857143</ele><time>2026-05-04T08:02:26.999Z</time></trkpt><trkpt lat="38.10832705448616" lon="15.455226272346255"><ele>420.42857142857144</ele><time>2026-05-04T08:02:30.999Z</time></trkpt><trkpt lat="38.10836441735737" lon="15.455158288243917"><ele>423.57142857142856</ele><time>2026-05-04T08:02:36.998Z</time></trkpt><trkpt lat="38.108400725815905" lon="15.455090116201786"><ele>426.7142857142857</ele><time>2026-05-04T08:02:44Z</time></trkpt><trkpt lat="38.108452846509486" lon="15.455030679844727"><ele>429.85714285714283</ele><time>2026-05-04T08:03:01Z</time></trkpt><trkpt lat="38.108497663042314" lon="15.454936812475925"><ele>433.0</ele><time>2026-05-04T08:03:19Z</time></trkpt><trkpt lat="38.10858067103552" lon="15.454905828563305"><ele>432.99999999999994</ele><time>2026-05-04T08:03:25Z</time></trkpt><trkpt lat="38.10863982178209" lon="15.454878272160148"><ele>433.0</ele><time>2026-05-04T08:03:32Z</time></trkpt><trkpt lat="38.108723554766485" lon="15.454826234424317"><ele>433.0</ele><time>2026-05-04T08:03:42Z</time></trkpt><trkpt lat="38.108790437736495" lon="15.454811233961058"><ele>433.0</ele><time>2026-05-04T08:04:35.999Z</time></trkpt><trkpt lat="38.1087214635419" lon="15.454759199297367"><ele>433.0</ele><time>2026-05-04T08:05:29Z</time></trkpt><trkpt lat="38.108656945953946" lon="15.45478425683909"><ele>432.99999999999994</ele><time>2026-05-04T08:05:51Z</time></trkpt><trkpt lat="38.10858898435648" lon="15.454767572645258"><ele>433.0</ele><time>2026-05-04T08:06:08.999Z</time></trkpt><trkpt lat="38.1085306671819" lon="15.454731945917258"><ele>432.99999999999994</ele><time>2026-05-04T08:06:14.999Z</time></trkpt><trkpt lat="38.10846835092868" lon="15.454715014982538"><ele>433.0</ele><time>2026-05-04T08:06:16.999Z</time></trkpt><trkpt lat="38.10839364746294" lon="15.454641865489856"><ele>433.0</ele><time>2026-05-04T08:07:16Z</time></trkpt><trkpt lat="38.10845774203907" lon="15.454617790876643"><ele>433.0</ele><time>2026-05-04T08:10:00Z</time></trkpt><trkpt lat="38.108533398146314" lon="15.454578677591966"><ele>433.0</ele><time>2026-05-04T08:11:32Z</time></trkpt><trkpt lat="38.10846067626949" lon="15.45455586822986"><ele>432.99999999999994</ele><time>2026-05-04T08:11:55Z</time></trkpt><trkpt lat="38.108395971100485" lon="15.454541657699318"><ele>433.0</ele><time>2026-05-04T08:12:03Z</time></trkpt><trkpt lat="38.108350511343104" lon="15.454451912167018"><ele>436.33333333333337</ele><time>2026-05-04T08:12:57.999Z</time></trkpt><trkpt lat="38.108318334637005" lon="15.454370169585046"><ele>439.6666666666667</ele><time>2026-05-04T08:14:08.999Z</time></trkpt><trkpt lat="38.10826640025155" lon="15.454300175689673"><ele>443.0</ele><time>2026-05-04T08:16:16.999Z</time></trkpt><trkpt lat="38.10818353560673" lon="15.454312074295474"><ele>446.33333333333337</ele><time>2026-05-04T08:16:19.999Z</time></trkpt><trkpt lat="38.10808465927625" lon="15.454339855709932"><ele>449.6666666666667</ele><time>2026-05-04T08:16:59.999Z</time></trkpt><trkpt lat="38.10811432207707" lon="15.454263037474588"><ele>453.0</ele><time>2026-05-04T08:17:44Z</time></trkpt><trkpt lat="38.10804528370125" lon="15.454270260347627"><ele>453.0</ele><time>2026-05-04T08:18:07Z</time></trkpt><trkpt lat="38.10797778231221" lon="15.454301886132281"><ele>453.0</ele><time>2026-05-04T08:18:18.999Z</time></trkpt><trkpt lat="38.10802383883732" lon="15.454205192213154"><ele>453.0</ele><time>2026-05-04T08:18:52.999Z</time></trkpt><trkpt lat="38.10804635056719" lon="15.454121778881392"><ele>453.0</ele><time>2026-05-04T08:19:09.999Z</time></trkpt><trkpt lat="38.10806411420331" lon="15.454031165157172"><ele>453.0</ele><time>2026-05-04T08:19:17.998Z</time></trkpt><trkpt lat="38.10813389373481" lon="15.454006293430204"><ele>453.0</ele><time>2026-05-04T08:19:26Z</time></trkpt><trkpt lat="38.1082010132704" lon="15.453965297509521"><ele>456.8333333333333</ele><time>2026-05-04T08:19:29Z</time></trkpt><trkpt lat="38.10825179270611" lon="15.453854705775512"><ele>460.66666666666663</ele><time>2026-05-04T08:19:34Z</time></trkpt><trkpt lat="38.10831282323441" lon="15.453799497350618"><ele>464.5</ele><time>2026-05-04T08:19:50Z</time></trkpt><trkpt lat="38.108378995584516" lon="15.453779892766756"><ele>468.3333333333333</ele><time>2026-05-04T08:19:55Z</time></trkpt><trkpt lat="38.108467759199165" lon="15.453832237239869"><ele>472.16666666666663</ele><time>2026-05-04T08:19:57Z</time></trkpt><trkpt lat="38.10852746598913" lon="15.453859160328241"><ele>476.0</ele><time>2026-05-04T08:20:01Z</time></trkpt><trkpt lat="38.10860312755277" lon="15.453821392622414"><ele>476.0</ele><time>2026-05-04T08:20:06Z</time></trkpt><trkpt lat="38.1086679848133" lon="15.453827853439636"><ele>476.0</ele><time>2026-05-04T08:20:36.999Z</time></trkpt><trkpt lat="38.10874846929401" lon="15.453828556162007"><ele>476.0</ele><time>2026-05-04T08:20:42.999Z</time></trkpt><trkpt lat="38.108794256854594" lon="15.453763135059415"><ele>476.0</ele><time>2026-05-04T08:20:45.999Z</time></trkpt><trkpt lat="38.108855021603304" lon="15.453798777564975"><ele>476.0</ele><time>2026-05-04T08:21:08.999Z</time></trkpt><trkpt lat="38.10884024034966" lon="15.453712074984848"><ele>476.0</ele><time>2026-05-04T08:23:09.999Z</time></trkpt><trkpt lat="38.108775259750516" lon="15.453695578383645"><ele>476.0</ele><time>2026-05-04T08:25:24.999Z</time></trkpt><trkpt lat="38.10882836890863" lon="15.45363858547319"><ele>483.0</ele><time>2026-05-04T08:26:47.999Z</time></trkpt><trkpt lat="38.10889875793175" lon="15.453661378586288"><ele>490.0</ele><time>2026-05-04T08:27:23.999Z</time></trkpt><trkpt lat="38.108985344094094" lon="15.453630386031563"><ele>497.0</ele><time>2026-05-04T08:27:43.998Z</time></trkpt><trkpt lat="38.10898991798613" lon="15.453546263036936"><ele>504.0</ele><time>2026-05-04T08:28:53.999Z</time></trkpt><trkpt lat="38.109050722431334" lon="15.45350245466322"><ele>511.0</ele><time>2026-05-04T08:29:03.999Z</time></trkpt><trkpt lat="38.10898964835769" lon="15.453439598504726"><ele>518.0</ele><time>2026-05-04T08:29:33.999Z</time></trkpt><trkpt lat="38.10892915579372" lon="15.45340924362606"><ele>525.0</ele><time>2026-05-04T08:29:36.999Z</time></trkpt><trkpt lat="38.108937157470535" lon="15.45331971356491"><ele>525.0</ele><time>2026-05-04T08:29:52.998Z</time></trkpt><trkpt lat="38.108904664646786" lon="15.453241678925709"><ele>525.0</ele><time>2026-05-04T08:30:05Z</time></trkpt><trkpt lat="38.10882915974025" lon="15.453179441333004"><ele>525.0</ele><time>2026-05-04T08:30:21Z</time></trkpt><trkpt lat="38.10882042049411" lon="15.453098091976509"><ele>525.0</ele><time>2026-05-04T08:30:56.999Z</time></trkpt><trkpt lat="38.10884756122412" lon="15.45301862095016"><ele>525.0</ele><time>2026-05-04T08:31:08.999Z</time></trkpt><trkpt lat="38.108782788576185" lon="15.453036885416711"><ele>525.0</ele><time>2026-05-04T08:32:48.999Z</time></trkpt><trkpt lat="38.10874092638993" lon="15.452972058407108"><ele>525.0</ele><time>2026-05-04T08:32:54.999Z</time></trkpt><trkpt lat="38.10879696351896" lon="15.452926769147748"><ele>533.3333333333334</ele><time>2026-05-04T08:34:14Z</time></trkpt><trkpt lat="38.10886340431716" lon="15.452855186588389"><ele>541.6666666666666</ele><time>2026-05-04T08:36:46.999Z</time></trkpt><trkpt lat="38.10892547983354" lon="15.452785443634378"><ele>550.0</ele><time>2026-05-04T08:36:49.999Z</time></trkpt><trkpt lat="38.1089983989056" lon="15.4527829478268"><ele>558.3333333333333</ele><time>2026-05-04T08:36:54.999Z</time></trkpt><trkpt lat="38.109059880456286" lon="15.452759039337003"><ele>566.6666666666666</ele><time>2026-05-04T08:37:03.999Z</time></trkpt><trkpt lat="38.10904518695298" lon="15.452659034864084"><ele>575.0</ele><time>2026-05-04T08:37:19.999Z</time></trkpt><trkpt lat="38.10909106226402" lon="15.45259580473422"><ele>575.0</ele><time>2026-05-04T08:37:52.998Z</time></trkpt><trkpt lat="38.10906068841776" lon="15.452517713615121"><ele>575.0</ele><time>2026-05-04T08:38:38Z</time></trkpt><trkpt lat="38.10914274420503" lon="15.452594601351626"><ele>575.0</ele><time>2026-05-04T08:39:41.999Z</time></trkpt><trkpt lat="38.109079042534056" lon="15.45254822506557"><ele>575.0</ele><time>2026-05-04T08:40:51Z</time></trkpt><trkpt lat="38.1091104149881" lon="15.45262542207226"><ele>575.0</ele><time>2026-05-04T08:42:13.998Z</time></trkpt><trkpt lat="38.109198912536854" lon="15.45261746495981"><ele>575.0</ele><time>2026-05-04T08:43:11.999Z</time></trkpt><trkpt lat="38.10920053086295" lon="15.45270002762764"><ele>578.6666666666666</ele><time>2026-05-04T08:43:38.999Z</time></trkpt><trkpt lat="38.10927380489325" lon="15.452707747358845"><ele>582.3333333333333</ele><time>2026-05-04T08:43:42.999Z</time></trkpt><trkpt lat="38.109333976374224" lon="15.452677095293279"><ele>586.0</ele><time>2026-05-04T08:43:45.999Z</time></trkpt><trkpt lat="38.109401634831414" lon="15.452627344910034"><ele>589.6666666666666</ele><time>2026-05-04T08:43:49.999Z</time></trkpt><trkpt lat="38.10948889117501" lon="15.452667095332863"><ele>593.3333333333334</ele><time>2026-05-04T08:44:18.998Z</time></trkpt><trkpt lat="38.10952173956914" lon="15.452572716200297"><ele>597.0</ele><time>2026-05-04T08:45:19.999Z</time></trkpt><trkpt lat="38.10945878515929" lon="15.452586190255673"><ele>597.0000000000001</ele><time>2026-05-04T08:45:55.999Z</time></trkpt><trkpt lat="38.109395733652256" lon="15.452585958710788"><ele>597.0</ele><time>2026-05-04T08:46:01.999Z</time></trkpt><trkpt lat="38.10933609028079" lon="15.452548162315269"><ele>597.0</ele><time>2026-05-04T08:46:13.999Z</time></trkpt><trkpt lat="38.10940015992614" lon="15.452513239626168"><ele>597.0</ele><time>2026-05-04T08:46:53Z</time></trkpt><trkpt lat="38.10946279285243" lon="15.452528714588622"><ele>597.0</ele><time>2026-05-04T08:47:20Z</time></trkpt><trkpt lat="38.10945020244524" lon="15.452446258075673"><ele>597.0000000000001</ele><time>2026-05-04T08:47:39.999Z</time></trkpt><trkpt lat="38.109489573946306" lon="15.452369100128072"><ele>597.0</ele><time>2026-05-04T08:47:53.999Z</time></trkpt><trkpt lat="38.10954007102994" lon="15.452318730234458"><ele>597.0000000000001</ele><time>2026-05-04T08:48:03.999Z</time></trkpt><trkpt lat="38.10951479109491" lon="15.452240715762835"><ele>597.0</ele><time>2026-05-04T08:48:22.999Z</time></trkpt><trkpt lat="38.1095545198504" lon="15.452158407838123"><ele>597.0</ele><time>2026-05-04T08:48:45.998Z</time></trkpt><trkpt lat="38.10959103044373" lon="15.45209069495728"><ele>597.0</ele><time>2026-05-04T08:48:55Z</time></trkpt><trkpt lat="38.109667195732264" lon="15.452057357256244"><ele>597.0</ele><time>2026-05-04T08:49:20Z</time></trkpt><trkpt lat="38.109599760260345" lon="15.452065960833693"><ele>597.0000000000001</ele><time>2026-05-04T08:50:13.999Z</time></trkpt><trkpt lat="38.109543824602504" lon="15.452105497427377"><ele>597.0</ele><time>2026-05-04T08:52:04.999Z</time></trkpt><trkpt lat="38.109481328620056" lon="15.45205651319558"><ele>602.8571428571429</ele><time>2026-05-04T08:52:13.999Z</time></trkpt><trkpt lat="38.1094269167557" lon="15.451980495470092"><ele>608.7142857142858</ele><time>2026-05-04T08:52:22.999Z</time></trkpt><trkpt lat="38.10951113969295" lon="15.451956878612465"><ele>614.5714285714287</ele><time>2026-05-04T08:52:57.998Z</time></trkpt><trkpt lat="38.10956451144547" lon="15.452019443700564"><ele>620.4285714285714</ele><time>2026-05-04T08:53:52.999Z</time></trkpt><trkpt lat="38.1095288819177" lon="15.45193274940963"><ele>626.2857142857142</ele><time>2026-05-04T08:54:00.999Z</time></trkpt><trkpt lat="38.10953673020057" lon="15.451852115858031"><ele>632.1428571428572</ele><time>2026-05-04T08:54:06.999Z</time></trkpt><trkpt lat="38.10959736139266" lon="15.451812050519413"><ele>638.0</ele><time>2026-05-04T08:54:20.999Z</time></trkpt><trkpt lat="38.10962959886665" lon="15.45173742223483"><ele>638.0</ele><time>2026-05-04T08:54:27.999Z</time></trkpt><trkpt lat="38.10969422511617" lon="15.451667751013538"><ele>638.0</ele><time>2026-05-04T08:54:53.998Z</time></trkpt><trkpt lat="38.10970591634587" lon="15.451587587066802"><ele>638.0</ele><time>2026-05-04T08:55:06Z</time></trkpt><trkpt lat="38.109730305249755" lon="15.451499146855632"><ele>638.0</ele><time>2026-05-04T08:55:23Z</time></trkpt><trkpt lat="38.10971806846244" lon="15.45141751877543"><ele>638.0</ele><time>2026-05-04T08:55:46.999Z</time></trkpt><trkpt lat="38.10965006030811" lon="15.451353921053547"><ele>638.0</ele><time>2026-05-04T08:56:33.999Z</time></trkpt><trkpt lat="38.10963224486641" lon="15.451257802236595"><ele>639.5</ele><time>2026-05-04T08:56:36.999Z</time></trkpt><trkpt lat="38.10973560256208" lon="15.451276488712407"><ele>641.0</ele><time>2026-05-04T08:58:15.999Z</time></trkpt><trkpt lat="38.10965630174388" lon="15.451181316001346"><ele>642.5</ele><time>2026-05-04T09:00:14.999Z</time></trkpt><trkpt lat="38.109602526315825" lon="15.451125028557474"><ele>644.0</ele><time>2026-05-04T09:00:17.999Z</time></trkpt><trkpt lat="38.10952687236506" lon="15.451140881766369"><ele>645.5</ele><time>2026-05-04T09:00:20.999Z</time></trkpt><trkpt lat="38.10946442210814" lon="15.45112732065615"><ele>647.0</ele><time>2026-05-04T09:00:22.999Z</time></trkpt><trkpt lat="38.10940700196324" lon="15.451091258676279"><ele>647.0</ele><time>2026-05-04T09:00:23.999Z</time></trkpt><trkpt lat="38.109355165450644" lon="15.451012652258756"><ele>647.0</ele><time>2026-05-04T09:00:25.999Z</time></trkpt><trkpt lat="38.10931177468562" lon="15.450913024749708"><ele>647.0</ele><time>2026-05-04T09:00:28.999Z</time></trkpt><trkpt lat="38.109353366902134" lon="15.45078801672124"><ele>647.0</ele><time>2026-05-04T09:00:30.999Z</time></trkpt><trkpt lat="38.10942546646594" lon="15.450692342934136"><ele>647.0</ele><time>2026-05-04T09:00:32.999Z</time></trkpt><trkpt lat="38.109482904560565" lon="15.450534066529366"><ele>646.1666666666666</ele><time>2026-05-04T09:00:34.999Z</time></trkpt><trkpt lat="38.10949626172469" lon="15.450430421073406"><ele>645.3333333333333</ele><time>2026-05-04T09:00:35.999Z</time></trkpt><trkpt lat="38.10952452547779" lon="15.450325604191173"><ele>644.5</ele><time>2026-05-04T09:00:36.999Z</time></trkpt><trkpt lat="38.10952066382935" lon="15.450230737896083"><ele>643.6666666666666</ele><time>2026-05-04T09:00:37.999Z</time></trkpt><trkpt lat="38.10952290195885" lon="15.450127157077"><ele>642.8333333333334</ele><time>2026-05-04T09:00:38.999Z</time></trkpt><trkpt lat="38.10951652156902" lon="15.450005103336094"><ele>642.0</ele><time>2026-05-04T09:00:39.999Z</time></trkpt><trkpt lat="38.10949635626391" lon="15.4498909398657"><ele>642.0</ele><time>2026-05-04T09:00:40.999Z</time></trkpt><trkpt lat="38.10948196584988" lon="15.449784325475854"><ele>642.0</ele><time>2026-05-04T09:00:41.999Z</time></trkpt><trkpt lat="38.10946988075611" lon="15.449683083740535"><ele>642.0</ele><time>2026-05-04T09:00:42.999Z</time></trkpt><trkpt lat="38.10947845841609" lon="15.449593000904079"><ele>642.0</ele><time>2026-05-04T09:00:43.999Z</time></trkpt><trkpt lat="38.10949608852001" lon="15.449512963320277"><ele>642.0</ele><time>2026-05-04T09:00:44.999Z</time></trkpt><trkpt lat="38.10960648313703" lon="15.449401169765958"><ele>642.0</ele><time>2026-05-04T09:00:46.999Z</time></trkpt><trkpt lat="38.109665898825305" lon="15.44932793245341"><ele>644.3333333333334</ele><time>2026-05-04T09:00:47.999Z</time></trkpt><trkpt lat="38.10972241592862" lon="15.449259161406673"><ele>646.6666666666666</ele><time>2026-05-04T09:00:48.999Z</time></trkpt><trkpt lat="38.109796054236504" lon="15.44918487091086"><ele>649.0</ele><time>2026-05-04T09:00:49.998Z</time></trkpt><trkpt lat="38.10982915920984" lon="15.449099833550795"><ele>651.3333333333333</ele><time>2026-05-04T09:00:50.998Z</time></trkpt><trkpt lat="38.1098742204827" lon="15.449020363953695"><ele>653.6666666666666</ele><time>2026-05-04T09:00:51.998Z</time></trkpt><trkpt lat="38.10990268752152" lon="15.448944526472541"><ele>656.0</ele><time>2026-05-04T09:00:52.998Z</time></trkpt><trkpt lat="38.109890971926376" lon="15.448793770111664"><ele>662.0</ele><time>2026-05-04T09:00:54.998Z</time></trkpt><trkpt lat="38.10977669871371" lon="15.448726755780296"><ele>668.0</ele><time>2026-05-04T09:00:56.998Z</time></trkpt><trkpt lat="38.109626426757515" lon="15.44861822078811"><ele>674.0</ele><time>2026-05-04T09:00:58.998Z</time></trkpt><trkpt lat="38.10956010699797" lon="15.448567548536463"><ele>680.0</ele><time>2026-05-04T09:01:00.998Z</time></trkpt><trkpt lat="38.109500154638766" lon="15.448437802622419"><ele>680.0</ele><time>2026-05-04T09:01:02.998Z</time></trkpt><trkpt lat="38.10948574174007" lon="15.448329030572753"><ele>680.0</ele><time>2026-05-04T09:01:03.998Z</time></trkpt><trkpt lat="38.1094902280422" lon="15.448222940266895"><ele>680.0</ele><time>2026-05-04T09:01:04.998Z</time></trkpt><trkpt lat="38.10948082080282" lon="15.448135686153737"><ele>680.0</ele><time>2026-05-04T09:01:05.998Z</time></trkpt><trkpt lat="38.10943625803985" lon="15.447988109431181"><ele>680.0</ele><time>2026-05-04T09:01:07.998Z</time></trkpt><trkpt lat="38.10943454799456" lon="15.447862793534398"><ele>680.0</ele><time>2026-05-04T09:01:09.998Z</time></trkpt><trkpt lat="38.109297195419266" lon="15.447810935161078"><ele>680.0</ele><time>2026-05-04T09:01:11.998Z</time></trkpt><trkpt lat="38.109205929833095" lon="15.4478267548908"><ele>680.0</ele><time>2026-05-04T09:01:12.998Z</time></trkpt><trkpt lat="38.10912723889472" lon="15.447943917179533"><ele>680.0</ele><time>2026-05-04T09:01:14.998Z</time></trkpt><trkpt lat="38.109088095445806" lon="15.448010714460768"><ele>680.0</ele><time>2026-05-04T09:01:15.998Z</time></trkpt><trkpt lat="38.10902476379708" lon="15.448126400436507"><ele>679.1666666666666</ele><time>2026-05-04T09:01:16.998Z</time></trkpt><trkpt lat="38.108970005084984" lon="15.448205766487563"><ele>678.3333333333333</ele><time>2026-05-04T09:01:17.998Z</time></trkpt><trkpt lat="38.108905759162376" lon="15.44824832090358"><ele>677.5</ele><time>2026-05-04T09:01:18.998Z</time></trkpt><trkpt lat="38.108850268921785" lon="15.448291413492433"><ele>676.6666666666666</ele><time>2026-05-04T09:01:19.998Z</time></trkpt><trkpt lat="38.10875241120882" lon="15.448345762014721"><ele>675.8333333333334</ele><time>2026-05-04T09:01:21.998Z</time></trkpt><trkpt lat="38.108671023526206" lon="15.448376992612014"><ele>675.0</ele><time>2026-05-04T09:01:22.998Z</time></trkpt><trkpt lat="38.10857364806781" lon="15.448451187246757"><ele>675.0</ele><time>2026-05-04T09:01:24Z</time></trkpt><trkpt lat="38.108484801870176" lon="15.44848962938936"><ele>675.0</ele><time>2026-05-04T09:01:25Z</time></trkpt><trkpt lat="38.108395461410794" lon="15.448522775403463"><ele>675.0</ele><time>2026-05-04T09:01:26Z</time></trkpt><trkpt lat="38.10831873170432" lon="15.448526990224002"><ele>675.0</ele><time>2026-05-04T09:01:27Z</time></trkpt><trkpt lat="38.10824436285413" lon="15.44853173209136"><ele>675.0</ele><time>2026-05-04T09:01:28Z</time></trkpt><trkpt lat="38.10816957657651" lon="15.448517729834187"><ele>675.0</ele><time>2026-05-04T09:01:29Z</time></trkpt><trkpt lat="38.108092459609104" lon="15.448496606823534"><ele>669.6666666666666</ele><time>2026-05-04T09:01:30Z</time></trkpt><trkpt lat="38.108025509959155" lon="15.448507936877482"><ele>664.3333333333334</ele><time>2026-05-04T09:01:31Z</time></trkpt><trkpt lat="38.10797700010633" lon="15.448567545288252"><ele>659.0</ele><time>2026-05-04T09:01:32Z</time></trkpt><trkpt lat="38.10790600632753" lon="15.44861543376455"><ele>653.6666666666667</ele><time>2026-05-04T09:01:33Z</time></trkpt><trkpt lat="38.107816577814326" lon="15.448652636511218"><ele>648.3333333333334</ele><time>2026-05-04T09:01:34Z</time></trkpt><trkpt lat="38.10769836731344" lon="15.448617393620472"><ele>643.0</ele><time>2026-05-04T09:01:36Z</time></trkpt><trkpt lat="38.10767331040637" lon="15.448472517980441"><ele>643.0</ele><time>2026-05-04T09:01:38Z</time></trkpt><trkpt lat="38.10768989659642" lon="15.448379629099094"><ele>643.0</ele><time>2026-05-04T09:01:39Z</time></trkpt><trkpt lat="38.10769030928884" lon="15.448299228262227"><ele>643.0</ele><time>2026-05-04T09:01:40Z</time></trkpt><trkpt lat="38.10768942898414" lon="15.448169841850032"><ele>643.0</ele><time>2026-05-04T09:01:42Z</time></trkpt><trkpt lat="38.10765299109672" lon="15.448093379950338"><ele>643.0</ele><time>2026-05-04T09:01:44Z</time></trkpt><trkpt lat="38.10757110520292" lon="15.44812310502283"><ele>643.0</ele><time>2026-05-04T09:01:46Z</time></trkpt><trkpt lat="38.10757129741314" lon="15.44827267475712"><ele>643.0</ele><time>2026-05-04T09:01:48Z</time></trkpt><trkpt lat="38.10759667454593" lon="15.448370334693982"><ele>643.0</ele><time>2026-05-04T09:01:49Z</time></trkpt><trkpt lat="38.10760641983958" lon="15.448473782532671"><ele>643.0</ele><time>2026-05-04T09:01:50Z</time></trkpt><trkpt lat="38.10760877901053" lon="15.448561808735729"><ele>643.0</ele><time>2026-05-04T09:01:51Z</time></trkpt><trkpt lat="38.10758257109292" lon="15.448692778276975"><ele>643.0</ele><time>2026-05-04T09:01:53Z</time></trkpt><trkpt lat="38.10750823073997" lon="15.448789074504136"><ele>643.0</ele><time>2026-05-04T09:01:55Z</time></trkpt><trkpt lat="38.107456201294106" lon="15.448738022780573"><ele>643.0</ele><time>2026-05-04T09:01:56.999Z</time></trkpt><trkpt lat="38.107541610698455" lon="15.448611361913043"><ele>643.0</ele><time>2026-05-04T09:01:58.999Z</time></trkpt><trkpt lat="38.10759143609585" lon="15.448539845477372"><ele>643.0</ele><time>2026-05-04T09:01:59.999Z</time></trkpt><trkpt lat="38.10760293125963" lon="15.448441680528793"><ele>643.0</ele><time>2026-05-04T09:02:01.999Z</time></trkpt><trkpt lat="38.10757325299618" lon="15.448335859142894"><ele>643.0</ele><time>2026-05-04T09:02:02.999Z</time></trkpt><trkpt lat="38.10754175081404" lon="15.44825649203944"><ele>643.0</ele><time>2026-05-04T09:02:03.999Z</time></trkpt><trkpt lat="38.107499051559856" lon="15.448154029072931"><ele>643.0</ele><time>2026-05-04T09:02:05.999Z</time></trkpt><trkpt lat="38.10755060572309" lon="15.44803009418013"><ele>643.0</ele><time>2026-05-04T09:02:07.999Z</time></trkpt><trkpt lat="38.107540609836555" lon="15.447938045455865"><ele>643.0</ele><time>2026-05-04T09:02:09.999Z</time></trkpt><trkpt lat="38.10741111526049" lon="15.447911387277559"><ele>643.0</ele><time>2026-05-04T09:02:11.999Z</time></trkpt><trkpt lat="38.10733011948785" lon="15.44790039649519"><ele>643.0</ele><time>2026-05-04T09:02:12.999Z</time></trkpt><trkpt lat="38.1072540061032" lon="15.447888702896742"><ele>644.0</ele><time>2026-05-04T09:02:13.999Z</time></trkpt><trkpt lat="38.1071779993895" lon="15.44793051066961"><ele>645.0</ele><time>2026-05-04T09:02:15.999Z</time></trkpt><trkpt lat="38.10713680273202" lon="15.448042022531249"><ele>646.0</ele><time>2026-05-04T09:02:17.999Z</time></trkpt><trkpt lat="38.10703540625249" lon="15.448028293571724"><ele>647.0</ele><time>2026-05-04T09:02:20.999Z</time></trkpt><trkpt lat="38.10696092084518" lon="15.447960144601923"><ele>648.0</ele><time>2026-05-04T09:02:22.999Z</time></trkpt><trkpt lat="38.106926237950184" lon="15.44789125510073"><ele>649.0</ele><time>2026-05-04T09:02:23.999Z</time></trkpt><trkpt lat="38.1068832259788" lon="15.447821050387283"><ele>649.0</ele><time>2026-05-04T09:02:24.999Z</time></trkpt><trkpt lat="38.106822561262774" lon="15.447779274123286"><ele>649.0</ele><time>2026-05-04T09:02:25.999Z</time></trkpt><trkpt lat="38.10674843612082" lon="15.447778143369945"><ele>649.0</ele><time>2026-05-04T09:02:26.999Z</time></trkpt><trkpt lat="38.106624713661255" lon="15.447775036186036"><ele>649.0</ele><time>2026-05-04T09:02:28.999Z</time></trkpt><trkpt lat="38.10654132960667" lon="15.447758657195271"><ele>649.0</ele><time>2026-05-04T09:02:30.999Z</time></trkpt><trkpt lat="38.106451031075125" lon="15.44771374655633"><ele>649.0</ele><time>2026-05-04T09:02:32.999Z</time></trkpt><trkpt lat="38.106363033365454" lon="15.447683970846144"><ele>645.8333333333334</ele><time>2026-05-04T09:02:34.999Z</time></trkpt><trkpt lat="38.106293506135316" lon="15.447625081166029"><ele>642.6666666666667</ele><time>2026-05-04T09:02:36.999Z</time></trkpt><trkpt lat="38.106246746994174" lon="15.44756995340504"><ele>639.5</ele><time>2026-05-04T09:02:37.999Z</time></trkpt><trkpt lat="38.10617735295177" lon="15.447553827689283"><ele>636.3333333333334</ele><time>2026-05-04T09:02:38.999Z</time></trkpt><trkpt lat="38.106089889056165" lon="15.447539767938634"><ele>633.1666666666666</ele><time>2026-05-04T09:02:39.999Z</time></trkpt><trkpt lat="38.10600166984743" lon="15.447496248739885"><ele>630.0</ele><time>2026-05-04T09:02:41.999Z</time></trkpt><trkpt lat="38.10588794997489" lon="15.447440999057614"><ele>630.0</ele><time>2026-05-04T09:02:43.999Z</time></trkpt><trkpt lat="38.10580968552803" lon="15.447451487690431"><ele>630.0</ele><time>2026-05-04T09:02:44.999Z</time></trkpt><trkpt lat="38.10574530226675" lon="15.447467945058618"><ele>630.0</ele><time>2026-05-04T09:02:45.999Z</time></trkpt><trkpt lat="38.10567874613531" lon="15.447400495865626"><ele>630.0</ele><time>2026-05-04T09:02:48.999Z</time></trkpt><trkpt lat="38.105585497271996" lon="15.447444143822915"><ele>630.0</ele><time>2026-05-04T09:02:51.999Z</time></trkpt><trkpt lat="38.10550664904" lon="15.44754279306165"><ele>630.0</ele><time>2026-05-04T09:02:53.999Z</time></trkpt><trkpt lat="38.10552320197841" lon="15.447661299453472"><ele>627.0</ele><time>2026-05-04T09:02:54.998Z</time></trkpt><trkpt lat="38.10553674413757" lon="15.44775694788647"><ele>624.0</ele><time>2026-05-04T09:02:55.998Z</time></trkpt><trkpt lat="38.10554821646532" lon="15.447844128246153"><ele>621.0</ele><time>2026-05-04T09:02:56.998Z</time></trkpt><trkpt lat="38.105587953360015" lon="15.447940934755701"><ele>618.0</ele><time>2026-05-04T09:02:57.998Z</time></trkpt><trkpt lat="38.10563004185956" lon="15.448036078193146"><ele>615.0</ele><time>2026-05-04T09:02:58.998Z</time></trkpt><trkpt lat="38.10568813069039" lon="15.44816038701583"><ele>612.0</ele><time>2026-05-04T09:02:59.998Z</time></trkpt><trkpt lat="38.10575147643423" lon="15.44824500132438"><ele>612.0</ele><time>2026-05-04T09:03:00.998Z</time></trkpt><trkpt lat="38.10581613100879" lon="15.44840715911298"><ele>612.0</ele><time>2026-05-04T09:03:02.998Z</time></trkpt><trkpt lat="38.10583930695375" lon="15.448484616109459"><ele>612.0</ele><time>2026-05-04T09:03:03.998Z</time></trkpt><trkpt lat="38.10587551474241" lon="15.448617516570643"><ele>612.0</ele><time>2026-05-04T09:03:05.998Z</time></trkpt><trkpt lat="38.10582801874614" lon="15.448764141591193"><ele>612.0</ele><time>2026-05-04T09:03:07.998Z</time></trkpt><trkpt lat="38.10581923041533" lon="15.448874858926771"><ele>611.2</ele><time>2026-05-04T09:03:08.998Z</time></trkpt><trkpt lat="38.1058203147452" lon="15.448998411118849"><ele>610.4000000000001</ele><time>2026-05-04T09:03:09.998Z</time></trkpt><trkpt lat="38.10581536467438" lon="15.449142265797754"><ele>609.5999999999999</ele><time>2026-05-04T09:03:10.998Z</time></trkpt><trkpt lat="38.10581892994608" lon="15.44926633737716"><ele>608.8</ele><time>2026-05-04T09:03:11.998Z</time></trkpt><trkpt lat="38.10581149794049" lon="15.449374964108687"><ele>608.0</ele><time>2026-05-04T09:03:12.998Z</time></trkpt><trkpt lat="38.10579957734991" lon="15.449458584359952"><ele>608.0</ele><time>2026-05-04T09:03:13.998Z</time></trkpt><trkpt lat="38.10578051121655" lon="15.449538289231585"><ele>608.0</ele><time>2026-05-04T09:03:14.998Z</time></trkpt><trkpt lat="38.105747693279355" lon="15.44962230434816"><ele>608.0</ele><time>2026-05-04T09:03:15.998Z</time></trkpt><trkpt lat="38.105707475435175" lon="15.449695295660552"><ele>608.0</ele><time>2026-05-04T09:03:16.998Z</time></trkpt><trkpt lat="38.10565526400931" lon="15.44974771290528"><ele>608.0</ele><time>2026-05-04T09:03:17.998Z</time></trkpt><trkpt lat="38.1055910810688" lon="15.44978788923427"><ele>608.0</ele><time>2026-05-04T09:03:18.998Z</time></trkpt><trkpt lat="38.105515166171735" lon="15.449860484295336"><ele>608.0</ele><time>2026-05-04T09:03:19.998Z</time></trkpt><trkpt lat="38.105441945033284" lon="15.449916931904397"><ele>612.4</ele><time>2026-05-04T09:03:20.998Z</time></trkpt><trkpt lat="38.10537621278828" lon="15.449995815819781"><ele>616.8</ele><time>2026-05-04T09:03:21.998Z</time></trkpt><trkpt lat="38.10530333269604" lon="15.450078468824554"><ele>621.2</ele><time>2026-05-04T09:03:22.998Z</time></trkpt><trkpt lat="38.10523148279794" lon="15.450160253805642"><ele>625.6</ele><time>2026-05-04T09:03:23.998Z</time></trkpt><trkpt lat="38.10516132730148" lon="15.450231601348056"><ele>630.0</ele><time>2026-05-04T09:03:24.998Z</time></trkpt><trkpt lat="38.10510135578665" lon="15.450318490610067"><ele>630.0</ele><time>2026-05-04T09:03:25.998Z</time></trkpt><trkpt lat="38.105052101107006" lon="15.450412528811581"><ele>630.0</ele><time>2026-05-04T09:03:26.998Z</time></trkpt><trkpt lat="38.105004369868944" lon="15.450535123455529"><ele>630.0</ele><time>2026-05-04T09:03:27.998Z</time></trkpt><trkpt lat="38.10495919024491" lon="15.450619801584956"><ele>630.0</ele><time>2026-05-04T09:03:29Z</time></trkpt><trkpt lat="38.104836170121516" lon="15.450707587964011"><ele>630.0</ele><time>2026-05-04T09:03:31Z</time></trkpt><trkpt lat="38.10475796343447" lon="15.450749643233603"><ele>629.2</ele><time>2026-05-04T09:03:32Z</time></trkpt><trkpt lat="38.10470238900292" lon="15.450834603604534"><ele>628.4</ele><time>2026-05-04T09:03:33Z</time></trkpt><trkpt lat="38.10466493301401" lon="15.450937441321013"><ele>627.6</ele><time>2026-05-04T09:03:34Z</time></trkpt><trkpt lat="38.10464010622982" lon="15.451051337574906"><ele>626.8</ele><time>2026-05-04T09:03:35Z</time></trkpt><trkpt lat="38.10462815494107" lon="15.45119378535644"><ele>626.0</ele><time>2026-05-04T09:03:36Z</time></trkpt><trkpt lat="38.10460542590562" lon="15.451339365551787"><ele>626.0</ele><time>2026-05-04T09:03:37Z</time></trkpt><trkpt lat="38.10457385003852" lon="15.45149710798173"><ele>626.0</ele><time>2026-05-04T09:03:38Z</time></trkpt><trkpt lat="38.104565993660344" lon="15.451623387462794"><ele>626.0</ele><time>2026-05-04T09:03:39Z</time></trkpt><trkpt lat="38.104573129677426" lon="15.45175979528557"><ele>626.0</ele><time>2026-05-04T09:03:40Z</time></trkpt><trkpt lat="38.10458987395288" lon="15.451889905761897"><ele>626.0</ele><time>2026-05-04T09:03:41Z</time></trkpt><trkpt lat="38.10459553766404" lon="15.452001076926404"><ele>626.0</ele><time>2026-05-04T09:03:42Z</time></trkpt><trkpt lat="38.104581793985" lon="15.452117321605787"><ele>626.0</ele><time>2026-05-04T09:03:43Z</time></trkpt><trkpt lat="38.10455774479789" lon="15.45225546566753"><ele>626.0</ele><time>2026-05-04T09:03:44Z</time></trkpt><trkpt lat="38.10455393897914" lon="15.452377781672643"><ele>626.0</ele><time>2026-05-04T09:03:45Z</time></trkpt><trkpt lat="38.10455605661532" lon="15.452530799925933"><ele>626.0</ele><time>2026-05-04T09:03:46Z</time></trkpt><trkpt lat="38.104566598861695" lon="15.452676944729388"><ele>622.2</ele><time>2026-05-04T09:03:47Z</time></trkpt><trkpt lat="38.10457807232389" lon="15.452823535018712"><ele>618.4000000000001</ele><time>2026-05-04T09:03:48Z</time></trkpt><trkpt lat="38.10459507199188" lon="15.452963205439165"><ele>614.6</ele><time>2026-05-04T09:03:49Z</time></trkpt><trkpt lat="38.10463685547168" lon="15.453086976490379"><ele>610.8000000000001</ele><time>2026-05-04T09:03:50Z</time></trkpt><trkpt lat="38.10466442632072" lon="15.453195258799777"><ele>607.0</ele><time>2026-05-04T09:03:51Z</time></trkpt><trkpt lat="38.10466801495276" lon="15.453284017526215"><ele>605.6666666666667</ele><time>2026-05-04T09:03:52Z</time></trkpt><trkpt lat="38.10464325085433" lon="15.453364152236206"><ele>604.3333333333334</ele><time>2026-05-04T09:03:53Z</time></trkpt><trkpt lat="38.10459623431401" lon="15.453443342084714"><ele>603.0</ele><time>2026-05-04T09:03:54Z</time></trkpt><trkpt lat="38.10454576553155" lon="15.453518443459867"><ele>601.6666666666666</ele><time>2026-05-04T09:03:55Z</time></trkpt><trkpt lat="38.104479979395194" lon="15.453616396339125"><ele>600.3333333333333</ele><time>2026-05-04T09:03:56Z</time></trkpt><trkpt lat="38.10441123430849" lon="15.453681331905107"><ele>599.0</ele><time>2026-05-04T09:03:57Z</time></trkpt><trkpt lat="38.10435218094645" lon="15.45370960420826"><ele>599.0</ele><time>2026-05-04T09:03:58Z</time></trkpt><trkpt lat="38.10425851131062" lon="15.453668577835836"><ele>599.0</ele><time>2026-05-04T09:04:00Z</time></trkpt><trkpt lat="38.10416053933624" lon="15.453580816954258"><ele>599.0</ele><time>2026-05-04T09:04:01.999Z</time></trkpt><trkpt lat="38.104065660612186" lon="15.453501059403523"><ele>599.0</ele><time>2026-05-04T09:04:03.999Z</time></trkpt><trkpt lat="38.10395296061968" lon="15.453495583393293"><ele>599.0</ele><time>2026-05-04T09:04:05.999Z</time></trkpt><trkpt lat="38.103884309925824" lon="15.453470747918866"><ele>599.0</ele><time>2026-05-04T09:04:07.999Z</time></trkpt><trkpt lat="38.10384747027307" lon="15.453377327728967"><ele>599.0</ele><time>2026-05-04T09:04:17.999Z</time></trkpt><trkpt lat="38.103899195724914" lon="15.453234358454578"><ele>599.0</ele><time>2026-05-04T09:04:19.999Z</time></trkpt><trkpt lat="38.10397305593076" lon="15.453179312608638"><ele>599.0</ele><time>2026-05-04T09:04:21.999Z</time></trkpt><trkpt lat="38.10411387988179" lon="15.453206298465203"><ele>599.0</ele><time>2026-05-04T09:04:23.999Z</time></trkpt><trkpt lat="38.10418711512671" lon="15.453208087237991"><ele>599.0</ele><time>2026-05-04T09:04:24.999Z</time></trkpt><trkpt lat="38.10424758191033" lon="15.453113550552743"><ele>599.0</ele><time>2026-05-04T09:04:26.999Z</time></trkpt><trkpt lat="38.10429432880915" lon="15.453057609841244"><ele>599.0</ele><time>2026-05-04T09:04:27.999Z</time></trkpt><trkpt lat="38.10431630804004" lon="15.45295684712948"><ele>599.0</ele><time>2026-05-04T09:04:28.999Z</time></trkpt><trkpt lat="38.104315527810336" lon="15.452863575808081"><ele>599.0</ele><time>2026-05-04T09:04:29.999Z</time></trkpt><trkpt lat="38.10426996431717" lon="15.452786561514545"><ele>599.0</ele><time>2026-05-04T09:04:30.999Z</time></trkpt><trkpt lat="38.10423547729693" lon="15.452700957056784"><ele>599.6666666666666</ele><time>2026-05-04T09:04:31.999Z</time></trkpt><trkpt lat="38.1042084198625" lon="15.45259897731365"><ele>600.3333333333333</ele><time>2026-05-04T09:04:32.999Z</time></trkpt><trkpt lat="38.104160618928525" lon="15.45253601099711"><ele>601.0</ele><time>2026-05-04T09:04:33.999Z</time></trkpt><trkpt lat="38.104100550149184" lon="15.45245364058295"><ele>601.6666666666666</ele><time>2026-05-04T09:04:34.999Z</time></trkpt><trkpt lat="38.104060002350295" lon="15.45234668309159"><ele>602.3333333333334</ele><time>2026-05-04T09:04:35.999Z</time></trkpt><trkpt lat="38.10402870214093" lon="15.452210078402185"><ele>603.0</ele><time>2026-05-04T09:04:36.999Z</time></trkpt><trkpt lat="38.10395724786604" lon="15.45209457410322"><ele>607.0</ele><time>2026-05-04T09:04:37.999Z</time></trkpt><trkpt lat="38.1039228233644" lon="15.451951113059582"><ele>611.0</ele><time>2026-05-04T09:04:38.999Z</time></trkpt><trkpt lat="38.10388101133553" lon="15.451839040452139"><ele>615.0</ele><time>2026-05-04T09:04:39.999Z</time></trkpt><trkpt lat="38.10382831159107" lon="15.451737896264893"><ele>619.0</ele><time>2026-05-04T09:04:40.999Z</time></trkpt><trkpt lat="38.10377557897557" lon="15.451646556598607"><ele>623.0</ele><time>2026-05-04T09:04:41.999Z</time></trkpt><trkpt lat="38.103699657635964" lon="15.451535114232838"><ele>623.0</ele><time>2026-05-04T09:04:42.999Z</time></trkpt><trkpt lat="38.10362190822963" lon="15.45144089766554"><ele>623.0</ele><time>2026-05-04T09:04:43.999Z</time></trkpt><trkpt lat="38.103544227609746" lon="15.45132617294544"><ele>623.0</ele><time>2026-05-04T09:04:44.999Z</time></trkpt><trkpt lat="38.103514114601865" lon="15.451218952331308"><ele>623.0</ele><time>2026-05-04T09:04:45.999Z</time></trkpt><trkpt lat="38.10345271465614" lon="15.451116498605101"><ele>623.0</ele><time>2026-05-04T09:04:46.999Z</time></trkpt><trkpt lat="38.103409153095825" lon="15.450994491797609"><ele>626.4</ele><time>2026-05-04T09:04:47.999Z</time></trkpt><trkpt lat="38.10335057845094" lon="15.450882027607607"><ele>629.8</ele><time>2026-05-04T09:04:48.999Z</time></trkpt><trkpt lat="38.103284808577925" lon="15.450777819698992"><ele>633.2</ele><time>2026-05-04T09:04:49.999Z</time></trkpt><trkpt lat="38.10320820750206" lon="15.45069280517258"><ele>636.6</ele><time>2026-05-04T09:04:50.999Z</time></trkpt><trkpt lat="38.10312372428382" lon="15.450587566714809"><ele>640.0</ele><time>2026-05-04T09:04:51.999Z</time></trkpt><trkpt lat="38.10306033363332" lon="15.450513220508741"><ele>641.8333333333334</ele><time>2026-05-04T09:04:52.999Z</time></trkpt><trkpt lat="38.103016830398325" lon="15.450446395105129"><ele>643.6666666666667</ele><time>2026-05-04T09:04:53.999Z</time></trkpt><trkpt lat="38.103030944755844" lon="15.450349408634965"><ele>645.5</ele><time>2026-05-04T09:04:55.999Z</time></trkpt><trkpt lat="38.103018105775966" lon="15.450246984932708"><ele>647.3333333333334</ele><time>2026-05-04T09:04:56.999Z</time></trkpt><trkpt lat="38.10302433046093" lon="15.450133295338906"><ele>649.1666666666666</ele><time>2026-05-04T09:04:57.999Z</time></trkpt><trkpt lat="38.10302484559323" lon="15.449987768798927"><ele>651.0</ele><time>2026-05-04T09:04:58.999Z</time></trkpt><trkpt lat="38.10297099500826" lon="15.449870429049973"><ele>651.0</ele><time>2026-05-04T09:04:59.998Z</time></trkpt><trkpt lat="38.10291761289515" lon="15.449755014835723"><ele>651.0</ele><time>2026-05-04T09:05:00.998Z</time></trkpt><trkpt lat="38.102837578086806" lon="15.449676982961302"><ele>651.0</ele><time>2026-05-04T09:05:01.998Z</time></trkpt><trkpt lat="38.102752953354596" lon="15.449583724560608"><ele>651.0</ele><time>2026-05-04T09:05:02.998Z</time></trkpt><trkpt lat="38.102697128803364" lon="15.449460693774583"><ele>651.0</ele><time>2026-05-04T09:05:03.998Z</time></trkpt><trkpt lat="38.10262223252699" lon="15.449388776898713"><ele>654.6666666666666</ele><time>2026-05-04T09:05:04.998Z</time></trkpt><trkpt lat="38.10256628471713" lon="15.449327750235943"><ele>658.3333333333334</ele><time>2026-05-04T09:05:05.998Z</time></trkpt><trkpt lat="38.10255883914233" lon="15.449234565707117"><ele>662.0</ele><time>2026-05-04T09:05:07.998Z</time></trkpt><trkpt lat="38.10260898395443" lon="15.44914718936695"><ele>665.6666666666667</ele><time>2026-05-04T09:05:09.998Z</time></trkpt><trkpt lat="38.10261662373226" lon="15.449009008748956"><ele>669.3333333333334</ele><time>2026-05-04T09:05:11.998Z</time></trkpt><trkpt lat="38.102561820617126" lon="15.448939920623463"><ele>673.0</ele><time>2026-05-04T09:05:12.998Z</time></trkpt><trkpt lat="38.10248811738127" lon="15.448858946968727"><ele>674.5999999999999</ele><time>2026-05-04T09:05:13.998Z</time></trkpt><trkpt lat="38.10242985096088" lon="15.448783628922373"><ele>676.1999999999999</ele><time>2026-05-04T09:05:14.998Z</time></trkpt><trkpt lat="38.10238108006312" lon="15.44870781542677"><ele>677.8</ele><time>2026-05-04T09:05:15.998Z</time></trkpt><trkpt lat="38.10231449195592" lon="15.448629332641449"><ele>679.4</ele><time>2026-05-04T09:05:16.998Z</time></trkpt><trkpt lat="38.102252963537836" lon="15.448533582451958"><ele>681.0</ele><time>2026-05-04T09:05:17.998Z</time></trkpt><trkpt lat="38.1021951452837" lon="15.448422506383608"><ele>681.0</ele><time>2026-05-04T09:05:18.998Z</time></trkpt><trkpt lat="38.10212727457148" lon="15.448323517894487"><ele>681.0</ele><time>2026-05-04T09:05:19.998Z</time></trkpt><trkpt lat="38.10207866283418" lon="15.44825210398246"><ele>681.0</ele><time>2026-05-04T09:05:20.998Z</time></trkpt><trkpt lat="38.10200446417456" lon="15.44814308523288"><ele>681.0</ele><time>2026-05-04T09:05:22.998Z</time></trkpt><trkpt lat="38.101948730913364" lon="15.448058980591595"><ele>681.0</ele><time>2026-05-04T09:05:23.998Z</time></trkpt><trkpt lat="38.101889797462036" lon="15.447968712487876"><ele>687.25</ele><time>2026-05-04T09:05:24.998Z</time></trkpt><trkpt lat="38.10182125824603" lon="15.447869687538176"><ele>693.5</ele><time>2026-05-04T09:05:25.998Z</time></trkpt><trkpt lat="38.10177773819385" lon="15.447729545215463"><ele>699.75</ele><time>2026-05-04T09:05:26.998Z</time></trkpt><trkpt lat="38.10171432249241" lon="15.44758692727595"><ele>706.0</ele><time>2026-05-04T09:05:27.998Z</time></trkpt><trkpt lat="38.101659482017595" lon="15.447474972328585"><ele>706.0</ele><time>2026-05-04T09:05:28.998Z</time></trkpt><trkpt lat="38.101601140808526" lon="15.44738762540118"><ele>706.0</ele><time>2026-05-04T09:05:29.998Z</time></trkpt><trkpt lat="38.10149965754614" lon="15.447319530647501"><ele>706.0</ele><time>2026-05-04T09:05:31.998Z</time></trkpt><trkpt lat="38.10140098189809" lon="15.447274515645208"><ele>706.0</ele><time>2026-05-04T09:05:33.998Z</time></trkpt><trkpt lat="38.10133750640076" lon="15.447224400768851"><ele>706.0</ele><time>2026-05-04T09:05:35Z</time></trkpt><trkpt lat="38.101273103792515" lon="15.44716141106647"><ele>709.5</ele><time>2026-05-04T09:05:36Z</time></trkpt><trkpt lat="38.10115800384428" lon="15.447089425813951"><ele>713.0</ele><time>2026-05-04T09:05:37Z</time></trkpt><trkpt lat="38.1008553818144" lon="15.447415286205198"><ele>704.3333333333333</ele><time>2026-05-04T09:05:38Z</time></trkpt><trkpt lat="38.10072858354595" lon="15.447399450068888"><ele>695.6666666666666</ele><time>2026-05-04T09:05:39Z</time></trkpt><trkpt lat="38.10066412690774" lon="15.447382445726188"><ele>687.0</ele><time>2026-05-04T09:05:40Z</time></trkpt><trkpt lat="38.1006030526243" lon="15.447362865871247"><ele>678.3333333333334</ele><time>2026-05-04T09:05:43Z</time></trkpt><trkpt lat="38.100629999673885" lon="15.447278503552251"><ele>669.6666666666667</ele><time>2026-05-04T09:05:46Z</time></trkpt><trkpt lat="38.10067783940402" lon="15.447225683181749"><ele>661.0</ele><time>2026-05-04T09:05:47Z</time></trkpt><trkpt lat="38.100738647720966" lon="15.447191285549435"><ele>671.4</ele><time>2026-05-04T09:05:48Z</time></trkpt><trkpt lat="38.10085791865092" lon="15.44712241696507"><ele>681.8</ele><time>2026-05-04T09:05:50Z</time></trkpt><trkpt lat="38.10092510527275" lon="15.447094231691171"><ele>692.1999999999999</ele><time>2026-05-04T09:05:52Z</time></trkpt><trkpt lat="38.10102634021613" lon="15.447036569180025"><ele>702.5999999999999</ele><time>2026-05-04T09:05:54Z</time></trkpt><trkpt lat="38.10109992385042" lon="15.44701496193695"><ele>713.0</ele><time>2026-05-04T09:05:55Z</time></trkpt><trkpt lat="38.10118601298291" lon="15.447037839507189"><ele>713.0</ele><time>2026-05-04T09:05:57Z</time></trkpt><trkpt lat="38.10125147180416" lon="15.447017108657873"><ele>713.0</ele><time>2026-05-04T09:05:58Z</time></trkpt><trkpt lat="38.10134552909946" lon="15.447033699513087"><ele>713.0</ele><time>2026-05-04T09:05:59Z</time></trkpt><trkpt lat="38.10147254413989" lon="15.446899847121243"><ele>713.0</ele><time>2026-05-04T09:06:00Z</time></trkpt><trkpt lat="38.10157399080481" lon="15.44692763105329"><ele>713.0</ele><time>2026-05-04T09:06:01Z</time></trkpt><trkpt lat="38.101698776055066" lon="15.446988433874102"><ele>711.5999999999999</ele><time>2026-05-04T09:06:02Z</time></trkpt><trkpt lat="38.10178270045917" lon="15.447043048764908"><ele>710.1999999999999</ele><time>2026-05-04T09:06:03Z</time></trkpt><trkpt lat="38.101876478894766" lon="15.447100421012047"><ele>708.8</ele><time>2026-05-04T09:06:04Z</time></trkpt><trkpt lat="38.101957565572704" lon="15.447146429290655"><ele>707.4</ele><time>2026-05-04T09:06:05Z</time></trkpt><trkpt lat="38.10204102598873" lon="15.447202413657772"><ele>706.0</ele><time>2026-05-04T09:06:06Z</time></trkpt><trkpt lat="38.10210889730839" lon="15.447276085598828"><ele>706.0</ele><time>2026-05-04T09:06:07Z</time></trkpt><trkpt lat="38.10216490360114" lon="15.447340988308317"><ele>706.0</ele><time>2026-05-04T09:06:08Z</time></trkpt><trkpt lat="38.10222362397184" lon="15.447414061359343"><ele>706.0</ele><time>2026-05-04T09:06:08.999Z</time></trkpt><trkpt lat="38.10229096230019" lon="15.44747845148547"><ele>706.0</ele><time>2026-05-04T09:06:09.999Z</time></trkpt><trkpt lat="38.10235600729603" lon="15.447543563562943"><ele>706.0</ele><time>2026-05-04T09:06:10.999Z</time></trkpt><trkpt lat="38.1024175767703" lon="15.44759092458303"><ele>706.0</ele><time>2026-05-04T09:06:11.999Z</time></trkpt><trkpt lat="38.10248570363003" lon="15.447656515148163"><ele>705.6666666666667</ele><time>2026-05-04T09:06:12.999Z</time></trkpt><trkpt lat="38.102549668082204" lon="15.44771869370145"><ele>705.3333333333334</ele><time>2026-05-04T09:06:13.999Z</time></trkpt><trkpt lat="38.10261676331058" lon="15.44778440219829"><ele>705.0</ele><time>2026-05-04T09:06:14.999Z</time></trkpt><trkpt lat="38.1026977626817" lon="15.447832223992773"><ele>704.6666666666666</ele><time>2026-05-04T09:06:15.999Z</time></trkpt><trkpt lat="38.10278829445959" lon="15.447877451367733"><ele>704.3333333333333</ele><time>2026-05-04T09:06:16.999Z</time></trkpt><trkpt lat="38.10287096397259" lon="15.44792800934162"><ele>704.0</ele><time>2026-05-04T09:06:17.999Z</time></trkpt><trkpt lat="38.10294320839508" lon="15.447999130289677"><ele>704.0</ele><time>2026-05-04T09:06:18.999Z</time></trkpt><trkpt lat="38.103010597543" lon="15.4480673558467"><ele>704.0</ele><time>2026-05-04T09:06:19.999Z</time></trkpt><trkpt lat="38.10308562433046" lon="15.44814368640745"><ele>704.0</ele><time>2026-05-04T09:06:20.999Z</time></trkpt><trkpt lat="38.10315973462933" lon="15.448215712165105"><ele>704.0</ele><time>2026-05-04T09:06:21.999Z</time></trkpt><trkpt lat="38.10321331107791" lon="15.44826764080559"><ele>704.0</ele><time>2026-05-04T09:06:22.999Z</time></trkpt><trkpt lat="38.10328633434978" lon="15.448332601850082"><ele>704.0</ele><time>2026-05-04T09:06:39.999Z</time></trkpt><trkpt lat="38.10332174094981" lon="15.448400192050457"><ele>706.8333333333333</ele><time>2026-05-04T09:06:40.999Z</time></trkpt><trkpt lat="38.10336091410731" lon="15.448482437553372"><ele>709.6666666666666</ele><time>2026-05-04T09:06:41.999Z</time></trkpt><trkpt lat="38.10339000439815" lon="15.448598587194128"><ele>712.5</ele><time>2026-05-04T09:06:42.999Z</time></trkpt><trkpt lat="38.10345806526312" lon="15.448705409606605"><ele>715.3333333333334</ele><time>2026-05-04T09:06:43.999Z</time></trkpt><trkpt lat="38.10351230523289" lon="15.448787099596881"><ele>718.1666666666667</ele><time>2026-05-04T09:06:44.999Z</time></trkpt><trkpt lat="38.10357350187723" lon="15.448855128942784"><ele>721.0</ele><time>2026-05-04T09:06:45.999Z</time></trkpt><trkpt lat="38.10363802455719" lon="15.44888269350529"><ele>721.0</ele><time>2026-05-04T09:06:46.999Z</time></trkpt><trkpt lat="38.103723068125916" lon="15.448888617432543"><ele>721.0</ele><time>2026-05-04T09:06:48.999Z</time></trkpt><trkpt lat="38.103733127671745" lon="15.448724672933915"><ele>721.0</ele><time>2026-05-04T09:06:50.999Z</time></trkpt><trkpt lat="38.1037021941725" lon="15.448652657850012"><ele>721.0</ele><time>2026-05-04T09:06:51.999Z</time></trkpt><trkpt lat="38.10366442247219" lon="15.448570114781877"><ele>721.0</ele><time>2026-05-04T09:06:52.999Z</time></trkpt><trkpt lat="38.103624503381866" lon="15.448453863141708"><ele>727.5</ele><time>2026-05-04T09:06:53.999Z</time></trkpt><trkpt lat="38.10357476837166" lon="15.448307974978658"><ele>734.0</ele><time>2026-05-04T09:06:54.999Z</time></trkpt><trkpt lat="38.103529007630435" lon="15.44815543209511"><ele>740.5</ele><time>2026-05-04T09:06:55.999Z</time></trkpt><trkpt lat="38.10352174472773" lon="15.448010631336075"><ele>747.0</ele><time>2026-05-04T09:06:56.999Z</time></trkpt><trkpt lat="38.10351014817479" lon="15.447887227356363"><ele>746.8333333333334</ele><time>2026-05-04T09:06:57.999Z</time></trkpt><trkpt lat="38.10346797811752" lon="15.447780072061729"><ele>746.6666666666666</ele><time>2026-05-04T09:06:58.999Z</time></trkpt><trkpt lat="38.10344822343688" lon="15.447692302614477"><ele>746.5</ele><time>2026-05-04T09:06:59.999Z</time></trkpt><trkpt lat="38.10340313105024" lon="15.447632822928398"><ele>746.3333333333333</ele><time>2026-05-04T09:07:00.999Z</time></trkpt><trkpt lat="38.10334626802558" lon="15.44758462893811"><ele>746.1666666666666</ele><time>2026-05-04T09:07:01.999Z</time></trkpt><trkpt lat="38.1032746131794" lon="15.447549055219168"><ele>746.0</ele><time>2026-05-04T09:07:02.999Z</time></trkpt><trkpt lat="38.10320170757274" lon="15.447488740024022"><ele>746.0</ele><time>2026-05-04T09:07:03.999Z</time></trkpt><trkpt lat="38.10312664418886" lon="15.447441376120008"><ele>746.0</ele><time>2026-05-04T09:07:04.999Z</time></trkpt><trkpt lat="38.10307518435996" lon="15.447393999366787"><ele>746.0</ele><time>2026-05-04T09:07:05.998Z</time></trkpt><trkpt lat="38.10302808862003" lon="15.447246700685161"><ele>746.0</ele><time>2026-05-04T09:07:07.998Z</time></trkpt><trkpt lat="38.10297648250085" lon="15.447168575000854"><ele>746.0</ele><time>2026-05-04T09:07:08.998Z</time></trkpt><trkpt lat="38.10289440045346" lon="15.447082951894032"><ele>750.5</ele><time>2026-05-04T09:07:10.998Z</time></trkpt><trkpt lat="38.10283263278969" lon="15.447034348008337"><ele>755.0</ele><time>2026-05-04T09:07:11.998Z</time></trkpt><trkpt lat="38.102795592115214" lon="15.446947580989244"><ele>759.5</ele><time>2026-05-04T09:07:12.998Z</time></trkpt><trkpt lat="38.10274148567647" lon="15.446885860835893"><ele>764.0</ele><time>2026-05-04T09:07:13.998Z</time></trkpt><trkpt lat="38.10271369220907" lon="15.446802801420235"><ele>768.5000000000001</ele><time>2026-05-04T09:07:14.998Z</time></trkpt><trkpt lat="38.10267535578909" lon="15.446710445022813"><ele>773.0</ele><time>2026-05-04T09:07:15.998Z</time></trkpt><trkpt lat="38.10262793705711" lon="15.446612504840894"><ele>773.0</ele><time>2026-05-04T09:07:16.998Z</time></trkpt><trkpt lat="38.10258171773048" lon="15.446510987275337"><ele>773.0</ele><time>2026-05-04T09:07:17.998Z</time></trkpt><trkpt lat="38.10253018933714" lon="15.446399886254966"><ele>773.0</ele><time>2026-05-04T09:07:18.998Z</time></trkpt><trkpt lat="38.102488961625134" lon="15.446271418945694"><ele>773.0</ele><time>2026-05-04T09:07:19.998Z</time></trkpt><trkpt lat="38.102424616386344" lon="15.446177439675859"><ele>773.0</ele><time>2026-05-04T09:07:20.998Z</time></trkpt><trkpt lat="38.102373991906674" lon="15.44609725479859"><ele>775.5000000000001</ele><time>2026-05-04T09:07:21.998Z</time></trkpt><trkpt lat="38.10230817392738" lon="15.446034425164811"><ele>778.0</ele><time>2026-05-04T09:07:22.998Z</time></trkpt><trkpt lat="38.10222539774254" lon="15.445997026807484"><ele>780.5</ele><time>2026-05-04T09:07:23.998Z</time></trkpt><trkpt lat="38.10214218831698" lon="15.445970622381509"><ele>783.0</ele><time>2026-05-04T09:07:24.998Z</time></trkpt><trkpt lat="38.102063543124856" lon="15.445931425587844"><ele>785.5000000000001</ele><time>2026-05-04T09:07:25.998Z</time></trkpt><trkpt lat="38.10199827550544" lon="15.44588849386377"><ele>788.0</ele><time>2026-05-04T09:07:26.998Z</time></trkpt><trkpt lat="38.10194940458317" lon="15.445838046441889"><ele>788.0</ele><time>2026-05-04T09:07:27.998Z</time></trkpt><trkpt lat="38.1019029536413" lon="15.445775917650085"><ele>788.0</ele><time>2026-05-04T09:07:28.998Z</time></trkpt><trkpt lat="38.10184492481919" lon="15.445696795254058"><ele>788.0</ele><time>2026-05-04T09:07:29.998Z</time></trkpt><trkpt lat="38.10177260428293" lon="15.445598724448766"><ele>788.0</ele><time>2026-05-04T09:07:30.998Z</time></trkpt><trkpt lat="38.10169724956985" lon="15.44549443439542"><ele>788.0</ele><time>2026-05-04T09:07:31.998Z</time></trkpt><trkpt lat="38.10162698145917" lon="15.44540325864299"><ele>790.5999999999999</ele><time>2026-05-04T09:07:32.998Z</time></trkpt><trkpt lat="38.10154790804904" lon="15.445331178365912"><ele>793.1999999999999</ele><time>2026-05-04T09:07:33.998Z</time></trkpt><trkpt lat="38.10146098330542" lon="15.445277648469727"><ele>795.8</ele><time>2026-05-04T09:07:34.998Z</time></trkpt><trkpt lat="38.10137318008738" lon="15.44522727689966"><ele>798.4</ele><time>2026-05-04T09:07:35.998Z</time></trkpt><trkpt lat="38.10129656032291" lon="15.445157639412509"><ele>801.0</ele><time>2026-05-04T09:07:36.998Z</time></trkpt><trkpt lat="38.101223955084045" lon="15.445062994949646"><ele>801.0</ele><time>2026-05-04T09:07:37.998Z</time></trkpt><trkpt lat="38.10115302641048" lon="15.444964299983427"><ele>801.0</ele><time>2026-05-04T09:07:38.998Z</time></trkpt><trkpt lat="38.10107048071052" lon="15.444883027595655"><ele>801.0</ele><time>2026-05-04T09:07:39.998Z</time></trkpt><trkpt lat="38.10097884738795" lon="15.444829928027685"><ele>801.0</ele><time>2026-05-04T09:07:41Z</time></trkpt><trkpt lat="38.100877838519885" lon="15.444789538564255"><ele>801.0</ele><time>2026-05-04T09:07:42Z</time></trkpt><trkpt lat="38.100789679048404" lon="15.44476574253971"><ele>803.0</ele><time>2026-05-04T09:07:43Z</time></trkpt><trkpt lat="38.10072350673837" lon="15.444736274917648"><ele>805.0</ele><time>2026-05-04T09:07:44Z</time></trkpt><trkpt lat="38.10066247186755" lon="15.444684137165304"><ele>807.0</ele><time>2026-05-04T09:07:45Z</time></trkpt><trkpt lat="38.10061642037524" lon="15.44462090978015"><ele>809.0</ele><time>2026-05-04T09:07:46Z</time></trkpt><trkpt lat="38.1005526538391" lon="15.44453947688859"><ele>811.0</ele><time>2026-05-04T09:07:47Z</time></trkpt><trkpt lat="38.10049444784383" lon="15.444455828702722"><ele>813.0</ele><time>2026-05-04T09:07:48Z</time></trkpt><trkpt lat="38.10043190549291" lon="15.444361874412522"><ele>813.0</ele><time>2026-05-04T09:07:49Z</time></trkpt><trkpt lat="38.10037016027436" lon="15.444271672971423"><ele>813.0</ele><time>2026-05-04T09:07:50Z</time></trkpt><trkpt lat="38.10031659068501" lon="15.444197431136269"><ele>813.0</ele><time>2026-05-04T09:07:51Z</time></trkpt><trkpt lat="38.10025072730368" lon="15.444149813842877"><ele>813.0</ele><time>2026-05-04T09:07:52Z</time></trkpt><trkpt lat="38.10017278993965" lon="15.444133085860715"><ele>813.0</ele><time>2026-05-04T09:07:53Z</time></trkpt><trkpt lat="38.10008386177438" lon="15.444134233015701"><ele>813.0</ele><time>2026-05-04T09:07:54Z</time></trkpt><trkpt lat="38.099988436570165" lon="15.444158206395102"><ele>813.0</ele><time>2026-05-04T09:07:55Z</time></trkpt><trkpt lat="38.09990733904705" lon="15.444171654316683"><ele>813.0</ele><time>2026-05-04T09:07:56Z</time></trkpt><trkpt lat="38.09983683114458" lon="15.444172625046097"><ele>813.0</ele><time>2026-05-04T09:07:57Z</time></trkpt><trkpt lat="38.09980051246359" lon="15.444106448666414"><ele>813.0</ele><time>2026-05-04T09:07:59Z</time></trkpt><trkpt lat="38.0998530700615" lon="15.444046303103057"><ele>813.0</ele><time>2026-05-04T09:08:01Z</time></trkpt><trkpt lat="38.09995016613735" lon="15.44407284484909"><ele>813.0</ele><time>2026-05-04T09:08:03Z</time></trkpt><trkpt lat="38.100015279059356" lon="15.44408708683548"><ele>813.0</ele><time>2026-05-04T09:08:05Z</time></trkpt><trkpt lat="38.100084306651645" lon="15.444037200944699"><ele>813.0</ele><time>2026-05-04T09:10:12.999Z</time></trkpt><trkpt lat="38.1002254746143" lon="15.44399284374377"><ele>813.0</ele><time>2026-05-04T09:10:14.999Z</time></trkpt><trkpt lat="38.1003120967021" lon="15.443979741126515"><ele>813.0</ele><time>2026-05-04T09:10:15.999Z</time></trkpt><trkpt lat="38.10038457159461" lon="15.443973937540838"><ele>813.0</ele><time>2026-05-04T09:10:16.999Z</time></trkpt><trkpt lat="38.10045641899945" lon="15.44401225116718"><ele>813.0</ele><time>2026-05-04T09:10:17.999Z</time></trkpt><trkpt lat="38.10051410300597" lon="15.444069225056312"><ele>813.0</ele><time>2026-05-04T09:10:18.999Z</time></trkpt><trkpt lat="38.10055132592618" lon="15.444188413808645"><ele>813.0</ele><time>2026-05-04T09:10:19.999Z</time></trkpt><trkpt lat="38.10062942314678" lon="15.444268240704076"><ele>813.0</ele><time>2026-05-04T09:10:20.999Z</time></trkpt><trkpt lat="38.100682757093914" lon="15.444315836056107"><ele>813.0</ele><time>2026-05-04T09:10:21.999Z</time></trkpt><trkpt lat="38.100803514121246" lon="15.444291954526092"><ele>814.8333333333334</ele><time>2026-05-04T09:10:23.999Z</time></trkpt><trkpt lat="38.10088203034695" lon="15.444186438313551"><ele>816.6666666666667</ele><time>2026-05-04T09:10:25.999Z</time></trkpt><trkpt lat="38.10087921756757" lon="15.44408080331927"><ele>818.5</ele><time>2026-05-04T09:10:26.999Z</time></trkpt><trkpt lat="38.10087006472605" lon="15.443998528298902"><ele>820.3333333333334</ele><time>2026-05-04T09:10:27.999Z</time></trkpt><trkpt lat="38.10085096132785" lon="15.443907441645205"><ele>822.1666666666667</ele><time>2026-05-04T09:10:28.999Z</time></trkpt><trkpt lat="38.10079974947892" lon="15.44381437469598"><ele>824.0</ele><time>2026-05-04T09:10:29.999Z</time></trkpt><trkpt lat="38.100744635765395" lon="15.443701251495451"><ele>824.0</ele><time>2026-05-04T09:10:30.999Z</time></trkpt><trkpt lat="38.10071591875305" lon="15.44359171337602"><ele>824.0</ele><time>2026-05-04T09:10:31.999Z</time></trkpt><trkpt lat="38.10072616027153" lon="15.443484556973386"><ele>824.0</ele><time>2026-05-04T09:10:32.999Z</time></trkpt><trkpt lat="38.10070639608464" lon="15.443374530825356"><ele>824.0</ele><time>2026-05-04T09:10:33.999Z</time></trkpt><trkpt lat="38.10069052189801" lon="15.443252596897876"><ele>824.0</ele><time>2026-05-04T09:10:34.999Z</time></trkpt><trkpt lat="38.10066680905663" lon="15.44312699082672"><ele>824.0</ele><time>2026-05-04T09:10:35.999Z</time></trkpt><trkpt lat="38.10064073026303" lon="15.442973802290082"><ele>824.0</ele><time>2026-05-04T09:10:36.999Z</time></trkpt><trkpt lat="38.10062725281406" lon="15.442811205056696"><ele>824.0</ele><time>2026-05-04T09:10:37.999Z</time></trkpt><trkpt lat="38.1006349657766" lon="15.442659319460919"><ele>824.0</ele><time>2026-05-04T09:10:38.999Z</time></trkpt><trkpt lat="38.10065255069554" lon="15.442526368468965"><ele>822.4000000000001</ele><time>2026-05-04T09:10:39.999Z</time></trkpt><trkpt lat="38.100656733793556" lon="15.442414203093303"><ele>820.8</ele><time>2026-05-04T09:10:40.999Z</time></trkpt><trkpt lat="38.10066851981412" lon="15.442276767022173"><ele>819.2</ele><time>2026-05-04T09:10:41.999Z</time></trkpt><trkpt lat="38.10069892071621" lon="15.442137621442093"><ele>817.5999999999999</ele><time>2026-05-04T09:10:42.999Z</time></trkpt><trkpt lat="38.10073623362856" lon="15.442030032616117"><ele>816.0</ele><time>2026-05-04T09:10:43.999Z</time></trkpt><trkpt lat="38.10077483672881" lon="15.441962406193726"><ele>821.8</ele><time>2026-05-04T09:10:44.999Z</time></trkpt><trkpt lat="38.10086161116836" lon="15.441905131903914"><ele>827.5999999999999</ele><time>2026-05-04T09:10:46.999Z</time></trkpt><trkpt lat="38.100947556357596" lon="15.441839761709476"><ele>833.4</ele><time>2026-05-04T09:10:47.999Z</time></trkpt><trkpt lat="38.101013098875754" lon="15.44176898078905"><ele>839.2</ele><time>2026-05-04T09:10:48.999Z</time></trkpt><trkpt lat="38.10101983030767" lon="15.441688421020304"><ele>845.0</ele><time>2026-05-04T09:10:49.999Z</time></trkpt><trkpt lat="38.10101079713301" lon="15.441497025400304"><ele>845.0</ele><time>2026-05-04T09:10:51.999Z</time></trkpt><trkpt lat="38.10102440440649" lon="15.441371809711384"><ele>845.0</ele><time>2026-05-04T09:10:52.999Z</time></trkpt><trkpt lat="38.10109940921579" lon="15.441322625579124"><ele>845.0</ele><time>2026-05-04T09:10:53.999Z</time></trkpt><trkpt lat="38.10113258585923" lon="15.441235062980743"><ele>845.0</ele><time>2026-05-04T09:10:54.999Z</time></trkpt><trkpt lat="38.10116003502566" lon="15.441158671673088"><ele>845.0</ele><time>2026-05-04T09:10:55.999Z</time></trkpt><trkpt lat="38.101154514340834" lon="15.44100062894664"><ele>849.0</ele><time>2026-05-04T09:10:57.999Z</time></trkpt><trkpt lat="38.101144669043265" lon="15.440893778472024"><ele>853.0</ele><time>2026-05-04T09:10:58.999Z</time></trkpt><trkpt lat="38.10115820662712" lon="15.440807327481082"><ele>857.0</ele><time>2026-05-04T09:10:59.999Z</time></trkpt><trkpt lat="38.10119173420804" lon="15.440709597271582"><ele>861.0</ele><time>2026-05-04T09:11:00.999Z</time></trkpt><trkpt lat="38.10121768550098" lon="15.44056984537108"><ele>865.0</ele><time>2026-05-04T09:11:01.999Z</time></trkpt><trkpt lat="38.10124835470249" lon="15.440446612718919"><ele>868.4</ele><time>2026-05-04T09:11:02.998Z</time></trkpt><trkpt lat="38.10131005491698" lon="15.440320405577"><ele>871.8</ele><time>2026-05-04T09:11:03.998Z</time></trkpt><trkpt lat="38.101337928549064" lon="15.44019889195897"><ele>875.2</ele><time>2026-05-04T09:11:04.998Z</time></trkpt><trkpt lat="38.10138171703344" lon="15.440090850040377"><ele>878.6</ele><time>2026-05-04T09:11:05.998Z</time></trkpt><trkpt lat="38.10142668725165" lon="15.439968831265581"><ele>882.0</ele><time>2026-05-04T09:11:06.998Z</time></trkpt><trkpt lat="38.10147262354881" lon="15.439861119064759"><ele>882.0</ele><time>2026-05-04T09:11:07.998Z</time></trkpt><trkpt lat="38.10149675401079" lon="15.439761997379373"><ele>882.0</ele><time>2026-05-04T09:11:08.998Z</time></trkpt><trkpt lat="38.101526021319366" lon="15.439634420869067"><ele>882.0</ele><time>2026-05-04T09:11:10.998Z</time></trkpt><trkpt lat="38.10172125432203" lon="15.4396213678212"><ele>882.0</ele><time>2026-05-04T09:11:14.998Z</time></trkpt><trkpt lat="38.10167167559757" lon="15.4395695703521"><ele>882.0</ele><time>2026-05-04T09:11:15.998Z</time></trkpt><trkpt lat="38.101586662919125" lon="15.439577321067251"><ele>882.0</ele><time>2026-05-04T09:11:17.998Z</time></trkpt><trkpt lat="38.10151585854464" lon="15.439616541427633"><ele>882.0</ele><time>2026-05-04T09:11:18.998Z</time></trkpt><trkpt lat="38.101422853368206" lon="15.439650594858286"><ele>882.0</ele><time>2026-05-04T09:11:19.998Z</time></trkpt><trkpt lat="38.10133788612668" lon="15.439672960127684"><ele>882.0</ele><time>2026-05-04T09:11:20.998Z</time></trkpt><trkpt lat="38.101327897378916" lon="15.439764424233386"><ele>882.0</ele><time>2026-05-04T09:11:21.998Z</time></trkpt><trkpt lat="38.10127091557728" lon="15.439870629501609"><ele>882.0</ele><time>2026-05-04T09:11:23.998Z</time></trkpt><trkpt lat="38.101211143982866" lon="15.439951316612195"><ele>882.0</ele><time>2026-05-04T09:11:26.998Z</time></trkpt><trkpt lat="38.101131033530535" lon="15.440140838441598"><ele>882.0</ele><time>2026-05-04T09:11:28.998Z</time></trkpt><trkpt lat="38.101087005640984" lon="15.440265410105395"><ele>882.0</ele><time>2026-05-04T09:11:29.998Z</time></trkpt><trkpt lat="38.10094662983789" lon="15.440522137273716"><ele>878.6</ele><time>2026-05-04T09:11:30.998Z</time></trkpt><trkpt lat="38.100881506265594" lon="15.440648518987983"><ele>875.2</ele><time>2026-05-04T09:11:31.998Z</time></trkpt><trkpt lat="38.10082187350792" lon="15.440692217694336"><ele>871.8</ele><time>2026-05-04T09:11:32.998Z</time></trkpt><trkpt lat="38.10071587327995" lon="15.440611304458923"><ele>868.4</ele><time>2026-05-04T09:11:34.998Z</time></trkpt><trkpt lat="38.100661611206185" lon="15.440512735249301"><ele>865.0</ele><time>2026-05-04T09:11:35.998Z</time></trkpt><trkpt lat="38.10059149710253" lon="15.44042062585861"><ele>864.9999999999999</ele><time>2026-05-04T09:11:36.998Z</time></trkpt><trkpt lat="38.100545780989606" lon="15.440332611749751"><ele>865.0</ele><time>2026-05-04T09:11:37.998Z</time></trkpt><trkpt lat="38.10052406538901" lon="15.44023485203586"><ele>865.0</ele><time>2026-05-04T09:11:38.998Z</time></trkpt><trkpt lat="38.100539694697815" lon="15.44013314114477"><ele>865.0</ele><time>2026-05-04T09:11:39.998Z</time></trkpt><trkpt lat="38.1005274549263" lon="15.440023526494844"><ele>864.9999999999999</ele><time>2026-05-04T09:11:40.998Z</time></trkpt><trkpt lat="38.10052415546087" lon="15.439905401060388"><ele>865.0</ele><time>2026-05-04T09:11:41.998Z</time></trkpt><trkpt lat="38.10051302389705" lon="15.439777514605751"><ele>864.9999999999999</ele><time>2026-05-04T09:11:42.998Z</time></trkpt><trkpt lat="38.100471912692385" lon="15.43966574382351"><ele>865.0</ele><time>2026-05-04T09:11:43.998Z</time></trkpt><trkpt lat="38.10043093373987" lon="15.439574657311569"><ele>865.0</ele><time>2026-05-04T09:11:44.998Z</time></trkpt><trkpt lat="38.10036948235603" lon="15.439496671855471"><ele>865.0</ele><time>2026-05-04T09:11:45.998Z</time></trkpt><trkpt lat="38.10030099588143" lon="15.439418401705991"><ele>864.9999999999999</ele><time>2026-05-04T09:11:46.998Z</time></trkpt><trkpt lat="38.10022849784527" lon="15.43936569364875"><ele>865.0</ele><time>2026-05-04T09:11:47.998Z</time></trkpt><trkpt lat="38.10014989544719" lon="15.43934007848137"><ele>870.0</ele><time>2026-05-04T09:11:48.998Z</time></trkpt><trkpt lat="38.100060261337426" lon="15.439346513378696"><ele>875.0</ele><time>2026-05-04T09:11:49.998Z</time></trkpt><trkpt lat="38.09996061671675" lon="15.439331898205014"><ele>880.0</ele><time>2026-05-04T09:11:50.998Z</time></trkpt><trkpt lat="38.09986210508708" lon="15.439340559574706"><ele>885.0</ele><time>2026-05-04T09:11:51.998Z</time></trkpt><trkpt lat="38.09977406533468" lon="15.439321658688113"><ele>890.0</ele><time>2026-05-04T09:11:52.999Z</time></trkpt><trkpt lat="38.09970475770529" lon="15.439292774553062"><ele>890.0</ele><time>2026-05-04T09:11:53.999Z</time></trkpt><trkpt lat="38.09962862005549" lon="15.439227682007916"><ele>890.0</ele><time>2026-05-04T09:11:54.999Z</time></trkpt><trkpt lat="38.09954987933262" lon="15.439151518895835"><ele>890.0</ele><time>2026-05-04T09:11:55.999Z</time></trkpt><trkpt lat="38.099461770943336" lon="15.439078526303573"><ele>890.0</ele><time>2026-05-04T09:11:56.999Z</time></trkpt><trkpt lat="38.09939682301766" lon="15.439030277462676"><ele>890.0</ele><time>2026-05-04T09:11:57.999Z</time></trkpt><trkpt lat="38.09931251668676" lon="15.438972547020995"><ele>890.0</ele><time>2026-05-04T09:11:58.999Z</time></trkpt><trkpt lat="38.09922740865945" lon="15.43893864808345"><ele>890.0</ele><time>2026-05-04T09:11:59.999Z</time></trkpt><trkpt lat="38.099122198914124" lon="15.43891436881221"><ele>890.0</ele><time>2026-05-04T09:12:00.999Z</time></trkpt><trkpt lat="38.09902298621857" lon="15.438917342640783"><ele>890.0</ele><time>2026-05-04T09:12:01.999Z</time></trkpt><trkpt lat="38.09893602800084" lon="15.438942874380157"><ele>890.0</ele><time>2026-05-04T09:12:02.999Z</time></trkpt><trkpt lat="38.09885344145182" lon="15.438985707787673"><ele>889.6</ele><time>2026-05-04T09:12:03.999Z</time></trkpt><trkpt lat="38.09877309198314" lon="15.439056029959838"><ele>889.2</ele><time>2026-05-04T09:12:04.999Z</time></trkpt><trkpt lat="38.0986974472016" lon="15.439181008583367"><ele>888.8</ele><time>2026-05-04T09:12:05.999Z</time></trkpt><trkpt lat="38.09864038155244" lon="15.439268253222167"><ele>888.4</ele><time>2026-05-04T09:12:06.999Z</time></trkpt><trkpt lat="38.09858329018941" lon="15.43932678816496"><ele>888.0</ele><time>2026-05-04T09:12:07.999Z</time></trkpt><trkpt lat="38.09852664935095" lon="15.439368014987858"><ele>888.0</ele><time>2026-05-04T09:12:08.999Z</time></trkpt><trkpt lat="38.09842881182691" lon="15.439344394379612"><ele>888.0</ele><time>2026-05-04T09:12:10.999Z</time></trkpt><trkpt lat="38.098371900901185" lon="15.43930671594667"><ele>888.0</ele><time>2026-05-04T09:12:11.999Z</time></trkpt><trkpt lat="38.09829925773108" lon="15.43924643672749"><ele>888.0</ele><time>2026-05-04T09:12:12.999Z</time></trkpt><trkpt lat="38.09822924992857" lon="15.439153612324933"><ele>888.0</ele><time>2026-05-04T09:12:13.999Z</time></trkpt><trkpt lat="38.09815937730769" lon="15.439042554133364"><ele>882.2</ele><time>2026-05-04T09:12:14.999Z</time></trkpt><trkpt lat="38.09809765067179" lon="15.438928782920964"><ele>876.4</ele><time>2026-05-04T09:12:15.999Z</time></trkpt><trkpt lat="38.09805769033513" lon="15.438823100394657"><ele>870.6000000000001</ele><time>2026-05-04T09:12:16.999Z</time></trkpt><trkpt lat="38.09804601054423" lon="15.438728512389076"><ele>864.8000000000001</ele><time>2026-05-04T09:12:18.999Z</time></trkpt><trkpt lat="38.0981085796236" lon="15.438784039244359"><ele>859.0</ele><time>2026-05-04T09:12:19.999Z</time></trkpt><trkpt lat="38.09816006162007" lon="15.438905235697533"><ele>858.6</ele><time>2026-05-04T09:12:21.999Z</time></trkpt><trkpt lat="38.09824488684359" lon="15.439014556255698"><ele>858.2</ele><time>2026-05-04T09:12:22.999Z</time></trkpt><trkpt lat="38.098327666429135" lon="15.439064630193092"><ele>857.8000000000001</ele><time>2026-05-04T09:12:23.999Z</time></trkpt><trkpt lat="38.09844542788609" lon="15.43907138838237"><ele>857.4000000000001</ele><time>2026-05-04T09:12:25.999Z</time></trkpt><trkpt lat="38.09853211251868" lon="15.439047274962196"><ele>857.0</ele><time>2026-05-04T09:12:26.999Z</time></trkpt><trkpt lat="38.09859146399994" lon="15.438977142818967"><ele>863.2</ele><time>2026-05-04T09:12:27.999Z</time></trkpt><trkpt lat="38.098487977911915" lon="15.438887370912193"><ele>869.4000000000001</ele><time>2026-05-04T09:12:31.999Z</time></trkpt><trkpt lat="38.098420762418" lon="15.43887296811893"><ele>875.5999999999999</ele><time>2026-05-04T09:12:32.999Z</time></trkpt><trkpt lat="38.098360289719054" lon="15.438819390597908"><ele>881.8</ele><time>2026-05-04T09:12:34.999Z</time></trkpt><trkpt lat="38.098294450234214" lon="15.438695904259859"><ele>888.0</ele><time>2026-05-04T09:12:36.999Z</time></trkpt><trkpt lat="38.09837761658092" lon="15.438719045609183"><ele>888.0</ele><time>2026-05-04T09:12:42.999Z</time></trkpt><trkpt lat="38.098446679160226" lon="15.438796308299208"><ele>888.0</ele><time>2026-05-04T09:12:43.999Z</time></trkpt><trkpt lat="38.098525754414815" lon="15.438801845755249"><ele>888.0</ele><time>2026-05-04T09:12:44.999Z</time></trkpt><trkpt lat="38.098588436307324" lon="15.438758588587257"><ele>888.0</ele><time>2026-05-04T09:12:45.999Z</time></trkpt><trkpt lat="38.09863858012674" lon="15.438710009815095"><ele>888.0</ele><time>2026-05-04T09:12:46.999Z</time></trkpt><trkpt lat="38.0986831811129" lon="15.438653453044555"><ele>888.0</ele><time>2026-05-04T09:12:47.999Z</time></trkpt><trkpt lat="38.09872803586521" lon="15.438585450811454"><ele>888.0</ele><time>2026-05-04T09:12:48.999Z</time></trkpt><trkpt lat="38.098782543558556" lon="15.438503306406016"><ele>890.1428571428571</ele><time>2026-05-04T09:12:49.999Z</time></trkpt><trkpt lat="38.098849221215374" lon="15.438459072158533"><ele>892.2857142857143</ele><time>2026-05-04T09:12:50.999Z</time></trkpt><trkpt lat="38.09891378417648" lon="15.438430351978175"><ele>894.4285714285714</ele><time>2026-05-04T09:12:51.999Z</time></trkpt><trkpt lat="38.098975612653426" lon="15.438401409230016"><ele>896.5714285714286</ele><time>2026-05-04T09:12:52.999Z</time></trkpt><trkpt lat="38.0990397971113" lon="15.438389903174707"><ele>898.7142857142858</ele><time>2026-05-04T09:12:53.999Z</time></trkpt><trkpt lat="38.099119426352324" lon="15.43839686323535"><ele>900.8571428571429</ele><time>2026-05-04T09:12:54.999Z</time></trkpt><trkpt lat="38.09919522620655" lon="15.438410071542961"><ele>903.0</ele><time>2026-05-04T09:12:55.999Z</time></trkpt><trkpt lat="38.099290986954955" lon="15.438422503643224"><ele>907.0</ele><time>2026-05-04T09:12:56.999Z</time></trkpt><trkpt lat="38.09938779968536" lon="15.438451062864496"><ele>911.0</ele><time>2026-05-04T09:12:57.999Z</time></trkpt><trkpt lat="38.09946508428889" lon="15.438481512256216"><ele>915.0</ele><time>2026-05-04T09:12:58.999Z</time></trkpt><trkpt lat="38.099535768510364" lon="15.438518867718491"><ele>919.0</ele><time>2026-05-04T09:12:59.999Z</time></trkpt><trkpt lat="38.09961975663186" lon="15.438568435479032"><ele>923.0</ele><time>2026-05-04T09:13:00.999Z</time></trkpt><trkpt lat="38.09967579410155" lon="15.438618910941038"><ele>927.0</ele><time>2026-05-04T09:13:01.999Z</time></trkpt><trkpt lat="38.09973210001214" lon="15.438665343319855"><ele>927.0</ele><time>2026-05-04T09:13:02.999Z</time></trkpt><trkpt lat="38.09980212163761" lon="15.438581578102259"><ele>927.0</ele><time>2026-05-04T09:13:04.999Z</time></trkpt><trkpt lat="38.099755032867705" lon="15.438525405037986"><ele>927.0</ele><time>2026-05-04T09:13:05.999Z</time></trkpt><trkpt lat="38.09966562216199" lon="15.4384484714431"><ele>927.0</ele><time>2026-05-04T09:13:07.999Z</time></trkpt><trkpt lat="38.099569020866475" lon="15.43840974063334"><ele>927.0</ele><time>2026-05-04T09:13:08.999Z</time></trkpt><trkpt lat="38.09946865365715" lon="15.438372470820541"><ele>927.0</ele><time>2026-05-04T09:13:09.998Z</time></trkpt><trkpt lat="38.09936445569173" lon="15.438299508843281"><ele>927.0</ele><time>2026-05-04T09:13:10.998Z</time></trkpt><trkpt lat="38.09923860655445" lon="15.43826058308853"><ele>927.0</ele><time>2026-05-04T09:13:11.998Z</time></trkpt><trkpt lat="38.099132808386656" lon="15.438198102474962"><ele>927.0</ele><time>2026-05-04T09:13:12.998Z</time></trkpt><trkpt lat="38.099025753926355" lon="15.43816219346955"><ele>923.0</ele><time>2026-05-04T09:13:13.998Z</time></trkpt><trkpt lat="38.098913077647865" lon="15.438170436168525"><ele>919.0</ele><time>2026-05-04T09:13:14.998Z</time></trkpt><trkpt lat="38.0988236653805" lon="15.438182826460785"><ele>915.0</ele><time>2026-05-04T09:13:15.998Z</time></trkpt><trkpt lat="38.09874188218932" lon="15.438201921640632"><ele>911.0</ele><time>2026-05-04T09:13:16.998Z</time></trkpt><trkpt lat="38.098659911686994" lon="15.438227658705653"><ele>907.0</ele><time>2026-05-04T09:13:17.998Z</time></trkpt><trkpt lat="38.09859518438064" lon="15.438232853843198"><ele>903.0</ele><time>2026-05-04T09:13:18.998Z</time></trkpt><trkpt lat="38.09860564122407" lon="15.43812463981081"><ele>903.0</ele><time>2026-05-04T09:13:22.998Z</time></trkpt><trkpt lat="38.098705149193236" lon="15.438124842752773"><ele>903.0</ele><time>2026-05-04T09:13:24.998Z</time></trkpt><trkpt lat="38.098767381328116" lon="15.438159991986824"><ele>903.0</ele><time>2026-05-04T09:13:25.998Z</time></trkpt><trkpt lat="38.09882553027724" lon="15.438111191624134"><ele>903.0</ele><time>2026-05-04T09:13:26.998Z</time></trkpt><trkpt lat="38.098887827169136" lon="15.438091885127156"><ele>903.0</ele><time>2026-05-04T09:13:27.998Z</time></trkpt><trkpt lat="38.099020024818195" lon="15.438088851490383"><ele>903.0</ele><time>2026-05-04T09:13:29.998Z</time></trkpt><trkpt lat="38.099122110175536" lon="15.438102829743759"><ele>907.8</ele><time>2026-05-04T09:13:30.998Z</time></trkpt><trkpt lat="38.09922285713359" lon="15.438125392441018"><ele>912.5999999999999</ele><time>2026-05-04T09:13:31.998Z</time></trkpt><trkpt lat="38.09931849730456" lon="15.43814092351987"><ele>917.4000000000001</ele><time>2026-05-04T09:13:32.998Z</time></trkpt><trkpt lat="38.09940784763389" lon="15.43816194992974"><ele>922.2</ele><time>2026-05-04T09:13:33.998Z</time></trkpt><trkpt lat="38.09951240416305" lon="15.438182440760043"><ele>927.0</ele><time>2026-05-04T09:13:34.998Z</time></trkpt><trkpt lat="38.09960345943821" lon="15.43822627848242"><ele>927.0</ele><time>2026-05-04T09:13:35.998Z</time></trkpt><trkpt lat="38.09968180469019" lon="15.438255758981484"><ele>927.0</ele><time>2026-05-04T09:13:36.998Z</time></trkpt><trkpt lat="38.099751622746986" lon="15.438284286653909"><ele>927.0</ele><time>2026-05-04T09:13:37.998Z</time></trkpt><trkpt lat="38.099842293121135" lon="15.438307952848724"><ele>927.0</ele><time>2026-05-04T09:13:39.998Z</time></trkpt><trkpt lat="38.09986753142711" lon="15.438204848991013"><ele>927.0</ele><time>2026-05-04T09:13:41.998Z</time></trkpt><trkpt lat="38.0998177088186" lon="15.43815551700735"><ele>927.0</ele><time>2026-05-04T09:13:42.998Z</time></trkpt><trkpt lat="38.09968319698299" lon="15.438136087958268"><ele>927.0</ele><time>2026-05-04T09:13:44.998Z</time></trkpt><trkpt lat="38.09959172538638" lon="15.438090872651072"><ele>927.0</ele><time>2026-05-04T09:13:45.998Z</time></trkpt><trkpt lat="38.0994977497172" lon="15.438048721327325"><ele>927.0</ele><time>2026-05-04T09:13:46.998Z</time></trkpt><trkpt lat="38.09940065582663" lon="15.43800245190574"><ele>927.0</ele><time>2026-05-04T09:13:47.998Z</time></trkpt><trkpt lat="38.09930533822591" lon="15.437960482151007"><ele>927.0</ele><time>2026-05-04T09:13:48.998Z</time></trkpt><trkpt lat="38.099200972391095" lon="15.437912284359523"><ele>930.8333333333334</ele><time>2026-05-04T09:13:49.998Z</time></trkpt><trkpt lat="38.09911054366154" lon="15.437889526177786"><ele>934.6666666666667</ele><time>2026-05-04T09:13:50.998Z</time></trkpt><trkpt lat="38.09902031999747" lon="15.437838693638906"><ele>938.5</ele><time>2026-05-04T09:13:51.998Z</time></trkpt><trkpt lat="38.098928012035216" lon="15.437799291654997"><ele>942.3333333333334</ele><time>2026-05-04T09:13:52.998Z</time></trkpt><trkpt lat="38.09884488432247" lon="15.437758561549316"><ele>946.1666666666667</ele><time>2026-05-04T09:13:53.998Z</time></trkpt><trkpt lat="38.09878623306803" lon="15.437720067725193"><ele>950.0</ele><time>2026-05-04T09:13:54.998Z</time></trkpt><trkpt lat="38.09875202698674" lon="15.437630527443284"><ele>940.4</ele><time>2026-05-04T09:13:56.998Z</time></trkpt><trkpt lat="38.09876481497549" lon="15.437540863369955"><ele>930.8</ele><time>2026-05-04T09:13:59Z</time></trkpt><trkpt lat="38.09880548316126" lon="15.437435101009672"><ele>921.2</ele><time>2026-05-04T09:14:01Z</time></trkpt><trkpt lat="38.09892070497699" lon="15.437358589346458"><ele>911.6</ele><time>2026-05-04T09:14:03Z</time></trkpt><trkpt lat="38.09899813850457" lon="15.437291536073383"><ele>902.0</ele><time>2026-05-04T09:14:04Z</time></trkpt><trkpt lat="38.099070969940975" lon="15.437192415192083"><ele>906.0000000000001</ele><time>2026-05-04T09:14:05Z</time></trkpt><trkpt lat="38.09913062648828" lon="15.43710881262119"><ele>910.0</ele><time>2026-05-04T09:14:06Z</time></trkpt><trkpt lat="38.09919254518207" lon="15.43704252250245"><ele>914.0</ele><time>2026-05-04T09:14:07Z</time></trkpt><trkpt lat="38.09925032434983" lon="15.437004212542018"><ele>918.0</ele><time>2026-05-04T09:14:08Z</time></trkpt><trkpt lat="38.09932192559436" lon="15.437009695336473"><ele>922.0000000000001</ele><time>2026-05-04T09:14:09Z</time></trkpt><trkpt lat="38.09939436987881" lon="15.436982750318007"><ele>926.0</ele><time>2026-05-04T09:14:10Z</time></trkpt><trkpt lat="38.09947066923321" lon="15.436944274130026"><ele>926.0000000000001</ele><time>2026-05-04T09:14:11Z</time></trkpt><trkpt lat="38.09955449813334" lon="15.436958888207135"><ele>926.0</ele><time>2026-05-04T09:14:12Z</time></trkpt><trkpt lat="38.0996227473068" lon="15.436978482422283"><ele>926.0</ele><time>2026-05-04T09:14:13Z</time></trkpt><trkpt lat="38.099689399311856" lon="15.43699942955412"><ele>926.0</ele><time>2026-05-04T09:14:14Z</time></trkpt><trkpt lat="38.09976252668193" lon="15.437040324964935"><ele>926.0000000000001</ele><time>2026-05-04T09:14:15Z</time></trkpt><trkpt lat="38.099866481772736" lon="15.437082111586472"><ele>926.0</ele><time>2026-05-04T09:14:16Z</time></trkpt><trkpt lat="38.09995865327056" lon="15.437087081907665"><ele>928.0</ele><time>2026-05-04T09:14:17Z</time></trkpt><trkpt lat="38.100045521720425" lon="15.436990176775963"><ele>929.9999999999999</ele><time>2026-05-04T09:14:18Z</time></trkpt><trkpt lat="38.10013315402889" lon="15.43696573335079"><ele>931.9999999999999</ele><time>2026-05-04T09:14:19Z</time></trkpt><trkpt lat="38.10020665293911" lon="15.436956833184277"><ele>934.0</ele><time>2026-05-04T09:14:20Z</time></trkpt><trkpt lat="38.10033418188958" lon="15.437064965819276"><ele>936.0</ele><time>2026-05-04T09:14:22Z</time></trkpt><trkpt lat="38.10041709040277" lon="15.437060144050228"><ele>936.0</ele><time>2026-05-04T09:14:23.999Z</time></trkpt><trkpt lat="38.100497262326016" lon="15.436994433778267"><ele>936.0</ele><time>2026-05-04T09:14:24.999Z</time></trkpt><trkpt lat="38.10056759346427" lon="15.436973179317608"><ele>936.0</ele><time>2026-05-04T09:14:25.999Z</time></trkpt><trkpt lat="38.100639047214635" lon="15.436978142331641"><ele>936.0</ele><time>2026-05-04T09:14:26.999Z</time></trkpt><trkpt lat="38.10072005250371" lon="15.437021888198807"><ele>936.0</ele><time>2026-05-04T09:14:27.999Z</time></trkpt><trkpt lat="38.10079298370114" lon="15.437021888194746"><ele>936.0</ele><time>2026-05-04T09:14:28.999Z</time></trkpt><trkpt lat="38.10086560514218" lon="15.437021888192152"><ele>938.3333333333334</ele><time>2026-05-04T09:14:29.999Z</time></trkpt><trkpt lat="38.10090697175054" lon="15.43694707451432"><ele>940.6666666666667</ele><time>2026-05-04T09:14:30.999Z</time></trkpt><trkpt lat="38.10095845896889" lon="15.436885934748547"><ele>943.0</ele><time>2026-05-04T09:14:31.999Z</time></trkpt><trkpt lat="38.10101185089108" lon="15.436824095476885"><ele>945.3333333333334</ele><time>2026-05-04T09:14:32.999Z</time></trkpt><trkpt lat="38.101072211563164" lon="15.436762252249142"><ele>947.6666666666667</ele><time>2026-05-04T09:14:33.999Z</time></trkpt><trkpt lat="38.10113738152137" lon="15.436700862429989"><ele>950.0</ele><time>2026-05-04T09:14:34.999Z</time></trkpt><trkpt lat="38.101210029196096" lon="15.43673344938628"><ele>950.0000000000001</ele><time>2026-05-04T09:14:35.999Z</time></trkpt><trkpt lat="38.10126842188592" lon="15.43670272643369"><ele>950.0</ele><time>2026-05-04T09:14:36.999Z</time></trkpt><trkpt lat="38.10133067226314" lon="15.436658545361714"><ele>950.0</ele><time>2026-05-04T09:14:37.999Z</time></trkpt><trkpt lat="38.101401702471556" lon="15.436594936264754"><ele>950.0</ele><time>2026-05-04T09:14:38.999Z</time></trkpt><trkpt lat="38.10148681601174" lon="15.4365159510142"><ele>950.0000000000001</ele><time>2026-05-04T09:14:39.999Z</time></trkpt><trkpt lat="38.10154490803731" lon="15.436430273767819"><ele>950.0</ele><time>2026-05-04T09:14:40.999Z</time></trkpt><trkpt lat="38.10159585665109" lon="15.436359969118525"><ele>953.4</ele><time>2026-05-04T09:14:41.999Z</time></trkpt><trkpt lat="38.10163872579195" lon="15.436262961147865"><ele>956.8</ele><time>2026-05-04T09:14:42.999Z</time></trkpt><trkpt lat="38.10166837580005" lon="15.4361540051559"><ele>960.2</ele><time>2026-05-04T09:14:43.999Z</time></trkpt><trkpt lat="38.10167522050927" lon="15.43605037549642"><ele>963.6</ele><time>2026-05-04T09:14:44.999Z</time></trkpt><trkpt lat="38.10167043926642" lon="15.43595486020378"><ele>967.0</ele><time>2026-05-04T09:14:45.999Z</time></trkpt><trkpt lat="38.10166486439728" lon="15.435804133336507"><ele>967.0</ele><time>2026-05-04T09:14:46.999Z</time></trkpt><trkpt lat="38.10166700930537" lon="15.435658391341882"><ele>967.0</ele><time>2026-05-04T09:14:47.999Z</time></trkpt><trkpt lat="38.10169082449648" lon="15.435528029990463"><ele>967.0</ele><time>2026-05-04T09:14:48.999Z</time></trkpt><trkpt lat="38.101705902681765" lon="15.435434751219017"><ele>967.0</ele><time>2026-05-04T09:14:49.999Z</time></trkpt><trkpt lat="38.10175912702781" lon="15.435346528050863"><ele>967.0</ele><time>2026-05-04T09:14:51.999Z</time></trkpt><trkpt lat="38.101803475662194" lon="15.435277173468501"><ele>961.8</ele><time>2026-05-04T09:14:52.999Z</time></trkpt><trkpt lat="38.10185396866065" lon="15.43521588278509"><ele>956.6</ele><time>2026-05-04T09:14:53.999Z</time></trkpt><trkpt lat="38.10192305929437" lon="15.435140292684444"><ele>951.3999999999999</ele><time>2026-05-04T09:14:54.999Z</time></trkpt><trkpt lat="38.10200275623431" lon="15.435067126953745"><ele>946.1999999999999</ele><time>2026-05-04T09:14:55.999Z</time></trkpt><trkpt lat="38.10209381557218" lon="15.434983533381834"><ele>941.0</ele><time>2026-05-04T09:14:56.999Z</time></trkpt><trkpt lat="38.10219252432283" lon="15.434899021735806"><ele>941.0</ele><time>2026-05-04T09:14:57.999Z</time></trkpt><trkpt lat="38.10227619591719" lon="15.434838978159243"><ele>940.9999999999999</ele><time>2026-05-04T09:14:58.999Z</time></trkpt><trkpt lat="38.10234281804323" lon="15.434818503433672"><ele>940.9999999999999</ele><time>2026-05-04T09:14:59.999Z</time></trkpt><trkpt lat="38.10244092710241" lon="15.434791633375692"><ele>941.0</ele><time>2026-05-04T09:15:00.999Z</time></trkpt><trkpt lat="38.10256069576841" lon="15.434748164028726"><ele>941.0</ele><time>2026-05-04T09:15:01.999Z</time></trkpt><trkpt lat="38.10267293082068" lon="15.434681632278116"><ele>941.5999999999999</ele><time>2026-05-04T09:15:02.999Z</time></trkpt><trkpt lat="38.10272693798863" lon="15.434635022740157"><ele>942.1999999999999</ele><time>2026-05-04T09:15:03.999Z</time></trkpt><trkpt lat="38.102797128608955" lon="15.434547110348628"><ele>942.8000000000001</ele><time>2026-05-04T09:15:04.999Z</time></trkpt><trkpt lat="38.10289569761489" lon="15.434444909338977"><ele>943.4000000000001</ele><time>2026-05-04T09:15:05.999Z</time></trkpt><trkpt lat="38.10299699231936" lon="15.434422334572439"><ele>944.0</ele><time>2026-05-04T09:15:06.999Z</time></trkpt><trkpt lat="38.10302746357926" lon="15.434501644040875"><ele>944.0</ele><time>2026-05-04T09:15:07.999Z</time></trkpt><trkpt lat="38.103170210487" lon="15.43460283141879"><ele>944.0</ele><time>2026-05-04T09:15:09.999Z</time></trkpt><trkpt lat="38.103267790040654" lon="15.434599914205084"><ele>944.0</ele><time>2026-05-04T09:15:12.999Z</time></trkpt><trkpt lat="38.10338151602397" lon="15.434644740525112"><ele>944.0</ele><time>2026-05-04T09:15:14.999Z</time></trkpt><trkpt lat="38.10353096633502" lon="15.434570659055147"><ele>945.0</ele><time>2026-05-04T09:15:17.999Z</time></trkpt><trkpt lat="38.103607434059036" lon="15.43461364439653"><ele>946.0000000000001</ele><time>2026-05-04T09:15:19.999Z</time></trkpt><trkpt lat="38.10369333874207" lon="15.434719376705344"><ele>947.0000000000001</ele><time>2026-05-04T09:15:21.998Z</time></trkpt><trkpt lat="38.10380321354155" lon="15.434730815567804"><ele>948.0</ele><time>2026-05-04T09:15:23.998Z</time></trkpt><trkpt lat="38.10387843753348" lon="15.434766082207425"><ele>949.0</ele><time>2026-05-04T09:15:24.998Z</time></trkpt><trkpt lat="38.103965089335745" lon="15.434875119149671"><ele>949.0</ele><time>2026-05-04T09:15:26.998Z</time></trkpt><trkpt lat="38.10404251507573" lon="15.434868213185453"><ele>949.0000000000001</ele><time>2026-05-04T09:15:29.998Z</time></trkpt><trkpt lat="38.10396906884353" lon="15.43475028750706"><ele>949.0000000000001</ele><time>2026-05-04T09:15:32.998Z</time></trkpt><trkpt lat="38.10391485412222" lon="15.434643823287677"><ele>949.0</ele><time>2026-05-04T09:15:33.998Z</time></trkpt><trkpt lat="38.10385744860719" lon="15.434564212680849"><ele>949.0</ele><time>2026-05-04T09:15:34.998Z</time></trkpt><trkpt lat="38.10378835680034" lon="15.4345725515044"><ele>949.0</ele><time>2026-05-04T09:15:35.998Z</time></trkpt><trkpt lat="38.103711491296714" lon="15.434593387442291"><ele>949.0000000000001</ele><time>2026-05-04T09:15:36.998Z</time></trkpt><trkpt lat="38.103645448803896" lon="15.43454314077697"><ele>949.0000000000001</ele><time>2026-05-04T09:15:37.998Z</time></trkpt><trkpt lat="38.103582220789136" lon="15.434388427020208"><ele>949.0</ele><time>2026-05-04T09:15:39.998Z</time></trkpt><trkpt lat="38.10359507271065" lon="15.434278522267812"><ele>949.0</ele><time>2026-05-04T09:15:40.998Z</time></trkpt><trkpt lat="38.10353381197621" lon="15.434163126750004"><ele>948.9999999999999</ele><time>2026-05-04T09:15:42.998Z</time></trkpt><trkpt lat="38.10347213661981" lon="15.434106441734619"><ele>949.0</ele><time>2026-05-04T09:15:43.998Z</time></trkpt><trkpt lat="38.10340108666652" lon="15.434060626917532"><ele>949.0</ele><time>2026-05-04T09:15:44.998Z</time></trkpt><trkpt lat="38.10331413267073" lon="15.434012060544612"><ele>949.0</ele><time>2026-05-04T09:15:45.998Z</time></trkpt><trkpt lat="38.10323654607125" lon="15.433990269868291"><ele>948.9999999999999</ele><time>2026-05-04T09:15:46.998Z</time></trkpt><trkpt lat="38.10317380940857" lon="15.434010464610852"><ele>949.0</ele><time>2026-05-04T09:15:47.998Z</time></trkpt><trkpt lat="38.10307697842014" lon="15.434061129895166"><ele>948.2857142857144</ele><time>2026-05-04T09:15:49.998Z</time></trkpt><trkpt lat="38.10299729887016" lon="15.434010906222547"><ele>947.5714285714287</ele><time>2026-05-04T09:15:52.998Z</time></trkpt><trkpt lat="38.10295175427331" lon="15.433922652876092"><ele>946.8571428571429</ele><time>2026-05-04T09:15:54.998Z</time></trkpt><trkpt lat="38.102936387391885" lon="15.433843047502572"><ele>946.1428571428572</ele><time>2026-05-04T09:16:10Z</time></trkpt><trkpt lat="38.102995228470725" lon="15.433808038842098"><ele>945.4285714285716</ele><time>2026-05-04T09:16:24Z</time></trkpt><trkpt lat="38.10306404958936" lon="15.433775946654654"><ele>944.7142857142857</ele><time>2026-05-04T09:16:26Z</time></trkpt><trkpt lat="38.10310904245853" lon="15.433711073895232"><ele>944.0</ele><time>2026-05-04T09:16:28Z</time></trkpt><trkpt lat="38.10319490705893" lon="15.433695202517"><ele>945.0</ele><time>2026-05-04T09:16:31Z</time></trkpt><trkpt lat="38.10329065052931" lon="15.433741039857038"><ele>946.0000000000001</ele><time>2026-05-04T09:16:32.999Z</time></trkpt><trkpt lat="38.1033555704768" lon="15.433761272050278"><ele>947.0000000000001</ele><time>2026-05-04T09:16:33.999Z</time></trkpt><trkpt lat="38.10345689924747" lon="15.43374990386813"><ele>948.0</ele><time>2026-05-04T09:16:35.999Z</time></trkpt><trkpt lat="38.10353589389176" lon="15.43378079393896"><ele>949.0</ele><time>2026-05-04T09:16:37.999Z</time></trkpt><trkpt lat="38.103628738167735" lon="15.433904327338244"><ele>949.0</ele><time>2026-05-04T09:16:39.999Z</time></trkpt><trkpt lat="38.10368070429602" lon="15.433952115889095"><ele>949.0000000000001</ele><time>2026-05-04T09:16:40.999Z</time></trkpt><trkpt lat="38.1038017138835" lon="15.434020770086732"><ele>949.0000000000001</ele><time>2026-05-04T09:16:42.999Z</time></trkpt><trkpt lat="38.10387907959051" lon="15.434044844551627"><ele>949.0</ele><time>2026-05-04T09:16:43.999Z</time></trkpt><trkpt lat="38.10395446629855" lon="15.434056416438947"><ele>949.0</ele><time>2026-05-04T09:16:44.999Z</time></trkpt><trkpt lat="38.10406788378445" lon="15.434125091215721"><ele>946.3333333333333</ele><time>2026-05-04T09:16:46.999Z</time></trkpt><trkpt lat="38.1041242715752" lon="15.434193484813168"><ele>943.6666666666666</ele><time>2026-05-04T09:16:47.999Z</time></trkpt><trkpt lat="38.10418224654825" lon="15.434263212978227"><ele>941.0</ele><time>2026-05-04T09:16:48.999Z</time></trkpt><trkpt lat="38.10424148906984" lon="15.434347571289653"><ele>938.3333333333333</ele><time>2026-05-04T09:16:49.999Z</time></trkpt><trkpt lat="38.10430300126811" lon="15.434402264843252"><ele>935.6666666666666</ele><time>2026-05-04T09:16:50.999Z</time></trkpt><trkpt lat="38.10437795890047" lon="15.434481667326066"><ele>933.0</ele><time>2026-05-04T09:16:52.999Z</time></trkpt><trkpt lat="38.104362618883066" lon="15.43438055402023"><ele>933.0</ele><time>2026-05-04T09:16:56.999Z</time></trkpt><trkpt lat="38.10430848498868" lon="15.434324084300615"><ele>933.0</ele><time>2026-05-04T09:16:57.999Z</time></trkpt><trkpt lat="38.10425356037375" lon="15.434261967768302"><ele>933.0</ele><time>2026-05-04T09:16:58.999Z</time></trkpt><trkpt lat="38.10417326324537" lon="15.434140843272603"><ele>933.0</ele><time>2026-05-04T09:17:00.999Z</time></trkpt><trkpt lat="38.104134787898275" lon="15.434076542128034"><ele>933.0</ele><time>2026-05-04T09:17:01.999Z</time></trkpt><trkpt lat="38.10411246264386" lon="15.433999239692715"><ele>933.0</ele><time>2026-05-04T09:17:02.999Z</time></trkpt><trkpt lat="38.10405799937065" lon="15.433943606794905"><ele>935.2857142857142</ele><time>2026-05-04T09:17:03.999Z</time></trkpt><trkpt lat="38.10400411585942" lon="15.43387011214699"><ele>937.5714285714284</ele><time>2026-05-04T09:17:04.999Z</time></trkpt><trkpt lat="38.10395264665634" lon="15.433802994779647"><ele>939.8571428571429</ele><time>2026-05-04T09:17:05.999Z</time></trkpt><trkpt lat="38.10389634458809" lon="15.4337400047319"><ele>942.1428571428571</ele><time>2026-05-04T09:17:06.999Z</time></trkpt><trkpt lat="38.103835406955376" lon="15.43369908429617"><ele>944.4285714285714</ele><time>2026-05-04T09:17:07.999Z</time></trkpt><trkpt lat="38.10378313394749" lon="15.433651047585272"><ele>946.7142857142858</ele><time>2026-05-04T09:17:08.999Z</time></trkpt><trkpt lat="38.10372112130337" lon="15.433610983438582"><ele>949.0000000000001</ele><time>2026-05-04T09:17:09.999Z</time></trkpt><trkpt lat="38.10364237109976" lon="15.433552163205096"><ele>943.6666666666666</ele><time>2026-05-04T09:17:11.999Z</time></trkpt><trkpt lat="38.103657315644156" lon="15.433466839425293"><ele>938.3333333333333</ele><time>2026-05-04T09:17:14.999Z</time></trkpt><trkpt lat="38.10374345638849" lon="15.433445994290867"><ele>933.0</ele><time>2026-05-04T09:17:16.999Z</time></trkpt><trkpt lat="38.10386038499623" lon="15.433490650161737"><ele>927.6666666666667</ele><time>2026-05-04T09:17:18.999Z</time></trkpt><trkpt lat="38.103917841464266" lon="15.433531393683117"><ele>922.3333333333334</ele><time>2026-05-04T09:17:19.999Z</time></trkpt><trkpt lat="38.10398939979513" lon="15.433594652926873"><ele>917.0</ele><time>2026-05-04T09:17:21.999Z</time></trkpt><trkpt lat="38.10406339794806" lon="15.433636710987932"><ele>917.0000000000001</ele><time>2026-05-04T09:17:23.999Z</time></trkpt><trkpt lat="38.10411307998287" lon="15.433572776295957"><ele>917.0</ele><time>2026-05-04T09:17:26.999Z</time></trkpt><trkpt lat="38.104060508410726" lon="15.433525852201694"><ele>917.0</ele><time>2026-05-04T09:17:28.999Z</time></trkpt><trkpt lat="38.10398338767048" lon="15.433425298388677"><ele>917.0</ele><time>2026-05-04T09:17:30.998Z</time></trkpt><trkpt lat="38.10396148961521" lon="15.43333687329339"><ele>917.0000000000001</ele><time>2026-05-04T09:17:31.998Z</time></trkpt><trkpt lat="38.103922703369165" lon="15.433220478796176"><ele>917.0</ele><time>2026-05-04T09:17:33.998Z</time></trkpt><trkpt lat="38.10389124757697" lon="15.433112741706573"><ele>917.0</ele><time>2026-05-04T09:17:35.998Z</time></trkpt><trkpt lat="38.10399237676763" lon="15.433106468536275"><ele>917.0</ele><time>2026-05-04T09:17:39.998Z</time></trkpt><trkpt lat="38.10405067380894" lon="15.433194772674161"><ele>917.0</ele><time>2026-05-04T09:17:41.998Z</time></trkpt><trkpt lat="38.1040998898191" lon="15.433266493789455"><ele>917.0</ele><time>2026-05-04T09:17:43.998Z</time></trkpt><trkpt lat="38.10417808194719" lon="15.433333707901888"><ele>917.0</ele><time>2026-05-04T09:17:45.998Z</time></trkpt><trkpt lat="38.104203767345155" lon="15.433225957492898"><ele>914.8</ele><time>2026-05-04T09:17:48.998Z</time></trkpt><trkpt lat="38.104140220346565" lon="15.43316470478917"><ele>912.6</ele><time>2026-05-04T09:17:50.998Z</time></trkpt><trkpt lat="38.1041157261125" lon="15.433090922215735"><ele>910.3999999999999</ele><time>2026-05-04T09:17:52.998Z</time></trkpt><trkpt lat="38.10411115231947" lon="15.43293385905763"><ele>908.1999999999999</ele><time>2026-05-04T09:17:54.998Z</time></trkpt><trkpt lat="38.104056788592" lon="15.432819576064137"><ele>906.0</ele><time>2026-05-04T09:17:56.998Z</time></trkpt><trkpt lat="38.103986999413905" lon="15.432732137415892"><ele>906.0</ele><time>2026-05-04T09:17:58.998Z</time></trkpt><trkpt lat="38.10406538865622" lon="15.432683632207276"><ele>905.9999999999999</ele><time>2026-05-04T09:18:03.998Z</time></trkpt><trkpt lat="38.10410647688839" lon="15.432797951122147"><ele>905.9999999999999</ele><time>2026-05-04T09:18:06.998Z</time></trkpt><trkpt lat="38.10414479428892" lon="15.432920912815025"><ele>906.0</ele><time>2026-05-04T09:18:09.998Z</time></trkpt><trkpt lat="38.104230331909946" lon="15.433003653375456"><ele>906.0</ele><time>2026-05-04T09:18:11Z</time></trkpt><trkpt lat="38.104294918646964" lon="15.433052413238679"><ele>906.0</ele><time>2026-05-04T09:18:12Z</time></trkpt><trkpt lat="38.10437830289325" lon="15.43302049200172"><ele>906.0</ele><time>2026-05-04T09:18:14Z</time></trkpt><trkpt lat="38.10442520428027" lon="15.432922908367813"><ele>906.0</ele><time>2026-05-04T09:18:17Z</time></trkpt><trkpt lat="38.10450501617106" lon="15.432895689939182"><ele>906.0</ele><time>2026-05-04T09:18:19Z</time></trkpt><trkpt lat="38.104567208291904" lon="15.432839524081881"><ele>906.0</ele><time>2026-05-04T09:18:22Z</time></trkpt><trkpt lat="38.10464913081639" lon="15.432800283310284"><ele>906.0</ele><time>2026-05-04T09:18:23Z</time></trkpt><trkpt lat="38.10476370767537" lon="15.432808656768547"><ele>905.1999999999999</ele><time>2026-05-04T09:18:24Z</time></trkpt><trkpt lat="38.10484077035847" lon="15.432792553915462"><ele>904.3999999999999</ele><time>2026-05-04T09:18:25Z</time></trkpt><trkpt lat="38.10490944666758" lon="15.432769746919357"><ele>903.6</ele><time>2026-05-04T09:18:26Z</time></trkpt><trkpt lat="38.10498064852938" lon="15.432674642617377"><ele>902.8</ele><time>2026-05-04T09:18:28Z</time></trkpt><trkpt lat="38.10504899859173" lon="15.432511891536484"><ele>902.0</ele><time>2026-05-04T09:18:30Z</time></trkpt><trkpt lat="38.10504708219612" lon="15.432383653926275"><ele>902.0</ele><time>2026-05-04T09:18:31Z</time></trkpt><trkpt lat="38.10502695927752" lon="15.432267550680075"><ele>902.0</ele><time>2026-05-04T09:18:32Z</time></trkpt><trkpt lat="38.10500141006459" lon="15.432150009674285"><ele>902.0</ele><time>2026-05-04T09:18:33Z</time></trkpt><trkpt lat="38.10499113231295" lon="15.43198896676688"><ele>902.0</ele><time>2026-05-04T09:18:34Z</time></trkpt><trkpt lat="38.10495258180056" lon="15.431878895211131"><ele>902.0</ele><time>2026-05-04T09:18:35Z</time></trkpt><trkpt lat="38.10494699541806" lon="15.431794350741788"><ele>900.8</ele><time>2026-05-04T09:18:36Z</time></trkpt><trkpt lat="38.10500469701742" lon="15.431644377813322"><ele>899.6</ele><time>2026-05-04T09:18:37.999Z</time></trkpt><trkpt lat="38.10504085550232" lon="15.431577648392256"><ele>898.3999999999999</ele><time>2026-05-04T09:18:38.999Z</time></trkpt><trkpt lat="38.10509917943718" lon="15.431458139300878"><ele>897.1999999999999</ele><time>2026-05-04T09:18:40.999Z</time></trkpt><trkpt lat="38.10512499909459" lon="15.431365740969712"><ele>896.0</ele><time>2026-05-04T09:18:41.999Z</time></trkpt><trkpt lat="38.10514736428263" lon="15.431255861342617"><ele>892.1999999999999</ele><time>2026-05-04T09:18:42.999Z</time></trkpt><trkpt lat="38.10516727052335" lon="15.43114060346728"><ele>888.3999999999999</ele><time>2026-05-04T09:18:43.999Z</time></trkpt><trkpt lat="38.105181906245924" lon="15.431017914975675"><ele>884.6</ele><time>2026-05-04T09:18:44.999Z</time></trkpt><trkpt lat="38.10521048930051" lon="15.430904366821931"><ele>880.8</ele><time>2026-05-04T09:18:45.999Z</time></trkpt><trkpt lat="38.10523341314184" lon="15.430805059815274"><ele>877.0</ele><time>2026-05-04T09:18:46.999Z</time></trkpt><trkpt lat="38.105292796108834" lon="15.430720657182137"><ele>877.0</ele><time>2026-05-04T09:18:48.999Z</time></trkpt><trkpt lat="38.105409926004704" lon="15.430641901381506"><ele>877.0</ele><time>2026-05-04T09:19:47.998Z</time></trkpt><trkpt lat="38.105500968151944" lon="15.430665114386654"><ele>877.0</ele><time>2026-05-04T09:19:49.998Z</time></trkpt><trkpt lat="38.105613701015244" lon="15.43067764527848"><ele>877.0</ele><time>2026-05-04T09:19:51.998Z</time></trkpt><trkpt lat="38.10568846834601" lon="15.430573242354432"><ele>878.9999999999999</ele><time>2026-05-04T09:19:53.998Z</time></trkpt><trkpt lat="38.10575436957373" lon="15.430516510992991"><ele>881.0</ele><time>2026-05-04T09:19:54.998Z</time></trkpt><trkpt lat="38.10582399151894" lon="15.43045993590176"><ele>883.0</ele><time>2026-05-04T09:19:55.998Z</time></trkpt><trkpt lat="38.105896347217886" lon="15.430415127491486"><ele>885.0</ele><time>2026-05-04T09:19:56.998Z</time></trkpt><trkpt lat="38.10597116223423" lon="15.430376022894427"><ele>886.9999999999999</ele><time>2026-05-04T09:19:57.998Z</time></trkpt><trkpt lat="38.1060521769755" lon="15.430408880210623"><ele>889.0</ele><time>2026-05-04T09:19:59.998Z</time></trkpt><trkpt lat="38.10616048060263" lon="15.43041238729669"><ele>889.0</ele><time>2026-05-04T09:20:00.998Z</time></trkpt><trkpt lat="38.1062497669694" lon="15.430409905600666"><ele>889.0000000000001</ele><time>2026-05-04T09:20:01.998Z</time></trkpt><trkpt lat="38.106315830217795" lon="15.430359534494729"><ele>889.0000000000001</ele><time>2026-05-04T09:20:02.998Z</time></trkpt><trkpt lat="38.10645470722668" lon="15.430391284308064"><ele>889.0</ele><time>2026-05-04T09:20:03.998Z</time></trkpt><trkpt lat="38.10648376263127" lon="15.430245604013512"><ele>889.0</ele><time>2026-05-04T09:20:04.998Z</time></trkpt><trkpt lat="38.10649137173613" lon="15.430151574904528"><ele>889.0</ele><time>2026-05-04T09:20:05.998Z</time></trkpt><trkpt lat="38.10649825157414" lon="15.43001932856644"><ele>889.0000000000001</ele><time>2026-05-04T09:20:06.998Z</time></trkpt><trkpt lat="38.1065138735098" lon="15.429866839643239"><ele>889.0000000000001</ele><time>2026-05-04T09:20:08.998Z</time></trkpt><trkpt lat="38.10655457431151" lon="15.429748428706228"><ele>889.0</ele><time>2026-05-04T09:20:09.998Z</time></trkpt><trkpt lat="38.10655260443876" lon="15.429638059126496"><ele>889.0</ele><time>2026-05-04T09:20:10.998Z</time></trkpt><trkpt lat="38.10659715848369" lon="15.42951933638462"><ele>891.8000000000001</ele><time>2026-05-04T09:20:11.998Z</time></trkpt><trkpt lat="38.10666184169541" lon="15.429418847692281"><ele>894.6000000000001</ele><time>2026-05-04T09:20:12.998Z</time></trkpt><trkpt lat="38.106714936313374" lon="15.429322061642416"><ele>897.4</ele><time>2026-05-04T09:20:13.998Z</time></trkpt><trkpt lat="38.106755791967736" lon="15.42922371044036"><ele>900.2</ele><time>2026-05-04T09:20:14.998Z</time></trkpt><trkpt lat="38.10678282462309" lon="15.429124256943739"><ele>903.0</ele><time>2026-05-04T09:20:15.998Z</time></trkpt><trkpt lat="38.10680724673857" lon="15.429014249280026"><ele>903.0</ele><time>2026-05-04T09:20:17Z</time></trkpt><trkpt lat="38.106826045331985" lon="15.428902808814016"><ele>903.0</ele><time>2026-05-04T09:20:18Z</time></trkpt><trkpt lat="38.106837074129345" lon="15.428761153750681"><ele>903.0</ele><time>2026-05-04T09:20:19Z</time></trkpt><trkpt lat="38.10683286475512" lon="15.428596214147866"><ele>903.0</ele><time>2026-05-04T09:20:20Z</time></trkpt><trkpt lat="38.10684014808936" lon="15.428425691071675"><ele>904.5999999999999</ele><time>2026-05-04T09:20:21Z</time></trkpt><trkpt lat="38.106853897314366" lon="15.42827418473242"><ele>906.1999999999999</ele><time>2026-05-04T09:20:22Z</time></trkpt><trkpt lat="38.10686407654659" lon="15.428133906211515"><ele>907.8</ele><time>2026-05-04T09:20:23Z</time></trkpt><trkpt lat="38.1068688737257" lon="15.428018140817336"><ele>909.4</ele><time>2026-05-04T09:20:24Z</time></trkpt><trkpt lat="38.1068590344611" lon="15.42790022757207"><ele>911.0</ele><time>2026-05-04T09:20:25Z</time></trkpt><trkpt lat="38.10683036948311" lon="15.427770717734656"><ele>911.0</ele><time>2026-05-04T09:20:26Z</time></trkpt><trkpt lat="38.10681612100617" lon="15.42764073606795"><ele>910.9999999999999</ele><time>2026-05-04T09:20:27Z</time></trkpt><trkpt lat="38.10681702957448" lon="15.427506014262331"><ele>910.9999999999999</ele><time>2026-05-04T09:20:28Z</time></trkpt><trkpt lat="38.10681358682831" lon="15.427399278483655"><ele>911.0</ele><time>2026-05-04T09:20:29Z</time></trkpt><trkpt lat="38.106802738220416" lon="15.427269386816386"><ele>911.0</ele><time>2026-05-04T09:20:30Z</time></trkpt><trkpt lat="38.10676914433901" lon="15.42715110730378"><ele>908.1666666666667</ele><time>2026-05-04T09:20:31Z</time></trkpt><trkpt lat="38.10672936600203" lon="15.427047317192654"><ele>905.3333333333334</ele><time>2026-05-04T09:20:32Z</time></trkpt><trkpt lat="38.1067226757481" lon="15.426954128702492"><ele>902.5</ele><time>2026-05-04T09:20:33Z</time></trkpt><trkpt lat="38.106692216716716" lon="15.426883492481453"><ele>899.6666666666667</ele><time>2026-05-04T09:20:34Z</time></trkpt><trkpt lat="38.10671625052297" lon="15.426734170847281"><ele>896.8333333333334</ele><time>2026-05-04T09:20:36Z</time></trkpt><trkpt lat="38.10671449737346" lon="15.426651490290174"><ele>894.0</ele><time>2026-05-04T09:20:37Z</time></trkpt><trkpt lat="38.106717378042944" lon="15.426557069807526"><ele>894.0</ele><time>2026-05-04T09:20:38Z</time></trkpt><trkpt lat="38.10669954757878" lon="15.426458944935309"><ele>894.0</ele><time>2026-05-04T09:20:39Z</time></trkpt><trkpt lat="38.10670081637292" lon="15.426357605896339"><ele>894.0</ele><time>2026-05-04T09:20:40Z</time></trkpt><trkpt lat="38.106635392150785" lon="15.42628060659639"><ele>894.0</ele><time>2026-05-04T09:20:42Z</time></trkpt><trkpt lat="38.10656196325879" lon="15.426273733209781"><ele>894.0</ele><time>2026-05-04T09:20:43.999Z</time></trkpt><trkpt lat="38.10646880462923" lon="15.42626946788619"><ele>894.0</ele><time>2026-05-04T09:20:45.999Z</time></trkpt><trkpt lat="38.10636584322039" lon="15.42622051509238"><ele>895.6666666666666</ele><time>2026-05-04T09:20:47.999Z</time></trkpt><trkpt lat="38.10630681005321" lon="15.426170803666619"><ele>897.3333333333333</ele><time>2026-05-04T09:20:48.999Z</time></trkpt><trkpt lat="38.10625055108456" lon="15.426101797083888"><ele>899.0</ele><time>2026-05-04T09:20:49.999Z</time></trkpt><trkpt lat="38.106201540430675" lon="15.426020954035854"><ele>900.6666666666666</ele><time>2026-05-04T09:20:50.999Z</time></trkpt><trkpt lat="38.106153149741374" lon="15.425954705357148"><ele>902.3333333333333</ele><time>2026-05-04T09:20:51.999Z</time></trkpt><trkpt lat="38.106111335285945" lon="15.425884205702655"><ele>904.0</ele><time>2026-05-04T09:20:52.999Z</time></trkpt><trkpt lat="38.106055457618" lon="15.425785406717722"><ele>903.9999999999999</ele><time>2026-05-04T09:20:54.999Z</time></trkpt><trkpt lat="38.10612645039408" lon="15.425714831748788"><ele>904.0</ele><time>2026-05-04T09:20:57.999Z</time></trkpt><trkpt lat="38.10612476317015" lon="15.42582139650324"><ele>904.0</ele><time>2026-05-04T09:20:58.999Z</time></trkpt><trkpt lat="38.106195239956975" lon="15.42588697429867"><ele>904.0</ele><time>2026-05-04T09:21:01.999Z</time></trkpt><trkpt lat="38.106278641714326" lon="15.425939359984838"><ele>903.9999999999999</ele><time>2026-05-04T09:21:04.999Z</time></trkpt><trkpt lat="38.1063291124344" lon="15.425987568781874"><ele>904.0</ele><time>2026-05-04T09:21:05.999Z</time></trkpt><trkpt lat="38.106406697987325" lon="15.426031486997312"><ele>903.9999999999999</ele><time>2026-05-04T09:21:07.999Z</time></trkpt><trkpt lat="38.10644275517164" lon="15.42589311892315"><ele>904.0</ele><time>2026-05-04T09:21:11.999Z</time></trkpt><trkpt lat="38.106376472250965" lon="15.425790433882057"><ele>904.0</ele><time>2026-05-04T09:21:13.999Z</time></trkpt><trkpt lat="38.10634607455469" lon="15.425718321425533"><ele>904.0</ele><time>2026-05-04T09:21:14.999Z</time></trkpt><trkpt lat="38.10632198308966" lon="15.42563139981339"><ele>903.9999999999999</ele><time>2026-05-04T09:21:15.999Z</time></trkpt><trkpt lat="38.106300694628594" lon="15.425538798831358"><ele>904.0</ele><time>2026-05-04T09:21:16.999Z</time></trkpt><trkpt lat="38.10626599458892" lon="15.425464811577104"><ele>898.4999999999999</ele><time>2026-05-04T09:21:17.999Z</time></trkpt><trkpt lat="38.106226622430036" lon="15.42539057772473"><ele>893.0</ele><time>2026-05-04T09:21:18.999Z</time></trkpt><trkpt lat="38.106191974981826" lon="15.42530879672518"><ele>887.5</ele><time>2026-05-04T09:21:19.999Z</time></trkpt><trkpt lat="38.10616906411526" lon="15.42522510998253"><ele>882.0</ele><time>2026-05-04T09:21:20.999Z</time></trkpt><trkpt lat="38.10614186736286" lon="15.425135464099046"><ele>876.4999999999999</ele><time>2026-05-04T09:21:21.999Z</time></trkpt><trkpt lat="38.106100365601655" lon="15.425067442781737"><ele>871.0</ele><time>2026-05-04T09:21:22.999Z</time></trkpt><trkpt lat="38.10600559690946" lon="15.424990936723768"><ele>870.9999999999999</ele><time>2026-05-04T09:21:24.999Z</time></trkpt><trkpt lat="38.105944962357604" lon="15.424947887518876"><ele>871.0</ele><time>2026-05-04T09:21:25.999Z</time></trkpt><trkpt lat="38.105898150788285" lon="15.424884734918809"><ele>871.0</ele><time>2026-05-04T09:21:26.999Z</time></trkpt><trkpt lat="38.10585025239686" lon="15.424829027494809"><ele>871.0</ele><time>2026-05-04T09:21:27.999Z</time></trkpt><trkpt lat="38.10578963380498" lon="15.424786838875898"><ele>870.9999999999999</ele><time>2026-05-04T09:21:28.999Z</time></trkpt><trkpt lat="38.105648014555975" lon="15.424738073510767"><ele>871.0</ele><time>2026-05-04T09:21:30.999Z</time></trkpt><trkpt lat="38.105573883127974" lon="15.42470802630849"><ele>873.4999999999999</ele><time>2026-05-04T09:21:31.999Z</time></trkpt><trkpt lat="38.105508717128984" lon="15.42467355168383"><ele>876.0</ele><time>2026-05-04T09:21:32.999Z</time></trkpt><trkpt lat="38.10544840831565" lon="15.424635400947901"><ele>878.5</ele><time>2026-05-04T09:21:33.999Z</time></trkpt><trkpt lat="38.1053547608351" lon="15.424585440396507"><ele>881.0</ele><time>2026-05-04T09:21:35.999Z</time></trkpt><trkpt lat="38.1052492814951" lon="15.424576757142344"><ele>883.4999999999999</ele><time>2026-05-04T09:21:37.998Z</time></trkpt><trkpt lat="38.105179141592366" lon="15.42460205755196"><ele>886.0</ele><time>2026-05-04T09:21:38.998Z</time></trkpt><trkpt lat="38.10511241935882" lon="15.424598208462388"><ele>877.4</ele><time>2026-05-04T09:21:41.998Z</time></trkpt><trkpt lat="38.10517117010143" lon="15.42447521007517"><ele>868.8</ele><time>2026-05-04T09:21:43.998Z</time></trkpt><trkpt lat="38.105262091335085" lon="15.424387548711772"><ele>860.1999999999999</ele><time>2026-05-04T09:21:45.998Z</time></trkpt><trkpt lat="38.10538357821215" lon="15.42437757244774"><ele>851.5999999999999</ele><time>2026-05-04T09:21:47.998Z</time></trkpt><trkpt lat="38.10545120255261" lon="15.424346281218803"><ele>843.0</ele><time>2026-05-04T09:21:48.998Z</time></trkpt><trkpt lat="38.10551620763584" lon="15.424339235441783"><ele>843.0</ele><time>2026-05-04T09:21:49.998Z</time></trkpt><trkpt lat="38.10563588036812" lon="15.424302846230479"><ele>843.0</ele><time>2026-05-04T09:21:51.998Z</time></trkpt><trkpt lat="38.105714203160744" lon="15.424240289983535"><ele>843.0</ele><time>2026-05-04T09:21:53.998Z</time></trkpt><trkpt lat="38.10580305551042" lon="15.42421288833876"><ele>843.0</ele><time>2026-05-04T09:21:55.998Z</time></trkpt><trkpt lat="38.10591589976795" lon="15.424209993259977"><ele>843.0</ele><time>2026-05-04T09:21:57.998Z</time></trkpt><trkpt lat="38.10602993550132" lon="15.424203362940233"><ele>842.1666666666666</ele><time>2026-05-04T09:21:59.998Z</time></trkpt><trkpt lat="38.10609646656671" lon="15.424212898939237"><ele>841.3333333333333</ele><time>2026-05-04T09:22:00.998Z</time></trkpt><trkpt lat="38.10616770421211" lon="15.424220697179242"><ele>840.5</ele><time>2026-05-04T09:22:01.998Z</time></trkpt><trkpt lat="38.10624221692057" lon="15.424230380153531"><ele>839.6666666666666</ele><time>2026-05-04T09:22:02.998Z</time></trkpt><trkpt lat="38.10636978756295" lon="15.424248706953273"><ele>838.8333333333333</ele><time>2026-05-04T09:22:04.998Z</time></trkpt><trkpt lat="38.10644949528497" lon="15.424270799637888"><ele>838.0</ele><time>2026-05-04T09:22:05.998Z</time></trkpt><trkpt lat="38.106515796093305" lon="15.424282380452187"><ele>835.8333333333333</ele><time>2026-05-04T09:22:06.998Z</time></trkpt><trkpt lat="38.10659202478443" lon="15.424287755840986"><ele>833.6666666666666</ele><time>2026-05-04T09:22:07.998Z</time></trkpt><trkpt lat="38.106668011540336" lon="15.42429606808977"><ele>831.5</ele><time>2026-05-04T09:22:08.998Z</time></trkpt><trkpt lat="38.10674873609107" lon="15.424280259178348"><ele>829.3333333333333</ele><time>2026-05-04T09:22:09.998Z</time></trkpt><trkpt lat="38.10683771469309" lon="15.424263260736911"><ele>827.1666666666666</ele><time>2026-05-04T09:22:10.998Z</time></trkpt><trkpt lat="38.10692053908756" lon="15.424272352154317"><ele>825.0</ele><time>2026-05-04T09:22:11.998Z</time></trkpt><trkpt lat="38.107001204367855" lon="15.424283017155316"><ele>825.0</ele><time>2026-05-04T09:22:12.998Z</time></trkpt><trkpt lat="38.10707870375356" lon="15.424300106611204"><ele>825.0</ele><time>2026-05-04T09:22:13.998Z</time></trkpt><trkpt lat="38.10714554602846" lon="15.424304862260854"><ele>825.0</ele><time>2026-05-04T09:22:14.998Z</time></trkpt><trkpt lat="38.10720968538637" lon="15.42432801217353"><ele>825.0</ele><time>2026-05-04T09:22:15.998Z</time></trkpt><trkpt lat="38.10727783606237" lon="15.424411408619784"><ele>825.0</ele><time>2026-05-04T09:22:17.998Z</time></trkpt><trkpt lat="38.10720508451819" lon="15.424473688337528"><ele>825.0</ele><time>2026-05-04T09:22:19.998Z</time></trkpt><trkpt lat="38.107128151762765" lon="15.424600666329011"><ele>828.8333333333334</ele><time>2026-05-04T09:22:21.998Z</time></trkpt><trkpt lat="38.10711039549996" lon="15.424758387283104"><ele>832.6666666666667</ele><time>2026-05-04T09:22:24Z</time></trkpt><trkpt lat="38.1071760840622" lon="15.424822447905903"><ele>836.5</ele><time>2026-05-04T09:22:25Z</time></trkpt><trkpt lat="38.10722285463876" lon="15.424885305375206"><ele>840.3333333333334</ele><time>2026-05-04T09:22:26Z</time></trkpt><trkpt lat="38.10727696098209" lon="15.424940999156638"><ele>844.1666666666667</ele><time>2026-05-04T09:22:27Z</time></trkpt><trkpt lat="38.10733723201142" lon="15.424991881203933"><ele>848.0</ele><time>2026-05-04T09:22:28Z</time></trkpt><trkpt lat="38.107403375586294" lon="15.425030278311265"><ele>842.5000000000001</ele><time>2026-05-04T09:22:29Z</time></trkpt><trkpt lat="38.107519258035616" lon="15.425074419779744"><ele>837.0</ele><time>2026-05-04T09:22:31Z</time></trkpt><trkpt lat="38.10758387477882" lon="15.425108347249216"><ele>831.5</ele><time>2026-05-04T09:22:32Z</time></trkpt><trkpt lat="38.107649314620446" lon="15.425127154024576"><ele>826.0</ele><time>2026-05-04T09:22:33Z</time></trkpt><trkpt lat="38.10774827704185" lon="15.425054150655944"><ele>820.5000000000001</ele><time>2026-05-04T09:22:35Z</time></trkpt><trkpt lat="38.107803919645384" lon="15.424992294325284"><ele>815.0</ele><time>2026-05-04T09:22:36Z</time></trkpt><trkpt lat="38.10785499519474" lon="15.42492744932349"><ele>815.0000000000001</ele><time>2026-05-04T09:22:37Z</time></trkpt><trkpt lat="38.107958762535816" lon="15.424890853122879"><ele>815.0</ele><time>2026-05-04T09:22:39Z</time></trkpt><trkpt lat="38.10799401202135" lon="15.424960615430095"><ele>815.0</ele><time>2026-05-04T09:22:40Z</time></trkpt><trkpt lat="38.107960489801116" lon="15.425068753236756"><ele>815.0</ele><time>2026-05-04T09:22:42Z</time></trkpt><trkpt lat="38.10790701689196" lon="15.425180356272149"><ele>815.0000000000001</ele><time>2026-05-04T09:22:44Z</time></trkpt><trkpt lat="38.1078782763162" lon="15.425259229563489"><ele>815.0</ele><time>2026-05-04T09:22:44.999Z</time></trkpt><trkpt lat="38.107855790806504" lon="15.425341175994017"><ele>815.0000000000001</ele><time>2026-05-04T09:22:45.999Z</time></trkpt><trkpt lat="38.10785395046151" lon="15.425428166616282"><ele>815.0</ele><time>2026-05-04T09:22:46.999Z</time></trkpt><trkpt lat="38.10787803737719" lon="15.42552056963047"><ele>815.0</ele><time>2026-05-04T09:22:47.999Z</time></trkpt><trkpt lat="38.10789795627082" lon="15.425608010188897"><ele>815.0</ele><time>2026-05-04T09:22:48.999Z</time></trkpt><trkpt lat="38.10792570142518" lon="15.425695649826686"><ele>815.0000000000001</ele><time>2026-05-04T09:22:49.999Z</time></trkpt><trkpt lat="38.107918635193464" lon="15.425825524061995"><ele>815.0</ele><time>2026-05-04T09:22:51.999Z</time></trkpt><trkpt lat="38.1079186351839" lon="15.425990463487874"><ele>818.2</ele><time>2026-05-04T09:22:53.999Z</time></trkpt><trkpt lat="38.107950728419794" lon="15.426073439866308"><ele>821.4</ele><time>2026-05-04T09:22:54.999Z</time></trkpt><trkpt lat="38.108081328889796" lon="15.426144826273847"><ele>824.5999999999999</ele><time>2026-05-04T09:22:56.999Z</time></trkpt><trkpt lat="38.10819882356031" lon="15.426189833500386"><ele>827.8</ele><time>2026-05-04T09:22:58.999Z</time></trkpt><trkpt lat="38.10824000424089" lon="15.426282073374384"><ele>831.0</ele><time>2026-05-04T09:22:59.999Z</time></trkpt><trkpt lat="38.10833140322433" lon="15.426381822471129"><ele>825.6666666666666</ele><time>2026-05-04T09:23:01.999Z</time></trkpt><trkpt lat="38.10838221729246" lon="15.426435538052205"><ele>820.3333333333333</ele><time>2026-05-04T09:23:02.999Z</time></trkpt><trkpt lat="38.108495589809095" lon="15.426512505672875"><ele>815.0</ele><time>2026-05-04T09:23:04.999Z</time></trkpt><trkpt lat="38.10856972799368" lon="15.426539893677612"><ele>809.6666666666666</ele><time>2026-05-04T09:23:05.999Z</time></trkpt><trkpt lat="38.108629403480705" lon="15.426598738235821"><ele>804.3333333333333</ele><time>2026-05-04T09:23:06.999Z</time></trkpt><trkpt lat="38.10868866016827" lon="15.426691841525685"><ele>799.0</ele><time>2026-05-04T09:23:08.999Z</time></trkpt><trkpt lat="38.10864994084471" lon="15.426843173752344"><ele>799.0</ele><time>2026-05-04T09:23:10.999Z</time></trkpt><trkpt lat="38.10866081055049" lon="15.427002539047322"><ele>799.0</ele><time>2026-05-04T09:23:12.999Z</time></trkpt><trkpt lat="38.108682093239054" lon="15.427094073031926"><ele>799.0</ele><time>2026-05-04T09:23:13.999Z</time></trkpt><trkpt lat="38.108707780512205" lon="15.42718635052702"><ele>799.0</ele><time>2026-05-04T09:23:14.999Z</time></trkpt><trkpt lat="38.10872317903739" lon="15.427270625170376"><ele>799.0</ele><time>2026-05-04T09:23:15.999Z</time></trkpt><trkpt lat="38.10874739049232" lon="15.427411567954362"><ele>798.9999999999999</ele><time>2026-05-04T09:23:17.999Z</time></trkpt><trkpt lat="38.10879207478363" lon="15.42750102100875"><ele>799.0</ele><time>2026-05-04T09:23:19.999Z</time></trkpt><trkpt lat="38.108879577325254" lon="15.427459990171359"><ele>799.0</ele><time>2026-05-04T09:23:20.999Z</time></trkpt><trkpt lat="38.108900447713495" lon="15.427373611423628"><ele>799.0</ele><time>2026-05-04T09:23:21.999Z</time></trkpt><trkpt lat="38.1089010852649" lon="15.427292028387226"><ele>798.9999999999999</ele><time>2026-05-04T09:23:22.999Z</time></trkpt><trkpt lat="38.10888306150845" lon="15.42719927926169"><ele>799.0</ele><time>2026-05-04T09:23:23.999Z</time></trkpt><trkpt lat="38.10888730547483" lon="15.42710912521676"><ele>798.9999999999999</ele><time>2026-05-04T09:23:24.999Z</time></trkpt><trkpt lat="38.10887777108049" lon="15.427017508682244"><ele>799.0</ele><time>2026-05-04T09:23:25.999Z</time></trkpt><trkpt lat="38.108885680610946" lon="15.42692885483011"><ele>799.0</ele><time>2026-05-04T09:23:26.999Z</time></trkpt><trkpt lat="38.108897746860556" lon="15.426836478892962"><ele>799.0</ele><time>2026-05-04T09:23:27.999Z</time></trkpt><trkpt lat="38.10891589189097" lon="15.426758678269875"><ele>798.9999999999999</ele><time>2026-05-04T09:23:28.999Z</time></trkpt><trkpt lat="38.10899441108995" lon="15.426640741760833"><ele>799.0</ele><time>2026-05-04T09:23:30.999Z</time></trkpt><trkpt lat="38.10904440818176" lon="15.426581059732626"><ele>796.6666666666666</ele><time>2026-05-04T09:23:31.999Z</time></trkpt><trkpt lat="38.10909317244292" lon="15.426520216690262"><ele>794.3333333333333</ele><time>2026-05-04T09:23:32.999Z</time></trkpt><trkpt lat="38.10916972202178" lon="15.426415884369403"><ele>792.0</ele><time>2026-05-04T09:23:34.999Z</time></trkpt><trkpt lat="38.109158879121395" lon="15.426279822047789"><ele>789.6666666666667</ele><time>2026-05-04T09:23:36.999Z</time></trkpt><trkpt lat="38.10911799368613" lon="15.426215713605494"><ele>787.3333333333334</ele><time>2026-05-04T09:23:37.999Z</time></trkpt><trkpt lat="38.10906990926653" lon="15.426163151119148"><ele>785.0</ele><time>2026-05-04T09:23:38.999Z</time></trkpt><trkpt lat="38.109016791559306" lon="15.42611775812002"><ele>785.0000000000001</ele><time>2026-05-04T09:23:39.999Z</time></trkpt><trkpt lat="38.108960592910265" lon="15.426065340742941"><ele>785.0</ele><time>2026-05-04T09:23:40.998Z</time></trkpt><trkpt lat="38.108907726055136" lon="15.425996907329145"><ele>785.0</ele><time>2026-05-04T09:23:41.998Z</time></trkpt><trkpt lat="38.108850131299945" lon="15.425941690338691"><ele>785.0</ele><time>2026-05-04T09:23:42.998Z</time></trkpt><trkpt lat="38.108796448952056" lon="15.425878540033974"><ele>785.0000000000001</ele><time>2026-05-04T09:23:43.998Z</time></trkpt><trkpt lat="38.108736021966116" lon="15.425845208559876"><ele>785.0</ele><time>2026-05-04T09:23:44.998Z</time></trkpt><trkpt lat="38.108628602049606" lon="15.425801276003428"><ele>785.0000000000001</ele><time>2026-05-04T09:23:46.998Z</time></trkpt><trkpt lat="38.10867305558149" lon="15.425712675391834"><ele>785.0</ele><time>2026-05-04T09:23:48.998Z</time></trkpt><trkpt lat="38.10875777161584" lon="15.42578014145708"><ele>785.0</ele><time>2026-05-04T09:23:50.998Z</time></trkpt><trkpt lat="38.108823984488986" lon="15.425813623347421"><ele>785.0</ele><time>2026-05-04T09:23:51.998Z</time></trkpt><trkpt lat="38.10891074545556" lon="15.42584410797405"><ele>785.0000000000001</ele><time>2026-05-04T09:23:52.998Z</time></trkpt><trkpt lat="38.10898064556577" lon="15.425865480810518"><ele>785.0</ele><time>2026-05-04T09:23:53.998Z</time></trkpt><trkpt lat="38.10905296212317" lon="15.42587882808823"><ele>778.8333333333334</ele><time>2026-05-04T09:23:54.998Z</time></trkpt><trkpt lat="38.10917388541498" lon="15.425875066068135"><ele>772.6666666666667</ele><time>2026-05-04T09:23:56.998Z</time></trkpt><trkpt lat="38.10924270373303" lon="15.425806276622914"><ele>766.5</ele><time>2026-05-04T09:23:58.998Z</time></trkpt><trkpt lat="38.10931268373865" lon="15.425720456394636"><ele>760.3333333333334</ele><time>2026-05-04T09:24:00.998Z</time></trkpt><trkpt lat="38.10938276523618" lon="15.425709644090151"><ele>754.1666666666667</ele><time>2026-05-04T09:24:01.998Z</time></trkpt><trkpt lat="38.10945089360943" lon="15.425697557694045"><ele>748.0</ele><time>2026-05-04T09:24:02.998Z</time></trkpt><trkpt lat="38.109513980362" lon="15.425658859246434"><ele>748.0</ele><time>2026-05-04T09:24:03.998Z</time></trkpt><trkpt lat="38.10956670323233" lon="15.425602741971893"><ele>748.0</ele><time>2026-05-04T09:24:04.998Z</time></trkpt><trkpt lat="38.109625267333676" lon="15.425552197315355"><ele>748.0</ele><time>2026-05-04T09:24:05.998Z</time></trkpt><trkpt lat="38.10969680809966" lon="15.425502350506697"><ele>748.0</ele><time>2026-05-04T09:24:06.998Z</time></trkpt><trkpt lat="38.10975390485021" lon="15.425463615666445"><ele>748.0</ele><time>2026-05-04T09:24:07.998Z</time></trkpt><trkpt lat="38.109803155626956" lon="15.425413206036291"><ele>748.0</ele><time>2026-05-04T09:24:08.998Z</time></trkpt><trkpt lat="38.1098615167274" lon="15.425368182480227"><ele>748.0</ele><time>2026-05-04T09:24:09.998Z</time></trkpt><trkpt lat="38.10992039985349" lon="15.425326619206805"><ele>744.0</ele><time>2026-05-04T09:24:10.998Z</time></trkpt><trkpt lat="38.10998121806323" lon="15.425297278272726"><ele>740.0</ele><time>2026-05-04T09:24:11.998Z</time></trkpt><trkpt lat="38.11004411568795" lon="15.425253802097272"><ele>736.0</ele><time>2026-05-04T09:24:12.998Z</time></trkpt><trkpt lat="38.110103512469166" lon="15.425206587739309"><ele>732.0</ele><time>2026-05-04T09:24:13.998Z</time></trkpt><trkpt lat="38.11014169895642" lon="15.42513386240505"><ele>728.0</ele><time>2026-05-04T09:24:14.998Z</time></trkpt><trkpt lat="38.11015740395367" lon="15.425052640187056"><ele>724.0</ele><time>2026-05-04T09:24:15.998Z</time></trkpt><trkpt lat="38.11017514373395" lon="15.424970079610375"><ele>720.0</ele><time>2026-05-04T09:24:16.998Z</time></trkpt><trkpt lat="38.11019668903619" lon="15.424892685917225"><ele>720.0</ele><time>2026-05-04T09:24:17.998Z</time></trkpt><trkpt lat="38.110233115454555" lon="15.424781345165275"><ele>720.0</ele><time>2026-05-04T09:24:19.998Z</time></trkpt><trkpt lat="38.110258013270176" lon="15.424704096182065"><ele>720.0</ele><time>2026-05-04T09:24:20.998Z</time></trkpt><trkpt lat="38.11031041585431" lon="15.42457334723514"><ele>720.0</ele><time>2026-05-04T09:24:22.998Z</time></trkpt><trkpt lat="38.11034756574439" lon="15.424453179342134"><ele>720.0</ele><time>2026-05-04T09:24:24.998Z</time></trkpt><trkpt lat="38.11036630674636" lon="15.424351606712564"><ele>715.5</ele><time>2026-05-04T09:24:25.998Z</time></trkpt><trkpt lat="38.1103886827584" lon="15.424257672793042"><ele>711.0</ele><time>2026-05-04T09:24:26.998Z</time></trkpt><trkpt lat="38.1103775747951" lon="15.424167198149302"><ele>706.5</ele><time>2026-05-04T09:24:27.998Z</time></trkpt><trkpt lat="38.11040987942475" lon="15.424088964409764"><ele>702.0</ele><time>2026-05-04T09:24:29Z</time></trkpt><trkpt lat="38.11047726646973" lon="15.423947360189256"><ele>697.5</ele><time>2026-05-04T09:24:31Z</time></trkpt><trkpt lat="38.11049201395172" lon="15.423862836105563"><ele>693.0</ele><time>2026-05-04T09:24:32Z</time></trkpt><trkpt lat="38.110522143066724" lon="15.423775790958418"><ele>695.0</ele><time>2026-05-04T09:24:33Z</time></trkpt><trkpt lat="38.110557375845374" lon="15.42370293559942"><ele>697.0</ele><time>2026-05-04T09:24:34Z</time></trkpt><trkpt lat="38.110641092426505" lon="15.423614361932541"><ele>699.0</ele><time>2026-05-04T09:24:36Z</time></trkpt><trkpt lat="38.11072181471051" lon="15.423536387482748"><ele>701.0</ele><time>2026-05-04T09:24:38Z</time></trkpt><trkpt lat="38.11076777744888" lon="15.423417416645108"><ele>703.0</ele><time>2026-05-04T09:24:40Z</time></trkpt><trkpt lat="38.11079975695421" lon="15.423324461940783"><ele>703.0</ele><time>2026-05-04T09:24:41Z</time></trkpt><trkpt lat="38.11081776733224" lon="15.423228747077234"><ele>703.0</ele><time>2026-05-04T09:24:42Z</time></trkpt><trkpt lat="38.110839412413334" lon="15.423143174578636"><ele>703.0</ele><time>2026-05-04T09:24:43Z</time></trkpt><trkpt lat="38.110855534432254" lon="15.423045586301392"><ele>703.0</ele><time>2026-05-04T09:24:44Z</time></trkpt><trkpt lat="38.11086855218573" lon="15.42296179558374"><ele>703.0</ele><time>2026-05-04T09:24:45Z</time></trkpt><trkpt lat="38.11085409663902" lon="15.422869871395365"><ele>703.0</ele><time>2026-05-04T09:24:46Z</time></trkpt><trkpt lat="38.11085245886471" lon="15.422782699877093"><ele>703.0</ele><time>2026-05-04T09:24:46.999Z</time></trkpt><trkpt lat="38.110859611357384" lon="15.422689075374596"><ele>697.3333333333334</ele><time>2026-05-04T09:24:47.999Z</time></trkpt><trkpt lat="38.11082683121057" lon="15.42261464057115"><ele>691.6666666666667</ele><time>2026-05-04T09:24:48.999Z</time></trkpt><trkpt lat="38.11085035050279" lon="15.422481272212694"><ele>686.0</ele><time>2026-05-04T09:24:50.999Z</time></trkpt><trkpt lat="38.11090220999492" lon="15.422434953723526"><ele>680.3333333333334</ele><time>2026-05-04T09:24:52.999Z</time></trkpt><trkpt lat="38.1109746509824" lon="15.422483896537983"><ele>674.6666666666666</ele><time>2026-05-04T09:24:54.999Z</time></trkpt><trkpt lat="38.11106725456539" lon="15.422531495740682"><ele>669.0</ele><time>2026-05-04T09:24:56.999Z</time></trkpt><trkpt lat="38.111141936342754" lon="15.422525586286921"><ele>669.0</ele><time>2026-05-04T09:24:57.999Z</time></trkpt><trkpt lat="38.111253690086635" lon="15.422502645747763"><ele>669.0</ele><time>2026-05-04T09:24:59.999Z</time></trkpt><trkpt lat="38.11132248382548" lon="15.422495592193679"><ele>669.0</ele><time>2026-05-04T09:25:00.999Z</time></trkpt><trkpt lat="38.11139071916595" lon="15.422480677966586"><ele>669.0</ele><time>2026-05-04T09:25:01.999Z</time></trkpt><trkpt lat="38.11145960330908" lon="15.422452198987923"><ele>669.0</ele><time>2026-05-04T09:25:02.999Z</time></trkpt><trkpt lat="38.11151970812317" lon="15.422421645700796"><ele>669.0</ele><time>2026-05-04T09:25:03.999Z</time></trkpt><trkpt lat="38.111595115879005" lon="15.422464167166508"><ele>671.0</ele><time>2026-05-04T09:25:05.999Z</time></trkpt><trkpt lat="38.11168522432333" lon="15.422474375142452"><ele>673.0</ele><time>2026-05-04T09:25:07.999Z</time></trkpt><trkpt lat="38.11178281325947" lon="15.422490941583666"><ele>675.0</ele><time>2026-05-04T09:25:09.999Z</time></trkpt><trkpt lat="38.11180144865367" lon="15.422369925909292"><ele>677.0</ele><time>2026-05-04T09:25:11.999Z</time></trkpt><trkpt lat="38.111841391596286" lon="15.422229897768105"><ele>679.0</ele><time>2026-05-04T09:25:13.999Z</time></trkpt><trkpt lat="38.11187982799679" lon="15.422141390098282"><ele>671.8000000000001</ele><time>2026-05-04T09:25:14.999Z</time></trkpt><trkpt lat="38.111937824741204" lon="15.422035846399858"><ele>664.6</ele><time>2026-05-04T09:25:16.999Z</time></trkpt><trkpt lat="38.111972062150095" lon="15.42192299234293"><ele>657.4</ele><time>2026-05-04T09:25:18.999Z</time></trkpt><trkpt lat="38.11199686042208" lon="15.421788382990128"><ele>650.2</ele><time>2026-05-04T09:25:20.999Z</time></trkpt><trkpt lat="38.11207988149723" lon="15.421713920244958"><ele>643.0</ele><time>2026-05-04T09:25:22.999Z</time></trkpt><trkpt lat="38.11212900002833" lon="15.421658544874283"><ele>643.0</ele><time>2026-05-04T09:25:23.999Z</time></trkpt><trkpt lat="38.11217729768282" lon="15.421577350311859"><ele>643.0</ele><time>2026-05-04T09:25:24.999Z</time></trkpt><trkpt lat="38.112242528495386" lon="15.421506453917193"><ele>643.0</ele><time>2026-05-04T09:25:25.999Z</time></trkpt><trkpt lat="38.11231648923493" lon="15.421428867829267"><ele>643.0</ele><time>2026-05-04T09:25:26.999Z</time></trkpt><trkpt lat="38.11239863282806" lon="15.421339145144906"><ele>643.0</ele><time>2026-05-04T09:25:27.999Z</time></trkpt><trkpt lat="38.11249426940651" lon="15.421258363711864"><ele>641.4</ele><time>2026-05-04T09:25:28.999Z</time></trkpt><trkpt lat="38.11256974353314" lon="15.421199617257935"><ele>639.8</ele><time>2026-05-04T09:25:29.999Z</time></trkpt><trkpt lat="38.11263406669235" lon="15.421168867417553"><ele>638.2</ele><time>2026-05-04T09:25:30.999Z</time></trkpt><trkpt lat="38.11266918939756" lon="15.42123675358646"><ele>636.6</ele><time>2026-05-04T09:25:33.999Z</time></trkpt><trkpt lat="38.11262299782995" lon="15.42134485054458"><ele>635.0</ele><time>2026-05-04T09:25:36.999Z</time></trkpt><trkpt lat="38.112484204779584" lon="15.421398387226615"><ele>636.3333333333333</ele><time>2026-05-04T09:25:38.999Z</time></trkpt><trkpt lat="38.11239191622618" lon="15.421454164139684"><ele>637.6666666666666</ele><time>2026-05-04T09:25:39.998Z</time></trkpt><trkpt lat="38.11231922865557" lon="15.421523653149794"><ele>639.0</ele><time>2026-05-04T09:25:40.998Z</time></trkpt><trkpt lat="38.11226652694038" lon="15.421612797455055"><ele>640.3333333333334</ele><time>2026-05-04T09:25:41.998Z</time></trkpt><trkpt lat="38.11222310051815" lon="15.421693977035668"><ele>641.6666666666667</ele><time>2026-05-04T09:25:42.998Z</time></trkpt><trkpt lat="38.11219251069864" lon="15.421778446402756"><ele>643.0</ele><time>2026-05-04T09:25:43.998Z</time></trkpt><trkpt lat="38.11219378277952" lon="15.42193967075015"><ele>643.0</ele><time>2026-05-04T09:25:45.998Z</time></trkpt><trkpt lat="38.1122046524496" lon="15.422030321056557"><ele>643.0</ele><time>2026-05-04T09:25:46.998Z</time></trkpt><trkpt lat="38.112186574114375" lon="15.422113822204262"><ele>643.0</ele><time>2026-05-04T09:25:47.998Z</time></trkpt><trkpt lat="38.11217767479687" lon="15.422210521511966"><ele>643.0</ele><time>2026-05-04T09:25:48.998Z</time></trkpt><trkpt lat="38.1121911460645" lon="15.422295657099301"><ele>643.0</ele><time>2026-05-04T09:25:49.998Z</time></trkpt><trkpt lat="38.11221709816519" lon="15.422379725675976"><ele>643.0</ele><time>2026-05-04T09:25:50.998Z</time></trkpt><trkpt lat="38.112244004631044" lon="15.422481188133192"><ele>643.0</ele><time>2026-05-04T09:25:51.998Z</time></trkpt><trkpt lat="38.112285653496684" lon="15.422579968523547"><ele>643.0</ele><time>2026-05-04T09:25:52.998Z</time></trkpt><trkpt lat="38.11234348446769" lon="15.422685755462185"><ele>643.0</ele><time>2026-05-04T09:25:53.998Z</time></trkpt><trkpt lat="38.112398532297796" lon="15.422771448905058"><ele>643.0</ele><time>2026-05-04T09:25:54.998Z</time></trkpt><trkpt lat="38.11246201079199" lon="15.422867431257202"><ele>643.0</ele><time>2026-05-04T09:25:55.998Z</time></trkpt><trkpt lat="38.11252244777427" lon="15.422953464240562"><ele>643.0</ele><time>2026-05-04T09:25:56.998Z</time></trkpt><trkpt lat="38.11257533766948" lon="15.423038652526076"><ele>643.0</ele><time>2026-05-04T09:25:57.998Z</time></trkpt><trkpt lat="38.11261330117153" lon="15.423132972411482"><ele>643.0</ele><time>2026-05-04T09:25:58.998Z</time></trkpt><trkpt lat="38.112647014234895" lon="15.423236907542032"><ele>643.0</ele><time>2026-05-04T09:25:59.998Z</time></trkpt><trkpt lat="38.11266522480231" lon="15.423343159459618"><ele>643.0</ele><time>2026-05-04T09:26:00.998Z</time></trkpt><trkpt lat="38.11266663479355" lon="15.423432374172924"><ele>643.0</ele><time>2026-05-04T09:26:01.998Z</time></trkpt><trkpt lat="38.112658910819775" lon="15.423518471679527"><ele>643.0</ele><time>2026-05-04T09:26:02.998Z</time></trkpt><trkpt lat="38.11264804709574" lon="15.423602159731109"><ele>643.0</ele><time>2026-05-04T09:26:03.998Z</time></trkpt><trkpt lat="38.1126273988618" lon="15.4236941248361"><ele>643.0</ele><time>2026-05-04T09:26:04.998Z</time></trkpt><trkpt lat="38.112593052493374" lon="15.423767524950387"><ele>643.0</ele><time>2026-05-04T09:26:05.998Z</time></trkpt><trkpt lat="38.11255043813904" lon="15.42385320245851"><ele>643.0</ele><time>2026-05-04T09:26:06.998Z</time></trkpt><trkpt lat="38.1125162752085" lon="15.423931838792978"><ele>643.0</ele><time>2026-05-04T09:26:07.998Z</time></trkpt><trkpt lat="38.11250261462887" lon="15.424028080288968"><ele>643.0</ele><time>2026-05-04T09:26:08.998Z</time></trkpt><trkpt lat="38.11256573157749" lon="15.424150964031007"><ele>643.0</ele><time>2026-05-04T09:26:10.998Z</time></trkpt><trkpt lat="38.112636849836235" lon="15.424111120061625"><ele>643.0</ele><time>2026-05-04T09:26:11.998Z</time></trkpt><trkpt lat="38.112673235174995" lon="15.423983660389121"><ele>643.0</ele><time>2026-05-04T09:26:13.998Z</time></trkpt><trkpt lat="38.112703084697095" lon="15.423881742384827"><ele>643.0</ele><time>2026-05-04T09:26:14.998Z</time></trkpt><trkpt lat="38.1127397398877" lon="15.423814962894607"><ele>643.0</ele><time>2026-05-04T09:26:15.998Z</time></trkpt><trkpt lat="38.112794533885356" lon="15.423761462617998"><ele>643.0</ele><time>2026-05-04T09:26:16.998Z</time></trkpt><trkpt lat="38.1128485417689" lon="15.423710334456914"><ele>643.0</ele><time>2026-05-04T09:26:17.998Z</time></trkpt><trkpt lat="38.11293020957926" lon="15.423629069104646"><ele>643.0</ele><time>2026-05-04T09:26:19.998Z</time></trkpt><trkpt lat="38.11300282145456" lon="15.423510701321366"><ele>643.0</ele><time>2026-05-04T09:26:21.998Z</time></trkpt><trkpt lat="38.11303739930569" lon="15.423423325977602"><ele>643.0</ele><time>2026-05-04T09:26:22.998Z</time></trkpt><trkpt lat="38.11307655516224" lon="15.4233407821617"><ele>643.0</ele><time>2026-05-04T09:26:23.998Z</time></trkpt><trkpt lat="38.113063736827456" lon="15.423195963322472"><ele>643.0</ele><time>2026-05-04T09:26:25.998Z</time></trkpt><trkpt lat="38.11299012550966" lon="15.4230871447513"><ele>643.0</ele><time>2026-05-04T09:26:27.998Z</time></trkpt><trkpt lat="38.112929672773866" lon="15.422989376647575"><ele>643.0</ele><time>2026-05-04T09:26:29.998Z</time></trkpt><trkpt lat="38.112965948178406" lon="15.422874134219873"><ele>643.0</ele><time>2026-05-04T09:26:31.998Z</time></trkpt><trkpt lat="38.113008926756905" lon="15.422999540482522"><ele>643.0</ele><time>2026-05-04T09:26:33.998Z</time></trkpt><trkpt lat="38.11309369987979" lon="15.423111444994616"><ele>643.0</ele><time>2026-05-04T09:26:35.999Z</time></trkpt><trkpt lat="38.113175614630244" lon="15.423144785408066"><ele>643.0</ele><time>2026-05-04T09:26:36.999Z</time></trkpt><trkpt lat="38.11329110586959" lon="15.423233619166956"><ele>643.0</ele><time>2026-05-04T09:26:38.999Z</time></trkpt><trkpt lat="38.11332670771366" lon="15.42334188583877"><ele>643.0</ele><time>2026-05-04T09:26:40.999Z</time></trkpt><trkpt lat="38.11327536860562" lon="15.423433883384224"><ele>643.0</ele><time>2026-05-04T09:26:42.999Z</time></trkpt><trkpt lat="38.113223099156244" lon="15.423525676628552"><ele>643.0</ele><time>2026-05-04T09:26:43.999Z</time></trkpt><trkpt lat="38.113156524991844" lon="15.423619506430608"><ele>643.0</ele><time>2026-05-04T09:26:44.999Z</time></trkpt><trkpt lat="38.11308524629139" lon="15.423744902619656"><ele>643.0</ele><time>2026-05-04T09:26:45.999Z</time></trkpt><trkpt lat="38.11303785575441" lon="15.423883362335319"><ele>643.0</ele><time>2026-05-04T09:26:46.999Z</time></trkpt><trkpt lat="38.11298747606903" lon="15.424030640531383"><ele>640.0</ele><time>2026-05-04T09:26:48Z</time></trkpt><trkpt lat="38.11293376610711" lon="15.424172851655202"><ele>637.0</ele><time>2026-05-04T09:26:48.999Z</time></trkpt><trkpt lat="38.11287278084716" lon="15.424299281743266"><ele>634.0</ele><time>2026-05-04T09:26:49.999Z</time></trkpt><trkpt lat="38.11280461299652" lon="15.424415406193942"><ele>631.0</ele><time>2026-05-04T09:26:50.999Z</time></trkpt><trkpt lat="38.112733522188364" lon="15.424502905036126"><ele>631.0</ele><time>2026-05-04T09:26:51.999Z</time></trkpt><trkpt lat="38.11266252204229" lon="15.42457708692252"><ele>631.0</ele><time>2026-05-04T09:26:52.999Z</time></trkpt><trkpt lat="38.112576985499565" lon="15.42461857126705"><ele>631.0</ele><time>2026-05-04T09:26:53.999Z</time></trkpt><trkpt lat="38.11249294089005" lon="15.424633806376779"><ele>631.0</ele><time>2026-05-04T09:26:54.999Z</time></trkpt><trkpt lat="38.11242823220706" lon="15.424659511006897"><ele>631.0</ele><time>2026-05-04T09:26:55.999Z</time></trkpt><trkpt lat="38.112382409591795" lon="15.42480612079939"><ele>628.0</ele><time>2026-05-04T09:26:57.999Z</time></trkpt><trkpt lat="38.112472785979705" lon="15.424908180446629"><ele>625.0</ele><time>2026-05-04T09:26:58.999Z</time></trkpt><trkpt lat="38.112536366518604" lon="15.424985097097716"><ele>622.0</ele><time>2026-05-04T09:26:59.999Z</time></trkpt><trkpt lat="38.11260457599005" lon="15.425046500999164"><ele>619.0</ele><time>2026-05-04T09:27:00.999Z</time></trkpt><trkpt lat="38.11268877230092" lon="15.425068630098743"><ele>616.0</ele><time>2026-05-04T09:27:01.999Z</time></trkpt><trkpt lat="38.11277338104267" lon="15.425085364955562"><ele>616.0</ele><time>2026-05-04T09:27:02.999Z</time></trkpt><trkpt lat="38.11286359058912" lon="15.42511382645554"><ele>616.0</ele><time>2026-05-04T09:27:03.999Z</time></trkpt><trkpt lat="38.11292500416076" lon="15.42513568050223"><ele>616.0</ele><time>2026-05-04T09:27:04.999Z</time></trkpt><trkpt lat="38.1129219317178" lon="15.425269802091071"><ele>616.0</ele><time>2026-05-04T09:27:06.999Z</time></trkpt><trkpt lat="38.112927883415885" lon="15.425365713283197"><ele>616.0</ele><time>2026-05-04T09:27:07.999Z</time></trkpt><trkpt lat="38.112869913132194" lon="15.42550031223823"><ele>618.0</ele><time>2026-05-04T09:27:09.999Z</time></trkpt><trkpt lat="38.11285147185903" lon="15.425598095415102"><ele>620.0</ele><time>2026-05-04T09:27:10.999Z</time></trkpt><trkpt lat="38.11289928246794" lon="15.42573810690839"><ele>622.0</ele><time>2026-05-04T09:27:12.999Z</time></trkpt><trkpt lat="38.11297504870183" lon="15.425774989139837"><ele>624.0</ele><time>2026-05-04T09:27:13.999Z</time></trkpt><trkpt lat="38.11306687635206" lon="15.425733949962579"><ele>626.0</ele><time>2026-05-04T09:27:14.999Z</time></trkpt><trkpt lat="38.11314070579869" lon="15.425702983113759"><ele>626.0</ele><time>2026-05-04T09:27:15.999Z</time></trkpt><trkpt lat="38.11321884626149" lon="15.42567040753842"><ele>626.0</ele><time>2026-05-04T09:27:16.999Z</time></trkpt><trkpt lat="38.11328547371256" lon="15.425636188738666"><ele>626.0</ele><time>2026-05-04T09:27:17.999Z</time></trkpt><trkpt lat="38.11335222779081" lon="15.425569108112603"><ele>626.0</ele><time>2026-05-04T09:27:18.999Z</time></trkpt><trkpt lat="38.113394947759446" lon="15.425497296480705"><ele>626.0</ele><time>2026-05-04T09:27:19.999Z</time></trkpt><trkpt lat="38.113427863850234" lon="15.425402790126086"><ele>626.0</ele><time>2026-05-04T09:27:20.999Z</time></trkpt><trkpt lat="38.113461339280505" lon="15.4253001833774"><ele>621.3333333333333</ele><time>2026-05-04T09:27:21.999Z</time></trkpt><trkpt lat="38.113504473470684" lon="15.425196543704077"><ele>616.6666666666666</ele><time>2026-05-04T09:27:22.999Z</time></trkpt><trkpt lat="38.113524682179374" lon="15.4250847276834"><ele>612.0</ele><time>2026-05-04T09:27:23.999Z</time></trkpt><trkpt lat="38.11357000160429" lon="15.425011818377289"><ele>607.3333333333334</ele><time>2026-05-04T09:27:24.999Z</time></trkpt><trkpt lat="38.11362086738837" lon="15.424936940902699"><ele>602.6666666666667</ele><time>2026-05-04T09:27:25.999Z</time></trkpt><trkpt lat="38.1136921655277" lon="15.42492722150717"><ele>598.0</ele><time>2026-05-04T09:27:26.999Z</time></trkpt><trkpt lat="38.11377043461106" lon="15.424888512319075"><ele>598.0</ele><time>2026-05-04T09:27:27.999Z</time></trkpt><trkpt lat="38.11385528492617" lon="15.424834225916033"><ele>598.0</ele><time>2026-05-04T09:27:28.999Z</time></trkpt><trkpt lat="38.11394773073761" lon="15.424780145708636"><ele>598.0</ele><time>2026-05-04T09:27:29.999Z</time></trkpt><trkpt lat="38.11404882212139" lon="15.424704991488545"><ele>598.0</ele><time>2026-05-04T09:27:30.999Z</time></trkpt><trkpt lat="38.114165903119755" lon="15.42465155085199"><ele>598.0</ele><time>2026-05-04T09:27:31.999Z</time></trkpt><trkpt lat="38.11426480627963" lon="15.424608678481148"><ele>596.1999999999999</ele><time>2026-05-04T09:27:32.999Z</time></trkpt><trkpt lat="38.114351756511766" lon="15.424548471870587"><ele>594.4</ele><time>2026-05-04T09:27:33.999Z</time></trkpt><trkpt lat="38.11441285234705" lon="15.424512171075547"><ele>592.5999999999999</ele><time>2026-05-04T09:27:34.999Z</time></trkpt><trkpt lat="38.1144882541271" lon="15.424577750446659"><ele>590.8</ele><time>2026-05-04T09:27:36.999Z</time></trkpt><trkpt lat="38.114469544695005" lon="15.42470097126222"><ele>589.0</ele><time>2026-05-04T09:27:37.999Z</time></trkpt><trkpt lat="38.11450085629732" lon="15.424835118727025"><ele>594.2</ele><time>2026-05-04T09:27:38.999Z</time></trkpt><trkpt lat="38.11452730131926" lon="15.424958102546968"><ele>599.4</ele><time>2026-05-04T09:27:39.999Z</time></trkpt><trkpt lat="38.1145756408267" lon="15.425084676119216"><ele>604.6</ele><time>2026-05-04T09:27:40.999Z</time></trkpt><trkpt lat="38.11463925699355" lon="15.425185127328543"><ele>609.8</ele><time>2026-05-04T09:27:41.999Z</time></trkpt><trkpt lat="38.114665235945786" lon="15.425276973615764"><ele>615.0</ele><time>2026-05-04T09:27:42.999Z</time></trkpt><trkpt lat="38.11464407616121" lon="15.425401233700752"><ele>617.8</ele><time>2026-05-04T09:27:44.999Z</time></trkpt><trkpt lat="38.11453551264497" lon="15.4254966794685"><ele>620.6</ele><time>2026-05-04T09:27:46.999Z</time></trkpt><trkpt lat="38.114474105665096" lon="15.425574080266633"><ele>623.4</ele><time>2026-05-04T09:27:47.998Z</time></trkpt><trkpt lat="38.11442235579739" lon="15.425663362636783"><ele>626.2</ele><time>2026-05-04T09:27:48.998Z</time></trkpt><trkpt lat="38.11438784462578" lon="15.425755775026108"><ele>629.0</ele><time>2026-05-04T09:27:49.998Z</time></trkpt><trkpt lat="38.11438654224971" lon="15.425848904985195"><ele>629.0</ele><time>2026-05-04T09:27:50.998Z</time></trkpt><trkpt lat="38.1144340671346" lon="15.42591948127141"><ele>629.0</ele><time>2026-05-04T09:27:51.998Z</time></trkpt><trkpt lat="38.11450255871237" lon="15.425941912704062"><ele>629.0</ele><time>2026-05-04T09:27:52.998Z</time></trkpt><trkpt lat="38.11458096000253" lon="15.4259069081714"><ele>629.0</ele><time>2026-05-04T09:27:53.998Z</time></trkpt><trkpt lat="38.11468811886548" lon="15.425829325395936"><ele>629.0</ele><time>2026-05-04T09:27:55.998Z</time></trkpt><trkpt lat="38.114748820584616" lon="15.425767594752845"><ele>629.0</ele><time>2026-05-04T09:27:56.998Z</time></trkpt><trkpt lat="38.114814062927834" lon="15.42575590488849"><ele>629.0</ele><time>2026-05-04T09:27:57.998Z</time></trkpt><trkpt lat="38.114877731999265" lon="15.425744153793056"><ele>629.0</ele><time>2026-05-04T09:27:58.998Z</time></trkpt><trkpt lat="38.11494940917269" lon="15.42573716828448"><ele>629.0</ele><time>2026-05-04T09:27:59.998Z</time></trkpt><trkpt lat="38.1150748355427" lon="15.4257446404819"><ele>629.0</ele><time>2026-05-04T09:28:01.998Z</time></trkpt><trkpt lat="38.115148630446086" lon="15.425718854654411"><ele>629.0</ele><time>2026-05-04T09:28:02.998Z</time></trkpt><trkpt lat="38.1152070436502" lon="15.42565365805805"><ele>629.0</ele><time>2026-05-04T09:28:03.998Z</time></trkpt><trkpt lat="38.11525083673774" lon="15.425578064638847"><ele>627.3333333333333</ele><time>2026-05-04T09:28:04.998Z</time></trkpt><trkpt lat="38.11528664517125" lon="15.425489753733514"><ele>625.6666666666666</ele><time>2026-05-04T09:28:05.998Z</time></trkpt><trkpt lat="38.115293042109606" lon="15.4253828997185"><ele>624.0</ele><time>2026-05-04T09:28:06.998Z</time></trkpt><trkpt lat="38.115262593817604" lon="15.425276261286244"><ele>622.3333333333334</ele><time>2026-05-04T09:28:07.998Z</time></trkpt><trkpt lat="38.115266369647756" lon="15.425161209059263"><ele>620.6666666666667</ele><time>2026-05-04T09:28:08.998Z</time></trkpt><trkpt lat="38.11524506097233" lon="15.425051482958057"><ele>619.0</ele><time>2026-05-04T09:28:09.998Z</time></trkpt><trkpt lat="38.11524995623648" lon="15.424959977640738"><ele>614.8</ele><time>2026-05-04T09:28:10.998Z</time></trkpt><trkpt lat="38.11532356194378" lon="15.424824436779994"><ele>610.5999999999999</ele><time>2026-05-04T09:28:12.998Z</time></trkpt><trkpt lat="38.1154430882976" lon="15.424802636065786"><ele>606.4</ele><time>2026-05-04T09:28:14.998Z</time></trkpt><trkpt lat="38.11552353017102" lon="15.424850268630061"><ele>602.1999999999999</ele><time>2026-05-04T09:28:15.998Z</time></trkpt><trkpt lat="38.11559958318027" lon="15.42485879530474"><ele>598.0</ele><time>2026-05-04T09:28:16.998Z</time></trkpt><trkpt lat="38.11568140521991" lon="15.424868712394934"><ele>599.5</ele><time>2026-05-04T09:28:17.998Z</time></trkpt><trkpt lat="38.11575975956981" lon="15.424843321955633"><ele>601.0</ele><time>2026-05-04T09:28:18.998Z</time></trkpt><trkpt lat="38.11583825819066" lon="15.424825357961712"><ele>602.5</ele><time>2026-05-04T09:28:19.998Z</time></trkpt><trkpt lat="38.11591191868525" lon="15.42480868719864"><ele>604.0</ele><time>2026-05-04T09:28:20.998Z</time></trkpt><trkpt lat="38.11597522825625" lon="15.424745500580347"><ele>605.5</ele><time>2026-05-04T09:28:21.998Z</time></trkpt><trkpt lat="38.11601616069227" lon="15.424634529208506"><ele>607.0</ele><time>2026-05-04T09:28:22.998Z</time></trkpt><trkpt lat="38.11608104399512" lon="15.42459314875654"><ele>607.0</ele><time>2026-05-04T09:28:23.998Z</time></trkpt><trkpt lat="38.1161428775621" lon="15.424560271356537"><ele>607.0</ele><time>2026-05-04T09:28:24.998Z</time></trkpt><trkpt lat="38.11621570089299" lon="15.424532236628213"><ele>607.0</ele><time>2026-05-04T09:28:25.998Z</time></trkpt><trkpt lat="38.11629953695261" lon="15.424549425790532"><ele>607.0</ele><time>2026-05-04T09:28:26.998Z</time></trkpt><trkpt lat="38.11635185182539" lon="15.424665873498943"><ele>607.0</ele><time>2026-05-04T09:28:28.998Z</time></trkpt><trkpt lat="38.11637075501905" lon="15.424799752710646"><ele>607.0</ele><time>2026-05-04T09:28:30.998Z</time></trkpt><trkpt lat="38.11636972780056" lon="15.424887934832267"><ele>607.0</ele><time>2026-05-04T09:28:31.998Z</time></trkpt><trkpt lat="38.116370734689795" lon="15.424977049915956"><ele>607.0</ele><time>2026-05-04T09:28:32.998Z</time></trkpt><trkpt lat="38.11632003468985" lon="15.425074561143289"><ele>607.0</ele><time>2026-05-04T09:28:33.998Z</time></trkpt><trkpt lat="38.11629748659414" lon="15.4251871494238"><ele>607.0</ele><time>2026-05-04T09:28:35.998Z</time></trkpt><trkpt lat="38.116381961911195" lon="15.425302942360114"><ele>607.0</ele><time>2026-05-04T09:28:36.998Z</time></trkpt><trkpt lat="38.11643832209629" lon="15.425348715763723"><ele>607.0</ele><time>2026-05-04T09:28:37.998Z</time></trkpt><trkpt lat="38.1165296577628" lon="15.425370792656858"><ele>606.1666666666667</ele><time>2026-05-04T09:28:38.998Z</time></trkpt><trkpt lat="38.116602929649865" lon="15.42538441313932"><ele>605.3333333333334</ele><time>2026-05-04T09:28:39.998Z</time></trkpt><trkpt lat="38.11667701588095" lon="15.4253829497199"><ele>604.5</ele><time>2026-05-04T09:28:40.999Z</time></trkpt><trkpt lat="38.116724539716834" lon="15.425321307835793"><ele>603.6666666666666</ele><time>2026-05-04T09:28:41.999Z</time></trkpt><trkpt lat="38.116764193873145" lon="15.425189616977805"><ele>602.8333333333333</ele><time>2026-05-04T09:28:43.999Z</time></trkpt><trkpt lat="38.11680944376565" lon="15.425066202785397"><ele>602.0</ele><time>2026-05-04T09:28:44.999Z</time></trkpt><trkpt lat="38.116853525254285" lon="15.424952278597369"><ele>602.0</ele><time>2026-05-04T09:28:45.999Z</time></trkpt><trkpt lat="38.11689722260153" lon="15.42484590284831"><ele>602.0</ele><time>2026-05-04T09:28:46.999Z</time></trkpt><trkpt lat="38.11693861533804" lon="15.424757584856103"><ele>602.0</ele><time>2026-05-04T09:28:47.999Z</time></trkpt><trkpt lat="38.1170029845571" lon="15.424684965158438"><ele>602.0</ele><time>2026-05-04T09:28:48.999Z</time></trkpt><trkpt lat="38.11712604934793" lon="15.424604360509658"><ele>602.0</ele><time>2026-05-04T09:28:50.999Z</time></trkpt><trkpt lat="38.117196987736314" lon="15.424568202229429"><ele>597.8333333333333</ele><time>2026-05-04T09:28:51.999Z</time></trkpt><trkpt lat="38.11727419927446" lon="15.424488909083982"><ele>593.6666666666666</ele><time>2026-05-04T09:28:54Z</time></trkpt><trkpt lat="38.11724116105918" lon="15.424393166850928"><ele>589.5</ele><time>2026-05-04T09:28:54.999Z</time></trkpt><trkpt lat="38.1172493361253" lon="15.424286269701355"><ele>585.3333333333334</ele><time>2026-05-04T09:28:55.999Z</time></trkpt><trkpt lat="38.1172691822762" lon="15.424191387060644"><ele>581.1666666666667</ele><time>2026-05-04T09:28:56.999Z</time></trkpt><trkpt lat="38.11732958030299" lon="15.424134872765864"><ele>577.0</ele><time>2026-05-04T09:28:57.999Z</time></trkpt><trkpt lat="38.11739780319165" lon="15.42408059327165"><ele>577.4</ele><time>2026-05-04T09:28:58.999Z</time></trkpt><trkpt lat="38.11747096695249" lon="15.423977642611025"><ele>577.8000000000001</ele><time>2026-05-04T09:29:00.999Z</time></trkpt><trkpt lat="38.11744016672274" lon="15.42374395873207"><ele>578.2</ele><time>2026-05-04T09:29:02.999Z</time></trkpt><trkpt lat="38.1174457176215" lon="15.423650924494952"><ele>578.6</ele><time>2026-05-04T09:29:03.999Z</time></trkpt><trkpt lat="38.117490143129075" lon="15.423565896340083"><ele>579.0</ele><time>2026-05-04T09:29:04.999Z</time></trkpt><trkpt lat="38.117554423121376" lon="15.423502581701172"><ele>579.0</ele><time>2026-05-04T09:29:05.999Z</time></trkpt><trkpt lat="38.11762962966037" lon="15.423476850214357"><ele>579.0</ele><time>2026-05-04T09:29:06.999Z</time></trkpt><trkpt lat="38.117717458290365" lon="15.423461855173551"><ele>579.0</ele><time>2026-05-04T09:29:07.999Z</time></trkpt><trkpt lat="38.11781310385985" lon="15.42343644146863"><ele>579.0</ele><time>2026-05-04T09:29:08.999Z</time></trkpt><trkpt lat="38.117947645297114" lon="15.42338557464253"><ele>579.0</ele><time>2026-05-04T09:29:09.999Z</time></trkpt><trkpt lat="38.11808814255729" lon="15.423331345319436"><ele>579.0</ele><time>2026-05-04T09:29:10.999Z</time></trkpt><trkpt lat="38.11820525343923" lon="15.423294193831225"><ele>579.0</ele><time>2026-05-04T09:29:11.999Z</time></trkpt><trkpt lat="38.118321575965" lon="15.42328762013009"><ele>579.0</ele><time>2026-05-04T09:29:12.999Z</time></trkpt><trkpt lat="38.11843951148419" lon="15.423261686931335"><ele>579.0</ele><time>2026-05-04T09:29:13.999Z</time></trkpt><trkpt lat="38.118560506710125" lon="15.423204682362746"><ele>577.75</ele><time>2026-05-04T09:29:14.999Z</time></trkpt><trkpt lat="38.11866547824843" lon="15.423128135669591"><ele>576.5</ele><time>2026-05-04T09:29:15.999Z</time></trkpt><trkpt lat="38.11876872756516" lon="15.423063029487786"><ele>575.25</ele><time>2026-05-04T09:29:16.999Z</time></trkpt><trkpt lat="38.11887142685811" lon="15.42299819495212"><ele>574.0</ele><time>2026-05-04T09:29:17.999Z</time></trkpt><trkpt lat="38.11896318831811" lon="15.422947432930714"><ele>574.0</ele><time>2026-05-04T09:29:18.999Z</time></trkpt><trkpt lat="38.11906398374158" lon="15.422875130485311"><ele>574.0</ele><time>2026-05-04T09:29:19.999Z</time></trkpt><trkpt lat="38.11916607033459" lon="15.422812108705745"><ele>574.0</ele><time>2026-05-04T09:29:20.999Z</time></trkpt><trkpt lat="38.11926836351691" lon="15.422765488134548"><ele>574.0</ele><time>2026-05-04T09:29:21.999Z</time></trkpt><trkpt lat="38.119357979171305" lon="15.422708981561167"><ele>574.0</ele><time>2026-05-04T09:29:22.999Z</time></trkpt><trkpt lat="38.11944976221873" lon="15.422659611931374"><ele>575.6</ele><time>2026-05-04T09:29:23.999Z</time></trkpt><trkpt lat="38.119541351602265" lon="15.422597783870586"><ele>577.2</ele><time>2026-05-04T09:29:24.999Z</time></trkpt><trkpt lat="38.11963676027235" lon="15.422542729111187"><ele>578.8000000000001</ele><time>2026-05-04T09:29:25.999Z</time></trkpt><trkpt lat="38.11973591000516" lon="15.422485477280937"><ele>580.4</ele><time>2026-05-04T09:29:26.999Z</time></trkpt><trkpt lat="38.119829832099846" lon="15.422417697376789"><ele>582.0</ele><time>2026-05-04T09:29:27.999Z</time></trkpt><trkpt lat="38.119916400005216" lon="15.42233217206851"><ele>584.0</ele><time>2026-05-04T09:29:28.999Z</time></trkpt><trkpt lat="38.11999063835" lon="15.422235307476972"><ele>586.0</ele><time>2026-05-04T09:29:29.999Z</time></trkpt><trkpt lat="38.12005007300895" lon="15.422147207860359"><ele>588.0</ele><time>2026-05-04T09:29:30.999Z</time></trkpt><trkpt lat="38.12008929357027" lon="15.422056345116188"><ele>590.0</ele><time>2026-05-04T09:29:31.999Z</time></trkpt><trkpt lat="38.12011777575238" lon="15.421962191490788"><ele>592.0</ele><time>2026-05-04T09:29:32.999Z</time></trkpt><trkpt lat="38.120163414320636" lon="15.421862024570899"><ele>592.0</ele><time>2026-05-04T09:29:33.999Z</time></trkpt><trkpt lat="38.12020805250299" lon="15.421754832399428"><ele>592.0</ele><time>2026-05-04T09:29:34.999Z</time></trkpt><trkpt lat="38.12025542230027" lon="15.421670127465406"><ele>592.0</ele><time>2026-05-04T09:29:35.999Z</time></trkpt><trkpt lat="38.12031996970289" lon="15.4215059968021"><ele>592.0</ele><time>2026-05-04T09:29:37.999Z</time></trkpt><trkpt lat="38.120358757388644" lon="15.421404928628853"><ele>592.0</ele><time>2026-05-04T09:29:38.999Z</time></trkpt><trkpt lat="38.120401850021295" lon="15.421326335098081"><ele>593.6666666666667</ele><time>2026-05-04T09:29:39.999Z</time></trkpt><trkpt lat="38.12045113356244" lon="15.42126577258316"><ele>595.3333333333334</ele><time>2026-05-04T09:29:40.999Z</time></trkpt><trkpt lat="38.12050064474567" lon="15.421193182083828"><ele>597.0</ele><time>2026-05-04T09:29:41.999Z</time></trkpt><trkpt lat="38.120550385096486" lon="15.421117468563397"><ele>598.6666666666666</ele><time>2026-05-04T09:29:42.999Z</time></trkpt><trkpt lat="38.120597296795644" lon="15.421042166291214"><ele>600.3333333333333</ele><time>2026-05-04T09:29:43.999Z</time></trkpt><trkpt lat="38.120645844500054" lon="15.420959559411745"><ele>602.0</ele><time>2026-05-04T09:29:44.999Z</time></trkpt><trkpt lat="38.12070559922263" lon="15.420890976414473"><ele>602.3333333333333</ele><time>2026-05-04T09:29:45.999Z</time></trkpt><trkpt lat="38.12077143530945" lon="15.420815799425732"><ele>602.6666666666666</ele><time>2026-05-04T09:29:46.999Z</time></trkpt><trkpt lat="38.1208342574282" lon="15.420728861814482"><ele>603.0</ele><time>2026-05-04T09:29:47.999Z</time></trkpt><trkpt lat="38.12088831009527" lon="15.420639436460355"><ele>603.3333333333334</ele><time>2026-05-04T09:29:48.999Z</time></trkpt><trkpt lat="38.12091869712121" lon="15.420539331119684"><ele>603.6666666666667</ele><time>2026-05-04T09:29:49.999Z</time></trkpt><trkpt lat="38.12095436432999" lon="15.420439867997446"><ele>604.0</ele><time>2026-05-04T09:29:50.999Z</time></trkpt><trkpt lat="38.120981252927514" lon="15.420347209037786"><ele>602.6666666666667</ele><time>2026-05-04T09:29:51.999Z</time></trkpt><trkpt lat="38.12099516380862" lon="15.420268336566206"><ele>601.3333333333334</ele><time>2026-05-04T09:29:52.998Z</time></trkpt><trkpt lat="38.1210286001616" lon="15.420193484575929"><ele>600.0</ele><time>2026-05-04T09:29:53.998Z</time></trkpt><trkpt lat="38.12106219457689" lon="15.420119433898002"><ele>598.6666666666666</ele><time>2026-05-04T09:29:54.998Z</time></trkpt><trkpt lat="38.12108737746456" lon="15.420034948294221"><ele>597.3333333333333</ele><time>2026-05-04T09:29:55.998Z</time></trkpt><trkpt lat="38.12113077208383" lon="15.419877431753035"><ele>596.0</ele><time>2026-05-04T09:29:57.998Z</time></trkpt><trkpt lat="38.121150883706804" lon="15.419793165678007"><ele>596.0</ele><time>2026-05-04T09:29:58.998Z</time></trkpt><trkpt lat="38.12118696228552" lon="15.41971737060052"><ele>596.0</ele><time>2026-05-04T09:29:59.998Z</time></trkpt><trkpt lat="38.12122632909845" lon="15.419634252178657"><ele>596.0</ele><time>2026-05-04T09:30:00.998Z</time></trkpt><trkpt lat="38.12127057224377" lon="15.419534154621557"><ele>596.0</ele><time>2026-05-04T09:30:01.998Z</time></trkpt><trkpt lat="38.12132278723479" lon="15.419435021931594"><ele>596.0</ele><time>2026-05-04T09:30:02.998Z</time></trkpt><trkpt lat="38.12137479161627" lon="15.419336977822164"><ele>596.0</ele><time>2026-05-04T09:30:03.998Z</time></trkpt><trkpt lat="38.12142736690365" lon="15.419238563829792"><ele>593.2</ele><time>2026-05-04T09:30:04.998Z</time></trkpt><trkpt lat="38.12147429003513" lon="15.419143181451716"><ele>590.4000000000001</ele><time>2026-05-04T09:30:05.998Z</time></trkpt><trkpt lat="38.121520185888656" lon="15.419044225287507"><ele>587.6</ele><time>2026-05-04T09:30:06.998Z</time></trkpt><trkpt lat="38.121567646721566" lon="15.41893199523175"><ele>584.8000000000001</ele><time>2026-05-04T09:30:07.998Z</time></trkpt><trkpt lat="38.12162000445103" lon="15.418843478010327"><ele>582.0</ele><time>2026-05-04T09:30:08.998Z</time></trkpt><trkpt lat="38.12167816751631" lon="15.418762094197694"><ele>580.6</ele><time>2026-05-04T09:30:09.998Z</time></trkpt><trkpt lat="38.121746127475696" lon="15.418688421676105"><ele>579.2</ele><time>2026-05-04T09:30:10.998Z</time></trkpt><trkpt lat="38.12181490444005" lon="15.418604241909888"><ele>577.8</ele><time>2026-05-04T09:30:11.998Z</time></trkpt><trkpt lat="38.12187087057301" lon="15.418517076846078"><ele>576.4</ele><time>2026-05-04T09:30:12.998Z</time></trkpt><trkpt lat="38.12191571019303" lon="15.418412351646035"><ele>575.0</ele><time>2026-05-04T09:30:13.998Z</time></trkpt><trkpt lat="38.12193992578387" lon="15.418272828940268"><ele>575.0</ele><time>2026-05-04T09:30:14.998Z</time></trkpt><trkpt lat="38.121961277869495" lon="15.41813811609402"><ele>575.0</ele><time>2026-05-04T09:30:15.998Z</time></trkpt><trkpt lat="38.121991082781236" lon="15.418006349150655"><ele>575.0</ele><time>2026-05-04T09:30:16.998Z</time></trkpt><trkpt lat="38.12202784278593" lon="15.417886437088002"><ele>575.0</ele><time>2026-05-04T09:30:17.998Z</time></trkpt><trkpt lat="38.12206494305617" lon="15.417766355987787"><ele>575.0</ele><time>2026-05-04T09:30:18.998Z</time></trkpt><trkpt lat="38.122098623394734" lon="15.41763509230695"><ele>572.8</ele><time>2026-05-04T09:30:19.998Z</time></trkpt><trkpt lat="38.12213297510505" lon="15.417503050343509"><ele>570.6</ele><time>2026-05-04T09:30:20.998Z</time></trkpt><trkpt lat="38.12215311340908" lon="15.417371791750995"><ele>568.4</ele><time>2026-05-04T09:30:21.998Z</time></trkpt><trkpt lat="38.122160190211666" lon="15.41724180212353"><ele>566.2</ele><time>2026-05-04T09:30:22.998Z</time></trkpt><trkpt lat="38.12216677894819" lon="15.417130162986794"><ele>564.0</ele><time>2026-05-04T09:30:23.998Z</time></trkpt><trkpt lat="38.122200619184994" lon="15.417036178862267"><ele>562.8333333333334</ele><time>2026-05-04T09:30:24.998Z</time></trkpt><trkpt lat="38.12225633275396" lon="15.416936843370543"><ele>561.6666666666666</ele><time>2026-05-04T09:30:25.998Z</time></trkpt><trkpt lat="38.12232818081442" lon="15.416845516657188"><ele>560.5</ele><time>2026-05-04T09:30:26.998Z</time></trkpt><trkpt lat="38.122398933696864" lon="15.416772550810649"><ele>559.3333333333333</ele><time>2026-05-04T09:30:27.998Z</time></trkpt><trkpt lat="38.122466389793864" lon="15.416717926058046"><ele>558.1666666666666</ele><time>2026-05-04T09:30:28.998Z</time></trkpt><trkpt lat="38.122528814124216" lon="15.416704936934226"><ele>557.0</ele><time>2026-05-04T09:30:29.998Z</time></trkpt><trkpt lat="38.12259556831678" lon="15.41672523056574"><ele>560.8333333333333</ele><time>2026-05-04T09:30:30.998Z</time></trkpt><trkpt lat="38.122649622161646" lon="15.416778211264925"><ele>564.6666666666666</ele><time>2026-05-04T09:30:31.998Z</time></trkpt><trkpt lat="38.122719573040456" lon="15.416843889145918"><ele>568.5</ele><time>2026-05-04T09:30:32.998Z</time></trkpt><trkpt lat="38.12278537347732" lon="15.416906201723751"><ele>572.3333333333334</ele><time>2026-05-04T09:30:33.998Z</time></trkpt><trkpt lat="38.1228500569907" lon="15.41695990209768"><ele>576.1666666666667</ele><time>2026-05-04T09:30:34.998Z</time></trkpt><trkpt lat="38.12290066837706" lon="15.417039280904149"><ele>580.0</ele><time>2026-05-04T09:30:35.998Z</time></trkpt><trkpt lat="38.1229082202945" lon="15.417158386402624"><ele>580.4</ele><time>2026-05-04T09:30:36.998Z</time></trkpt><trkpt lat="38.12288705903354" lon="15.41729209049068"><ele>580.8</ele><time>2026-05-04T09:30:37.998Z</time></trkpt><trkpt lat="38.122901916756796" lon="15.417412876196574"><ele>581.2</ele><time>2026-05-04T09:30:38.998Z</time></trkpt><trkpt lat="38.122944189120304" lon="15.417535880793244"><ele>581.6</ele><time>2026-05-04T09:30:39.998Z</time></trkpt><trkpt lat="38.12298151373312" lon="15.41764231561527"><ele>582.0</ele><time>2026-05-04T09:30:40.998Z</time></trkpt><trkpt lat="38.12300919039366" lon="15.417760686628753"><ele>582.0</ele><time>2026-05-04T09:30:41.998Z</time></trkpt><trkpt lat="38.12301033928274" lon="15.417883196897792"><ele>582.0</ele><time>2026-05-04T09:30:42.998Z</time></trkpt><trkpt lat="38.122988812703674" lon="15.41799530882547"><ele>582.0</ele><time>2026-05-04T09:30:43.998Z</time></trkpt><trkpt lat="38.12295189591122" lon="15.418083570865223"><ele>582.0</ele><time>2026-05-04T09:30:44.998Z</time></trkpt><trkpt lat="38.12291619047556" lon="15.418154446867286"><ele>582.0</ele><time>2026-05-04T09:30:45.998Z</time></trkpt><trkpt lat="38.122936304228546" lon="15.418261940959582"><ele>582.0</ele><time>2026-05-04T09:30:47.999Z</time></trkpt><trkpt lat="38.12304254761894" lon="15.41826746916115"><ele>582.0</ele><time>2026-05-04T09:30:49.999Z</time></trkpt><trkpt lat="38.1230750087123" lon="15.41817193208808"><ele>582.0</ele><time>2026-05-04T09:30:51.999Z</time></trkpt><trkpt lat="38.12314927702169" lon="15.418060864565302"><ele>582.0</ele><time>2026-05-04T09:30:52.999Z</time></trkpt><trkpt lat="38.12318372245037" lon="15.417908063154664"><ele>582.0</ele><time>2026-05-04T09:30:53.999Z</time></trkpt><trkpt lat="38.12320751928498" lon="15.417794824210267"><ele>582.0</ele><time>2026-05-04T09:30:54.999Z</time></trkpt><trkpt lat="38.123225267508545" lon="15.417679006549022"><ele>578.2</ele><time>2026-05-04T09:30:55.999Z</time></trkpt><trkpt lat="38.123238737260564" lon="15.417562780944015"><ele>574.4000000000001</ele><time>2026-05-04T09:30:56.999Z</time></trkpt><trkpt lat="38.12325102432372" lon="15.417444616668183"><ele>570.5999999999999</ele><time>2026-05-04T09:30:57.999Z</time></trkpt><trkpt lat="38.12327949972525" lon="15.417329655748018"><ele>566.8</ele><time>2026-05-04T09:30:58.999Z</time></trkpt><trkpt lat="38.12331221264626" lon="15.417218056007682"><ele>563.0</ele><time>2026-05-04T09:30:59.999Z</time></trkpt><trkpt lat="38.123363661410494" lon="15.4171174047163"><ele>563.0</ele><time>2026-05-04T09:31:00.999Z</time></trkpt><trkpt lat="38.12340808820658" lon="15.417024461357883"><ele>563.0</ele><time>2026-05-04T09:31:01.999Z</time></trkpt><trkpt lat="38.12346972847693" lon="15.416949982326445"><ele>563.0</ele><time>2026-05-04T09:31:02.999Z</time></trkpt><trkpt lat="38.12354625205944" lon="15.416883877473811"><ele>563.0</ele><time>2026-05-04T09:31:03.999Z</time></trkpt><trkpt lat="38.12361760690437" lon="15.41681571643225"><ele>563.0</ele><time>2026-05-04T09:31:04.999Z</time></trkpt><trkpt lat="38.123687438240324" lon="15.416721247448697"><ele>563.0</ele><time>2026-05-04T09:31:05.999Z</time></trkpt><trkpt lat="38.12376496263686" lon="15.416622355561174"><ele>563.0</ele><time>2026-05-04T09:31:06.999Z</time></trkpt><trkpt lat="38.12383479773699" lon="15.416523417497123"><ele>563.0</ele><time>2026-05-04T09:31:07.999Z</time></trkpt><trkpt lat="38.123903576512134" lon="15.416422962323173"><ele>563.0</ele><time>2026-05-04T09:31:08.999Z</time></trkpt><trkpt lat="38.123969518646334" lon="15.416324196688826"><ele>563.0</ele><time>2026-05-04T09:31:09.999Z</time></trkpt><trkpt lat="38.12404493700732" lon="15.416239235107591"><ele>559.1999999999999</ele><time>2026-05-04T09:31:10.999Z</time></trkpt><trkpt lat="38.12412013573937" lon="15.416148842988747"><ele>555.4</ele><time>2026-05-04T09:31:11.999Z</time></trkpt><trkpt lat="38.124191565010925" lon="15.416087913356558"><ele>551.5999999999999</ele><time>2026-05-04T09:31:12.999Z</time></trkpt><trkpt lat="38.12428282772461" lon="15.416002583836518"><ele>547.8</ele><time>2026-05-04T09:31:13.999Z</time></trkpt><trkpt lat="38.12436826857289" lon="15.415918610132007"><ele>544.0</ele><time>2026-05-04T09:31:14.999Z</time></trkpt><trkpt lat="38.12444640329542" lon="15.415826024668629"><ele>544.0</ele><time>2026-05-04T09:31:15.999Z</time></trkpt><trkpt lat="38.1245191852465" lon="15.415744183036308"><ele>544.0</ele><time>2026-05-04T09:31:16.999Z</time></trkpt><trkpt lat="38.124605452038935" lon="15.41566309132311"><ele>544.0</ele><time>2026-05-04T09:31:17.999Z</time></trkpt><trkpt lat="38.12469392616881" lon="15.415575184250816"><ele>544.0</ele><time>2026-05-04T09:31:18.999Z</time></trkpt><trkpt lat="38.12478577743707" lon="15.415491921071489"><ele>544.0</ele><time>2026-05-04T09:31:19.999Z</time></trkpt><trkpt lat="38.12488884092721" lon="15.415417004890662"><ele>539.8</ele><time>2026-05-04T09:31:20.999Z</time></trkpt><trkpt lat="38.12499555265974" lon="15.41534065194189"><ele>535.5999999999999</ele><time>2026-05-04T09:31:21.999Z</time></trkpt><trkpt lat="38.12508263160693" lon="15.415275737578613"><ele>531.4</ele><time>2026-05-04T09:31:22.999Z</time></trkpt><trkpt lat="38.12517198830451" lon="15.415209772052014"><ele>527.1999999999999</ele><time>2026-05-04T09:31:23.999Z</time></trkpt><trkpt lat="38.125261908561846" lon="15.41516278100475"><ele>523.0</ele><time>2026-05-04T09:31:24.999Z</time></trkpt><trkpt lat="38.12535626934915" lon="15.415119558304657"><ele>523.0</ele><time>2026-05-04T09:31:25.999Z</time></trkpt><trkpt lat="38.12545591247202" lon="15.415097200895172"><ele>523.0</ele><time>2026-05-04T09:31:26.999Z</time></trkpt><trkpt lat="38.125564400420664" lon="15.415084771837863"><ele>523.0</ele><time>2026-05-04T09:31:27.999Z</time></trkpt><trkpt lat="38.12566470000026" lon="15.41505956872031"><ele>523.0</ele><time>2026-05-04T09:31:28.999Z</time></trkpt><trkpt lat="38.12577156801565" lon="15.415021058383434"><ele>523.0</ele><time>2026-05-04T09:31:29.999Z</time></trkpt><trkpt lat="38.125872689040975" lon="15.414990750852173"><ele>522.0</ele><time>2026-05-04T09:31:30.999Z</time></trkpt><trkpt lat="38.12596621513552" lon="15.414970063126969"><ele>521.0</ele><time>2026-05-04T09:31:31.999Z</time></trkpt><trkpt lat="38.126056799896524" lon="15.414961277881671"><ele>520.0</ele><time>2026-05-04T09:31:32.999Z</time></trkpt><trkpt lat="38.12614123210597" lon="15.41497018714532"><ele>519.0</ele><time>2026-05-04T09:31:33.999Z</time></trkpt><trkpt lat="38.12622721044946" lon="15.415002920539541"><ele>518.0</ele><time>2026-05-04T09:31:34.999Z</time></trkpt><trkpt lat="38.12632092959035" lon="15.415032568471238"><ele>518.0</ele><time>2026-05-04T09:31:35.999Z</time></trkpt><trkpt lat="38.1264091065109" lon="15.415032090948426"><ele>518.0</ele><time>2026-05-04T09:31:36.999Z</time></trkpt><trkpt lat="38.12648890807335" lon="15.415016180541334"><ele>518.0</ele><time>2026-05-04T09:31:37.999Z</time></trkpt><trkpt lat="38.12660494105969" lon="15.41497317714494"><ele>518.0</ele><time>2026-05-04T09:31:39.999Z</time></trkpt><trkpt lat="38.126669632250724" lon="15.414946450227548"><ele>518.0</ele><time>2026-05-04T09:31:40.999Z</time></trkpt><trkpt lat="38.126729934115076" lon="15.41491919767251"><ele>518.0</ele><time>2026-05-04T09:31:41.999Z</time></trkpt><trkpt lat="38.12679533113973" lon="15.414894564813713"><ele>518.0</ele><time>2026-05-04T09:31:42.999Z</time></trkpt><trkpt lat="38.12686534024705" lon="15.414869378939544"><ele>518.0</ele><time>2026-05-04T09:31:43.999Z</time></trkpt><trkpt lat="38.12695662979364" lon="15.414835664473285"><ele>518.0</ele><time>2026-05-04T09:31:44.999Z</time></trkpt><trkpt lat="38.12706866323766" lon="15.41480104425143"><ele>518.0</ele><time>2026-05-04T09:31:45.999Z</time></trkpt><trkpt lat="38.1271984445563" lon="15.414773598489704"><ele>518.0</ele><time>2026-05-04T09:31:46.999Z</time></trkpt><trkpt lat="38.12731854292734" lon="15.41473088142819"><ele>517.25</ele><time>2026-05-04T09:31:47.999Z</time></trkpt><trkpt lat="38.127451481345204" lon="15.414701869457765"><ele>516.5</ele><time>2026-05-04T09:31:48.999Z</time></trkpt><trkpt lat="38.12758026632944" lon="15.41467504258712"><ele>515.75</ele><time>2026-05-04T09:31:49.999Z</time></trkpt><trkpt lat="38.12769297560382" lon="15.414653527982423"><ele>515.0</ele><time>2026-05-04T09:31:50.999Z</time></trkpt><trkpt lat="38.127791375913176" lon="15.414643977292162"><ele>515.0</ele><time>2026-05-04T09:31:51.999Z</time></trkpt><trkpt lat="38.127895383477366" lon="15.414653284196124"><ele>515.0</ele><time>2026-05-04T09:31:52.999Z</time></trkpt><trkpt lat="38.12799342912823" lon="15.414668626013425"><ele>515.0</ele><time>2026-05-04T09:31:53.999Z</time></trkpt><trkpt lat="38.128088894561294" lon="15.414691223457208"><ele>515.0</ele><time>2026-05-04T09:31:54.999Z</time></trkpt><trkpt lat="38.128173450863606" lon="15.41468187132988"><ele>515.0</ele><time>2026-05-04T09:31:55.999Z</time></trkpt><trkpt lat="38.12823852190083" lon="15.414645153040977"><ele>519.6</ele><time>2026-05-04T09:31:56.999Z</time></trkpt><trkpt lat="38.12829513181811" lon="15.414573982431564"><ele>524.2</ele><time>2026-05-04T09:31:57.999Z</time></trkpt><trkpt lat="38.12836026537894" lon="15.4144765246611"><ele>528.8</ele><time>2026-05-04T09:31:58.998Z</time></trkpt><trkpt lat="38.12844262393678" lon="15.414375162701878"><ele>533.4</ele><time>2026-05-04T09:31:59.998Z</time></trkpt><trkpt lat="38.12852613650478" lon="15.414288007599705"><ele>538.0</ele><time>2026-05-04T09:32:00.998Z</time></trkpt><trkpt lat="38.12860750281228" lon="15.414241179843964"><ele>538.0</ele><time>2026-05-04T09:32:01.998Z</time></trkpt><trkpt lat="38.12868229798815" lon="15.414207035381056"><ele>538.0</ele><time>2026-05-04T09:32:02.998Z</time></trkpt><trkpt lat="38.12876131321257" lon="15.414211304869864"><ele>538.0</ele><time>2026-05-04T09:32:03.998Z</time></trkpt><trkpt lat="38.128831913893826" lon="15.41421030907045"><ele>538.0</ele><time>2026-05-04T09:32:04.998Z</time></trkpt><trkpt lat="38.12889700707633" lon="15.41423041479667"><ele>538.0</ele><time>2026-05-04T09:32:05.998Z</time></trkpt><trkpt lat="38.12898912518652" lon="15.414261692695792"><ele>538.0</ele><time>2026-05-04T09:32:06.998Z</time></trkpt><trkpt lat="38.12908703279079" lon="15.414304908639478"><ele>538.5</ele><time>2026-05-04T09:32:07.998Z</time></trkpt><trkpt lat="38.12918312583202" lon="15.414348684228568"><ele>539.0</ele><time>2026-05-04T09:32:08.998Z</time></trkpt><trkpt lat="38.12925880132465" lon="15.414397879178566"><ele>539.5</ele><time>2026-05-04T09:32:09.998Z</time></trkpt><trkpt lat="38.12929372872609" lon="15.414473657769504"><ele>540.0</ele><time>2026-05-04T09:32:10.998Z</time></trkpt><trkpt lat="38.12931764792312" lon="15.414568779723997"><ele>540.5</ele><time>2026-05-04T09:32:11.998Z</time></trkpt><trkpt lat="38.1293737361685" lon="15.41463612609356"><ele>541.0</ele><time>2026-05-04T09:32:12.998Z</time></trkpt><trkpt lat="38.12940447633573" lon="15.414734278246039"><ele>543.4</ele><time>2026-05-04T09:32:13.998Z</time></trkpt><trkpt lat="38.12947087502424" lon="15.414780968571433"><ele>545.8</ele><time>2026-05-04T09:32:14.998Z</time></trkpt><trkpt lat="38.12955469678271" lon="15.41479525785081"><ele>548.1999999999999</ele><time>2026-05-04T09:32:15.998Z</time></trkpt><trkpt lat="38.12964186962852" lon="15.414791862117703"><ele>550.6</ele><time>2026-05-04T09:32:16.998Z</time></trkpt><trkpt lat="38.129745475723965" lon="15.414772761861167"><ele>553.0</ele><time>2026-05-04T09:32:17.998Z</time></trkpt><trkpt lat="38.12986203401593" lon="15.414756423761933"><ele>552.8</ele><time>2026-05-04T09:32:18.998Z</time></trkpt><trkpt lat="38.12997149670483" lon="15.414736293064815"><ele>552.5999999999999</ele><time>2026-05-04T09:32:19.998Z</time></trkpt><trkpt lat="38.130060054919596" lon="15.41469903516917"><ele>552.4000000000001</ele><time>2026-05-04T09:32:20.998Z</time></trkpt><trkpt lat="38.13013445982301" lon="15.414616730188474"><ele>552.2</ele><time>2026-05-04T09:32:21.998Z</time></trkpt><trkpt lat="38.13020983525398" lon="15.414508899072139"><ele>552.0</ele><time>2026-05-04T09:32:22.998Z</time></trkpt><trkpt lat="38.13029062628358" lon="15.414402052224435"><ele>551.8000000000001</ele><time>2026-05-04T09:32:23.998Z</time></trkpt><trkpt lat="38.13037438503346" lon="15.414299336449329"><ele>551.6</ele><time>2026-05-04T09:32:24.998Z</time></trkpt><trkpt lat="38.13045779419084" lon="15.41422147143438"><ele>551.4000000000001</ele><time>2026-05-04T09:32:25.998Z</time></trkpt><trkpt lat="38.13054373797714" lon="15.414162286336635"><ele>551.2</ele><time>2026-05-04T09:32:26.998Z</time></trkpt><trkpt lat="38.13063959580408" lon="15.414110147190865"><ele>551.0</ele><time>2026-05-04T09:32:27.998Z</time></trkpt><trkpt lat="38.13073146016773" lon="15.414024981427913"><ele>554.25</ele><time>2026-05-04T09:32:28.998Z</time></trkpt><trkpt lat="38.13082433080453" lon="15.41392252346929"><ele>557.5</ele><time>2026-05-04T09:32:29.998Z</time></trkpt><trkpt lat="38.13088598982029" lon="15.413811397408267"><ele>560.75</ele><time>2026-05-04T09:32:30.998Z</time></trkpt><trkpt lat="38.130962707389344" lon="15.413703142466485"><ele>564.0</ele><time>2026-05-04T09:32:31.998Z</time></trkpt><trkpt lat="38.13102181859722" lon="15.413582666141727"><ele>565.3333333333334</ele><time>2026-05-04T09:32:32.998Z</time></trkpt><trkpt lat="38.13106590752747" lon="15.413475258643176"><ele>566.6666666666666</ele><time>2026-05-04T09:32:33.998Z</time></trkpt><trkpt lat="38.13109602165085" lon="15.413398173510675"><ele>568.0</ele><time>2026-05-04T09:32:34.998Z</time></trkpt><trkpt lat="38.13116644147552" lon="15.413329069268467"><ele>569.3333333333333</ele><time>2026-05-04T09:32:35.998Z</time></trkpt><trkpt lat="38.131225314364954" lon="15.413247538553112"><ele>570.6666666666666</ele><time>2026-05-04T09:32:36.998Z</time></trkpt><trkpt lat="38.1312854745204" lon="15.413151607106466"><ele>572.0</ele><time>2026-05-04T09:32:37.998Z</time></trkpt><trkpt lat="38.13133858386366" lon="15.413058891123038"><ele>569.4</ele><time>2026-05-04T09:32:38.998Z</time></trkpt><trkpt lat="38.131385388786335" lon="15.412959622409002"><ele>566.8000000000001</ele><time>2026-05-04T09:32:39.998Z</time></trkpt><trkpt lat="38.13144207109415" lon="15.41286391047085"><ele>564.2</ele><time>2026-05-04T09:32:40.998Z</time></trkpt><trkpt lat="38.13150248141355" lon="15.412764793020642"><ele>561.6</ele><time>2026-05-04T09:32:41.998Z</time></trkpt><trkpt lat="38.1315571131288" lon="15.412674504711845"><ele>559.0</ele><time>2026-05-04T09:32:42.998Z</time></trkpt><trkpt lat="38.13159800280207" lon="15.41257456630495"><ele>559.0</ele><time>2026-05-04T09:32:43.998Z</time></trkpt><trkpt lat="38.13162683294841" lon="15.412472941096455"><ele>559.0</ele><time>2026-05-04T09:32:44.998Z</time></trkpt><trkpt lat="38.13163817319709" lon="15.41237586206343"><ele>559.0</ele><time>2026-05-04T09:32:45.998Z</time></trkpt><trkpt lat="38.13168139355216" lon="15.41228496578158"><ele>559.0</ele><time>2026-05-04T09:32:47.998Z</time></trkpt><trkpt lat="38.1317604198975" lon="15.412259910800366"><ele>559.0</ele><time>2026-05-04T09:32:48.998Z</time></trkpt><trkpt lat="38.13182757855643" lon="15.412222289743248"><ele>559.0</ele><time>2026-05-04T09:32:49.998Z</time></trkpt><trkpt lat="38.13183705339676" lon="15.412135404889982"><ele>560.1666666666667</ele><time>2026-05-04T09:32:51.999Z</time></trkpt><trkpt lat="38.131774983907725" lon="15.412012131853405"><ele>561.3333333333334</ele><time>2026-05-04T09:32:53.999Z</time></trkpt><trkpt lat="38.13171498743552" lon="15.411961795793738"><ele>562.5</ele><time>2026-05-04T09:33:14.999Z</time></trkpt><trkpt lat="38.13166729449077" lon="15.411877597666921"><ele>563.6666666666666</ele><time>2026-05-04T09:33:16.999Z</time></trkpt><trkpt lat="38.13161158395436" lon="15.411813003076434"><ele>564.8333333333333</ele><time>2026-05-04T09:33:19.999Z</time></trkpt><trkpt lat="38.13153851706608" lon="15.41175904710623"><ele>566.0</ele><time>2026-05-04T09:33:22.999Z</time></trkpt><trkpt lat="38.13145177786991" lon="15.411686403983524"><ele>562.4</ele><time>2026-05-04T09:33:24.999Z</time></trkpt><trkpt lat="38.13140430242753" lon="15.411629999025386"><ele>558.8</ele><time>2026-05-04T09:33:25.999Z</time></trkpt><trkpt lat="38.131344826541515" lon="15.411562029265475"><ele>555.1999999999999</ele><time>2026-05-04T09:33:26.999Z</time></trkpt><trkpt lat="38.13126010606773" lon="15.411470131147832"><ele>551.6</ele><time>2026-05-04T09:33:27.999Z</time></trkpt><trkpt lat="38.131167913037224" lon="15.4113669877841"><ele>548.0</ele><time>2026-05-04T09:33:28.999Z</time></trkpt><trkpt lat="38.13106303929756" lon="15.411265837392405"><ele>548.0</ele><time>2026-05-04T09:33:29.999Z</time></trkpt><trkpt lat="38.13096461172975" lon="15.411156188792786"><ele>548.0</ele><time>2026-05-04T09:33:30.999Z</time></trkpt><trkpt lat="38.13089068529249" lon="15.411070216347582"><ele>548.0</ele><time>2026-05-04T09:33:31.999Z</time></trkpt><trkpt lat="38.13081238203185" lon="15.41100455663561"><ele>548.0</ele><time>2026-05-04T09:33:32.999Z</time></trkpt><trkpt lat="38.13074217868404" lon="15.410900421508401"><ele>548.0</ele><time>2026-05-04T09:33:33.999Z</time></trkpt><trkpt lat="38.130669699513405" lon="15.410789557474189"><ele>539.25</ele><time>2026-05-04T09:33:34.999Z</time></trkpt><trkpt lat="38.13060334890445" lon="15.410675205134966"><ele>530.5</ele><time>2026-05-04T09:33:35.999Z</time></trkpt><trkpt lat="38.13052078238107" lon="15.410567471225427"><ele>521.75</ele><time>2026-05-04T09:33:36.999Z</time></trkpt><trkpt lat="38.13043599686157" lon="15.410467482938296"><ele>513.0</ele><time>2026-05-04T09:33:37.999Z</time></trkpt><trkpt lat="38.13035735031071" lon="15.410380777007887"><ele>513.0</ele><time>2026-05-04T09:33:38.999Z</time></trkpt><trkpt lat="38.130283182033416" lon="15.4102899159079"><ele>513.0</ele><time>2026-05-04T09:33:39.999Z</time></trkpt><trkpt lat="38.13020617311599" lon="15.410209563231271"><ele>513.0</ele><time>2026-05-04T09:33:40.999Z</time></trkpt><trkpt lat="38.13013269951482" lon="15.410156876006353"><ele>513.0</ele><time>2026-05-04T09:33:41.999Z</time></trkpt><trkpt lat="38.13008354241909" lon="15.410089930695063"><ele>513.0</ele><time>2026-05-04T09:33:42.999Z</time></trkpt><trkpt lat="38.13005625544624" lon="15.41001605426334"><ele>513.0</ele><time>2026-05-04T09:33:43.999Z</time></trkpt><trkpt lat="38.130031528922395" lon="15.409921733604566"><ele>513.0</ele><time>2026-05-04T09:33:44.999Z</time></trkpt><trkpt lat="38.13005066547874" lon="15.40981431505248"><ele>513.0</ele><time>2026-05-04T09:33:45.999Z</time></trkpt><trkpt lat="38.13010168097852" lon="15.409692711557542"><ele>513.0</ele><time>2026-05-04T09:33:46.999Z</time></trkpt><trkpt lat="38.130153548484934" lon="15.409572987219386"><ele>513.0</ele><time>2026-05-04T09:33:47.999Z</time></trkpt><trkpt lat="38.13020607997966" lon="15.409449438513686"><ele>513.0</ele><time>2026-05-04T09:33:48.999Z</time></trkpt><trkpt lat="38.13025337461053" lon="15.409330781997161"><ele>509.79999999999995</ele><time>2026-05-04T09:33:49.999Z</time></trkpt><trkpt lat="38.13031329098458" lon="15.409209028177887"><ele>506.59999999999997</ele><time>2026-05-04T09:33:50.999Z</time></trkpt><trkpt lat="38.13038335174866" lon="15.409103896928496"><ele>503.40000000000003</ele><time>2026-05-04T09:33:51.999Z</time></trkpt><trkpt lat="38.13044156512211" lon="15.409004251549142"><ele>500.20000000000005</ele><time>2026-05-04T09:33:52.999Z</time></trkpt><trkpt lat="38.13048094234784" lon="15.408896377228738"><ele>497.0</ele><time>2026-05-04T09:33:53.999Z</time></trkpt><trkpt lat="38.13051439726888" lon="15.408784897835222"><ele>497.99999999999994</ele><time>2026-05-04T09:33:54.999Z</time></trkpt><trkpt lat="38.13056882616034" lon="15.408673714041454"><ele>499.0</ele><time>2026-05-04T09:33:55.999Z</time></trkpt><trkpt lat="38.130630255728725" lon="15.408592869066421"><ele>500.0</ele><time>2026-05-04T09:33:56.999Z</time></trkpt><trkpt lat="38.130700658940476" lon="15.408543196320254"><ele>501.0</ele><time>2026-05-04T09:33:57.999Z</time></trkpt><trkpt lat="38.130767504174244" lon="15.408493214660627"><ele>501.99999999999994</ele><time>2026-05-04T09:33:58.999Z</time></trkpt><trkpt lat="38.13083168872682" lon="15.408445012840492"><ele>503.0</ele><time>2026-05-04T09:33:59.999Z</time></trkpt><trkpt lat="38.13088532323062" lon="15.408378802832162"><ele>503.0</ele><time>2026-05-04T09:34:00.999Z</time></trkpt><trkpt lat="38.130896756417606" lon="15.408281140918348"><ele>502.99999999999994</ele><time>2026-05-04T09:34:01.999Z</time></trkpt><trkpt lat="38.13091766798248" lon="15.408187315055873"><ele>502.99999999999994</ele><time>2026-05-04T09:34:02.999Z</time></trkpt><trkpt lat="38.13093832486571" lon="15.408069820595152"><ele>503.0</ele><time>2026-05-04T09:34:03.998Z</time></trkpt><trkpt lat="38.13093632334922" lon="15.40793510890036"><ele>503.0</ele><time>2026-05-04T09:34:04.998Z</time></trkpt><trkpt lat="38.13092686950044" lon="15.407809522141681"><ele>498.16666666666663</ele><time>2026-05-04T09:34:05.998Z</time></trkpt><trkpt lat="38.1309515742519" lon="15.407714682675195"><ele>493.3333333333333</ele><time>2026-05-04T09:34:06.998Z</time></trkpt><trkpt lat="38.13100049668799" lon="15.407623233403863"><ele>488.5</ele><time>2026-05-04T09:34:07.998Z</time></trkpt><trkpt lat="38.131060793540655" lon="15.407546515536904"><ele>483.66666666666663</ele><time>2026-05-04T09:34:08.998Z</time></trkpt><trkpt lat="38.131109607773325" lon="15.407460446159801"><ele>478.8333333333333</ele><time>2026-05-04T09:34:09.998Z</time></trkpt><trkpt lat="38.13114541984478" lon="15.407370425487672"><ele>474.0</ele><time>2026-05-04T09:34:10.998Z</time></trkpt><trkpt lat="38.131185890568645" lon="15.407287227417939"><ele>474.0</ele><time>2026-05-04T09:34:11.998Z</time></trkpt><trkpt lat="38.131232992614194" lon="15.407225276511507"><ele>474.0</ele><time>2026-05-04T09:34:12.998Z</time></trkpt><trkpt lat="38.131368065536314" lon="15.407223576062835"><ele>474.0</ele><time>2026-05-04T09:34:14.998Z</time></trkpt><trkpt lat="38.13147029625592" lon="15.407262946330672"><ele>474.0</ele><time>2026-05-04T09:34:15.998Z</time></trkpt><trkpt lat="38.13158129718321" lon="15.407305458281103"><ele>474.0</ele><time>2026-05-04T09:34:16.998Z</time></trkpt><trkpt lat="38.13169700402302" lon="15.407321723458068"><ele>479.75</ele><time>2026-05-04T09:34:17.998Z</time></trkpt><trkpt lat="38.13182084389282" lon="15.407309217703581"><ele>485.5</ele><time>2026-05-04T09:34:18.998Z</time></trkpt><trkpt lat="38.131951825335996" lon="15.407303183736188"><ele>491.25</ele><time>2026-05-04T09:34:19.998Z</time></trkpt><trkpt lat="38.132066146410395" lon="15.407345590625907"><ele>497.0</ele><time>2026-05-04T09:34:20.998Z</time></trkpt><trkpt lat="38.132172352431006" lon="15.407378119477597"><ele>497.0</ele><time>2026-05-04T09:34:21.998Z</time></trkpt><trkpt lat="38.132286370386105" lon="15.407392601841186"><ele>497.00000000000006</ele><time>2026-05-04T09:34:22.998Z</time></trkpt><trkpt lat="38.13238926140608" lon="15.407405468512986"><ele>497.00000000000006</ele><time>2026-05-04T09:34:23.998Z</time></trkpt><trkpt lat="38.13247937688447" lon="15.40738318315333"><ele>497.0</ele><time>2026-05-04T09:34:24.998Z</time></trkpt><trkpt lat="38.13254353651655" lon="15.407323528727696"><ele>497.0</ele><time>2026-05-04T09:34:25.998Z</time></trkpt><trkpt lat="38.13257880578863" lon="15.407167289160958"><ele>494.5</ele><time>2026-05-04T09:34:27.998Z</time></trkpt><trkpt lat="38.132589955315055" lon="15.407071400515777"><ele>492.0</ele><time>2026-05-04T09:34:28.998Z</time></trkpt><trkpt lat="38.132600705194925" lon="15.406930047702856"><ele>489.5</ele><time>2026-05-04T09:34:29.998Z</time></trkpt><trkpt lat="38.132620540011104" lon="15.4067575253106"><ele>487.0</ele><time>2026-05-04T09:34:30.998Z</time></trkpt><trkpt lat="38.13265443075227" lon="15.40656590805684"><ele>487.0</ele><time>2026-05-04T09:34:31.998Z</time></trkpt><trkpt lat="38.132665329163665" lon="15.406423960944077"><ele>487.00000000000006</ele><time>2026-05-04T09:34:32.998Z</time></trkpt><trkpt lat="38.132645223677436" lon="15.406307554273514"><ele>487.00000000000006</ele><time>2026-05-04T09:34:33.998Z</time></trkpt><trkpt lat="38.132721855240085" lon="15.406183592276387"><ele>487.0</ele><time>2026-05-04T09:34:35.998Z</time></trkpt><trkpt lat="38.13279998546305" lon="15.406121990713723"><ele>487.0</ele><time>2026-05-04T09:34:36.998Z</time></trkpt><trkpt lat="38.13289541691195" lon="15.406036824100052"><ele>486.0</ele><time>2026-05-04T09:34:37.998Z</time></trkpt><trkpt lat="38.13300328628412" lon="15.405985794089352"><ele>485.00000000000006</ele><time>2026-05-04T09:34:38.998Z</time></trkpt><trkpt lat="38.13307821913901" lon="15.40598192779992"><ele>484.00000000000006</ele><time>2026-05-04T09:34:39.998Z</time></trkpt><trkpt lat="38.13315613036057" lon="15.406002576878956"><ele>483.0</ele><time>2026-05-04T09:34:40.998Z</time></trkpt><trkpt lat="38.133241375049444" lon="15.40606471415579"><ele>482.0</ele><time>2026-05-04T09:34:41.998Z</time></trkpt><trkpt lat="38.13333079383096" lon="15.406147696976877"><ele>482.0</ele><time>2026-05-04T09:34:42.998Z</time></trkpt><trkpt lat="38.13344504797013" lon="15.406226096695818"><ele>482.0</ele><time>2026-05-04T09:34:43.998Z</time></trkpt><trkpt lat="38.13357957813486" lon="15.406281692464752"><ele>482.0</ele><time>2026-05-04T09:34:44.998Z</time></trkpt><trkpt lat="38.13371115544993" lon="15.406292141741444"><ele>482.0</ele><time>2026-05-04T09:34:45.998Z</time></trkpt><trkpt lat="38.133792389257565" lon="15.406291335472321"><ele>482.0</ele><time>2026-05-04T09:34:46.998Z</time></trkpt><trkpt lat="38.133848744278964" lon="15.406249937155032"><ele>482.00000000000006</ele><time>2026-05-04T09:34:47.998Z</time></trkpt><trkpt lat="38.133903270407544" lon="15.406157809780199"><ele>482.00000000000006</ele><time>2026-05-04T09:34:48.998Z</time></trkpt><trkpt lat="38.133953593201824" lon="15.406039719131678"><ele>482.0</ele><time>2026-05-04T09:34:49.998Z</time></trkpt><trkpt lat="38.13398655544275" lon="15.405919753169874"><ele>482.0</ele><time>2026-05-04T09:34:50.998Z</time></trkpt><trkpt lat="38.13402007929458" lon="15.405780915032771"><ele>482.0</ele><time>2026-05-04T09:34:51.998Z</time></trkpt><trkpt lat="38.134038859853625" lon="15.405617106337434"><ele>482.0</ele><time>2026-05-04T09:34:52.998Z</time></trkpt><trkpt lat="38.134071332050304" lon="15.405462549461651"><ele>482.0</ele><time>2026-05-04T09:34:53.998Z</time></trkpt><trkpt lat="38.13413148163749" lon="15.405302204179353"><ele>482.0</ele><time>2026-05-04T09:34:54.998Z</time></trkpt><trkpt lat="38.13417725419085" lon="15.405141628914578"><ele>486.20000000000005</ele><time>2026-05-04T09:34:55.998Z</time></trkpt><trkpt lat="38.13420648505409" lon="15.404994743556607"><ele>490.40000000000003</ele><time>2026-05-04T09:34:56.998Z</time></trkpt><trkpt lat="38.134232083919834" lon="15.404862663515248"><ele>494.59999999999997</ele><time>2026-05-04T09:34:57.999Z</time></trkpt><trkpt lat="38.1342811851276" lon="15.404768713772516"><ele>498.79999999999995</ele><time>2026-05-04T09:34:58.999Z</time></trkpt><trkpt lat="38.13433998021902" lon="15.404735084755705"><ele>503.0</ele><time>2026-05-04T09:34:59.999Z</time></trkpt><trkpt lat="38.1344122972235" lon="15.404735990224356"><ele>502.99999999999994</ele><time>2026-05-04T09:35:00.999Z</time></trkpt><trkpt lat="38.13450739818" lon="15.40474411721084"><ele>503.0</ele><time>2026-05-04T09:35:01.999Z</time></trkpt><trkpt lat="38.13459233830882" lon="15.404752981677511"><ele>503.0</ele><time>2026-05-04T09:35:02.999Z</time></trkpt><trkpt lat="38.1346560612906" lon="15.404737660829923"><ele>503.0</ele><time>2026-05-04T09:35:03.999Z</time></trkpt><trkpt lat="38.13471169294515" lon="15.404679086513017"><ele>502.99999999999994</ele><time>2026-05-04T09:35:04.999Z</time></trkpt><trkpt lat="38.13477411547108" lon="15.404580509953137"><ele>503.0</ele><time>2026-05-04T09:35:05.999Z</time></trkpt><trkpt lat="38.134831307522525" lon="15.404455916710937"><ele>501.59999999999997</ele><time>2026-05-04T09:35:06.999Z</time></trkpt><trkpt lat="38.13490669104475" lon="15.404331341593805"><ele>500.19999999999993</ele><time>2026-05-04T09:35:07.999Z</time></trkpt><trkpt lat="38.13498990617139" lon="15.404228398156196"><ele>498.8</ele><time>2026-05-04T09:35:08.999Z</time></trkpt><trkpt lat="38.135053535139974" lon="15.404134399494538"><ele>497.4</ele><time>2026-05-04T09:35:09.999Z</time></trkpt><trkpt lat="38.13511801470519" lon="15.404075897498005"><ele>496.0</ele><time>2026-05-04T09:35:10.999Z</time></trkpt><trkpt lat="38.1352128807727" lon="15.404055573840097"><ele>496.0</ele><time>2026-05-04T09:35:11.999Z</time></trkpt><trkpt lat="38.13532495138923" lon="15.404027586560185"><ele>496.0</ele><time>2026-05-04T09:35:12.999Z</time></trkpt><trkpt lat="38.13540981829295" lon="15.40399102361217"><ele>496.0</ele><time>2026-05-04T09:35:13.999Z</time></trkpt><trkpt lat="38.13550979655826" lon="15.403957113007655"><ele>496.0</ele><time>2026-05-04T09:35:14.999Z</time></trkpt><trkpt lat="38.13560194365121" lon="15.403916909354463"><ele>496.0</ele><time>2026-05-04T09:35:15.999Z</time></trkpt><trkpt lat="38.13570700243218" lon="15.403904262751945"><ele>500.25</ele><time>2026-05-04T09:35:16.999Z</time></trkpt><trkpt lat="38.13580808756296" lon="15.403885569914522"><ele>504.5</ele><time>2026-05-04T09:35:17.999Z</time></trkpt><trkpt lat="38.13592408126733" lon="15.40382697664916"><ele>508.75</ele><time>2026-05-04T09:35:18.999Z</time></trkpt><trkpt lat="38.136028853675015" lon="15.403737031165178"><ele>513.0</ele><time>2026-05-04T09:35:19.999Z</time></trkpt><trkpt lat="38.13613122937957" lon="15.403644403596601"><ele>509.79999999999995</ele><time>2026-05-04T09:35:20.999Z</time></trkpt><trkpt lat="38.13624187987998" lon="15.403581695604954"><ele>506.59999999999997</ele><time>2026-05-04T09:35:21.999Z</time></trkpt><trkpt lat="38.13635498335989" lon="15.40351668703272"><ele>503.40000000000003</ele><time>2026-05-04T09:35:22.999Z</time></trkpt><trkpt lat="38.13644994583734" lon="15.403452287154924"><ele>500.20000000000005</ele><time>2026-05-04T09:35:23.999Z</time></trkpt><trkpt lat="38.13651927413193" lon="15.403414476409713"><ele>497.0</ele><time>2026-05-04T09:35:24.999Z</time></trkpt><trkpt lat="38.13657887956305" lon="15.403356183315"><ele>496.99999999999994</ele><time>2026-05-04T09:35:25.999Z</time></trkpt><trkpt lat="38.13661886523416" lon="15.403281006878379"><ele>497.0</ele><time>2026-05-04T09:35:26.999Z</time></trkpt><trkpt lat="38.136658816167724" lon="15.403190098588905"><ele>497.0</ele><time>2026-05-04T09:35:27.999Z</time></trkpt><trkpt lat="38.136703217339836" lon="15.403096401406732"><ele>497.0</ele><time>2026-05-04T09:35:28.999Z</time></trkpt><trkpt lat="38.136738634752476" lon="15.402992731592798"><ele>496.99999999999994</ele><time>2026-05-04T09:35:29.999Z</time></trkpt><trkpt lat="38.13676617841506" lon="15.402882041754925"><ele>497.0</ele><time>2026-05-04T09:35:30.999Z</time></trkpt><trkpt lat="38.13679266808053" lon="15.402775425914635"><ele>493.99999999999994</ele><time>2026-05-04T09:35:31.999Z</time></trkpt><trkpt lat="38.13682616920667" lon="15.402676742028383"><ele>491.0</ele><time>2026-05-04T09:35:32.999Z</time></trkpt><trkpt lat="38.136863289483344" lon="15.402582743075337"><ele>488.0</ele><time>2026-05-04T09:35:33.999Z</time></trkpt><trkpt lat="38.13689846379043" lon="15.402482152176782"><ele>485.0</ele><time>2026-05-04T09:35:34.999Z</time></trkpt><trkpt lat="38.13694098682199" lon="15.40238306903604"><ele>481.99999999999994</ele><time>2026-05-04T09:35:35.999Z</time></trkpt><trkpt lat="38.136995336664796" lon="15.402297304974624"><ele>479.0</ele><time>2026-05-04T09:35:36.999Z</time></trkpt><trkpt lat="38.13705699489376" lon="15.40221620312446"><ele>479.66666666666663</ele><time>2026-05-04T09:35:37.999Z</time></trkpt><trkpt lat="38.13711962354679" lon="15.40213889080132"><ele>480.3333333333333</ele><time>2026-05-04T09:35:38.999Z</time></trkpt><trkpt lat="38.13718102880016" lon="15.402059157874136"><ele>481.0</ele><time>2026-05-04T09:35:39.999Z</time></trkpt><trkpt lat="38.13724018378558" lon="15.401973739263607"><ele>481.66666666666663</ele><time>2026-05-04T09:35:40.999Z</time></trkpt><trkpt lat="38.13730312026866" lon="15.401896025252253"><ele>482.3333333333333</ele><time>2026-05-04T09:35:41.999Z</time></trkpt><trkpt lat="38.137363563483255" lon="15.401811885495269"><ele>483.0</ele><time>2026-05-04T09:35:42.999Z</time></trkpt><trkpt lat="38.13741367729867" lon="15.401718934938936"><ele>483.0</ele><time>2026-05-04T09:35:43.999Z</time></trkpt><trkpt lat="38.13745036848639" lon="15.401624433913504"><ele>483.0</ele><time>2026-05-04T09:35:44.999Z</time></trkpt><trkpt lat="38.13748377327684" lon="15.401538805006378"><ele>483.0</ele><time>2026-05-04T09:35:45.999Z</time></trkpt><trkpt lat="38.137507803964205" lon="15.401419541809709"><ele>483.0</ele><time>2026-05-04T09:35:46.999Z</time></trkpt><trkpt lat="38.13752777479642" lon="15.401322837438475"><ele>483.0</ele><time>2026-05-04T09:35:47.999Z</time></trkpt><trkpt lat="38.137546777827104" lon="15.401229134901966"><ele>483.0</ele><time>2026-05-04T09:35:48.999Z</time></trkpt><trkpt lat="38.13756167216081" lon="15.40113985981133"><ele>479.3333333333333</ele><time>2026-05-04T09:35:49.999Z</time></trkpt><trkpt lat="38.13756895434019" lon="15.401028892740014"><ele>475.66666666666663</ele><time>2026-05-04T09:35:50.999Z</time></trkpt><trkpt lat="38.13756367233985" lon="15.40093118320932"><ele>472.0</ele><time>2026-05-04T09:35:51.999Z</time></trkpt><trkpt lat="38.13755865771936" lon="15.40082790024731"><ele>468.3333333333333</ele><time>2026-05-04T09:35:52.999Z</time></trkpt><trkpt lat="38.13756188730592" lon="15.400728621494627"><ele>464.66666666666663</ele><time>2026-05-04T09:35:53.999Z</time></trkpt><trkpt lat="38.13758289561664" lon="15.400642885289658"><ele>461.0</ele><time>2026-05-04T09:35:54.999Z</time></trkpt><trkpt lat="38.13761758041731" lon="15.400556008792002"><ele>459.4</ele><time>2026-05-04T09:35:55.999Z</time></trkpt><trkpt lat="38.13767152361399" lon="15.400463089887213"><ele>457.8</ele><time>2026-05-04T09:35:56.999Z</time></trkpt><trkpt lat="38.13771861899487" lon="15.400362304382572"><ele>456.19999999999993</ele><time>2026-05-04T09:35:57.999Z</time></trkpt><trkpt lat="38.13775091365302" lon="15.400251433994809"><ele>454.59999999999997</ele><time>2026-05-04T09:35:58.999Z</time></trkpt><trkpt lat="38.13777130575566" lon="15.40013382182007"><ele>453.0</ele><time>2026-05-04T09:35:59.999Z</time></trkpt><trkpt lat="38.137793381998826" lon="15.400016429842546"><ele>453.0</ele><time>2026-05-04T09:36:00.999Z</time></trkpt><trkpt lat="38.13781774775378" lon="15.399900604084156"><ele>452.99999999999994</ele><time>2026-05-04T09:36:01.999Z</time></trkpt><trkpt lat="38.13784844753674" lon="15.39978521897485"><ele>452.99999999999994</ele><time>2026-05-04T09:36:02.999Z</time></trkpt><trkpt lat="38.137876435991316" lon="15.399671908714566"><ele>453.0</ele><time>2026-05-04T09:36:03.999Z</time></trkpt><trkpt lat="38.13789998414133" lon="15.399549400969711"><ele>453.0</ele><time>2026-05-04T09:36:04.999Z</time></trkpt><trkpt lat="38.137932448759486" lon="15.39943625936725"><ele>455.2</ele><time>2026-05-04T09:36:05.999Z</time></trkpt><trkpt lat="38.13797754850143" lon="15.39933287264789"><ele>457.4</ele><time>2026-05-04T09:36:06.999Z</time></trkpt><trkpt lat="38.13803948106551" lon="15.399246605548168"><ele>459.59999999999997</ele><time>2026-05-04T09:36:07.999Z</time></trkpt><trkpt lat="38.138118399835975" lon="15.39917609717414"><ele>461.79999999999995</ele><time>2026-05-04T09:36:08.999Z</time></trkpt><trkpt lat="38.138200617303674" lon="15.399119718548132"><ele>464.0</ele><time>2026-05-04T09:36:09.998Z</time></trkpt><trkpt lat="38.1382884271272" lon="15.39907681988429"><ele>464.0</ele><time>2026-05-04T09:36:10.998Z</time></trkpt><trkpt lat="38.13837197760658" lon="15.399030261119831"><ele>464.0</ele><time>2026-05-04T09:36:11.998Z</time></trkpt><trkpt lat="38.138445579150265" lon="15.39894903194664"><ele>464.0</ele><time>2026-05-04T09:36:12.998Z</time></trkpt><trkpt lat="38.13849646632968" lon="15.39884116900687"><ele>464.0</ele><time>2026-05-04T09:36:13.998Z</time></trkpt><trkpt lat="38.13853768078924" lon="15.398727584571207"><ele>464.0</ele><time>2026-05-04T09:36:14.998Z</time></trkpt><trkpt lat="38.13857959097491" lon="15.39860148266642"><ele>458.6</ele><time>2026-05-04T09:36:15.998Z</time></trkpt><trkpt lat="38.13862442439164" lon="15.398470268429808"><ele>453.2</ele><time>2026-05-04T09:36:16.998Z</time></trkpt><trkpt lat="38.138674917281826" lon="15.39834325700875"><ele>447.80000000000007</ele><time>2026-05-04T09:36:17.998Z</time></trkpt><trkpt lat="38.138731324129836" lon="15.398224570817412"><ele>442.40000000000003</ele><time>2026-05-04T09:36:18.998Z</time></trkpt><trkpt lat="38.13878892313574" lon="15.398106582061844"><ele>437.0</ele><time>2026-05-04T09:36:19.998Z</time></trkpt><trkpt lat="38.13884894847793" lon="15.397989498481055"><ele>437.6</ele><time>2026-05-04T09:36:20.998Z</time></trkpt><trkpt lat="38.13891470692642" lon="15.397875951787086"><ele>438.20000000000005</ele><time>2026-05-04T09:36:21.998Z</time></trkpt><trkpt lat="38.13898356102167" lon="15.397770832862609"><ele>438.8</ele><time>2026-05-04T09:36:22.998Z</time></trkpt><trkpt lat="38.13904447061014" lon="15.39766670229813"><ele>439.4</ele><time>2026-05-04T09:36:23.998Z</time></trkpt><trkpt lat="38.13910414005578" lon="15.397552134576719"><ele>440.0</ele><time>2026-05-04T09:36:24.998Z</time></trkpt><trkpt lat="38.13917064003121" lon="15.39744173353475"><ele>440.0</ele><time>2026-05-04T09:36:25.998Z</time></trkpt><trkpt lat="38.13924082189399" lon="15.397350612838071"><ele>440.0</ele><time>2026-05-04T09:36:26.998Z</time></trkpt><trkpt lat="38.13931730973691" lon="15.397271203900141"><ele>440.0</ele><time>2026-05-04T09:36:27.998Z</time></trkpt><trkpt lat="38.13941291444542" lon="15.397199895545622"><ele>440.0</ele><time>2026-05-04T09:36:28.998Z</time></trkpt><trkpt lat="38.13950738974392" lon="15.397145831954377"><ele>440.0</ele><time>2026-05-04T09:36:29.998Z</time></trkpt><trkpt lat="38.13959380144955" lon="15.397101481373445"><ele>436.16666666666663</ele><time>2026-05-04T09:36:30.998Z</time></trkpt><trkpt lat="38.13968078788521" lon="15.397073173781298"><ele>432.3333333333333</ele><time>2026-05-04T09:36:31.998Z</time></trkpt><trkpt lat="38.13977069946571" lon="15.397064246686062"><ele>428.5</ele><time>2026-05-04T09:36:32.998Z</time></trkpt><trkpt lat="38.13986458229615" lon="15.397085751773432"><ele>424.66666666666663</ele><time>2026-05-04T09:36:33.998Z</time></trkpt><trkpt lat="38.13994865650791" lon="15.39711376101767"><ele>420.8333333333333</ele><time>2026-05-04T09:36:34.998Z</time></trkpt><trkpt lat="38.140028525448514" lon="15.397121081278998"><ele>417.0</ele><time>2026-05-04T09:36:35.998Z</time></trkpt><trkpt lat="38.140108268045964" lon="15.39707378685949"><ele>417.0</ele><time>2026-05-04T09:36:36.998Z</time></trkpt><trkpt lat="38.14016252503925" lon="15.3970207935252"><ele>417.0</ele><time>2026-05-04T09:36:37.998Z</time></trkpt><trkpt lat="38.14019877475973" lon="15.396941947314078"><ele>417.0</ele><time>2026-05-04T09:36:38.998Z</time></trkpt><trkpt lat="38.14021628596118" lon="15.396836557514451"><ele>417.0</ele><time>2026-05-04T09:36:39.998Z</time></trkpt><trkpt lat="38.14021676243768" lon="15.396711651215286"><ele>417.0</ele><time>2026-05-04T09:36:40.998Z</time></trkpt><trkpt lat="38.14021186210835" lon="15.396580899700357"><ele>417.0</ele><time>2026-05-04T09:36:41.998Z</time></trkpt><trkpt lat="38.140216999871086" lon="15.396454894401272"><ele>417.0</ele><time>2026-05-04T09:36:42.998Z</time></trkpt><trkpt lat="38.14022379997751" lon="15.396337647890897"><ele>417.0</ele><time>2026-05-04T09:36:43.998Z</time></trkpt><trkpt lat="38.14023766073266" lon="15.39622939650271"><ele>417.0</ele><time>2026-05-04T09:36:44.998Z</time></trkpt><trkpt lat="38.14027401171208" lon="15.396133403800402"><ele>417.0</ele><time>2026-05-04T09:36:45.998Z</time></trkpt><trkpt lat="38.14033324991484" lon="15.39604907568373"><ele>417.0</ele><time>2026-05-04T09:36:46.998Z</time></trkpt><trkpt lat="38.14041919686165" lon="15.395969863073507"><ele>418.25</ele><time>2026-05-04T09:36:47.998Z</time></trkpt><trkpt lat="38.14051908095477" lon="15.395868824925671"><ele>419.5</ele><time>2026-05-04T09:36:48.998Z</time></trkpt><trkpt lat="38.14062041516204" lon="15.395759093509161"><ele>420.75</ele><time>2026-05-04T09:36:49.998Z</time></trkpt><trkpt lat="38.14070839647576" lon="15.395663653362872"><ele>422.0</ele><time>2026-05-04T09:36:50.998Z</time></trkpt><trkpt lat="38.140771757555314" lon="15.395563928575111"><ele>421.6</ele><time>2026-05-04T09:36:51.998Z</time></trkpt><trkpt lat="38.14080693333388" lon="15.395459518849249"><ele>421.20000000000005</ele><time>2026-05-04T09:36:52.998Z</time></trkpt><trkpt lat="38.14081490630811" lon="15.39533089850549"><ele>420.8</ele><time>2026-05-04T09:36:53.998Z</time></trkpt><trkpt lat="38.14081649292284" lon="15.395187929620507"><ele>420.4</ele><time>2026-05-04T09:36:54.998Z</time></trkpt><trkpt lat="38.14082563727789" lon="15.395043096802848"><ele>420.0</ele><time>2026-05-04T09:36:55.998Z</time></trkpt><trkpt lat="38.14085169505818" lon="15.394884805624605"><ele>420.0</ele><time>2026-05-04T09:36:56.998Z</time></trkpt><trkpt lat="38.14089423446241" lon="15.394726182409757"><ele>420.0</ele><time>2026-05-04T09:36:57.998Z</time></trkpt><trkpt lat="38.14093559251094" lon="15.394575018582898"><ele>420.0</ele><time>2026-05-04T09:36:58.998Z</time></trkpt><trkpt lat="38.14097221699724" lon="15.394428127370423"><ele>420.0</ele><time>2026-05-04T09:36:59.998Z</time></trkpt><trkpt lat="38.141011209358034" lon="15.394277429093114"><ele>418.2</ele><time>2026-05-04T09:37:00.998Z</time></trkpt><trkpt lat="38.14105626782208" lon="15.394131288687602"><ele>416.4</ele><time>2026-05-04T09:37:01.998Z</time></trkpt><trkpt lat="38.14110392455947" lon="15.393992709011465"><ele>414.6</ele><time>2026-05-04T09:37:03Z</time></trkpt><trkpt lat="38.14115170342113" lon="15.393862903759425"><ele>412.8</ele><time>2026-05-04T09:37:04Z</time></trkpt><trkpt lat="38.1411986576599" lon="15.393759778238927"><ele>411.0</ele><time>2026-05-04T09:37:05Z</time></trkpt><trkpt lat="38.14124807600996" lon="15.39367920436627"><ele>411.0</ele><time>2026-05-04T09:37:06Z</time></trkpt><trkpt lat="38.141305770854935" lon="15.393624806216568"><ele>411.0</ele><time>2026-05-04T09:37:07Z</time></trkpt><trkpt lat="38.14138078755096" lon="15.39358860357788"><ele>411.0</ele><time>2026-05-04T09:37:08Z</time></trkpt><trkpt lat="38.14145578490244" lon="15.393549024852499"><ele>411.0</ele><time>2026-05-04T09:37:09Z</time></trkpt><trkpt lat="38.14152041196737" lon="15.393480819149225"><ele>411.0</ele><time>2026-05-04T09:37:10Z</time></trkpt><trkpt lat="38.1415808226564" lon="15.393388732515701"><ele>411.0</ele><time>2026-05-04T09:37:11Z</time></trkpt><trkpt lat="38.14162696137623" lon="15.39327506176935"><ele>412.8</ele><time>2026-05-04T09:37:12Z</time></trkpt><trkpt lat="38.141676906626955" lon="15.393148820330461"><ele>414.6</ele><time>2026-05-04T09:37:13Z</time></trkpt><trkpt lat="38.141733157356676" lon="15.393029832507581"><ele>416.4</ele><time>2026-05-04T09:37:14Z</time></trkpt><trkpt lat="38.14180587058733" lon="15.392923297597982"><ele>418.2</ele><time>2026-05-04T09:37:15Z</time></trkpt><trkpt lat="38.1418885328049" lon="15.392823360186181"><ele>420.0</ele><time>2026-05-04T09:37:16Z</time></trkpt><trkpt lat="38.141978770946736" lon="15.392723890055407"><ele>420.6</ele><time>2026-05-04T09:37:17Z</time></trkpt><trkpt lat="38.142066210080635" lon="15.392632765095556"><ele>421.2</ele><time>2026-05-04T09:37:18Z</time></trkpt><trkpt lat="38.14214547951591" lon="15.392555067660055"><ele>421.79999999999995</ele><time>2026-05-04T09:37:19Z</time></trkpt><trkpt lat="38.14221878548244" lon="15.392485044148495"><ele>422.4</ele><time>2026-05-04T09:37:20Z</time></trkpt><trkpt lat="38.142285215705684" lon="15.392437264631312"><ele>423.0</ele><time>2026-05-04T09:37:20.999Z</time></trkpt><trkpt lat="38.14241501788217" lon="15.392410590104955"><ele>423.0</ele><time>2026-05-04T09:37:22.999Z</time></trkpt><trkpt lat="38.142492779644655" lon="15.392451797085863"><ele>423.0</ele><time>2026-05-04T09:37:23.999Z</time></trkpt><trkpt lat="38.14253881740625" lon="15.392558813023772"><ele>423.0</ele><time>2026-05-04T09:37:24.999Z</time></trkpt><trkpt lat="38.142603541492186" lon="15.392617924864949"><ele>423.0</ele><time>2026-05-04T09:37:25.999Z</time></trkpt><trkpt lat="38.14268750376664" lon="15.392660035810362"><ele>423.0</ele><time>2026-05-04T09:37:26.999Z</time></trkpt><trkpt lat="38.14277205811043" lon="15.392666914750162"><ele>423.0</ele><time>2026-05-04T09:37:27.999Z</time></trkpt><trkpt lat="38.14285628172839" lon="15.392584093805045"><ele>423.0</ele><time>2026-05-04T09:37:28.999Z</time></trkpt><trkpt lat="38.1429364513336" lon="15.392503277232342"><ele>423.0</ele><time>2026-05-04T09:37:29.999Z</time></trkpt><trkpt lat="38.143016822301405" lon="15.392417752886299"><ele>423.0</ele><time>2026-05-04T09:37:30.999Z</time></trkpt><trkpt lat="38.14309786469391" lon="15.392322219102887"><ele>423.0</ele><time>2026-05-04T09:37:31.999Z</time></trkpt><trkpt lat="38.14316534837704" lon="15.392210144991623"><ele>423.0</ele><time>2026-05-04T09:37:32.999Z</time></trkpt><trkpt lat="38.14321102128316" lon="15.392097648845613"><ele>421.0</ele><time>2026-05-04T09:37:33.999Z</time></trkpt><trkpt lat="38.14324937530095" lon="15.391980808263797"><ele>419.0</ele><time>2026-05-04T09:37:34.999Z</time></trkpt><trkpt lat="38.14327210233708" lon="15.391854622725534"><ele>417.0</ele><time>2026-05-04T09:37:35.999Z</time></trkpt><trkpt lat="38.143274667373525" lon="15.391713761052317"><ele>415.0</ele><time>2026-05-04T09:37:36.999Z</time></trkpt><trkpt lat="38.143263524846674" lon="15.39156137618533"><ele>413.0</ele><time>2026-05-04T09:37:37.999Z</time></trkpt><trkpt lat="38.14325571266296" lon="15.391404964248824"><ele>411.75</ele><time>2026-05-04T09:37:38.999Z</time></trkpt><trkpt lat="38.143262165323875" lon="15.391252579538367"><ele>410.5</ele><time>2026-05-04T09:37:39.999Z</time></trkpt><trkpt lat="38.143278501654684" lon="15.39110325721094"><ele>409.25</ele><time>2026-05-04T09:37:40.999Z</time></trkpt><trkpt lat="38.143304644447866" lon="15.39095636768884"><ele>408.0</ele><time>2026-05-04T09:37:41.999Z</time></trkpt><trkpt lat="38.143334192960836" lon="15.390819303465138"><ele>408.0</ele><time>2026-05-04T09:37:42.999Z</time></trkpt><trkpt lat="38.14336535754505" lon="15.39068753448899"><ele>408.0</ele><time>2026-05-04T09:37:43.999Z</time></trkpt><trkpt lat="38.143399752284985" lon="15.390562574658519"><ele>408.0</ele><time>2026-05-04T09:37:44.999Z</time></trkpt><trkpt lat="38.14345280067298" lon="15.390457111729585"><ele>408.0</ele><time>2026-05-04T09:37:45.999Z</time></trkpt><trkpt lat="38.14351683405399" lon="15.390357312989089"><ele>408.0</ele><time>2026-05-04T09:37:46.999Z</time></trkpt><trkpt lat="38.14360692303165" lon="15.39028998729896"><ele>404.4</ele><time>2026-05-04T09:37:47.999Z</time></trkpt><trkpt lat="38.14368678982455" lon="15.390200437203196"><ele>400.79999999999995</ele><time>2026-05-04T09:37:48.999Z</time></trkpt><trkpt lat="38.14378000977241" lon="15.39012816946488"><ele>397.2</ele><time>2026-05-04T09:37:49.999Z</time></trkpt><trkpt lat="38.1438826727404" lon="15.390077814661266"><ele>393.6</ele><time>2026-05-04T09:37:50.999Z</time></trkpt><trkpt lat="38.14398815603734" lon="15.390025155901025"><ele>390.0</ele><time>2026-05-04T09:37:51.999Z</time></trkpt><trkpt lat="38.144098352845745" lon="15.389977031724632"><ele>389.75</ele><time>2026-05-04T09:37:52.999Z</time></trkpt><trkpt lat="38.14421260998604" lon="15.389929085520242"><ele>389.5</ele><time>2026-05-04T09:37:53.999Z</time></trkpt><trkpt lat="38.144325819647115" lon="15.389857725613995"><ele>389.25</ele><time>2026-05-04T09:37:54.999Z</time></trkpt><trkpt lat="38.14443845303294" lon="15.389810930393606"><ele>389.0</ele><time>2026-05-04T09:37:55.999Z</time></trkpt><trkpt lat="38.14454816212855" lon="15.3897584597205"><ele>389.0</ele><time>2026-05-04T09:37:56.999Z</time></trkpt><trkpt lat="38.14465139751228" lon="15.389700274240923"><ele>389.0</ele><time>2026-05-04T09:37:57.999Z</time></trkpt><trkpt lat="38.144744701645436" lon="15.389630260074409"><ele>389.0</ele><time>2026-05-04T09:37:58.999Z</time></trkpt><trkpt lat="38.1448131786841" lon="15.389530204964478"><ele>389.0</ele><time>2026-05-04T09:37:59.999Z</time></trkpt><trkpt lat="38.14487063891466" lon="15.389421896094184"><ele>389.0</ele><time>2026-05-04T09:38:00.999Z</time></trkpt><trkpt lat="38.144919364204604" lon="15.389315658068693"><ele>388.0</ele><time>2026-05-04T09:38:01.999Z</time></trkpt><trkpt lat="38.14497825301163" lon="15.38921334678366"><ele>387.0</ele><time>2026-05-04T09:38:02.999Z</time></trkpt><trkpt lat="38.14502485281877" lon="15.389113380590995"><ele>386.0</ele><time>2026-05-04T09:38:03.999Z</time></trkpt><trkpt lat="38.14507911394233" lon="15.389013441594109"><ele>385.0</ele><time>2026-05-04T09:38:04.999Z</time></trkpt><trkpt lat="38.14513032936119" lon="15.388913037902297"><ele>384.0</ele><time>2026-05-04T09:38:05.999Z</time></trkpt><trkpt lat="38.14518038902894" lon="15.388814414389147"><ele>382.6</ele><time>2026-05-04T09:38:06.999Z</time></trkpt><trkpt lat="38.145235837096486" lon="15.388719071670003"><ele>381.2</ele><time>2026-05-04T09:38:07.999Z</time></trkpt><trkpt lat="38.1452938796663" lon="15.388634286584585"><ele>379.8</ele><time>2026-05-04T09:38:08.999Z</time></trkpt><trkpt lat="38.145357126703026" lon="15.388550242242887"><ele>378.40000000000003</ele><time>2026-05-04T09:38:09.999Z</time></trkpt><trkpt lat="38.14542804168695" lon="15.388476199822486"><ele>377.0</ele><time>2026-05-04T09:38:10.999Z</time></trkpt><trkpt lat="38.145504554810735" lon="15.38840416087191"><ele>377.0</ele><time>2026-05-04T09:38:11.999Z</time></trkpt><trkpt lat="38.14558762602259" lon="15.388338238537447"><ele>377.0</ele><time>2026-05-04T09:38:12.999Z</time></trkpt><trkpt lat="38.14566919504634" lon="15.38827834447787"><ele>377.0</ele><time>2026-05-04T09:38:13.999Z</time></trkpt><trkpt lat="38.14575443463337" lon="15.388223722372476"><ele>377.0</ele><time>2026-05-04T09:38:14.999Z</time></trkpt><trkpt lat="38.1458341003709" lon="15.388153582752366"><ele>377.0</ele><time>2026-05-04T09:38:15.999Z</time></trkpt><trkpt lat="38.145892507182495" lon="15.388065934571003"><ele>375.6</ele><time>2026-05-04T09:38:16.999Z</time></trkpt><trkpt lat="38.14593581575258" lon="15.387953591557114"><ele>374.20000000000005</ele><time>2026-05-04T09:38:17.999Z</time></trkpt><trkpt lat="38.14596982251902" lon="15.387843599781897"><ele>372.8</ele><time>2026-05-04T09:38:18.998Z</time></trkpt><trkpt lat="38.14600923052338" lon="15.387736406653493"><ele>371.4</ele><time>2026-05-04T09:38:19.998Z</time></trkpt><trkpt lat="38.14605506905659" lon="15.387628129077507"><ele>370.0</ele><time>2026-05-04T09:38:20.998Z</time></trkpt><trkpt lat="38.14611367029729" lon="15.387526849307529"><ele>370.0</ele><time>2026-05-04T09:38:21.998Z</time></trkpt><trkpt lat="38.14619048045714" lon="15.387445596908728"><ele>370.0</ele><time>2026-05-04T09:38:22.998Z</time></trkpt><trkpt lat="38.14628362285069" lon="15.387386341751146"><ele>370.0</ele><time>2026-05-04T09:38:23.998Z</time></trkpt><trkpt lat="38.1463884335253" lon="15.387341557649185"><ele>370.0</ele><time>2026-05-04T09:38:24.998Z</time></trkpt><trkpt lat="38.146497473421356" lon="15.387316058549516"><ele>370.0</ele><time>2026-05-04T09:38:25.998Z</time></trkpt><trkpt lat="38.146602974178634" lon="15.387286404797369"><ele>368.0</ele><time>2026-05-04T09:38:26.998Z</time></trkpt><trkpt lat="38.14671297286583" lon="15.387253144897159"><ele>366.0</ele><time>2026-05-04T09:38:27.998Z</time></trkpt><trkpt lat="38.14682570936269" lon="15.387212371692728"><ele>364.0</ele><time>2026-05-04T09:38:28.998Z</time></trkpt><trkpt lat="38.146930822631525" lon="15.38715548262935"><ele>362.0</ele><time>2026-05-04T09:38:29.998Z</time></trkpt><trkpt lat="38.147028429439395" lon="15.387079560488136"><ele>357.5</ele><time>2026-05-04T09:38:30.998Z</time></trkpt><trkpt lat="38.147117346419975" lon="15.386983618459514"><ele>353.0</ele><time>2026-05-04T09:38:31.998Z</time></trkpt><trkpt lat="38.14719615753496" lon="15.386867300575172"><ele>348.5</ele><time>2026-05-04T09:38:32.998Z</time></trkpt><trkpt lat="38.147262279238056" lon="15.386745820986818"><ele>344.0</ele><time>2026-05-04T09:38:33.998Z</time></trkpt><trkpt lat="38.14732481780577" lon="15.386626197703345"><ele>345.0</ele><time>2026-05-04T09:38:34.998Z</time></trkpt><trkpt lat="38.1473884416155" lon="15.386512988817994"><ele>346.0</ele><time>2026-05-04T09:38:35.998Z</time></trkpt><trkpt lat="38.14745042668148" lon="15.386402065857958"><ele>347.0</ele><time>2026-05-04T09:38:36.998Z</time></trkpt><trkpt lat="38.14750821341084" lon="15.386289525733382"><ele>348.0</ele><time>2026-05-04T09:38:37.998Z</time></trkpt><trkpt lat="38.1475662476964" lon="15.386179810726155"><ele>349.0</ele><time>2026-05-04T09:38:38.998Z</time></trkpt><trkpt lat="38.1476288760136" lon="15.386078446398859"><ele>349.0</ele><time>2026-05-04T09:38:39.998Z</time></trkpt><trkpt lat="38.14769641408978" lon="15.385980485121237"><ele>349.0</ele><time>2026-05-04T09:38:40.998Z</time></trkpt><trkpt lat="38.14777231263848" lon="15.38589586568002"><ele>349.0</ele><time>2026-05-04T09:38:41.998Z</time></trkpt><trkpt lat="38.14785748052648" lon="15.38582265600086"><ele>349.0</ele><time>2026-05-04T09:38:42.998Z</time></trkpt><trkpt lat="38.147946735686666" lon="15.385749597644192"><ele>349.0</ele><time>2026-05-04T09:38:43.998Z</time></trkpt><trkpt lat="38.14803794197765" lon="15.385689930679499"><ele>349.0</ele><time>2026-05-04T09:38:44.998Z</time></trkpt><trkpt lat="38.14813297523297" lon="15.385638580357913"><ele>349.0</ele><time>2026-05-04T09:38:45.998Z</time></trkpt><trkpt lat="38.1482306130066" lon="15.38558782126018"><ele>349.0</ele><time>2026-05-04T09:38:46.998Z</time></trkpt><trkpt lat="38.14833161359247" lon="15.385536866814078"><ele>349.0</ele><time>2026-05-04T09:38:47.998Z</time></trkpt><trkpt lat="38.14843430737675" lon="15.38548920429398"><ele>349.0</ele><time>2026-05-04T09:38:48.998Z</time></trkpt><trkpt lat="38.148533660213346" lon="15.38544123020576"><ele>343.25</ele><time>2026-05-04T09:38:49.998Z</time></trkpt><trkpt lat="38.148637615794925" lon="15.385395325793679"><ele>337.5</ele><time>2026-05-04T09:38:50.998Z</time></trkpt><trkpt lat="38.14874856207647" lon="15.38535100049848"><ele>331.75</ele><time>2026-05-04T09:38:51.998Z</time></trkpt><trkpt lat="38.14885453613647" lon="15.385297033678592"><ele>326.0</ele><time>2026-05-04T09:38:52.998Z</time></trkpt><trkpt lat="38.14896674187737" lon="15.385236945940207"><ele>327.75</ele><time>2026-05-04T09:38:53.998Z</time></trkpt><trkpt lat="38.14907701602243" lon="15.385167002007806"><ele>329.5</ele><time>2026-05-04T09:38:54.998Z</time></trkpt><trkpt lat="38.149189057384845" lon="15.385089726675893"><ele>331.25</ele><time>2026-05-04T09:38:55.998Z</time></trkpt><trkpt lat="38.14929583547523" lon="15.384989890557955"><ele>333.0</ele><time>2026-05-04T09:38:56.998Z</time></trkpt><trkpt lat="38.149400630813446" lon="15.384880934059542"><ele>333.0</ele><time>2026-05-04T09:38:57.998Z</time></trkpt><trkpt lat="38.14950336645036" lon="15.384763636471165"><ele>333.0</ele><time>2026-05-04T09:38:58.998Z</time></trkpt><trkpt lat="38.14960104155217" lon="15.38463622696133"><ele>333.0</ele><time>2026-05-04T09:38:59.998Z</time></trkpt><trkpt lat="38.149698818059356" lon="15.384513856407736"><ele>333.0</ele><time>2026-05-04T09:39:00.998Z</time></trkpt><trkpt lat="38.14980345501797" lon="15.384397883523667"><ele>331.25</ele><time>2026-05-04T09:39:01.998Z</time></trkpt><trkpt lat="38.14991138936367" lon="15.384277831479164"><ele>329.5</ele><time>2026-05-04T09:39:02.998Z</time></trkpt><trkpt lat="38.15001814238209" lon="15.384163213079434"><ele>327.75</ele><time>2026-05-04T09:39:03.998Z</time></trkpt><trkpt lat="38.150125698144755" lon="15.384039648973763"><ele>326.0</ele><time>2026-05-04T09:39:04.998Z</time></trkpt><trkpt lat="38.150232370749784" lon="15.383921529630955"><ele>323.5</ele><time>2026-05-04T09:39:05.998Z</time></trkpt><trkpt lat="38.15033262326199" lon="15.383816480572417"><ele>321.0</ele><time>2026-05-04T09:39:06.998Z</time></trkpt><trkpt lat="38.150449176833895" lon="15.383726060045044"><ele>318.5</ele><time>2026-05-04T09:39:07.998Z</time></trkpt><trkpt lat="38.150550356456506" lon="15.383658033684997"><ele>316.0</ele><time>2026-05-04T09:39:09Z</time></trkpt><trkpt lat="38.150641071870524" lon="15.383605005403638"><ele>314.40000000000003</ele><time>2026-05-04T09:39:10Z</time></trkpt><trkpt lat="38.15072735380205" lon="15.383566044967917"><ele>312.8</ele><time>2026-05-04T09:39:11Z</time></trkpt><trkpt lat="38.15081524748341" lon="15.383587619814621"><ele>311.20000000000005</ele><time>2026-05-04T09:39:12Z</time></trkpt><trkpt lat="38.15092247225159" lon="15.383590723437779"><ele>309.6</ele><time>2026-05-04T09:39:13Z</time></trkpt><trkpt lat="38.151025925551025" lon="15.383611671013378"><ele>308.0</ele><time>2026-05-04T09:39:14Z</time></trkpt><trkpt lat="38.15112203901595" lon="15.383632607570682"><ele>308.0</ele><time>2026-05-04T09:39:15Z</time></trkpt><trkpt lat="38.15120787342302" lon="15.383651522196311"><ele>308.0</ele><time>2026-05-04T09:39:16Z</time></trkpt><trkpt lat="38.151303961237694" lon="15.383646022709337"><ele>308.0</ele><time>2026-05-04T09:39:17Z</time></trkpt><trkpt lat="38.15139798243561" lon="15.383625574210267"><ele>308.0</ele><time>2026-05-04T09:39:18Z</time></trkpt><trkpt lat="38.151491335407414" lon="15.383588410905807"><ele>308.0</ele><time>2026-05-04T09:39:19Z</time></trkpt><trkpt lat="38.15159406374186" lon="15.383533489492708"><ele>307.2</ele><time>2026-05-04T09:39:20Z</time></trkpt><trkpt lat="38.1516963864983" lon="15.3835073771427"><ele>306.4</ele><time>2026-05-04T09:39:21Z</time></trkpt><trkpt lat="38.15179749026057" lon="15.383461657856722"><ele>305.59999999999997</ele><time>2026-05-04T09:39:22Z</time></trkpt><trkpt lat="38.151891176675484" lon="15.383402751934046"><ele>304.8</ele><time>2026-05-04T09:39:23Z</time></trkpt><trkpt lat="38.15199524743559" lon="15.38336499427245"><ele>304.0</ele><time>2026-05-04T09:39:24Z</time></trkpt><trkpt lat="38.15210042023331" lon="15.383332307062986"><ele>304.0</ele><time>2026-05-04T09:39:25Z</time></trkpt><trkpt lat="38.15220443442023" lon="15.383304576770763"><ele>304.0</ele><time>2026-05-04T09:39:26Z</time></trkpt><trkpt lat="38.15231214840924" lon="15.38327537907325"><ele>304.0</ele><time>2026-05-04T09:39:27Z</time></trkpt><trkpt lat="38.1524258075911" lon="15.383253682854408"><ele>304.0</ele><time>2026-05-04T09:39:28Z</time></trkpt><trkpt lat="38.152545341874976" lon="15.383242418964926"><ele>301.2</ele><time>2026-05-04T09:39:28.999Z</time></trkpt><trkpt lat="38.15266140236296" lon="15.383236472347596"><ele>298.4</ele><time>2026-05-04T09:39:29.999Z</time></trkpt><trkpt lat="38.152773911203575" lon="15.3832336686835"><ele>295.6</ele><time>2026-05-04T09:39:30.999Z</time></trkpt><trkpt lat="38.15287920728329" lon="15.383232270666563"><ele>292.8</ele><time>2026-05-04T09:39:31.999Z</time></trkpt><trkpt lat="38.152980496290624" lon="15.383243577151305"><ele>290.0</ele><time>2026-05-04T09:39:32.999Z</time></trkpt><trkpt lat="38.15307902915737" lon="15.383249873695346"><ele>290.0</ele><time>2026-05-04T09:39:33.999Z</time></trkpt><trkpt lat="38.15317181843736" lon="15.383229814514223"><ele>290.0</ele><time>2026-05-04T09:39:34.999Z</time></trkpt><trkpt lat="38.15325559315108" lon="15.383218225233499"><ele>290.0</ele><time>2026-05-04T09:39:35.999Z</time></trkpt><trkpt lat="38.15333370518489" lon="15.383189834575239"><ele>290.0</ele><time>2026-05-04T09:39:36.999Z</time></trkpt><trkpt lat="38.153401739257234" lon="15.383154583788981"><ele>290.0</ele><time>2026-05-04T09:39:37.999Z</time></trkpt><trkpt lat="38.15347596086208" lon="15.383089403496054"><ele>290.0</ele><time>2026-05-04T09:39:38.999Z</time></trkpt><trkpt lat="38.15356955324218" lon="15.38301226463543"><ele>290.0</ele><time>2026-05-04T09:39:39.999Z</time></trkpt><trkpt lat="38.153666154260605" lon="15.382931302012182"><ele>290.0</ele><time>2026-05-04T09:39:40.999Z</time></trkpt><trkpt lat="38.15374268460512" lon="15.382845591612133"><ele>290.0</ele><time>2026-05-04T09:39:41.999Z</time></trkpt><trkpt lat="38.15380198506211" lon="15.38272676133738"><ele>290.0</ele><time>2026-05-04T09:39:42.999Z</time></trkpt><trkpt lat="38.15383585096229" lon="15.382588600639771"><ele>290.0</ele><time>2026-05-04T09:39:43.999Z</time></trkpt><trkpt lat="38.153846208883714" lon="15.38243062990634"><ele>290.0</ele><time>2026-05-04T09:39:44.999Z</time></trkpt><trkpt lat="38.15384089886994" lon="15.382257409685664"><ele>290.0</ele><time>2026-05-04T09:39:45.999Z</time></trkpt><trkpt lat="38.15386553951968" lon="15.382088514441302"><ele>290.0</ele><time>2026-05-04T09:39:46.999Z</time></trkpt><trkpt lat="38.15392208110552" lon="15.381917181538535"><ele>290.0</ele><time>2026-05-04T09:39:47.999Z</time></trkpt><trkpt lat="38.154004497544626" lon="15.3817389977677"><ele>291.5</ele><time>2026-05-04T09:39:48.999Z</time></trkpt><trkpt lat="38.15408861616363" lon="15.38158637545282"><ele>293.0</ele><time>2026-05-04T09:39:49.999Z</time></trkpt><trkpt lat="38.15417967641812" lon="15.381448851076772"><ele>294.5</ele><time>2026-05-04T09:39:50.999Z</time></trkpt><trkpt lat="38.15428496127033" lon="15.38132826999571"><ele>296.0</ele><time>2026-05-04T09:39:51.999Z</time></trkpt><trkpt lat="38.154399196852765" lon="15.381222538417326"><ele>296.0</ele><time>2026-05-04T09:39:52.999Z</time></trkpt><trkpt lat="38.15451828560162" lon="15.381136889423178"><ele>296.0</ele><time>2026-05-04T09:39:53.999Z</time></trkpt><trkpt lat="38.15462501394481" lon="15.381056463995382"><ele>296.0</ele><time>2026-05-04T09:39:54.999Z</time></trkpt><trkpt lat="38.154723588356674" lon="15.380959331756094"><ele>296.0</ele><time>2026-05-04T09:39:55.999Z</time></trkpt><trkpt lat="38.15480337260125" lon="15.38083660347838"><ele>296.0</ele><time>2026-05-04T09:39:56.999Z</time></trkpt><trkpt lat="38.154860699238256" lon="15.380682229019307"><ele>296.0</ele><time>2026-05-04T09:39:57.999Z</time></trkpt><trkpt lat="38.1549065270179" lon="15.380492431769309"><ele>296.0</ele><time>2026-05-04T09:39:58.999Z</time></trkpt><trkpt lat="38.15494637013825" lon="15.380292344011488"><ele>296.0</ele><time>2026-05-04T09:39:59.999Z</time></trkpt><trkpt lat="38.15499077190173" lon="15.380099337050432"><ele>296.0</ele><time>2026-05-04T09:40:00.999Z</time></trkpt><trkpt lat="38.15504575801076" lon="15.379930889894531"><ele>296.0</ele><time>2026-05-04T09:40:01.999Z</time></trkpt><trkpt lat="38.1550896303699" lon="15.379773625974337"><ele>296.0</ele><time>2026-05-04T09:40:02.999Z</time></trkpt><trkpt lat="38.155133998279204" lon="15.379633376502019"><ele>296.0</ele><time>2026-05-04T09:40:03.999Z</time></trkpt><trkpt lat="38.15519412251873" lon="15.379511395379295"><ele>296.0</ele><time>2026-05-04T09:40:04.999Z</time></trkpt><trkpt lat="38.15529105094812" lon="15.37943619688281"><ele>296.0</ele><time>2026-05-04T09:40:05.999Z</time></trkpt><trkpt lat="38.155407470527635" lon="15.379363836847515"><ele>296.0</ele><time>2026-05-04T09:40:06.999Z</time></trkpt><trkpt lat="38.155535931759935" lon="15.379276572361954"><ele>296.0</ele><time>2026-05-04T09:40:07.999Z</time></trkpt><trkpt lat="38.15567784501811" lon="15.379198327419212"><ele>296.0</ele><time>2026-05-04T09:40:08.999Z</time></trkpt><trkpt lat="38.1558166357897" lon="15.379125627615903"><ele>296.0</ele><time>2026-05-04T09:40:09.999Z</time></trkpt><trkpt lat="38.15596103602511" lon="15.379074659745914"><ele>300.0</ele><time>2026-05-04T09:40:10.999Z</time></trkpt><trkpt lat="38.156104265745036" lon="15.378999180939443"><ele>304.0</ele><time>2026-05-04T09:40:11.999Z</time></trkpt><trkpt lat="38.15626051855379" lon="15.378915751741157"><ele>308.0</ele><time>2026-05-04T09:40:12.999Z</time></trkpt><trkpt lat="38.15640783368296" lon="15.378837145564576"><ele>304.75</ele><time>2026-05-04T09:40:13.999Z</time></trkpt><trkpt lat="38.1565363034979" lon="15.378745585381983"><ele>301.5</ele><time>2026-05-04T09:40:14.999Z</time></trkpt><trkpt lat="38.15665379094463" lon="15.378681931774134"><ele>298.25</ele><time>2026-05-04T09:40:15.999Z</time></trkpt><trkpt lat="38.15675990564626" lon="15.378656172421753"><ele>295.0</ele><time>2026-05-04T09:40:16.999Z</time></trkpt><trkpt lat="38.15684160262796" lon="15.378642082765909"><ele>295.0</ele><time>2026-05-04T09:40:17.999Z</time></trkpt><trkpt lat="38.156912407581146" lon="15.378679986071692"><ele>295.0</ele><time>2026-05-04T09:40:18.999Z</time></trkpt><trkpt lat="38.156956989982696" lon="15.378745649454451"><ele>295.0</ele><time>2026-05-04T09:40:19.999Z</time></trkpt><trkpt lat="38.15702028647157" lon="15.378844093507055"><ele>295.0</ele><time>2026-05-04T09:40:21.999Z</time></trkpt><trkpt lat="38.15714571200581" lon="15.378697144170923"><ele>295.0</ele><time>2026-05-04T09:40:23.999Z</time></trkpt><trkpt lat="38.157189155464266" lon="15.378598274469683"><ele>295.0</ele><time>2026-05-04T09:40:24.998Z</time></trkpt><trkpt lat="38.15723314648884" lon="15.378522970161368"><ele>295.0</ele><time>2026-05-04T09:40:25.998Z</time></trkpt><trkpt lat="38.15729623864065" lon="15.378468705158815"><ele>295.0</ele><time>2026-05-04T09:40:26.998Z</time></trkpt><trkpt lat="38.157368634248996" lon="15.378415590234503"><ele>295.0</ele><time>2026-05-04T09:40:27.998Z</time></trkpt><trkpt lat="38.15745631425869" lon="15.378353621961093"><ele>295.0</ele><time>2026-05-04T09:40:28.998Z</time></trkpt><trkpt lat="38.15754647218252" lon="15.378294356429278"><ele>295.0</ele><time>2026-05-04T09:40:29.998Z</time></trkpt><trkpt lat="38.15765038728537" lon="15.378292721039447"><ele>296.0</ele><time>2026-05-04T09:40:30.998Z</time></trkpt><trkpt lat="38.15773814164871" lon="15.378260601333725"><ele>297.0</ele><time>2026-05-04T09:40:31.998Z</time></trkpt><trkpt lat="38.15782884701564" lon="15.378229491883769"><ele>298.0</ele><time>2026-05-04T09:40:32.998Z</time></trkpt><trkpt lat="38.157902658170144" lon="15.378208946745207"><ele>299.0</ele><time>2026-05-04T09:40:33.998Z</time></trkpt><trkpt lat="38.157981373241405" lon="15.37817426598895"><ele>300.0</ele><time>2026-05-04T09:40:34.998Z</time></trkpt><trkpt lat="38.15807133949924" lon="15.378154429744868"><ele>301.0</ele><time>2026-05-04T09:40:35.998Z</time></trkpt><trkpt lat="38.15816535139654" lon="15.378109665847644"><ele>299.5</ele><time>2026-05-04T09:40:36.998Z</time></trkpt><trkpt lat="38.15825140832711" lon="15.378014978480104"><ele>298.0</ele><time>2026-05-04T09:40:37.998Z</time></trkpt><trkpt lat="38.158337300684316" lon="15.377881348329833"><ele>296.5</ele><time>2026-05-04T09:40:38.998Z</time></trkpt><trkpt lat="38.1584162164878" lon="15.377741289127716"><ele>295.0</ele><time>2026-05-04T09:40:39.998Z</time></trkpt><trkpt lat="38.15848939885285" lon="15.377618889556537"><ele>295.0</ele><time>2026-05-04T09:40:40.998Z</time></trkpt><trkpt lat="38.15855797087009" lon="15.377511140066408"><ele>295.0</ele><time>2026-05-04T09:40:41.998Z</time></trkpt><trkpt lat="38.1586288985524" lon="15.377403919824705"><ele>295.0</ele><time>2026-05-04T09:40:42.998Z</time></trkpt><trkpt lat="38.15869611167641" lon="15.37728725704698"><ele>295.0</ele><time>2026-05-04T09:40:43.998Z</time></trkpt><trkpt lat="38.15876769342796" lon="15.377188945000139"><ele>295.0</ele><time>2026-05-04T09:40:44.998Z</time></trkpt><trkpt lat="38.158837817381425" lon="15.377118659833508"><ele>293.2</ele><time>2026-05-04T09:40:45.998Z</time></trkpt><trkpt lat="38.15890775990907" lon="15.377037592604763"><ele>291.4</ele><time>2026-05-04T09:40:46.998Z</time></trkpt><trkpt lat="38.15899913261823" lon="15.376982418096077"><ele>289.6</ele><time>2026-05-04T09:40:47.998Z</time></trkpt><trkpt lat="38.159100987105546" lon="15.376961959874105"><ele>287.8</ele><time>2026-05-04T09:40:48.998Z</time></trkpt><trkpt lat="38.159215408364375" lon="15.376959203257591"><ele>286.0</ele><time>2026-05-04T09:40:49.998Z</time></trkpt><trkpt lat="38.15935036789069" lon="15.37695291557137"><ele>286.0</ele><time>2026-05-04T09:40:50.998Z</time></trkpt><trkpt lat="38.15949307734401" lon="15.376945772991693"><ele>286.0</ele><time>2026-05-04T09:40:51.998Z</time></trkpt><trkpt lat="38.15962826205745" lon="15.376920185864238"><ele>286.0</ele><time>2026-05-04T09:40:52.998Z</time></trkpt><trkpt lat="38.15974675022724" lon="15.376877328711277"><ele>286.0</ele><time>2026-05-04T09:40:53.998Z</time></trkpt><trkpt lat="38.15984501819685" lon="15.376839396450606"><ele>286.8</ele><time>2026-05-04T09:40:54.998Z</time></trkpt><trkpt lat="38.15991195483569" lon="15.376779291242288"><ele>287.6</ele><time>2026-05-04T09:40:55.998Z</time></trkpt><trkpt lat="38.15995747383145" lon="15.376671878263434"><ele>288.4</ele><time>2026-05-04T09:40:56.998Z</time></trkpt><trkpt lat="38.16000882590248" lon="15.376552895458403"><ele>289.2</ele><time>2026-05-04T09:40:57.998Z</time></trkpt><trkpt lat="38.16006262409419" lon="15.376431581747367"><ele>290.0</ele><time>2026-05-04T09:40:58.998Z</time></trkpt><trkpt lat="38.16009779082639" lon="15.376293978478792"><ele>287.75</ele><time>2026-05-04T09:40:59.998Z</time></trkpt><trkpt lat="38.1601529058154" lon="15.37614243317529"><ele>285.5</ele><time>2026-05-04T09:41:00.998Z</time></trkpt><trkpt lat="38.16018971130706" lon="15.37595626607272"><ele>283.25</ele><time>2026-05-04T09:41:01.998Z</time></trkpt><trkpt lat="38.16023255512514" lon="15.37578206474089"><ele>281.0</ele><time>2026-05-04T09:41:02.998Z</time></trkpt><trkpt lat="38.160289287456756" lon="15.375631088986106"><ele>281.40000000000003</ele><time>2026-05-04T09:41:03.998Z</time></trkpt><trkpt lat="38.160330928907555" lon="15.375484965369568"><ele>281.8</ele><time>2026-05-04T09:41:04.998Z</time></trkpt><trkpt lat="38.16037029790244" lon="15.375362082947694"><ele>282.20000000000005</ele><time>2026-05-04T09:41:05.998Z</time></trkpt><trkpt lat="38.16042201608886" lon="15.37526875426278"><ele>282.6</ele><time>2026-05-04T09:41:06.998Z</time></trkpt><trkpt lat="38.16048229033684" lon="15.375209397368337"><ele>283.0</ele><time>2026-05-04T09:41:07.998Z</time></trkpt><trkpt lat="38.16059250598513" lon="15.375206787907402"><ele>283.0</ele><time>2026-05-04T09:41:08.998Z</time></trkpt><trkpt lat="38.160696910266644" lon="15.375173583483493"><ele>283.0</ele><time>2026-05-04T09:41:09.998Z</time></trkpt><trkpt lat="38.160799304912295" lon="15.375137302682697"><ele>283.0</ele><time>2026-05-04T09:41:10.998Z</time></trkpt><trkpt lat="38.160884523071495" lon="15.375081540768461"><ele>283.0</ele><time>2026-05-04T09:41:11.998Z</time></trkpt><trkpt lat="38.160954333118816" lon="15.375040329886918"><ele>283.0</ele><time>2026-05-04T09:41:12.998Z</time></trkpt><trkpt lat="38.16099530127333" lon="15.37497764228312"><ele>283.0</ele><time>2026-05-04T09:41:14Z</time></trkpt><trkpt lat="38.16102984437856" lon="15.374889524576629"><ele>283.0</ele><time>2026-05-04T09:41:15Z</time></trkpt><trkpt lat="38.16107334918332" lon="15.374772002631108"><ele>283.0</ele><time>2026-05-04T09:41:16Z</time></trkpt><trkpt lat="38.16112888415553" lon="15.374655623141848"><ele>283.0</ele><time>2026-05-04T09:41:17Z</time></trkpt><trkpt lat="38.16120309734003" lon="15.374547871552585"><ele>283.0</ele><time>2026-05-04T09:41:18Z</time></trkpt><trkpt lat="38.16128209366179" lon="15.374456842099764"><ele>281.25</ele><time>2026-05-04T09:41:19Z</time></trkpt><trkpt lat="38.16137959434297" lon="15.374382273861581"><ele>279.5</ele><time>2026-05-04T09:41:20Z</time></trkpt><trkpt lat="38.16146073972915" lon="15.374274838256262"><ele>277.75</ele><time>2026-05-04T09:41:21Z</time></trkpt><trkpt lat="38.16154296171117" lon="15.374175077664749"><ele>276.0</ele><time>2026-05-04T09:41:22Z</time></trkpt><trkpt lat="38.16161018930438" lon="15.374050063566935"><ele>274.0</ele><time>2026-05-04T09:41:23Z</time></trkpt><trkpt lat="38.16167926647063" lon="15.373926534071376"><ele>272.0</ele><time>2026-05-04T09:41:24Z</time></trkpt><trkpt lat="38.161750446776054" lon="15.373802624560001"><ele>270.0</ele><time>2026-05-04T09:41:25Z</time></trkpt><trkpt lat="38.16182933401682" lon="15.373680006035977"><ele>268.0</ele><time>2026-05-04T09:41:26Z</time></trkpt><trkpt lat="38.161906091653975" lon="15.373563020600841"><ele>265.6</ele><time>2026-05-04T09:41:27Z</time></trkpt><trkpt lat="38.161985580423426" lon="15.373447484600176"><ele>263.20000000000005</ele><time>2026-05-04T09:41:28Z</time></trkpt><trkpt lat="38.16206814988705" lon="15.373353224849046"><ele>260.8</ele><time>2026-05-04T09:41:29Z</time></trkpt><trkpt lat="38.16217620911" lon="15.373315560187203"><ele>258.40000000000003</ele><time>2026-05-04T09:41:30Z</time></trkpt><trkpt lat="38.1622351991529" lon="15.373227668770967"><ele>256.0</ele><time>2026-05-04T09:41:31Z</time></trkpt><trkpt lat="38.16229456238048" lon="15.373148199100159"><ele>256.0</ele><time>2026-05-04T09:41:32Z</time></trkpt><trkpt lat="38.16233622072153" lon="15.37304344330209"><ele>256.0</ele><time>2026-05-04T09:41:32.999Z</time></trkpt><trkpt lat="38.16234255890337" lon="15.372923930197443"><ele>256.0</ele><time>2026-05-04T09:41:33.999Z</time></trkpt><trkpt lat="38.16234384154048" lon="15.372795631997889"><ele>256.0</ele><time>2026-05-04T09:41:34.999Z</time></trkpt><trkpt lat="38.162375188652675" lon="15.372659786216868"><ele>256.0</ele><time>2026-05-04T09:41:35.999Z</time></trkpt><trkpt lat="38.162396050458234" lon="15.372531426634655"><ele>256.6</ele><time>2026-05-04T09:41:36.999Z</time></trkpt><trkpt lat="38.16241192955409" lon="15.372419049211468"><ele>257.20000000000005</ele><time>2026-05-04T09:41:37.999Z</time></trkpt><trkpt lat="38.16241010207723" lon="15.372283221507484"><ele>257.79999999999995</ele><time>2026-05-04T09:41:38.999Z</time></trkpt><trkpt lat="38.162413817245906" lon="15.372145510672516"><ele>258.4</ele><time>2026-05-04T09:41:39.999Z</time></trkpt><trkpt lat="38.162422147640605" lon="15.372018144098067"><ele>259.0</ele><time>2026-05-04T09:41:40.999Z</time></trkpt><trkpt lat="38.16243002852746" lon="15.371890666381926"><ele>256.4</ele><time>2026-05-04T09:41:41.999Z</time></trkpt><trkpt lat="38.162442372572556" lon="15.371769922983638"><ele>253.79999999999998</ele><time>2026-05-04T09:41:42.999Z</time></trkpt><trkpt lat="38.16247078825221" lon="15.371672265131298"><ele>251.20000000000002</ele><time>2026-05-04T09:41:43.999Z</time></trkpt><trkpt lat="38.16254210483783" lon="15.371557707496594"><ele>248.60000000000002</ele><time>2026-05-04T09:41:45.999Z</time></trkpt><trkpt lat="38.16265877556864" lon="15.37157559005177"><ele>246.0</ele><time>2026-05-04T09:41:47.999Z</time></trkpt><trkpt lat="38.162709656522665" lon="15.371651671032161"><ele>246.0</ele><time>2026-05-04T09:41:48.999Z</time></trkpt><trkpt lat="38.162790360237175" lon="15.371721043294716"><ele>246.00000000000003</ele><time>2026-05-04T09:41:49.999Z</time></trkpt><trkpt lat="38.16286638218141" lon="15.371795401043528"><ele>246.00000000000003</ele><time>2026-05-04T09:41:50.999Z</time></trkpt><trkpt lat="38.1629712688971" lon="15.371922271515468"><ele>246.0</ele><time>2026-05-04T09:41:52.999Z</time></trkpt><trkpt lat="38.16302514500472" lon="15.371981354659344"><ele>246.0</ele><time>2026-05-04T09:41:53.999Z</time></trkpt><trkpt lat="38.16307464369507" lon="15.372049825403952"><ele>243.75</ele><time>2026-05-04T09:41:54.999Z</time></trkpt><trkpt lat="38.16314916448621" lon="15.372226868754366"><ele>241.5</ele><time>2026-05-04T09:41:56.999Z</time></trkpt><trkpt lat="38.163180885584374" lon="15.372336512515298"><ele>239.25</ele><time>2026-05-04T09:41:57.999Z</time></trkpt><trkpt lat="38.163195236592074" lon="15.37246809497459"><ele>237.0</ele><time>2026-05-04T09:41:59.999Z</time></trkpt><trkpt lat="38.163251973980636" lon="15.372589915269904"><ele>237.0</ele><time>2026-05-04T09:42:01.999Z</time></trkpt><trkpt lat="38.163365420362666" lon="15.372559980531616"><ele>237.0</ele><time>2026-05-04T09:42:02.999Z</time></trkpt><trkpt lat="38.16344626778958" lon="15.372522124681131"><ele>237.0</ele><time>2026-05-04T09:42:03.999Z</time></trkpt><trkpt lat="38.163520018268265" lon="15.372483697148331"><ele>237.0</ele><time>2026-05-04T09:42:04.999Z</time></trkpt><trkpt lat="38.16359861035391" lon="15.372437172606915"><ele>237.0</ele><time>2026-05-04T09:42:05.999Z</time></trkpt><trkpt lat="38.16368720229158" lon="15.372382432945326"><ele>237.0</ele><time>2026-05-04T09:42:06.999Z</time></trkpt><trkpt lat="38.16377087336759" lon="15.372326369351633"><ele>237.0</ele><time>2026-05-04T09:42:07.999Z</time></trkpt><trkpt lat="38.16386513656342" lon="15.372238648218826"><ele>237.0</ele><time>2026-05-04T09:42:08.999Z</time></trkpt><trkpt lat="38.16394706151804" lon="15.372142189097817"><ele>237.0</ele><time>2026-05-04T09:42:09.999Z</time></trkpt><trkpt lat="38.1640514487065" lon="15.372032720191728"><ele>231.25</ele><time>2026-05-04T09:42:10.999Z</time></trkpt><trkpt lat="38.16415962955376" lon="15.371928464866679"><ele>225.5</ele><time>2026-05-04T09:42:11.999Z</time></trkpt><trkpt lat="38.16426635021421" lon="15.37182456949199"><ele>219.75</ele><time>2026-05-04T09:42:12.999Z</time></trkpt><trkpt lat="38.16435686710491" lon="15.371727821833275"><ele>214.0</ele><time>2026-05-04T09:42:13.999Z</time></trkpt><trkpt lat="38.16444473851299" lon="15.371632785454423"><ele>214.0</ele><time>2026-05-04T09:42:14.999Z</time></trkpt><trkpt lat="38.16453024044077" lon="15.37154222179937"><ele>213.99999999999997</ele><time>2026-05-04T09:42:15.999Z</time></trkpt><trkpt lat="38.164601628215976" lon="15.371447749168391"><ele>213.99999999999997</ele><time>2026-05-04T09:42:16.999Z</time></trkpt><trkpt lat="38.164684124450574" lon="15.371376698839114"><ele>214.0</ele><time>2026-05-04T09:42:17.999Z</time></trkpt><trkpt lat="38.16477694520636" lon="15.371322284073095"><ele>214.0</ele><time>2026-05-04T09:42:18.999Z</time></trkpt><trkpt lat="38.16487867721861" lon="15.371286592569888"><ele>210.79999999999998</ele><time>2026-05-04T09:42:19.999Z</time></trkpt><trkpt lat="38.164984071967154" lon="15.371260986342342"><ele>207.59999999999997</ele><time>2026-05-04T09:42:20.999Z</time></trkpt><trkpt lat="38.16508215283973" lon="15.371222782339197"><ele>204.4</ele><time>2026-05-04T09:42:21.999Z</time></trkpt><trkpt lat="38.165162890057196" lon="15.371151539091482"><ele>201.2</ele><time>2026-05-04T09:42:22.999Z</time></trkpt><trkpt lat="38.16525101973761" lon="15.3710804742178"><ele>198.0</ele><time>2026-05-04T09:42:23.999Z</time></trkpt><trkpt lat="38.165330576062914" lon="15.370982525955787"><ele>198.0</ele><time>2026-05-04T09:42:24.999Z</time></trkpt><trkpt lat="38.16540801506085" lon="15.370882318370104"><ele>198.0</ele><time>2026-05-04T09:42:25.999Z</time></trkpt><trkpt lat="38.16548489998784" lon="15.370774819912766"><ele>198.0</ele><time>2026-05-04T09:42:26.999Z</time></trkpt><trkpt lat="38.1655551349029" lon="15.370668527065593"><ele>198.0</ele><time>2026-05-04T09:42:27.999Z</time></trkpt><trkpt lat="38.16562766953554" lon="15.370566816044917"><ele>198.0</ele><time>2026-05-04T09:42:28.998Z</time></trkpt><trkpt lat="38.16570355399148" lon="15.370476534055362"><ele>198.0</ele><time>2026-05-04T09:42:29.998Z</time></trkpt><trkpt lat="38.1657548794095" lon="15.370363470440578"><ele>198.0</ele><time>2026-05-04T09:42:30.998Z</time></trkpt><trkpt lat="38.16577072247834" lon="15.370261849886798"><ele>198.0</ele><time>2026-05-04T09:42:31.998Z</time></trkpt><trkpt lat="38.16577555823214" lon="15.3701533719085"><ele>198.0</ele><time>2026-05-04T09:42:32.998Z</time></trkpt><trkpt lat="38.16577866826337" lon="15.370012391682323"><ele>198.0</ele><time>2026-05-04T09:42:33.998Z</time></trkpt><trkpt lat="38.1657886287357" lon="15.369869741804587"><ele>198.0</ele><time>2026-05-04T09:42:34.998Z</time></trkpt><trkpt lat="38.16580714568424" lon="15.369748886770385"><ele>198.0</ele><time>2026-05-04T09:42:35.998Z</time></trkpt><trkpt lat="38.16583766709581" lon="15.369636813547864"><ele>198.0</ele><time>2026-05-04T09:42:36.998Z</time></trkpt><trkpt lat="38.16588133226162" lon="15.369539210399918"><ele>198.0</ele><time>2026-05-04T09:42:37.998Z</time></trkpt><trkpt lat="38.16594689713855" lon="15.369437683970443"><ele>198.0</ele><time>2026-05-04T09:42:38.998Z</time></trkpt><trkpt lat="38.16601957857843" lon="15.369350931679083"><ele>196.0</ele><time>2026-05-04T09:42:39.998Z</time></trkpt><trkpt lat="38.166084647812376" lon="15.369284294336572"><ele>194.0</ele><time>2026-05-04T09:42:40.998Z</time></trkpt><trkpt lat="38.16614483060303" lon="15.3692321827821"><ele>192.0</ele><time>2026-05-04T09:42:41.998Z</time></trkpt><trkpt lat="38.16620748779541" lon="15.369265148490591"><ele>190.0</ele><time>2026-05-04T09:42:42.998Z</time></trkpt><trkpt lat="38.16633694485076" lon="15.369270820791892"><ele>188.0</ele><time>2026-05-04T09:42:44.998Z</time></trkpt><trkpt lat="38.166405201310894" lon="15.36925103001438"><ele>186.0</ele><time>2026-05-04T09:42:45.998Z</time></trkpt><trkpt lat="38.16646932853424" lon="15.369193793039473"><ele>186.0</ele><time>2026-05-04T09:42:46.998Z</time></trkpt><trkpt lat="38.16651550912662" lon="15.369102259548798"><ele>186.0</ele><time>2026-05-04T09:42:47.998Z</time></trkpt><trkpt lat="38.16656896294222" lon="15.36898715966644"><ele>186.0</ele><time>2026-05-04T09:42:48.998Z</time></trkpt><trkpt lat="38.16663501501802" lon="15.368890510123785"><ele>186.0</ele><time>2026-05-04T09:42:49.998Z</time></trkpt><trkpt lat="38.166697975892106" lon="15.368804008101154"><ele>186.0</ele><time>2026-05-04T09:42:50.998Z</time></trkpt><trkpt lat="38.16671646505767" lon="15.368691483921651"><ele>184.0</ele><time>2026-05-04T09:42:51.998Z</time></trkpt><trkpt lat="38.166743147781574" lon="15.368571192049322"><ele>182.0</ele><time>2026-05-04T09:42:52.998Z</time></trkpt><trkpt lat="38.16676385082902" lon="15.368441503617992"><ele>180.0</ele><time>2026-05-04T09:42:53.998Z</time></trkpt><trkpt lat="38.166795110475185" lon="15.368331322529404"><ele>178.0</ele><time>2026-05-04T09:42:54.998Z</time></trkpt><trkpt lat="38.16683520797759" lon="15.368260001252818"><ele>176.0</ele><time>2026-05-04T09:42:55.998Z</time></trkpt><trkpt lat="38.166957627082766" lon="15.368182576525125"><ele>176.0</ele><time>2026-05-04T09:42:57.998Z</time></trkpt><trkpt lat="38.167051465167326" lon="15.368141291792728"><ele>176.0</ele><time>2026-05-04T09:42:58.998Z</time></trkpt><trkpt lat="38.167159478796314" lon="15.368093690619695"><ele>176.0</ele><time>2026-05-04T09:42:59.998Z</time></trkpt><trkpt lat="38.167272894290186" lon="15.367986913859017"><ele>176.0</ele><time>2026-05-04T09:43:00.998Z</time></trkpt><trkpt lat="38.16737075464188" lon="15.36787825411993"><ele>174.4</ele><time>2026-05-04T09:43:01.998Z</time></trkpt><trkpt lat="38.16744963661758" lon="15.367788531179553"><ele>172.8</ele><time>2026-05-04T09:43:02.998Z</time></trkpt><trkpt lat="38.1674966660347" lon="15.3676983830811"><ele>171.20000000000002</ele><time>2026-05-04T09:43:03.998Z</time></trkpt><trkpt lat="38.16751836856753" lon="15.367593927894752"><ele>169.60000000000002</ele><time>2026-05-04T09:43:04.998Z</time></trkpt><trkpt lat="38.16751320450827" lon="15.367466550024014"><ele>168.0</ele><time>2026-05-04T09:43:05.998Z</time></trkpt><trkpt lat="38.167560866343486" lon="15.367356614670866"><ele>168.0</ele><time>2026-05-04T09:43:06.998Z</time></trkpt><trkpt lat="38.16761068211725" lon="15.367274994337484"><ele>168.0</ele><time>2026-05-04T09:43:07.998Z</time></trkpt><trkpt lat="38.16768630189855" lon="15.367206266120133"><ele>168.0</ele><time>2026-05-04T09:43:08.998Z</time></trkpt><trkpt lat="38.16773734143513" lon="15.367092831603127"><ele>168.0</ele><time>2026-05-04T09:43:09.998Z</time></trkpt><trkpt lat="38.16778862670268" lon="15.366968551659209"><ele>168.0</ele><time>2026-05-04T09:43:10.998Z</time></trkpt><trkpt lat="38.16786886440352" lon="15.366868348009088"><ele>164.8</ele><time>2026-05-04T09:43:11.998Z</time></trkpt><trkpt lat="38.16792905277405" lon="15.366758791170362"><ele>161.60000000000002</ele><time>2026-05-04T09:43:12.998Z</time></trkpt><trkpt lat="38.16799173602524" lon="15.36669082753764"><ele>158.39999999999998</ele><time>2026-05-04T09:43:13.998Z</time></trkpt><trkpt lat="38.16807054261462" lon="15.366633346628921"><ele>155.2</ele><time>2026-05-04T09:43:14.998Z</time></trkpt><trkpt lat="38.16816229553383" lon="15.3665861162576"><ele>152.0</ele><time>2026-05-04T09:43:15.998Z</time></trkpt><trkpt lat="38.16825978020784" lon="15.366525657720816"><ele>152.0</ele><time>2026-05-04T09:43:16.998Z</time></trkpt><trkpt lat="38.16836558044039" lon="15.366482379639635"><ele>152.0</ele><time>2026-05-04T09:43:17.998Z</time></trkpt><trkpt lat="38.168458596464774" lon="15.366411029288573"><ele>152.0</ele><time>2026-05-04T09:43:18.998Z</time></trkpt><trkpt lat="38.168516062033014" lon="15.366323497696346"><ele>152.0</ele><time>2026-05-04T09:43:20Z</time></trkpt><trkpt lat="38.16861446255989" lon="15.366291416266524"><ele>152.0</ele><time>2026-05-04T09:43:21Z</time></trkpt><trkpt lat="38.1686383472834" lon="15.366127673845067"><ele>145.0</ele><time>2026-05-04T09:43:22Z</time></trkpt><trkpt lat="38.16870370112585" lon="15.366007925868699"><ele>138.0</ele><time>2026-05-04T09:43:23Z</time></trkpt><trkpt lat="38.16876970674524" lon="15.365881715960374"><ele>131.0</ele><time>2026-05-04T09:43:24Z</time></trkpt><trkpt lat="38.16881381397282" lon="15.365748323237131"><ele>124.0</ele><time>2026-05-04T09:43:25Z</time></trkpt><trkpt lat="38.16882562525062" lon="15.365596739243424"><ele>125.2</ele><time>2026-05-04T09:43:26Z</time></trkpt><trkpt lat="38.168888015181494" lon="15.365474326968167"><ele>126.4</ele><time>2026-05-04T09:43:27Z</time></trkpt><trkpt lat="38.1689295200939" lon="15.36536591377885"><ele>127.6</ele><time>2026-05-04T09:43:28Z</time></trkpt><trkpt lat="38.16897827341788" lon="15.365274093612154"><ele>128.8</ele><time>2026-05-04T09:43:29Z</time></trkpt><trkpt lat="38.1690136766011" lon="15.365173251951227"><ele>130.0</ele><time>2026-05-04T09:43:30Z</time></trkpt><trkpt lat="38.169058729315125" lon="15.365075843265378"><ele>130.0</ele><time>2026-05-04T09:43:31Z</time></trkpt><trkpt lat="38.16910813868905" lon="15.364968368788558"><ele>130.0</ele><time>2026-05-04T09:43:32Z</time></trkpt><trkpt lat="38.16915173182749" lon="15.364874496729191"><ele>130.0</ele><time>2026-05-04T09:43:33Z</time></trkpt><trkpt lat="38.1692005649789" lon="15.364790214164204"><ele>130.0</ele><time>2026-05-04T09:43:34Z</time></trkpt><trkpt lat="38.16922141987036" lon="15.364703676212477"><ele>130.0</ele><time>2026-05-04T09:43:35Z</time></trkpt><trkpt lat="38.16921606830149" lon="15.364524092099076"><ele>128.8</ele><time>2026-05-04T09:43:36.999Z</time></trkpt><trkpt lat="38.169218164596614" lon="15.36443337294103"><ele>127.6</ele><time>2026-05-04T09:43:37.999Z</time></trkpt><trkpt lat="38.16922392551408" lon="15.364352847119592"><ele>126.4</ele><time>2026-05-04T09:43:38.999Z</time></trkpt><trkpt lat="38.16925385639553" lon="15.364215913414741"><ele>125.2</ele><time>2026-05-04T09:43:40.999Z</time></trkpt><trkpt lat="38.16927515982669" lon="15.364072365272923"><ele>124.0</ele><time>2026-05-04T09:43:42.999Z</time></trkpt><trkpt lat="38.169168248139165" lon="15.363990465589142"><ele>124.00000000000001</ele><time>2026-05-04T09:43:44.999Z</time></trkpt><trkpt lat="38.16913186784203" lon="15.364067049696315"><ele>124.0</ele><time>2026-05-04T09:43:45.999Z</time></trkpt><trkpt lat="38.16909712237486" lon="15.364167412347449"><ele>124.0</ele><time>2026-05-04T09:43:47.999Z</time></trkpt><trkpt lat="38.16907100770193" lon="15.36426371528042"><ele>124.0</ele><time>2026-05-04T09:43:49.999Z</time></trkpt><trkpt lat="38.1690545010051" lon="15.364342719180167"><ele>124.00000000000001</ele><time>2026-05-04T09:43:50.999Z</time></trkpt><trkpt lat="38.16903441200009" lon="15.364456439848494"><ele>124.0</ele><time>2026-05-04T09:43:51.999Z</time></trkpt><trkpt lat="38.169024598518014" lon="15.3645894279339"><ele>120.6</ele><time>2026-05-04T09:43:52.999Z</time></trkpt><trkpt lat="38.169002744077446" lon="15.364724236839935"><ele>117.2</ele><time>2026-05-04T09:43:53.999Z</time></trkpt><trkpt lat="38.16896327610371" lon="15.364844418635432"><ele>113.79999999999998</ele><time>2026-05-04T09:43:54.999Z</time></trkpt><trkpt lat="38.16890754015366" lon="15.364958057657486"><ele>110.39999999999999</ele><time>2026-05-04T09:43:55.999Z</time></trkpt><trkpt lat="38.16885451188943" lon="15.365066780442325"><ele>107.0</ele><time>2026-05-04T09:43:56.999Z</time></trkpt><trkpt lat="38.168807555259185" lon="15.365148720055476"><ele>107.0</ele><time>2026-05-04T09:43:57.999Z</time></trkpt><trkpt lat="38.16873353742211" lon="15.365231808700937"><ele>106.99999999999999</ele><time>2026-05-04T09:43:59.999Z</time></trkpt><trkpt lat="38.168710973047574" lon="15.365110051715858"><ele>106.99999999999999</ele><time>2026-05-04T09:44:01.999Z</time></trkpt><trkpt lat="38.16875895492067" lon="15.365018077057494"><ele>107.0</ele><time>2026-05-04T09:44:02.999Z</time></trkpt><trkpt lat="38.168791826438756" lon="15.36488310040449"><ele>107.0</ele><time>2026-05-04T09:44:03.999Z</time></trkpt><trkpt lat="38.168849058265714" lon="15.364740509043799"><ele>105.0</ele><time>2026-05-04T09:44:05Z</time></trkpt><trkpt lat="38.16889204818764" lon="15.364607814862367"><ele>102.99999999999999</ele><time>2026-05-04T09:44:06Z</time></trkpt><trkpt lat="38.16891399618373" lon="15.364486212317617"><ele>101.0</ele><time>2026-05-04T09:44:07Z</time></trkpt><trkpt lat="38.168920811309555" lon="15.36439257399377"><ele>99.0</ele><time>2026-05-04T09:44:08Z</time></trkpt><trkpt lat="38.168889728264766" lon="15.364294236034414"><ele>97.0</ele><time>2026-05-04T09:44:10Z</time></trkpt><trkpt lat="38.168788477306755" lon="15.36440303993427"><ele>97.0</ele><time>2026-05-04T09:44:12Z</time></trkpt><trkpt lat="38.16876706226476" lon="15.36450162878471"><ele>97.0</ele><time>2026-05-04T09:44:13Z</time></trkpt><trkpt lat="38.16871367193174" lon="15.364612588706335"><ele>97.0</ele><time>2026-05-04T09:44:14Z</time></trkpt><trkpt lat="38.1686410728897" lon="15.36472215676164"><ele>97.0</ele><time>2026-05-04T09:44:15Z</time></trkpt><trkpt lat="38.16857560446967" lon="15.364804743556526"><ele>97.0</ele><time>2026-05-04T09:44:16Z</time></trkpt><trkpt lat="38.16853275765224" lon="15.364864161347384"><ele>95.8</ele><time>2026-05-04T09:44:17Z</time></trkpt><trkpt lat="38.16846791509445" lon="15.36483905229191"><ele>94.6</ele><time>2026-05-04T09:44:18Z</time></trkpt><trkpt lat="38.16841956551998" lon="15.364760026611126"><ele>93.39999999999999</ele><time>2026-05-04T09:44:19Z</time></trkpt><trkpt lat="38.168317907032915" lon="15.364697601863256"><ele>92.19999999999999</ele><time>2026-05-04T09:44:20Z</time></trkpt><trkpt lat="38.16818427578045" lon="15.364646279859736"><ele>91.0</ele><time>2026-05-04T09:44:21Z</time></trkpt><trkpt lat="38.16805397800379" lon="15.364565270219861"><ele>91.0</ele><time>2026-05-04T09:44:22Z</time></trkpt><trkpt lat="38.16792984765414" lon="15.364493214658575"><ele>91.0</ele><time>2026-05-04T09:44:23Z</time></trkpt><trkpt lat="38.167815197518955" lon="15.364432715130912"><ele>91.0</ele><time>2026-05-04T09:44:24Z</time></trkpt><trkpt lat="38.16771161248568" lon="15.364399876656783"><ele>91.0</ele><time>2026-05-04T09:44:25Z</time></trkpt><trkpt lat="38.16761391079818" lon="15.364401623122683"><ele>91.0</ele><time>2026-05-04T09:44:26Z</time></trkpt><trkpt lat="38.16753390957003" lon="15.36442452570649"><ele>91.0</ele><time>2026-05-04T09:44:27Z</time></trkpt><trkpt lat="38.167474323937356" lon="15.36439181167442"><ele>91.0</ele><time>2026-05-04T09:44:28Z</time></trkpt><trkpt lat="38.16742424743451" lon="15.364232206426022"><ele>91.0</ele><time>2026-05-04T09:44:30Z</time></trkpt><trkpt lat="38.167420616831734" lon="15.36410063543944"><ele>91.0</ele><time>2026-05-04T09:44:31Z</time></trkpt><trkpt lat="38.167416331828775" lon="15.36394922782836"><ele>89.6</ele><time>2026-05-04T09:44:32Z</time></trkpt><trkpt lat="38.16740444041506" lon="15.363810470682632"><ele>88.19999999999999</ele><time>2026-05-04T09:44:33Z</time></trkpt><trkpt lat="38.16740678228716" lon="15.363680230532518"><ele>86.80000000000001</ele><time>2026-05-04T09:44:33.999Z</time></trkpt><trkpt lat="38.16742859753163" lon="15.36354776256755"><ele>85.4</ele><time>2026-05-04T09:44:34.999Z</time></trkpt><trkpt lat="38.1674780868845" lon="15.363407993000749"><ele>84.0</ele><time>2026-05-04T09:44:35.999Z</time></trkpt><trkpt lat="38.167537855271064" lon="15.363269681921087"><ele>84.0</ele><time>2026-05-04T09:44:36.999Z</time></trkpt><trkpt lat="38.16762600069214" lon="15.36311242426101"><ele>84.0</ele><time>2026-05-04T09:44:37.999Z</time></trkpt><trkpt lat="38.16772619528784" lon="15.362927605136209"><ele>84.0</ele><time>2026-05-04T09:44:38.999Z</time></trkpt><trkpt lat="38.16779304082489" lon="15.362746760765804"><ele>83.75</ele><time>2026-05-04T09:44:39.999Z</time></trkpt><trkpt lat="38.16786214188682" lon="15.36258620736836"><ele>83.5</ele><time>2026-05-04T09:44:40.999Z</time></trkpt><trkpt lat="38.167956698423765" lon="15.362431752995121"><ele>83.25</ele><time>2026-05-04T09:44:41.999Z</time></trkpt><trkpt lat="38.168028181171316" lon="15.362293256875091"><ele>83.0</ele><time>2026-05-04T09:44:42.999Z</time></trkpt><trkpt lat="38.168093776862" lon="15.362182463602014"><ele>83.0</ele><time>2026-05-04T09:44:43.999Z</time></trkpt><trkpt lat="38.16812269390204" lon="15.36207934092346"><ele>83.0</ele><time>2026-05-04T09:44:44.999Z</time></trkpt><trkpt lat="38.16809041915085" lon="15.36190180634511"><ele>83.0</ele><time>2026-05-04T09:44:46.999Z</time></trkpt><trkpt lat="38.1680613529994" lon="15.361791465456335"><ele>83.0</ele><time>2026-05-04T09:44:47.999Z</time></trkpt><trkpt lat="38.16804603378043" lon="15.361692609071003"><ele>83.0</ele><time>2026-05-04T09:44:48.999Z</time></trkpt><trkpt lat="38.16804926774487" lon="15.361583362774358"><ele>83.0</ele><time>2026-05-04T09:44:49.999Z</time></trkpt><trkpt lat="38.16805575659858" lon="15.361461668777213"><ele>83.0</ele><time>2026-05-04T09:44:50.999Z</time></trkpt><trkpt lat="38.168046927770106" lon="15.361340088682727"><ele>83.0</ele><time>2026-05-04T09:44:51.999Z</time></trkpt><trkpt lat="38.16804772190606" lon="15.36120034932616"><ele>83.0</ele><time>2026-05-04T09:44:52.999Z</time></trkpt><trkpt lat="38.1680465274587" lon="15.361082539422465"><ele>83.0</ele><time>2026-05-04T09:44:53.999Z</time></trkpt><trkpt lat="38.16803950370358" lon="15.360976440969676"><ele>82.66666666666667</ele><time>2026-05-04T09:44:54.999Z</time></trkpt><trkpt lat="38.1680288716327" lon="15.360887575139525"><ele>82.33333333333334</ele><time>2026-05-04T09:44:55.999Z</time></trkpt><trkpt lat="38.16799261655111" lon="15.360822049014187"><ele>82.0</ele><time>2026-05-04T09:44:56.999Z</time></trkpt><trkpt lat="38.16795744667365" lon="15.360681499564777"><ele>81.66666666666667</ele><time>2026-05-04T09:44:58.999Z</time></trkpt><trkpt lat="38.16793264781541" lon="15.360564361044288"><ele>81.33333333333333</ele><time>2026-05-04T09:45:00.999Z</time></trkpt><trkpt lat="38.16791294486417" lon="15.36043707166262"><ele>81.0</ele><time>2026-05-04T09:45:02.999Z</time></trkpt><trkpt lat="38.167887051154544" lon="15.360298974365959"><ele>80.83333333333333</ele><time>2026-05-04T09:45:04.999Z</time></trkpt><trkpt lat="38.16787997024842" lon="15.36020935432711"><ele>80.66666666666667</ele><time>2026-05-04T09:45:05.999Z</time></trkpt><trkpt lat="38.16789482762626" lon="15.360098088924468"><ele>80.5</ele><time>2026-05-04T09:45:06.999Z</time></trkpt><trkpt lat="38.16791045038381" lon="15.359984927749762"><ele>80.33333333333334</ele><time>2026-05-04T09:45:07.999Z</time></trkpt><trkpt lat="38.16792211284613" lon="15.359869798183245"><ele>80.16666666666667</ele><time>2026-05-04T09:45:08.999Z</time></trkpt><trkpt lat="38.16793129162056" lon="15.359763554992991"><ele>80.0</ele><time>2026-05-04T09:45:09.999Z</time></trkpt><trkpt lat="38.16793471496408" lon="15.359677799892424"><ele>79.6</ele><time>2026-05-04T09:45:10.999Z</time></trkpt><trkpt lat="38.167955605732935" lon="15.359544585693524"><ele>79.2</ele><time>2026-05-04T09:45:12.999Z</time></trkpt><trkpt lat="38.16796275233605" lon="15.35946222301995"><ele>78.8</ele><time>2026-05-04T09:45:15.999Z</time></trkpt><trkpt lat="38.16800139748215" lon="15.359291305734674"><ele>78.4</ele><time>2026-05-04T09:46:28Z</time></trkpt><trkpt lat="38.16800295235987" lon="15.359188921291091"><ele>78.0</ele><time>2026-05-04T09:46:29Z</time></trkpt><trkpt lat="38.16800409695695" lon="15.359083844830987"><ele>78.0</ele><time>2026-05-04T09:46:30Z</time></trkpt><trkpt lat="38.16800655800959" lon="15.358971590991862"><ele>78.0</ele><time>2026-05-04T09:46:31Z</time></trkpt><trkpt lat="38.16802404275074" lon="15.35883346261622"><ele>78.0</ele><time>2026-05-04T09:46:32Z</time></trkpt><trkpt lat="38.16805062235088" lon="15.358646298589044"><ele>78.0</ele><time>2026-05-04T09:46:33Z</time></trkpt><trkpt lat="38.168071866000616" lon="15.358486430733798"><ele>78.25</ele><time>2026-05-04T09:46:34Z</time></trkpt><trkpt lat="38.16808701485707" lon="15.358340028280761"><ele>78.5</ele><time>2026-05-04T09:46:34.999Z</time></trkpt><trkpt lat="38.168106554553255" lon="15.358201145019706"><ele>78.75</ele><time>2026-05-04T09:46:35.999Z</time></trkpt><trkpt lat="38.168130172435205" lon="15.35806742150089"><ele>79.0</ele><time>2026-05-04T09:46:36.999Z</time></trkpt><trkpt lat="38.16815508515338" lon="15.35792068238037"><ele>79.33333333333333</ele><time>2026-05-04T09:46:37.999Z</time></trkpt><trkpt lat="38.16818025023488" lon="15.357755964462473"><ele>79.66666666666667</ele><time>2026-05-04T09:46:38.999Z</time></trkpt><trkpt lat="38.16820687418136" lon="15.35755516547329"><ele>80.0</ele><time>2026-05-04T09:46:39.999Z</time></trkpt><trkpt lat="38.16825275469883" lon="15.357322427209176"><ele>78.66666666666667</ele><time>2026-05-04T09:46:40.999Z</time></trkpt><trkpt lat="38.16829199926043" lon="15.35706901803558"><ele>77.33333333333333</ele><time>2026-05-04T09:46:41.999Z</time></trkpt><trkpt lat="38.16831339285556" lon="15.356842306092151"><ele>76.0</ele><time>2026-05-04T09:46:42.999Z</time></trkpt><trkpt lat="38.168356348349455" lon="15.356655312397946"><ele>76.0</ele><time>2026-05-04T09:46:43.999Z</time></trkpt><trkpt lat="38.1683825740014" lon="15.356477189901884"><ele>76.0</ele><time>2026-05-04T09:46:44.999Z</time></trkpt><trkpt lat="38.1684104420569" lon="15.356314314199432"><ele>76.0</ele><time>2026-05-04T09:46:45.999Z</time></trkpt><trkpt lat="38.16842722224599" lon="15.356163525886936"><ele>76.0</ele><time>2026-05-04T09:46:46.999Z</time></trkpt><trkpt lat="38.16845274303917" lon="15.356013749797395"><ele>75.75</ele><time>2026-05-04T09:46:47.999Z</time></trkpt><trkpt lat="38.16848019189014" lon="15.355861943103463"><ele>75.5</ele><time>2026-05-04T09:46:48.999Z</time></trkpt><trkpt lat="38.16850363184871" lon="15.355711431279213"><ele>75.25</ele><time>2026-05-04T09:46:49.999Z</time></trkpt><trkpt lat="38.168526406955" lon="15.355551433616567"><ele>75.0</ele><time>2026-05-04T09:46:50.999Z</time></trkpt><trkpt lat="38.1685505187311" lon="15.355386509246168"><ele>75.0</ele><time>2026-05-04T09:46:51.999Z</time></trkpt><trkpt lat="38.16857869790319" lon="15.355224353597693"><ele>75.0</ele><time>2026-05-04T09:46:52.999Z</time></trkpt><trkpt lat="38.16860678999168" lon="15.355043225715022"><ele>75.0</ele><time>2026-05-04T09:46:53.999Z</time></trkpt><trkpt lat="38.1686426610031" lon="15.354848185863645"><ele>75.0</ele><time>2026-05-04T09:46:54.999Z</time></trkpt><trkpt lat="38.16867968823305" lon="15.354644390246667"><ele>75.0</ele><time>2026-05-04T09:46:55.999Z</time></trkpt><trkpt lat="38.16871705494094" lon="15.3544374142521"><ele>75.0</ele><time>2026-05-04T09:46:56.999Z</time></trkpt><trkpt lat="38.16875913907509" lon="15.354232550271401"><ele>75.0</ele><time>2026-05-04T09:46:57.999Z</time></trkpt><trkpt lat="38.16882602578295" lon="15.354043561113164"><ele>75.0</ele><time>2026-05-04T09:46:58.999Z</time></trkpt><trkpt lat="38.16889603830844" lon="15.35385216839853"><ele>75.0</ele><time>2026-05-04T09:46:59.999Z</time></trkpt><trkpt lat="38.16896952210295" lon="15.353663030780595"><ele>75.0</ele><time>2026-05-04T09:47:00.999Z</time></trkpt><trkpt lat="38.16905156623031" lon="15.353488260972762"><ele>74.66666666666667</ele><time>2026-05-04T09:47:01.999Z</time></trkpt><trkpt lat="38.16914742911032" lon="15.353318991499426"><ele>74.33333333333334</ele><time>2026-05-04T09:47:02.999Z</time></trkpt><trkpt lat="38.16924285488935" lon="15.353146956844087"><ele>74.0</ele><time>2026-05-04T09:47:03.999Z</time></trkpt><trkpt lat="38.16934128955663" lon="15.352985200477457"><ele>73.33333333333334</ele><time>2026-05-04T09:47:04.999Z</time></trkpt><trkpt lat="38.16944204766536" lon="15.352822440792924"><ele>72.66666666666667</ele><time>2026-05-04T09:47:05.999Z</time></trkpt><trkpt lat="38.16954590312285" lon="15.352658477275579"><ele>72.0</ele><time>2026-05-04T09:47:06.999Z</time></trkpt><trkpt lat="38.16966209806181" lon="15.352502181301022"><ele>72.0</ele><time>2026-05-04T09:47:07.999Z</time></trkpt><trkpt lat="38.169783860004614" lon="15.352348569177861"><ele>72.0</ele><time>2026-05-04T09:47:08.999Z</time></trkpt><trkpt lat="38.169916591831274" lon="15.352201309637847"><ele>72.0</ele><time>2026-05-04T09:47:09.999Z</time></trkpt><trkpt lat="38.17005666991356" lon="15.352051393013955"><ele>71.66666666666667</ele><time>2026-05-04T09:47:10.999Z</time></trkpt><trkpt lat="38.17019108751145" lon="15.351899965908315"><ele>71.33333333333334</ele><time>2026-05-04T09:47:11.999Z</time></trkpt><trkpt lat="38.17032779688196" lon="15.351752637291803"><ele>71.0</ele><time>2026-05-04T09:47:12.999Z</time></trkpt><trkpt lat="38.170468258019774" lon="15.351611480213998"><ele>71.0</ele><time>2026-05-04T09:47:13.999Z</time></trkpt><trkpt lat="38.170615391911554" lon="15.351486849033844"><ele>71.0</ele><time>2026-05-04T09:47:14.999Z</time></trkpt><trkpt lat="38.170774034279866" lon="15.351381225955922"><ele>71.0</ele><time>2026-05-04T09:47:15.999Z</time></trkpt><trkpt lat="38.17093972635342" lon="15.351293241701509"><ele>71.66666666666667</ele><time>2026-05-04T09:47:16.999Z</time></trkpt><trkpt lat="38.171107409738674" lon="15.351229620083453"><ele>72.33333333333333</ele><time>2026-05-04T09:47:17.999Z</time></trkpt><trkpt lat="38.17128239139793" lon="15.351166487483484"><ele>73.0</ele><time>2026-05-04T09:47:18.999Z</time></trkpt><trkpt lat="38.171454520614894" lon="15.351104518302467"><ele>71.66666666666666</ele><time>2026-05-04T09:47:19.999Z</time></trkpt><trkpt lat="38.17163122564326" lon="15.351042567912142"><ele>70.33333333333333</ele><time>2026-05-04T09:47:20.999Z</time></trkpt><trkpt lat="38.171806043056584" lon="15.350979749707529"><ele>69.0</ele><time>2026-05-04T09:47:21.999Z</time></trkpt><trkpt lat="38.171981725253396" lon="15.35091077869068"><ele>69.0</ele><time>2026-05-04T09:47:22.999Z</time></trkpt><trkpt lat="38.172158792005554" lon="15.350841278620251"><ele>69.0</ele><time>2026-05-04T09:47:23.999Z</time></trkpt><trkpt lat="38.172342778192295" lon="15.350776377902077"><ele>69.0</ele><time>2026-05-04T09:47:24.999Z</time></trkpt><trkpt lat="38.17252373384195" lon="15.350707279955339"><ele>68.66666666666667</ele><time>2026-05-04T09:47:25.999Z</time></trkpt><trkpt lat="38.17270351379143" lon="15.350641174617225"><ele>68.33333333333334</ele><time>2026-05-04T09:47:26.999Z</time></trkpt><trkpt lat="38.17288280920511" lon="15.350576500950819"><ele>68.0</ele><time>2026-05-04T09:47:27.999Z</time></trkpt><trkpt lat="38.17306062322355" lon="15.350510166279717"><ele>69.66666666666667</ele><time>2026-05-04T09:47:28.999Z</time></trkpt><trkpt lat="38.17324103071435" lon="15.350442830170767"><ele>71.33333333333333</ele><time>2026-05-04T09:47:30Z</time></trkpt><trkpt lat="38.17342709949597" lon="15.350372411171875"><ele>73.0</ele><time>2026-05-04T09:47:31.001Z</time></trkpt><trkpt lat="38.1735991285351" lon="15.350304958671188"><ele>73.0</ele><time>2026-05-04T09:47:32Z</time></trkpt><trkpt lat="38.17377004903138" lon="15.350239138259786"><ele>73.0</ele><time>2026-05-04T09:47:33Z</time></trkpt><trkpt lat="38.17393775062291" lon="15.350175882830019"><ele>73.0</ele><time>2026-05-04T09:47:34.001Z</time></trkpt><trkpt lat="38.17410341388664" lon="15.350115941634071"><ele>70.33333333333333</ele><time>2026-05-04T09:47:35Z</time></trkpt><trkpt lat="38.17426276916649" lon="15.350041478990322"><ele>67.66666666666667</ele><time>2026-05-04T09:47:36Z</time></trkpt><trkpt lat="38.17441576534463" lon="15.3499525601442"><ele>65.0</ele><time>2026-05-04T09:47:37.001Z</time></trkpt><trkpt lat="38.174558553867456" lon="15.349844386667606"><ele>65.0</ele><time>2026-05-04T09:47:38Z</time></trkpt><trkpt lat="38.174693090853474" lon="15.349714520809478"><ele>65.0</ele><time>2026-05-04T09:47:39Z</time></trkpt><trkpt lat="38.17481180341424" lon="15.349564984521166"><ele>65.0</ele><time>2026-05-04T09:47:40.001Z</time></trkpt><trkpt lat="38.17492103436225" lon="15.349403166007836"><ele>64.0</ele><time>2026-05-04T09:47:41Z</time></trkpt><trkpt lat="38.17502999675159" lon="15.349233433166876"><ele>63.0</ele><time>2026-05-04T09:47:42Z</time></trkpt><trkpt lat="38.17513510360048" lon="15.34906473875911"><ele>62.0</ele><time>2026-05-04T09:47:43Z</time></trkpt><trkpt lat="38.175246836408206" lon="15.348901064356694"><ele>62.333333333333336</ele><time>2026-05-04T09:47:44Z</time></trkpt><trkpt lat="38.175361867702584" lon="15.348744112019478"><ele>62.66666666666667</ele><time>2026-05-04T09:47:45Z</time></trkpt><trkpt lat="38.175478989808504" lon="15.348586869948656"><ele>63.0</ele><time>2026-05-04T09:47:46Z</time></trkpt><trkpt lat="38.175592258834875" lon="15.348424639212872"><ele>62.33333333333333</ele><time>2026-05-04T09:47:47Z</time></trkpt><trkpt lat="38.17570011646919" lon="15.348267284191582"><ele>61.666666666666664</ele><time>2026-05-04T09:47:48Z</time></trkpt><trkpt lat="38.175815185798776" lon="15.348114724036627"><ele>61.0</ele><time>2026-05-04T09:47:49Z</time></trkpt><trkpt lat="38.175935068061044" lon="15.347971826364807"><ele>60.0</ele><time>2026-05-04T09:47:50Z</time></trkpt><trkpt lat="38.176055926583764" lon="15.347834968342687"><ele>59.0</ele><time>2026-05-04T09:47:51Z</time></trkpt><trkpt lat="38.176178721589814" lon="15.34769798844326"><ele>58.0</ele><time>2026-05-04T09:47:52Z</time></trkpt><trkpt lat="38.17630760194783" lon="15.347563109259585"><ele>58.0</ele><time>2026-05-04T09:47:53Z</time></trkpt><trkpt lat="38.176442568258246" lon="15.347428837733856"><ele>58.0</ele><time>2026-05-04T09:47:54Z</time></trkpt><trkpt lat="38.17657553961285" lon="15.347292074734916"><ele>58.0</ele><time>2026-05-04T09:47:55Z</time></trkpt><trkpt lat="38.17672263147906" lon="15.347160873748383"><ele>58.33333333333333</ele><time>2026-05-04T09:47:56Z</time></trkpt><trkpt lat="38.176875371642005" lon="15.347032342185933"><ele>58.66666666666667</ele><time>2026-05-04T09:47:57Z</time></trkpt><trkpt lat="38.177027170513554" lon="15.346908894300716"><ele>59.0</ele><time>2026-05-04T09:47:58Z</time></trkpt><trkpt lat="38.17717798758883" lon="15.346783203791464"><ele>59.0</ele><time>2026-05-04T09:47:59Z</time></trkpt><trkpt lat="38.17733591175688" lon="15.346655272397673"><ele>59.0</ele><time>2026-05-04T09:48:00Z</time></trkpt><trkpt lat="38.17749327876472" lon="15.346526207350582"><ele>59.0</ele><time>2026-05-04T09:48:01Z</time></trkpt><trkpt lat="38.177654796029714" lon="15.346395562425611"><ele>58.0</ele><time>2026-05-04T09:48:02Z</time></trkpt><trkpt lat="38.177819106688574" lon="15.346259499495948"><ele>57.0</ele><time>2026-05-04T09:48:03Z</time></trkpt><trkpt lat="38.17798373330114" lon="15.34612572516894"><ele>56.0</ele><time>2026-05-04T09:48:04Z</time></trkpt><trkpt lat="38.17814963241975" lon="15.34598985680297"><ele>55.333333333333336</ele><time>2026-05-04T09:48:05Z</time></trkpt><trkpt lat="38.178313469862424" lon="15.345855338101327"><ele>54.66666666666667</ele><time>2026-05-04T09:48:06Z</time></trkpt><trkpt lat="38.17847545037662" lon="15.345720934679832"><ele>54.0</ele><time>2026-05-04T09:48:07Z</time></trkpt><trkpt lat="38.17863223934309" lon="15.345590794566363"><ele>53.33333333333333</ele><time>2026-05-04T09:48:08Z</time></trkpt><trkpt lat="38.17879168386341" lon="15.345467690736115"><ele>52.666666666666664</ele><time>2026-05-04T09:48:09Z</time></trkpt><trkpt lat="38.178961624127105" lon="15.34535443045404"><ele>52.0</ele><time>2026-05-04T09:48:10Z</time></trkpt><trkpt lat="38.17913140248463" lon="15.345247664724452"><ele>52.0</ele><time>2026-05-04T09:48:11Z</time></trkpt><trkpt lat="38.179300937808776" lon="15.345150109889467"><ele>52.0</ele><time>2026-05-04T09:48:12Z</time></trkpt><trkpt lat="38.17946532241204" lon="15.345055835134525"><ele>52.0</ele><time>2026-05-04T09:48:13Z</time></trkpt><trkpt lat="38.179619106864976" lon="15.344963177714964"><ele>52.0</ele><time>2026-05-04T09:48:14Z</time></trkpt><trkpt lat="38.17977529373842" lon="15.344874862019983"><ele>52.0</ele><time>2026-05-04T09:48:15Z</time></trkpt><trkpt lat="38.17992759317033" lon="15.34480780684223"><ele>52.0</ele><time>2026-05-04T09:48:16Z</time></trkpt><trkpt lat="38.18007962695531" lon="15.344815292836996"><ele>52.0</ele><time>2026-05-04T09:48:17Z</time></trkpt><trkpt lat="38.180223166330016" lon="15.344856460569202"><ele>52.0</ele><time>2026-05-04T09:48:18Z</time></trkpt><trkpt lat="38.18038487077632" lon="15.34490098005639"><ele>52.0</ele><time>2026-05-04T09:48:19Z</time></trkpt><trkpt lat="38.18055336612075" lon="15.34490107940928"><ele>51.666666666666664</ele><time>2026-05-04T09:48:20Z</time></trkpt><trkpt lat="38.180726214147626" lon="15.344869787884932"><ele>51.33333333333333</ele><time>2026-05-04T09:48:21Z</time></trkpt><trkpt lat="38.18090863618738" lon="15.344833065496369"><ele>51.0</ele><time>2026-05-04T09:48:22Z</time></trkpt><trkpt lat="38.18109648084645" lon="15.344785493302519"><ele>51.0</ele><time>2026-05-04T09:48:23Z</time></trkpt><trkpt lat="38.18127082311625" lon="15.344749776295917"><ele>51.0</ele><time>2026-05-04T09:48:24Z</time></trkpt><trkpt lat="38.18143308829543" lon="15.344760891659226"><ele>51.0</ele><time>2026-05-04T09:48:25Z</time></trkpt><trkpt lat="38.181587305203884" lon="15.344795886247265"><ele>50.0</ele><time>2026-05-04T09:48:26Z</time></trkpt><trkpt lat="38.18175263303301" lon="15.344865374114825"><ele>49.0</ele><time>2026-05-04T09:48:27Z</time></trkpt><trkpt lat="38.18192752995177" lon="15.344941675165462"><ele>48.0</ele><time>2026-05-04T09:48:28Z</time></trkpt><trkpt lat="38.18211556347964" lon="15.34501383573507"><ele>48.0</ele><time>2026-05-04T09:48:29Z</time></trkpt><trkpt lat="38.18229985300374" lon="15.345037205881493"><ele>48.0</ele><time>2026-05-04T09:48:30Z</time></trkpt><trkpt lat="38.18247936005148" lon="15.345077029710406"><ele>48.0</ele><time>2026-05-04T09:48:31Z</time></trkpt><trkpt lat="38.18266820595567" lon="15.345100332157523"><ele>47.666666666666664</ele><time>2026-05-04T09:48:32Z</time></trkpt><trkpt lat="38.18285207875041" lon="15.345133014676263"><ele>47.33333333333333</ele><time>2026-05-04T09:48:33Z</time></trkpt><trkpt lat="38.18303371159925" lon="15.34510354039246"><ele>47.0</ele><time>2026-05-04T09:48:34Z</time></trkpt><trkpt lat="38.18321192232829" lon="15.34506240464905"><ele>46.0</ele><time>2026-05-04T09:48:35Z</time></trkpt><trkpt lat="38.183391288273235" lon="15.345020009081276"><ele>45.0</ele><time>2026-05-04T09:48:36Z</time></trkpt><trkpt lat="38.18357189925969" lon="15.344977319198435"><ele>44.0</ele><time>2026-05-04T09:48:37Z</time></trkpt><trkpt lat="38.18375075562439" lon="15.344935044051551"><ele>44.0</ele><time>2026-05-04T09:48:38Z</time></trkpt><trkpt lat="38.183918039865304" lon="15.344886201769594"><ele>44.0</ele><time>2026-05-04T09:48:38.999Z</time></trkpt><trkpt lat="38.184095610845645" lon="15.344903072170128"><ele>44.0</ele><time>2026-05-04T09:48:39.999Z</time></trkpt><trkpt lat="38.18426678157288" lon="15.344935553766105"><ele>44.33333333333333</ele><time>2026-05-04T09:48:40.999Z</time></trkpt><trkpt lat="38.184442916811506" lon="15.344989745845982"><ele>44.666666666666664</ele><time>2026-05-04T09:48:41.999Z</time></trkpt><trkpt lat="38.1846188283206" lon="15.345058706156845"><ele>45.0</ele><time>2026-05-04T09:48:42.999Z</time></trkpt><trkpt lat="38.18479633127129" lon="15.345129004966951"><ele>45.0</ele><time>2026-05-04T09:48:43.999Z</time></trkpt><trkpt lat="38.18498435986124" lon="15.345202742100874"><ele>45.0</ele><time>2026-05-04T09:48:44.999Z</time></trkpt><trkpt lat="38.18516417638353" lon="15.345273185657007"><ele>45.0</ele><time>2026-05-04T09:48:45.999Z</time></trkpt><trkpt lat="38.18533543599484" lon="15.34534027837929"><ele>45.0</ele><time>2026-05-04T09:48:46.999Z</time></trkpt><trkpt lat="38.18550541789254" lon="15.345395935004259"><ele>45.0</ele><time>2026-05-04T09:48:47.999Z</time></trkpt><trkpt lat="38.18568187883854" lon="15.345418965398402"><ele>45.0</ele><time>2026-05-04T09:48:48.999Z</time></trkpt><trkpt lat="38.185863998054124" lon="15.3454152918506"><ele>44.333333333333336</ele><time>2026-05-04T09:48:49.999Z</time></trkpt><trkpt lat="38.18604687005248" lon="15.345368828665169"><ele>43.66666666666667</ele><time>2026-05-04T09:48:50.999Z</time></trkpt><trkpt lat="38.186228033473725" lon="15.345325958371808"><ele>43.0</ele><time>2026-05-04T09:48:51.999Z</time></trkpt><trkpt lat="38.18641950179939" lon="15.345259868670565"><ele>42.66666666666667</ele><time>2026-05-04T09:48:52.999Z</time></trkpt><trkpt lat="38.18661366510997" lon="15.345208157588658"><ele>42.333333333333336</ele><time>2026-05-04T09:48:53.999Z</time></trkpt><trkpt lat="38.18681223928288" lon="15.345172657007186"><ele>42.0</ele><time>2026-05-04T09:48:54.999Z</time></trkpt><trkpt lat="38.187012937632716" lon="15.345117941895722"><ele>42.0</ele><time>2026-05-04T09:48:55.999Z</time></trkpt><trkpt lat="38.18721587806131" lon="15.345062664080192"><ele>42.0</ele><time>2026-05-04T09:48:56.999Z</time></trkpt><trkpt lat="38.187407869942305" lon="15.345010368472025"><ele>42.0</ele><time>2026-05-04T09:48:57.999Z</time></trkpt><trkpt lat="38.1875969789675" lon="15.344958858055312"><ele>41.0</ele><time>2026-05-04T09:48:58.999Z</time></trkpt><trkpt lat="38.187782878880974" lon="15.344908221847033"><ele>40.0</ele><time>2026-05-04T09:48:59.999Z</time></trkpt><trkpt lat="38.18796449083987" lon="15.344858753568502"><ele>39.0</ele><time>2026-05-04T09:49:00.999Z</time></trkpt><trkpt lat="38.18814318293533" lon="15.344808401403375"><ele>39.0</ele><time>2026-05-04T09:49:01.999Z</time></trkpt><trkpt lat="38.188317985064806" lon="15.344734059914607"><ele>39.0</ele><time>2026-05-04T09:49:02.999Z</time></trkpt><trkpt lat="38.18847350094324" lon="15.34462581016444"><ele>39.0</ele><time>2026-05-04T09:49:03.999Z</time></trkpt><trkpt lat="38.18862641026003" lon="15.344511234499091"><ele>39.333333333333336</ele><time>2026-05-04T09:49:04.999Z</time></trkpt><trkpt lat="38.18877897069864" lon="15.3443684631585"><ele>39.66666666666667</ele><time>2026-05-04T09:49:05.999Z</time></trkpt><trkpt lat="38.18893450850487" lon="15.344204068224428"><ele>40.0</ele><time>2026-05-04T09:49:06.999Z</time></trkpt><trkpt lat="38.18908896335835" lon="15.34405205675199"><ele>39.333333333333336</ele><time>2026-05-04T09:49:07.999Z</time></trkpt><trkpt lat="38.18925214670082" lon="15.343924533989563"><ele>38.666666666666664</ele><time>2026-05-04T09:49:08.999Z</time></trkpt><trkpt lat="38.18939296419549" lon="15.343769229611881"><ele>38.0</ele><time>2026-05-04T09:49:09.999Z</time></trkpt><trkpt lat="38.1895453394514" lon="15.343635696940295"><ele>38.0</ele><time>2026-05-04T09:49:10.999Z</time></trkpt><trkpt lat="38.189696841902446" lon="15.343498107139693"><ele>38.0</ele><time>2026-05-04T09:49:11.999Z</time></trkpt><trkpt lat="38.18984997981024" lon="15.343352997339919"><ele>38.0</ele><time>2026-05-04T09:49:12.999Z</time></trkpt><trkpt lat="38.18999693230866" lon="15.34319997418186"><ele>37.33333333333333</ele><time>2026-05-04T09:49:13.999Z</time></trkpt><trkpt lat="38.190142433831376" lon="15.343039350449548"><ele>36.666666666666664</ele><time>2026-05-04T09:49:14.999Z</time></trkpt><trkpt lat="38.19028814948156" lon="15.34286615392114"><ele>36.0</ele><time>2026-05-04T09:49:15.999Z</time></trkpt><trkpt lat="38.19043960740911" lon="15.342684966610753"><ele>36.0</ele><time>2026-05-04T09:49:16.999Z</time></trkpt><trkpt lat="38.190593077378296" lon="15.342498524959366"><ele>36.0</ele><time>2026-05-04T09:49:17.999Z</time></trkpt><trkpt lat="38.19074858054765" lon="15.342304861112424"><ele>36.0</ele><time>2026-05-04T09:49:18.999Z</time></trkpt><trkpt lat="38.190894189707066" lon="15.342116945013952"><ele>35.666666666666664</ele><time>2026-05-04T09:49:19.999Z</time></trkpt><trkpt lat="38.19104226467815" lon="15.341933789692877"><ele>35.33333333333333</ele><time>2026-05-04T09:49:20.999Z</time></trkpt><trkpt lat="38.191190964980414" lon="15.341750333507873"><ele>35.0</ele><time>2026-05-04T09:49:21.999Z</time></trkpt><trkpt lat="38.19134555168515" lon="15.341561220947337"><ele>35.0</ele><time>2026-05-04T09:49:22.999Z</time></trkpt><trkpt lat="38.19150180668424" lon="15.341360458785099"><ele>35.0</ele><time>2026-05-04T09:49:23.999Z</time></trkpt><trkpt lat="38.191658703197874" lon="15.341159676850639"><ele>35.0</ele><time>2026-05-04T09:49:24.999Z</time></trkpt><trkpt lat="38.191808339014706" lon="15.340975439682014"><ele>34.666666666666664</ele><time>2026-05-04T09:49:25.999Z</time></trkpt><trkpt lat="38.19194468394549" lon="15.34080621071297"><ele>34.333333333333336</ele><time>2026-05-04T09:49:26.999Z</time></trkpt><trkpt lat="38.192080001156356" lon="15.340636559320167"><ele>34.0</ele><time>2026-05-04T09:49:27.999Z</time></trkpt><trkpt lat="38.19221302658754" lon="15.34047067564361"><ele>33.0</ele><time>2026-05-04T09:49:28.999Z</time></trkpt><trkpt lat="38.192352015110366" lon="15.340305612730202"><ele>32.0</ele><time>2026-05-04T09:49:29.999Z</time></trkpt><trkpt lat="38.19249368933616" lon="15.340144120131951"><ele>31.0</ele><time>2026-05-04T09:49:30.999Z</time></trkpt><trkpt lat="38.192638310535656" lon="15.339986682930284"><ele>31.0</ele><time>2026-05-04T09:49:31.999Z</time></trkpt><trkpt lat="38.19279118639301" lon="15.339836245679672"><ele>31.0</ele><time>2026-05-04T09:49:32.999Z</time></trkpt><trkpt lat="38.1929455218603" lon="15.339690497867865"><ele>31.0</ele><time>2026-05-04T09:49:33.999Z</time></trkpt><trkpt lat="38.19310057989029" lon="15.339548131604241"><ele>30.666666666666668</ele><time>2026-05-04T09:49:34.999Z</time></trkpt><trkpt lat="38.193258749028615" lon="15.339408495400342"><ele>30.333333333333336</ele><time>2026-05-04T09:49:36Z</time></trkpt><trkpt lat="38.193417878159245" lon="15.3392702491056"><ele>30.0</ele><time>2026-05-04T09:49:37.001Z</time></trkpt><trkpt lat="38.19357168999899" lon="15.339129201837876"><ele>30.0</ele><time>2026-05-04T09:49:38Z</time></trkpt><trkpt lat="38.19372827896244" lon="15.338984462114821"><ele>30.0</ele><time>2026-05-04T09:49:39.001Z</time></trkpt><trkpt lat="38.19388418282707" lon="15.338845273547228"><ele>30.0</ele><time>2026-05-04T09:49:40.001Z</time></trkpt><trkpt lat="38.19403656672887" lon="15.338707950845729"><ele>29.333333333333336</ele><time>2026-05-04T09:49:41Z</time></trkpt><trkpt lat="38.194187484278494" lon="15.338572887188496"><ele>28.666666666666668</ele><time>2026-05-04T09:49:42.001Z</time></trkpt><trkpt lat="38.194339059566786" lon="15.338443298376292"><ele>28.0</ele><time>2026-05-04T09:49:43.001Z</time></trkpt><trkpt lat="38.19449356541672" lon="15.33831431624238"><ele>28.0</ele><time>2026-05-04T09:49:44Z</time></trkpt><trkpt lat="38.19464928642296" lon="15.338187928593253"><ele>28.0</ele><time>2026-05-04T09:49:45Z</time></trkpt><trkpt lat="38.19481103029684" lon="15.338064019851917"><ele>28.0</ele><time>2026-05-04T09:49:46.001Z</time></trkpt><trkpt lat="38.19498094393875" lon="15.337949790617932"><ele>28.333333333333336</ele><time>2026-05-04T09:49:47Z</time></trkpt><trkpt lat="38.19516116828294" lon="15.337849400167718"><ele>28.666666666666664</ele><time>2026-05-04T09:49:48Z</time></trkpt><trkpt lat="38.195347350616785" lon="15.33775524487789"><ele>29.0</ele><time>2026-05-04T09:49:49.001Z</time></trkpt><trkpt lat="38.19553714754094" lon="15.337667266860995"><ele>28.333333333333332</ele><time>2026-05-04T09:49:50Z</time></trkpt><trkpt lat="38.19573207516545" lon="15.337575675918366"><ele>27.666666666666664</ele><time>2026-05-04T09:49:51Z</time></trkpt><trkpt lat="38.19593730350666" lon="15.337469056977339"><ele>27.0</ele><time>2026-05-04T09:49:52Z</time></trkpt><trkpt lat="38.1961522834602" lon="15.337355455357422"><ele>27.0</ele><time>2026-05-04T09:49:53Z</time></trkpt><trkpt lat="38.196379729676266" lon="15.337238506539913"><ele>27.0</ele><time>2026-05-04T09:49:54Z</time></trkpt><trkpt lat="38.19659255026862" lon="15.337139785880284"><ele>26.333333333333336</ele><time>2026-05-04T09:49:55Z</time></trkpt><trkpt lat="38.19678502421172" lon="15.337044291676458"><ele>25.666666666666668</ele><time>2026-05-04T09:49:56Z</time></trkpt><trkpt lat="38.19697317586074" lon="15.336955147662863"><ele>25.0</ele><time>2026-05-04T09:49:57Z</time></trkpt><trkpt lat="38.19716981078535" lon="15.336855894227039"><ele>24.666666666666668</ele><time>2026-05-04T09:49:58Z</time></trkpt><trkpt lat="38.19736670254426" lon="15.336758027483903"><ele>24.333333333333336</ele><time>2026-05-04T09:49:59Z</time></trkpt><trkpt lat="38.197559551328226" lon="15.336653980507574"><ele>24.0</ele><time>2026-05-04T09:50:00Z</time></trkpt><trkpt lat="38.197753338706285" lon="15.336541932220328"><ele>24.0</ele><time>2026-05-04T09:50:01Z</time></trkpt><trkpt lat="38.197938038065615" lon="15.336419230087124"><ele>24.0</ele><time>2026-05-04T09:50:02Z</time></trkpt><trkpt lat="38.19811444380415" lon="15.336280751733254"><ele>24.0</ele><time>2026-05-04T09:50:03Z</time></trkpt><trkpt lat="38.19828425812954" lon="15.33613230942064"><ele>24.0</ele><time>2026-05-04T09:50:04Z</time></trkpt><trkpt lat="38.19844827019695" lon="15.335973043734661"><ele>24.0</ele><time>2026-05-04T09:50:05Z</time></trkpt><trkpt lat="38.1986087262609" lon="15.335815714004875"><ele>24.0</ele><time>2026-05-04T09:50:06Z</time></trkpt><trkpt lat="38.19876931921272" lon="15.335660638867541"><ele>23.666666666666668</ele><time>2026-05-04T09:50:07Z</time></trkpt><trkpt lat="38.19892912004505" lon="15.335508723521754"><ele>23.333333333333336</ele><time>2026-05-04T09:50:08Z</time></trkpt><trkpt lat="38.19908912966305" lon="15.335358672974825"><ele>23.0</ele><time>2026-05-04T09:50:09Z</time></trkpt><trkpt lat="38.19924752240144" lon="15.335213704755304"><ele>22.333333333333336</ele><time>2026-05-04T09:50:10Z</time></trkpt><trkpt lat="38.199402324623094" lon="15.335060745459964"><ele>21.666666666666668</ele><time>2026-05-04T09:50:11Z</time></trkpt><trkpt lat="38.19955645614942" lon="15.334909307101418"><ele>21.0</ele><time>2026-05-04T09:50:12Z</time></trkpt><trkpt lat="38.19971288825356" lon="15.334756311645492"><ele>21.666666666666668</ele><time>2026-05-04T09:50:13Z</time></trkpt><trkpt lat="38.199867056590854" lon="15.334615540106789"><ele>22.333333333333336</ele><time>2026-05-04T09:50:14Z</time></trkpt><trkpt lat="38.20003046845198" lon="15.33446683067643"><ele>23.0</ele><time>2026-05-04T09:50:15Z</time></trkpt><trkpt lat="38.2001968400014" lon="15.334313457075531"><ele>23.0</ele><time>2026-05-04T09:50:16Z</time></trkpt><trkpt lat="38.200363261835584" lon="15.334158541474824"><ele>23.0</ele><time>2026-05-04T09:50:17Z</time></trkpt><trkpt lat="38.20051761429159" lon="15.334009911962724"><ele>23.0</ele><time>2026-05-04T09:50:18Z</time></trkpt><trkpt lat="38.200674336210106" lon="15.333845341556925"><ele>22.0</ele><time>2026-05-04T09:50:19Z</time></trkpt><trkpt lat="38.200836147421086" lon="15.333704151321196"><ele>21.0</ele><time>2026-05-04T09:50:20Z</time></trkpt><trkpt lat="38.200985989620335" lon="15.333555589763721"><ele>20.0</ele><time>2026-05-04T09:50:21Z</time></trkpt><trkpt lat="38.20115234767558" lon="15.333398677988246"><ele>20.0</ele><time>2026-05-04T09:50:22Z</time></trkpt><trkpt lat="38.20131910416956" lon="15.33323592002951"><ele>20.0</ele><time>2026-05-04T09:50:23Z</time></trkpt><trkpt lat="38.201485474644144" lon="15.333079988282195"><ele>20.0</ele><time>2026-05-04T09:50:24Z</time></trkpt><trkpt lat="38.20164662255511" lon="15.332925863328127"><ele>19.333333333333336</ele><time>2026-05-04T09:50:25Z</time></trkpt><trkpt lat="38.20181269972514" lon="15.332769706810101"><ele>18.666666666666668</ele><time>2026-05-04T09:50:26Z</time></trkpt><trkpt lat="38.2019808771171" lon="15.332618050027252"><ele>18.0</ele><time>2026-05-04T09:50:27Z</time></trkpt><trkpt lat="38.20214658200543" lon="15.332461762786465"><ele>18.0</ele><time>2026-05-04T09:50:28Z</time></trkpt><trkpt lat="38.20231147145238" lon="15.332301523183462"><ele>18.0</ele><time>2026-05-04T09:50:29Z</time></trkpt><trkpt lat="38.20247271447905" lon="15.33215244958492"><ele>18.0</ele><time>2026-05-04T09:50:30Z</time></trkpt><trkpt lat="38.20263511843761" lon="15.33200134137067"><ele>18.0</ele><time>2026-05-04T09:50:31Z</time></trkpt><trkpt lat="38.202800995532805" lon="15.331847907925141"><ele>18.0</ele><time>2026-05-04T09:50:32Z</time></trkpt><trkpt lat="38.20297231700657" lon="15.331687462185862"><ele>18.0</ele><time>2026-05-04T09:50:33Z</time></trkpt><trkpt lat="38.203152831317524" lon="15.331518384986708"><ele>17.5</ele><time>2026-05-04T09:50:34Z</time></trkpt><trkpt lat="38.20334179092079" lon="15.331349237047963"><ele>17.0</ele><time>2026-05-04T09:50:35Z</time></trkpt><trkpt lat="38.20353047100027" lon="15.331177678651528"><ele>17.0</ele><time>2026-05-04T09:50:36Z</time></trkpt><trkpt lat="38.203724361369055" lon="15.330991134948187"><ele>17.0</ele><time>2026-05-04T09:50:37Z</time></trkpt><trkpt lat="38.20391170207993" lon="15.330810671547049"><ele>16.333333333333336</ele><time>2026-05-04T09:50:38Z</time></trkpt><trkpt lat="38.20408679948269" lon="15.330644928392152"><ele>15.666666666666668</ele><time>2026-05-04T09:50:39Z</time></trkpt><trkpt lat="38.204255173759044" lon="15.330490397437"><ele>15.0</ele><time>2026-05-04T09:50:40Z</time></trkpt><trkpt lat="38.20441229595983" lon="15.33035131759497"><ele>15.0</ele><time>2026-05-04T09:50:41Z</time></trkpt><trkpt lat="38.20456526860249" lon="15.330220425285747"><ele>15.0</ele><time>2026-05-04T09:50:42Z</time></trkpt><trkpt lat="38.204719169780844" lon="15.330083610678752"><ele>15.0</ele><time>2026-05-04T09:50:43Z</time></trkpt><trkpt lat="38.20484889521469" lon="15.329954406561978"><ele>15.0</ele><time>2026-05-04T09:50:44Z</time></trkpt><trkpt lat="38.204973012232735" lon="15.32982877546147"><ele>15.0</ele><time>2026-05-04T09:50:45Z</time></trkpt><trkpt lat="38.20508801956773" lon="15.329711286577712"><ele>15.0</ele><time>2026-05-04T09:50:45.999Z</time></trkpt><trkpt lat="38.20517054481991" lon="15.329599142909267"><ele>15.0</ele><time>2026-05-04T09:50:46.999Z</time></trkpt><trkpt lat="38.20522976470398" lon="15.32950017531565"><ele>15.2</ele><time>2026-05-04T09:50:47.999Z</time></trkpt><trkpt lat="38.205282506091436" lon="15.32938655515198"><ele>15.4</ele><time>2026-05-04T09:50:48.999Z</time></trkpt><trkpt lat="38.20533528143304" lon="15.329295176316707"><ele>15.600000000000001</ele><time>2026-05-04T09:50:49.999Z</time></trkpt><trkpt lat="38.205356733129804" lon="15.32918679759473"><ele>15.8</ele><time>2026-05-04T09:50:50.999Z</time></trkpt><trkpt lat="38.2053365172005" lon="15.329090005513487"><ele>16.0</ele><time>2026-05-04T09:50:53.999Z</time></trkpt><trkpt lat="38.205279133294574" lon="15.328950821352521"><ele>15.75</ele><time>2026-05-04T09:50:55.999Z</time></trkpt><trkpt lat="38.20523858049422" lon="15.328841489274323"><ele>15.5</ele><time>2026-05-04T09:50:56.999Z</time></trkpt><trkpt lat="38.20518691054391" lon="15.328685046837158"><ele>15.25</ele><time>2026-05-04T09:50:57.999Z</time></trkpt><trkpt lat="38.20512307997979" lon="15.328485726269092"><ele>15.0</ele><time>2026-05-04T09:50:58.999Z</time></trkpt><trkpt lat="38.20506183758863" lon="15.32829276444128"><ele>15.0</ele><time>2026-05-04T09:50:59.999Z</time></trkpt><trkpt lat="38.20499759074262" lon="15.328092795038925"><ele>15.0</ele><time>2026-05-04T09:51:00.999Z</time></trkpt><trkpt lat="38.20493377090587" lon="15.327864172807729"><ele>15.0</ele><time>2026-05-04T09:51:01.999Z</time></trkpt><trkpt lat="38.20487466922761" lon="15.327626121629766"><ele>17.333333333333332</ele><time>2026-05-04T09:51:02.999Z</time></trkpt><trkpt lat="38.204819656769644" lon="15.327386695596271"><ele>19.666666666666664</ele><time>2026-05-04T09:51:03.999Z</time></trkpt><trkpt lat="38.20476585139409" lon="15.327150771187835"><ele>22.0</ele><time>2026-05-04T09:51:04.999Z</time></trkpt><trkpt lat="38.20471348690042" lon="15.32690742946431"><ele>24.333333333333332</ele><time>2026-05-04T09:51:05.999Z</time></trkpt><trkpt lat="38.20467221234389" lon="15.326669207145438"><ele>26.666666666666664</ele><time>2026-05-04T09:51:06.999Z</time></trkpt><trkpt lat="38.204626564422774" lon="15.326418998491624"><ele>29.0</ele><time>2026-05-04T09:51:08.074Z</time></trkpt><trkpt lat="38.20458341856616" lon="15.32616003022266"><ele>29.0</ele><time>2026-05-04T09:51:09.072Z</time></trkpt><trkpt lat="38.20453685467189" lon="15.325932914603246"><ele>29.0</ele><time>2026-05-04T09:51:10.068Z</time></trkpt><trkpt lat="38.20451735381678" lon="15.32569861173907"><ele>29.0</ele><time>2026-05-04T09:51:11.06Z</time></trkpt><trkpt lat="38.20445376814034" lon="15.325475007172328"><ele>24.0</ele><time>2026-05-04T09:51:12.056Z</time></trkpt><trkpt lat="38.204412956511646" lon="15.325247642444717"><ele>19.0</ele><time>2026-05-04T09:51:13.043Z</time></trkpt><trkpt lat="38.20404879065952" lon="15.324971263983542"><ele>19.2</ele><time>2026-05-04T09:51:16.999Z</time></trkpt><trkpt lat="38.20391812182947" lon="15.324925464134374"><ele>19.4</ele><time>2026-05-04T09:51:17.999Z</time></trkpt><trkpt lat="38.20384106925093" lon="15.324908380720665"><ele>19.6</ele><time>2026-05-04T09:51:18.999Z</time></trkpt><trkpt lat="38.20373710580663" lon="15.324895677541834"><ele>19.8</ele><time>2026-05-04T09:51:19.999Z</time></trkpt><trkpt lat="38.2036264836548" lon="15.324879341940536"><ele>20.0</ele><time>2026-05-04T09:51:20.999Z</time></trkpt><trkpt lat="38.2034970281309" lon="15.324855681778105"><ele>20.0</ele><time>2026-05-04T09:51:21.999Z</time></trkpt><trkpt lat="38.20340084605865" lon="15.324827668240147"><ele>20.0</ele><time>2026-05-04T09:51:22.999Z</time></trkpt><trkpt lat="38.203294733206995" lon="15.324748720099297"><ele>20.0</ele><time>2026-05-04T09:51:23.999Z</time></trkpt><trkpt lat="38.203195152895596" lon="15.324659743328438"><ele>20.0</ele><time>2026-05-04T09:51:24.999Z</time></trkpt><trkpt lat="38.203109698046234" lon="15.324558001654792"><ele>19.25</ele><time>2026-05-04T09:51:25.999Z</time></trkpt><trkpt lat="38.20302198604468" lon="15.324443667697237"><ele>18.5</ele><time>2026-05-04T09:51:26.999Z</time></trkpt><trkpt lat="38.20295143170985" lon="15.324320229120232"><ele>17.75</ele><time>2026-05-04T09:51:27.999Z</time></trkpt><trkpt lat="38.20304258465532" lon="15.324136963799686"><ele>17.0</ele><time>2026-05-04T09:51:28.999Z</time></trkpt><trkpt lat="38.20301110889837" lon="15.323989545648391"><ele>17.0</ele><time>2026-05-04T09:51:29.999Z</time></trkpt><trkpt lat="38.20299021207434" lon="15.323827177229141"><ele>17.0</ele><time>2026-05-04T09:51:30.999Z</time></trkpt><trkpt lat="38.20297269462718" lon="15.323657674528736"><ele>17.0</ele><time>2026-05-04T09:51:31.999Z</time></trkpt><trkpt lat="38.20296014979015" lon="15.323480395279068"><ele>17.0</ele><time>2026-05-04T09:51:32.999Z</time></trkpt><trkpt lat="38.20295002560372" lon="15.323315576151167"><ele>17.0</ele><time>2026-05-04T09:51:33.999Z</time></trkpt><trkpt lat="38.20293898532607" lon="15.323130099447843"><ele>17.0</ele><time>2026-05-04T09:51:34.999Z</time></trkpt><trkpt lat="38.20292045723159" lon="15.322955982918504"><ele>17.0</ele><time>2026-05-04T09:51:35.999Z</time></trkpt><trkpt lat="38.20291021308951" lon="15.322778902700316"><ele>17.0</ele><time>2026-05-04T09:51:36.999Z</time></trkpt><trkpt lat="38.20291387540752" lon="15.322592362689539"><ele>17.0</ele><time>2026-05-04T09:51:37.999Z</time></trkpt><trkpt lat="38.20291999413471" lon="15.322405503066554"><ele>17.0</ele><time>2026-05-04T09:51:38.999Z</time></trkpt><trkpt lat="38.20292655941147" lon="15.322212863453837"><ele>17.0</ele><time>2026-05-04T09:51:39.999Z</time></trkpt><trkpt lat="38.20294537644823" lon="15.322026709483248"><ele>17.0</ele><time>2026-05-04T09:51:40.999Z</time></trkpt><trkpt lat="38.20296325320241" lon="15.321837003549133"><ele>17.0</ele><time>2026-05-04T09:51:42Z</time></trkpt><trkpt lat="38.202972564659305" lon="15.321661407193764"><ele>17.0</ele><time>2026-05-04T09:51:43Z</time></trkpt><trkpt lat="38.20298108486558" lon="15.321496477091761"><ele>17.0</ele><time>2026-05-04T09:51:44Z</time></trkpt><trkpt lat="38.20299083545143" lon="15.321336316653143"><ele>17.0</ele><time>2026-05-04T09:51:45Z</time></trkpt><trkpt lat="38.20299664690231" lon="15.321183011265108"><ele>17.25</ele><time>2026-05-04T09:51:46Z</time></trkpt><trkpt lat="38.203003387868186" lon="15.321032167263791"><ele>17.5</ele><time>2026-05-04T09:51:47Z</time></trkpt><trkpt lat="38.203010004346915" lon="15.320882840337468"><ele>17.75</ele><time>2026-05-04T09:51:48Z</time></trkpt><trkpt lat="38.20301197774748" lon="15.320732050233685"><ele>18.0</ele><time>2026-05-04T09:51:49Z</time></trkpt><trkpt lat="38.20301231798155" lon="15.320568546911478"><ele>17.75</ele><time>2026-05-04T09:51:50Z</time></trkpt><trkpt lat="38.20301648411745" lon="15.320408705923862"><ele>17.5</ele><time>2026-05-04T09:51:51Z</time></trkpt><trkpt lat="38.2030097158698" lon="15.32023959599747"><ele>17.25</ele><time>2026-05-04T09:51:52Z</time></trkpt><trkpt lat="38.2029924836121" lon="15.320074026486656"><ele>17.0</ele><time>2026-05-04T09:51:53Z</time></trkpt><trkpt lat="38.202973350735164" lon="15.319909872686033"><ele>17.0</ele><time>2026-05-04T09:51:54Z</time></trkpt><trkpt lat="38.20294596336036" lon="15.319756935275405"><ele>17.0</ele><time>2026-05-04T09:51:55Z</time></trkpt><trkpt lat="38.202912886881144" lon="15.31959762105108"><ele>17.0</ele><time>2026-05-04T09:51:56Z</time></trkpt><trkpt lat="38.202866444676886" lon="15.319427014676434"><ele>17.0</ele><time>2026-05-04T09:51:57Z</time></trkpt><trkpt lat="38.20283953301911" lon="15.31925023107989"><ele>16.666666666666668</ele><time>2026-05-04T09:51:58Z</time></trkpt><trkpt lat="38.2028147519745" lon="15.319053086604969"><ele>16.333333333333332</ele><time>2026-05-04T09:51:59Z</time></trkpt><trkpt lat="38.20278051339315" lon="15.31885934076347"><ele>16.0</ele><time>2026-05-04T09:52:00Z</time></trkpt><trkpt lat="38.202744553584445" lon="15.318664412389182"><ele>16.0</ele><time>2026-05-04T09:52:01Z</time></trkpt><trkpt lat="38.2027103730328" lon="15.318457185056685"><ele>16.0</ele><time>2026-05-04T09:52:02Z</time></trkpt><trkpt lat="38.202680855800224" lon="15.318244662872159"><ele>16.0</ele><time>2026-05-04T09:52:03Z</time></trkpt><trkpt lat="38.20264929582593" lon="15.318054320635744"><ele>15.5</ele><time>2026-05-04T09:52:04Z</time></trkpt><trkpt lat="38.20261799662658" lon="15.317881073370518"><ele>15.0</ele><time>2026-05-04T09:52:05Z</time></trkpt><trkpt lat="38.202585705919056" lon="15.317709875995382"><ele>14.5</ele><time>2026-05-04T09:52:06Z</time></trkpt><trkpt lat="38.20255474120601" lon="15.31754532368799"><ele>14.0</ele><time>2026-05-04T09:52:07Z</time></trkpt><trkpt lat="38.20252529048635" lon="15.317386840385616"><ele>14.0</ele><time>2026-05-04T09:52:08Z</time></trkpt><trkpt lat="38.20250831109376" lon="15.317243813871046"><ele>14.0</ele><time>2026-05-04T09:52:09Z</time></trkpt><trkpt lat="38.20247816573001" lon="15.317082585700664"><ele>14.0</ele><time>2026-05-04T09:52:10Z</time></trkpt><trkpt lat="38.202446231722774" lon="15.316940125481597"><ele>14.0</ele><time>2026-05-04T09:52:11Z</time></trkpt><trkpt lat="38.202430775890036" lon="15.316808634628977"><ele>14.0</ele><time>2026-05-04T09:52:12Z</time></trkpt><trkpt lat="38.20239648702385" lon="15.316675932465667"><ele>13.999999999999998</ele><time>2026-05-04T09:52:13Z</time></trkpt><trkpt lat="38.2023692941114" lon="15.31655352865545"><ele>13.999999999999998</ele><time>2026-05-04T09:52:14Z</time></trkpt><trkpt lat="38.202332081701" lon="15.316436271903374"><ele>14.0</ele><time>2026-05-04T09:52:15Z</time></trkpt><trkpt lat="38.2023186463651" lon="15.316322471774463"><ele>14.0</ele><time>2026-05-04T09:52:16Z</time></trkpt><trkpt lat="38.20231269478629" lon="15.31623058572248"><ele>14.166666666666668</ele><time>2026-05-04T09:52:17Z</time></trkpt><trkpt lat="38.20231264319487" lon="15.316132739893888"><ele>14.333333333333334</ele><time>2026-05-04T09:52:19Z</time></trkpt><trkpt lat="38.20230397671554" lon="15.316039943005006"><ele>14.5</ele><time>2026-05-04T09:52:40Z</time></trkpt><trkpt lat="38.20226774122998" lon="15.315887741764532"><ele>14.666666666666668</ele><time>2026-05-04T09:52:43Z</time></trkpt><trkpt lat="38.20225904600713" lon="15.315778020370804"><ele>14.833333333333334</ele><time>2026-05-04T09:52:44Z</time></trkpt><trkpt lat="38.20222870163175" lon="15.315685570045295"><ele>15.0</ele><time>2026-05-04T09:52:45Z</time></trkpt><trkpt lat="38.20221337094035" lon="15.315574607718105"><ele>15.25</ele><time>2026-05-04T09:52:46Z</time></trkpt><trkpt lat="38.202190918087275" lon="15.31546382721794"><ele>15.5</ele><time>2026-05-04T09:52:47Z</time></trkpt><trkpt lat="38.20216106145649" lon="15.315313276250691"><ele>15.75</ele><time>2026-05-04T09:52:48Z</time></trkpt><trkpt lat="38.2021380138986" lon="15.315117754757823"><ele>16.0</ele><time>2026-05-04T09:52:49Z</time></trkpt><trkpt lat="38.20210633180503" lon="15.314939919754735"><ele>16.0</ele><time>2026-05-04T09:52:49.999Z</time></trkpt><trkpt lat="38.202081415040766" lon="15.314777841697097"><ele>16.0</ele><time>2026-05-04T09:52:50.999Z</time></trkpt><trkpt lat="38.20204637488711" lon="15.314624852488118"><ele>16.0</ele><time>2026-05-04T09:52:51.999Z</time></trkpt><trkpt lat="38.20201712390848" lon="15.314462871651441"><ele>16.0</ele><time>2026-05-04T09:52:52.999Z</time></trkpt><trkpt lat="38.20199092856904" lon="15.314291168442077"><ele>16.25</ele><time>2026-05-04T09:52:53.999Z</time></trkpt><trkpt lat="38.20195877563233" lon="15.314122500609018"><ele>16.5</ele><time>2026-05-04T09:52:54.999Z</time></trkpt><trkpt lat="38.20192372672822" lon="15.313946350427313"><ele>16.75</ele><time>2026-05-04T09:52:55.999Z</time></trkpt><trkpt lat="38.201892021685865" lon="15.313785558384211"><ele>17.0</ele><time>2026-05-04T09:52:56.999Z</time></trkpt><trkpt lat="38.20186441598837" lon="15.313636932491569"><ele>17.0</ele><time>2026-05-04T09:52:57.999Z</time></trkpt><trkpt lat="38.201834254887665" lon="15.313477802472788"><ele>17.0</ele><time>2026-05-04T09:52:58.999Z</time></trkpt><trkpt lat="38.20180210851598" lon="15.313317186377521"><ele>17.0</ele><time>2026-05-04T09:52:59.999Z</time></trkpt><trkpt lat="38.201774397153855" lon="15.313157048839884"><ele>17.0</ele><time>2026-05-04T09:53:00.999Z</time></trkpt><trkpt lat="38.20174590800879" lon="15.312991209563851"><ele>17.0</ele><time>2026-05-04T09:53:01.999Z</time></trkpt><trkpt lat="38.2017128663359" lon="15.312839671799171"><ele>17.0</ele><time>2026-05-04T09:53:02.999Z</time></trkpt><trkpt lat="38.20169036912576" lon="15.312689423893442"><ele>17.0</ele><time>2026-05-04T09:53:03.999Z</time></trkpt><trkpt lat="38.20166764618297" lon="15.312540882435218"><ele>17.0</ele><time>2026-05-04T09:53:04.999Z</time></trkpt><trkpt lat="38.20164362260972" lon="15.31238101379422"><ele>16.5</ele><time>2026-05-04T09:53:05.999Z</time></trkpt><trkpt lat="38.20161631696681" lon="15.312217430300967"><ele>16.0</ele><time>2026-05-04T09:53:06.999Z</time></trkpt><trkpt lat="38.20158334688741" lon="15.312055363248142"><ele>15.5</ele><time>2026-05-04T09:53:07.999Z</time></trkpt><trkpt lat="38.20155499431" lon="15.311881967680298"><ele>15.0</ele><time>2026-05-04T09:53:08.999Z</time></trkpt><trkpt lat="38.201522924328" lon="15.311712301677598"><ele>15.75</ele><time>2026-05-04T09:53:09.999Z</time></trkpt><trkpt lat="38.2014925241168" lon="15.311537699415318"><ele>16.5</ele><time>2026-05-04T09:53:10.999Z</time></trkpt><trkpt lat="38.20145940569485" lon="15.31135494022303"><ele>17.25</ele><time>2026-05-04T09:53:11.999Z</time></trkpt><trkpt lat="38.20143073005988" lon="15.311180307583955"><ele>18.0</ele><time>2026-05-04T09:53:12.999Z</time></trkpt><trkpt lat="38.20139691556788" lon="15.311000226592787"><ele>18.75</ele><time>2026-05-04T09:53:13.999Z</time></trkpt><trkpt lat="38.201365999782126" lon="15.31083262719297"><ele>19.5</ele><time>2026-05-04T09:53:14.999Z</time></trkpt><trkpt lat="38.201337583596946" lon="15.310667339400815"><ele>20.25</ele><time>2026-05-04T09:53:15.999Z</time></trkpt><trkpt lat="38.201305783870154" lon="15.310495930159307"><ele>21.0</ele><time>2026-05-04T09:53:16.999Z</time></trkpt><trkpt lat="38.201275210542015" lon="15.310323822034471"><ele>21.0</ele><time>2026-05-04T09:53:17.999Z</time></trkpt><trkpt lat="38.201243149969784" lon="15.310144625958"><ele>21.0</ele><time>2026-05-04T09:53:18.999Z</time></trkpt><trkpt lat="38.201213145931895" lon="15.309956271727794"><ele>21.0</ele><time>2026-05-04T09:53:19.999Z</time></trkpt><trkpt lat="38.20117465894435" lon="15.30975728064686"><ele>20.666666666666668</ele><time>2026-05-04T09:53:20.999Z</time></trkpt><trkpt lat="38.20113908200703" lon="15.309551438925153"><ele>20.333333333333336</ele><time>2026-05-04T09:53:21.999Z</time></trkpt><trkpt lat="38.20109480725098" lon="15.30934979316396"><ele>20.0</ele><time>2026-05-04T09:53:22.999Z</time></trkpt><trkpt lat="38.20105725117322" lon="15.309144965281863"><ele>20.0</ele><time>2026-05-04T09:53:23.999Z</time></trkpt><trkpt lat="38.201032370880235" lon="15.30892289550862"><ele>20.0</ele><time>2026-05-04T09:53:24.999Z</time></trkpt><trkpt lat="38.20098984088807" lon="15.308657350445591"><ele>20.0</ele><time>2026-05-04T09:53:25.999Z</time></trkpt><trkpt lat="38.200941263753556" lon="15.308408619379668"><ele>19.333333333333336</ele><time>2026-05-04T09:53:26.999Z</time></trkpt><trkpt lat="38.200887920437026" lon="15.308141552718839"><ele>18.666666666666668</ele><time>2026-05-04T09:53:27.999Z</time></trkpt><trkpt lat="38.2008372084153" lon="15.307876328494501"><ele>18.0</ele><time>2026-05-04T09:53:28.999Z</time></trkpt><trkpt lat="38.200790742002354" lon="15.307642644042334"><ele>17.666666666666668</ele><time>2026-05-04T09:53:29.999Z</time></trkpt><trkpt lat="38.20075325895141" lon="15.307420970113697"><ele>17.333333333333336</ele><time>2026-05-04T09:53:30.999Z</time></trkpt><trkpt lat="38.200720182116896" lon="15.307211248840302"><ele>17.0</ele><time>2026-05-04T09:53:31.999Z</time></trkpt><trkpt lat="38.20068630210616" lon="15.307004614948056"><ele>18.333333333333336</ele><time>2026-05-04T09:53:32.999Z</time></trkpt><trkpt lat="38.20065329107762" lon="15.30679943340364"><ele>19.666666666666668</ele><time>2026-05-04T09:53:33.999Z</time></trkpt><trkpt lat="38.20061633705771" lon="15.306596044958747"><ele>21.0</ele><time>2026-05-04T09:53:34.999Z</time></trkpt><trkpt lat="38.20057777687043" lon="15.30639382399886"><ele>21.0</ele><time>2026-05-04T09:53:35.999Z</time></trkpt><trkpt lat="38.20054611072283" lon="15.306188330466217"><ele>21.0</ele><time>2026-05-04T09:53:36.999Z</time></trkpt><trkpt lat="38.20051294497027" lon="15.305992251659308"><ele>21.0</ele><time>2026-05-04T09:53:37.999Z</time></trkpt><trkpt lat="38.20048249160696" lon="15.305798540899604"><ele>21.0</ele><time>2026-05-04T09:53:38.999Z</time></trkpt><trkpt lat="38.20045814567076" lon="15.305621133958974"><ele>21.0</ele><time>2026-05-04T09:53:39.999Z</time></trkpt><trkpt lat="38.2004211068706" lon="15.305446155154716"><ele>21.0</ele><time>2026-05-04T09:53:40.999Z</time></trkpt><trkpt lat="38.20038538319911" lon="15.305280802425393"><ele>21.0</ele><time>2026-05-04T09:53:41.999Z</time></trkpt><trkpt lat="38.2003582713459" lon="15.305133449429869"><ele>20.400000000000002</ele><time>2026-05-04T09:53:42.999Z</time></trkpt><trkpt lat="38.20033555688051" lon="15.304989353534692"><ele>19.8</ele><time>2026-05-04T09:53:43.999Z</time></trkpt><trkpt lat="38.20031580500395" lon="15.30486136995852"><ele>19.200000000000003</ele><time>2026-05-04T09:53:44.999Z</time></trkpt><trkpt lat="38.20030208609713" lon="15.304758845365035"><ele>18.6</ele><time>2026-05-04T09:53:45.998Z</time></trkpt><trkpt lat="38.20030474678949" lon="15.304670724862621"><ele>18.0</ele><time>2026-05-04T09:53:46.998Z</time></trkpt><trkpt lat="38.200356821422474" lon="15.30454034647547"><ele>17.5</ele><time>2026-05-04T09:53:49Z</time></trkpt><trkpt lat="38.200393664761954" lon="15.304430013706657"><ele>17.0</ele><time>2026-05-04T09:53:51Z</time></trkpt><trkpt lat="38.20027351507837" lon="15.304241353279473"><ele>16.5</ele><time>2026-05-04T09:55:14.999Z</time></trkpt><trkpt lat="38.20023245010538" lon="15.304157429826367"><ele>16.0</ele><time>2026-05-04T09:55:15.999Z</time></trkpt><trkpt lat="38.20019164885585" lon="15.30405599349288"><ele>16.0</ele><time>2026-05-04T09:55:16.999Z</time></trkpt><trkpt lat="38.20015812212449" lon="15.303945742536575"><ele>16.0</ele><time>2026-05-04T09:55:17.999Z</time></trkpt><trkpt lat="38.20012219063426" lon="15.30385835810478"><ele>16.0</ele><time>2026-05-04T09:55:18.999Z</time></trkpt><trkpt lat="38.200082258825965" lon="15.303740898536994"><ele>16.0</ele><time>2026-05-04T09:55:19.999Z</time></trkpt><trkpt lat="38.200035637197274" lon="15.3035793745439"><ele>16.0</ele><time>2026-05-04T09:55:20.999Z</time></trkpt><trkpt lat="38.199988404709686" lon="15.303386258265624"><ele>15.666666666666666</ele><time>2026-05-04T09:55:21.999Z</time></trkpt><trkpt lat="38.1999448398751" lon="15.30319169865995"><ele>15.333333333333332</ele><time>2026-05-04T09:55:22.999Z</time></trkpt><trkpt lat="38.19989652595935" lon="15.30298888405067"><ele>15.0</ele><time>2026-05-04T09:55:23.999Z</time></trkpt><trkpt lat="38.199843306369374" lon="15.30279203302101"><ele>16.0</ele><time>2026-05-04T09:55:24.999Z</time></trkpt><trkpt lat="38.19978184624919" lon="15.302579702730831"><ele>17.0</ele><time>2026-05-04T09:55:25.999Z</time></trkpt><trkpt lat="38.199725646251466" lon="15.30237810606654"><ele>18.0</ele><time>2026-05-04T09:55:26.999Z</time></trkpt><trkpt lat="38.199669719421514" lon="15.302164684668845"><ele>18.333333333333332</ele><time>2026-05-04T09:55:27.999Z</time></trkpt><trkpt lat="38.19961497420424" lon="15.301950331020496"><ele>18.666666666666664</ele><time>2026-05-04T09:55:28.999Z</time></trkpt><trkpt lat="38.19956702167041" lon="15.301741865738983"><ele>19.0</ele><time>2026-05-04T09:55:29.999Z</time></trkpt><trkpt lat="38.19952994571352" lon="15.30152874419561"><ele>18.666666666666664</ele><time>2026-05-04T09:55:30.999Z</time></trkpt><trkpt lat="38.199500765155356" lon="15.301306741117584"><ele>18.333333333333332</ele><time>2026-05-04T09:55:31.999Z</time></trkpt><trkpt lat="38.19947954561533" lon="15.301086721667717"><ele>18.0</ele><time>2026-05-04T09:55:32.999Z</time></trkpt><trkpt lat="38.19946046123489" lon="15.300864254638041"><ele>18.0</ele><time>2026-05-04T09:55:33.999Z</time></trkpt><trkpt lat="38.1994474059402" lon="15.300660343078636"><ele>18.0</ele><time>2026-05-04T09:55:34.999Z</time></trkpt><trkpt lat="38.19943835743839" lon="15.300458731530195"><ele>18.0</ele><time>2026-05-04T09:55:35.999Z</time></trkpt><trkpt lat="38.199436847835166" lon="15.300274487412128"><ele>17.5</ele><time>2026-05-04T09:55:36.999Z</time></trkpt><trkpt lat="38.19944176851555" lon="15.300092920757638"><ele>17.0</ele><time>2026-05-04T09:55:37.999Z</time></trkpt><trkpt lat="38.19945060533467" lon="15.29991178910972"><ele>16.5</ele><time>2026-05-04T09:55:38.999Z</time></trkpt><trkpt lat="38.19945658765327" lon="15.299733342832624"><ele>16.0</ele><time>2026-05-04T09:55:39.999Z</time></trkpt><trkpt lat="38.19946415229794" lon="15.299572302608649"><ele>15.75</ele><time>2026-05-04T09:55:40.999Z</time></trkpt><trkpt lat="38.199469658430765" lon="15.299401956088035"><ele>15.5</ele><time>2026-05-04T09:55:41.999Z</time></trkpt><trkpt lat="38.19947121277689" lon="15.299220611746517"><ele>15.25</ele><time>2026-05-04T09:55:42.999Z</time></trkpt><trkpt lat="38.19947635547134" lon="15.299025201027833"><ele>15.0</ele><time>2026-05-04T09:55:43.999Z</time></trkpt><trkpt lat="38.19947546507588" lon="15.298805967923515"><ele>15.666666666666668</ele><time>2026-05-04T09:55:44.999Z</time></trkpt><trkpt lat="38.19947795979618" lon="15.298552036880432"><ele>16.333333333333336</ele><time>2026-05-04T09:55:45.999Z</time></trkpt><trkpt lat="38.19949142150259" lon="15.29826477064038"><ele>17.0</ele><time>2026-05-04T09:55:46.999Z</time></trkpt><trkpt lat="38.19951099275692" lon="15.29797662188737"><ele>17.0</ele><time>2026-05-04T09:55:47.999Z</time></trkpt><trkpt lat="38.19951963951314" lon="15.297674374021133"><ele>17.0</ele><time>2026-05-04T09:55:48.999Z</time></trkpt><trkpt lat="38.19953410026518" lon="15.297344183910008"><ele>16.0</ele><time>2026-05-04T09:55:49.999Z</time></trkpt><trkpt lat="38.199548054794114" lon="15.29704407704089"><ele>15.0</ele><time>2026-05-04T09:55:50.998Z</time></trkpt><trkpt lat="38.19955268756381" lon="15.296789943898775"><ele>14.0</ele><time>2026-05-04T09:55:51.998Z</time></trkpt><trkpt lat="38.199561857261436" lon="15.2965335607347"><ele>14.0</ele><time>2026-05-04T09:55:53Z</time></trkpt><trkpt lat="38.19957078228454" lon="15.296285596749646"><ele>14.0</ele><time>2026-05-04T09:55:54Z</time></trkpt><trkpt lat="38.19957669856647" lon="15.296039420880522"><ele>14.0</ele><time>2026-05-04T09:55:55Z</time></trkpt><trkpt lat="38.19958455241172" lon="15.295792468959936"><ele>13.333333333333334</ele><time>2026-05-04T09:55:56Z</time></trkpt><trkpt lat="38.19959991211939" lon="15.295543929365113"><ele>12.666666666666668</ele><time>2026-05-04T09:55:57Z</time></trkpt><trkpt lat="38.199617168613756" lon="15.295289477482067"><ele>12.0</ele><time>2026-05-04T09:55:58Z</time></trkpt><trkpt lat="38.199630186722295" lon="15.295034435006789"><ele>12.0</ele><time>2026-05-04T09:55:59Z</time></trkpt><trkpt lat="38.19964202836219" lon="15.29478278181128"><ele>12.0</ele><time>2026-05-04T09:56:00Z</time></trkpt><trkpt lat="38.19965600317512" lon="15.294521997233476"><ele>12.0</ele><time>2026-05-04T09:56:01Z</time></trkpt><trkpt lat="38.19968643541324" lon="15.294258026051715"><ele>11.333333333333334</ele><time>2026-05-04T09:56:02Z</time></trkpt><trkpt lat="38.19972587576245" lon="15.293980376020546"><ele>10.666666666666668</ele><time>2026-05-04T09:56:03Z</time></trkpt><trkpt lat="38.199754853496714" lon="15.293708747742292"><ele>10.0</ele><time>2026-05-04T09:56:04Z</time></trkpt><trkpt lat="38.199762455688024" lon="15.293444403060684"><ele>10.0</ele><time>2026-05-04T09:56:05Z</time></trkpt><trkpt lat="38.19974354753237" lon="15.293197173187295"><ele>10.0</ele><time>2026-05-04T09:56:06Z</time></trkpt><trkpt lat="38.19970627654267" lon="15.29295188703864"><ele>10.0</ele><time>2026-05-04T09:56:07Z</time></trkpt><trkpt lat="38.19964659834857" lon="15.292711924484887"><ele>10.666666666666668</ele><time>2026-05-04T09:56:08Z</time></trkpt><trkpt lat="38.199581199163084" lon="15.292477399139665"><ele>11.333333333333334</ele><time>2026-05-04T09:56:09Z</time></trkpt><trkpt lat="38.199521305157745" lon="15.292254010050868"><ele>12.0</ele><time>2026-05-04T09:56:10Z</time></trkpt><trkpt lat="38.19946873904906" lon="15.292036007418023"><ele>12.666666666666668</ele><time>2026-05-04T09:56:11Z</time></trkpt><trkpt lat="38.19942214181375" lon="15.2918171307886"><ele>13.333333333333334</ele><time>2026-05-04T09:56:12Z</time></trkpt><trkpt lat="38.19937813413934" lon="15.291602962714297"><ele>14.0</ele><time>2026-05-04T09:56:13Z</time></trkpt><trkpt lat="38.19932764933101" lon="15.291388523579144"><ele>14.333333333333334</ele><time>2026-05-04T09:56:14Z</time></trkpt><trkpt lat="38.199278351260006" lon="15.291188588501642"><ele>14.666666666666668</ele><time>2026-05-04T09:56:15Z</time></trkpt><trkpt lat="38.19923617102507" lon="15.291002616434147"><ele>15.0</ele><time>2026-05-04T09:56:16Z</time></trkpt><trkpt lat="38.19920619849394" lon="15.29083807365185"><ele>15.0</ele><time>2026-05-04T09:56:17Z</time></trkpt><trkpt lat="38.19918484756249" lon="15.290661590432114"><ele>15.0</ele><time>2026-05-04T09:56:18Z</time></trkpt><trkpt lat="38.199162445550144" lon="15.29048213649071"><ele>15.0</ele><time>2026-05-04T09:56:19Z</time></trkpt><trkpt lat="38.19915440679115" lon="15.290292265502472"><ele>15.0</ele><time>2026-05-04T09:56:20Z</time></trkpt><trkpt lat="38.19916689445671" lon="15.290094776071284"><ele>14.0</ele><time>2026-05-04T09:56:21Z</time></trkpt><trkpt lat="38.199166656175294" lon="15.289869976967083"><ele>13.0</ele><time>2026-05-04T09:56:22Z</time></trkpt><trkpt lat="38.199163474279935" lon="15.28964302035355"><ele>12.0</ele><time>2026-05-04T09:56:23Z</time></trkpt><trkpt lat="38.199159212587716" lon="15.289424086544377"><ele>12.0</ele><time>2026-05-04T09:56:24Z</time></trkpt><trkpt lat="38.19915747147232" lon="15.28919730847269"><ele>12.0</ele><time>2026-05-04T09:56:25Z</time></trkpt><trkpt lat="38.19915330878108" lon="15.288966915686945"><ele>12.0</ele><time>2026-05-04T09:56:26Z</time></trkpt><trkpt lat="38.19915145980131" lon="15.288738431452131"><ele>13.333333333333332</ele><time>2026-05-04T09:56:27Z</time></trkpt><trkpt lat="38.19915028220371" lon="15.288511160438233"><ele>14.666666666666666</ele><time>2026-05-04T09:56:28Z</time></trkpt><trkpt lat="38.19914325271347" lon="15.288282537496997"><ele>16.0</ele><time>2026-05-04T09:56:29Z</time></trkpt><trkpt lat="38.19913653572771" lon="15.28806105247495"><ele>16.0</ele><time>2026-05-04T09:56:30Z</time></trkpt><trkpt lat="38.19913696662553" lon="15.287864506482576"><ele>16.0</ele><time>2026-05-04T09:56:31Z</time></trkpt><trkpt lat="38.199141334070234" lon="15.287690929444672"><ele>16.0</ele><time>2026-05-04T09:56:32Z</time></trkpt><trkpt lat="38.19914680261679" lon="15.287504573540994"><ele>16.0</ele><time>2026-05-04T09:56:33Z</time></trkpt><trkpt lat="38.19915369661331" lon="15.287319240331268"><ele>16.666666666666664</ele><time>2026-05-04T09:56:34Z</time></trkpt><trkpt lat="38.1991479905952" lon="15.287133795910826"><ele>17.333333333333332</ele><time>2026-05-04T09:56:35Z</time></trkpt><trkpt lat="38.19913835322063" lon="15.286932643623356"><ele>18.0</ele><time>2026-05-04T09:56:36Z</time></trkpt><trkpt lat="38.199112248217496" lon="15.286681758042585"><ele>17.333333333333332</ele><time>2026-05-04T09:56:37Z</time></trkpt><trkpt lat="38.199082747072104" lon="15.28642003639359"><ele>16.666666666666664</ele><time>2026-05-04T09:56:38Z</time></trkpt><trkpt lat="38.1990630712125" lon="15.286173459055014"><ele>16.0</ele><time>2026-05-04T09:56:39Z</time></trkpt><trkpt lat="38.199046340300825" lon="15.285932764947681"><ele>16.333333333333332</ele><time>2026-05-04T09:56:40Z</time></trkpt><trkpt lat="38.19893240428565" lon="15.285659853967465"><ele>16.666666666666668</ele><time>2026-05-04T09:56:41Z</time></trkpt><trkpt lat="38.19884196514215" lon="15.28543966890117"><ele>17.0</ele><time>2026-05-04T09:56:42Z</time></trkpt><trkpt lat="38.19873782160829" lon="15.285248201004467"><ele>17.0</ele><time>2026-05-04T09:56:43Z</time></trkpt><trkpt lat="38.19861478874583" lon="15.285083411363205"><ele>17.0</ele><time>2026-05-04T09:56:44Z</time></trkpt><trkpt lat="38.1984639535121" lon="15.284935307102383"><ele>17.0</ele><time>2026-05-04T09:56:45Z</time></trkpt><trkpt lat="38.19828535043169" lon="15.28478765425042"><ele>18.5</ele><time>2026-05-04T09:56:46Z</time></trkpt><trkpt lat="38.198086574601284" lon="15.284640973729521"><ele>20.0</ele><time>2026-05-04T09:56:47Z</time></trkpt><trkpt lat="38.197870714741555" lon="15.284470093091754"><ele>20.0</ele><time>2026-05-04T09:56:48Z</time></trkpt><trkpt lat="38.197674212571954" lon="15.28429442231368"><ele>20.0</ele><time>2026-05-04T09:56:49Z</time></trkpt><trkpt lat="38.19750074498968" lon="15.284110936857951"><ele>20.333333333333336</ele><time>2026-05-04T09:56:50Z</time></trkpt><trkpt lat="38.197352095769816" lon="15.283905286554036"><ele>20.666666666666668</ele><time>2026-05-04T09:56:51Z</time></trkpt><trkpt lat="38.19721683561774" lon="15.283672532503605"><ele>21.0</ele><time>2026-05-04T09:56:52Z</time></trkpt><trkpt lat="38.19708248759418" lon="15.283417895647204"><ele>22.333333333333336</ele><time>2026-05-04T09:56:53Z</time></trkpt><trkpt lat="38.19695254872268" lon="15.283177195699531"><ele>23.666666666666668</ele><time>2026-05-04T09:56:54Z</time></trkpt><trkpt lat="38.19682254934292" lon="15.282961617357499"><ele>25.0</ele><time>2026-05-04T09:56:55Z</time></trkpt><trkpt lat="38.1967058478774" lon="15.28277160914197"><ele>25.333333333333336</ele><time>2026-05-04T09:56:56Z</time></trkpt><trkpt lat="38.19659353723749" lon="15.282587045415672"><ele>25.666666666666664</ele><time>2026-05-04T09:56:57Z</time></trkpt><trkpt lat="38.19648820379766" lon="15.282394243843488"><ele>26.0</ele><time>2026-05-04T09:56:58Z</time></trkpt><trkpt lat="38.19639270351408" lon="15.28219217653458"><ele>26.0</ele><time>2026-05-04T09:56:58.999Z</time></trkpt><trkpt lat="38.19631200080821" lon="15.28199258026958"><ele>26.0</ele><time>2026-05-04T09:56:59.999Z</time></trkpt><trkpt lat="38.196241128568175" lon="15.281811094273671"><ele>26.0</ele><time>2026-05-04T09:57:00.999Z</time></trkpt><trkpt lat="38.19617277985438" lon="15.281630844880105"><ele>26.0</ele><time>2026-05-04T09:57:01.999Z</time></trkpt><trkpt lat="38.19608769508625" lon="15.281453686821308"><ele>26.0</ele><time>2026-05-04T09:57:02.999Z</time></trkpt><trkpt lat="38.19601406890213" lon="15.281275335660919"><ele>26.0</ele><time>2026-05-04T09:57:03.999Z</time></trkpt><trkpt lat="38.195924978659185" lon="15.281088239965522"><ele>25.333333333333332</ele><time>2026-05-04T09:57:04.999Z</time></trkpt><trkpt lat="38.19582426096092" lon="15.280904895721417"><ele>24.666666666666664</ele><time>2026-05-04T09:57:05.999Z</time></trkpt><trkpt lat="38.195749714554054" lon="15.280736277400763"><ele>24.0</ele><time>2026-05-04T09:57:06.999Z</time></trkpt><trkpt lat="38.195682077445944" lon="15.28058221497107"><ele>23.6</ele><time>2026-05-04T09:57:07.999Z</time></trkpt><trkpt lat="38.19563256261894" lon="15.280434565497698"><ele>23.2</ele><time>2026-05-04T09:57:08.999Z</time></trkpt><trkpt lat="38.19561540887107" lon="15.28029928026831"><ele>22.8</ele><time>2026-05-04T09:57:09.999Z</time></trkpt><trkpt lat="38.19560260023643" lon="15.280200558808827"><ele>22.400000000000002</ele><time>2026-05-04T09:57:10.999Z</time></trkpt><trkpt lat="38.19567301061495" lon="15.280064395832637"><ele>22.0</ele><time>2026-05-04T09:57:11.999Z</time></trkpt><trkpt lat="38.1957286233217" lon="15.279940045484121"><ele>22.0</ele><time>2026-05-04T09:57:12.999Z</time></trkpt><trkpt lat="38.195793640203746" lon="15.27980488584325"><ele>22.0</ele><time>2026-05-04T09:57:13.999Z</time></trkpt><trkpt lat="38.19587013474206" lon="15.27965326402427"><ele>22.0</ele><time>2026-05-04T09:57:14.999Z</time></trkpt><trkpt lat="38.19595155161884" lon="15.279492289645665"><ele>22.0</ele><time>2026-05-04T09:57:15.999Z</time></trkpt><trkpt lat="38.19601752054694" lon="15.279343996642204"><ele>22.75</ele><time>2026-05-04T09:57:16.999Z</time></trkpt><trkpt lat="38.19608648604677" lon="15.279223454457865"><ele>23.5</ele><time>2026-05-04T09:57:17.999Z</time></trkpt><trkpt lat="38.19613777951797" lon="15.279117819047128"><ele>24.25</ele><time>2026-05-04T09:57:18.999Z</time></trkpt><trkpt lat="38.19617922516282" lon="15.279025827678167"><ele>25.0</ele><time>2026-05-04T09:57:19.999Z</time></trkpt><trkpt lat="38.19594631399631" lon="15.278817610237192"><ele>25.25</ele><time>2026-05-04T09:57:21.999Z</time></trkpt><trkpt lat="38.195845502859555" lon="15.278774928392831"><ele>25.5</ele><time>2026-05-04T09:57:22.999Z</time></trkpt><trkpt lat="38.19574303385708" lon="15.278693406613545"><ele>25.75</ele><time>2026-05-04T09:57:23.999Z</time></trkpt><trkpt lat="38.1956421807138" lon="15.278569355921709"><ele>26.0</ele><time>2026-05-04T09:57:24.999Z</time></trkpt><trkpt lat="38.195559693013124" lon="15.278402463524184"><ele>26.333333333333332</ele><time>2026-05-04T09:57:25.999Z</time></trkpt><trkpt lat="38.19548938026556" lon="15.278213519599753"><ele>26.666666666666664</ele><time>2026-05-04T09:57:26.999Z</time></trkpt><trkpt lat="38.195454710945825" lon="15.278015986483867"><ele>27.0</ele><time>2026-05-04T09:57:27.999Z</time></trkpt><trkpt lat="38.19544829607715" lon="15.27779649067357"><ele>27.0</ele><time>2026-05-04T09:57:28.999Z</time></trkpt><trkpt lat="38.19546829020822" lon="15.2775557415198"><ele>27.0</ele><time>2026-05-04T09:57:29.999Z</time></trkpt><trkpt lat="38.195500791949144" lon="15.277289143128288"><ele>27.0</ele><time>2026-05-04T09:57:30.999Z</time></trkpt><trkpt lat="38.1955368690095" lon="15.27702272148228"><ele>26.666666666666664</ele><time>2026-05-04T09:57:31.999Z</time></trkpt><trkpt lat="38.195573287141414" lon="15.276773603781098"><ele>26.333333333333332</ele><time>2026-05-04T09:57:32.999Z</time></trkpt><trkpt lat="38.19559918822709" lon="15.276532732419994"><ele>26.0</ele><time>2026-05-04T09:57:33.999Z</time></trkpt><trkpt lat="38.195621091163936" lon="15.276311639830789"><ele>26.0</ele><time>2026-05-04T09:57:34.999Z</time></trkpt><trkpt lat="38.19564965500778" lon="15.276112597844016"><ele>26.0</ele><time>2026-05-04T09:57:35.999Z</time></trkpt><trkpt lat="38.19569823450159" lon="15.275923511906278"><ele>26.0</ele><time>2026-05-04T09:57:36.999Z</time></trkpt><trkpt lat="38.195789303625396" lon="15.275760151688548"><ele>25.333333333333332</ele><time>2026-05-04T09:57:37.999Z</time></trkpt><trkpt lat="38.195898481746205" lon="15.275601693060997"><ele>24.666666666666664</ele><time>2026-05-04T09:57:38.999Z</time></trkpt><trkpt lat="38.19603340613034" lon="15.275461165988789"><ele>24.0</ele><time>2026-05-04T09:57:39.999Z</time></trkpt><trkpt lat="38.1961856597416" lon="15.275321142745398"><ele>24.0</ele><time>2026-05-04T09:57:40.999Z</time></trkpt><trkpt lat="38.19634540340675" lon="15.27517466280881"><ele>24.0</ele><time>2026-05-04T09:57:41.999Z</time></trkpt><trkpt lat="38.19650874668183" lon="15.275024341627478"><ele>24.0</ele><time>2026-05-04T09:57:42.999Z</time></trkpt><trkpt lat="38.19668549110225" lon="15.27485400073439"><ele>22.0</ele><time>2026-05-04T09:57:43.999Z</time></trkpt><trkpt lat="38.19686958178652" lon="15.274681059572778"><ele>20.0</ele><time>2026-05-04T09:57:44.999Z</time></trkpt><trkpt lat="38.19706088931825" lon="15.274513931816267"><ele>20.0</ele><time>2026-05-04T09:57:45.999Z</time></trkpt><trkpt lat="38.197231945611094" lon="15.274354729232234"><ele>20.0</ele><time>2026-05-04T09:57:46.999Z</time></trkpt><trkpt lat="38.19738749281043" lon="15.274187503822604"><ele>20.0</ele><time>2026-05-04T09:57:47.999Z</time></trkpt><trkpt lat="38.19752518797941" lon="15.274011862561064"><ele>21.0</ele><time>2026-05-04T09:57:48.999Z</time></trkpt><trkpt lat="38.197639798590345" lon="15.27381191536672"><ele>22.0</ele><time>2026-05-04T09:57:49.999Z</time></trkpt><trkpt lat="38.19772787539619" lon="15.273588293464353"><ele>23.0</ele><time>2026-05-04T09:57:50.999Z</time></trkpt><trkpt lat="38.19779628530668" lon="15.273363986210999"><ele>23.0</ele><time>2026-05-04T09:57:51.999Z</time></trkpt><trkpt lat="38.197845285432884" lon="15.273144304469438"><ele>23.0</ele><time>2026-05-04T09:57:52.999Z</time></trkpt><trkpt lat="38.19787979906232" lon="15.27290844320548"><ele>23.0</ele><time>2026-05-04T09:57:53.999Z</time></trkpt><trkpt lat="38.197912653033285" lon="15.27267602985969"><ele>22.333333333333336</ele><time>2026-05-04T09:57:54.999Z</time></trkpt><trkpt lat="38.19794694694434" lon="15.272443273373693"><ele>21.666666666666668</ele><time>2026-05-04T09:57:55.998Z</time></trkpt><trkpt lat="38.19797040684885" lon="15.272190693330021"><ele>21.0</ele><time>2026-05-04T09:57:56.998Z</time></trkpt><trkpt lat="38.197999804933495" lon="15.271955257861421"><ele>21.0</ele><time>2026-05-04T09:57:58Z</time></trkpt><trkpt lat="38.198026968089906" lon="15.271719062914608"><ele>21.0</ele><time>2026-05-04T09:57:59Z</time></trkpt><trkpt lat="38.19805404531864" lon="15.271491166811611"><ele>21.0</ele><time>2026-05-04T09:58:00Z</time></trkpt><trkpt lat="38.198088318538105" lon="15.271272219415014"><ele>21.0</ele><time>2026-05-04T09:58:01Z</time></trkpt><trkpt lat="38.19812639116295" lon="15.271063113068696"><ele>21.0</ele><time>2026-05-04T09:58:02Z</time></trkpt><trkpt lat="38.19818802623112" lon="15.270866936923253"><ele>21.0</ele><time>2026-05-04T09:58:03Z</time></trkpt><trkpt lat="38.198262333451574" lon="15.270672199046821"><ele>21.0</ele><time>2026-05-04T09:58:04Z</time></trkpt><trkpt lat="38.19834131298732" lon="15.270476014659303"><ele>21.0</ele><time>2026-05-04T09:58:05Z</time></trkpt><trkpt lat="38.198424680212405" lon="15.270285905405112"><ele>21.0</ele><time>2026-05-04T09:58:06Z</time></trkpt><trkpt lat="38.19850806861715" lon="15.270088354388614"><ele>21.0</ele><time>2026-05-04T09:58:07Z</time></trkpt><trkpt lat="38.1985909057148" lon="15.269871522307744"><ele>21.0</ele><time>2026-05-04T09:58:08Z</time></trkpt><trkpt lat="38.19868488898459" lon="15.269646080771329"><ele>21.0</ele><time>2026-05-04T09:58:09Z</time></trkpt><trkpt lat="38.19878111247793" lon="15.269430874345371"><ele>21.0</ele><time>2026-05-04T09:58:10Z</time></trkpt><trkpt lat="38.19888281643" lon="15.269221945408175"><ele>21.0</ele><time>2026-05-04T09:58:11Z</time></trkpt><trkpt lat="38.19898367588489" lon="15.269005717488966"><ele>21.0</ele><time>2026-05-04T09:58:12Z</time></trkpt><trkpt lat="38.19908459565198" lon="15.268787896616502"><ele>21.0</ele><time>2026-05-04T09:58:13Z</time></trkpt><trkpt lat="38.19918374177132" lon="15.268565188590335"><ele>21.0</ele><time>2026-05-04T09:58:14Z</time></trkpt><trkpt lat="38.199283092808095" lon="15.268347141615783"><ele>21.0</ele><time>2026-05-04T09:58:15Z</time></trkpt><trkpt lat="38.19938792740326" lon="15.268138915665496"><ele>20.666666666666668</ele><time>2026-05-04T09:58:16Z</time></trkpt><trkpt lat="38.19951119494364" lon="15.26794558933926"><ele>20.333333333333336</ele><time>2026-05-04T09:58:17Z</time></trkpt><trkpt lat="38.19964713091348" lon="15.267778417760788"><ele>20.0</ele><time>2026-05-04T09:58:18Z</time></trkpt><trkpt lat="38.19978853687871" lon="15.267630634152876"><ele>19.666666666666668</ele><time>2026-05-04T09:58:19Z</time></trkpt><trkpt lat="38.19993360366573" lon="15.267471155048504"><ele>19.333333333333332</ele><time>2026-05-04T09:58:20Z</time></trkpt><trkpt lat="38.20007002949897" lon="15.267293824198337"><ele>19.0</ele><time>2026-05-04T09:58:21Z</time></trkpt><trkpt lat="38.20018796965489" lon="15.267096794226926"><ele>19.0</ele><time>2026-05-04T09:58:22Z</time></trkpt><trkpt lat="38.200288940251355" lon="15.266886155979627"><ele>19.0</ele><time>2026-05-04T09:58:23Z</time></trkpt><trkpt lat="38.200372184122806" lon="15.266660941762039"><ele>19.0</ele><time>2026-05-04T09:58:24Z</time></trkpt><trkpt lat="38.20045215410012" lon="15.266429518372943"><ele>19.0</ele><time>2026-05-04T09:58:25Z</time></trkpt><trkpt lat="38.200533184574844" lon="15.266200764482068"><ele>19.0</ele><time>2026-05-04T09:58:26Z</time></trkpt><trkpt lat="38.20061647470457" lon="15.265974661694381"><ele>19.0</ele><time>2026-05-04T09:58:27Z</time></trkpt><trkpt lat="38.20068778673286" lon="15.265745846734715"><ele>18.0</ele><time>2026-05-04T09:58:28Z</time></trkpt><trkpt lat="38.20075405823271" lon="15.265512009877387"><ele>17.0</ele><time>2026-05-04T09:58:29Z</time></trkpt><trkpt lat="38.20082043659928" lon="15.26527959049684"><ele>16.0</ele><time>2026-05-04T09:58:30Z</time></trkpt><trkpt lat="38.20088308761992" lon="15.265044634163155"><ele>16.0</ele><time>2026-05-04T09:58:31Z</time></trkpt><trkpt lat="38.2009421464908" lon="15.264814162527442"><ele>16.0</ele><time>2026-05-04T09:58:32Z</time></trkpt><trkpt lat="38.20100458214719" lon="15.264584133514063"><ele>16.0</ele><time>2026-05-04T09:58:33Z</time></trkpt><trkpt lat="38.20106910347274" lon="15.264351945092402"><ele>15.0</ele><time>2026-05-04T09:58:34Z</time></trkpt><trkpt lat="38.20113132758629" lon="15.264118142128334"><ele>14.0</ele><time>2026-05-04T09:58:35Z</time></trkpt><trkpt lat="38.20118873914821" lon="15.263882012277563"><ele>13.0</ele><time>2026-05-04T09:58:36Z</time></trkpt><trkpt lat="38.20124518702664" lon="15.263640766039854"><ele>12.666666666666666</ele><time>2026-05-04T09:58:37Z</time></trkpt><trkpt lat="38.20130274875263" lon="15.263395573613632"><ele>12.333333333333332</ele><time>2026-05-04T09:58:38Z</time></trkpt><trkpt lat="38.20135606068295" lon="15.263149685042094"><ele>12.0</ele><time>2026-05-04T09:58:39Z</time></trkpt><trkpt lat="38.201408259554974" lon="15.26290316737938"><ele>12.0</ele><time>2026-05-04T09:58:40Z</time></trkpt><trkpt lat="38.201460808346525" lon="15.262659544769958"><ele>12.0</ele><time>2026-05-04T09:58:41Z</time></trkpt><trkpt lat="38.20151922713113" lon="15.26242297974876"><ele>12.0</ele><time>2026-05-04T09:58:42Z</time></trkpt><trkpt lat="38.20159331597658" lon="15.262201031123432"><ele>11.0</ele><time>2026-05-04T09:58:43Z</time></trkpt><trkpt lat="38.20167962024544" lon="15.26199190856529"><ele>10.0</ele><time>2026-05-04T09:58:44Z</time></trkpt><trkpt lat="38.20177627543867" lon="15.261785635155539"><ele>9.0</ele><time>2026-05-04T09:58:45Z</time></trkpt><trkpt lat="38.20188423785819" lon="15.26158450015901"><ele>10.666666666666668</ele><time>2026-05-04T09:58:46Z</time></trkpt><trkpt lat="38.201998217107224" lon="15.261384721783445"><ele>12.333333333333334</ele><time>2026-05-04T09:58:47Z</time></trkpt><trkpt lat="38.20210720699474" lon="15.261194120272224"><ele>14.0</ele><time>2026-05-04T09:58:48Z</time></trkpt><trkpt lat="38.20220478297591" lon="15.260990235097726"><ele>14.0</ele><time>2026-05-04T09:58:49Z</time></trkpt><trkpt lat="38.20228852243984" lon="15.260778009078985"><ele>14.0</ele><time>2026-05-04T09:58:50Z</time></trkpt><trkpt lat="38.202352593045866" lon="15.260560631924156"><ele>14.0</ele><time>2026-05-04T09:58:51Z</time></trkpt><trkpt lat="38.20240311542402" lon="15.26033154390054"><ele>13.666666666666668</ele><time>2026-05-04T09:58:52Z</time></trkpt><trkpt lat="38.20244744763262" lon="15.260101777290075"><ele>13.333333333333332</ele><time>2026-05-04T09:58:53Z</time></trkpt><trkpt lat="38.20249385070452" lon="15.259872311657361"><ele>13.0</ele><time>2026-05-04T09:58:54Z</time></trkpt><trkpt lat="38.20254818916144" lon="15.259651891338077"><ele>13.0</ele><time>2026-05-04T09:58:55Z</time></trkpt><trkpt lat="38.202606026328745" lon="15.259447086115625"><ele>13.0</ele><time>2026-05-04T09:58:56Z</time></trkpt><trkpt lat="38.202676174426685" lon="15.259262580549137"><ele>13.0</ele><time>2026-05-04T09:58:57Z</time></trkpt><trkpt lat="38.20275998907718" lon="15.25908797686576"><ele>13.333333333333332</ele><time>2026-05-04T09:58:58Z</time></trkpt><trkpt lat="38.20286177482866" lon="15.258921473017862"><ele>13.666666666666668</ele><time>2026-05-04T09:58:59Z</time></trkpt><trkpt lat="38.20296913989706" lon="15.258750864166819"><ele>14.0</ele><time>2026-05-04T09:59:00Z</time></trkpt><trkpt lat="38.20308196282506" lon="15.258585201782527"><ele>13.666666666666668</ele><time>2026-05-04T09:59:01Z</time></trkpt><trkpt lat="38.20320864175561" lon="15.258408109874336"><ele>13.333333333333332</ele><time>2026-05-04T09:59:02Z</time></trkpt><trkpt lat="38.2033028979181" lon="15.258215114541887"><ele>13.0</ele><time>2026-05-04T09:59:03Z</time></trkpt><trkpt lat="38.20338152505549" lon="15.257995334033243"><ele>13.0</ele><time>2026-05-04T09:59:03.999Z</time></trkpt><trkpt lat="38.20345740488083" lon="15.257768540457697"><ele>13.0</ele><time>2026-05-04T09:59:04.999Z</time></trkpt><trkpt lat="38.2035334083149" lon="15.257539926213884"><ele>13.0</ele><time>2026-05-04T09:59:05.999Z</time></trkpt><trkpt lat="38.203622467285605" lon="15.257316111386444"><ele>13.0</ele><time>2026-05-04T09:59:06.999Z</time></trkpt><trkpt lat="38.20371254975651" lon="15.257094878557412"><ele>13.0</ele><time>2026-05-04T09:59:07.999Z</time></trkpt><trkpt lat="38.20379599548672" lon="15.25687482687136"><ele>13.0</ele><time>2026-05-04T09:59:08.999Z</time></trkpt><trkpt lat="38.203874766104526" lon="15.256653265787948"><ele>13.0</ele><time>2026-05-04T09:59:09.999Z</time></trkpt><trkpt lat="38.203953934868224" lon="15.256429995925389"><ele>13.0</ele><time>2026-05-04T09:59:10.999Z</time></trkpt><trkpt lat="38.204030582809786" lon="15.25620424435488"><ele>13.0</ele><time>2026-05-04T09:59:11.999Z</time></trkpt><trkpt lat="38.20408847405574" lon="15.255983434894876"><ele>13.0</ele><time>2026-05-04T09:59:12.999Z</time></trkpt><trkpt lat="38.20413750952418" lon="15.25576067074914"><ele>13.0</ele><time>2026-05-04T09:59:13.999Z</time></trkpt><trkpt lat="38.204183450329815" lon="15.255526585137657"><ele>13.0</ele><time>2026-05-04T09:59:14.999Z</time></trkpt><trkpt lat="38.20421367125033" lon="15.255298301899504"><ele>13.0</ele><time>2026-05-04T09:59:15.999Z</time></trkpt><trkpt lat="38.204234082589444" lon="15.25507530969732"><ele>13.0</ele><time>2026-05-04T09:59:16.999Z</time></trkpt><trkpt lat="38.20426727215657" lon="15.25485660182653"><ele>13.0</ele><time>2026-05-04T09:59:17.999Z</time></trkpt><trkpt lat="38.20425442127221" lon="15.254675315970555"><ele>13.0</ele><time>2026-05-04T09:59:18.999Z</time></trkpt><trkpt lat="38.204260895822266" lon="15.254497199524074"><ele>13.0</ele><time>2026-05-04T09:59:19.999Z</time></trkpt><trkpt lat="38.20426944360463" lon="15.254347367005217"><ele>13.0</ele><time>2026-05-04T09:59:20.999Z</time></trkpt><trkpt lat="38.204285471736014" lon="15.254232043415731"><ele>13.0</ele><time>2026-05-04T09:59:21.999Z</time></trkpt><trkpt lat="38.20427580175472" lon="15.254141439845245"><ele>13.0</ele><time>2026-05-04T09:59:22.999Z</time></trkpt><trkpt lat="38.20442940420608" lon="15.254116926578517"><ele>12.999999999999998</ele><time>2026-05-04T09:59:24.999Z</time></trkpt><trkpt lat="38.20449778120311" lon="15.25415236280822"><ele>13.0</ele><time>2026-05-04T09:59:25.999Z</time></trkpt><trkpt lat="38.204590934874666" lon="15.25418900951919"><ele>13.0</ele><time>2026-05-04T09:59:26.999Z</time></trkpt><trkpt lat="38.20467677360724" lon="15.25422349338617"><ele>13.0</ele><time>2026-05-04T09:59:27.999Z</time></trkpt><trkpt lat="38.20473927621274" lon="15.254251022474506"><ele>12.999999999999998</ele><time>2026-05-04T09:59:28.999Z</time></trkpt><trkpt lat="38.204801818359975" lon="15.254280617078694"><ele>13.0</ele><time>2026-05-04T09:59:30.999Z</time></trkpt><trkpt lat="38.20485810873384" lon="15.25416494196088"><ele>12.0</ele><time>2026-05-04T09:59:32.999Z</time></trkpt><trkpt lat="38.20493510054678" lon="15.254093623576994"><ele>11.0</ele><time>2026-05-04T09:59:33.999Z</time></trkpt><trkpt lat="38.20500263352452" lon="15.253959169631976"><ele>10.0</ele><time>2026-05-04T09:59:34.999Z</time></trkpt><trkpt lat="38.20510081563903" lon="15.253820752059621"><ele>9.0</ele><time>2026-05-04T09:59:35.999Z</time></trkpt><trkpt lat="38.20519514815959" lon="15.253706138952236"><ele>8.5</ele><time>2026-05-04T09:59:36.999Z</time></trkpt><trkpt lat="38.20527781482481" lon="15.253596006873794"><ele>8.0</ele><time>2026-05-04T09:59:37.999Z</time></trkpt><trkpt lat="38.20535701452661" lon="15.253489926031762"><ele>7.5</ele><time>2026-05-04T09:59:38.999Z</time></trkpt><trkpt lat="38.20545131375021" lon="15.25337443365097"><ele>7.0</ele><time>2026-05-04T09:59:39.999Z</time></trkpt><trkpt lat="38.205553141134615" lon="15.253236479661986"><ele>7.666666666666667</ele><time>2026-05-04T09:59:40.999Z</time></trkpt><trkpt lat="38.205659423848346" lon="15.253088805196903"><ele>8.333333333333334</ele><time>2026-05-04T09:59:41.999Z</time></trkpt><trkpt lat="38.20577243971177" lon="15.252936373717713"><ele>9.0</ele><time>2026-05-04T09:59:42.999Z</time></trkpt><trkpt lat="38.20588264879847" lon="15.252799255724906"><ele>9.0</ele><time>2026-05-04T09:59:43.999Z</time></trkpt><trkpt lat="38.20597325413546" lon="15.252690828446193"><ele>9.0</ele><time>2026-05-04T09:59:44.999Z</time></trkpt><trkpt lat="38.20605988347911" lon="15.252580022783109"><ele>9.0</ele><time>2026-05-04T09:59:45.999Z</time></trkpt><trkpt lat="38.20615110778702" lon="15.252472852073964"><ele>9.0</ele><time>2026-05-04T09:59:46.999Z</time></trkpt><trkpt lat="38.2062246937842" lon="15.252347373531617"><ele>8.6</ele><time>2026-05-04T09:59:47.999Z</time></trkpt><trkpt lat="38.20625738666907" lon="15.252194023656662"><ele>8.2</ele><time>2026-05-04T09:59:48.999Z</time></trkpt><trkpt lat="38.206233324481104" lon="15.25206187117273"><ele>7.799999999999999</ele><time>2026-05-04T09:59:49.999Z</time></trkpt><trkpt lat="38.20619682134067" lon="15.251939469122988"><ele>7.3999999999999995</ele><time>2026-05-04T09:59:50.999Z</time></trkpt><trkpt lat="38.20611625688074" lon="15.251839730947056"><ele>7.0</ele><time>2026-05-04T09:59:51.999Z</time></trkpt><trkpt lat="38.20600691640313" lon="15.251750246342189"><ele>7.0</ele><time>2026-05-04T09:59:52.999Z</time></trkpt><trkpt lat="38.205894871644254" lon="15.251679914975789"><ele>7.0</ele><time>2026-05-04T09:59:53.999Z</time></trkpt><trkpt lat="38.205789290371605" lon="15.25158712360878"><ele>7.0</ele><time>2026-05-04T09:59:54.999Z</time></trkpt><trkpt lat="38.20568831700346" lon="15.251481751544379"><ele>7.0</ele><time>2026-05-04T09:59:55.999Z</time></trkpt><trkpt lat="38.205572674324046" lon="15.251391018829635"><ele>8.0</ele><time>2026-05-04T09:59:56.999Z</time></trkpt><trkpt lat="38.20538690440932" lon="15.251265301051381"><ele>9.0</ele><time>2026-05-04T09:59:57.999Z</time></trkpt><trkpt lat="38.20525106750792" lon="15.251121358535155"><ele>10.0</ele><time>2026-05-04T09:59:58.999Z</time></trkpt><trkpt lat="38.205098889536174" lon="15.25096920250381"><ele>10.0</ele><time>2026-05-04T09:59:59.998Z</time></trkpt><trkpt lat="38.20494361261306" lon="15.250823761388249"><ele>10.0</ele><time>2026-05-04T10:00:00.998Z</time></trkpt><trkpt lat="38.20479631891915" lon="15.250654179868254"><ele>10.0</ele><time>2026-05-04T10:00:01.998Z</time></trkpt><trkpt lat="38.20464377932504" lon="15.250480252542093"><ele>10.0</ele><time>2026-05-04T10:00:02.998Z</time></trkpt><trkpt lat="38.20451658738189" lon="15.250315702104517"><ele>10.0</ele><time>2026-05-04T10:00:04Z</time></trkpt><trkpt lat="38.20439597690274" lon="15.25013268399454"><ele>10.0</ele><time>2026-05-04T10:00:05Z</time></trkpt><trkpt lat="38.20429856012288" lon="15.249938434785255"><ele>10.0</ele><time>2026-05-04T10:00:06Z</time></trkpt><trkpt lat="38.20422314682529" lon="15.24977065816157"><ele>10.0</ele><time>2026-05-04T10:00:07Z</time></trkpt><trkpt lat="38.2041571366894" lon="15.24960434409918"><ele>10.0</ele><time>2026-05-04T10:00:08Z</time></trkpt><trkpt lat="38.2041067184763" lon="15.249427373523366"><ele>10.0</ele><time>2026-05-04T10:00:09Z</time></trkpt><trkpt lat="38.204061598703824" lon="15.249276220005601"><ele>10.0</ele><time>2026-05-04T10:00:10Z</time></trkpt><trkpt lat="38.204020935720315" lon="15.249142667547908"><ele>10.0</ele><time>2026-05-04T10:00:11Z</time></trkpt><trkpt lat="38.20399629672885" lon="15.249044696792637"><ele>10.0</ele><time>2026-05-04T10:00:12Z</time></trkpt><trkpt lat="38.20395237832922" lon="15.248939744051164"><ele>10.0</ele><time>2026-05-04T10:00:14Z</time></trkpt><trkpt lat="38.20408112683983" lon="15.248845715761332"><ele>10.0</ele><time>2026-05-04T10:00:15Z</time></trkpt><trkpt lat="38.204162998285135" lon="15.248802070183354"><ele>9.666666666666668</ele><time>2026-05-04T10:00:16Z</time></trkpt><trkpt lat="38.20427101834009" lon="15.248770589069249"><ele>9.333333333333334</ele><time>2026-05-04T10:00:17Z</time></trkpt><trkpt lat="38.20441113806831" lon="15.24870966040194"><ele>9.0</ele><time>2026-05-04T10:00:18Z</time></trkpt><trkpt lat="38.204605382880594" lon="15.248662932948216"><ele>9.0</ele><time>2026-05-04T10:00:19Z</time></trkpt><trkpt lat="38.20481234258777" lon="15.248602322416552"><ele>9.0</ele><time>2026-05-04T10:00:20Z</time></trkpt><trkpt lat="38.20504494990142" lon="15.248564538540414"><ele>9.0</ele><time>2026-05-04T10:00:21Z</time></trkpt><trkpt lat="38.205267784324626" lon="15.248484277896656"><ele>9.5</ele><time>2026-05-04T10:00:22Z</time></trkpt><trkpt lat="38.20550114970905" lon="15.248429190858534"><ele>10.0</ele><time>2026-05-04T10:00:23Z</time></trkpt><trkpt lat="38.20575818673415" lon="15.248369125660167"><ele>9.0</ele><time>2026-05-04T10:00:24Z</time></trkpt><trkpt lat="38.20599810852903" lon="15.248315489155026"><ele>8.0</ele><time>2026-05-04T10:00:25Z</time></trkpt><trkpt lat="38.20621159065511" lon="15.248265917470418"><ele>8.0</ele><time>2026-05-04T10:00:26Z</time></trkpt><trkpt lat="38.20641349174729" lon="15.248223468728654"><ele>8.0</ele><time>2026-05-04T10:00:27Z</time></trkpt><trkpt lat="38.20660013555942" lon="15.248185694174483"><ele>8.0</ele><time>2026-05-04T10:00:28Z</time></trkpt><trkpt lat="38.20679455974473" lon="15.248145274916"><ele>7.666666666666666</ele><time>2026-05-04T10:00:29Z</time></trkpt><trkpt lat="38.20698635588689" lon="15.248090380572728"><ele>7.333333333333334</ele><time>2026-05-04T10:00:30Z</time></trkpt><trkpt lat="38.207166544175664" lon="15.248041099357149"><ele>7.0</ele><time>2026-05-04T10:00:31Z</time></trkpt><trkpt lat="38.20733391625334" lon="15.247999194002809"><ele>7.0</ele><time>2026-05-04T10:00:32Z</time></trkpt><trkpt lat="38.20748552138668" lon="15.247963769898442"><ele>7.0</ele><time>2026-05-04T10:00:33Z</time></trkpt><trkpt lat="38.20760981655484" lon="15.247929206676886"><ele>7.0</ele><time>2026-05-04T10:00:34Z</time></trkpt><trkpt lat="38.207710894956044" lon="15.247890265268815"><ele>7.0</ele><time>2026-05-04T10:00:35Z</time></trkpt><trkpt lat="38.207795353745894" lon="15.24785196936653"><ele>7.0</ele><time>2026-05-04T10:00:36Z</time></trkpt><trkpt lat="38.20785532327172" lon="15.24782457685282"><ele>7.0</ele><time>2026-05-04T10:00:37Z</time></trkpt><trkpt lat="38.20791583418706" lon="15.247793318472821"><ele>7.0</ele><time>2026-05-04T10:00:39Z</time></trkpt><trkpt lat="38.20799128732963" lon="15.247752059399474"><ele>7.0</ele><time>2026-05-04T10:00:42Z</time></trkpt><trkpt lat="38.208058709121744" lon="15.24772520689188"><ele>7.0</ele><time>2026-05-04T10:00:43Z</time></trkpt><trkpt lat="38.20812528844257" lon="15.247689094225416"><ele>7.0</ele><time>2026-05-04T10:00:44Z</time></trkpt><trkpt lat="38.208201521169606" lon="15.247635915999902"><ele>7.0</ele><time>2026-05-04T10:00:45Z</time></trkpt><trkpt lat="38.208302871533775" lon="15.24757862097906"><ele>6.666666666666667</ele><time>2026-05-04T10:00:46Z</time></trkpt><trkpt lat="38.20842649924079" lon="15.247516991984375"><ele>6.333333333333334</ele><time>2026-05-04T10:00:47Z</time></trkpt><trkpt lat="38.208564158785634" lon="15.247451422657264"><ele>6.0</ele><time>2026-05-04T10:00:48Z</time></trkpt><trkpt lat="38.20872453098177" lon="15.247361022649034"><ele>6.0</ele><time>2026-05-04T10:00:49Z</time></trkpt><trkpt lat="38.20887924451099" lon="15.247258628273398"><ele>6.0</ele><time>2026-05-04T10:00:50Z</time></trkpt><trkpt lat="38.20901153437712" lon="15.24715092743721"><ele>6.0</ele><time>2026-05-04T10:00:51Z</time></trkpt><trkpt lat="38.20910317025157" lon="15.246997188970505"><ele>6.0</ele><time>2026-05-04T10:00:52Z</time></trkpt><trkpt lat="38.20917187165313" lon="15.2468534327795"><ele>6.0</ele><time>2026-05-04T10:00:53Z</time></trkpt><trkpt lat="38.20928504102842" lon="15.24669685701164"><ele>6.0</ele><time>2026-05-04T10:00:54Z</time></trkpt><trkpt lat="38.209340937289994" lon="15.246519515438317"><ele>6.0</ele><time>2026-05-04T10:00:55Z</time></trkpt><trkpt lat="38.209390789846125" lon="15.24635557722127"><ele>6.0</ele><time>2026-05-04T10:00:56Z</time></trkpt><trkpt lat="38.20944166524779" lon="15.246210467398182"><ele>6.0</ele><time>2026-05-04T10:00:57Z</time></trkpt><trkpt lat="38.209495173904436" lon="15.246079134927092"><ele>6.0</ele><time>2026-05-04T10:00:58Z</time></trkpt><trkpt lat="38.209519985575746" lon="15.245948066576766"><ele>6.0</ele><time>2026-05-04T10:00:59Z</time></trkpt><trkpt lat="38.209559955839474" lon="15.24584336744435"><ele>6.0</ele><time>2026-05-04T10:01:00Z</time></trkpt><trkpt lat="38.20960136300813" lon="15.245765203345819"><ele>6.0</ele><time>2026-05-04T10:01:01Z</time></trkpt><trkpt lat="38.209594663679766" lon="15.245679267675117"><ele>6.0</ele><time>2026-05-04T10:01:02Z</time></trkpt><trkpt lat="38.209526609868085" lon="15.245596458127013"><ele>6.0</ele><time>2026-05-04T10:01:04Z</time></trkpt><trkpt lat="38.20944381212222" lon="15.24553196356588"><ele>6.0</ele><time>2026-05-04T10:01:06Z</time></trkpt><trkpt lat="38.20938293902274" lon="15.245470786914144"><ele>6.0</ele><time>2026-05-04T10:01:07Z</time></trkpt><trkpt lat="38.20932154308055" lon="15.245376256267631"><ele>6.0</ele><time>2026-05-04T10:01:08Z</time></trkpt><trkpt lat="38.20925553226045" lon="15.245268319576168"><ele>6.199999999999999</ele><time>2026-05-04T10:01:08.999Z</time></trkpt><trkpt lat="38.20918620761267" lon="15.245160902090053"><ele>6.3999999999999995</ele><time>2026-05-04T10:01:09.999Z</time></trkpt><trkpt lat="38.20911003939835" lon="15.245056423668618"><ele>6.6</ele><time>2026-05-04T10:01:10.999Z</time></trkpt><trkpt lat="38.209060345820156" lon="15.244932784123103"><ele>6.8</ele><time>2026-05-04T10:01:11.999Z</time></trkpt><trkpt lat="38.20901993992175" lon="15.244791694341746"><ele>7.0</ele><time>2026-05-04T10:01:12.999Z</time></trkpt><trkpt lat="38.208975358856954" lon="15.244646876484198"><ele>8.0</ele><time>2026-05-04T10:01:13.999Z</time></trkpt><trkpt lat="38.208945358945655" lon="15.244456780029084"><ele>9.0</ele><time>2026-05-04T10:01:14.999Z</time></trkpt><trkpt lat="38.20892462376776" lon="15.244227873171667"><ele>10.0</ele><time>2026-05-04T10:01:15.999Z</time></trkpt><trkpt lat="38.208894229075945" lon="15.244023723634367"><ele>9.75</ele><time>2026-05-04T10:01:16.999Z</time></trkpt><trkpt lat="38.20886899158636" lon="15.243848402375363"><ele>9.5</ele><time>2026-05-04T10:01:17.999Z</time></trkpt><trkpt lat="38.20884827852662" lon="15.243694776605235"><ele>9.25</ele><time>2026-05-04T10:01:18.999Z</time></trkpt><trkpt lat="38.208822180718236" lon="15.243535358835468"><ele>9.0</ele><time>2026-05-04T10:01:19.999Z</time></trkpt><trkpt lat="38.208796403655164" lon="15.243376191374159"><ele>9.0</ele><time>2026-05-04T10:01:20.999Z</time></trkpt><trkpt lat="38.20873432539928" lon="15.243235152947644"><ele>9.0</ele><time>2026-05-04T10:01:21.999Z</time></trkpt><trkpt lat="38.208710919154555" lon="15.243103010978658"><ele>9.0</ele><time>2026-05-04T10:01:22.999Z</time></trkpt><trkpt lat="38.20870841281097" lon="15.242993401832168"><ele>9.0</ele><time>2026-05-04T10:01:23.999Z</time></trkpt><trkpt lat="38.20866828603221" lon="15.242915808490759"><ele>9.0</ele><time>2026-05-04T10:01:24.999Z</time></trkpt><trkpt lat="38.20859753711068" lon="15.242867249492194"><ele>9.0</ele><time>2026-05-04T10:01:25.999Z</time></trkpt><trkpt lat="38.208509471596734" lon="15.242858041788462"><ele>9.0</ele><time>2026-05-04T10:01:26.999Z</time></trkpt><trkpt lat="38.208417701515486" lon="15.242886900491714"><ele>9.0</ele><time>2026-05-04T10:01:27.999Z</time></trkpt><trkpt lat="38.208310200554415" lon="15.24292288844603"><ele>9.0</ele><time>2026-05-04T10:01:28.999Z</time></trkpt><trkpt lat="38.20817045297917" lon="15.24291226664976"><ele>9.0</ele><time>2026-05-04T10:01:29.999Z</time></trkpt><trkpt lat="38.20800007105257" lon="15.242941372762616"><ele>9.0</ele><time>2026-05-04T10:01:30.999Z</time></trkpt><trkpt lat="38.20784334685995" lon="15.242968362622403"><ele>9.0</ele><time>2026-05-04T10:01:31.999Z</time></trkpt><trkpt lat="38.207713872275946" lon="15.243019981788237"><ele>9.0</ele><time>2026-05-04T10:01:32.999Z</time></trkpt><trkpt lat="38.207588850780766" lon="15.24303476816506"><ele>9.0</ele><time>2026-05-04T10:01:33.999Z</time></trkpt><trkpt lat="38.20747612048559" lon="15.243049894652213"><ele>9.0</ele><time>2026-05-04T10:01:34.999Z</time></trkpt><trkpt lat="38.20738171253982" lon="15.243063382851568"><ele>9.0</ele><time>2026-05-04T10:01:35.999Z</time></trkpt><trkpt lat="38.20729999331965" lon="15.243079923275877"><ele>9.0</ele><time>2026-05-04T10:01:36.999Z</time></trkpt><trkpt lat="38.20723873335353" lon="15.243104236618777"><ele>9.0</ele><time>2026-05-04T10:01:37.999Z</time></trkpt><trkpt lat="38.20719275473107" lon="15.243194288234971"><ele>9.0</ele><time>2026-05-04T10:01:39.999Z</time></trkpt><trkpt lat="38.20715922240212" lon="15.243272172249036"><ele>9.0</ele><time>2026-05-04T10:01:40.999Z</time></trkpt><trkpt lat="38.20717169559594" lon="15.243365698949267"><ele>9.0</ele><time>2026-05-04T10:01:41.999Z</time></trkpt><trkpt lat="38.207184858233305" lon="15.24346439514104"><ele>9.0</ele><time>2026-05-04T10:01:42.999Z</time></trkpt><trkpt lat="38.207197003309076" lon="15.24355546148739"><ele>9.0</ele><time>2026-05-04T10:01:43.999Z</time></trkpt><trkpt lat="38.20720882646649" lon="15.243637094797622"><ele>9.0</ele><time>2026-05-04T10:01:44.999Z</time></trkpt><trkpt lat="38.20722342838564" lon="15.243715234275923"><ele>9.0</ele><time>2026-05-04T10:01:47.999Z</time></trkpt><trkpt lat="38.20722342838564" lon="15.243715234275923"><ele>9.0</ele><time>2026-05-04T10:01:47.999Z</time></trkpt></trkseg></trk></gpx>